<?xml version='1.0' encoding='UTF-8'?><gpx version="1.1" creator="JPX - https://github.com/jenetics/jpx" xmlns="http://www.topografix.com/GPX/1/1"><trk><trkseg><trkpt lat="40.0952067" lon="8.6689183"><ele>235.0</ele><time>2026-04-20T09:27:44.799Z</time></trkpt><trkpt lat="40.0952717" lon="8.6689083"><ele>235.0</ele><time>2026-04-20T09:27:46.799Z</time></trkpt><trkpt lat="40.0953433" lon="8.6689167"><ele>235.0</ele><time>2026-04-20T09:27:49.799Z</time></trkpt><trkpt lat="40.095505" lon="8.668915"><ele>235.0</ele><time>2026-04-20T09:27:53.799Z</time></trkpt><trkpt lat="40.0956117" lon="8.66892"><ele>235.0</ele><time>2026-04-20T09:27:55.8Z</time></trkpt><trkpt lat="40.0957217" lon="8.66892"><ele>235.83333333333331</ele><time>2026-04-20T09:27:57.799Z</time></trkpt><trkpt lat="40.0958367" lon="8.66892"><ele>236.66666666666666</ele><time>2026-04-20T09:27:59.799Z</time></trkpt><trkpt lat="40.0959017" lon="8.6689267"><ele>237.5</ele><time>2026-04-20T09:28:00.799Z</time></trkpt><trkpt lat="40.0959783" lon="8.6689367"><ele>238.33333333333331</ele><time>2026-04-20T09:28:01.799Z</time></trkpt><trkpt lat="40.0960617" lon="8.668945"><ele>239.16666666666666</ele><time>2026-04-20T09:28:02.799Z</time></trkpt><trkpt lat="40.0961533" lon="8.6689483"><ele>240.0</ele><time>2026-04-20T09:28:03.799Z</time></trkpt><trkpt lat="40.0962517" lon="8.66895"><ele>240.0</ele><time>2026-04-20T09:28:04.799Z</time></trkpt><trkpt lat="40.0963533" lon="8.6689517"><ele>240.0</ele><time>2026-04-20T09:28:05.799Z</time></trkpt><trkpt lat="40.0964567" lon="8.668955"><ele>240.0</ele><time>2026-04-20T09:28:06.799Z</time></trkpt><trkpt lat="40.0965683" lon="8.6689633"><ele>240.0</ele><time>2026-04-20T09:28:07.799Z</time></trkpt><trkpt lat="40.0966867" lon="8.6689767"><ele>240.0</ele><time>2026-04-20T09:28:08.799Z</time></trkpt><trkpt lat="40.0968117" lon="8.6689867"><ele>241.33333333333331</ele><time>2026-04-20T09:28:09.799Z</time></trkpt><trkpt lat="40.0969517" lon="8.6689967"><ele>242.66666666666666</ele><time>2026-04-20T09:28:10.799Z</time></trkpt><trkpt lat="40.097245" lon="8.669"><ele>244.0</ele><time>2026-04-20T09:28:12.799Z</time></trkpt><trkpt lat="40.097385" lon="8.6689867"><ele>244.5</ele><time>2026-04-20T09:28:13.799Z</time></trkpt><trkpt lat="40.09752" lon="8.66897"><ele>245.0</ele><time>2026-04-20T09:28:14.799Z</time></trkpt><trkpt lat="40.0976583" lon="8.6689417"><ele>245.5</ele><time>2026-04-20T09:28:15.799Z</time></trkpt><trkpt lat="40.0978017" lon="8.6689217"><ele>246.0</ele><time>2026-04-20T09:28:16.799Z</time></trkpt><trkpt lat="40.097935" lon="8.66891"><ele>246.0</ele><time>2026-04-20T09:28:17.799Z</time></trkpt><trkpt lat="40.0980567" lon="8.6688883"><ele>246.00000000000003</ele><time>2026-04-20T09:28:18.799Z</time></trkpt><trkpt lat="40.0981633" lon="8.6688683"><ele>246.00000000000003</ele><time>2026-04-20T09:28:19.799Z</time></trkpt><trkpt lat="40.0982683" lon="8.6688533"><ele>246.0</ele><time>2026-04-20T09:28:20.8Z</time></trkpt><trkpt lat="40.098355" lon="8.6688433"><ele>246.0</ele><time>2026-04-20T09:28:21.799Z</time></trkpt><trkpt lat="40.0984317" lon="8.668825"><ele>246.71428571428575</ele><time>2026-04-20T09:28:22.799Z</time></trkpt><trkpt lat="40.0985017" lon="8.6687867"><ele>247.42857142857144</ele><time>2026-04-20T09:28:23.799Z</time></trkpt><trkpt lat="40.09857" lon="8.66873"><ele>248.14285714285714</ele><time>2026-04-20T09:28:24.799Z</time></trkpt><trkpt lat="40.0986233" lon="8.6686817"><ele>248.85714285714286</ele><time>2026-04-20T09:28:25.799Z</time></trkpt><trkpt lat="40.0986833" lon="8.668635"><ele>249.57142857142856</ele><time>2026-04-20T09:28:26.8Z</time></trkpt><trkpt lat="40.098745" lon="8.6685967"><ele>250.28571428571425</ele><time>2026-04-20T09:28:27.8Z</time></trkpt><trkpt lat="40.0988183" lon="8.6685733"><ele>250.99999999999997</ele><time>2026-04-20T09:28:28.799Z</time></trkpt><trkpt lat="40.098895" lon="8.66856"><ele>251.0</ele><time>2026-04-20T09:28:29.8Z</time></trkpt><trkpt lat="40.0989817" lon="8.6685483"><ele>251.00000000000003</ele><time>2026-04-20T09:28:30.8Z</time></trkpt><trkpt lat="40.0990633" lon="8.6685533"><ele>251.00000000000003</ele><time>2026-04-20T09:28:31.799Z</time></trkpt><trkpt lat="40.09924" lon="8.6685433"><ele>251.0</ele><time>2026-04-20T09:28:33.799Z</time></trkpt><trkpt lat="40.0993283" lon="8.6685133"><ele>251.0</ele><time>2026-04-20T09:28:34.799Z</time></trkpt><trkpt lat="40.0994067" lon="8.66849"><ele>251.50000000000003</ele><time>2026-04-20T09:28:35.799Z</time></trkpt><trkpt lat="40.0994833" lon="8.6684617"><ele>252.0</ele><time>2026-04-20T09:28:36.799Z</time></trkpt><trkpt lat="40.0995583" lon="8.668425"><ele>252.5</ele><time>2026-04-20T09:28:37.799Z</time></trkpt><trkpt lat="40.0996367" lon="8.6683933"><ele>253.0</ele><time>2026-04-20T09:28:38.799Z</time></trkpt><trkpt lat="40.09972" lon="8.6683617"><ele>253.50000000000003</ele><time>2026-04-20T09:28:39.799Z</time></trkpt><trkpt lat="40.0997983" lon="8.6683183"><ele>254.0</ele><time>2026-04-20T09:28:40.799Z</time></trkpt><trkpt lat="40.0998667" lon="8.6682817"><ele>254.66666666666669</ele><time>2026-04-20T09:28:41.799Z</time></trkpt><trkpt lat="40.0999267" lon="8.6682283"><ele>255.33333333333334</ele><time>2026-04-20T09:28:42.799Z</time></trkpt><trkpt lat="40.0999833" lon="8.66817"><ele>256.0</ele><time>2026-04-20T09:28:43.799Z</time></trkpt><trkpt lat="40.10005" lon="8.6681167"><ele>256.6666666666667</ele><time>2026-04-20T09:28:44.799Z</time></trkpt><trkpt lat="40.1001183" lon="8.6680867"><ele>257.3333333333333</ele><time>2026-04-20T09:28:45.799Z</time></trkpt><trkpt lat="40.1002033" lon="8.6680517"><ele>258.0</ele><time>2026-04-20T09:28:46.799Z</time></trkpt><trkpt lat="40.1002883" lon="8.66803"><ele>258.0</ele><time>2026-04-20T09:28:47.799Z</time></trkpt><trkpt lat="40.100385" lon="8.6679917"><ele>258.0</ele><time>2026-04-20T09:28:48.799Z</time></trkpt><trkpt lat="40.1004717" lon="8.6679383"><ele>258.0</ele><time>2026-04-20T09:28:49.8Z</time></trkpt><trkpt lat="40.1005483" lon="8.6678867"><ele>258.0</ele><time>2026-04-20T09:28:50.799Z</time></trkpt><trkpt lat="40.1006233" lon="8.667825"><ele>258.0</ele><time>2026-04-20T09:28:51.799Z</time></trkpt><trkpt lat="40.100695" lon="8.6677733"><ele>258.0</ele><time>2026-04-20T09:28:52.799Z</time></trkpt><trkpt lat="40.1008183" lon="8.6677"><ele>258.0</ele><time>2026-04-20T09:28:54.799Z</time></trkpt><trkpt lat="40.10092" lon="8.66764"><ele>258.0</ele><time>2026-04-20T09:28:56.799Z</time></trkpt><trkpt lat="40.1010033" lon="8.66759"><ele>258.0</ele><time>2026-04-20T09:28:58.799Z</time></trkpt><trkpt lat="40.1010617" lon="8.6675583"><ele>258.0</ele><time>2026-04-20T09:29:00.799Z</time></trkpt><trkpt lat="40.1011483" lon="8.6674933"><ele>258.0</ele><time>2026-04-20T09:29:02.799Z</time></trkpt><trkpt lat="40.10121" lon="8.6674567"><ele>258.0</ele><time>2026-04-20T09:29:03.799Z</time></trkpt><trkpt lat="40.10129" lon="8.6674333"><ele>258.0</ele><time>2026-04-20T09:29:04.8Z</time></trkpt><trkpt lat="40.1013833" lon="8.6674167"><ele>258.0</ele><time>2026-04-20T09:29:05.799Z</time></trkpt><trkpt lat="40.1014883" lon="8.6674083"><ele>258.0</ele><time>2026-04-20T09:29:06.799Z</time></trkpt><trkpt lat="40.1015883" lon="8.6673983"><ele>258.0</ele><time>2026-04-20T09:29:07.8Z</time></trkpt><trkpt lat="40.1016967" lon="8.6673733"><ele>259.2</ele><time>2026-04-20T09:29:08.8Z</time></trkpt><trkpt lat="40.10181" lon="8.66735"><ele>260.4</ele><time>2026-04-20T09:29:09.799Z</time></trkpt><trkpt lat="40.101925" lon="8.6673167"><ele>261.59999999999997</ele><time>2026-04-20T09:29:10.799Z</time></trkpt><trkpt lat="40.10203" lon="8.66729"><ele>262.8</ele><time>2026-04-20T09:29:11.799Z</time></trkpt><trkpt lat="40.10213" lon="8.6672733"><ele>264.0</ele><time>2026-04-20T09:29:12.799Z</time></trkpt><trkpt lat="40.1022183" lon="8.6672583"><ele>264.0</ele><time>2026-04-20T09:29:13.799Z</time></trkpt><trkpt lat="40.1023983" lon="8.667185"><ele>264.0</ele><time>2026-04-20T09:29:16.8Z</time></trkpt><trkpt lat="40.1024617" lon="8.6671583"><ele>264.0</ele><time>2026-04-20T09:29:29.799Z</time></trkpt><trkpt lat="40.102535" lon="8.6671783"><ele>264.0</ele><time>2026-04-20T09:29:31.799Z</time></trkpt><trkpt lat="40.1026517" lon="8.6671717"><ele>264.0</ele><time>2026-04-20T09:29:33.799Z</time></trkpt><trkpt lat="40.1027167" lon="8.6671517"><ele>264.8</ele><time>2026-04-20T09:29:34.799Z</time></trkpt><trkpt lat="40.1029217" lon="8.6671183"><ele>265.59999999999997</ele><time>2026-04-20T09:29:37.799Z</time></trkpt><trkpt lat="40.103" lon="8.66711"><ele>266.4</ele><time>2026-04-20T09:29:38.8Z</time></trkpt><trkpt lat="40.1030833" lon="8.6671067"><ele>267.2</ele><time>2026-04-20T09:29:39.8Z</time></trkpt><trkpt lat="40.1031617" lon="8.6671067"><ele>268.0</ele><time>2026-04-20T09:29:40.799Z</time></trkpt><trkpt lat="40.10324" lon="8.6671017"><ele>268.42857142857144</ele><time>2026-04-20T09:29:41.799Z</time></trkpt><trkpt lat="40.10332" lon="8.66709"><ele>268.85714285714283</ele><time>2026-04-20T09:29:42.799Z</time></trkpt><trkpt lat="40.1034017" lon="8.667075"><ele>269.2857142857143</ele><time>2026-04-20T09:29:43.799Z</time></trkpt><trkpt lat="40.10347" lon="8.66706"><ele>269.7142857142857</ele><time>2026-04-20T09:29:44.799Z</time></trkpt><trkpt lat="40.1035367" lon="8.667035"><ele>270.14285714285717</ele><time>2026-04-20T09:29:45.799Z</time></trkpt><trkpt lat="40.1036033" lon="8.6670067"><ele>270.57142857142856</ele><time>2026-04-20T09:29:46.8Z</time></trkpt><trkpt lat="40.103675" lon="8.66698"><ele>271.0</ele><time>2026-04-20T09:29:47.799Z</time></trkpt><trkpt lat="40.1037483" lon="8.6669617"><ele>271.16666666666663</ele><time>2026-04-20T09:29:48.799Z</time></trkpt><trkpt lat="40.10382" lon="8.6669433"><ele>271.3333333333333</ele><time>2026-04-20T09:29:49.799Z</time></trkpt><trkpt lat="40.1039033" lon="8.66693"><ele>271.5</ele><time>2026-04-20T09:29:50.799Z</time></trkpt><trkpt lat="40.1039933" lon="8.666915"><ele>271.6666666666667</ele><time>2026-04-20T09:29:51.799Z</time></trkpt><trkpt lat="40.1040817" lon="8.666905"><ele>271.83333333333337</ele><time>2026-04-20T09:29:52.799Z</time></trkpt><trkpt lat="40.10416" lon="8.6668983"><ele>272.0</ele><time>2026-04-20T09:29:53.799Z</time></trkpt><trkpt lat="40.104245" lon="8.666895"><ele>272.0</ele><time>2026-04-20T09:29:54.799Z</time></trkpt><trkpt lat="40.1043333" lon="8.666895"><ele>272.0</ele><time>2026-04-20T09:29:55.799Z</time></trkpt><trkpt lat="40.1045167" lon="8.6668883"><ele>272.0</ele><time>2026-04-20T09:29:57.799Z</time></trkpt><trkpt lat="40.104615" lon="8.66688"><ele>272.0</ele><time>2026-04-20T09:29:58.799Z</time></trkpt><trkpt lat="40.104715" lon="8.6668917"><ele>272.0</ele><time>2026-04-20T09:29:59.799Z</time></trkpt><trkpt lat="40.1048183" lon="8.6669017"><ele>272.0</ele><time>2026-04-20T09:30:00.799Z</time></trkpt><trkpt lat="40.104915" lon="8.6669083"><ele>272.0</ele><time>2026-04-20T09:30:01.799Z</time></trkpt><trkpt lat="40.105005" lon="8.6669167"><ele>272.0</ele><time>2026-04-20T09:30:02.799Z</time></trkpt><trkpt lat="40.105075" lon="8.6669317"><ele>272.0</ele><time>2026-04-20T09:30:03.799Z</time></trkpt><trkpt lat="40.105195" lon="8.6669517"><ele>273.8</ele><time>2026-04-20T09:30:05.8Z</time></trkpt><trkpt lat="40.1052917" lon="8.6669783"><ele>275.6</ele><time>2026-04-20T09:30:07.799Z</time></trkpt><trkpt lat="40.1053617" lon="8.666995"><ele>277.40000000000003</ele><time>2026-04-20T09:30:09.799Z</time></trkpt><trkpt lat="40.105425" lon="8.6670467"><ele>279.2</ele><time>2026-04-20T09:30:12.8Z</time></trkpt><trkpt lat="40.1054867" lon="8.6670733"><ele>281.0</ele><time>2026-04-20T09:30:40.799Z</time></trkpt><trkpt lat="40.1056633" lon="8.6671317"><ele>282.2</ele><time>2026-04-20T09:30:44.8Z</time></trkpt><trkpt lat="40.1057517" lon="8.6671983"><ele>283.40000000000003</ele><time>2026-04-20T09:30:46.8Z</time></trkpt><trkpt lat="40.1058417" lon="8.667265"><ele>284.6</ele><time>2026-04-20T09:30:48.799Z</time></trkpt><trkpt lat="40.1059467" lon="8.6673117"><ele>285.8</ele><time>2026-04-20T09:30:50.799Z</time></trkpt><trkpt lat="40.10605" lon="8.66738"><ele>287.0</ele><time>2026-04-20T09:30:52.799Z</time></trkpt><trkpt lat="40.1061667" lon="8.6674017"><ele>287.0</ele><time>2026-04-20T09:30:54.799Z</time></trkpt><trkpt lat="40.106285" lon="8.6673967"><ele>287.0</ele><time>2026-04-20T09:30:56.799Z</time></trkpt><trkpt lat="40.1064" lon="8.6673633"><ele>287.0</ele><time>2026-04-20T09:30:58.799Z</time></trkpt><trkpt lat="40.1064667" lon="8.6673683"><ele>287.0</ele><time>2026-04-20T09:30:59.799Z</time></trkpt><trkpt lat="40.1065417" lon="8.667385"><ele>287.0</ele><time>2026-04-20T09:31:00.799Z</time></trkpt><trkpt lat="40.1066133" lon="8.6674067"><ele>287.8</ele><time>2026-04-20T09:31:01.799Z</time></trkpt><trkpt lat="40.1068033" lon="8.6674833"><ele>288.6</ele><time>2026-04-20T09:31:04.799Z</time></trkpt><trkpt lat="40.1069117" lon="8.6675167"><ele>289.40000000000003</ele><time>2026-04-20T09:31:06.799Z</time></trkpt><trkpt lat="40.10696" lon="8.66757"><ele>290.2</ele><time>2026-04-20T09:31:07.799Z</time></trkpt><trkpt lat="40.1070083" lon="8.6676433"><ele>291.0</ele><time>2026-04-20T09:31:08.8Z</time></trkpt><trkpt lat="40.1070583" lon="8.6677133"><ele>291.1428571428571</ele><time>2026-04-20T09:31:09.8Z</time></trkpt><trkpt lat="40.1071033" lon="8.667785"><ele>291.2857142857143</ele><time>2026-04-20T09:31:10.799Z</time></trkpt><trkpt lat="40.107155" lon="8.667845"><ele>291.42857142857144</ele><time>2026-04-20T09:31:11.799Z</time></trkpt><trkpt lat="40.1072133" lon="8.6679017"><ele>291.57142857142856</ele><time>2026-04-20T09:31:12.8Z</time></trkpt><trkpt lat="40.107275" lon="8.6679417"><ele>291.7142857142857</ele><time>2026-04-20T09:31:13.799Z</time></trkpt><trkpt lat="40.1073317" lon="8.6679817"><ele>291.85714285714283</ele><time>2026-04-20T09:31:14.799Z</time></trkpt><trkpt lat="40.1073883" lon="8.668025"><ele>292.0</ele><time>2026-04-20T09:31:15.799Z</time></trkpt><trkpt lat="40.1074467" lon="8.6680633"><ele>293.2</ele><time>2026-04-20T09:31:16.8Z</time></trkpt><trkpt lat="40.1075083" lon="8.6680933"><ele>294.4</ele><time>2026-04-20T09:31:17.8Z</time></trkpt><trkpt lat="40.10762" lon="8.6681483"><ele>295.6</ele><time>2026-04-20T09:31:19.8Z</time></trkpt><trkpt lat="40.1077367" lon="8.6681617"><ele>296.8</ele><time>2026-04-20T09:31:21.799Z</time></trkpt><trkpt lat="40.1078133" lon="8.6681417"><ele>298.0</ele><time>2026-04-20T09:31:22.799Z</time></trkpt><trkpt lat="40.1079783" lon="8.66811"><ele>298.0</ele><time>2026-04-20T09:31:24.799Z</time></trkpt><trkpt lat="40.1080517" lon="8.668105"><ele>298.0</ele><time>2026-04-20T09:31:25.799Z</time></trkpt><trkpt lat="40.1081167" lon="8.6680883"><ele>298.0</ele><time>2026-04-20T09:31:26.799Z</time></trkpt><trkpt lat="40.1081917" lon="8.668075"><ele>298.0</ele><time>2026-04-20T09:31:27.799Z</time></trkpt><trkpt lat="40.1082567" lon="8.66806"><ele>298.0</ele><time>2026-04-20T09:31:28.799Z</time></trkpt><trkpt lat="40.1083183" lon="8.6680417"><ele>298.0</ele><time>2026-04-20T09:31:29.799Z</time></trkpt><trkpt lat="40.10844" lon="8.6679717"><ele>298.8</ele><time>2026-04-20T09:31:31.799Z</time></trkpt><trkpt lat="40.108565" lon="8.6678933"><ele>299.6</ele><time>2026-04-20T09:31:33.799Z</time></trkpt><trkpt lat="40.1086233" lon="8.6678467"><ele>300.4</ele><time>2026-04-20T09:31:34.8Z</time></trkpt><trkpt lat="40.10868" lon="8.6678017"><ele>301.2</ele><time>2026-04-20T09:31:35.799Z</time></trkpt><trkpt lat="40.10879" lon="8.667725"><ele>302.0</ele><time>2026-04-20T09:31:37.799Z</time></trkpt><trkpt lat="40.10885" lon="8.6676783"><ele>302.0</ele><time>2026-04-20T09:31:38.799Z</time></trkpt><trkpt lat="40.1089117" lon="8.66762"><ele>302.0</ele><time>2026-04-20T09:31:39.8Z</time></trkpt><trkpt lat="40.1089667" lon="8.667555"><ele>302.0</ele><time>2026-04-20T09:31:40.799Z</time></trkpt><trkpt lat="40.109035" lon="8.66745"><ele>302.0</ele><time>2026-04-20T09:31:42.799Z</time></trkpt><trkpt lat="40.1090983" lon="8.6673733"><ele>302.0</ele><time>2026-04-20T09:31:44.799Z</time></trkpt><trkpt lat="40.1091183" lon="8.6673583"><ele>302.0</ele><time>2026-04-20T09:32:20.799Z</time></trkpt><trkpt lat="40.1089967" lon="8.6675083"><ele>302.0</ele><time>2026-04-20T09:32:25.799Z</time></trkpt><trkpt lat="40.1089367" lon="8.6675833"><ele>302.0</ele><time>2026-04-20T09:32:27.799Z</time></trkpt><trkpt lat="40.1088633" lon="8.6676583"><ele>302.0</ele><time>2026-04-20T09:32:29.799Z</time></trkpt><trkpt lat="40.1087633" lon="8.667745"><ele>302.0</ele><time>2026-04-20T09:32:31.799Z</time></trkpt><trkpt lat="40.1087" lon="8.6677933"><ele>302.0</ele><time>2026-04-20T09:32:32.799Z</time></trkpt><trkpt lat="40.1086433" lon="8.6678333"><ele>302.0</ele><time>2026-04-20T09:32:33.799Z</time></trkpt><trkpt lat="40.108585" lon="8.66787"><ele>302.25</ele><time>2026-04-20T09:32:34.799Z</time></trkpt><trkpt lat="40.1084817" lon="8.6679367"><ele>302.5</ele><time>2026-04-20T09:32:36.799Z</time></trkpt><trkpt lat="40.108375" lon="8.6679883"><ele>302.75</ele><time>2026-04-20T09:32:38.799Z</time></trkpt><trkpt lat="40.1082783" lon="8.668025"><ele>303.0</ele><time>2026-04-20T09:32:40.799Z</time></trkpt><trkpt lat="40.1081583" lon="8.6680567"><ele>302.0</ele><time>2026-04-20T09:32:42.799Z</time></trkpt><trkpt lat="40.1080217" lon="8.6680883"><ele>301.0</ele><time>2026-04-20T09:32:44.799Z</time></trkpt><trkpt lat="40.10795" lon="8.668105"><ele>300.0</ele><time>2026-04-20T09:32:45.799Z</time></trkpt><trkpt lat="40.1078783" lon="8.6681183"><ele>299.0</ele><time>2026-04-20T09:32:46.799Z</time></trkpt><trkpt lat="40.107815" lon="8.6681183"><ele>298.0</ele><time>2026-04-20T09:32:47.799Z</time></trkpt><trkpt lat="40.1077067" lon="8.668145"><ele>298.0</ele><time>2026-04-20T09:32:49.799Z</time></trkpt><trkpt lat="40.1076083" lon="8.6681433"><ele>298.0</ele><time>2026-04-20T09:32:51.799Z</time></trkpt><trkpt lat="40.1075033" lon="8.6681"><ele>298.0</ele><time>2026-04-20T09:32:53.799Z</time></trkpt><trkpt lat="40.107395" lon="8.668035"><ele>298.0</ele><time>2026-04-20T09:32:55.799Z</time></trkpt><trkpt lat="40.1072933" lon="8.6679433"><ele>296.5</ele><time>2026-04-20T09:32:57.799Z</time></trkpt><trkpt lat="40.10719" lon="8.667865"><ele>295.0</ele><time>2026-04-20T09:32:59.8Z</time></trkpt><trkpt lat="40.107095" lon="8.6677683"><ele>293.5</ele><time>2026-04-20T09:33:01.799Z</time></trkpt><trkpt lat="40.1070167" lon="8.66766"><ele>292.0</ele><time>2026-04-20T09:33:03.799Z</time></trkpt><trkpt lat="40.10688" lon="8.6674833"><ele>291.8</ele><time>2026-04-20T09:33:07.799Z</time></trkpt><trkpt lat="40.10679" lon="8.6674533"><ele>291.6</ele><time>2026-04-20T09:33:09.8Z</time></trkpt><trkpt lat="40.1067083" lon="8.6674333"><ele>291.40000000000003</ele><time>2026-04-20T09:33:11.8Z</time></trkpt><trkpt lat="40.106645" lon="8.6674083"><ele>291.2</ele><time>2026-04-20T09:33:13.799Z</time></trkpt><trkpt lat="40.106695" lon="8.6674633"><ele>291.0</ele><time>2026-04-20T09:49:13.798Z</time></trkpt><trkpt lat="40.1068967" lon="8.6675283"><ele>291.0</ele><time>2026-04-20T09:49:17.798Z</time></trkpt><trkpt lat="40.1069883" lon="8.6676267"><ele>291.0</ele><time>2026-04-20T09:49:19.798Z</time></trkpt><trkpt lat="40.10703" lon="8.667695"><ele>291.0</ele><time>2026-04-20T09:49:20.798Z</time></trkpt><trkpt lat="40.10712" lon="8.66782"><ele>291.0</ele><time>2026-04-20T09:49:22.798Z</time></trkpt><trkpt lat="40.1071833" lon="8.66787"><ele>291.0</ele><time>2026-04-20T09:49:23.798Z</time></trkpt><trkpt lat="40.1072533" lon="8.66792"><ele>291.1666666666667</ele><time>2026-04-20T09:49:24.798Z</time></trkpt><trkpt lat="40.1073217" lon="8.66797"><ele>291.3333333333333</ele><time>2026-04-20T09:49:25.799Z</time></trkpt><trkpt lat="40.1073767" lon="8.6680217"><ele>291.5</ele><time>2026-04-20T09:49:26.798Z</time></trkpt><trkpt lat="40.1074367" lon="8.668065"><ele>291.66666666666663</ele><time>2026-04-20T09:49:27.798Z</time></trkpt><trkpt lat="40.1075033" lon="8.6680983"><ele>291.8333333333333</ele><time>2026-04-20T09:49:28.798Z</time></trkpt><trkpt lat="40.10762" lon="8.668135"><ele>292.0</ele><time>2026-04-20T09:49:30.798Z</time></trkpt><trkpt lat="40.107735" lon="8.6681383"><ele>293.0</ele><time>2026-04-20T09:49:32.798Z</time></trkpt><trkpt lat="40.107805" lon="8.668125"><ele>294.0</ele><time>2026-04-20T09:49:33.798Z</time></trkpt><trkpt lat="40.1078817" lon="8.668115"><ele>295.0</ele><time>2026-04-20T09:49:34.798Z</time></trkpt><trkpt lat="40.1080317" lon="8.6681"><ele>296.0</ele><time>2026-04-20T09:49:36.799Z</time></trkpt><trkpt lat="40.1081" lon="8.6680917"><ele>297.0</ele><time>2026-04-20T09:49:37.798Z</time></trkpt><trkpt lat="40.1081667" lon="8.6680817"><ele>298.0</ele><time>2026-04-20T09:49:38.798Z</time></trkpt><trkpt lat="40.1082333" lon="8.6680667"><ele>298.8333333333333</ele><time>2026-04-20T09:49:39.798Z</time></trkpt><trkpt lat="40.10835" lon="8.6680317"><ele>299.66666666666663</ele><time>2026-04-20T09:49:41.798Z</time></trkpt><trkpt lat="40.108415" lon="8.6679983"><ele>300.5</ele><time>2026-04-20T09:49:42.798Z</time></trkpt><trkpt lat="40.1084817" lon="8.6679567"><ele>301.3333333333333</ele><time>2026-04-20T09:49:43.798Z</time></trkpt><trkpt lat="40.10855" lon="8.6679167"><ele>302.1666666666667</ele><time>2026-04-20T09:49:44.799Z</time></trkpt><trkpt lat="40.10861" lon="8.6678683"><ele>303.0</ele><time>2026-04-20T09:49:45.799Z</time></trkpt><trkpt lat="40.1086733" lon="8.6678233"><ele>302.8333333333333</ele><time>2026-04-20T09:49:46.798Z</time></trkpt><trkpt lat="40.10873" lon="8.667775"><ele>302.6666666666667</ele><time>2026-04-20T09:49:47.799Z</time></trkpt><trkpt lat="40.1088367" lon="8.6676983"><ele>302.5</ele><time>2026-04-20T09:49:49.798Z</time></trkpt><trkpt lat="40.1088933" lon="8.6676533"><ele>302.33333333333337</ele><time>2026-04-20T09:49:50.798Z</time></trkpt><trkpt lat="40.10894" lon="8.6675967"><ele>302.1666666666667</ele><time>2026-04-20T09:49:51.798Z</time></trkpt><trkpt lat="40.10899" lon="8.6675383"><ele>302.0</ele><time>2026-04-20T09:49:52.798Z</time></trkpt><trkpt lat="40.109065" lon="8.667435"><ele>304.0</ele><time>2026-04-20T09:49:54.798Z</time></trkpt><trkpt lat="40.1091433" lon="8.6673567"><ele>306.0</ele><time>2026-04-20T09:49:56.798Z</time></trkpt><trkpt lat="40.1093067" lon="8.6672117"><ele>308.0</ele><time>2026-04-20T09:50:00.798Z</time></trkpt><trkpt lat="40.1094183" lon="8.6671317"><ele>310.0</ele><time>2026-04-20T09:50:02.798Z</time></trkpt><trkpt lat="40.1095083" lon="8.6670567"><ele>310.0</ele><time>2026-04-20T09:50:04.798Z</time></trkpt><trkpt lat="40.1095767" lon="8.667015"><ele>310.0</ele><time>2026-04-20T09:50:06.798Z</time></trkpt><trkpt lat="40.1096683" lon="8.6669967"><ele>310.0</ele><time>2026-04-20T09:50:08.799Z</time></trkpt><trkpt lat="40.10974" lon="8.6669583"><ele>310.0</ele><time>2026-04-20T09:50:10.798Z</time></trkpt><trkpt lat="40.1098283" lon="8.666915"><ele>310.0</ele><time>2026-04-20T09:50:12.798Z</time></trkpt><trkpt lat="40.1099183" lon="8.6668783"><ele>310.0</ele><time>2026-04-20T09:50:14.798Z</time></trkpt><trkpt lat="40.1100083" lon="8.6668283"><ele>310.5</ele><time>2026-04-20T09:50:16.798Z</time></trkpt><trkpt lat="40.11009" lon="8.6668183"><ele>311.0</ele><time>2026-04-20T09:50:18.798Z</time></trkpt><trkpt lat="40.110295" lon="8.6668133"><ele>311.5</ele><time>2026-04-20T09:50:22.799Z</time></trkpt><trkpt lat="40.1104033" lon="8.6668233"><ele>312.0</ele><time>2026-04-20T09:50:24.798Z</time></trkpt><trkpt lat="40.1105033" lon="8.6668367"><ele>312.0</ele><time>2026-04-20T09:50:26.798Z</time></trkpt><trkpt lat="40.1105783" lon="8.66685"><ele>312.0</ele><time>2026-04-20T09:50:28.799Z</time></trkpt><trkpt lat="40.1106533" lon="8.666865"><ele>312.0</ele><time>2026-04-20T09:50:31.797Z</time></trkpt><trkpt lat="40.1107383" lon="8.6668583"><ele>312.0</ele><time>2026-04-20T09:50:50.797Z</time></trkpt><trkpt lat="40.1108983" lon="8.6668517"><ele>312.0</ele><time>2026-04-20T09:50:54.797Z</time></trkpt><trkpt lat="40.110985" lon="8.6668583"><ele>312.8333333333333</ele><time>2026-04-20T09:50:56.798Z</time></trkpt><trkpt lat="40.1110683" lon="8.6668517"><ele>313.6666666666667</ele><time>2026-04-20T09:50:58.797Z</time></trkpt><trkpt lat="40.1111483" lon="8.6668733"><ele>314.5</ele><time>2026-04-20T09:51:00.797Z</time></trkpt><trkpt lat="40.111245" lon="8.6668917"><ele>315.33333333333337</ele><time>2026-04-20T09:51:02.797Z</time></trkpt><trkpt lat="40.111345" lon="8.6669067"><ele>316.1666666666667</ele><time>2026-04-20T09:51:04.797Z</time></trkpt><trkpt lat="40.1114217" lon="8.6669233"><ele>317.0</ele><time>2026-04-20T09:51:06.798Z</time></trkpt><trkpt lat="40.1115033" lon="8.666935"><ele>317.0</ele><time>2026-04-20T09:51:08.797Z</time></trkpt><trkpt lat="40.1115733" lon="8.6669367"><ele>317.0</ele><time>2026-04-20T09:51:10.797Z</time></trkpt><trkpt lat="40.1116467" lon="8.666965"><ele>317.0</ele><time>2026-04-20T09:51:13.798Z</time></trkpt><trkpt lat="40.1118017" lon="8.667095"><ele>317.0</ele><time>2026-04-20T09:51:18.798Z</time></trkpt><trkpt lat="40.1118683" lon="8.6671583"><ele>317.0</ele><time>2026-04-20T09:51:20.797Z</time></trkpt><trkpt lat="40.11194" lon="8.6672083"><ele>316.4</ele><time>2026-04-20T09:51:22.797Z</time></trkpt><trkpt lat="40.1120367" lon="8.66726"><ele>315.79999999999995</ele><time>2026-04-20T09:51:24.797Z</time></trkpt><trkpt lat="40.1121217" lon="8.6673167"><ele>315.2</ele><time>2026-04-20T09:51:26.797Z</time></trkpt><trkpt lat="40.1121967" lon="8.6673667"><ele>314.59999999999997</ele><time>2026-04-20T09:51:28.797Z</time></trkpt><trkpt lat="40.1122767" lon="8.667425"><ele>314.0</ele><time>2026-04-20T09:51:30.797Z</time></trkpt><trkpt lat="40.1123583" lon="8.667455"><ele>315.4</ele><time>2026-04-20T09:51:32.797Z</time></trkpt><trkpt lat="40.1124417" lon="8.667495"><ele>316.79999999999995</ele><time>2026-04-20T09:51:34.798Z</time></trkpt><trkpt lat="40.1126533" lon="8.6675133"><ele>318.20000000000005</ele><time>2026-04-20T09:51:38.797Z</time></trkpt><trkpt lat="40.1127217" lon="8.6675183"><ele>319.6</ele><time>2026-04-20T09:51:40.797Z</time></trkpt><trkpt lat="40.1127933" lon="8.6675"><ele>321.0</ele><time>2026-04-20T09:51:43.797Z</time></trkpt><trkpt lat="40.1128483" lon="8.667445"><ele>321.0</ele><time>2026-04-20T09:52:40.797Z</time></trkpt><trkpt lat="40.1126883" lon="8.66752"><ele>321.0</ele><time>2026-04-20T09:52:49.797Z</time></trkpt><trkpt lat="40.1126" lon="8.66751"><ele>321.0</ele><time>2026-04-20T09:52:51.797Z</time></trkpt><trkpt lat="40.112535" lon="8.6675083"><ele>321.0</ele><time>2026-04-20T09:52:53.797Z</time></trkpt><trkpt lat="40.1124667" lon="8.6674917"><ele>321.0</ele><time>2026-04-20T09:52:55.797Z</time></trkpt><trkpt lat="40.1123667" lon="8.6674483"><ele>319.6</ele><time>2026-04-20T09:52:57.797Z</time></trkpt><trkpt lat="40.1122567" lon="8.667395"><ele>318.20000000000005</ele><time>2026-04-20T09:52:59.797Z</time></trkpt><trkpt lat="40.112155" lon="8.6673333"><ele>316.79999999999995</ele><time>2026-04-20T09:53:01.797Z</time></trkpt><trkpt lat="40.1120317" lon="8.6672517"><ele>315.4</ele><time>2026-04-20T09:53:03.797Z</time></trkpt><trkpt lat="40.1119717" lon="8.6672133"><ele>314.0</ele><time>2026-04-20T09:53:04.797Z</time></trkpt><trkpt lat="40.1118583" lon="8.6671383"><ele>314.0</ele><time>2026-04-20T09:53:06.797Z</time></trkpt><trkpt lat="40.1117983" lon="8.6671"><ele>314.0</ele><time>2026-04-20T09:53:07.798Z</time></trkpt><trkpt lat="40.1117117" lon="8.6670283"><ele>314.0</ele><time>2026-04-20T09:53:09.797Z</time></trkpt><trkpt lat="40.1116433" lon="8.6669633"><ele>314.0</ele><time>2026-04-20T09:53:11.798Z</time></trkpt><trkpt lat="40.111575" lon="8.6669367"><ele>314.0</ele><time>2026-04-20T09:53:13.797Z</time></trkpt><trkpt lat="40.1114833" lon="8.6669333"><ele>314.0</ele><time>2026-04-20T09:53:15.798Z</time></trkpt><trkpt lat="40.1114167" lon="8.66692"><ele>314.5</ele><time>2026-04-20T09:53:16.797Z</time></trkpt><trkpt lat="40.1113467" lon="8.6669033"><ele>315.0</ele><time>2026-04-20T09:53:17.797Z</time></trkpt><trkpt lat="40.1112817" lon="8.6668867"><ele>315.5</ele><time>2026-04-20T09:53:18.797Z</time></trkpt><trkpt lat="40.1111583" lon="8.6668517"><ele>316.0</ele><time>2026-04-20T09:53:20.797Z</time></trkpt><trkpt lat="40.11109" lon="8.6668417"><ele>316.5</ele><time>2026-04-20T09:53:21.797Z</time></trkpt><trkpt lat="40.1110183" lon="8.6668433"><ele>317.0</ele><time>2026-04-20T09:53:22.797Z</time></trkpt><trkpt lat="40.1108883" lon="8.66685"><ele>317.0</ele><time>2026-04-20T09:53:24.797Z</time></trkpt><trkpt lat="40.110825" lon="8.6668517"><ele>317.0</ele><time>2026-04-20T09:53:25.797Z</time></trkpt><trkpt lat="40.1107067" lon="8.6668467"><ele>317.0</ele><time>2026-04-20T09:53:27.797Z</time></trkpt><trkpt lat="40.1105817" lon="8.6668317"><ele>317.0</ele><time>2026-04-20T09:53:29.797Z</time></trkpt><trkpt lat="40.1104733" lon="8.666805"><ele>317.0</ele><time>2026-04-20T09:53:31.797Z</time></trkpt><trkpt lat="40.1103633" lon="8.6668"><ele>316.0</ele><time>2026-04-20T09:53:33.797Z</time></trkpt><trkpt lat="40.110245" lon="8.66679"><ele>315.0</ele><time>2026-04-20T09:53:35.797Z</time></trkpt><trkpt lat="40.1101767" lon="8.6667917"><ele>314.0</ele><time>2026-04-20T09:53:36.797Z</time></trkpt><trkpt lat="40.11011" lon="8.6667983"><ele>313.0</ele><time>2026-04-20T09:53:37.797Z</time></trkpt><trkpt lat="40.1100433" lon="8.666815"><ele>312.0</ele><time>2026-04-20T09:53:38.798Z</time></trkpt><trkpt lat="40.10992" lon="8.6668633"><ele>311.3333333333333</ele><time>2026-04-20T09:53:40.797Z</time></trkpt><trkpt lat="40.10981" lon="8.666935"><ele>310.66666666666663</ele><time>2026-04-20T09:53:42.797Z</time></trkpt><trkpt lat="40.1097083" lon="8.6669867"><ele>310.0</ele><time>2026-04-20T09:53:44.798Z</time></trkpt><trkpt lat="40.1094883" lon="8.6670617"><ele>310.0</ele><time>2026-04-20T09:53:48.797Z</time></trkpt><trkpt lat="40.1093917" lon="8.66714"><ele>310.0</ele><time>2026-04-20T09:53:50.797Z</time></trkpt><trkpt lat="40.10929" lon="8.667205"><ele>310.0</ele><time>2026-04-20T09:53:52.797Z</time></trkpt><trkpt lat="40.1091917" lon="8.6672817"><ele>310.0</ele><time>2026-04-20T09:53:54.797Z</time></trkpt><trkpt lat="40.1091" lon="8.6673833"><ele>308.8333333333333</ele><time>2026-04-20T09:53:56.797Z</time></trkpt><trkpt lat="40.1090067" lon="8.6674983"><ele>307.66666666666663</ele><time>2026-04-20T09:53:58.797Z</time></trkpt><trkpt lat="40.1089583" lon="8.6675583"><ele>306.5</ele><time>2026-04-20T09:53:59.797Z</time></trkpt><trkpt lat="40.108905" lon="8.667615"><ele>305.3333333333333</ele><time>2026-04-20T09:54:00.797Z</time></trkpt><trkpt lat="40.1088583" lon="8.6676733"><ele>304.1666666666667</ele><time>2026-04-20T09:54:01.797Z</time></trkpt><trkpt lat="40.108805" lon="8.6677183"><ele>303.0</ele><time>2026-04-20T09:54:02.797Z</time></trkpt><trkpt lat="40.1086983" lon="8.6678017"><ele>303.0</ele><time>2026-04-20T09:54:04.797Z</time></trkpt><trkpt lat="40.1086067" lon="8.6678767"><ele>303.0</ele><time>2026-04-20T09:54:06.797Z</time></trkpt><trkpt lat="40.1084283" lon="8.6679933"><ele>303.0</ele><time>2026-04-20T09:54:10.798Z</time></trkpt><trkpt lat="40.108325" lon="8.6680233"><ele>303.0</ele><time>2026-04-20T09:54:12.797Z</time></trkpt><trkpt lat="40.108215" lon="8.668055"><ele>302.2857142857143</ele><time>2026-04-20T09:54:14.797Z</time></trkpt><trkpt lat="40.1081433" lon="8.6680717"><ele>301.57142857142856</ele><time>2026-04-20T09:54:15.798Z</time></trkpt><trkpt lat="40.10807" lon="8.66808"><ele>300.85714285714283</ele><time>2026-04-20T09:54:16.797Z</time></trkpt><trkpt lat="40.1080017" lon="8.6680867"><ele>300.1428571428571</ele><time>2026-04-20T09:54:17.797Z</time></trkpt><trkpt lat="40.1079367" lon="8.6681017"><ele>299.4285714285714</ele><time>2026-04-20T09:54:18.797Z</time></trkpt><trkpt lat="40.1078617" lon="8.66811"><ele>298.7142857142857</ele><time>2026-04-20T09:54:19.798Z</time></trkpt><trkpt lat="40.107795" lon="8.6681233"><ele>298.0</ele><time>2026-04-20T09:54:20.797Z</time></trkpt><trkpt lat="40.1077283" lon="8.6681317"><ele>298.0</ele><time>2026-04-20T09:54:21.797Z</time></trkpt><trkpt lat="40.1076617" lon="8.6681367"><ele>298.0</ele><time>2026-04-20T09:54:22.797Z</time></trkpt><trkpt lat="40.107565" lon="8.6681217"><ele>298.0</ele><time>2026-04-20T09:54:24.797Z</time></trkpt><trkpt lat="40.1075033" lon="8.6680633"><ele>298.0</ele><time>2026-04-20T09:54:27.797Z</time></trkpt><trkpt lat="40.1073583" lon="8.6680083"><ele>298.0</ele><time>2026-04-20T09:54:43.797Z</time></trkpt><trkpt lat="40.10727" lon="8.667935"><ele>296.5</ele><time>2026-04-20T09:54:45.797Z</time></trkpt><trkpt lat="40.1071633" lon="8.667855"><ele>295.0</ele><time>2026-04-20T09:54:47.797Z</time></trkpt><trkpt lat="40.10707" lon="8.6677517"><ele>293.5</ele><time>2026-04-20T09:54:49.797Z</time></trkpt><trkpt lat="40.1069817" lon="8.6676233"><ele>292.0</ele><time>2026-04-20T09:54:51.797Z</time></trkpt><trkpt lat="40.1068967" lon="8.66752"><ele>291.8</ele><time>2026-04-20T09:54:53.798Z</time></trkpt><trkpt lat="40.1067817" lon="8.6674667"><ele>291.6</ele><time>2026-04-20T09:54:55.797Z</time></trkpt><trkpt lat="40.10666" lon="8.6674283"><ele>291.40000000000003</ele><time>2026-04-20T09:54:57.797Z</time></trkpt><trkpt lat="40.1065883" lon="8.6673983"><ele>291.2</ele><time>2026-04-20T09:54:58.797Z</time></trkpt><trkpt lat="40.106525" lon="8.66737"><ele>291.0</ele><time>2026-04-20T09:54:59.797Z</time></trkpt><trkpt lat="40.1064567" lon="8.6673517"><ele>290.2</ele><time>2026-04-20T09:55:00.797Z</time></trkpt><trkpt lat="40.1063567" lon="8.667335"><ele>289.40000000000003</ele><time>2026-04-20T09:55:02.797Z</time></trkpt><trkpt lat="40.1062417" lon="8.6673667"><ele>288.6</ele><time>2026-04-20T09:55:04.797Z</time></trkpt><trkpt lat="40.1061767" lon="8.667375"><ele>287.8</ele><time>2026-04-20T09:55:05.797Z</time></trkpt><trkpt lat="40.1061067" lon="8.667375"><ele>287.0</ele><time>2026-04-20T09:55:06.797Z</time></trkpt><trkpt lat="40.105995" lon="8.6673517"><ele>287.0</ele><time>2026-04-20T09:55:08.797Z</time></trkpt><trkpt lat="40.10589" lon="8.6672967"><ele>287.0</ele><time>2026-04-20T09:55:10.797Z</time></trkpt><trkpt lat="40.1057267" lon="8.6671933"><ele>287.0</ele><time>2026-04-20T09:55:13.797Z</time></trkpt><trkpt lat="40.1056217" lon="8.6671117"><ele>287.0</ele><time>2026-04-20T09:55:15.797Z</time></trkpt><trkpt lat="40.1055167" lon="8.6670733"><ele>285.8</ele><time>2026-04-20T09:55:17.797Z</time></trkpt><trkpt lat="40.1054133" lon="8.6670717"><ele>284.6</ele><time>2026-04-20T09:55:19.797Z</time></trkpt><trkpt lat="40.1052917" lon="8.667"><ele>283.40000000000003</ele><time>2026-04-20T09:55:21.797Z</time></trkpt><trkpt lat="40.1052167" lon="8.66697"><ele>282.2</ele><time>2026-04-20T09:55:22.797Z</time></trkpt><trkpt lat="40.10515" lon="8.666945"><ele>281.0</ele><time>2026-04-20T09:55:23.797Z</time></trkpt><trkpt lat="40.105075" lon="8.6669267"><ele>280.33333333333337</ele><time>2026-04-20T09:55:24.797Z</time></trkpt><trkpt lat="40.1050017" lon="8.6669133"><ele>279.6666666666667</ele><time>2026-04-20T09:55:25.797Z</time></trkpt><trkpt lat="40.1049117" lon="8.6669017"><ele>279.0</ele><time>2026-04-20T09:55:26.797Z</time></trkpt><trkpt lat="40.1048183" lon="8.6668933"><ele>278.3333333333333</ele><time>2026-04-20T09:55:27.798Z</time></trkpt><trkpt lat="40.104725" lon="8.666885"><ele>277.66666666666663</ele><time>2026-04-20T09:55:28.797Z</time></trkpt><trkpt lat="40.10464" lon="8.6668883"><ele>277.0</ele><time>2026-04-20T09:55:29.797Z</time></trkpt><trkpt lat="40.1045583" lon="8.6668917"><ele>276.0</ele><time>2026-04-20T09:55:30.798Z</time></trkpt><trkpt lat="40.10448" lon="8.6668933"><ele>275.0</ele><time>2026-04-20T09:55:31.797Z</time></trkpt><trkpt lat="40.1043267" lon="8.6668933"><ele>274.0</ele><time>2026-04-20T09:55:33.798Z</time></trkpt><trkpt lat="40.1042433" lon="8.6668967"><ele>273.0</ele><time>2026-04-20T09:55:34.797Z</time></trkpt><trkpt lat="40.1041617" lon="8.6668967"><ele>272.0</ele><time>2026-04-20T09:55:35.797Z</time></trkpt><trkpt lat="40.1040783" lon="8.6669017"><ele>271.83333333333337</ele><time>2026-04-20T09:55:36.797Z</time></trkpt><trkpt lat="40.1039983" lon="8.6669117"><ele>271.6666666666667</ele><time>2026-04-20T09:55:37.798Z</time></trkpt><trkpt lat="40.103915" lon="8.666925"><ele>271.5</ele><time>2026-04-20T09:55:38.797Z</time></trkpt><trkpt lat="40.10383" lon="8.6669383"><ele>271.3333333333333</ele><time>2026-04-20T09:55:39.797Z</time></trkpt><trkpt lat="40.1037533" lon="8.6669517"><ele>271.16666666666663</ele><time>2026-04-20T09:55:40.797Z</time></trkpt><trkpt lat="40.103685" lon="8.66697"><ele>271.0</ele><time>2026-04-20T09:55:41.797Z</time></trkpt><trkpt lat="40.103615" lon="8.6669967"><ele>271.0</ele><time>2026-04-20T09:55:42.797Z</time></trkpt><trkpt lat="40.10354" lon="8.6670267"><ele>271.0</ele><time>2026-04-20T09:55:43.797Z</time></trkpt><trkpt lat="40.1034667" lon="8.6670517"><ele>271.0</ele><time>2026-04-20T09:55:44.797Z</time></trkpt><trkpt lat="40.10339" lon="8.66707"><ele>271.0</ele><time>2026-04-20T09:55:45.797Z</time></trkpt><trkpt lat="40.1033033" lon="8.66708"><ele>271.0</ele><time>2026-04-20T09:55:46.797Z</time></trkpt><trkpt lat="40.1032183" lon="8.6670767"><ele>271.0</ele><time>2026-04-20T09:55:47.797Z</time></trkpt><trkpt lat="40.1031283" lon="8.667075"><ele>270.40000000000003</ele><time>2026-04-20T09:55:48.797Z</time></trkpt><trkpt lat="40.1030333" lon="8.6670883"><ele>269.8</ele><time>2026-04-20T09:55:49.797Z</time></trkpt><trkpt lat="40.1029333" lon="8.667105"><ele>269.20000000000005</ele><time>2026-04-20T09:55:50.797Z</time></trkpt><trkpt lat="40.1028283" lon="8.66712"><ele>268.6</ele><time>2026-04-20T09:55:51.797Z</time></trkpt><trkpt lat="40.1027067" lon="8.6671367"><ele>268.0</ele><time>2026-04-20T09:55:52.797Z</time></trkpt><trkpt lat="40.10248" lon="8.66718"><ele>267.2</ele><time>2026-04-20T09:55:54.797Z</time></trkpt><trkpt lat="40.1023767" lon="8.667205"><ele>266.4</ele><time>2026-04-20T09:55:55.797Z</time></trkpt><trkpt lat="40.1022783" lon="8.66723"><ele>265.59999999999997</ele><time>2026-04-20T09:55:56.797Z</time></trkpt><trkpt lat="40.1021717" lon="8.667255"><ele>264.8</ele><time>2026-04-20T09:55:57.797Z</time></trkpt><trkpt lat="40.10206" lon="8.6672783"><ele>264.0</ele><time>2026-04-20T09:55:58.797Z</time></trkpt><trkpt lat="40.101945" lon="8.6673"><ele>264.0</ele><time>2026-04-20T09:55:59.797Z</time></trkpt><trkpt lat="40.10182" lon="8.6673367"><ele>264.0</ele><time>2026-04-20T09:56:00.797Z</time></trkpt><trkpt lat="40.101705" lon="8.6673717"><ele>264.0</ele><time>2026-04-20T09:56:01.797Z</time></trkpt><trkpt lat="40.1015883" lon="8.6673967"><ele>264.0</ele><time>2026-04-20T09:56:02.798Z</time></trkpt><trkpt lat="40.1014717" lon="8.6674133"><ele>262.8</ele><time>2026-04-20T09:56:03.797Z</time></trkpt><trkpt lat="40.1013667" lon="8.667425"><ele>261.59999999999997</ele><time>2026-04-20T09:56:04.797Z</time></trkpt><trkpt lat="40.101275" lon="8.6674433"><ele>260.4</ele><time>2026-04-20T09:56:05.797Z</time></trkpt><trkpt lat="40.10118" lon="8.6674617"><ele>259.2</ele><time>2026-04-20T09:56:06.797Z</time></trkpt><trkpt lat="40.1010983" lon="8.6675067"><ele>258.0</ele><time>2026-04-20T09:56:07.797Z</time></trkpt><trkpt lat="40.10101" lon="8.667575"><ele>258.0</ele><time>2026-04-20T09:56:08.797Z</time></trkpt><trkpt lat="40.100905" lon="8.6676417"><ele>258.0</ele><time>2026-04-20T09:56:09.797Z</time></trkpt><trkpt lat="40.1007867" lon="8.6677"><ele>258.0</ele><time>2026-04-20T09:56:10.797Z</time></trkpt><trkpt lat="40.10068" lon="8.6677733"><ele>258.0</ele><time>2026-04-20T09:56:11.797Z</time></trkpt><trkpt lat="40.1005733" lon="8.66784"><ele>258.0</ele><time>2026-04-20T09:56:12.798Z</time></trkpt><trkpt lat="40.1004683" lon="8.66791"><ele>258.0</ele><time>2026-04-20T09:56:13.798Z</time></trkpt><trkpt lat="40.1002633" lon="8.6680133"><ele>258.0</ele><time>2026-04-20T09:56:15.797Z</time></trkpt><trkpt lat="40.1001633" lon="8.6680533"><ele>258.0</ele><time>2026-04-20T09:56:16.797Z</time></trkpt><trkpt lat="40.1000733" lon="8.6680883"><ele>258.0</ele><time>2026-04-20T09:56:17.797Z</time></trkpt><trkpt lat="40.0999867" lon="8.66813"><ele>258.0</ele><time>2026-04-20T09:56:18.797Z</time></trkpt><trkpt lat="40.0999033" lon="8.6681933"><ele>258.0</ele><time>2026-04-20T09:56:19.797Z</time></trkpt><trkpt lat="40.0998117" lon="8.6682633"><ele>258.0</ele><time>2026-04-20T09:56:20.797Z</time></trkpt><trkpt lat="40.0997233" lon="8.6683283"><ele>258.0</ele><time>2026-04-20T09:56:21.797Z</time></trkpt><trkpt lat="40.0996267" lon="8.66838"><ele>257.2</ele><time>2026-04-20T09:56:22.797Z</time></trkpt><trkpt lat="40.099525" lon="8.66842"><ele>256.4</ele><time>2026-04-20T09:56:23.798Z</time></trkpt><trkpt lat="40.0994283" lon="8.6684617"><ele>255.59999999999997</ele><time>2026-04-20T09:56:24.797Z</time></trkpt><trkpt lat="40.0993333" lon="8.6684867"><ele>254.79999999999998</ele><time>2026-04-20T09:56:25.798Z</time></trkpt><trkpt lat="40.09924" lon="8.66851"><ele>254.0</ele><time>2026-04-20T09:56:26.798Z</time></trkpt><trkpt lat="40.0991417" lon="8.6685267"><ele>253.39999999999998</ele><time>2026-04-20T09:56:27.797Z</time></trkpt><trkpt lat="40.09904" lon="8.66854"><ele>252.79999999999998</ele><time>2026-04-20T09:56:28.797Z</time></trkpt><trkpt lat="40.0989483" lon="8.66854"><ele>252.20000000000002</ele><time>2026-04-20T09:56:29.797Z</time></trkpt><trkpt lat="40.0988583" lon="8.66855"><ele>251.60000000000002</ele><time>2026-04-20T09:56:30.797Z</time></trkpt><trkpt lat="40.0987783" lon="8.6685833"><ele>251.0</ele><time>2026-04-20T09:56:31.798Z</time></trkpt><trkpt lat="40.098695" lon="8.66862"><ele>251.0</ele><time>2026-04-20T09:56:32.798Z</time></trkpt><trkpt lat="40.09862" lon="8.6686617"><ele>251.00000000000003</ele><time>2026-04-20T09:56:33.797Z</time></trkpt><trkpt lat="40.098565" lon="8.6687183"><ele>251.00000000000003</ele><time>2026-04-20T09:56:34.797Z</time></trkpt><trkpt lat="40.0983917" lon="8.668835"><ele>251.0</ele><time>2026-04-20T09:56:37.797Z</time></trkpt><trkpt lat="40.0982983" lon="8.668835"><ele>251.0</ele><time>2026-04-20T09:56:38.798Z</time></trkpt><trkpt lat="40.0981817" lon="8.6688383"><ele>249.75</ele><time>2026-04-20T09:56:39.797Z</time></trkpt><trkpt lat="40.0980483" lon="8.66886"><ele>248.5</ele><time>2026-04-20T09:56:40.798Z</time></trkpt><trkpt lat="40.0979017" lon="8.668885"><ele>247.25</ele><time>2026-04-20T09:56:41.797Z</time></trkpt><trkpt lat="40.0977533" lon="8.6689033"><ele>246.0</ele><time>2026-04-20T09:56:42.797Z</time></trkpt><trkpt lat="40.0976183" lon="8.66892"><ele>246.0</ele><time>2026-04-20T09:56:43.797Z</time></trkpt><trkpt lat="40.0974767" lon="8.6689367"><ele>246.0</ele><time>2026-04-20T09:56:44.797Z</time></trkpt><trkpt lat="40.097345" lon="8.6689467"><ele>246.0</ele><time>2026-04-20T09:56:45.797Z</time></trkpt><trkpt lat="40.0972183" lon="8.6689617"><ele>246.0</ele><time>2026-04-20T09:56:46.798Z</time></trkpt><trkpt lat="40.09709" lon="8.66897"><ele>245.5</ele><time>2026-04-20T09:56:47.797Z</time></trkpt><trkpt lat="40.096955" lon="8.66897"><ele>245.0</ele><time>2026-04-20T09:56:48.797Z</time></trkpt><trkpt lat="40.09681" lon="8.6689617"><ele>244.5</ele><time>2026-04-20T09:56:49.797Z</time></trkpt><trkpt lat="40.096655" lon="8.6689533"><ele>244.0</ele><time>2026-04-20T09:56:50.797Z</time></trkpt><trkpt lat="40.096505" lon="8.668945"><ele>243.0</ele><time>2026-04-20T09:56:51.797Z</time></trkpt><trkpt lat="40.0963683" lon="8.668935"><ele>242.0</ele><time>2026-04-20T09:56:52.797Z</time></trkpt><trkpt lat="40.0962283" lon="8.668925"><ele>241.0</ele><time>2026-04-20T09:56:53.798Z</time></trkpt><trkpt lat="40.09609" lon="8.6689233"><ele>240.0</ele><time>2026-04-20T09:56:54.797Z</time></trkpt><trkpt lat="40.0959433" lon="8.6689217"><ele>238.33333333333331</ele><time>2026-04-20T09:56:55.797Z</time></trkpt><trkpt lat="40.0956417" lon="8.668905"><ele>236.66666666666666</ele><time>2026-04-20T09:56:57.797Z</time></trkpt><trkpt lat="40.0955033" lon="8.6688933"><ele>235.0</ele><time>2026-04-20T09:56:58.797Z</time></trkpt><trkpt lat="40.0953783" lon="8.6688933"><ele>235.0</ele><time>2026-04-20T09:56:59.797Z</time></trkpt><trkpt lat="40.0952567" lon="8.66889"><ele>235.0</ele><time>2026-04-20T09:57:00.798Z</time></trkpt><trkpt lat="40.0951317" lon="8.6688833"><ele>235.0</ele><time>2026-04-20T09:57:01.797Z</time></trkpt><trkpt lat="40.0950167" lon="8.66886"><ele>235.0</ele><time>2026-04-20T09:57:02.797Z</time></trkpt><trkpt lat="40.0948833" lon="8.66881"><ele>233.25</ele><time>2026-04-20T09:57:03.797Z</time></trkpt><trkpt lat="40.0947667" lon="8.6687483"><ele>231.5</ele><time>2026-04-20T09:57:04.797Z</time></trkpt><trkpt lat="40.0946483" lon="8.668675"><ele>229.75</ele><time>2026-04-20T09:57:05.797Z</time></trkpt><trkpt lat="40.094535" lon="8.6686117"><ele>228.0</ele><time>2026-04-20T09:57:06.797Z</time></trkpt><trkpt lat="40.0944367" lon="8.66856"><ele>227.66666666666666</ele><time>2026-04-20T09:57:07.797Z</time></trkpt><trkpt lat="40.0943383" lon="8.6685117"><ele>227.33333333333331</ele><time>2026-04-20T09:57:08.797Z</time></trkpt><trkpt lat="40.094255" lon="8.66846"><ele>227.0</ele><time>2026-04-20T09:57:09.797Z</time></trkpt><trkpt lat="40.0941833" lon="8.6684183"><ele>226.66666666666666</ele><time>2026-04-20T09:57:10.798Z</time></trkpt><trkpt lat="40.0941267" lon="8.6683733"><ele>226.33333333333331</ele><time>2026-04-20T09:57:11.797Z</time></trkpt><trkpt lat="40.0940633" lon="8.6683383"><ele>226.0</ele><time>2026-04-20T09:57:12.797Z</time></trkpt><trkpt lat="40.093975" lon="8.66829"><ele>224.8</ele><time>2026-04-20T09:57:14.797Z</time></trkpt><trkpt lat="40.0939" lon="8.6682483"><ele>223.60000000000002</ele><time>2026-04-20T09:57:16.797Z</time></trkpt><trkpt lat="40.0938267" lon="8.668085"><ele>222.4</ele><time>2026-04-20T09:57:21.797Z</time></trkpt><trkpt lat="40.0939117" lon="8.667955"><ele>221.2</ele><time>2026-04-20T09:57:23.797Z</time></trkpt><trkpt lat="40.0939633" lon="8.66786"><ele>220.0</ele><time>2026-04-20T09:57:24.797Z</time></trkpt><trkpt lat="40.0940317" lon="8.6677467"><ele>220.75</ele><time>2026-04-20T09:57:25.797Z</time></trkpt><trkpt lat="40.0941033" lon="8.6676217"><ele>221.5</ele><time>2026-04-20T09:57:26.797Z</time></trkpt><trkpt lat="40.0941733" lon="8.667485"><ele>222.25</ele><time>2026-04-20T09:57:27.797Z</time></trkpt><trkpt lat="40.0942533" lon="8.6673533"><ele>223.0</ele><time>2026-04-20T09:57:28.798Z</time></trkpt><trkpt lat="40.0943317" lon="8.667205"><ele>223.0</ele><time>2026-04-20T09:57:29.797Z</time></trkpt><trkpt lat="40.0943883" lon="8.66706"><ele>223.0</ele><time>2026-04-20T09:57:30.797Z</time></trkpt><trkpt lat="40.0944333" lon="8.6669083"><ele>223.0</ele><time>2026-04-20T09:57:31.797Z</time></trkpt><trkpt lat="40.0944683" lon="8.6667417"><ele>223.0</ele><time>2026-04-20T09:57:32.797Z</time></trkpt><trkpt lat="40.0944917" lon="8.66657"><ele>222.25</ele><time>2026-04-20T09:57:33.797Z</time></trkpt><trkpt lat="40.0945067" lon="8.6663833"><ele>221.5</ele><time>2026-04-20T09:57:34.797Z</time></trkpt><trkpt lat="40.0945267" lon="8.666195"><ele>220.75</ele><time>2026-04-20T09:57:35.797Z</time></trkpt><trkpt lat="40.09454" lon="8.6660033"><ele>220.0</ele><time>2026-04-20T09:57:36.797Z</time></trkpt><trkpt lat="40.0945483" lon="8.6658017"><ele>220.0</ele><time>2026-04-20T09:57:37.797Z</time></trkpt><trkpt lat="40.0945467" lon="8.66537"><ele>220.0</ele><time>2026-04-20T09:57:39.797Z</time></trkpt><trkpt lat="40.0945467" lon="8.66515"><ele>221.33333333333331</ele><time>2026-04-20T09:57:40.797Z</time></trkpt><trkpt lat="40.0945483" lon="8.6649317"><ele>222.66666666666669</ele><time>2026-04-20T09:57:41.797Z</time></trkpt><trkpt lat="40.0945567" lon="8.6647333"><ele>224.0</ele><time>2026-04-20T09:57:42.797Z</time></trkpt><trkpt lat="40.0945683" lon="8.6645467"><ele>224.5</ele><time>2026-04-20T09:57:43.797Z</time></trkpt><trkpt lat="40.09459" lon="8.664375"><ele>225.0</ele><time>2026-04-20T09:57:44.797Z</time></trkpt><trkpt lat="40.0946433" lon="8.6641967"><ele>225.5</ele><time>2026-04-20T09:57:45.797Z</time></trkpt><trkpt lat="40.094715" lon="8.6640183"><ele>226.0</ele><time>2026-04-20T09:57:46.797Z</time></trkpt><trkpt lat="40.0948133" lon="8.6638467"><ele>226.0</ele><time>2026-04-20T09:57:47.797Z</time></trkpt><trkpt lat="40.09492" lon="8.6636683"><ele>226.0</ele><time>2026-04-20T09:57:48.797Z</time></trkpt><trkpt lat="40.0950167" lon="8.6635017"><ele>226.0</ele><time>2026-04-20T09:57:49.797Z</time></trkpt><trkpt lat="40.095105" lon="8.6633533"><ele>226.60000000000002</ele><time>2026-04-20T09:57:50.798Z</time></trkpt><trkpt lat="40.09518" lon="8.6632267"><ele>227.20000000000002</ele><time>2026-04-20T09:57:51.797Z</time></trkpt><trkpt lat="40.0952467" lon="8.6631117"><ele>227.79999999999998</ele><time>2026-04-20T09:57:52.797Z</time></trkpt><trkpt lat="40.0953033" lon="8.6629983"><ele>228.39999999999998</ele><time>2026-04-20T09:57:53.797Z</time></trkpt><trkpt lat="40.0953583" lon="8.6628917"><ele>229.0</ele><time>2026-04-20T09:57:54.797Z</time></trkpt><trkpt lat="40.0954117" lon="8.6627933"><ele>228.79999999999998</ele><time>2026-04-20T09:57:55.797Z</time></trkpt><trkpt lat="40.0954417" lon="8.6626917"><ele>228.59999999999997</ele><time>2026-04-20T09:57:56.797Z</time></trkpt><trkpt lat="40.0954517" lon="8.6625983"><ele>228.4</ele><time>2026-04-20T09:57:57.798Z</time></trkpt><trkpt lat="40.09542" lon="8.6625083"><ele>228.2</ele><time>2026-04-20T09:57:58.798Z</time></trkpt><trkpt lat="40.0952817" lon="8.662325"><ele>228.0</ele><time>2026-04-20T09:58:00.797Z</time></trkpt><trkpt lat="40.0951933" lon="8.66224"><ele>228.0</ele><time>2026-04-20T09:58:01.797Z</time></trkpt><trkpt lat="40.0950967" lon="8.6621333"><ele>228.0</ele><time>2026-04-20T09:58:02.797Z</time></trkpt><trkpt lat="40.0949867" lon="8.6620133"><ele>228.0</ele><time>2026-04-20T09:58:03.797Z</time></trkpt><trkpt lat="40.0948767" lon="8.6618817"><ele>228.0</ele><time>2026-04-20T09:58:04.797Z</time></trkpt><trkpt lat="40.09476" lon="8.6617417"><ele>227.0</ele><time>2026-04-20T09:58:05.798Z</time></trkpt><trkpt lat="40.09465" lon="8.6615967"><ele>226.0</ele><time>2026-04-20T09:58:06.797Z</time></trkpt><trkpt lat="40.094545" lon="8.6614483"><ele>225.0</ele><time>2026-04-20T09:58:07.798Z</time></trkpt><trkpt lat="40.094435" lon="8.6612983"><ele>225.0</ele><time>2026-04-20T09:58:08.797Z</time></trkpt><trkpt lat="40.094335" lon="8.6611467"><ele>225.0</ele><time>2026-04-20T09:58:09.797Z</time></trkpt><trkpt lat="40.09424" lon="8.660995"><ele>225.0</ele><time>2026-04-20T09:58:10.797Z</time></trkpt><trkpt lat="40.0941383" lon="8.66085"><ele>225.66666666666669</ele><time>2026-04-20T09:58:11.797Z</time></trkpt><trkpt lat="40.0940417" lon="8.6607"><ele>226.33333333333334</ele><time>2026-04-20T09:58:12.797Z</time></trkpt><trkpt lat="40.0939433" lon="8.66054"><ele>227.0</ele><time>2026-04-20T09:58:13.796Z</time></trkpt><trkpt lat="40.0938417" lon="8.6603817"><ele>227.33333333333334</ele><time>2026-04-20T09:58:14.796Z</time></trkpt><trkpt lat="40.093735" lon="8.6602183"><ele>227.66666666666669</ele><time>2026-04-20T09:58:15.796Z</time></trkpt><trkpt lat="40.0936367" lon="8.6600483"><ele>228.0</ele><time>2026-04-20T09:58:16.796Z</time></trkpt><trkpt lat="40.0935233" lon="8.659875"><ele>228.0</ele><time>2026-04-20T09:58:17.796Z</time></trkpt><trkpt lat="40.0934017" lon="8.659695"><ele>228.0</ele><time>2026-04-20T09:58:18.797Z</time></trkpt><trkpt lat="40.09327" lon="8.6595133"><ele>228.0</ele><time>2026-04-20T09:58:19.796Z</time></trkpt><trkpt lat="40.0929917" lon="8.6591983"><ele>228.0</ele><time>2026-04-20T09:58:21.797Z</time></trkpt><trkpt lat="40.092845" lon="8.6590567"><ele>228.0</ele><time>2026-04-20T09:58:22.797Z</time></trkpt><trkpt lat="40.09271" lon="8.6589283"><ele>228.0</ele><time>2026-04-20T09:58:23.796Z</time></trkpt><trkpt lat="40.0925833" lon="8.6588133"><ele>228.0</ele><time>2026-04-20T09:58:24.796Z</time></trkpt><trkpt lat="40.0924617" lon="8.6587083"><ele>228.0</ele><time>2026-04-20T09:58:25.796Z</time></trkpt><trkpt lat="40.09235" lon="8.6586067"><ele>228.0</ele><time>2026-04-20T09:58:26.796Z</time></trkpt><trkpt lat="40.0922483" lon="8.6585033"><ele>228.0</ele><time>2026-04-20T09:58:27.796Z</time></trkpt><trkpt lat="40.0921483" lon="8.6584017"><ele>227.5</ele><time>2026-04-20T09:58:28.796Z</time></trkpt><trkpt lat="40.0920483" lon="8.658305"><ele>227.0</ele><time>2026-04-20T09:58:29.796Z</time></trkpt><trkpt lat="40.091945" lon="8.6582117"><ele>226.5</ele><time>2026-04-20T09:58:30.796Z</time></trkpt><trkpt lat="40.0918567" lon="8.6581267"><ele>226.0</ele><time>2026-04-20T09:58:31.797Z</time></trkpt><trkpt lat="40.0917617" lon="8.6580433"><ele>226.0</ele><time>2026-04-20T09:58:32.796Z</time></trkpt><trkpt lat="40.091675" lon="8.6579583"><ele>226.00000000000003</ele><time>2026-04-20T09:58:33.797Z</time></trkpt><trkpt lat="40.0915867" lon="8.6578733"><ele>226.00000000000003</ele><time>2026-04-20T09:58:34.796Z</time></trkpt><trkpt lat="40.09151" lon="8.6578017"><ele>226.0</ele><time>2026-04-20T09:58:35.796Z</time></trkpt><trkpt lat="40.091435" lon="8.6577333"><ele>226.0</ele><time>2026-04-20T09:58:36.796Z</time></trkpt><trkpt lat="40.0913683" lon="8.6576683"><ele>225.20000000000002</ele><time>2026-04-20T09:58:37.797Z</time></trkpt><trkpt lat="40.091305" lon="8.657605"><ele>224.40000000000003</ele><time>2026-04-20T09:58:38.796Z</time></trkpt><trkpt lat="40.09124" lon="8.6575433"><ele>223.6</ele><time>2026-04-20T09:58:39.797Z</time></trkpt><trkpt lat="40.0911533" lon="8.6574417"><ele>222.8</ele><time>2026-04-20T09:58:41.797Z</time></trkpt><trkpt lat="40.091025" lon="8.6573033"><ele>222.0</ele><time>2026-04-20T09:58:46.796Z</time></trkpt><trkpt lat="40.09105" lon="8.657425"><ele>222.0</ele><time>2026-04-20T09:58:51.796Z</time></trkpt><trkpt lat="40.0911033" lon="8.65749"><ele>222.0</ele><time>2026-04-20T09:58:52.796Z</time></trkpt><trkpt lat="40.09117" lon="8.6575483"><ele>222.0</ele><time>2026-04-20T09:58:53.796Z</time></trkpt><trkpt lat="40.091235" lon="8.6576067"><ele>222.0</ele><time>2026-04-20T09:58:54.796Z</time></trkpt><trkpt lat="40.0913017" lon="8.65766"><ele>222.0</ele><time>2026-04-20T09:58:55.796Z</time></trkpt><trkpt lat="40.0913683" lon="8.65771"><ele>222.0</ele><time>2026-04-20T09:58:56.796Z</time></trkpt><trkpt lat="40.0914933" lon="8.65772"><ele>222.0</ele><time>2026-04-20T09:58:58.797Z</time></trkpt><trkpt lat="40.09155" lon="8.657675"><ele>222.0</ele><time>2026-04-20T09:58:59.797Z</time></trkpt><trkpt lat="40.0916233" lon="8.6575467"><ele>222.0</ele><time>2026-04-20T09:59:01.796Z</time></trkpt><trkpt lat="40.0916367" lon="8.65746"><ele>222.0</ele><time>2026-04-20T09:59:02.796Z</time></trkpt><trkpt lat="40.0915783" lon="8.657255"><ele>222.0</ele><time>2026-04-20T09:59:04.797Z</time></trkpt><trkpt lat="40.0915267" lon="8.657135"><ele>222.0</ele><time>2026-04-20T09:59:05.797Z</time></trkpt><trkpt lat="40.0914667" lon="8.6570017"><ele>222.0</ele><time>2026-04-20T09:59:06.796Z</time></trkpt><trkpt lat="40.091385" lon="8.65685"><ele>222.0</ele><time>2026-04-20T09:59:07.796Z</time></trkpt><trkpt lat="40.091295" lon="8.6567"><ele>222.0</ele><time>2026-04-20T09:59:08.796Z</time></trkpt><trkpt lat="40.091205" lon="8.6565717"><ele>222.0</ele><time>2026-04-20T09:59:09.796Z</time></trkpt><trkpt lat="40.0911167" lon="8.6564567"><ele>222.0</ele><time>2026-04-20T09:59:10.796Z</time></trkpt><trkpt lat="40.09104" lon="8.6563517"><ele>222.0</ele><time>2026-04-20T09:59:11.796Z</time></trkpt><trkpt lat="40.0909867" lon="8.6562583"><ele>222.0</ele><time>2026-04-20T09:59:12.797Z</time></trkpt><trkpt lat="40.0909483" lon="8.6561583"><ele>222.0</ele><time>2026-04-20T09:59:13.797Z</time></trkpt><trkpt lat="40.09093" lon="8.6560517"><ele>222.5</ele><time>2026-04-20T09:59:14.797Z</time></trkpt><trkpt lat="40.0909417" lon="8.6559417"><ele>223.0</ele><time>2026-04-20T09:59:15.796Z</time></trkpt><trkpt lat="40.09097" lon="8.6558517"><ele>223.5</ele><time>2026-04-20T09:59:16.796Z</time></trkpt><trkpt lat="40.09103" lon="8.6557833"><ele>224.0</ele><time>2026-04-20T09:59:17.796Z</time></trkpt><trkpt lat="40.0911167" lon="8.6557417"><ele>224.5</ele><time>2026-04-20T09:59:18.796Z</time></trkpt><trkpt lat="40.0912267" lon="8.6557333"><ele>225.0</ele><time>2026-04-20T09:59:19.797Z</time></trkpt><trkpt lat="40.091345" lon="8.6557367"><ele>225.0</ele><time>2026-04-20T09:59:20.796Z</time></trkpt><trkpt lat="40.091455" lon="8.6557567"><ele>225.0</ele><time>2026-04-20T09:59:21.797Z</time></trkpt><trkpt lat="40.0915567" lon="8.6557817"><ele>225.0</ele><time>2026-04-20T09:59:22.796Z</time></trkpt><trkpt lat="40.0916617" lon="8.6557833"><ele>225.0</ele><time>2026-04-20T09:59:23.796Z</time></trkpt><trkpt lat="40.091885" lon="8.655795"><ele>225.8</ele><time>2026-04-20T09:59:25.796Z</time></trkpt><trkpt lat="40.0919933" lon="8.6558017"><ele>226.6</ele><time>2026-04-20T09:59:26.796Z</time></trkpt><trkpt lat="40.0920983" lon="8.6558033"><ele>227.39999999999998</ele><time>2026-04-20T09:59:27.796Z</time></trkpt><trkpt lat="40.0921983" lon="8.6558117"><ele>228.2</ele><time>2026-04-20T09:59:28.796Z</time></trkpt><trkpt lat="40.0923" lon="8.6558217"><ele>229.0</ele><time>2026-04-20T09:59:29.796Z</time></trkpt><trkpt lat="40.09239" lon="8.6558183"><ele>230.33333333333331</ele><time>2026-04-20T09:59:30.796Z</time></trkpt><trkpt lat="40.0924683" lon="8.6558133"><ele>231.66666666666666</ele><time>2026-04-20T09:59:31.796Z</time></trkpt><trkpt lat="40.0925383" lon="8.655815"><ele>233.0</ele><time>2026-04-20T09:59:32.796Z</time></trkpt><trkpt lat="40.09266" lon="8.6558217"><ele>234.33333333333331</ele><time>2026-04-20T09:59:34.796Z</time></trkpt><trkpt lat="40.092735" lon="8.6558283"><ele>235.66666666666666</ele><time>2026-04-20T09:59:35.796Z</time></trkpt><trkpt lat="40.09282" lon="8.65583"><ele>237.0</ele><time>2026-04-20T09:59:36.796Z</time></trkpt><trkpt lat="40.0929067" lon="8.6558333"><ele>237.0</ele><time>2026-04-20T09:59:37.796Z</time></trkpt><trkpt lat="40.0929817" lon="8.6558483"><ele>237.0</ele><time>2026-04-20T09:59:38.796Z</time></trkpt><trkpt lat="40.093055" lon="8.6558633"><ele>237.0</ele><time>2026-04-20T09:59:39.797Z</time></trkpt><trkpt lat="40.093125" lon="8.65587"><ele>237.0</ele><time>2026-04-20T09:59:40.796Z</time></trkpt><trkpt lat="40.0932133" lon="8.65583"><ele>237.0</ele><time>2026-04-20T09:59:42.796Z</time></trkpt><trkpt lat="40.0932067" lon="8.655735"><ele>237.0</ele><time>2026-04-20T09:59:44.796Z</time></trkpt><trkpt lat="40.0930667" lon="8.655595"><ele>237.0</ele><time>2026-04-20T09:59:47.796Z</time></trkpt><trkpt lat="40.0930083" lon="8.6555183"><ele>237.0</ele><time>2026-04-20T09:59:48.796Z</time></trkpt><trkpt lat="40.0929533" lon="8.6554467"><ele>237.0</ele><time>2026-04-20T09:59:49.796Z</time></trkpt><trkpt lat="40.092905" lon="8.6553667"><ele>237.0</ele><time>2026-04-20T09:59:50.796Z</time></trkpt><trkpt lat="40.09286" lon="8.6552933"><ele>237.0</ele><time>2026-04-20T09:59:51.796Z</time></trkpt><trkpt lat="40.0928083" lon="8.6552283"><ele>237.0</ele><time>2026-04-20T09:59:52.796Z</time></trkpt><trkpt lat="40.09275" lon="8.655165"><ele>237.39999999999998</ele><time>2026-04-20T09:59:53.796Z</time></trkpt><trkpt lat="40.092685" lon="8.655075"><ele>237.79999999999998</ele><time>2026-04-20T09:59:54.797Z</time></trkpt><trkpt lat="40.0926133" lon="8.6549683"><ele>238.2</ele><time>2026-04-20T09:59:55.796Z</time></trkpt><trkpt lat="40.0925533" lon="8.65485"><ele>238.6</ele><time>2026-04-20T09:59:56.796Z</time></trkpt><trkpt lat="40.0924817" lon="8.65473"><ele>239.0</ele><time>2026-04-20T09:59:57.797Z</time></trkpt><trkpt lat="40.092395" lon="8.6546083"><ele>238.75</ele><time>2026-04-20T09:59:58.796Z</time></trkpt><trkpt lat="40.09231" lon="8.6544783"><ele>238.5</ele><time>2026-04-20T09:59:59.796Z</time></trkpt><trkpt lat="40.0922183" lon="8.65436"><ele>238.25</ele><time>2026-04-20T10:00:00.796Z</time></trkpt><trkpt lat="40.0921183" lon="8.65425"><ele>238.0</ele><time>2026-04-20T10:00:01.796Z</time></trkpt><trkpt lat="40.0920217" lon="8.6541267"><ele>238.0</ele><time>2026-04-20T10:00:02.796Z</time></trkpt><trkpt lat="40.0919133" lon="8.654005"><ele>238.0</ele><time>2026-04-20T10:00:03.796Z</time></trkpt><trkpt lat="40.091805" lon="8.6538817"><ele>238.0</ele><time>2026-04-20T10:00:04.797Z</time></trkpt><trkpt lat="40.0916867" lon="8.6537667"><ele>238.0</ele><time>2026-04-20T10:00:05.796Z</time></trkpt><trkpt lat="40.091455" lon="8.6535283"><ele>237.25</ele><time>2026-04-20T10:00:07.796Z</time></trkpt><trkpt lat="40.0913367" lon="8.65342"><ele>236.5</ele><time>2026-04-20T10:00:08.796Z</time></trkpt><trkpt lat="40.09123" lon="8.6533083"><ele>235.75</ele><time>2026-04-20T10:00:09.796Z</time></trkpt><trkpt lat="40.091125" lon="8.653195"><ele>235.0</ele><time>2026-04-20T10:00:10.796Z</time></trkpt><trkpt lat="40.09102" lon="8.6530833"><ele>235.0</ele><time>2026-04-20T10:00:11.796Z</time></trkpt><trkpt lat="40.0909117" lon="8.6529817"><ele>235.0</ele><time>2026-04-20T10:00:12.796Z</time></trkpt><trkpt lat="40.090795" lon="8.6528917"><ele>235.0</ele><time>2026-04-20T10:00:13.797Z</time></trkpt><trkpt lat="40.090685" lon="8.6528083"><ele>235.0</ele><time>2026-04-20T10:00:14.796Z</time></trkpt><trkpt lat="40.0905917" lon="8.6527167"><ele>235.4</ele><time>2026-04-20T10:00:15.796Z</time></trkpt><trkpt lat="40.0905083" lon="8.65261"><ele>235.8</ele><time>2026-04-20T10:00:16.797Z</time></trkpt><trkpt lat="40.0904267" lon="8.6525117"><ele>236.2</ele><time>2026-04-20T10:00:17.796Z</time></trkpt><trkpt lat="40.0903467" lon="8.65243"><ele>236.6</ele><time>2026-04-20T10:00:18.796Z</time></trkpt><trkpt lat="40.09028" lon="8.65235"><ele>237.0</ele><time>2026-04-20T10:00:19.796Z</time></trkpt><trkpt lat="40.0902183" lon="8.6522817"><ele>237.0</ele><time>2026-04-20T10:00:20.796Z</time></trkpt><trkpt lat="40.090155" lon="8.652235"><ele>237.0</ele><time>2026-04-20T10:00:21.796Z</time></trkpt><trkpt lat="40.0900817" lon="8.652195"><ele>237.0</ele><time>2026-04-20T10:00:22.796Z</time></trkpt><trkpt lat="40.0900117" lon="8.6521533"><ele>237.0</ele><time>2026-04-20T10:00:23.796Z</time></trkpt><trkpt lat="40.08995" lon="8.6521183"><ele>237.0</ele><time>2026-04-20T10:00:24.796Z</time></trkpt><trkpt lat="40.0898883" lon="8.6520883"><ele>237.0</ele><time>2026-04-20T10:00:25.796Z</time></trkpt><trkpt lat="40.089785" lon="8.6520267"><ele>238.2</ele><time>2026-04-20T10:00:27.796Z</time></trkpt><trkpt lat="40.08961" lon="8.6519033"><ele>239.39999999999998</ele><time>2026-04-20T10:00:30.796Z</time></trkpt><trkpt lat="40.08955" lon="8.6518617"><ele>240.60000000000002</ele><time>2026-04-20T10:00:31.797Z</time></trkpt><trkpt lat="40.0894917" lon="8.65182"><ele>241.8</ele><time>2026-04-20T10:00:32.796Z</time></trkpt><trkpt lat="40.0894333" lon="8.6517733"><ele>243.0</ele><time>2026-04-20T10:00:33.796Z</time></trkpt><trkpt lat="40.0893783" lon="8.6517317"><ele>243.0</ele><time>2026-04-20T10:00:34.796Z</time></trkpt><trkpt lat="40.0893233" lon="8.6516833"><ele>243.0</ele><time>2026-04-20T10:00:35.796Z</time></trkpt><trkpt lat="40.0892717" lon="8.6516267"><ele>243.0</ele><time>2026-04-20T10:00:36.796Z</time></trkpt><trkpt lat="40.089225" lon="8.6515667"><ele>243.0</ele><time>2026-04-20T10:00:37.796Z</time></trkpt><trkpt lat="40.08918" lon="8.6514983"><ele>243.0</ele><time>2026-04-20T10:00:38.796Z</time></trkpt><trkpt lat="40.08914" lon="8.6514167"><ele>243.0</ele><time>2026-04-20T10:00:39.796Z</time></trkpt><trkpt lat="40.089095" lon="8.6513283"><ele>243.0</ele><time>2026-04-20T10:00:40.796Z</time></trkpt><trkpt lat="40.0890567" lon="8.6512333"><ele>242.8</ele><time>2026-04-20T10:00:41.797Z</time></trkpt><trkpt lat="40.0890183" lon="8.651125"><ele>242.60000000000002</ele><time>2026-04-20T10:00:42.796Z</time></trkpt><trkpt lat="40.088985" lon="8.65102"><ele>242.39999999999998</ele><time>2026-04-20T10:00:43.796Z</time></trkpt><trkpt lat="40.0889633" lon="8.6509333"><ele>242.2</ele><time>2026-04-20T10:00:44.796Z</time></trkpt><trkpt lat="40.0889167" lon="8.6508017"><ele>242.0</ele><time>2026-04-20T10:00:46.796Z</time></trkpt><trkpt lat="40.0888733" lon="8.6506517"><ele>243.0</ele><time>2026-04-20T10:00:54.796Z</time></trkpt><trkpt lat="40.0888633" lon="8.6504133"><ele>244.0</ele><time>2026-04-20T10:00:57.796Z</time></trkpt><trkpt lat="40.08885" lon="8.6503217"><ele>245.0</ele><time>2026-04-20T10:00:58.797Z</time></trkpt><trkpt lat="40.0888317" lon="8.6502367"><ele>246.0</ele><time>2026-04-20T10:00:59.796Z</time></trkpt><trkpt lat="40.0888083" lon="8.6501517"><ele>247.0</ele><time>2026-04-20T10:01:00.796Z</time></trkpt><trkpt lat="40.0887867" lon="8.6500633"><ele>248.28571428571428</ele><time>2026-04-20T10:01:01.796Z</time></trkpt><trkpt lat="40.0887533" lon="8.6499833"><ele>249.57142857142856</ele><time>2026-04-20T10:01:02.796Z</time></trkpt><trkpt lat="40.0887083" lon="8.6499067"><ele>250.85714285714283</ele><time>2026-04-20T10:01:03.796Z</time></trkpt><trkpt lat="40.0886617" lon="8.6498383"><ele>252.14285714285714</ele><time>2026-04-20T10:01:04.796Z</time></trkpt><trkpt lat="40.0886167" lon="8.6497733"><ele>253.4285714285714</ele><time>2026-04-20T10:01:05.796Z</time></trkpt><trkpt lat="40.0885617" lon="8.6497133"><ele>254.7142857142857</ele><time>2026-04-20T10:01:06.796Z</time></trkpt><trkpt lat="40.0884967" lon="8.6496583"><ele>256.0</ele><time>2026-04-20T10:01:07.796Z</time></trkpt><trkpt lat="40.0884433" lon="8.6496133"><ele>255.99999999999997</ele><time>2026-04-20T10:01:08.796Z</time></trkpt><trkpt lat="40.0883783" lon="8.6494917"><ele>256.0</ele><time>2026-04-20T10:01:10.797Z</time></trkpt><trkpt lat="40.0883233" lon="8.649345"><ele>256.0</ele><time>2026-04-20T10:01:12.796Z</time></trkpt><trkpt lat="40.0882983" lon="8.6492567"><ele>256.0</ele><time>2026-04-20T10:01:13.797Z</time></trkpt><trkpt lat="40.088275" lon="8.6491717"><ele>255.99999999999997</ele><time>2026-04-20T10:01:14.796Z</time></trkpt><trkpt lat="40.0882467" lon="8.6490917"><ele>256.0</ele><time>2026-04-20T10:01:15.796Z</time></trkpt><trkpt lat="40.0881567" lon="8.6489383"><ele>256.0</ele><time>2026-04-20T10:01:17.796Z</time></trkpt><trkpt lat="40.0881" lon="8.6488767"><ele>255.99999999999997</ele><time>2026-04-20T10:01:18.796Z</time></trkpt><trkpt lat="40.0880517" lon="8.648815"><ele>256.0</ele><time>2026-04-20T10:01:19.796Z</time></trkpt><trkpt lat="40.0880117" lon="8.6487483"><ele>256.0</ele><time>2026-04-20T10:01:20.796Z</time></trkpt><trkpt lat="40.0879767" lon="8.6486783"><ele>255.99999999999997</ele><time>2026-04-20T10:01:21.796Z</time></trkpt><trkpt lat="40.087955" lon="8.6485933"><ele>256.0</ele><time>2026-04-20T10:01:22.797Z</time></trkpt><trkpt lat="40.0879383" lon="8.6484967"><ele>256.0</ele><time>2026-04-20T10:01:23.796Z</time></trkpt><trkpt lat="40.0879317" lon="8.648405"><ele>256.16666666666663</ele><time>2026-04-20T10:01:24.796Z</time></trkpt><trkpt lat="40.0879267" lon="8.6483167"><ele>256.3333333333333</ele><time>2026-04-20T10:01:25.796Z</time></trkpt><trkpt lat="40.0879233" lon="8.6482267"><ele>256.5</ele><time>2026-04-20T10:01:26.796Z</time></trkpt><trkpt lat="40.08793" lon="8.6481333"><ele>256.6666666666667</ele><time>2026-04-20T10:01:27.796Z</time></trkpt><trkpt lat="40.0879367" lon="8.648035"><ele>256.83333333333337</ele><time>2026-04-20T10:01:28.796Z</time></trkpt><trkpt lat="40.08796" lon="8.64793"><ele>257.0</ele><time>2026-04-20T10:01:29.796Z</time></trkpt><trkpt lat="40.087995" lon="8.64782"><ele>256.8</ele><time>2026-04-20T10:01:30.796Z</time></trkpt><trkpt lat="40.08802" lon="8.6477267"><ele>256.6</ele><time>2026-04-20T10:01:31.796Z</time></trkpt><trkpt lat="40.0880417" lon="8.6476383"><ele>256.40000000000003</ele><time>2026-04-20T10:01:32.796Z</time></trkpt><trkpt lat="40.0880683" lon="8.647545"><ele>256.2</ele><time>2026-04-20T10:01:33.796Z</time></trkpt><trkpt lat="40.0880833" lon="8.64738"><ele>256.0</ele><time>2026-04-20T10:01:35.796Z</time></trkpt><trkpt lat="40.08807" lon="8.6472283"><ele>253.25</ele><time>2026-04-20T10:01:37.796Z</time></trkpt><trkpt lat="40.0879833" lon="8.64694"><ele>250.5</ele><time>2026-04-20T10:01:41.796Z</time></trkpt><trkpt lat="40.0879683" lon="8.6467717"><ele>247.75</ele><time>2026-04-20T10:01:43.797Z</time></trkpt><trkpt lat="40.0879733" lon="8.6466833"><ele>245.0</ele><time>2026-04-20T10:01:44.796Z</time></trkpt><trkpt lat="40.087975" lon="8.646595"><ele>245.00000000000003</ele><time>2026-04-20T10:01:45.796Z</time></trkpt><trkpt lat="40.0879817" lon="8.6464933"><ele>245.0</ele><time>2026-04-20T10:01:46.796Z</time></trkpt><trkpt lat="40.08799" lon="8.6463933"><ele>245.0</ele><time>2026-04-20T10:01:47.796Z</time></trkpt><trkpt lat="40.0879933" lon="8.6462967"><ele>245.0</ele><time>2026-04-20T10:01:48.796Z</time></trkpt><trkpt lat="40.0880083" lon="8.6462067"><ele>245.00000000000003</ele><time>2026-04-20T10:01:49.796Z</time></trkpt><trkpt lat="40.0880417" lon="8.6460417"><ele>245.0</ele><time>2026-04-20T10:01:51.796Z</time></trkpt><trkpt lat="40.0880533" lon="8.6459533"><ele>243.83333333333334</ele><time>2026-04-20T10:01:52.796Z</time></trkpt><trkpt lat="40.0880633" lon="8.64586"><ele>242.66666666666669</ele><time>2026-04-20T10:01:53.796Z</time></trkpt><trkpt lat="40.0880583" lon="8.645765"><ele>241.5</ele><time>2026-04-20T10:01:54.796Z</time></trkpt><trkpt lat="40.088045" lon="8.6456783"><ele>240.33333333333331</ele><time>2026-04-20T10:01:55.796Z</time></trkpt><trkpt lat="40.0879967" lon="8.6455267"><ele>239.16666666666666</ele><time>2026-04-20T10:01:57.796Z</time></trkpt><trkpt lat="40.0879583" lon="8.6454583"><ele>238.0</ele><time>2026-04-20T10:01:58.796Z</time></trkpt><trkpt lat="40.0878483" lon="8.6453533"><ele>237.99999999999997</ele><time>2026-04-20T10:02:00.796Z</time></trkpt><trkpt lat="40.0877933" lon="8.6452967"><ele>238.0</ele><time>2026-04-20T10:02:01.797Z</time></trkpt><trkpt lat="40.08774" lon="8.64525"><ele>238.0</ele><time>2026-04-20T10:02:02.797Z</time></trkpt><trkpt lat="40.08769" lon="8.6451967"><ele>238.0</ele><time>2026-04-20T10:02:03.796Z</time></trkpt><trkpt lat="40.0875967" lon="8.64508"><ele>237.99999999999997</ele><time>2026-04-20T10:02:05.796Z</time></trkpt><trkpt lat="40.0875517" lon="8.6449983"><ele>238.0</ele><time>2026-04-20T10:02:06.796Z</time></trkpt><trkpt lat="40.0875267" lon="8.6448983"><ele>238.0</ele><time>2026-04-20T10:02:07.796Z</time></trkpt><trkpt lat="40.0875067" lon="8.64482"><ele>238.0</ele><time>2026-04-20T10:02:08.797Z</time></trkpt><trkpt lat="40.08748" lon="8.6447433"><ele>238.0</ele><time>2026-04-20T10:02:09.796Z</time></trkpt><trkpt lat="40.0874433" lon="8.64467"><ele>238.0</ele><time>2026-04-20T10:02:10.797Z</time></trkpt><trkpt lat="40.0874033" lon="8.6446"><ele>238.0</ele><time>2026-04-20T10:02:11.796Z</time></trkpt><trkpt lat="40.0873583" lon="8.6445317"><ele>238.0</ele><time>2026-04-20T10:02:12.797Z</time></trkpt><trkpt lat="40.0873133" lon="8.6444717"><ele>238.0</ele><time>2026-04-20T10:02:13.796Z</time></trkpt><trkpt lat="40.0872617" lon="8.6444167"><ele>239.16666666666666</ele><time>2026-04-20T10:02:14.796Z</time></trkpt><trkpt lat="40.0872017" lon="8.6443733"><ele>240.33333333333331</ele><time>2026-04-20T10:02:15.796Z</time></trkpt><trkpt lat="40.0871333" lon="8.6443383"><ele>241.5</ele><time>2026-04-20T10:02:16.797Z</time></trkpt><trkpt lat="40.0870567" lon="8.64431"><ele>242.66666666666669</ele><time>2026-04-20T10:02:17.796Z</time></trkpt><trkpt lat="40.086975" lon="8.644285"><ele>243.83333333333334</ele><time>2026-04-20T10:02:18.796Z</time></trkpt><trkpt lat="40.086905" lon="8.644255"><ele>245.0</ele><time>2026-04-20T10:02:19.796Z</time></trkpt><trkpt lat="40.08674" lon="8.64413"><ele>245.00000000000003</ele><time>2026-04-20T10:02:22.796Z</time></trkpt><trkpt lat="40.086685" lon="8.644065"><ele>245.0</ele><time>2026-04-20T10:02:23.796Z</time></trkpt><trkpt lat="40.086625" lon="8.6439833"><ele>245.0</ele><time>2026-04-20T10:02:24.797Z</time></trkpt><trkpt lat="40.0865683" lon="8.6438983"><ele>245.0</ele><time>2026-04-20T10:02:25.797Z</time></trkpt><trkpt lat="40.0865233" lon="8.643815"><ele>245.00000000000003</ele><time>2026-04-20T10:02:26.797Z</time></trkpt><trkpt lat="40.0864833" lon="8.64373"><ele>245.0</ele><time>2026-04-20T10:02:27.796Z</time></trkpt><trkpt lat="40.0864467" lon="8.6436417"><ele>244.8</ele><time>2026-04-20T10:02:28.797Z</time></trkpt><trkpt lat="40.0864017" lon="8.6435567"><ele>244.6</ele><time>2026-04-20T10:02:29.796Z</time></trkpt><trkpt lat="40.0863417" lon="8.6434633"><ele>244.39999999999998</ele><time>2026-04-20T10:02:30.796Z</time></trkpt><trkpt lat="40.0862783" lon="8.6433683"><ele>244.2</ele><time>2026-04-20T10:02:31.796Z</time></trkpt><trkpt lat="40.08621" lon="8.64328"><ele>244.0</ele><time>2026-04-20T10:02:32.796Z</time></trkpt><trkpt lat="40.0861417" lon="8.643195"><ele>243.99999999999997</ele><time>2026-04-20T10:02:33.796Z</time></trkpt><trkpt lat="40.0860767" lon="8.64312"><ele>244.0</ele><time>2026-04-20T10:02:34.796Z</time></trkpt><trkpt lat="40.0860183" lon="8.6430383"><ele>244.0</ele><time>2026-04-20T10:02:35.797Z</time></trkpt><trkpt lat="40.085945" lon="8.6429667"><ele>244.0</ele><time>2026-04-20T10:02:36.796Z</time></trkpt><trkpt lat="40.0858733" lon="8.6429067"><ele>243.99999999999997</ele><time>2026-04-20T10:02:37.796Z</time></trkpt><trkpt lat="40.0857933" lon="8.6428483"><ele>244.0</ele><time>2026-04-20T10:02:38.796Z</time></trkpt><trkpt lat="40.0857167" lon="8.6427917"><ele>243.6</ele><time>2026-04-20T10:02:39.796Z</time></trkpt><trkpt lat="40.0856533" lon="8.6427233"><ele>243.2</ele><time>2026-04-20T10:02:40.796Z</time></trkpt><trkpt lat="40.085535" lon="8.6425617"><ele>242.79999999999998</ele><time>2026-04-20T10:02:42.796Z</time></trkpt><trkpt lat="40.0854833" lon="8.6424667"><ele>242.39999999999998</ele><time>2026-04-20T10:02:43.796Z</time></trkpt><trkpt lat="40.0854367" lon="8.6423683"><ele>242.0</ele><time>2026-04-20T10:02:44.797Z</time></trkpt><trkpt lat="40.0853967" lon="8.6422567"><ele>242.00000000000003</ele><time>2026-04-20T10:02:45.796Z</time></trkpt><trkpt lat="40.08535" lon="8.6421567"><ele>242.0</ele><time>2026-04-20T10:02:46.796Z</time></trkpt><trkpt lat="40.0853033" lon="8.64207"><ele>242.0</ele><time>2026-04-20T10:02:47.796Z</time></trkpt><trkpt lat="40.0852533" lon="8.642005"><ele>242.0</ele><time>2026-04-20T10:02:48.797Z</time></trkpt><trkpt lat="40.08518" lon="8.6419167"><ele>242.00000000000003</ele><time>2026-04-20T10:02:50.796Z</time></trkpt><trkpt lat="40.0851483" lon="8.641825"><ele>242.0</ele><time>2026-04-20T10:02:52.797Z</time></trkpt><trkpt lat="40.0851483" lon="8.641695"><ele>241.6</ele><time>2026-04-20T10:02:54.796Z</time></trkpt><trkpt lat="40.0851533" lon="8.6415467"><ele>241.2</ele><time>2026-04-20T10:02:56.796Z</time></trkpt><trkpt lat="40.0851783" lon="8.6413933"><ele>240.8</ele><time>2026-04-20T10:02:58.797Z</time></trkpt><trkpt lat="40.0851967" lon="8.6413033"><ele>240.4</ele><time>2026-04-20T10:02:59.796Z</time></trkpt><trkpt lat="40.0852083" lon="8.6412067"><ele>240.0</ele><time>2026-04-20T10:03:00.796Z</time></trkpt><trkpt lat="40.0852167" lon="8.641115"><ele>240.0</ele><time>2026-04-20T10:03:01.796Z</time></trkpt><trkpt lat="40.0852467" lon="8.6408583"><ele>240.0</ele><time>2026-04-20T10:03:05.796Z</time></trkpt><trkpt lat="40.0853017" lon="8.6407383"><ele>240.0</ele><time>2026-04-20T10:03:07.796Z</time></trkpt><trkpt lat="40.08534" lon="8.6406717"><ele>240.0</ele><time>2026-04-20T10:03:08.796Z</time></trkpt><trkpt lat="40.0853683" lon="8.6405917"><ele>240.0</ele><time>2026-04-20T10:03:09.796Z</time></trkpt><trkpt lat="40.0854067" lon="8.640475"><ele>240.0</ele><time>2026-04-20T10:03:11.796Z</time></trkpt><trkpt lat="40.0854133" lon="8.6403783"><ele>240.0</ele><time>2026-04-20T10:03:26.796Z</time></trkpt><trkpt lat="40.0854483" lon="8.6401483"><ele>240.0</ele><time>2026-04-20T10:03:31.796Z</time></trkpt><trkpt lat="40.0854733" lon="8.640055"><ele>240.0</ele><time>2026-04-20T10:03:33.796Z</time></trkpt><trkpt lat="40.085505" lon="8.6399767"><ele>240.0</ele><time>2026-04-20T10:03:35.796Z</time></trkpt><trkpt lat="40.0855367" lon="8.6398733"><ele>240.16666666666666</ele><time>2026-04-20T10:03:38.796Z</time></trkpt><trkpt lat="40.08558" lon="8.6397933"><ele>240.33333333333331</ele><time>2026-04-20T10:03:40.797Z</time></trkpt><trkpt lat="40.0856033" lon="8.6397133"><ele>240.5</ele><time>2026-04-20T10:03:42.796Z</time></trkpt><trkpt lat="40.0856" lon="8.6396283"><ele>240.66666666666666</ele><time>2026-04-20T10:03:48.797Z</time></trkpt><trkpt lat="40.08563" lon="8.63955"><ele>240.83333333333331</ele><time>2026-04-20T10:03:53.796Z</time></trkpt><trkpt lat="40.0857267" lon="8.6393917"><ele>241.0</ele><time>2026-04-20T10:04:00.797Z</time></trkpt><trkpt lat="40.085775" lon="8.6393083"><ele>241.66666666666666</ele><time>2026-04-20T10:04:02.796Z</time></trkpt><trkpt lat="40.0858167" lon="8.6392167"><ele>242.33333333333331</ele><time>2026-04-20T10:04:04.796Z</time></trkpt><trkpt lat="40.08583" lon="8.6390917"><ele>243.0</ele><time>2026-04-20T10:04:06.796Z</time></trkpt><trkpt lat="40.085825" lon="8.6389683"><ele>243.66666666666669</ele><time>2026-04-20T10:04:08.797Z</time></trkpt><trkpt lat="40.0858133" lon="8.6388483"><ele>244.33333333333334</ele><time>2026-04-20T10:04:10.796Z</time></trkpt><trkpt lat="40.0858117" lon="8.6387417"><ele>245.0</ele><time>2026-04-20T10:04:12.796Z</time></trkpt><trkpt lat="40.0858233" lon="8.6386417"><ele>245.25</ele><time>2026-04-20T10:04:14.796Z</time></trkpt><trkpt lat="40.0858433" lon="8.6383883"><ele>245.5</ele><time>2026-04-20T10:04:18.796Z</time></trkpt><trkpt lat="40.0858283" lon="8.6382717"><ele>245.75</ele><time>2026-04-20T10:04:20.796Z</time></trkpt><trkpt lat="40.085845" lon="8.6381483"><ele>246.0</ele><time>2026-04-20T10:04:22.796Z</time></trkpt><trkpt lat="40.0859083" lon="8.6380317"><ele>246.0</ele><time>2026-04-20T10:04:24.797Z</time></trkpt><trkpt lat="40.085995" lon="8.6379317"><ele>246.00000000000003</ele><time>2026-04-20T10:04:26.797Z</time></trkpt><trkpt lat="40.086085" lon="8.6378383"><ele>246.00000000000003</ele><time>2026-04-20T10:04:28.796Z</time></trkpt><trkpt lat="40.0861617" lon="8.6377417"><ele>246.0</ele><time>2026-04-20T10:04:30.796Z</time></trkpt><trkpt lat="40.08622" lon="8.6376567"><ele>246.0</ele><time>2026-04-20T10:04:32.796Z</time></trkpt><trkpt lat="40.0862433" lon="8.637555"><ele>245.60000000000002</ele><time>2026-04-20T10:04:34.796Z</time></trkpt><trkpt lat="40.0862567" lon="8.637435"><ele>245.20000000000002</ele><time>2026-04-20T10:04:36.796Z</time></trkpt><trkpt lat="40.0862667" lon="8.6372333"><ele>244.79999999999998</ele><time>2026-04-20T10:04:40.796Z</time></trkpt><trkpt lat="40.0863033" lon="8.637155"><ele>244.39999999999998</ele><time>2026-04-20T10:04:42.796Z</time></trkpt><trkpt lat="40.0863233" lon="8.63701"><ele>244.0</ele><time>2026-04-20T10:04:53.796Z</time></trkpt><trkpt lat="40.0863217" lon="8.6369033"><ele>243.6</ele><time>2026-04-20T10:04:54.796Z</time></trkpt><trkpt lat="40.08632" lon="8.6367967"><ele>243.2</ele><time>2026-04-20T10:04:55.796Z</time></trkpt><trkpt lat="40.086315" lon="8.63669"><ele>242.79999999999998</ele><time>2026-04-20T10:04:56.796Z</time></trkpt><trkpt lat="40.0863117" lon="8.6365867"><ele>242.39999999999998</ele><time>2026-04-20T10:04:57.796Z</time></trkpt><trkpt lat="40.0863133" lon="8.636385"><ele>242.0</ele><time>2026-04-20T10:04:59.796Z</time></trkpt><trkpt lat="40.0863233" lon="8.63628"><ele>242.00000000000003</ele><time>2026-04-20T10:05:00.796Z</time></trkpt><trkpt lat="40.0863417" lon="8.636175"><ele>242.0</ele><time>2026-04-20T10:05:01.796Z</time></trkpt><trkpt lat="40.0863567" lon="8.6360683"><ele>242.0</ele><time>2026-04-20T10:05:02.796Z</time></trkpt><trkpt lat="40.08637" lon="8.6359717"><ele>242.0</ele><time>2026-04-20T10:05:03.796Z</time></trkpt><trkpt lat="40.0863733" lon="8.6358717"><ele>242.00000000000003</ele><time>2026-04-20T10:05:04.797Z</time></trkpt><trkpt lat="40.0863867" lon="8.635765"><ele>242.0</ele><time>2026-04-20T10:05:05.797Z</time></trkpt><trkpt lat="40.0864033" lon="8.635625"><ele>242.0</ele><time>2026-04-20T10:05:06.796Z</time></trkpt><trkpt lat="40.0864067" lon="8.6354967"><ele>242.0</ele><time>2026-04-20T10:05:07.796Z</time></trkpt><trkpt lat="40.0864183" lon="8.63536"><ele>242.0</ele><time>2026-04-20T10:05:08.796Z</time></trkpt><trkpt lat="40.0864283" lon="8.6352333"><ele>242.0</ele><time>2026-04-20T10:05:09.796Z</time></trkpt><trkpt lat="40.0864433" lon="8.6351167"><ele>242.0</ele><time>2026-04-20T10:05:10.796Z</time></trkpt><trkpt lat="40.086455" lon="8.63502"><ele>242.57142857142856</ele><time>2026-04-20T10:05:11.796Z</time></trkpt><trkpt lat="40.08647" lon="8.6349333"><ele>243.1428571428571</ele><time>2026-04-20T10:05:12.796Z</time></trkpt><trkpt lat="40.0864933" lon="8.6348467"><ele>243.71428571428572</ele><time>2026-04-20T10:05:13.797Z</time></trkpt><trkpt lat="40.0865117" lon="8.6347483"><ele>244.28571428571428</ele><time>2026-04-20T10:05:14.796Z</time></trkpt><trkpt lat="40.0865283" lon="8.6346567"><ele>244.85714285714286</ele><time>2026-04-20T10:05:15.796Z</time></trkpt><trkpt lat="40.0865433" lon="8.6345583"><ele>245.42857142857144</ele><time>2026-04-20T10:05:16.796Z</time></trkpt><trkpt lat="40.0865483" lon="8.634455"><ele>246.00000000000003</ele><time>2026-04-20T10:05:17.797Z</time></trkpt><trkpt lat="40.086555" lon="8.63436"><ele>246.66666666666666</ele><time>2026-04-20T10:05:18.796Z</time></trkpt><trkpt lat="40.08652" lon="8.634195"><ele>247.33333333333331</ele><time>2026-04-20T10:05:20.796Z</time></trkpt><trkpt lat="40.0864833" lon="8.63411"><ele>248.0</ele><time>2026-04-20T10:05:21.796Z</time></trkpt><trkpt lat="40.0864383" lon="8.6340333"><ele>248.66666666666666</ele><time>2026-04-20T10:05:22.796Z</time></trkpt><trkpt lat="40.0863783" lon="8.6339733"><ele>249.33333333333331</ele><time>2026-04-20T10:05:23.796Z</time></trkpt><trkpt lat="40.08632" lon="8.6339233"><ele>250.0</ele><time>2026-04-20T10:05:24.796Z</time></trkpt><trkpt lat="40.0862617" lon="8.6338667"><ele>249.99999999999997</ele><time>2026-04-20T10:05:25.796Z</time></trkpt><trkpt lat="40.0862117" lon="8.6338"><ele>250.0</ele><time>2026-04-20T10:05:26.796Z</time></trkpt><trkpt lat="40.0861583" lon="8.6337167"><ele>250.0</ele><time>2026-04-20T10:05:27.796Z</time></trkpt><trkpt lat="40.0861133" lon="8.6336167"><ele>250.0</ele><time>2026-04-20T10:05:28.796Z</time></trkpt><trkpt lat="40.0860667" lon="8.6335183"><ele>249.99999999999997</ele><time>2026-04-20T10:05:29.796Z</time></trkpt><trkpt lat="40.0860183" lon="8.6334433"><ele>250.0</ele><time>2026-04-20T10:05:30.796Z</time></trkpt><trkpt lat="40.085975" lon="8.6333667"><ele>250.28571428571428</ele><time>2026-04-20T10:05:31.796Z</time></trkpt><trkpt lat="40.0859317" lon="8.6332917"><ele>250.57142857142858</ele><time>2026-04-20T10:05:32.796Z</time></trkpt><trkpt lat="40.0858817" lon="8.6332267"><ele>250.85714285714286</ele><time>2026-04-20T10:05:33.796Z</time></trkpt><trkpt lat="40.08584" lon="8.6331617"><ele>251.14285714285714</ele><time>2026-04-20T10:05:34.796Z</time></trkpt><trkpt lat="40.0857867" lon="8.633095"><ele>251.42857142857144</ele><time>2026-04-20T10:05:35.796Z</time></trkpt><trkpt lat="40.0857383" lon="8.6330333"><ele>251.71428571428572</ele><time>2026-04-20T10:05:36.796Z</time></trkpt><trkpt lat="40.08568" lon="8.6329717"><ele>252.0</ele><time>2026-04-20T10:05:37.796Z</time></trkpt><trkpt lat="40.085625" lon="8.63292"><ele>252.25</ele><time>2026-04-20T10:05:38.796Z</time></trkpt><trkpt lat="40.085565" lon="8.6328767"><ele>252.5</ele><time>2026-04-20T10:05:39.796Z</time></trkpt><trkpt lat="40.08551" lon="8.6327067"><ele>252.75</ele><time>2026-04-20T10:05:43.796Z</time></trkpt><trkpt lat="40.085555" lon="8.63263"><ele>253.0</ele><time>2026-04-20T10:06:05.796Z</time></trkpt><trkpt lat="40.085745" lon="8.6325883"><ele>253.66666666666666</ele><time>2026-04-20T10:06:08.796Z</time></trkpt><trkpt lat="40.085835" lon="8.63257"><ele>254.33333333333331</ele><time>2026-04-20T10:06:09.796Z</time></trkpt><trkpt lat="40.08593" lon="8.6325433"><ele>255.0</ele><time>2026-04-20T10:06:10.796Z</time></trkpt><trkpt lat="40.0860267" lon="8.6325217"><ele>255.66666666666669</ele><time>2026-04-20T10:06:11.797Z</time></trkpt><trkpt lat="40.0861117" lon="8.6324933"><ele>256.33333333333337</ele><time>2026-04-20T10:06:12.796Z</time></trkpt><trkpt lat="40.08618" lon="8.632475"><ele>257.0</ele><time>2026-04-20T10:06:13.796Z</time></trkpt><trkpt lat="40.0862467" lon="8.6324533"><ele>257.0</ele><time>2026-04-20T10:06:14.797Z</time></trkpt><trkpt lat="40.086345" lon="8.632385"><ele>257.0</ele><time>2026-04-20T10:06:16.797Z</time></trkpt><trkpt lat="40.0863833" lon="8.632305"><ele>257.0</ele><time>2026-04-20T10:06:44.796Z</time></trkpt><trkpt lat="40.0863783" lon="8.63202"><ele>257.0</ele><time>2026-04-20T10:06:47.796Z</time></trkpt><trkpt lat="40.08638" lon="8.631895"><ele>257.83333333333337</ele><time>2026-04-20T10:06:48.796Z</time></trkpt><trkpt lat="40.0863717" lon="8.6317733"><ele>258.6666666666667</ele><time>2026-04-20T10:06:49.797Z</time></trkpt><trkpt lat="40.0863567" lon="8.631655"><ele>259.5</ele><time>2026-04-20T10:06:50.796Z</time></trkpt><trkpt lat="40.08634" lon="8.6315317"><ele>260.3333333333333</ele><time>2026-04-20T10:06:51.796Z</time></trkpt><trkpt lat="40.08634" lon="8.6314133"><ele>261.16666666666663</ele><time>2026-04-20T10:06:52.796Z</time></trkpt><trkpt lat="40.08634" lon="8.631315"><ele>262.0</ele><time>2026-04-20T10:06:53.797Z</time></trkpt><trkpt lat="40.0863017" lon="8.63116"><ele>262.5</ele><time>2026-04-20T10:06:55.796Z</time></trkpt><trkpt lat="40.0862583" lon="8.631085"><ele>263.0</ele><time>2026-04-20T10:06:56.796Z</time></trkpt><trkpt lat="40.0861983" lon="8.631005"><ele>263.5</ele><time>2026-04-20T10:06:57.796Z</time></trkpt><trkpt lat="40.0861383" lon="8.6309267"><ele>264.0</ele><time>2026-04-20T10:06:58.797Z</time></trkpt><trkpt lat="40.0860833" lon="8.630865"><ele>264.5</ele><time>2026-04-20T10:06:59.796Z</time></trkpt><trkpt lat="40.0859817" lon="8.6308"><ele>265.0</ele><time>2026-04-20T10:07:01.797Z</time></trkpt><trkpt lat="40.0859117" lon="8.6307883"><ele>265.0</ele><time>2026-04-20T10:07:02.796Z</time></trkpt><trkpt lat="40.08584" lon="8.6307733"><ele>265.0</ele><time>2026-04-20T10:07:03.796Z</time></trkpt><trkpt lat="40.0857667" lon="8.6307383"><ele>265.0</ele><time>2026-04-20T10:07:04.796Z</time></trkpt><trkpt lat="40.0856767" lon="8.6307017"><ele>265.0</ele><time>2026-04-20T10:07:05.796Z</time></trkpt><trkpt lat="40.0854867" lon="8.6305967"><ele>264.8333333333333</ele><time>2026-04-20T10:07:07.796Z</time></trkpt><trkpt lat="40.0854083" lon="8.6305517"><ele>264.66666666666663</ele><time>2026-04-20T10:07:08.796Z</time></trkpt><trkpt lat="40.0853367" lon="8.6305"><ele>264.5</ele><time>2026-04-20T10:07:09.796Z</time></trkpt><trkpt lat="40.0852767" lon="8.6304367"><ele>264.3333333333333</ele><time>2026-04-20T10:07:10.796Z</time></trkpt><trkpt lat="40.0852083" lon="8.6303583"><ele>264.1666666666667</ele><time>2026-04-20T10:07:11.796Z</time></trkpt><trkpt lat="40.0851417" lon="8.6302967"><ele>264.0</ele><time>2026-04-20T10:07:12.796Z</time></trkpt><trkpt lat="40.085065" lon="8.6302583"><ele>264.2857142857143</ele><time>2026-04-20T10:07:13.796Z</time></trkpt><trkpt lat="40.0849983" lon="8.6302017"><ele>264.57142857142856</ele><time>2026-04-20T10:07:14.796Z</time></trkpt><trkpt lat="40.0849383" lon="8.6301367"><ele>264.8571428571429</ele><time>2026-04-20T10:07:15.796Z</time></trkpt><trkpt lat="40.084875" lon="8.6300733"><ele>265.1428571428571</ele><time>2026-04-20T10:07:16.796Z</time></trkpt><trkpt lat="40.084815" lon="8.63003"><ele>265.42857142857144</ele><time>2026-04-20T10:07:17.796Z</time></trkpt><trkpt lat="40.08476" lon="8.6299867"><ele>265.7142857142857</ele><time>2026-04-20T10:07:18.796Z</time></trkpt><trkpt lat="40.0846967" lon="8.6299417"><ele>266.0</ele><time>2026-04-20T10:07:19.796Z</time></trkpt><trkpt lat="40.0846267" lon="8.6298883"><ele>266.0</ele><time>2026-04-20T10:07:20.796Z</time></trkpt><trkpt lat="40.0845533" lon="8.629825"><ele>266.0</ele><time>2026-04-20T10:07:21.796Z</time></trkpt><trkpt lat="40.0844783" lon="8.62976"><ele>266.0</ele><time>2026-04-20T10:07:22.796Z</time></trkpt><trkpt lat="40.08441" lon="8.6296983"><ele>266.0</ele><time>2026-04-20T10:07:23.796Z</time></trkpt><trkpt lat="40.08435" lon="8.6296317"><ele>266.0</ele><time>2026-04-20T10:07:24.796Z</time></trkpt><trkpt lat="40.084285" lon="8.629575"><ele>266.0</ele><time>2026-04-20T10:07:25.796Z</time></trkpt><trkpt lat="40.0842267" lon="8.629515"><ele>266.1666666666667</ele><time>2026-04-20T10:07:26.796Z</time></trkpt><trkpt lat="40.0841033" lon="8.62941"><ele>266.33333333333337</ele><time>2026-04-20T10:07:28.796Z</time></trkpt><trkpt lat="40.0840483" lon="8.6293433"><ele>266.5</ele><time>2026-04-20T10:07:29.796Z</time></trkpt><trkpt lat="40.0839933" lon="8.6292817"><ele>266.6666666666667</ele><time>2026-04-20T10:07:30.797Z</time></trkpt><trkpt lat="40.0839367" lon="8.6292183"><ele>266.8333333333333</ele><time>2026-04-20T10:07:31.796Z</time></trkpt><trkpt lat="40.0838783" lon="8.6291533"><ele>267.0</ele><time>2026-04-20T10:07:32.796Z</time></trkpt><trkpt lat="40.0838233" lon="8.6291"><ele>265.6</ele><time>2026-04-20T10:07:33.796Z</time></trkpt><trkpt lat="40.083745" lon="8.62899"><ele>264.2</ele><time>2026-04-20T10:07:35.796Z</time></trkpt><trkpt lat="40.0836867" lon="8.6288283"><ele>262.8</ele><time>2026-04-20T10:07:37.796Z</time></trkpt><trkpt lat="40.083655" lon="8.6287317"><ele>261.4</ele><time>2026-04-20T10:07:38.796Z</time></trkpt><trkpt lat="40.08361" lon="8.62865"><ele>260.0</ele><time>2026-04-20T10:07:39.796Z</time></trkpt><trkpt lat="40.0835583" lon="8.62857"><ele>260.0</ele><time>2026-04-20T10:07:40.796Z</time></trkpt><trkpt lat="40.0835067" lon="8.6284917"><ele>260.0</ele><time>2026-04-20T10:07:41.797Z</time></trkpt><trkpt lat="40.08346" lon="8.6284133"><ele>260.0</ele><time>2026-04-20T10:07:42.796Z</time></trkpt><trkpt lat="40.0834167" lon="8.6283317"><ele>260.0</ele><time>2026-04-20T10:07:43.796Z</time></trkpt><trkpt lat="40.0833767" lon="8.6282367"><ele>260.0</ele><time>2026-04-20T10:07:44.796Z</time></trkpt><trkpt lat="40.0833283" lon="8.628145"><ele>260.0</ele><time>2026-04-20T10:07:45.796Z</time></trkpt><trkpt lat="40.0832833" lon="8.6280517"><ele>259.8</ele><time>2026-04-20T10:07:46.796Z</time></trkpt><trkpt lat="40.0832483" lon="8.62796"><ele>259.6</ele><time>2026-04-20T10:07:47.796Z</time></trkpt><trkpt lat="40.0832" lon="8.6277733"><ele>259.4</ele><time>2026-04-20T10:07:49.796Z</time></trkpt><trkpt lat="40.0831733" lon="8.62767"><ele>259.2</ele><time>2026-04-20T10:07:50.797Z</time></trkpt><trkpt lat="40.0831517" lon="8.6275567"><ele>259.0</ele><time>2026-04-20T10:07:51.797Z</time></trkpt><trkpt lat="40.0831267" lon="8.6274433"><ele>259.0</ele><time>2026-04-20T10:07:52.796Z</time></trkpt><trkpt lat="40.0830983" lon="8.62734"><ele>259.0</ele><time>2026-04-20T10:07:53.797Z</time></trkpt><trkpt lat="40.08307" lon="8.6272267"><ele>259.0</ele><time>2026-04-20T10:07:54.796Z</time></trkpt><trkpt lat="40.0830417" lon="8.6271133"><ele>259.0</ele><time>2026-04-20T10:07:55.796Z</time></trkpt><trkpt lat="40.0830133" lon="8.6269833"><ele>259.0</ele><time>2026-04-20T10:07:56.796Z</time></trkpt><trkpt lat="40.0829767" lon="8.6268517"><ele>260.0</ele><time>2026-04-20T10:07:57.796Z</time></trkpt><trkpt lat="40.0829533" lon="8.62672"><ele>261.0</ele><time>2026-04-20T10:07:58.796Z</time></trkpt><trkpt lat="40.0829317" lon="8.62658"><ele>262.0</ele><time>2026-04-20T10:07:59.796Z</time></trkpt><trkpt lat="40.0829" lon="8.626435"><ele>263.0</ele><time>2026-04-20T10:08:00.795Z</time></trkpt><trkpt lat="40.0828733" lon="8.6262967"><ele>264.0</ele><time>2026-04-20T10:08:01.795Z</time></trkpt><trkpt lat="40.0828333" lon="8.626175"><ele>264.59999999999997</ele><time>2026-04-20T10:08:02.795Z</time></trkpt><trkpt lat="40.0827767" lon="8.6260667"><ele>265.2</ele><time>2026-04-20T10:08:03.795Z</time></trkpt><trkpt lat="40.082715" lon="8.625965"><ele>265.79999999999995</ele><time>2026-04-20T10:08:04.795Z</time></trkpt><trkpt lat="40.0826417" lon="8.62588"><ele>266.4</ele><time>2026-04-20T10:08:05.796Z</time></trkpt><trkpt lat="40.08256" lon="8.6258033"><ele>267.0</ele><time>2026-04-20T10:08:06.796Z</time></trkpt><trkpt lat="40.0824783" lon="8.6257283"><ele>267.4</ele><time>2026-04-20T10:08:07.795Z</time></trkpt><trkpt lat="40.0824033" lon="8.6256633"><ele>267.79999999999995</ele><time>2026-04-20T10:08:08.795Z</time></trkpt><trkpt lat="40.0823117" lon="8.62553"><ele>268.2</ele><time>2026-04-20T10:08:10.795Z</time></trkpt><trkpt lat="40.0822767" lon="8.625435"><ele>268.59999999999997</ele><time>2026-04-20T10:08:11.795Z</time></trkpt><trkpt lat="40.082245" lon="8.6253267"><ele>269.0</ele><time>2026-04-20T10:08:12.795Z</time></trkpt><trkpt lat="40.0822217" lon="8.6252217"><ele>269.1666666666667</ele><time>2026-04-20T10:08:13.796Z</time></trkpt><trkpt lat="40.082205" lon="8.6251033"><ele>269.33333333333337</ele><time>2026-04-20T10:08:14.796Z</time></trkpt><trkpt lat="40.0821983" lon="8.624995"><ele>269.5</ele><time>2026-04-20T10:08:15.795Z</time></trkpt><trkpt lat="40.0822" lon="8.6249033"><ele>269.6666666666667</ele><time>2026-04-20T10:08:16.796Z</time></trkpt><trkpt lat="40.0821817" lon="8.6248233"><ele>269.8333333333333</ele><time>2026-04-20T10:08:17.796Z</time></trkpt><trkpt lat="40.0821533" lon="8.6247383"><ele>270.0</ele><time>2026-04-20T10:08:18.795Z</time></trkpt><trkpt lat="40.082115" lon="8.62465"><ele>270.0</ele><time>2026-04-20T10:08:19.795Z</time></trkpt><trkpt lat="40.0820767" lon="8.62455"><ele>270.0</ele><time>2026-04-20T10:08:20.795Z</time></trkpt><trkpt lat="40.0820317" lon="8.6244383"><ele>270.0</ele><time>2026-04-20T10:08:21.795Z</time></trkpt><trkpt lat="40.081995" lon="8.62433"><ele>270.0</ele><time>2026-04-20T10:08:22.795Z</time></trkpt><trkpt lat="40.08196" lon="8.624235"><ele>270.0</ele><time>2026-04-20T10:08:23.795Z</time></trkpt><trkpt lat="40.08192" lon="8.6241533"><ele>270.0</ele><time>2026-04-20T10:08:24.795Z</time></trkpt><trkpt lat="40.0818817" lon="8.624075"><ele>270.4</ele><time>2026-04-20T10:08:25.795Z</time></trkpt><trkpt lat="40.0818533" lon="8.6239917"><ele>270.8</ele><time>2026-04-20T10:08:26.795Z</time></trkpt><trkpt lat="40.0818183" lon="8.623905"><ele>271.2</ele><time>2026-04-20T10:08:27.795Z</time></trkpt><trkpt lat="40.0817917" lon="8.6238033"><ele>271.6</ele><time>2026-04-20T10:08:28.795Z</time></trkpt><trkpt lat="40.0817633" lon="8.6236967"><ele>272.0</ele><time>2026-04-20T10:08:29.795Z</time></trkpt><trkpt lat="40.0816967" lon="8.6235033"><ele>272.1666666666667</ele><time>2026-04-20T10:08:31.795Z</time></trkpt><trkpt lat="40.0816633" lon="8.6234133"><ele>272.33333333333337</ele><time>2026-04-20T10:08:32.795Z</time></trkpt><trkpt lat="40.0816367" lon="8.6233183"><ele>272.5</ele><time>2026-04-20T10:08:33.795Z</time></trkpt><trkpt lat="40.08161" lon="8.6232167"><ele>272.6666666666667</ele><time>2026-04-20T10:08:34.795Z</time></trkpt><trkpt lat="40.081575" lon="8.6231133"><ele>272.8333333333333</ele><time>2026-04-20T10:08:35.795Z</time></trkpt><trkpt lat="40.0815367" lon="8.6230117"><ele>273.0</ele><time>2026-04-20T10:08:36.796Z</time></trkpt><trkpt lat="40.0814983" lon="8.62291"><ele>272.8333333333333</ele><time>2026-04-20T10:08:37.795Z</time></trkpt><trkpt lat="40.0814617" lon="8.6228117"><ele>272.6666666666667</ele><time>2026-04-20T10:08:38.795Z</time></trkpt><trkpt lat="40.081415" lon="8.62271"><ele>272.5</ele><time>2026-04-20T10:08:39.796Z</time></trkpt><trkpt lat="40.0813717" lon="8.62262"><ele>272.33333333333337</ele><time>2026-04-20T10:08:40.795Z</time></trkpt><trkpt lat="40.0813333" lon="8.622525"><ele>272.1666666666667</ele><time>2026-04-20T10:08:41.795Z</time></trkpt><trkpt lat="40.0812933" lon="8.622425"><ele>272.0</ele><time>2026-04-20T10:08:42.795Z</time></trkpt><trkpt lat="40.081255" lon="8.6223233"><ele>272.0</ele><time>2026-04-20T10:08:43.795Z</time></trkpt><trkpt lat="40.0812217" lon="8.62221"><ele>272.0</ele><time>2026-04-20T10:08:44.795Z</time></trkpt><trkpt lat="40.0811883" lon="8.622095"><ele>272.0</ele><time>2026-04-20T10:08:45.795Z</time></trkpt><trkpt lat="40.0811617" lon="8.6219783"><ele>272.0</ele><time>2026-04-20T10:08:46.795Z</time></trkpt><trkpt lat="40.081135" lon="8.6218667"><ele>272.0</ele><time>2026-04-20T10:08:47.795Z</time></trkpt><trkpt lat="40.0811067" lon="8.6217617"><ele>272.6</ele><time>2026-04-20T10:08:48.795Z</time></trkpt><trkpt lat="40.0810683" lon="8.621665"><ele>273.2</ele><time>2026-04-20T10:08:49.795Z</time></trkpt><trkpt lat="40.0810217" lon="8.621565"><ele>273.8</ele><time>2026-04-20T10:08:50.796Z</time></trkpt><trkpt lat="40.080915" lon="8.62137"><ele>274.4</ele><time>2026-04-20T10:08:52.795Z</time></trkpt><trkpt lat="40.0808667" lon="8.621275"><ele>275.0</ele><time>2026-04-20T10:08:53.795Z</time></trkpt><trkpt lat="40.0808217" lon="8.6211683"><ele>275.1666666666667</ele><time>2026-04-20T10:08:54.795Z</time></trkpt><trkpt lat="40.0807783" lon="8.6210567"><ele>275.33333333333337</ele><time>2026-04-20T10:08:55.796Z</time></trkpt><trkpt lat="40.0807417" lon="8.6209567"><ele>275.5</ele><time>2026-04-20T10:08:56.795Z</time></trkpt><trkpt lat="40.0807067" lon="8.62087"><ele>275.6666666666667</ele><time>2026-04-20T10:08:57.795Z</time></trkpt><trkpt lat="40.0806633" lon="8.6207667"><ele>275.8333333333333</ele><time>2026-04-20T10:08:58.796Z</time></trkpt><trkpt lat="40.0806183" lon="8.620665"><ele>276.0</ele><time>2026-04-20T10:08:59.796Z</time></trkpt><trkpt lat="40.0805883" lon="8.620575"><ele>275.6666666666667</ele><time>2026-04-20T10:09:00.795Z</time></trkpt><trkpt lat="40.08055" lon="8.6204933"><ele>275.3333333333333</ele><time>2026-04-20T10:09:01.795Z</time></trkpt><trkpt lat="40.0805233" lon="8.6204133"><ele>275.0</ele><time>2026-04-20T10:09:02.795Z</time></trkpt><trkpt lat="40.0804967" lon="8.620325"><ele>274.66666666666663</ele><time>2026-04-20T10:09:03.795Z</time></trkpt><trkpt lat="40.0804633" lon="8.620225"><ele>274.3333333333333</ele><time>2026-04-20T10:09:04.796Z</time></trkpt><trkpt lat="40.0804267" lon="8.6201317"><ele>274.0</ele><time>2026-04-20T10:09:05.795Z</time></trkpt><trkpt lat="40.0803967" lon="8.620035"><ele>274.0</ele><time>2026-04-20T10:09:06.795Z</time></trkpt><trkpt lat="40.0803683" lon="8.6199433"><ele>274.0</ele><time>2026-04-20T10:09:07.795Z</time></trkpt><trkpt lat="40.0803417" lon="8.61984"><ele>274.0</ele><time>2026-04-20T10:09:08.795Z</time></trkpt><trkpt lat="40.0803083" lon="8.6197333"><ele>274.0</ele><time>2026-04-20T10:09:09.795Z</time></trkpt><trkpt lat="40.0802733" lon="8.61963"><ele>274.0</ele><time>2026-04-20T10:09:10.795Z</time></trkpt><trkpt lat="40.0802333" lon="8.6195333"><ele>274.0</ele><time>2026-04-20T10:09:11.795Z</time></trkpt><trkpt lat="40.0801733" lon="8.6193667"><ele>274.3333333333333</ele><time>2026-04-20T10:09:13.796Z</time></trkpt><trkpt lat="40.0801433" lon="8.61925"><ele>274.66666666666663</ele><time>2026-04-20T10:09:15.795Z</time></trkpt><trkpt lat="40.08011" lon="8.6191617"><ele>275.0</ele><time>2026-04-20T10:09:17.795Z</time></trkpt><trkpt lat="40.0800083" lon="8.6190617"><ele>275.3333333333333</ele><time>2026-04-20T10:09:19.795Z</time></trkpt><trkpt lat="40.0799333" lon="8.6190333"><ele>275.6666666666667</ele><time>2026-04-20T10:09:20.795Z</time></trkpt><trkpt lat="40.079865" lon="8.6190167"><ele>276.0</ele><time>2026-04-20T10:09:21.795Z</time></trkpt><trkpt lat="40.0797317" lon="8.6189833"><ele>275.1666666666667</ele><time>2026-04-20T10:09:23.795Z</time></trkpt><trkpt lat="40.0796567" lon="8.6189567"><ele>274.3333333333333</ele><time>2026-04-20T10:09:24.795Z</time></trkpt><trkpt lat="40.0795783" lon="8.61893"><ele>273.5</ele><time>2026-04-20T10:09:25.795Z</time></trkpt><trkpt lat="40.079495" lon="8.6189"><ele>272.66666666666663</ele><time>2026-04-20T10:09:26.795Z</time></trkpt><trkpt lat="40.079405" lon="8.6188683"><ele>271.8333333333333</ele><time>2026-04-20T10:09:27.795Z</time></trkpt><trkpt lat="40.079305" lon="8.6188417"><ele>271.0</ele><time>2026-04-20T10:09:28.795Z</time></trkpt><trkpt lat="40.079185" lon="8.6188133"><ele>269.0</ele><time>2026-04-20T10:09:29.795Z</time></trkpt><trkpt lat="40.0790567" lon="8.6187833"><ele>267.0</ele><time>2026-04-20T10:09:30.795Z</time></trkpt><trkpt lat="40.078895" lon="8.6187733"><ele>265.0</ele><time>2026-04-20T10:09:31.796Z</time></trkpt><trkpt lat="40.0787233" lon="8.6187967"><ele>265.0</ele><time>2026-04-20T10:09:32.795Z</time></trkpt><trkpt lat="40.0783517" lon="8.6189133"><ele>265.0</ele><time>2026-04-20T10:09:34.795Z</time></trkpt><trkpt lat="40.0781533" lon="8.6189867"><ele>263.0</ele><time>2026-04-20T10:09:35.795Z</time></trkpt><trkpt lat="40.07795" lon="8.6190467"><ele>261.0</ele><time>2026-04-20T10:09:36.796Z</time></trkpt><trkpt lat="40.077745" lon="8.61912"><ele>259.0</ele><time>2026-04-20T10:09:37.795Z</time></trkpt><trkpt lat="40.0775433" lon="8.619175"><ele>257.3333333333333</ele><time>2026-04-20T10:09:38.796Z</time></trkpt><trkpt lat="40.077355" lon="8.6192417"><ele>255.66666666666669</ele><time>2026-04-20T10:09:39.795Z</time></trkpt><trkpt lat="40.0771783" lon="8.6192983"><ele>254.0</ele><time>2026-04-20T10:09:40.795Z</time></trkpt><trkpt lat="40.0770033" lon="8.6193483"><ele>254.0</ele><time>2026-04-20T10:09:41.795Z</time></trkpt><trkpt lat="40.0768433" lon="8.6194033"><ele>254.0</ele><time>2026-04-20T10:09:42.795Z</time></trkpt><trkpt lat="40.0766767" lon="8.61944"><ele>254.0</ele><time>2026-04-20T10:09:43.795Z</time></trkpt><trkpt lat="40.0764917" lon="8.619465"><ele>252.66666666666669</ele><time>2026-04-20T10:09:44.795Z</time></trkpt><trkpt lat="40.0763083" lon="8.619465"><ele>251.33333333333331</ele><time>2026-04-20T10:09:45.795Z</time></trkpt><trkpt lat="40.0761433" lon="8.619445"><ele>250.0</ele><time>2026-04-20T10:09:46.795Z</time></trkpt><trkpt lat="40.07598" lon="8.6194133"><ele>250.0</ele><time>2026-04-20T10:09:47.795Z</time></trkpt><trkpt lat="40.0758267" lon="8.61938"><ele>250.0</ele><time>2026-04-20T10:09:48.795Z</time></trkpt><trkpt lat="40.0756817" lon="8.6193417"><ele>250.0</ele><time>2026-04-20T10:09:49.795Z</time></trkpt><trkpt lat="40.0755533" lon="8.6193067"><ele>250.0</ele><time>2026-04-20T10:09:50.795Z</time></trkpt><trkpt lat="40.07543" lon="8.6192717"><ele>249.0</ele><time>2026-04-20T10:09:51.795Z</time></trkpt><trkpt lat="40.075305" lon="8.6192383"><ele>248.0</ele><time>2026-04-20T10:09:52.795Z</time></trkpt><trkpt lat="40.0751683" lon="8.6192017"><ele>247.0</ele><time>2026-04-20T10:09:53.795Z</time></trkpt><trkpt lat="40.0748783" lon="8.6191667"><ele>246.6</ele><time>2026-04-20T10:09:55.795Z</time></trkpt><trkpt lat="40.074755" lon="8.61917"><ele>246.2</ele><time>2026-04-20T10:09:56.795Z</time></trkpt><trkpt lat="40.07465" lon="8.619175"><ele>245.8</ele><time>2026-04-20T10:09:57.795Z</time></trkpt><trkpt lat="40.074545" lon="8.619175"><ele>245.4</ele><time>2026-04-20T10:09:58.796Z</time></trkpt><trkpt lat="40.0744317" lon="8.61916"><ele>245.0</ele><time>2026-04-20T10:09:59.795Z</time></trkpt><trkpt lat="40.0743217" lon="8.6191383"><ele>245.00000000000003</ele><time>2026-04-20T10:10:00.795Z</time></trkpt><trkpt lat="40.074225" lon="8.619115"><ele>245.0</ele><time>2026-04-20T10:10:01.796Z</time></trkpt><trkpt lat="40.0741333" lon="8.6190917"><ele>245.0</ele><time>2026-04-20T10:10:02.795Z</time></trkpt><trkpt lat="40.07405" lon="8.6190717"><ele>245.0</ele><time>2026-04-20T10:10:03.795Z</time></trkpt><trkpt lat="40.0739717" lon="8.6190467"><ele>245.00000000000003</ele><time>2026-04-20T10:10:04.795Z</time></trkpt><trkpt lat="40.073895" lon="8.6190267"><ele>245.0</ele><time>2026-04-20T10:10:05.796Z</time></trkpt><trkpt lat="40.07382" lon="8.619005"><ele>244.83333333333334</ele><time>2026-04-20T10:10:06.795Z</time></trkpt><trkpt lat="40.0737433" lon="8.61899"><ele>244.66666666666669</ele><time>2026-04-20T10:10:07.795Z</time></trkpt><trkpt lat="40.0736683" lon="8.6189667"><ele>244.5</ele><time>2026-04-20T10:10:08.795Z</time></trkpt><trkpt lat="40.07359" lon="8.6189467"><ele>244.33333333333331</ele><time>2026-04-20T10:10:09.796Z</time></trkpt><trkpt lat="40.0735167" lon="8.618925"><ele>244.16666666666666</ele><time>2026-04-20T10:10:10.795Z</time></trkpt><trkpt lat="40.0734383" lon="8.6189033"><ele>244.0</ele><time>2026-04-20T10:10:11.795Z</time></trkpt><trkpt lat="40.0733533" lon="8.6188817"><ele>244.0</ele><time>2026-04-20T10:10:12.795Z</time></trkpt><trkpt lat="40.0732817" lon="8.6188417"><ele>244.0</ele><time>2026-04-20T10:10:13.795Z</time></trkpt><trkpt lat="40.073225" lon="8.6188"><ele>244.0</ele><time>2026-04-20T10:10:14.795Z</time></trkpt><trkpt lat="40.0730233" lon="8.618715"><ele>244.0</ele><time>2026-04-20T10:10:18.795Z</time></trkpt><trkpt lat="40.0729017" lon="8.618675"><ele>244.33333333333331</ele><time>2026-04-20T10:10:20.795Z</time></trkpt><trkpt lat="40.0727817" lon="8.6186433"><ele>244.66666666666666</ele><time>2026-04-20T10:10:22.795Z</time></trkpt><trkpt lat="40.07271" lon="8.6186333"><ele>245.0</ele><time>2026-04-20T10:10:23.795Z</time></trkpt><trkpt lat="40.07264" lon="8.6186217"><ele>245.33333333333331</ele><time>2026-04-20T10:10:24.796Z</time></trkpt><trkpt lat="40.07257" lon="8.6185917"><ele>245.66666666666666</ele><time>2026-04-20T10:10:25.795Z</time></trkpt><trkpt lat="40.0725083" lon="8.61855"><ele>246.0</ele><time>2026-04-20T10:10:26.795Z</time></trkpt><trkpt lat="40.07245" lon="8.6185083"><ele>245.8571428571429</ele><time>2026-04-20T10:10:27.795Z</time></trkpt><trkpt lat="40.072395" lon="8.6184667"><ele>245.71428571428572</ele><time>2026-04-20T10:10:28.795Z</time></trkpt><trkpt lat="40.0723367" lon="8.6184317"><ele>245.57142857142858</ele><time>2026-04-20T10:10:29.796Z</time></trkpt><trkpt lat="40.072275" lon="8.6184"><ele>245.42857142857144</ele><time>2026-04-20T10:10:30.795Z</time></trkpt><trkpt lat="40.0722067" lon="8.6183683"><ele>245.28571428571428</ele><time>2026-04-20T10:10:31.795Z</time></trkpt><trkpt lat="40.0721283" lon="8.61834"><ele>245.14285714285714</ele><time>2026-04-20T10:10:32.795Z</time></trkpt><trkpt lat="40.072045" lon="8.618305"><ele>245.0</ele><time>2026-04-20T10:10:33.795Z</time></trkpt><trkpt lat="40.0719617" lon="8.618265"><ele>245.0</ele><time>2026-04-20T10:10:34.795Z</time></trkpt><trkpt lat="40.0718767" lon="8.61822"><ele>245.0</ele><time>2026-04-20T10:10:35.795Z</time></trkpt><trkpt lat="40.0717017" lon="8.618145"><ele>245.0</ele><time>2026-04-20T10:10:37.795Z</time></trkpt><trkpt lat="40.07161" lon="8.6180967"><ele>245.0</ele><time>2026-04-20T10:10:38.796Z</time></trkpt><trkpt lat="40.07151" lon="8.6180417"><ele>244.25</ele><time>2026-04-20T10:10:39.795Z</time></trkpt><trkpt lat="40.071405" lon="8.6179883"><ele>243.5</ele><time>2026-04-20T10:10:40.795Z</time></trkpt><trkpt lat="40.0712883" lon="8.6179317"><ele>242.75</ele><time>2026-04-20T10:10:41.795Z</time></trkpt><trkpt lat="40.0711717" lon="8.6178817"><ele>242.0</ele><time>2026-04-20T10:10:42.796Z</time></trkpt><trkpt lat="40.07107" lon="8.61784"><ele>242.16666666666669</ele><time>2026-04-20T10:10:43.795Z</time></trkpt><trkpt lat="40.0709833" lon="8.6178"><ele>242.33333333333334</ele><time>2026-04-20T10:10:44.795Z</time></trkpt><trkpt lat="40.0709167" lon="8.61777"><ele>242.5</ele><time>2026-04-20T10:10:45.795Z</time></trkpt><trkpt lat="40.0708433" lon="8.6177667"><ele>242.66666666666669</ele><time>2026-04-20T10:10:46.795Z</time></trkpt><trkpt lat="40.07078" lon="8.6178017"><ele>242.83333333333334</ele><time>2026-04-20T10:10:47.795Z</time></trkpt><trkpt lat="40.070725" lon="8.6178533"><ele>243.0</ele><time>2026-04-20T10:10:48.795Z</time></trkpt><trkpt lat="40.0706333" lon="8.6179217"><ele>243.0</ele><time>2026-04-20T10:10:50.795Z</time></trkpt><trkpt lat="40.07057" lon="8.6179033"><ele>243.0</ele><time>2026-04-20T10:10:51.795Z</time></trkpt><trkpt lat="40.0704917" lon="8.6178783"><ele>243.0</ele><time>2026-04-20T10:10:52.795Z</time></trkpt><trkpt lat="40.0704217" lon="8.6178667"><ele>243.0</ele><time>2026-04-20T10:10:53.796Z</time></trkpt><trkpt lat="40.07036" lon="8.617845"><ele>243.0</ele><time>2026-04-20T10:10:54.795Z</time></trkpt><trkpt lat="40.0702767" lon="8.6177317"><ele>243.0</ele><time>2026-04-20T10:10:56.796Z</time></trkpt><trkpt lat="40.0702567" lon="8.61749"><ele>243.0</ele><time>2026-04-20T10:10:58.796Z</time></trkpt><trkpt lat="40.0702417" lon="8.6173733"><ele>243.0</ele><time>2026-04-20T10:10:59.795Z</time></trkpt><trkpt lat="40.0702167" lon="8.6172733"><ele>243.0</ele><time>2026-04-20T10:11:00.795Z</time></trkpt><trkpt lat="40.0701883" lon="8.617185"><ele>243.0</ele><time>2026-04-20T10:11:01.795Z</time></trkpt><trkpt lat="40.070175" lon="8.61708"><ele>243.0</ele><time>2026-04-20T10:11:02.795Z</time></trkpt><trkpt lat="40.0701633" lon="8.6169783"><ele>243.0</ele><time>2026-04-20T10:11:03.795Z</time></trkpt><trkpt lat="40.070145" lon="8.6168917"><ele>243.0</ele><time>2026-04-20T10:11:04.795Z</time></trkpt><trkpt lat="40.0701083" lon="8.6168083"><ele>243.0</ele><time>2026-04-20T10:11:05.795Z</time></trkpt><trkpt lat="40.0700633" lon="8.6167433"><ele>243.0</ele><time>2026-04-20T10:11:06.795Z</time></trkpt><trkpt lat="40.0700333" lon="8.6166667"><ele>243.0</ele><time>2026-04-20T10:11:07.795Z</time></trkpt><trkpt lat="40.0700083" lon="8.6165867"><ele>243.0</ele><time>2026-04-20T10:11:08.796Z</time></trkpt><trkpt lat="40.0699783" lon="8.616445"><ele>243.0</ele><time>2026-04-20T10:11:10.795Z</time></trkpt><trkpt lat="40.0699267" lon="8.6163067"><ele>242.5</ele><time>2026-04-20T10:11:12.795Z</time></trkpt><trkpt lat="40.069885" lon="8.616245"><ele>242.0</ele><time>2026-04-20T10:11:13.795Z</time></trkpt><trkpt lat="40.0698367" lon="8.6161733"><ele>241.5</ele><time>2026-04-20T10:11:14.796Z</time></trkpt><trkpt lat="40.069795" lon="8.616095"><ele>241.0</ele><time>2026-04-20T10:11:15.795Z</time></trkpt><trkpt lat="40.0697517" lon="8.616015"><ele>240.5</ele><time>2026-04-20T10:11:16.795Z</time></trkpt><trkpt lat="40.0697183" lon="8.6159233"><ele>240.0</ele><time>2026-04-20T10:11:17.795Z</time></trkpt><trkpt lat="40.0696517" lon="8.615755"><ele>239.0</ele><time>2026-04-20T10:11:19.795Z</time></trkpt><trkpt lat="40.0696133" lon="8.6156883"><ele>238.0</ele><time>2026-04-20T10:11:20.795Z</time></trkpt><trkpt lat="40.0695167" lon="8.6155667"><ele>237.0</ele><time>2026-04-20T10:11:22.795Z</time></trkpt><trkpt lat="40.06946" lon="8.61551"><ele>236.0</ele><time>2026-04-20T10:11:23.795Z</time></trkpt><trkpt lat="40.0693983" lon="8.6154617"><ele>235.0</ele><time>2026-04-20T10:11:24.795Z</time></trkpt><trkpt lat="40.0693067" lon="8.6153733"><ele>234.66666666666666</ele><time>2026-04-20T10:11:26.796Z</time></trkpt><trkpt lat="40.0691983" lon="8.6152917"><ele>234.33333333333331</ele><time>2026-04-20T10:11:28.795Z</time></trkpt><trkpt lat="40.0691367" lon="8.615245"><ele>234.0</ele><time>2026-04-20T10:11:29.796Z</time></trkpt><trkpt lat="40.06908" lon="8.6151867"><ele>233.66666666666669</ele><time>2026-04-20T10:11:30.795Z</time></trkpt><trkpt lat="40.0690233" lon="8.6151283"><ele>233.33333333333334</ele><time>2026-04-20T10:11:31.795Z</time></trkpt><trkpt lat="40.0689783" lon="8.6150683"><ele>233.0</ele><time>2026-04-20T10:11:32.795Z</time></trkpt><trkpt lat="40.0689267" lon="8.61502"><ele>232.33333333333334</ele><time>2026-04-20T10:11:33.795Z</time></trkpt><trkpt lat="40.0688567" lon="8.6149917"><ele>231.66666666666669</ele><time>2026-04-20T10:11:34.795Z</time></trkpt><trkpt lat="40.0687767" lon="8.6149767"><ele>231.0</ele><time>2026-04-20T10:11:35.795Z</time></trkpt><trkpt lat="40.0686917" lon="8.61497"><ele>230.33333333333331</ele><time>2026-04-20T10:11:36.795Z</time></trkpt><trkpt lat="40.068595" lon="8.614965"><ele>229.66666666666666</ele><time>2026-04-20T10:11:37.795Z</time></trkpt><trkpt lat="40.06849" lon="8.6149617"><ele>229.0</ele><time>2026-04-20T10:11:38.795Z</time></trkpt><trkpt lat="40.0683267" lon="8.6149533"><ele>228.49999999999997</ele><time>2026-04-20T10:11:40.795Z</time></trkpt><trkpt lat="40.06825" lon="8.6149367"><ele>228.0</ele><time>2026-04-20T10:11:41.795Z</time></trkpt><trkpt lat="40.06818" lon="8.6149067"><ele>227.5</ele><time>2026-04-20T10:11:42.795Z</time></trkpt><trkpt lat="40.06808" lon="8.6148217"><ele>227.0</ele><time>2026-04-20T10:11:44.795Z</time></trkpt><trkpt lat="40.0680283" lon="8.6147567"><ele>226.49999999999997</ele><time>2026-04-20T10:11:45.795Z</time></trkpt><trkpt lat="40.0679733" lon="8.6146733"><ele>226.0</ele><time>2026-04-20T10:11:46.795Z</time></trkpt><trkpt lat="40.0679317" lon="8.6145767"><ele>225.4</ele><time>2026-04-20T10:11:47.795Z</time></trkpt><trkpt lat="40.0678817" lon="8.6144783"><ele>224.8</ele><time>2026-04-20T10:11:48.795Z</time></trkpt><trkpt lat="40.0678233" lon="8.6143833"><ele>224.20000000000002</ele><time>2026-04-20T10:11:49.795Z</time></trkpt><trkpt lat="40.0677617" lon="8.6142983"><ele>223.60000000000002</ele><time>2026-04-20T10:11:50.795Z</time></trkpt><trkpt lat="40.0677017" lon="8.6142067"><ele>223.0</ele><time>2026-04-20T10:11:51.795Z</time></trkpt><trkpt lat="40.06765" lon="8.61412"><ele>222.99999999999997</ele><time>2026-04-20T10:11:52.796Z</time></trkpt><trkpt lat="40.0676" lon="8.6140183"><ele>223.0</ele><time>2026-04-20T10:11:53.795Z</time></trkpt><trkpt lat="40.0675533" lon="8.61393"><ele>223.0</ele><time>2026-04-20T10:11:54.795Z</time></trkpt><trkpt lat="40.06749" lon="8.6138583"><ele>223.0</ele><time>2026-04-20T10:11:55.795Z</time></trkpt><trkpt lat="40.0674167" lon="8.613795"><ele>222.99999999999997</ele><time>2026-04-20T10:11:56.795Z</time></trkpt><trkpt lat="40.0673433" lon="8.6137333"><ele>223.0</ele><time>2026-04-20T10:11:57.795Z</time></trkpt><trkpt lat="40.0672883" lon="8.6136767"><ele>221.0</ele><time>2026-04-20T10:11:58.795Z</time></trkpt><trkpt lat="40.067205" lon="8.61356"><ele>219.0</ele><time>2026-04-20T10:12:00.795Z</time></trkpt><trkpt lat="40.0671933" lon="8.6132633"><ele>217.0</ele><time>2026-04-20T10:12:04.795Z</time></trkpt><trkpt lat="40.0671733" lon="8.6131383"><ele>215.0</ele><time>2026-04-20T10:12:06.795Z</time></trkpt><trkpt lat="40.067125" lon="8.6129933"><ele>215.0</ele><time>2026-04-20T10:12:08.795Z</time></trkpt><trkpt lat="40.0671" lon="8.6129033"><ele>215.0</ele><time>2026-04-20T10:12:09.795Z</time></trkpt><trkpt lat="40.0670867" lon="8.6128083"><ele>215.0</ele><time>2026-04-20T10:12:10.795Z</time></trkpt><trkpt lat="40.0670867" lon="8.6127233"><ele>215.0</ele><time>2026-04-20T10:12:11.795Z</time></trkpt><trkpt lat="40.0671" lon="8.6126233"><ele>215.0</ele><time>2026-04-20T10:12:12.795Z</time></trkpt><trkpt lat="40.0671167" lon="8.6125317"><ele>215.0</ele><time>2026-04-20T10:12:13.795Z</time></trkpt><trkpt lat="40.067125" lon="8.612435"><ele>215.0</ele><time>2026-04-20T10:12:14.796Z</time></trkpt><trkpt lat="40.06712" lon="8.6123467"><ele>214.6</ele><time>2026-04-20T10:12:15.795Z</time></trkpt><trkpt lat="40.0670817" lon="8.61227"><ele>214.2</ele><time>2026-04-20T10:12:16.795Z</time></trkpt><trkpt lat="40.06699" lon="8.6121717"><ele>213.8</ele><time>2026-04-20T10:12:18.795Z</time></trkpt><trkpt lat="40.0668783" lon="8.6121317"><ele>213.4</ele><time>2026-04-20T10:12:20.795Z</time></trkpt><trkpt lat="40.0668167" lon="8.6121517"><ele>213.0</ele><time>2026-04-20T10:12:21.795Z</time></trkpt><trkpt lat="40.06667" lon="8.6121683"><ele>212.4</ele><time>2026-04-20T10:12:23.795Z</time></trkpt><trkpt lat="40.066585" lon="8.6121483"><ele>211.8</ele><time>2026-04-20T10:12:24.795Z</time></trkpt><trkpt lat="40.0665117" lon="8.6121333"><ele>211.2</ele><time>2026-04-20T10:12:25.795Z</time></trkpt><trkpt lat="40.0664167" lon="8.6120917"><ele>210.6</ele><time>2026-04-20T10:12:27.795Z</time></trkpt><trkpt lat="40.06633" lon="8.6119833"><ele>210.0</ele><time>2026-04-20T10:12:29.795Z</time></trkpt><trkpt lat="40.0662367" lon="8.6118717"><ele>209.5</ele><time>2026-04-20T10:12:31.795Z</time></trkpt><trkpt lat="40.0661617" lon="8.6117767"><ele>209.0</ele><time>2026-04-20T10:12:33.796Z</time></trkpt><trkpt lat="40.0661083" lon="8.6116933"><ele>208.5</ele><time>2026-04-20T10:12:35.795Z</time></trkpt><trkpt lat="40.0660733" lon="8.6116117"><ele>208.0</ele><time>2026-04-20T10:12:37.795Z</time></trkpt><trkpt lat="40.06607" lon="8.611495"><ele>207.5</ele><time>2026-04-20T10:12:40.796Z</time></trkpt><trkpt lat="40.0660767" lon="8.6114033"><ele>207.0</ele><time>2026-04-20T10:12:43.795Z</time></trkpt><trkpt lat="40.066065" lon="8.6112033"><ele>206.2</ele><time>2026-04-20T10:12:53.795Z</time></trkpt><trkpt lat="40.066045" lon="8.6111167"><ele>205.39999999999998</ele><time>2026-04-20T10:12:55.795Z</time></trkpt><trkpt lat="40.0660083" lon="8.6109667"><ele>204.60000000000002</ele><time>2026-04-20T10:12:57.795Z</time></trkpt><trkpt lat="40.065965" lon="8.6108467"><ele>203.8</ele><time>2026-04-20T10:12:59.795Z</time></trkpt><trkpt lat="40.06594" lon="8.6107367"><ele>203.0</ele><time>2026-04-20T10:13:01.795Z</time></trkpt><trkpt lat="40.0658717" lon="8.610655"><ele>202.60000000000002</ele><time>2026-04-20T10:13:03.795Z</time></trkpt><trkpt lat="40.0656917" lon="8.610585"><ele>202.20000000000002</ele><time>2026-04-20T10:13:07.795Z</time></trkpt><trkpt lat="40.0656217" lon="8.61055"><ele>201.8</ele><time>2026-04-20T10:13:08.795Z</time></trkpt><trkpt lat="40.0655617" lon="8.6105233"><ele>201.4</ele><time>2026-04-20T10:13:09.795Z</time></trkpt><trkpt lat="40.0654533" lon="8.6104883"><ele>201.0</ele><time>2026-04-20T10:13:11.795Z</time></trkpt><trkpt lat="40.0653883" lon="8.6104917"><ele>201.0</ele><time>2026-04-20T10:13:12.795Z</time></trkpt><trkpt lat="40.0653233" lon="8.61052"><ele>201.0</ele><time>2026-04-20T10:13:13.795Z</time></trkpt><trkpt lat="40.0652067" lon="8.6105683"><ele>201.0</ele><time>2026-04-20T10:13:15.795Z</time></trkpt><trkpt lat="40.0651367" lon="8.6105667"><ele>201.0</ele><time>2026-04-20T10:13:16.795Z</time></trkpt><trkpt lat="40.0650667" lon="8.6105567"><ele>201.0</ele><time>2026-04-20T10:13:17.795Z</time></trkpt><trkpt lat="40.0649933" lon="8.61053"><ele>201.0</ele><time>2026-04-20T10:13:18.795Z</time></trkpt><trkpt lat="40.0649217" lon="8.6105"><ele>200.33333333333334</ele><time>2026-04-20T10:13:19.795Z</time></trkpt><trkpt lat="40.0648617" lon="8.610465"><ele>199.66666666666669</ele><time>2026-04-20T10:13:20.795Z</time></trkpt><trkpt lat="40.064795" lon="8.61044"><ele>199.0</ele><time>2026-04-20T10:13:21.795Z</time></trkpt><trkpt lat="40.0647233" lon="8.61042"><ele>198.33333333333334</ele><time>2026-04-20T10:13:22.795Z</time></trkpt><trkpt lat="40.0646483" lon="8.6104033"><ele>197.66666666666669</ele><time>2026-04-20T10:13:23.795Z</time></trkpt><trkpt lat="40.0645667" lon="8.6103933"><ele>197.0</ele><time>2026-04-20T10:13:24.795Z</time></trkpt><trkpt lat="40.064425" lon="8.6103433"><ele>196.8</ele><time>2026-04-20T10:13:26.795Z</time></trkpt><trkpt lat="40.06436" lon="8.6103217"><ele>196.6</ele><time>2026-04-20T10:13:27.795Z</time></trkpt><trkpt lat="40.0642717" lon="8.61029"><ele>196.4</ele><time>2026-04-20T10:13:29.795Z</time></trkpt><trkpt lat="40.0643367" lon="8.6102317"><ele>196.20000000000002</ele><time>2026-04-20T10:13:39.795Z</time></trkpt><trkpt lat="40.064345" lon="8.610145"><ele>196.0</ele><time>2026-04-20T10:13:52.795Z</time></trkpt><trkpt lat="40.0643367" lon="8.6098833"><ele>196.0</ele><time>2026-04-20T10:13:55.795Z</time></trkpt><trkpt lat="40.064345" lon="8.60976"><ele>196.0</ele><time>2026-04-20T10:13:57.795Z</time></trkpt><trkpt lat="40.06438" lon="8.609685"><ele>196.0</ele><time>2026-04-20T10:13:59.795Z</time></trkpt><trkpt lat="40.06438" lon="8.609565"><ele>196.0</ele><time>2026-04-20T10:14:02.796Z</time></trkpt><trkpt lat="40.0642817" lon="8.6094617"><ele>196.0</ele><time>2026-04-20T10:14:04.795Z</time></trkpt><trkpt lat="40.0642033" lon="8.6093417"><ele>195.33333333333331</ele><time>2026-04-20T10:14:06.795Z</time></trkpt><trkpt lat="40.064165" lon="8.6092683"><ele>194.66666666666666</ele><time>2026-04-20T10:14:07.795Z</time></trkpt><trkpt lat="40.0641217" lon="8.609195"><ele>194.0</ele><time>2026-04-20T10:14:08.795Z</time></trkpt><trkpt lat="40.0640817" lon="8.6091183"><ele>193.33333333333331</ele><time>2026-04-20T10:14:09.795Z</time></trkpt><trkpt lat="40.0640417" lon="8.6090317"><ele>192.66666666666666</ele><time>2026-04-20T10:14:10.796Z</time></trkpt><trkpt lat="40.064" lon="8.6089383"><ele>192.0</ele><time>2026-04-20T10:14:11.795Z</time></trkpt><trkpt lat="40.0639533" lon="8.6088433"><ele>190.6</ele><time>2026-04-20T10:14:12.795Z</time></trkpt><trkpt lat="40.0638983" lon="8.6087517"><ele>189.2</ele><time>2026-04-20T10:14:13.795Z</time></trkpt><trkpt lat="40.0638017" lon="8.60858"><ele>187.8</ele><time>2026-04-20T10:14:15.795Z</time></trkpt><trkpt lat="40.0637467" lon="8.6085"><ele>186.4</ele><time>2026-04-20T10:14:16.795Z</time></trkpt><trkpt lat="40.0636917" lon="8.608425"><ele>185.0</ele><time>2026-04-20T10:14:17.795Z</time></trkpt><trkpt lat="40.06365" lon="8.608355"><ele>184.66666666666666</ele><time>2026-04-20T10:14:18.796Z</time></trkpt><trkpt lat="40.0635583" lon="8.6082417"><ele>184.33333333333331</ele><time>2026-04-20T10:14:20.795Z</time></trkpt><trkpt lat="40.0635133" lon="8.6081833"><ele>184.0</ele><time>2026-04-20T10:14:21.796Z</time></trkpt><trkpt lat="40.063465" lon="8.6081167"><ele>183.66666666666666</ele><time>2026-04-20T10:14:22.796Z</time></trkpt><trkpt lat="40.0634233" lon="8.6080517"><ele>183.33333333333334</ele><time>2026-04-20T10:14:23.796Z</time></trkpt><trkpt lat="40.0633367" lon="8.6079617"><ele>183.0</ele><time>2026-04-20T10:14:25.795Z</time></trkpt><trkpt lat="40.0632417" lon="8.6079283"><ele>181.8</ele><time>2026-04-20T10:14:27.795Z</time></trkpt><trkpt lat="40.06314" lon="8.60787"><ele>180.60000000000002</ele><time>2026-04-20T10:14:29.796Z</time></trkpt><trkpt lat="40.0630483" lon="8.6077983"><ele>179.39999999999998</ele><time>2026-04-20T10:14:31.795Z</time></trkpt><trkpt lat="40.063005" lon="8.60773"><ele>178.2</ele><time>2026-04-20T10:14:32.795Z</time></trkpt><trkpt lat="40.062955" lon="8.607655"><ele>177.0</ele><time>2026-04-20T10:14:33.795Z</time></trkpt><trkpt lat="40.0628933" lon="8.607565"><ele>177.0</ele><time>2026-04-20T10:14:34.795Z</time></trkpt><trkpt lat="40.0627683" lon="8.6074133"><ele>177.0</ele><time>2026-04-20T10:14:36.795Z</time></trkpt><trkpt lat="40.06271" lon="8.60735"><ele>177.0</ele><time>2026-04-20T10:14:37.795Z</time></trkpt><trkpt lat="40.062655" lon="8.60729"><ele>177.0</ele><time>2026-04-20T10:14:38.795Z</time></trkpt><trkpt lat="40.0625933" lon="8.6072183"><ele>177.0</ele><time>2026-04-20T10:14:40.795Z</time></trkpt><trkpt lat="40.06253" lon="8.60712"><ele>176.5</ele><time>2026-04-20T10:15:12.795Z</time></trkpt><trkpt lat="40.06251" lon="8.6068567"><ele>176.0</ele><time>2026-04-20T10:15:16.795Z</time></trkpt><trkpt lat="40.0625433" lon="8.6067283"><ele>175.5</ele><time>2026-04-20T10:15:18.795Z</time></trkpt><trkpt lat="40.0625233" lon="8.6066067"><ele>175.0</ele><time>2026-04-20T10:15:20.795Z</time></trkpt><trkpt lat="40.0624833" lon="8.60652"><ele>173.8</ele><time>2026-04-20T10:15:21.796Z</time></trkpt><trkpt lat="40.0624333" lon="8.6064233"><ele>172.6</ele><time>2026-04-20T10:15:22.795Z</time></trkpt><trkpt lat="40.0623767" lon="8.6063133"><ele>171.39999999999998</ele><time>2026-04-20T10:15:23.795Z</time></trkpt><trkpt lat="40.0623217" lon="8.6062067"><ele>170.2</ele><time>2026-04-20T10:15:24.795Z</time></trkpt><trkpt lat="40.0622717" lon="8.6060983"><ele>169.0</ele><time>2026-04-20T10:15:25.795Z</time></trkpt><trkpt lat="40.0622217" lon="8.6059817"><ele>168.2</ele><time>2026-04-20T10:15:26.795Z</time></trkpt><trkpt lat="40.0621783" lon="8.60586"><ele>167.39999999999998</ele><time>2026-04-20T10:15:27.795Z</time></trkpt><trkpt lat="40.0621417" lon="8.6057567"><ele>166.6</ele><time>2026-04-20T10:15:28.795Z</time></trkpt><trkpt lat="40.062115" lon="8.6056633"><ele>165.8</ele><time>2026-04-20T10:15:29.795Z</time></trkpt><trkpt lat="40.062045" lon="8.6055183"><ele>165.0</ele><time>2026-04-20T10:15:31.795Z</time></trkpt><trkpt lat="40.0619883" lon="8.6054567"><ele>165.0</ele><time>2026-04-20T10:15:32.795Z</time></trkpt><trkpt lat="40.061925" lon="8.605395"><ele>165.0</ele><time>2026-04-20T10:15:33.795Z</time></trkpt><trkpt lat="40.0617783" lon="8.6052817"><ele>165.0</ele><time>2026-04-20T10:15:35.795Z</time></trkpt><trkpt lat="40.0617083" lon="8.605245"><ele>165.0</ele><time>2026-04-20T10:15:36.795Z</time></trkpt><trkpt lat="40.06164" lon="8.6051717"><ele>165.0</ele><time>2026-04-20T10:15:38.796Z</time></trkpt><trkpt lat="40.0615617" lon="8.6051267"><ele>163.5</ele><time>2026-04-20T10:16:16.796Z</time></trkpt><trkpt lat="40.0613983" lon="8.6050633"><ele>162.0</ele><time>2026-04-20T10:16:22.795Z</time></trkpt><trkpt lat="40.06136" lon="8.6049683"><ele>160.5</ele><time>2026-04-20T10:16:24.795Z</time></trkpt><trkpt lat="40.0613383" lon="8.60484"><ele>159.0</ele><time>2026-04-20T10:16:26.795Z</time></trkpt><trkpt lat="40.0613217" lon="8.6047017"><ele>159.0</ele><time>2026-04-20T10:16:28.795Z</time></trkpt><trkpt lat="40.0612783" lon="8.6045667"><ele>159.0</ele><time>2026-04-20T10:16:30.795Z</time></trkpt><trkpt lat="40.0612383" lon="8.6045"><ele>159.0</ele><time>2026-04-20T10:16:31.796Z</time></trkpt><trkpt lat="40.0611767" lon="8.6044367"><ele>159.0</ele><time>2026-04-20T10:16:32.795Z</time></trkpt><trkpt lat="40.06111" lon="8.6043667"><ele>159.0</ele><time>2026-04-20T10:16:33.795Z</time></trkpt><trkpt lat="40.06104" lon="8.6042867"><ele>159.0</ele><time>2026-04-20T10:16:34.795Z</time></trkpt><trkpt lat="40.060965" lon="8.6042083"><ele>158.4</ele><time>2026-04-20T10:16:35.795Z</time></trkpt><trkpt lat="40.0609067" lon="8.6041283"><ele>157.8</ele><time>2026-04-20T10:16:36.795Z</time></trkpt><trkpt lat="40.0608483" lon="8.6040417"><ele>157.2</ele><time>2026-04-20T10:16:37.795Z</time></trkpt><trkpt lat="40.06075" lon="8.6038667"><ele>156.6</ele><time>2026-04-20T10:16:39.795Z</time></trkpt><trkpt lat="40.0607017" lon="8.6037983"><ele>156.0</ele><time>2026-04-20T10:16:40.795Z</time></trkpt><trkpt lat="40.0606517" lon="8.6037267"><ele>154.8</ele><time>2026-04-20T10:16:41.795Z</time></trkpt><trkpt lat="40.0606167" lon="8.6036433"><ele>153.6</ele><time>2026-04-20T10:16:42.795Z</time></trkpt><trkpt lat="40.0605617" lon="8.6035083"><ele>152.4</ele><time>2026-04-20T10:16:44.795Z</time></trkpt><trkpt lat="40.0605033" lon="8.6033683"><ele>151.2</ele><time>2026-04-20T10:16:46.795Z</time></trkpt><trkpt lat="40.06048" lon="8.603235"><ele>150.0</ele><time>2026-04-20T10:16:48.795Z</time></trkpt><trkpt lat="40.060505" lon="8.6030833"><ele>150.0</ele><time>2026-04-20T10:16:50.795Z</time></trkpt><trkpt lat="40.0605383" lon="8.6030117"><ele>150.0</ele><time>2026-04-20T10:16:51.795Z</time></trkpt><trkpt lat="40.0605817" lon="8.602945"><ele>150.0</ele><time>2026-04-20T10:16:52.795Z</time></trkpt><trkpt lat="40.0606767" lon="8.6028633"><ele>150.0</ele><time>2026-04-20T10:16:54.795Z</time></trkpt><trkpt lat="40.0607667" lon="8.602785"><ele>150.0</ele><time>2026-04-20T10:16:56.795Z</time></trkpt><trkpt lat="40.0608383" lon="8.6026483"><ele>149.6</ele><time>2026-04-20T10:16:58.795Z</time></trkpt><trkpt lat="40.0609233" lon="8.6024783"><ele>149.2</ele><time>2026-04-20T10:17:00.794Z</time></trkpt><trkpt lat="40.0609567" lon="8.6023933"><ele>148.8</ele><time>2026-04-20T10:17:01.794Z</time></trkpt><trkpt lat="40.060985" lon="8.6022883"><ele>148.4</ele><time>2026-04-20T10:17:02.794Z</time></trkpt><trkpt lat="40.061015" lon="8.6021867"><ele>148.0</ele><time>2026-04-20T10:17:03.794Z</time></trkpt><trkpt lat="40.0610417" lon="8.602085"><ele>147.66666666666669</ele><time>2026-04-20T10:17:04.794Z</time></trkpt><trkpt lat="40.0610567" lon="8.6019967"><ele>147.33333333333334</ele><time>2026-04-20T10:17:05.795Z</time></trkpt><trkpt lat="40.0610617" lon="8.6018917"><ele>147.0</ele><time>2026-04-20T10:17:06.794Z</time></trkpt><trkpt lat="40.061055" lon="8.6017817"><ele>146.66666666666666</ele><time>2026-04-20T10:17:07.794Z</time></trkpt><trkpt lat="40.061045" lon="8.6016583"><ele>146.33333333333331</ele><time>2026-04-20T10:17:08.795Z</time></trkpt><trkpt lat="40.061035" lon="8.601545"><ele>146.0</ele><time>2026-04-20T10:17:09.794Z</time></trkpt><trkpt lat="40.0610283" lon="8.6014533"><ele>146.0</ele><time>2026-04-20T10:17:10.794Z</time></trkpt><trkpt lat="40.06105" lon="8.6013033"><ele>146.0</ele><time>2026-04-20T10:17:12.794Z</time></trkpt><trkpt lat="40.06107" lon="8.601185"><ele>146.0</ele><time>2026-04-20T10:17:14.794Z</time></trkpt><trkpt lat="40.0610267" lon="8.6010683"><ele>146.0</ele><time>2026-04-20T10:17:16.795Z</time></trkpt><trkpt lat="40.060995" lon="8.600995"><ele>146.0</ele><time>2026-04-20T10:17:17.794Z</time></trkpt><trkpt lat="40.0609583" lon="8.6009183"><ele>146.0</ele><time>2026-04-20T10:17:18.794Z</time></trkpt><trkpt lat="40.0609267" lon="8.60083"><ele>146.0</ele><time>2026-04-20T10:17:19.794Z</time></trkpt><trkpt lat="40.0608667" lon="8.6006533"><ele>146.0</ele><time>2026-04-20T10:17:21.794Z</time></trkpt><trkpt lat="40.0608283" lon="8.6005767"><ele>146.0</ele><time>2026-04-20T10:17:22.794Z</time></trkpt><trkpt lat="40.060785" lon="8.6005017"><ele>146.0</ele><time>2026-04-20T10:17:23.794Z</time></trkpt><trkpt lat="40.0607467" lon="8.6004283"><ele>146.0</ele><time>2026-04-20T10:17:24.794Z</time></trkpt><trkpt lat="40.0607033" lon="8.6003567"><ele>146.0</ele><time>2026-04-20T10:17:25.795Z</time></trkpt><trkpt lat="40.0606583" lon="8.600275"><ele>145.16666666666666</ele><time>2026-04-20T10:17:26.794Z</time></trkpt><trkpt lat="40.06056" lon="8.600165"><ele>144.33333333333331</ele><time>2026-04-20T10:17:28.794Z</time></trkpt><trkpt lat="40.0604983" lon="8.6001417"><ele>143.5</ele><time>2026-04-20T10:17:29.794Z</time></trkpt><trkpt lat="40.0604283" lon="8.600145"><ele>142.66666666666666</ele><time>2026-04-20T10:17:30.794Z</time></trkpt><trkpt lat="40.0603517" lon="8.600155"><ele>141.83333333333334</ele><time>2026-04-20T10:17:31.794Z</time></trkpt><trkpt lat="40.0602783" lon="8.60017"><ele>141.0</ele><time>2026-04-20T10:17:32.794Z</time></trkpt><trkpt lat="40.0602067" lon="8.6001867"><ele>141.0</ele><time>2026-04-20T10:17:33.794Z</time></trkpt><trkpt lat="40.060135" lon="8.6001967"><ele>141.0</ele><time>2026-04-20T10:17:34.795Z</time></trkpt><trkpt lat="40.060055" lon="8.600195"><ele>141.0</ele><time>2026-04-20T10:17:35.794Z</time></trkpt><trkpt lat="40.0599617" lon="8.6001833"><ele>141.0</ele><time>2026-04-20T10:17:36.794Z</time></trkpt><trkpt lat="40.0598583" lon="8.6001683"><ele>141.0</ele><time>2026-04-20T10:17:37.794Z</time></trkpt><trkpt lat="40.059755" lon="8.6001467"><ele>140.25</ele><time>2026-04-20T10:17:38.794Z</time></trkpt><trkpt lat="40.0596467" lon="8.60013"><ele>139.5</ele><time>2026-04-20T10:17:39.794Z</time></trkpt><trkpt lat="40.059535" lon="8.6001117"><ele>138.75</ele><time>2026-04-20T10:17:40.795Z</time></trkpt><trkpt lat="40.0593267" lon="8.6000683"><ele>138.0</ele><time>2026-04-20T10:17:42.794Z</time></trkpt><trkpt lat="40.0592167" lon="8.600055"><ele>136.5</ele><time>2026-04-20T10:17:43.795Z</time></trkpt><trkpt lat="40.0590983" lon="8.600035"><ele>135.0</ele><time>2026-04-20T10:17:44.794Z</time></trkpt><trkpt lat="40.0589733" lon="8.6000167"><ele>133.5</ele><time>2026-04-20T10:17:45.794Z</time></trkpt><trkpt lat="40.0588517" lon="8.6"><ele>132.0</ele><time>2026-04-20T10:17:46.794Z</time></trkpt><trkpt lat="40.058745" lon="8.59998"><ele>132.0</ele><time>2026-04-20T10:17:47.794Z</time></trkpt><trkpt lat="40.0586433" lon="8.5999617"><ele>132.0</ele><time>2026-04-20T10:17:48.794Z</time></trkpt><trkpt lat="40.0585583" lon="8.599945"><ele>132.0</ele><time>2026-04-20T10:17:49.794Z</time></trkpt><trkpt lat="40.0584867" lon="8.5999233"><ele>132.0</ele><time>2026-04-20T10:17:50.795Z</time></trkpt><trkpt lat="40.05842" lon="8.5999133"><ele>132.0</ele><time>2026-04-20T10:17:51.795Z</time></trkpt><trkpt lat="40.0583483" lon="8.5999"><ele>132.0</ele><time>2026-04-20T10:17:53.795Z</time></trkpt><trkpt lat="40.0584583" lon="8.5999333"><ele>132.0</ele><time>2026-04-20T10:18:15.794Z</time></trkpt><trkpt lat="40.0586483" lon="8.59996"><ele>132.0</ele><time>2026-04-20T10:18:18.794Z</time></trkpt><trkpt lat="40.0587133" lon="8.59998"><ele>132.0</ele><time>2026-04-20T10:18:19.794Z</time></trkpt><trkpt lat="40.0587833" lon="8.59999"><ele>132.0</ele><time>2026-04-20T10:18:20.794Z</time></trkpt><trkpt lat="40.0588583" lon="8.600005"><ele>132.0</ele><time>2026-04-20T10:18:21.794Z</time></trkpt><trkpt lat="40.058935" lon="8.600015"><ele>132.0</ele><time>2026-04-20T10:18:22.794Z</time></trkpt><trkpt lat="40.0590117" lon="8.600025"><ele>132.0</ele><time>2026-04-20T10:18:23.794Z</time></trkpt><trkpt lat="40.0590933" lon="8.6000383"><ele>132.0</ele><time>2026-04-20T10:18:24.794Z</time></trkpt><trkpt lat="40.05917" lon="8.60006"><ele>132.0</ele><time>2026-04-20T10:18:25.794Z</time></trkpt><trkpt lat="40.05925" lon="8.6000767"><ele>132.0</ele><time>2026-04-20T10:18:26.794Z</time></trkpt><trkpt lat="40.0593317" lon="8.6000917"><ele>132.0</ele><time>2026-04-20T10:18:27.795Z</time></trkpt><trkpt lat="40.0594133" lon="8.6001083"><ele>133.0</ele><time>2026-04-20T10:18:28.794Z</time></trkpt><trkpt lat="40.059495" lon="8.6001217"><ele>134.0</ele><time>2026-04-20T10:18:29.794Z</time></trkpt><trkpt lat="40.0595767" lon="8.6001433"><ele>135.0</ele><time>2026-04-20T10:18:30.794Z</time></trkpt><trkpt lat="40.0596583" lon="8.600165"><ele>136.0</ele><time>2026-04-20T10:18:31.795Z</time></trkpt><trkpt lat="40.059745" lon="8.6001783"><ele>137.0</ele><time>2026-04-20T10:18:32.794Z</time></trkpt><trkpt lat="40.05984" lon="8.6001917"><ele>138.0</ele><time>2026-04-20T10:18:33.794Z</time></trkpt><trkpt lat="40.0599283" lon="8.6002033"><ele>138.6</ele><time>2026-04-20T10:18:34.794Z</time></trkpt><trkpt lat="40.06001" lon="8.6002117"><ele>139.20000000000002</ele><time>2026-04-20T10:18:35.794Z</time></trkpt><trkpt lat="40.0600967" lon="8.600215"><ele>139.8</ele><time>2026-04-20T10:18:36.794Z</time></trkpt><trkpt lat="40.0602617" lon="8.6001833"><ele>140.4</ele><time>2026-04-20T10:18:38.794Z</time></trkpt><trkpt lat="40.0603367" lon="8.6001667"><ele>141.0</ele><time>2026-04-20T10:18:39.794Z</time></trkpt><trkpt lat="40.0604017" lon="8.6001583"><ele>141.0</ele><time>2026-04-20T10:18:40.794Z</time></trkpt><trkpt lat="40.0604783" lon="8.6001367"><ele>141.0</ele><time>2026-04-20T10:18:42.794Z</time></trkpt><trkpt lat="40.0605167" lon="8.600065"><ele>141.0</ele><time>2026-04-20T10:18:44.794Z</time></trkpt><trkpt lat="40.060515" lon="8.5999767"><ele>141.0</ele><time>2026-04-20T10:18:46.794Z</time></trkpt><trkpt lat="40.060485" lon="8.5998933"><ele>141.0</ele><time>2026-04-20T10:18:48.794Z</time></trkpt><trkpt lat="40.0604367" lon="8.5998017"><ele>141.0</ele><time>2026-04-20T10:18:51.794Z</time></trkpt><trkpt lat="40.06039" lon="8.5997283"><ele>141.0</ele><time>2026-04-20T10:18:53.795Z</time></trkpt><trkpt lat="40.0603383" lon="8.5996417"><ele>141.0</ele><time>2026-04-20T10:18:56.795Z</time></trkpt><trkpt lat="40.0603017" lon="8.5995467"><ele>141.0</ele><time>2026-04-20T10:18:58.794Z</time></trkpt><trkpt lat="40.0601967" lon="8.5993133"><ele>141.0</ele><time>2026-04-20T10:19:02.794Z</time></trkpt><trkpt lat="40.0601583" lon="8.5992067"><ele>141.0</ele><time>2026-04-20T10:19:04.794Z</time></trkpt><trkpt lat="40.0601333" lon="8.5991233"><ele>141.0</ele><time>2026-04-20T10:19:06.794Z</time></trkpt><trkpt lat="40.0601267" lon="8.5990233"><ele>140.83333333333334</ele><time>2026-04-20T10:19:09.795Z</time></trkpt><trkpt lat="40.0601517" lon="8.59891"><ele>140.66666666666666</ele><time>2026-04-20T10:19:12.794Z</time></trkpt><trkpt lat="40.0601233" lon="8.5988267"><ele>140.5</ele><time>2026-04-20T10:19:14.794Z</time></trkpt><trkpt lat="40.06007" lon="8.5987333"><ele>140.33333333333331</ele><time>2026-04-20T10:19:16.794Z</time></trkpt><trkpt lat="40.06002" lon="8.5986283"><ele>140.16666666666666</ele><time>2026-04-20T10:19:18.794Z</time></trkpt><trkpt lat="40.05997" lon="8.59853"><ele>140.0</ele><time>2026-04-20T10:19:20.794Z</time></trkpt><trkpt lat="40.0599267" lon="8.598245"><ele>139.4</ele><time>2026-04-20T10:19:24.794Z</time></trkpt><trkpt lat="40.05992" lon="8.5981567"><ele>138.8</ele><time>2026-04-20T10:19:25.794Z</time></trkpt><trkpt lat="40.0599167" lon="8.5980733"><ele>138.2</ele><time>2026-04-20T10:19:26.794Z</time></trkpt><trkpt lat="40.0599067" lon="8.5979283"><ele>137.6</ele><time>2026-04-20T10:19:28.794Z</time></trkpt><trkpt lat="40.0598583" lon="8.5977867"><ele>137.0</ele><time>2026-04-20T10:19:30.794Z</time></trkpt><trkpt lat="40.05981" lon="8.59764"><ele>137.0</ele><time>2026-04-20T10:19:32.794Z</time></trkpt><trkpt lat="40.0597517" lon="8.5975"><ele>137.0</ele><time>2026-04-20T10:19:34.794Z</time></trkpt><trkpt lat="40.0597117" lon="8.5973733"><ele>137.0</ele><time>2026-04-20T10:19:36.794Z</time></trkpt><trkpt lat="40.0596833" lon="8.597245"><ele>137.0</ele><time>2026-04-20T10:19:38.794Z</time></trkpt><trkpt lat="40.0596417" lon="8.5971133"><ele>137.0</ele><time>2026-04-20T10:19:40.794Z</time></trkpt><trkpt lat="40.0595883" lon="8.5969717"><ele>137.0</ele><time>2026-04-20T10:19:42.794Z</time></trkpt><trkpt lat="40.0595267" lon="8.596695"><ele>137.0</ele><time>2026-04-20T10:19:46.794Z</time></trkpt><trkpt lat="40.05953" lon="8.59657"><ele>137.0</ele><time>2026-04-20T10:19:48.794Z</time></trkpt><trkpt lat="40.05954" lon="8.5964533"><ele>137.0</ele><time>2026-04-20T10:19:50.794Z</time></trkpt><trkpt lat="40.0595117" lon="8.5963667"><ele>137.0</ele><time>2026-04-20T10:19:52.794Z</time></trkpt><trkpt lat="40.0594767" lon="8.5962967"><ele>137.0</ele><time>2026-04-20T10:19:54.795Z</time></trkpt><trkpt lat="40.0594467" lon="8.596215"><ele>137.0</ele><time>2026-04-20T10:19:57.794Z</time></trkpt><trkpt lat="40.0594117" lon="8.59614"><ele>137.0</ele><time>2026-04-20T10:19:59.794Z</time></trkpt><trkpt lat="40.0593733" lon="8.5960467"><ele>137.0</ele><time>2026-04-20T10:20:02.795Z</time></trkpt><trkpt lat="40.0593183" lon="8.595965"><ele>137.0</ele><time>2026-04-20T10:20:06.794Z</time></trkpt><trkpt lat="40.0592017" lon="8.5958117"><ele>136.79999999999998</ele><time>2026-04-20T10:20:12.794Z</time></trkpt><trkpt lat="40.059125" lon="8.5957083"><ele>136.6</ele><time>2026-04-20T10:20:22.794Z</time></trkpt><trkpt lat="40.0590767" lon="8.59564"><ele>136.39999999999998</ele><time>2026-04-20T10:20:25.794Z</time></trkpt><trkpt lat="40.0590267" lon="8.5955883"><ele>136.2</ele><time>2026-04-20T10:20:27.794Z</time></trkpt><trkpt lat="40.058915" lon="8.5954333"><ele>136.0</ele><time>2026-04-20T10:20:32.794Z</time></trkpt><trkpt lat="40.0588767" lon="8.5953667"><ele>135.5</ele><time>2026-04-20T10:20:34.794Z</time></trkpt><trkpt lat="40.05885" lon="8.5952733"><ele>135.0</ele><time>2026-04-20T10:20:37.794Z</time></trkpt><trkpt lat="40.0587617" lon="8.595115"><ele>134.5</ele><time>2026-04-20T10:20:51.794Z</time></trkpt><trkpt lat="40.0587383" lon="8.594905"><ele>134.0</ele><time>2026-04-20T10:20:59.794Z</time></trkpt><trkpt lat="40.05872" lon="8.5948217"><ele>134.0</ele><time>2026-04-20T10:21:03.794Z</time></trkpt><trkpt lat="40.05873" lon="8.5947133"><ele>134.0</ele><time>2026-04-20T10:21:12.794Z</time></trkpt><trkpt lat="40.0587183" lon="8.59454"><ele>134.0</ele><time>2026-04-20T10:21:22.794Z</time></trkpt><trkpt lat="40.0587267" lon="8.5944217"><ele>134.0</ele><time>2026-04-20T10:21:38.794Z</time></trkpt><trkpt lat="40.0587467" lon="8.59423"><ele>134.16666666666666</ele><time>2026-04-20T10:21:49.794Z</time></trkpt><trkpt lat="40.0587633" lon="8.59414"><ele>134.33333333333331</ele><time>2026-04-20T10:21:54.794Z</time></trkpt><trkpt lat="40.05878" lon="8.59406"><ele>134.5</ele><time>2026-04-20T10:21:58.794Z</time></trkpt><trkpt lat="40.0588017" lon="8.59397"><ele>134.66666666666666</ele><time>2026-04-20T10:22:02.794Z</time></trkpt><trkpt lat="40.058815" lon="8.593795"><ele>134.83333333333334</ele><time>2026-04-20T10:22:12.794Z</time></trkpt><trkpt lat="40.0588067" lon="8.5936833"><ele>135.0</ele><time>2026-04-20T10:22:38.794Z</time></trkpt><trkpt lat="40.058795" lon="8.59345"><ele>135.2</ele><time>2026-04-20T10:22:49.794Z</time></trkpt><trkpt lat="40.0588017" lon="8.59335"><ele>135.4</ele><time>2026-04-20T10:22:54.794Z</time></trkpt><trkpt lat="40.0588017" lon="8.5932567"><ele>135.6</ele><time>2026-04-20T10:22:58.795Z</time></trkpt><trkpt lat="40.058795" lon="8.593155"><ele>135.8</ele><time>2026-04-20T10:23:02.795Z</time></trkpt><trkpt lat="40.05874" lon="8.59295"><ele>136.0</ele><time>2026-04-20T10:23:09.794Z</time></trkpt><trkpt lat="40.058705" lon="8.59285"><ele>136.2</ele><time>2026-04-20T10:23:12.795Z</time></trkpt><trkpt lat="40.058665" lon="8.59275"><ele>136.39999999999998</ele><time>2026-04-20T10:23:15.794Z</time></trkpt><trkpt lat="40.0586333" lon="8.59265"><ele>136.6</ele><time>2026-04-20T10:23:18.794Z</time></trkpt><trkpt lat="40.0586217" lon="8.59253"><ele>136.79999999999998</ele><time>2026-04-20T10:23:21.794Z</time></trkpt><trkpt lat="40.0585867" lon="8.5924333"><ele>137.0</ele><time>2026-04-20T10:23:23.794Z</time></trkpt><trkpt lat="40.058505" lon="8.5922567"><ele>137.0</ele><time>2026-04-20T10:23:27.794Z</time></trkpt><trkpt lat="40.0584767" lon="8.59216"><ele>137.0</ele><time>2026-04-20T10:23:30.793Z</time></trkpt><trkpt lat="40.0584733" lon="8.5920533"><ele>137.0</ele><time>2026-04-20T10:23:32.793Z</time></trkpt><trkpt lat="40.0584417" lon="8.5919483"><ele>137.0</ele><time>2026-04-20T10:23:34.793Z</time></trkpt><trkpt lat="40.05842" lon="8.591855"><ele>137.0</ele><time>2026-04-20T10:23:36.794Z</time></trkpt><trkpt lat="40.0584117" lon="8.59173"><ele>137.0</ele><time>2026-04-20T10:23:38.793Z</time></trkpt><trkpt lat="40.0583917" lon="8.5916083"><ele>137.0</ele><time>2026-04-20T10:23:40.793Z</time></trkpt><trkpt lat="40.0583583" lon="8.5915217"><ele>137.0</ele><time>2026-04-20T10:23:42.793Z</time></trkpt><trkpt lat="40.0583117" lon="8.591445"><ele>137.0</ele><time>2026-04-20T10:23:45.793Z</time></trkpt><trkpt lat="40.0582733" lon="8.5912183"><ele>137.0</ele><time>2026-04-20T10:23:51.793Z</time></trkpt><trkpt lat="40.0582367" lon="8.5911217"><ele>137.0</ele><time>2026-04-20T10:23:53.794Z</time></trkpt><trkpt lat="40.05822" lon="8.5910367"><ele>138.0</ele><time>2026-04-20T10:23:55.793Z</time></trkpt><trkpt lat="40.0582117" lon="8.5909433"><ele>139.0</ele><time>2026-04-20T10:23:57.794Z</time></trkpt><trkpt lat="40.058195" lon="8.5908533"><ele>140.0</ele><time>2026-04-20T10:23:59.793Z</time></trkpt><trkpt lat="40.058195" lon="8.59075"><ele>141.0</ele><time>2026-04-20T10:24:01.793Z</time></trkpt><trkpt lat="40.058185" lon="8.5906267"><ele>142.0</ele><time>2026-04-20T10:24:03.794Z</time></trkpt><trkpt lat="40.0581617" lon="8.5905"><ele>143.0</ele><time>2026-04-20T10:24:05.793Z</time></trkpt><trkpt lat="40.0581267" lon="8.5903767"><ele>141.33333333333331</ele><time>2026-04-20T10:24:07.793Z</time></trkpt><trkpt lat="40.05811" lon="8.5901883"><ele>139.66666666666666</ele><time>2026-04-20T10:45:48.788Z</time></trkpt><trkpt lat="40.058025" lon="8.5899217"><ele>138.0</ele><time>2026-04-20T10:45:52.788Z</time></trkpt><trkpt lat="40.05799" lon="8.5898133"><ele>138.0</ele><time>2026-04-20T10:45:54.788Z</time></trkpt><trkpt lat="40.0579767" lon="8.589725"><ele>138.0</ele><time>2026-04-20T10:45:56.788Z</time></trkpt><trkpt lat="40.0579767" lon="8.5896117"><ele>138.0</ele><time>2026-04-20T10:45:58.788Z</time></trkpt><trkpt lat="40.0579667" lon="8.5895183"><ele>138.0</ele><time>2026-04-20T10:46:00.788Z</time></trkpt><trkpt lat="40.0579217" lon="8.5894417"><ele>138.0</ele><time>2026-04-20T10:46:02.788Z</time></trkpt><trkpt lat="40.05787" lon="8.589335"><ele>138.0</ele><time>2026-04-20T10:46:04.788Z</time></trkpt><trkpt lat="40.05786" lon="8.5892183"><ele>136.33333333333334</ele><time>2026-04-20T10:46:06.789Z</time></trkpt><trkpt lat="40.0578667" lon="8.589065"><ele>134.66666666666669</ele><time>2026-04-20T10:46:08.788Z</time></trkpt><trkpt lat="40.0578683" lon="8.5889267"><ele>133.0</ele><time>2026-04-20T10:46:10.787Z</time></trkpt><trkpt lat="40.05786" lon="8.588625"><ele>132.20000000000002</ele><time>2026-04-20T10:46:14.787Z</time></trkpt><trkpt lat="40.0578633" lon="8.5884717"><ele>131.4</ele><time>2026-04-20T10:46:16.787Z</time></trkpt><trkpt lat="40.05786" lon="8.5883867"><ele>130.60000000000002</ele><time>2026-04-20T10:46:17.787Z</time></trkpt><trkpt lat="40.0578533" lon="8.5882367"><ele>129.8</ele><time>2026-04-20T10:46:19.788Z</time></trkpt><trkpt lat="40.0578583" lon="8.5880883"><ele>129.0</ele><time>2026-04-20T10:46:21.787Z</time></trkpt><trkpt lat="40.0578817" lon="8.5879483"><ele>128.4</ele><time>2026-04-20T10:46:23.787Z</time></trkpt><trkpt lat="40.0579267" lon="8.58781"><ele>127.80000000000001</ele><time>2026-04-20T10:46:25.787Z</time></trkpt><trkpt lat="40.05796" lon="8.587665"><ele>127.19999999999999</ele><time>2026-04-20T10:46:27.787Z</time></trkpt><trkpt lat="40.05798" lon="8.5875233"><ele>126.6</ele><time>2026-04-20T10:46:29.787Z</time></trkpt><trkpt lat="40.0579617" lon="8.5874417"><ele>126.0</ele><time>2026-04-20T10:46:30.787Z</time></trkpt><trkpt lat="40.0579167" lon="8.5873383"><ele>126.0</ele><time>2026-04-20T10:46:31.787Z</time></trkpt><trkpt lat="40.057825" lon="8.5871133"><ele>126.0</ele><time>2026-04-20T10:46:33.787Z</time></trkpt><trkpt lat="40.057795" lon="8.58701"><ele>126.0</ele><time>2026-04-20T10:46:34.787Z</time></trkpt><trkpt lat="40.0577667" lon="8.586915"><ele>126.0</ele><time>2026-04-20T10:46:35.787Z</time></trkpt><trkpt lat="40.0577417" lon="8.5868317"><ele>126.0</ele><time>2026-04-20T10:46:36.787Z</time></trkpt><trkpt lat="40.05769" lon="8.5867067"><ele>125.16666666666667</ele><time>2026-04-20T10:46:38.787Z</time></trkpt><trkpt lat="40.0576067" lon="8.5866317"><ele>124.33333333333334</ele><time>2026-04-20T10:46:40.788Z</time></trkpt><trkpt lat="40.057535" lon="8.5865933"><ele>123.5</ele><time>2026-04-20T10:46:42.788Z</time></trkpt><trkpt lat="40.0574667" lon="8.5865583"><ele>122.66666666666667</ele><time>2026-04-20T10:46:44.787Z</time></trkpt><trkpt lat="40.0573817" lon="8.58652"><ele>121.83333333333334</ele><time>2026-04-20T10:46:46.787Z</time></trkpt><trkpt lat="40.0572933" lon="8.5864767"><ele>121.0</ele><time>2026-04-20T10:46:48.787Z</time></trkpt><trkpt lat="40.0572067" lon="8.5864367"><ele>121.0</ele><time>2026-04-20T10:46:50.788Z</time></trkpt><trkpt lat="40.0571117" lon="8.5864067"><ele>121.0</ele><time>2026-04-20T10:46:52.787Z</time></trkpt><trkpt lat="40.056945" lon="8.5863383"><ele>121.0</ele><time>2026-04-20T10:46:56.787Z</time></trkpt><trkpt lat="40.056835" lon="8.5863033"><ele>121.0</ele><time>2026-04-20T10:46:58.787Z</time></trkpt><trkpt lat="40.0567183" lon="8.58626"><ele>121.0</ele><time>2026-04-20T10:47:00.787Z</time></trkpt><trkpt lat="40.0566583" lon="8.586225"><ele>120.99999999999999</ele><time>2026-04-20T10:47:01.787Z</time></trkpt><trkpt lat="40.0565983" lon="8.586175"><ele>121.0</ele><time>2026-04-20T10:47:02.787Z</time></trkpt><trkpt lat="40.0565517" lon="8.5861083"><ele>121.0</ele><time>2026-04-20T10:47:03.788Z</time></trkpt><trkpt lat="40.0565017" lon="8.5860367"><ele>120.99999999999999</ele><time>2026-04-20T10:47:04.787Z</time></trkpt><trkpt lat="40.0564583" lon="8.5859633"><ele>121.0</ele><time>2026-04-20T10:47:05.787Z</time></trkpt><trkpt lat="40.0564133" lon="8.5858633"><ele>121.0</ele><time>2026-04-20T10:47:06.787Z</time></trkpt><trkpt lat="40.0563667" lon="8.5857533"><ele>121.00000000000001</ele><time>2026-04-20T10:47:07.787Z</time></trkpt><trkpt lat="40.0563183" lon="8.5856417"><ele>121.0</ele><time>2026-04-20T10:47:08.787Z</time></trkpt><trkpt lat="40.0562733" lon="8.585535"><ele>121.0</ele><time>2026-04-20T10:47:09.787Z</time></trkpt><trkpt lat="40.0562317" lon="8.5854433"><ele>121.0</ele><time>2026-04-20T10:47:10.787Z</time></trkpt><trkpt lat="40.0561917" lon="8.5853583"><ele>121.00000000000001</ele><time>2026-04-20T10:47:11.787Z</time></trkpt><trkpt lat="40.05615" lon="8.585275"><ele>121.0</ele><time>2026-04-20T10:47:12.787Z</time></trkpt><trkpt lat="40.0561083" lon="8.5851883"><ele>120.16666666666667</ele><time>2026-04-20T10:47:13.787Z</time></trkpt><trkpt lat="40.05602" lon="8.5850167"><ele>119.33333333333334</ele><time>2026-04-20T10:47:15.787Z</time></trkpt><trkpt lat="40.0559733" lon="8.58495"><ele>118.5</ele><time>2026-04-20T10:47:16.787Z</time></trkpt><trkpt lat="40.0559267" lon="8.5848867"><ele>117.66666666666666</ele><time>2026-04-20T10:47:17.787Z</time></trkpt><trkpt lat="40.0558817" lon="8.5848133"><ele>116.83333333333333</ele><time>2026-04-20T10:47:18.787Z</time></trkpt><trkpt lat="40.0558433" lon="8.5847283"><ele>116.0</ele><time>2026-04-20T10:47:19.788Z</time></trkpt><trkpt lat="40.055805" lon="8.5846317"><ele>116.16666666666666</ele><time>2026-04-20T10:47:20.787Z</time></trkpt><trkpt lat="40.0557717" lon="8.5845267"><ele>116.33333333333333</ele><time>2026-04-20T10:47:21.787Z</time></trkpt><trkpt lat="40.05574" lon="8.5844233"><ele>116.5</ele><time>2026-04-20T10:47:22.787Z</time></trkpt><trkpt lat="40.0557167" lon="8.5843217"><ele>116.66666666666666</ele><time>2026-04-20T10:47:23.787Z</time></trkpt><trkpt lat="40.0556867" lon="8.5842217"><ele>116.83333333333333</ele><time>2026-04-20T10:47:24.787Z</time></trkpt><trkpt lat="40.0556433" lon="8.584125"><ele>117.0</ele><time>2026-04-20T10:47:25.787Z</time></trkpt><trkpt lat="40.0555883" lon="8.5840217"><ele>116.33333333333333</ele><time>2026-04-20T10:47:26.787Z</time></trkpt><trkpt lat="40.0555333" lon="8.5839217"><ele>115.66666666666666</ele><time>2026-04-20T10:47:27.787Z</time></trkpt><trkpt lat="40.0554817" lon="8.5838333"><ele>115.0</ele><time>2026-04-20T10:47:28.787Z</time></trkpt><trkpt lat="40.0554367" lon="8.583755"><ele>114.33333333333333</ele><time>2026-04-20T10:47:29.787Z</time></trkpt><trkpt lat="40.05541" lon="8.5836717"><ele>113.66666666666666</ele><time>2026-04-20T10:47:30.787Z</time></trkpt><trkpt lat="40.0553817" lon="8.58358"><ele>113.0</ele><time>2026-04-20T10:47:31.787Z</time></trkpt><trkpt lat="40.0553533" lon="8.5834733"><ele>112.0</ele><time>2026-04-20T10:47:32.787Z</time></trkpt><trkpt lat="40.055325" lon="8.5833483"><ele>111.0</ele><time>2026-04-20T10:47:33.787Z</time></trkpt><trkpt lat="40.0553067" lon="8.5832067"><ele>110.0</ele><time>2026-04-20T10:47:34.787Z</time></trkpt><trkpt lat="40.0552767" lon="8.5829017"><ele>109.0</ele><time>2026-04-20T10:47:36.787Z</time></trkpt><trkpt lat="40.0552583" lon="8.5827617"><ele>108.0</ele><time>2026-04-20T10:47:37.788Z</time></trkpt><trkpt lat="40.05523" lon="8.5826183"><ele>107.0</ele><time>2026-04-20T10:47:38.787Z</time></trkpt><trkpt lat="40.0552" lon="8.58247"><ele>106.0</ele><time>2026-04-20T10:47:39.787Z</time></trkpt><trkpt lat="40.0551667" lon="8.5823283"><ele>105.0</ele><time>2026-04-20T10:47:40.787Z</time></trkpt><trkpt lat="40.0551283" lon="8.5821917"><ele>105.0</ele><time>2026-04-20T10:47:41.787Z</time></trkpt><trkpt lat="40.0550817" lon="8.58205"><ele>105.0</ele><time>2026-04-20T10:47:42.787Z</time></trkpt><trkpt lat="40.0550367" lon="8.5819033"><ele>105.0</ele><time>2026-04-20T10:47:43.787Z</time></trkpt><trkpt lat="40.054985" lon="8.58176"><ele>105.0</ele><time>2026-04-20T10:47:44.788Z</time></trkpt><trkpt lat="40.054945" lon="8.581625"><ele>103.5</ele><time>2026-04-20T10:47:45.787Z</time></trkpt><trkpt lat="40.0549083" lon="8.5814783"><ele>102.0</ele><time>2026-04-20T10:47:46.787Z</time></trkpt><trkpt lat="40.0548717" lon="8.581325"><ele>100.5</ele><time>2026-04-20T10:47:47.787Z</time></trkpt><trkpt lat="40.0548417" lon="8.58118"><ele>99.0</ele><time>2026-04-20T10:47:48.787Z</time></trkpt><trkpt lat="40.0548033" lon="8.58105"><ele>97.6</ele><time>2026-04-20T10:47:49.788Z</time></trkpt><trkpt lat="40.0547633" lon="8.5809233"><ele>96.2</ele><time>2026-04-20T10:47:50.787Z</time></trkpt><trkpt lat="40.0547267" lon="8.5808033"><ele>94.8</ele><time>2026-04-20T10:47:51.787Z</time></trkpt><trkpt lat="40.054685" lon="8.5806867"><ele>93.39999999999999</ele><time>2026-04-20T10:47:52.787Z</time></trkpt><trkpt lat="40.054645" lon="8.580555"><ele>92.0</ele><time>2026-04-20T10:47:53.787Z</time></trkpt><trkpt lat="40.0546033" lon="8.5804083"><ele>90.66666666666667</ele><time>2026-04-20T10:47:54.787Z</time></trkpt><trkpt lat="40.0545567" lon="8.580255"><ele>89.33333333333333</ele><time>2026-04-20T10:47:55.787Z</time></trkpt><trkpt lat="40.054465" lon="8.579945"><ele>88.0</ele><time>2026-04-20T10:47:57.787Z</time></trkpt><trkpt lat="40.0544367" lon="8.5797883"><ele>88.0</ele><time>2026-04-20T10:47:58.787Z</time></trkpt><trkpt lat="40.0544083" lon="8.57963"><ele>88.0</ele><time>2026-04-20T10:47:59.787Z</time></trkpt><trkpt lat="40.0543783" lon="8.5794733"><ele>88.0</ele><time>2026-04-20T10:48:00.787Z</time></trkpt><trkpt lat="40.0543433" lon="8.57933"><ele>88.0</ele><time>2026-04-20T10:48:01.787Z</time></trkpt><trkpt lat="40.05431" lon="8.579185"><ele>87.4</ele><time>2026-04-20T10:48:02.787Z</time></trkpt><trkpt lat="40.0542767" lon="8.5790567"><ele>86.80000000000001</ele><time>2026-04-20T10:48:03.787Z</time></trkpt><trkpt lat="40.0542567" lon="8.57894"><ele>86.2</ele><time>2026-04-20T10:48:04.787Z</time></trkpt><trkpt lat="40.05425" lon="8.57882"><ele>85.6</ele><time>2026-04-20T10:48:05.787Z</time></trkpt><trkpt lat="40.05425" lon="8.5787117"><ele>85.0</ele><time>2026-04-20T10:48:06.787Z</time></trkpt><trkpt lat="40.054245" lon="8.578605"><ele>84.5</ele><time>2026-04-20T10:48:07.788Z</time></trkpt><trkpt lat="40.05424" lon="8.578495"><ele>84.0</ele><time>2026-04-20T10:48:08.787Z</time></trkpt><trkpt lat="40.0542333" lon="8.5783817"><ele>83.5</ele><time>2026-04-20T10:48:09.788Z</time></trkpt><trkpt lat="40.0542317" lon="8.5782683"><ele>83.0</ele><time>2026-04-20T10:48:10.787Z</time></trkpt><trkpt lat="40.0542267" lon="8.5781617"><ele>82.5</ele><time>2026-04-20T10:48:11.788Z</time></trkpt><trkpt lat="40.05422" lon="8.5780583"><ele>82.0</ele><time>2026-04-20T10:48:12.787Z</time></trkpt><trkpt lat="40.054215" lon="8.5779467"><ele>82.0</ele><time>2026-04-20T10:48:13.787Z</time></trkpt><trkpt lat="40.0541917" lon="8.577855"><ele>82.0</ele><time>2026-04-20T10:48:14.787Z</time></trkpt><trkpt lat="40.0541717" lon="8.5777683"><ele>82.0</ele><time>2026-04-20T10:48:15.787Z</time></trkpt><trkpt lat="40.054165" lon="8.5776217"><ele>82.0</ele><time>2026-04-20T10:48:17.787Z</time></trkpt><trkpt lat="40.0542233" lon="8.5774317"><ele>82.0</ele><time>2026-04-20T10:48:21.787Z</time></trkpt><trkpt lat="40.05429" lon="8.57733"><ele>81.19999999999999</ele><time>2026-04-20T10:48:27.787Z</time></trkpt><trkpt lat="40.054325" lon="8.577215"><ele>80.39999999999999</ele><time>2026-04-20T10:48:29.787Z</time></trkpt><trkpt lat="40.05433" lon="8.5770833"><ele>79.6</ele><time>2026-04-20T10:48:31.787Z</time></trkpt><trkpt lat="40.0543383" lon="8.5769533"><ele>78.8</ele><time>2026-04-20T10:48:33.787Z</time></trkpt><trkpt lat="40.0543533" lon="8.5768367"><ele>78.0</ele><time>2026-04-20T10:48:35.787Z</time></trkpt><trkpt lat="40.0544333" lon="8.576765"><ele>77.75</ele><time>2026-04-20T10:48:37.788Z</time></trkpt><trkpt lat="40.054555" lon="8.5767083"><ele>77.5</ele><time>2026-04-20T10:48:39.787Z</time></trkpt><trkpt lat="40.054705" lon="8.576695"><ele>77.25</ele><time>2026-04-20T10:48:41.787Z</time></trkpt><trkpt lat="40.0547967" lon="8.5766983"><ele>77.0</ele><time>2026-04-20T10:48:42.787Z</time></trkpt><trkpt lat="40.054895" lon="8.5767"><ele>75.4</ele><time>2026-04-20T10:48:43.787Z</time></trkpt><trkpt lat="40.05499" lon="8.5767017"><ele>73.80000000000001</ele><time>2026-04-20T10:48:44.787Z</time></trkpt><trkpt lat="40.055085" lon="8.576705"><ele>72.2</ele><time>2026-04-20T10:48:45.788Z</time></trkpt><trkpt lat="40.05518" lon="8.5767183"><ele>70.60000000000001</ele><time>2026-04-20T10:48:46.787Z</time></trkpt><trkpt lat="40.0552717" lon="8.5767267"><ele>69.0</ele><time>2026-04-20T10:48:47.787Z</time></trkpt><trkpt lat="40.0553583" lon="8.5767333"><ele>69.0</ele><time>2026-04-20T10:48:48.787Z</time></trkpt><trkpt lat="40.0554483" lon="8.5767433"><ele>69.0</ele><time>2026-04-20T10:48:49.787Z</time></trkpt><trkpt lat="40.055535" lon="8.5767417"><ele>69.0</ele><time>2026-04-20T10:48:50.788Z</time></trkpt><trkpt lat="40.05562" lon="8.576725"><ele>69.0</ele><time>2026-04-20T10:48:51.787Z</time></trkpt><trkpt lat="40.0557083" lon="8.5766967"><ele>69.0</ele><time>2026-04-20T10:48:52.787Z</time></trkpt><trkpt lat="40.0557833" lon="8.57665"><ele>69.0</ele><time>2026-04-20T10:48:53.787Z</time></trkpt><trkpt lat="40.05585" lon="8.576595"><ele>68.28571428571429</ele><time>2026-04-20T10:48:54.788Z</time></trkpt><trkpt lat="40.0559117" lon="8.5765583"><ele>67.57142857142858</ele><time>2026-04-20T10:48:55.787Z</time></trkpt><trkpt lat="40.055975" lon="8.5765167"><ele>66.85714285714286</ele><time>2026-04-20T10:48:56.787Z</time></trkpt><trkpt lat="40.056035" lon="8.5764783"><ele>66.14285714285714</ele><time>2026-04-20T10:48:57.787Z</time></trkpt><trkpt lat="40.05609" lon="8.5764367"><ele>65.42857142857142</ele><time>2026-04-20T10:48:58.788Z</time></trkpt><trkpt lat="40.0561467" lon="8.5763933"><ele>64.71428571428571</ele><time>2026-04-20T10:48:59.787Z</time></trkpt><trkpt lat="40.056205" lon="8.5763367"><ele>64.0</ele><time>2026-04-20T10:49:00.787Z</time></trkpt><trkpt lat="40.0562867" lon="8.5761867"><ele>63.83333333333333</ele><time>2026-04-20T10:49:02.788Z</time></trkpt><trkpt lat="40.0563117" lon="8.5760883"><ele>63.666666666666664</ele><time>2026-04-20T10:49:03.787Z</time></trkpt><trkpt lat="40.0563183" lon="8.5759783"><ele>63.5</ele><time>2026-04-20T10:49:04.788Z</time></trkpt><trkpt lat="40.0563133" lon="8.5758667"><ele>63.33333333333333</ele><time>2026-04-20T10:49:05.787Z</time></trkpt><trkpt lat="40.0563017" lon="8.5757517"><ele>63.166666666666664</ele><time>2026-04-20T10:49:06.787Z</time></trkpt><trkpt lat="40.0562933" lon="8.5756367"><ele>63.0</ele><time>2026-04-20T10:49:07.787Z</time></trkpt><trkpt lat="40.0562917" lon="8.5755183"><ele>63.0</ele><time>2026-04-20T10:49:08.787Z</time></trkpt><trkpt lat="40.0563" lon="8.575405"><ele>63.0</ele><time>2026-04-20T10:49:09.787Z</time></trkpt><trkpt lat="40.0563033" lon="8.5753017"><ele>63.0</ele><time>2026-04-20T10:49:10.787Z</time></trkpt><trkpt lat="40.0562933" lon="8.5752033"><ele>63.0</ele><time>2026-04-20T10:49:11.787Z</time></trkpt><trkpt lat="40.056265" lon="8.57511"><ele>63.0</ele><time>2026-04-20T10:49:12.787Z</time></trkpt><trkpt lat="40.056205" lon="8.5750217"><ele>63.0</ele><time>2026-04-20T10:49:13.787Z</time></trkpt><trkpt lat="40.0561267" lon="8.57495"><ele>63.0</ele><time>2026-04-20T10:49:14.787Z</time></trkpt><trkpt lat="40.0560283" lon="8.574895"><ele>63.0</ele><time>2026-04-20T10:49:15.787Z</time></trkpt><trkpt lat="40.05592" lon="8.5748417"><ele>63.0</ele><time>2026-04-20T10:49:16.787Z</time></trkpt><trkpt lat="40.05582" lon="8.5747817"><ele>63.0</ele><time>2026-04-20T10:49:17.787Z</time></trkpt><trkpt lat="40.0557167" lon="8.5747233"><ele>63.0</ele><time>2026-04-20T10:49:18.787Z</time></trkpt><trkpt lat="40.0556183" lon="8.5746767"><ele>62.25</ele><time>2026-04-20T10:49:19.787Z</time></trkpt><trkpt lat="40.0555233" lon="8.57464"><ele>61.5</ele><time>2026-04-20T10:49:20.787Z</time></trkpt><trkpt lat="40.0554283" lon="8.574605"><ele>60.75</ele><time>2026-04-20T10:49:21.788Z</time></trkpt><trkpt lat="40.0552667" lon="8.5744567"><ele>60.0</ele><time>2026-04-20T10:49:23.787Z</time></trkpt><trkpt lat="40.05518" lon="8.5743483"><ele>59.75</ele><time>2026-04-20T10:49:24.787Z</time></trkpt><trkpt lat="40.0550967" lon="8.57423"><ele>59.5</ele><time>2026-04-20T10:49:25.787Z</time></trkpt><trkpt lat="40.0550067" lon="8.574105"><ele>59.25</ele><time>2026-04-20T10:49:26.787Z</time></trkpt><trkpt lat="40.0549133" lon="8.57398"><ele>59.0</ele><time>2026-04-20T10:49:27.787Z</time></trkpt><trkpt lat="40.0548233" lon="8.5738567"><ele>59.0</ele><time>2026-04-20T10:49:28.787Z</time></trkpt><trkpt lat="40.0547233" lon="8.5737367"><ele>59.0</ele><time>2026-04-20T10:49:29.787Z</time></trkpt><trkpt lat="40.0546217" lon="8.5736283"><ele>59.0</ele><time>2026-04-20T10:49:30.787Z</time></trkpt><trkpt lat="40.0545183" lon="8.5735133"><ele>59.0</ele><time>2026-04-20T10:49:31.787Z</time></trkpt><trkpt lat="40.05441" lon="8.5734133"><ele>59.25</ele><time>2026-04-20T10:49:32.787Z</time></trkpt><trkpt lat="40.0543017" lon="8.5733217"><ele>59.5</ele><time>2026-04-20T10:49:33.787Z</time></trkpt><trkpt lat="40.0541917" lon="8.5732483"><ele>59.75</ele><time>2026-04-20T10:49:34.787Z</time></trkpt><trkpt lat="40.054065" lon="8.5731933"><ele>60.0</ele><time>2026-04-20T10:49:35.788Z</time></trkpt><trkpt lat="40.0539283" lon="8.573155"><ele>59.0</ele><time>2026-04-20T10:49:36.787Z</time></trkpt><trkpt lat="40.0537967" lon="8.5731233"><ele>58.0</ele><time>2026-04-20T10:49:37.787Z</time></trkpt><trkpt lat="40.0536783" lon="8.5730883"><ele>57.0</ele><time>2026-04-20T10:49:38.787Z</time></trkpt><trkpt lat="40.0535617" lon="8.5730533"><ele>56.0</ele><time>2026-04-20T10:49:39.787Z</time></trkpt><trkpt lat="40.053455" lon="8.5730333"><ele>56.0</ele><time>2026-04-20T10:49:40.787Z</time></trkpt><trkpt lat="40.0533267" lon="8.573035"><ele>56.0</ele><time>2026-04-20T10:49:41.787Z</time></trkpt><trkpt lat="40.053195" lon="8.5730483"><ele>56.0</ele><time>2026-04-20T10:49:42.787Z</time></trkpt><trkpt lat="40.0529617" lon="8.5730767"><ele>55.599999999999994</ele><time>2026-04-20T10:49:44.787Z</time></trkpt><trkpt lat="40.0528483" lon="8.57308"><ele>55.199999999999996</ele><time>2026-04-20T10:49:45.787Z</time></trkpt><trkpt lat="40.05274" lon="8.5730833"><ele>54.800000000000004</ele><time>2026-04-20T10:49:46.788Z</time></trkpt><trkpt lat="40.0526367" lon="8.5730783"><ele>54.400000000000006</ele><time>2026-04-20T10:49:47.787Z</time></trkpt><trkpt lat="40.0525383" lon="8.5730833"><ele>54.0</ele><time>2026-04-20T10:49:48.787Z</time></trkpt><trkpt lat="40.0524433" lon="8.5730817"><ele>54.0</ele><time>2026-04-20T10:49:49.787Z</time></trkpt><trkpt lat="40.052345" lon="8.5730733"><ele>54.00000000000001</ele><time>2026-04-20T10:49:50.787Z</time></trkpt><trkpt lat="40.052245" lon="8.573065"><ele>54.00000000000001</ele><time>2026-04-20T10:49:51.787Z</time></trkpt><trkpt lat="40.052135" lon="8.5730633"><ele>54.0</ele><time>2026-04-20T10:49:52.787Z</time></trkpt><trkpt lat="40.0520217" lon="8.5730567"><ele>54.0</ele><time>2026-04-20T10:49:53.787Z</time></trkpt><trkpt lat="40.0519067" lon="8.5730383"><ele>54.0</ele><time>2026-04-20T10:49:54.787Z</time></trkpt><trkpt lat="40.0517933" lon="8.5730033"><ele>54.0</ele><time>2026-04-20T10:49:55.787Z</time></trkpt><trkpt lat="40.05168" lon="8.5729567"><ele>54.0</ele><time>2026-04-20T10:49:56.788Z</time></trkpt><trkpt lat="40.0515633" lon="8.57291"><ele>54.0</ele><time>2026-04-20T10:49:57.787Z</time></trkpt><trkpt lat="40.051455" lon="8.5728667"><ele>53.6</ele><time>2026-04-20T10:49:58.787Z</time></trkpt><trkpt lat="40.0513567" lon="8.5728333"><ele>53.2</ele><time>2026-04-20T10:49:59.787Z</time></trkpt><trkpt lat="40.0512583" lon="8.5727933"><ele>52.800000000000004</ele><time>2026-04-20T10:50:00.786Z</time></trkpt><trkpt lat="40.0511633" lon="8.5727533"><ele>52.400000000000006</ele><time>2026-04-20T10:50:01.786Z</time></trkpt><trkpt lat="40.05107" lon="8.5727133"><ele>52.0</ele><time>2026-04-20T10:50:02.786Z</time></trkpt><trkpt lat="40.0509733" lon="8.5726833"><ele>50.75</ele><time>2026-04-20T10:50:03.787Z</time></trkpt><trkpt lat="40.0507783" lon="8.5726033"><ele>49.5</ele><time>2026-04-20T10:50:05.786Z</time></trkpt><trkpt lat="40.0506917" lon="8.5725433"><ele>48.25</ele><time>2026-04-20T10:50:06.787Z</time></trkpt><trkpt lat="40.0506083" lon="8.5724667"><ele>47.0</ele><time>2026-04-20T10:50:07.786Z</time></trkpt><trkpt lat="40.0505417" lon="8.572375"><ele>47.0</ele><time>2026-04-20T10:50:08.786Z</time></trkpt><trkpt lat="40.050485" lon="8.572265"><ele>47.0</ele><time>2026-04-20T10:50:09.786Z</time></trkpt><trkpt lat="40.0504417" lon="8.5721217"><ele>47.0</ele><time>2026-04-20T10:50:10.787Z</time></trkpt><trkpt lat="40.0503917" lon="8.57196"><ele>47.0</ele><time>2026-04-20T10:50:11.786Z</time></trkpt><trkpt lat="40.0503383" lon="8.57181"><ele>47.5</ele><time>2026-04-20T10:50:12.786Z</time></trkpt><trkpt lat="40.0502733" lon="8.5716717"><ele>48.0</ele><time>2026-04-20T10:50:13.786Z</time></trkpt><trkpt lat="40.05021" lon="8.5715383"><ele>48.5</ele><time>2026-04-20T10:50:14.787Z</time></trkpt><trkpt lat="40.05014" lon="8.5714067"><ele>49.0</ele><time>2026-04-20T10:50:15.786Z</time></trkpt><trkpt lat="40.05005" lon="8.571285"><ele>49.5</ele><time>2026-04-20T10:50:16.787Z</time></trkpt><trkpt lat="40.04996" lon="8.5711733"><ele>50.0</ele><time>2026-04-20T10:50:17.787Z</time></trkpt><trkpt lat="40.04987" lon="8.571065"><ele>50.5</ele><time>2026-04-20T10:50:18.786Z</time></trkpt><trkpt lat="40.0497783" lon="8.5709467"><ele>51.0</ele><time>2026-04-20T10:50:19.786Z</time></trkpt><trkpt lat="40.0496883" lon="8.5708233"><ele>49.75</ele><time>2026-04-20T10:50:20.786Z</time></trkpt><trkpt lat="40.049605" lon="8.5706983"><ele>48.5</ele><time>2026-04-20T10:50:21.787Z</time></trkpt><trkpt lat="40.0495317" lon="8.5705633"><ele>47.25</ele><time>2026-04-20T10:50:22.786Z</time></trkpt><trkpt lat="40.0494683" lon="8.5704317"><ele>46.0</ele><time>2026-04-20T10:50:23.786Z</time></trkpt><trkpt lat="40.0494083" lon="8.57031"><ele>46.0</ele><time>2026-04-20T10:50:24.786Z</time></trkpt><trkpt lat="40.0492883" lon="8.5700683"><ele>46.0</ele><time>2026-04-20T10:50:26.786Z</time></trkpt><trkpt lat="40.0491983" lon="8.5699817"><ele>46.0</ele><time>2026-04-20T10:50:27.786Z</time></trkpt><trkpt lat="40.0490983" lon="8.5699183"><ele>46.0</ele><time>2026-04-20T10:50:28.786Z</time></trkpt><trkpt lat="40.0489783" lon="8.569865"><ele>44.75</ele><time>2026-04-20T10:50:29.787Z</time></trkpt><trkpt lat="40.04885" lon="8.569825"><ele>43.5</ele><time>2026-04-20T10:50:30.786Z</time></trkpt><trkpt lat="40.048715" lon="8.5697917"><ele>42.25</ele><time>2026-04-20T10:50:31.786Z</time></trkpt><trkpt lat="40.04858" lon="8.56976"><ele>41.0</ele><time>2026-04-20T10:50:32.786Z</time></trkpt><trkpt lat="40.0484517" lon="8.569735"><ele>41.0</ele><time>2026-04-20T10:50:33.787Z</time></trkpt><trkpt lat="40.0483267" lon="8.5697067"><ele>41.0</ele><time>2026-04-20T10:50:34.786Z</time></trkpt><trkpt lat="40.0482017" lon="8.5696833"><ele>41.0</ele><time>2026-04-20T10:50:35.786Z</time></trkpt><trkpt lat="40.048075" lon="8.5696533"><ele>41.0</ele><time>2026-04-20T10:50:36.786Z</time></trkpt><trkpt lat="40.0479483" lon="8.569615"><ele>40.75</ele><time>2026-04-20T10:50:37.786Z</time></trkpt><trkpt lat="40.0478233" lon="8.5695733"><ele>40.5</ele><time>2026-04-20T10:50:38.787Z</time></trkpt><trkpt lat="40.0477" lon="8.5695333"><ele>40.25</ele><time>2026-04-20T10:50:39.786Z</time></trkpt><trkpt lat="40.04757" lon="8.5694767"><ele>40.0</ele><time>2026-04-20T10:50:40.786Z</time></trkpt><trkpt lat="40.047445" lon="8.569395"><ele>39.0</ele><time>2026-04-20T10:50:41.786Z</time></trkpt><trkpt lat="40.0473167" lon="8.5693183"><ele>38.0</ele><time>2026-04-20T10:50:42.786Z</time></trkpt><trkpt lat="40.0471783" lon="8.5692567"><ele>37.0</ele><time>2026-04-20T10:50:43.786Z</time></trkpt><trkpt lat="40.047045" lon="8.5692083"><ele>36.0</ele><time>2026-04-20T10:50:44.786Z</time></trkpt><trkpt lat="40.046915" lon="8.5691733"><ele>36.0</ele><time>2026-04-20T10:50:45.786Z</time></trkpt><trkpt lat="40.0466667" lon="8.5690967"><ele>36.0</ele><time>2026-04-20T10:50:47.786Z</time></trkpt><trkpt lat="40.0465483" lon="8.56903"><ele>36.0</ele><time>2026-04-20T10:50:48.786Z</time></trkpt><trkpt lat="40.0464283" lon="8.5689583"><ele>35.5</ele><time>2026-04-20T10:50:49.786Z</time></trkpt><trkpt lat="40.0463133" lon="8.568885"><ele>35.0</ele><time>2026-04-20T10:50:50.786Z</time></trkpt><trkpt lat="40.0462067" lon="8.568815"><ele>34.5</ele><time>2026-04-20T10:50:51.787Z</time></trkpt><trkpt lat="40.0461083" lon="8.56875"><ele>34.0</ele><time>2026-04-20T10:50:52.786Z</time></trkpt><trkpt lat="40.0460117" lon="8.5686917"><ele>34.0</ele><time>2026-04-20T10:50:53.786Z</time></trkpt><trkpt lat="40.0459283" lon="8.568625"><ele>34.0</ele><time>2026-04-20T10:50:54.786Z</time></trkpt><trkpt lat="40.0458617" lon="8.5685417"><ele>34.0</ele><time>2026-04-20T10:50:55.786Z</time></trkpt><trkpt lat="40.0457933" lon="8.5684333"><ele>34.0</ele><time>2026-04-20T10:50:56.786Z</time></trkpt><trkpt lat="40.0457267" lon="8.5683017"><ele>34.0</ele><time>2026-04-20T10:50:57.786Z</time></trkpt><trkpt lat="40.0456633" lon="8.56816"><ele>33.5</ele><time>2026-04-20T10:50:58.786Z</time></trkpt><trkpt lat="40.0455983" lon="8.56802"><ele>33.0</ele><time>2026-04-20T10:50:59.786Z</time></trkpt><trkpt lat="40.0455383" lon="8.5678867"><ele>32.5</ele><time>2026-04-20T10:51:00.786Z</time></trkpt><trkpt lat="40.0454717" lon="8.56776"><ele>32.0</ele><time>2026-04-20T10:51:01.786Z</time></trkpt><trkpt lat="40.0454" lon="8.567635"><ele>31.75</ele><time>2026-04-20T10:51:02.786Z</time></trkpt><trkpt lat="40.0453233" lon="8.5675167"><ele>31.5</ele><time>2026-04-20T10:51:03.786Z</time></trkpt><trkpt lat="40.0452367" lon="8.56741"><ele>31.25</ele><time>2026-04-20T10:51:04.786Z</time></trkpt><trkpt lat="40.0451283" lon="8.5673167"><ele>31.0</ele><time>2026-04-20T10:51:05.786Z</time></trkpt><trkpt lat="40.0450067" lon="8.5672383"><ele>30.666666666666668</ele><time>2026-04-20T10:51:06.787Z</time></trkpt><trkpt lat="40.0447533" lon="8.5671083"><ele>30.333333333333336</ele><time>2026-04-20T10:51:08.787Z</time></trkpt><trkpt lat="40.0446233" lon="8.5670633"><ele>30.0</ele><time>2026-04-20T10:51:09.786Z</time></trkpt><trkpt lat="40.0444983" lon="8.5670267"><ele>29.75</ele><time>2026-04-20T10:51:10.787Z</time></trkpt><trkpt lat="40.04438" lon="8.566975"><ele>29.5</ele><time>2026-04-20T10:51:11.786Z</time></trkpt><trkpt lat="40.0442667" lon="8.5669067"><ele>29.25</ele><time>2026-04-20T10:51:12.786Z</time></trkpt><trkpt lat="40.04416" lon="8.56681"><ele>29.0</ele><time>2026-04-20T10:51:13.787Z</time></trkpt><trkpt lat="40.0440567" lon="8.56669"><ele>28.75</ele><time>2026-04-20T10:51:14.786Z</time></trkpt><trkpt lat="40.04395" lon="8.5665633"><ele>28.5</ele><time>2026-04-20T10:51:15.786Z</time></trkpt><trkpt lat="40.0438467" lon="8.5664367"><ele>28.25</ele><time>2026-04-20T10:51:16.786Z</time></trkpt><trkpt lat="40.0437433" lon="8.5663067"><ele>28.0</ele><time>2026-04-20T10:51:17.786Z</time></trkpt><trkpt lat="40.0436517" lon="8.5661717"><ele>28.0</ele><time>2026-04-20T10:51:18.786Z</time></trkpt><trkpt lat="40.0435667" lon="8.5660433"><ele>28.0</ele><time>2026-04-20T10:51:19.786Z</time></trkpt><trkpt lat="40.043495" lon="8.5659033"><ele>28.0</ele><time>2026-04-20T10:51:20.787Z</time></trkpt><trkpt lat="40.0434467" lon="8.5657567"><ele>28.0</ele><time>2026-04-20T10:51:21.786Z</time></trkpt><trkpt lat="40.0433967" lon="8.56561"><ele>28.0</ele><time>2026-04-20T10:51:22.786Z</time></trkpt><trkpt lat="40.04335" lon="8.5654817"><ele>28.0</ele><time>2026-04-20T10:51:23.786Z</time></trkpt><trkpt lat="40.0432883" lon="8.5653667"><ele>28.0</ele><time>2026-04-20T10:51:24.786Z</time></trkpt><trkpt lat="40.043205" lon="8.5652617"><ele>28.0</ele><time>2026-04-20T10:51:25.786Z</time></trkpt><trkpt lat="40.0431033" lon="8.5651817"><ele>27.666666666666668</ele><time>2026-04-20T10:51:26.786Z</time></trkpt><trkpt lat="40.0429817" lon="8.56512"><ele>27.333333333333336</ele><time>2026-04-20T10:51:27.786Z</time></trkpt><trkpt lat="40.0427217" lon="8.564975"><ele>27.0</ele><time>2026-04-20T10:51:29.786Z</time></trkpt><trkpt lat="40.0425867" lon="8.5649083"><ele>26.5</ele><time>2026-04-20T10:51:30.786Z</time></trkpt><trkpt lat="40.042445" lon="8.5648517"><ele>26.0</ele><time>2026-04-20T10:51:31.786Z</time></trkpt><trkpt lat="40.0423" lon="8.5648"><ele>25.5</ele><time>2026-04-20T10:51:32.786Z</time></trkpt><trkpt lat="40.04216" lon="8.5647417"><ele>25.0</ele><time>2026-04-20T10:51:33.786Z</time></trkpt><trkpt lat="40.0420167" lon="8.5646717"><ele>25.0</ele><time>2026-04-20T10:51:34.787Z</time></trkpt><trkpt lat="40.0418717" lon="8.5645817"><ele>25.0</ele><time>2026-04-20T10:51:35.787Z</time></trkpt><trkpt lat="40.0417233" lon="8.5644867"><ele>25.0</ele><time>2026-04-20T10:51:36.786Z</time></trkpt><trkpt lat="40.0415733" lon="8.5643983"><ele>24.333333333333336</ele><time>2026-04-20T10:51:37.786Z</time></trkpt><trkpt lat="40.0414217" lon="8.5643117"><ele>23.666666666666668</ele><time>2026-04-20T10:51:38.786Z</time></trkpt><trkpt lat="40.0412717" lon="8.56423"><ele>23.0</ele><time>2026-04-20T10:51:39.786Z</time></trkpt><trkpt lat="40.04112" lon="8.5641483"><ele>23.0</ele><time>2026-04-20T10:51:40.787Z</time></trkpt><trkpt lat="40.0409733" lon="8.5640567"><ele>23.0</ele><time>2026-04-20T10:51:41.786Z</time></trkpt><trkpt lat="40.040835" lon="8.5639617"><ele>23.0</ele><time>2026-04-20T10:51:42.786Z</time></trkpt><trkpt lat="40.0407167" lon="8.5638717"><ele>22.799999999999997</ele><time>2026-04-20T10:51:43.786Z</time></trkpt><trkpt lat="40.04061" lon="8.5637983"><ele>22.6</ele><time>2026-04-20T10:51:44.786Z</time></trkpt><trkpt lat="40.0405217" lon="8.5637333"><ele>22.4</ele><time>2026-04-20T10:51:45.787Z</time></trkpt><trkpt lat="40.0404417" lon="8.5636883"><ele>22.200000000000003</ele><time>2026-04-20T10:51:46.786Z</time></trkpt><trkpt lat="40.0403783" lon="8.5636567"><ele>22.0</ele><time>2026-04-20T10:51:47.786Z</time></trkpt><trkpt lat="40.040285" lon="8.5636267"><ele>22.0</ele><time>2026-04-20T10:51:49.786Z</time></trkpt><trkpt lat="40.04013" lon="8.563515"><ele>22.0</ele><time>2026-04-20T10:51:52.786Z</time></trkpt><trkpt lat="40.0400667" lon="8.5634717"><ele>22.0</ele><time>2026-04-20T10:51:53.786Z</time></trkpt><trkpt lat="40.0399983" lon="8.5634233"><ele>22.0</ele><time>2026-04-20T10:51:54.786Z</time></trkpt><trkpt lat="40.0399267" lon="8.5633817"><ele>22.0</ele><time>2026-04-20T10:51:55.786Z</time></trkpt><trkpt lat="40.03985" lon="8.5633417"><ele>22.0</ele><time>2026-04-20T10:51:56.786Z</time></trkpt><trkpt lat="40.0397767" lon="8.5632983"><ele>22.0</ele><time>2026-04-20T10:51:57.787Z</time></trkpt><trkpt lat="40.039695" lon="8.5632467"><ele>22.0</ele><time>2026-04-20T10:51:58.786Z</time></trkpt><trkpt lat="40.0396167" lon="8.5631867"><ele>22.0</ele><time>2026-04-20T10:51:59.786Z</time></trkpt><trkpt lat="40.0395433" lon="8.563115"><ele>22.0</ele><time>2026-04-20T10:52:00.786Z</time></trkpt><trkpt lat="40.0394733" lon="8.5630217"><ele>22.0</ele><time>2026-04-20T10:52:01.786Z</time></trkpt><trkpt lat="40.0394083" lon="8.56292"><ele>22.0</ele><time>2026-04-20T10:52:02.786Z</time></trkpt><trkpt lat="40.0393333" lon="8.56281"><ele>22.0</ele><time>2026-04-20T10:52:03.786Z</time></trkpt><trkpt lat="40.0392583" lon="8.5626883"><ele>22.0</ele><time>2026-04-20T10:52:04.786Z</time></trkpt><trkpt lat="40.0391917" lon="8.5625717"><ele>22.0</ele><time>2026-04-20T10:52:05.786Z</time></trkpt><trkpt lat="40.0391317" lon="8.5624567"><ele>21.6</ele><time>2026-04-20T10:52:06.786Z</time></trkpt><trkpt lat="40.03908" lon="8.5623517"><ele>21.200000000000003</ele><time>2026-04-20T10:52:07.786Z</time></trkpt><trkpt lat="40.0390167" lon="8.5622567"><ele>20.8</ele><time>2026-04-20T10:52:08.786Z</time></trkpt><trkpt lat="40.038935" lon="8.5621667"><ele>20.4</ele><time>2026-04-20T10:52:09.787Z</time></trkpt><trkpt lat="40.03884" lon="8.56208"><ele>20.0</ele><time>2026-04-20T10:52:10.787Z</time></trkpt><trkpt lat="40.0386467" lon="8.5619167"><ele>20.0</ele><time>2026-04-20T10:52:12.786Z</time></trkpt><trkpt lat="40.0385517" lon="8.56184"><ele>20.0</ele><time>2026-04-20T10:52:13.786Z</time></trkpt><trkpt lat="40.03846" lon="8.5617633"><ele>20.0</ele><time>2026-04-20T10:52:14.786Z</time></trkpt><trkpt lat="40.03838" lon="8.5616917"><ele>20.0</ele><time>2026-04-20T10:52:15.786Z</time></trkpt><trkpt lat="40.0383033" lon="8.5616283"><ele>20.0</ele><time>2026-04-20T10:52:16.786Z</time></trkpt><trkpt lat="40.0382317" lon="8.56156"><ele>19.833333333333336</ele><time>2026-04-20T10:52:17.787Z</time></trkpt><trkpt lat="40.0381683" lon="8.561495"><ele>19.666666666666668</ele><time>2026-04-20T10:52:18.786Z</time></trkpt><trkpt lat="40.0380983" lon="8.5614283"><ele>19.5</ele><time>2026-04-20T10:52:19.786Z</time></trkpt><trkpt lat="40.0380217" lon="8.5613617"><ele>19.333333333333332</ele><time>2026-04-20T10:52:20.786Z</time></trkpt><trkpt lat="40.0379483" lon="8.5612917"><ele>19.166666666666664</ele><time>2026-04-20T10:52:21.786Z</time></trkpt><trkpt lat="40.0378767" lon="8.561215"><ele>19.0</ele><time>2026-04-20T10:52:22.786Z</time></trkpt><trkpt lat="40.03781" lon="8.5611367"><ele>19.4</ele><time>2026-04-20T10:52:23.786Z</time></trkpt><trkpt lat="40.0377533" lon="8.56106"><ele>19.799999999999997</ele><time>2026-04-20T10:52:24.786Z</time></trkpt><trkpt lat="40.0376933" lon="8.5609883"><ele>20.200000000000003</ele><time>2026-04-20T10:52:25.786Z</time></trkpt><trkpt lat="40.03764" lon="8.560915"><ele>20.6</ele><time>2026-04-20T10:52:26.787Z</time></trkpt><trkpt lat="40.0375533" lon="8.5607817"><ele>21.0</ele><time>2026-04-20T10:52:28.786Z</time></trkpt><trkpt lat="40.0374933" lon="8.5607"><ele>20.75</ele><time>2026-04-20T10:52:29.786Z</time></trkpt><trkpt lat="40.03743" lon="8.560615"><ele>20.5</ele><time>2026-04-20T10:52:30.786Z</time></trkpt><trkpt lat="40.0373667" lon="8.560525"><ele>20.25</ele><time>2026-04-20T10:52:31.787Z</time></trkpt><trkpt lat="40.03723" lon="8.5603283"><ele>20.0</ele><time>2026-04-20T10:52:33.786Z</time></trkpt><trkpt lat="40.0371633" lon="8.5602117"><ele>20.6</ele><time>2026-04-20T10:52:34.787Z</time></trkpt><trkpt lat="40.0370933" lon="8.560095"><ele>21.2</ele><time>2026-04-20T10:52:35.786Z</time></trkpt><trkpt lat="40.0370283" lon="8.5599933"><ele>21.799999999999997</ele><time>2026-04-20T10:52:36.786Z</time></trkpt><trkpt lat="40.0369683" lon="8.5599033"><ele>22.4</ele><time>2026-04-20T10:52:37.786Z</time></trkpt><trkpt lat="40.0369083" lon="8.5598183"><ele>23.0</ele><time>2026-04-20T10:52:38.786Z</time></trkpt><trkpt lat="40.0368517" lon="8.5597333"><ele>23.0</ele><time>2026-04-20T10:52:39.786Z</time></trkpt><trkpt lat="40.0367867" lon="8.55966"><ele>23.0</ele><time>2026-04-20T10:52:40.786Z</time></trkpt><trkpt lat="40.0367283" lon="8.5595917"><ele>23.0</ele><time>2026-04-20T10:52:41.786Z</time></trkpt><trkpt lat="40.0366617" lon="8.5595367"><ele>23.0</ele><time>2026-04-20T10:52:42.786Z</time></trkpt><trkpt lat="40.0366" lon="8.5594833"><ele>23.0</ele><time>2026-04-20T10:52:43.786Z</time></trkpt><trkpt lat="40.0365367" lon="8.5594183"><ele>23.0</ele><time>2026-04-20T10:52:44.786Z</time></trkpt><trkpt lat="40.0364667" lon="8.55934"><ele>22.799999999999997</ele><time>2026-04-20T10:52:45.786Z</time></trkpt><trkpt lat="40.036385" lon="8.5592617"><ele>22.6</ele><time>2026-04-20T10:52:46.786Z</time></trkpt><trkpt lat="40.0362833" lon="8.5591883"><ele>22.4</ele><time>2026-04-20T10:52:47.786Z</time></trkpt><trkpt lat="40.0361783" lon="8.55913"><ele>22.200000000000003</ele><time>2026-04-20T10:52:48.787Z</time></trkpt><trkpt lat="40.03608" lon="8.55907"><ele>22.0</ele><time>2026-04-20T10:52:49.786Z</time></trkpt><trkpt lat="40.03599" lon="8.558995"><ele>22.0</ele><time>2026-04-20T10:52:50.786Z</time></trkpt><trkpt lat="40.035895" lon="8.5588933"><ele>22.0</ele><time>2026-04-20T10:52:51.786Z</time></trkpt><trkpt lat="40.0358083" lon="8.5587817"><ele>22.0</ele><time>2026-04-20T10:52:52.786Z</time></trkpt><trkpt lat="40.03563" lon="8.5585283"><ele>21.6</ele><time>2026-04-20T10:52:54.786Z</time></trkpt><trkpt lat="40.0355517" lon="8.5584167"><ele>21.200000000000003</ele><time>2026-04-20T10:52:55.786Z</time></trkpt><trkpt lat="40.03547" lon="8.5583167"><ele>20.8</ele><time>2026-04-20T10:52:56.786Z</time></trkpt><trkpt lat="40.03538" lon="8.5582533"><ele>20.4</ele><time>2026-04-20T10:52:57.786Z</time></trkpt><trkpt lat="40.0352783" lon="8.5581783"><ele>20.0</ele><time>2026-04-20T10:52:58.786Z</time></trkpt><trkpt lat="40.0351683" lon="8.5581017"><ele>20.0</ele><time>2026-04-20T10:52:59.786Z</time></trkpt><trkpt lat="40.035075" lon="8.558025"><ele>20.0</ele><time>2026-04-20T10:53:00.786Z</time></trkpt><trkpt lat="40.0349933" lon="8.5579433"><ele>20.0</ele><time>2026-04-20T10:53:01.786Z</time></trkpt><trkpt lat="40.0349317" lon="8.5578683"><ele>20.0</ele><time>2026-04-20T10:53:02.786Z</time></trkpt><trkpt lat="40.03487" lon="8.5577967"><ele>20.0</ele><time>2026-04-20T10:53:03.786Z</time></trkpt><trkpt lat="40.0348" lon="8.557715"><ele>20.5</ele><time>2026-04-20T10:53:04.786Z</time></trkpt><trkpt lat="40.0347267" lon="8.55761"><ele>21.0</ele><time>2026-04-20T10:53:05.786Z</time></trkpt><trkpt lat="40.0346433" lon="8.5574933"><ele>21.5</ele><time>2026-04-20T10:53:06.786Z</time></trkpt><trkpt lat="40.0345517" lon="8.5573633"><ele>22.0</ele><time>2026-04-20T10:53:07.786Z</time></trkpt><trkpt lat="40.0344533" lon="8.5572333"><ele>22.0</ele><time>2026-04-20T10:53:08.786Z</time></trkpt><trkpt lat="40.034325" lon="8.5571067"><ele>22.0</ele><time>2026-04-20T10:53:09.786Z</time></trkpt><trkpt lat="40.0341967" lon="8.5569833"><ele>22.0</ele><time>2026-04-20T10:53:10.786Z</time></trkpt><trkpt lat="40.03407" lon="8.5568483"><ele>22.666666666666664</ele><time>2026-04-20T10:53:11.786Z</time></trkpt><trkpt lat="40.0339417" lon="8.5567183"><ele>23.333333333333332</ele><time>2026-04-20T10:53:12.786Z</time></trkpt><trkpt lat="40.0338183" lon="8.5565883"><ele>24.0</ele><time>2026-04-20T10:53:13.786Z</time></trkpt><trkpt lat="40.0335767" lon="8.5563333"><ele>24.0</ele><time>2026-04-20T10:53:15.786Z</time></trkpt><trkpt lat="40.03346" lon="8.55622"><ele>24.0</ele><time>2026-04-20T10:53:16.786Z</time></trkpt><trkpt lat="40.0333467" lon="8.556115"><ele>24.0</ele><time>2026-04-20T10:53:17.786Z</time></trkpt><trkpt lat="40.033225" lon="8.5560183"><ele>24.0</ele><time>2026-04-20T10:53:18.787Z</time></trkpt><trkpt lat="40.0331217" lon="8.5559167"><ele>24.5</ele><time>2026-04-20T10:53:19.786Z</time></trkpt><trkpt lat="40.0330233" lon="8.5558067"><ele>25.0</ele><time>2026-04-20T10:53:20.786Z</time></trkpt><trkpt lat="40.03293" lon="8.5556733"><ele>25.5</ele><time>2026-04-20T10:53:21.786Z</time></trkpt><trkpt lat="40.032835" lon="8.5555267"><ele>26.0</ele><time>2026-04-20T10:53:22.786Z</time></trkpt><trkpt lat="40.0327367" lon="8.5553717"><ele>26.333333333333332</ele><time>2026-04-20T10:53:23.786Z</time></trkpt><trkpt lat="40.032625" lon="8.5552183"><ele>26.666666666666664</ele><time>2026-04-20T10:53:24.786Z</time></trkpt><trkpt lat="40.032505" lon="8.555065"><ele>27.0</ele><time>2026-04-20T10:53:25.786Z</time></trkpt><trkpt lat="40.032365" lon="8.5549033"><ele>27.0</ele><time>2026-04-20T10:53:26.787Z</time></trkpt><trkpt lat="40.0322233" lon="8.55474"><ele>27.0</ele><time>2026-04-20T10:53:27.786Z</time></trkpt><trkpt lat="40.03209" lon="8.5545733"><ele>27.0</ele><time>2026-04-20T10:53:28.787Z</time></trkpt><trkpt lat="40.031955" lon="8.5544067"><ele>27.0</ele><time>2026-04-20T10:53:29.786Z</time></trkpt><trkpt lat="40.0318267" lon="8.5542367"><ele>27.0</ele><time>2026-04-20T10:53:30.786Z</time></trkpt><trkpt lat="40.031695" lon="8.5540583"><ele>27.0</ele><time>2026-04-20T10:53:31.786Z</time></trkpt><trkpt lat="40.0315617" lon="8.5538633"><ele>27.0</ele><time>2026-04-20T10:53:32.786Z</time></trkpt><trkpt lat="40.0314317" lon="8.5536733"><ele>27.0</ele><time>2026-04-20T10:53:33.786Z</time></trkpt><trkpt lat="40.0313033" lon="8.55348"><ele>27.0</ele><time>2026-04-20T10:53:34.786Z</time></trkpt><trkpt lat="40.0310667" lon="8.5531067"><ele>27.0</ele><time>2026-04-20T10:53:36.786Z</time></trkpt><trkpt lat="40.0309567" lon="8.5529333"><ele>27.0</ele><time>2026-04-20T10:53:37.786Z</time></trkpt><trkpt lat="40.0308583" lon="8.552775"><ele>27.0</ele><time>2026-04-20T10:53:38.787Z</time></trkpt><trkpt lat="40.0307533" lon="8.5526433"><ele>27.0</ele><time>2026-04-20T10:53:39.786Z</time></trkpt><trkpt lat="40.0306417" lon="8.5525417"><ele>27.0</ele><time>2026-04-20T10:53:40.786Z</time></trkpt><trkpt lat="40.03053" lon="8.5524617"><ele>27.0</ele><time>2026-04-20T10:53:41.786Z</time></trkpt><trkpt lat="40.030415" lon="8.5523883"><ele>27.0</ele><time>2026-04-20T10:53:42.787Z</time></trkpt><trkpt lat="40.030325" lon="8.5523167"><ele>27.0</ele><time>2026-04-20T10:53:43.786Z</time></trkpt><trkpt lat="40.0302333" lon="8.5522283"><ele>27.0</ele><time>2026-04-20T10:53:44.786Z</time></trkpt><trkpt lat="40.0301433" lon="8.552125"><ele>27.0</ele><time>2026-04-20T10:53:45.787Z</time></trkpt><trkpt lat="40.0300517" lon="8.552015"><ele>27.0</ele><time>2026-04-20T10:53:46.787Z</time></trkpt><trkpt lat="40.0299683" lon="8.5519067"><ele>25.75</ele><time>2026-04-20T10:53:47.786Z</time></trkpt><trkpt lat="40.0298817" lon="8.5518133"><ele>24.5</ele><time>2026-04-20T10:53:48.786Z</time></trkpt><trkpt lat="40.0297933" lon="8.5517183"><ele>23.25</ele><time>2026-04-20T10:53:49.786Z</time></trkpt><trkpt lat="40.0296983" lon="8.551625"><ele>22.0</ele><time>2026-04-20T10:53:50.786Z</time></trkpt><trkpt lat="40.0295967" lon="8.5515233"><ele>22.0</ele><time>2026-04-20T10:53:51.787Z</time></trkpt><trkpt lat="40.029495" lon="8.55142"><ele>22.0</ele><time>2026-04-20T10:53:52.786Z</time></trkpt><trkpt lat="40.0293983" lon="8.5513183"><ele>22.0</ele><time>2026-04-20T10:53:53.786Z</time></trkpt><trkpt lat="40.029315" lon="8.5512233"><ele>22.0</ele><time>2026-04-20T10:53:54.786Z</time></trkpt><trkpt lat="40.0292233" lon="8.551115"><ele>21.75</ele><time>2026-04-20T10:53:55.786Z</time></trkpt><trkpt lat="40.0290867" lon="8.5508717"><ele>21.5</ele><time>2026-04-20T10:53:57.786Z</time></trkpt><trkpt lat="40.0290183" lon="8.550765"><ele>21.25</ele><time>2026-04-20T10:53:58.786Z</time></trkpt><trkpt lat="40.0289483" lon="8.5506567"><ele>21.0</ele><time>2026-04-20T10:53:59.786Z</time></trkpt><trkpt lat="40.0288883" lon="8.5505467"><ele>21.0</ele><time>2026-04-20T10:54:00.786Z</time></trkpt><trkpt lat="40.0288183" lon="8.5504433"><ele>21.0</ele><time>2026-04-20T10:54:01.786Z</time></trkpt><trkpt lat="40.0287533" lon="8.55034"><ele>21.0</ele><time>2026-04-20T10:54:02.786Z</time></trkpt><trkpt lat="40.0286833" lon="8.5502483"><ele>21.0</ele><time>2026-04-20T10:54:03.786Z</time></trkpt><trkpt lat="40.0286167" lon="8.55016"><ele>21.0</ele><time>2026-04-20T10:54:04.786Z</time></trkpt><trkpt lat="40.0285517" lon="8.5500617"><ele>21.0</ele><time>2026-04-20T10:54:05.786Z</time></trkpt><trkpt lat="40.02849" lon="8.54995"><ele>21.0</ele><time>2026-04-20T10:54:06.787Z</time></trkpt><trkpt lat="40.02844" lon="8.5498267"><ele>21.0</ele><time>2026-04-20T10:54:07.786Z</time></trkpt><trkpt lat="40.0283867" lon="8.5497017"><ele>21.0</ele><time>2026-04-20T10:54:08.786Z</time></trkpt><trkpt lat="40.02833" lon="8.54959"><ele>21.0</ele><time>2026-04-20T10:54:09.786Z</time></trkpt><trkpt lat="40.0282867" lon="8.549495"><ele>21.0</ele><time>2026-04-20T10:54:10.786Z</time></trkpt><trkpt lat="40.0282517" lon="8.54941"><ele>21.0</ele><time>2026-04-20T10:54:11.786Z</time></trkpt><trkpt lat="40.0282217" lon="8.5493333"><ele>21.0</ele><time>2026-04-20T10:54:12.786Z</time></trkpt><trkpt lat="40.028175" lon="8.5492333"><ele>21.0</ele><time>2026-04-20T10:54:14.786Z</time></trkpt><trkpt lat="40.0281117" lon="8.5491867"><ele>21.0</ele><time>2026-04-20T10:54:16.786Z</time></trkpt><trkpt lat="40.0279517" lon="8.5492733"><ele>21.0</ele><time>2026-04-20T10:55:48.785Z</time></trkpt><trkpt lat="40.0277633" lon="8.5493717"><ele>21.0</ele><time>2026-04-20T10:55:52.785Z</time></trkpt><trkpt lat="40.02765" lon="8.5494217"><ele>21.0</ele><time>2026-04-20T10:55:54.785Z</time></trkpt><trkpt lat="40.02756" lon="8.5494883"><ele>21.0</ele><time>2026-04-20T10:55:56.785Z</time></trkpt><trkpt lat="40.0274883" lon="8.5495267"><ele>21.0</ele><time>2026-04-20T10:55:58.786Z</time></trkpt><trkpt lat="40.02741" lon="8.54953"><ele>21.0</ele><time>2026-04-20T10:56:00.785Z</time></trkpt><trkpt lat="40.0273333" lon="8.5494767"><ele>21.0</ele><time>2026-04-20T10:56:02.786Z</time></trkpt><trkpt lat="40.0272817" lon="8.5494083"><ele>21.0</ele><time>2026-04-20T10:56:04.785Z</time></trkpt><trkpt lat="40.0272433" lon="8.54934"><ele>21.0</ele><time>2026-04-20T10:56:06.786Z</time></trkpt><trkpt lat="40.0271867" lon="8.5492317"><ele>21.0</ele><time>2026-04-20T10:56:08.785Z</time></trkpt><trkpt lat="40.02713" lon="8.549185"><ele>21.0</ele><time>2026-04-20T10:56:09.785Z</time></trkpt><trkpt lat="40.0270133" lon="8.549105"><ele>21.0</ele><time>2026-04-20T10:56:11.785Z</time></trkpt><trkpt lat="40.0269517" lon="8.5490667"><ele>21.0</ele><time>2026-04-20T10:56:12.785Z</time></trkpt><trkpt lat="40.0268967" lon="8.5490267"><ele>21.0</ele><time>2026-04-20T10:56:13.785Z</time></trkpt><trkpt lat="40.0267817" lon="8.5489417"><ele>21.0</ele><time>2026-04-20T10:56:15.785Z</time></trkpt><trkpt lat="40.02672" lon="8.548895"><ele>21.0</ele><time>2026-04-20T10:56:16.785Z</time></trkpt><trkpt lat="40.026655" lon="8.54885"><ele>21.0</ele><time>2026-04-20T10:56:17.785Z</time></trkpt><trkpt lat="40.026585" lon="8.5488067"><ele>21.0</ele><time>2026-04-20T10:56:18.786Z</time></trkpt><trkpt lat="40.0265117" lon="8.54876"><ele>21.0</ele><time>2026-04-20T10:56:19.785Z</time></trkpt><trkpt lat="40.0264383" lon="8.5487067"><ele>21.0</ele><time>2026-04-20T10:56:20.785Z</time></trkpt><trkpt lat="40.02636" lon="8.5486533"><ele>21.0</ele><time>2026-04-20T10:56:21.785Z</time></trkpt><trkpt lat="40.0262817" lon="8.5486033"><ele>21.166666666666668</ele><time>2026-04-20T10:56:22.785Z</time></trkpt><trkpt lat="40.0262083" lon="8.5485567"><ele>21.333333333333332</ele><time>2026-04-20T10:56:23.785Z</time></trkpt><trkpt lat="40.0261367" lon="8.5484983"><ele>21.5</ele><time>2026-04-20T10:56:24.785Z</time></trkpt><trkpt lat="40.0260667" lon="8.5484333"><ele>21.666666666666664</ele><time>2026-04-20T10:56:25.785Z</time></trkpt><trkpt lat="40.0259967" lon="8.54837"><ele>21.833333333333332</ele><time>2026-04-20T10:56:26.785Z</time></trkpt><trkpt lat="40.0259267" lon="8.548305"><ele>22.0</ele><time>2026-04-20T10:56:27.785Z</time></trkpt><trkpt lat="40.0258617" lon="8.54823"><ele>21.75</ele><time>2026-04-20T10:56:28.785Z</time></trkpt><trkpt lat="40.0257817" lon="8.5481567"><ele>21.5</ele><time>2026-04-20T10:56:29.785Z</time></trkpt><trkpt lat="40.0257017" lon="8.54809"><ele>21.25</ele><time>2026-04-20T10:56:30.785Z</time></trkpt><trkpt lat="40.0255433" lon="8.5479783"><ele>21.0</ele><time>2026-04-20T10:56:32.785Z</time></trkpt><trkpt lat="40.02546" lon="8.5479183"><ele>21.200000000000003</ele><time>2026-04-20T10:56:33.785Z</time></trkpt><trkpt lat="40.0253717" lon="8.5478683"><ele>21.400000000000002</ele><time>2026-04-20T10:56:34.786Z</time></trkpt><trkpt lat="40.0252767" lon="8.5478117"><ele>21.6</ele><time>2026-04-20T10:56:35.785Z</time></trkpt><trkpt lat="40.025185" lon="8.5477483"><ele>21.8</ele><time>2026-04-20T10:56:36.785Z</time></trkpt><trkpt lat="40.025105" lon="8.5476867"><ele>22.0</ele><time>2026-04-20T10:56:37.785Z</time></trkpt><trkpt lat="40.0250183" lon="8.5476267"><ele>21.400000000000002</ele><time>2026-04-20T10:56:38.785Z</time></trkpt><trkpt lat="40.0249333" lon="8.547565"><ele>20.8</ele><time>2026-04-20T10:56:39.785Z</time></trkpt><trkpt lat="40.0248417" lon="8.5475017"><ele>20.2</ele><time>2026-04-20T10:56:40.785Z</time></trkpt><trkpt lat="40.0247483" lon="8.54745"><ele>19.6</ele><time>2026-04-20T10:56:41.785Z</time></trkpt><trkpt lat="40.0246533" lon="8.5474083"><ele>19.0</ele><time>2026-04-20T10:56:42.785Z</time></trkpt><trkpt lat="40.02456" lon="8.5473583"><ele>19.0</ele><time>2026-04-20T10:56:43.785Z</time></trkpt><trkpt lat="40.02446" lon="8.547315"><ele>19.0</ele><time>2026-04-20T10:56:44.785Z</time></trkpt><trkpt lat="40.0243633" lon="8.5472733"><ele>19.0</ele><time>2026-04-20T10:56:45.785Z</time></trkpt><trkpt lat="40.0242667" lon="8.5472317"><ele>19.0</ele><time>2026-04-20T10:56:46.785Z</time></trkpt><trkpt lat="40.02417" lon="8.54719"><ele>19.0</ele><time>2026-04-20T10:56:47.785Z</time></trkpt><trkpt lat="40.0240717" lon="8.5471383"><ele>18.5</ele><time>2026-04-20T10:56:48.785Z</time></trkpt><trkpt lat="40.0239817" lon="8.5470933"><ele>18.0</ele><time>2026-04-20T10:56:49.785Z</time></trkpt><trkpt lat="40.0238883" lon="8.5470483"><ele>17.5</ele><time>2026-04-20T10:56:50.785Z</time></trkpt><trkpt lat="40.0238" lon="8.5470033"><ele>17.0</ele><time>2026-04-20T10:56:51.785Z</time></trkpt><trkpt lat="40.0236217" lon="8.5468967"><ele>17.0</ele><time>2026-04-20T10:56:53.786Z</time></trkpt><trkpt lat="40.0235283" lon="8.546855"><ele>17.0</ele><time>2026-04-20T10:56:54.785Z</time></trkpt><trkpt lat="40.02344" lon="8.54682"><ele>17.0</ele><time>2026-04-20T10:56:55.785Z</time></trkpt><trkpt lat="40.023345" lon="8.5467733"><ele>17.0</ele><time>2026-04-20T10:56:56.786Z</time></trkpt><trkpt lat="40.0232633" lon="8.5467267"><ele>17.0</ele><time>2026-04-20T10:56:57.786Z</time></trkpt><trkpt lat="40.0231883" lon="8.546675"><ele>17.0</ele><time>2026-04-20T10:56:58.785Z</time></trkpt><trkpt lat="40.0231133" lon="8.54662"><ele>17.0</ele><time>2026-04-20T10:56:59.786Z</time></trkpt><trkpt lat="40.0230417" lon="8.5465633"><ele>17.0</ele><time>2026-04-20T10:57:00.785Z</time></trkpt><trkpt lat="40.022975" lon="8.546505"><ele>17.0</ele><time>2026-04-20T10:57:01.785Z</time></trkpt><trkpt lat="40.022905" lon="8.5464433"><ele>17.0</ele><time>2026-04-20T10:57:02.785Z</time></trkpt><trkpt lat="40.022835" lon="8.546375"><ele>17.0</ele><time>2026-04-20T10:57:03.785Z</time></trkpt><trkpt lat="40.0227733" lon="8.54632"><ele>17.0</ele><time>2026-04-20T10:57:04.785Z</time></trkpt><trkpt lat="40.0227233" lon="8.5462633"><ele>17.0</ele><time>2026-04-20T10:57:05.786Z</time></trkpt><trkpt lat="40.0226483" lon="8.54618"><ele>17.0</ele><time>2026-04-20T10:57:07.785Z</time></trkpt><trkpt lat="40.0225783" lon="8.5461083"><ele>17.0</ele><time>2026-04-20T10:57:24.785Z</time></trkpt><trkpt lat="40.0224667" lon="8.5460167"><ele>17.0</ele><time>2026-04-20T10:57:26.785Z</time></trkpt><trkpt lat="40.0224133" lon="8.5459617"><ele>17.0</ele><time>2026-04-20T10:57:27.785Z</time></trkpt><trkpt lat="40.0223633" lon="8.545905"><ele>17.0</ele><time>2026-04-20T10:57:28.785Z</time></trkpt><trkpt lat="40.022275" lon="8.5458033"><ele>17.0</ele><time>2026-04-20T10:57:30.785Z</time></trkpt><trkpt lat="40.02223" lon="8.54574"><ele>17.0</ele><time>2026-04-20T10:57:31.785Z</time></trkpt><trkpt lat="40.02217" lon="8.545665"><ele>17.0</ele><time>2026-04-20T10:57:32.785Z</time></trkpt><trkpt lat="40.0221117" lon="8.5455833"><ele>17.0</ele><time>2026-04-20T10:57:33.785Z</time></trkpt><trkpt lat="40.0220483" lon="8.545495"><ele>17.0</ele><time>2026-04-20T10:57:34.785Z</time></trkpt><trkpt lat="40.021985" lon="8.545395"><ele>17.0</ele><time>2026-04-20T10:57:35.785Z</time></trkpt><trkpt lat="40.0219133" lon="8.54528"><ele>17.0</ele><time>2026-04-20T10:57:36.785Z</time></trkpt><trkpt lat="40.0218383" lon="8.5451567"><ele>17.0</ele><time>2026-04-20T10:57:37.785Z</time></trkpt><trkpt lat="40.0217733" lon="8.5450467"><ele>17.0</ele><time>2026-04-20T10:57:38.785Z</time></trkpt><trkpt lat="40.0217117" lon="8.544935"><ele>17.166666666666668</ele><time>2026-04-20T10:57:39.785Z</time></trkpt><trkpt lat="40.0216533" lon="8.5448367"><ele>17.333333333333336</ele><time>2026-04-20T10:57:40.785Z</time></trkpt><trkpt lat="40.021605" lon="8.54475"><ele>17.5</ele><time>2026-04-20T10:57:41.785Z</time></trkpt><trkpt lat="40.02156" lon="8.5446717"><ele>17.666666666666668</ele><time>2026-04-20T10:57:42.785Z</time></trkpt><trkpt lat="40.021515" lon="8.5445983"><ele>17.833333333333332</ele><time>2026-04-20T10:57:43.785Z</time></trkpt><trkpt lat="40.0214717" lon="8.5445233"><ele>18.0</ele><time>2026-04-20T10:57:44.785Z</time></trkpt><trkpt lat="40.0214317" lon="8.5444383"><ele>18.2</ele><time>2026-04-20T10:57:45.785Z</time></trkpt><trkpt lat="40.0213317" lon="8.5442417"><ele>18.4</ele><time>2026-04-20T10:57:47.785Z</time></trkpt><trkpt lat="40.02129" lon="8.5441583"><ele>18.599999999999998</ele><time>2026-04-20T10:57:48.785Z</time></trkpt><trkpt lat="40.0212433" lon="8.544095"><ele>18.8</ele><time>2026-04-20T10:57:49.785Z</time></trkpt><trkpt lat="40.0211667" lon="8.54403"><ele>19.0</ele><time>2026-04-20T10:57:51.786Z</time></trkpt><trkpt lat="40.021075" lon="8.544035"><ele>19.0</ele><time>2026-04-20T10:57:53.785Z</time></trkpt><trkpt lat="40.0209817" lon="8.5440067"><ele>19.0</ele><time>2026-04-20T10:57:55.785Z</time></trkpt><trkpt lat="40.0208883" lon="8.5438883"><ele>19.0</ele><time>2026-04-20T10:57:57.785Z</time></trkpt><trkpt lat="40.020845" lon="8.5438"><ele>19.0</ele><time>2026-04-20T10:57:58.785Z</time></trkpt><trkpt lat="40.020795" lon="8.5437067"><ele>19.0</ele><time>2026-04-20T10:57:59.785Z</time></trkpt><trkpt lat="40.0207417" lon="8.543615"><ele>19.2</ele><time>2026-04-20T10:58:00.785Z</time></trkpt><trkpt lat="40.02068" lon="8.5435267"><ele>19.4</ele><time>2026-04-20T10:58:01.785Z</time></trkpt><trkpt lat="40.0206133" lon="8.5434367"><ele>19.6</ele><time>2026-04-20T10:58:02.785Z</time></trkpt><trkpt lat="40.0205417" lon="8.543355"><ele>19.8</ele><time>2026-04-20T10:58:03.785Z</time></trkpt><trkpt lat="40.02047" lon="8.5432683"><ele>20.0</ele><time>2026-04-20T10:58:04.785Z</time></trkpt><trkpt lat="40.020405" lon="8.543195"><ele>20.0</ele><time>2026-04-20T10:58:05.785Z</time></trkpt><trkpt lat="40.0203417" lon="8.543115"><ele>20.0</ele><time>2026-04-20T10:58:06.785Z</time></trkpt><trkpt lat="40.02024" lon="8.5429417"><ele>20.0</ele><time>2026-04-20T10:58:08.785Z</time></trkpt><trkpt lat="40.0201983" lon="8.5428567"><ele>20.0</ele><time>2026-04-20T10:58:09.785Z</time></trkpt><trkpt lat="40.0201533" lon="8.5427783"><ele>20.0</ele><time>2026-04-20T10:58:10.786Z</time></trkpt><trkpt lat="40.0201067" lon="8.5427133"><ele>20.0</ele><time>2026-04-20T10:58:11.785Z</time></trkpt><trkpt lat="40.020055" lon="8.542655"><ele>20.0</ele><time>2026-04-20T10:58:12.785Z</time></trkpt><trkpt lat="40.019995" lon="8.5426083"><ele>20.0</ele><time>2026-04-20T10:58:13.786Z</time></trkpt><trkpt lat="40.0199367" lon="8.5425583"><ele>20.0</ele><time>2026-04-20T10:58:14.785Z</time></trkpt><trkpt lat="40.0198767" lon="8.5425067"><ele>20.0</ele><time>2026-04-20T10:58:15.785Z</time></trkpt><trkpt lat="40.0198067" lon="8.5424433"><ele>20.0</ele><time>2026-04-20T10:58:16.785Z</time></trkpt><trkpt lat="40.01973" lon="8.5423833"><ele>19.6</ele><time>2026-04-20T10:58:17.785Z</time></trkpt><trkpt lat="40.0196517" lon="8.542315"><ele>19.2</ele><time>2026-04-20T10:58:18.785Z</time></trkpt><trkpt lat="40.01957" lon="8.5422483"><ele>18.8</ele><time>2026-04-20T10:58:19.785Z</time></trkpt><trkpt lat="40.0194917" lon="8.5421783"><ele>18.4</ele><time>2026-04-20T10:58:20.785Z</time></trkpt><trkpt lat="40.01941" lon="8.5421117"><ele>18.0</ele><time>2026-04-20T10:58:21.785Z</time></trkpt><trkpt lat="40.0193317" lon="8.5420433"><ele>18.0</ele><time>2026-04-20T10:58:22.785Z</time></trkpt><trkpt lat="40.01925" lon="8.5419817"><ele>18.0</ele><time>2026-04-20T10:58:23.786Z</time></trkpt><trkpt lat="40.0191683" lon="8.5419183"><ele>18.0</ele><time>2026-04-20T10:58:24.785Z</time></trkpt><trkpt lat="40.01909" lon="8.5418517"><ele>18.0</ele><time>2026-04-20T10:58:25.785Z</time></trkpt><trkpt lat="40.0190167" lon="8.54179"><ele>18.0</ele><time>2026-04-20T10:58:26.785Z</time></trkpt><trkpt lat="40.0189433" lon="8.5417233"><ele>18.0</ele><time>2026-04-20T10:58:27.786Z</time></trkpt><trkpt lat="40.0187933" lon="8.54161"><ele>18.0</ele><time>2026-04-20T10:58:29.785Z</time></trkpt><trkpt lat="40.0187133" lon="8.54155"><ele>18.0</ele><time>2026-04-20T10:58:30.785Z</time></trkpt><trkpt lat="40.0186433" lon="8.541485"><ele>18.0</ele><time>2026-04-20T10:58:31.785Z</time></trkpt><trkpt lat="40.0185683" lon="8.5414217"><ele>18.0</ele><time>2026-04-20T10:58:32.786Z</time></trkpt><trkpt lat="40.0184967" lon="8.5413517"><ele>18.0</ele><time>2026-04-20T10:58:33.785Z</time></trkpt><trkpt lat="40.0184183" lon="8.5412833"><ele>18.0</ele><time>2026-04-20T10:58:34.785Z</time></trkpt><trkpt lat="40.0183433" lon="8.5412117"><ele>18.0</ele><time>2026-04-20T10:58:35.785Z</time></trkpt><trkpt lat="40.0182633" lon="8.54113"><ele>18.0</ele><time>2026-04-20T10:58:36.785Z</time></trkpt><trkpt lat="40.01818" lon="8.5410517"><ele>18.0</ele><time>2026-04-20T10:58:37.785Z</time></trkpt><trkpt lat="40.0181" lon="8.5409783"><ele>17.6</ele><time>2026-04-20T10:58:38.785Z</time></trkpt><trkpt lat="40.018015" lon="8.5409017"><ele>17.200000000000003</ele><time>2026-04-20T10:58:39.785Z</time></trkpt><trkpt lat="40.0179367" lon="8.54083"><ele>16.8</ele><time>2026-04-20T10:58:40.785Z</time></trkpt><trkpt lat="40.01786" lon="8.5407617"><ele>16.400000000000002</ele><time>2026-04-20T10:58:41.786Z</time></trkpt><trkpt lat="40.0177883" lon="8.540695"><ele>16.0</ele><time>2026-04-20T10:58:42.785Z</time></trkpt><trkpt lat="40.0177233" lon="8.540625"><ele>16.0</ele><time>2026-04-20T10:58:43.785Z</time></trkpt><trkpt lat="40.01766" lon="8.5405667"><ele>16.0</ele><time>2026-04-20T10:58:44.786Z</time></trkpt><trkpt lat="40.0176" lon="8.5405233"><ele>16.0</ele><time>2026-04-20T10:58:45.786Z</time></trkpt><trkpt lat="40.0175133" lon="8.54046"><ele>16.0</ele><time>2026-04-20T10:58:47.785Z</time></trkpt><trkpt lat="40.0174767" lon="8.5403417"><ele>16.0</ele><time>2026-04-20T10:58:49.786Z</time></trkpt><trkpt lat="40.0175283" lon="8.54002"><ele>16.166666666666664</ele><time>2026-04-20T10:58:53.785Z</time></trkpt><trkpt lat="40.01755" lon="8.5399233"><ele>16.333333333333332</ele><time>2026-04-20T10:58:54.785Z</time></trkpt><trkpt lat="40.0175617" lon="8.539825"><ele>16.5</ele><time>2026-04-20T10:58:55.786Z</time></trkpt><trkpt lat="40.0175633" lon="8.5397233"><ele>16.666666666666668</ele><time>2026-04-20T10:58:56.786Z</time></trkpt><trkpt lat="40.0175583" lon="8.5396167"><ele>16.833333333333336</ele><time>2026-04-20T10:58:57.785Z</time></trkpt><trkpt lat="40.0175617" lon="8.53951"><ele>17.0</ele><time>2026-04-20T10:58:58.785Z</time></trkpt><trkpt lat="40.01758" lon="8.5393983"><ele>17.0</ele><time>2026-04-20T10:58:59.785Z</time></trkpt><trkpt lat="40.0176017" lon="8.5392967"><ele>17.0</ele><time>2026-04-20T10:59:00.785Z</time></trkpt><trkpt lat="40.0176317" lon="8.5391983"><ele>17.0</ele><time>2026-04-20T10:59:01.785Z</time></trkpt><trkpt lat="40.01767" lon="8.5391017"><ele>17.0</ele><time>2026-04-20T10:59:02.785Z</time></trkpt><trkpt lat="40.017705" lon="8.539005"><ele>17.0</ele><time>2026-04-20T10:59:03.785Z</time></trkpt><trkpt lat="40.01773" lon="8.5389117"><ele>17.0</ele><time>2026-04-20T10:59:04.785Z</time></trkpt><trkpt lat="40.017755" lon="8.5388333"><ele>17.0</ele><time>2026-04-20T10:59:05.785Z</time></trkpt><trkpt lat="40.017785" lon="8.5387533"><ele>17.0</ele><time>2026-04-20T10:59:06.785Z</time></trkpt><trkpt lat="40.01784" lon="8.5386083"><ele>17.0</ele><time>2026-04-20T10:59:08.785Z</time></trkpt><trkpt lat="40.01787" lon="8.538525"><ele>17.0</ele><time>2026-04-20T10:59:09.785Z</time></trkpt><trkpt lat="40.01793" lon="8.53838"><ele>17.0</ele><time>2026-04-20T10:59:11.785Z</time></trkpt><trkpt lat="40.0180033" lon="8.53818"><ele>16.8</ele><time>2026-04-20T10:59:13.786Z</time></trkpt><trkpt lat="40.018035" lon="8.5380683"><ele>16.6</ele><time>2026-04-20T10:59:14.785Z</time></trkpt><trkpt lat="40.01807" lon="8.537945"><ele>16.400000000000002</ele><time>2026-04-20T10:59:15.785Z</time></trkpt><trkpt lat="40.01811" lon="8.5378183"><ele>16.2</ele><time>2026-04-20T10:59:16.785Z</time></trkpt><trkpt lat="40.0181483" lon="8.5376983"><ele>16.0</ele><time>2026-04-20T10:59:17.785Z</time></trkpt><trkpt lat="40.0181867" lon="8.5375817"><ele>16.400000000000002</ele><time>2026-04-20T10:59:18.785Z</time></trkpt><trkpt lat="40.0182117" lon="8.5374717"><ele>16.8</ele><time>2026-04-20T10:59:19.785Z</time></trkpt><trkpt lat="40.0182383" lon="8.53736"><ele>17.200000000000003</ele><time>2026-04-20T10:59:20.785Z</time></trkpt><trkpt lat="40.018265" lon="8.5372417"><ele>17.6</ele><time>2026-04-20T10:59:21.785Z</time></trkpt><trkpt lat="40.01829" lon="8.5371167"><ele>18.0</ele><time>2026-04-20T10:59:22.785Z</time></trkpt><trkpt lat="40.0183133" lon="8.537005"><ele>18.6</ele><time>2026-04-20T10:59:23.785Z</time></trkpt><trkpt lat="40.0183433" lon="8.536895"><ele>19.200000000000003</ele><time>2026-04-20T10:59:24.785Z</time></trkpt><trkpt lat="40.0183783" lon="8.5367817"><ele>19.8</ele><time>2026-04-20T10:59:25.785Z</time></trkpt><trkpt lat="40.018425" lon="8.5366633"><ele>20.400000000000002</ele><time>2026-04-20T10:59:26.786Z</time></trkpt><trkpt lat="40.0184717" lon="8.53654"><ele>21.0</ele><time>2026-04-20T10:59:27.785Z</time></trkpt><trkpt lat="40.01851" lon="8.536425"><ele>21.0</ele><time>2026-04-20T10:59:28.785Z</time></trkpt><trkpt lat="40.0185433" lon="8.5363083"><ele>21.0</ele><time>2026-04-20T10:59:29.785Z</time></trkpt><trkpt lat="40.0185733" lon="8.5361733"><ele>21.0</ele><time>2026-04-20T10:59:30.785Z</time></trkpt><trkpt lat="40.0186033" lon="8.5360533"><ele>21.0</ele><time>2026-04-20T10:59:31.785Z</time></trkpt><trkpt lat="40.018625" lon="8.53593"><ele>21.0</ele><time>2026-04-20T10:59:32.785Z</time></trkpt><trkpt lat="40.0186483" lon="8.535685"><ele>21.166666666666668</ele><time>2026-04-20T10:59:34.785Z</time></trkpt><trkpt lat="40.0186483" lon="8.5355833"><ele>21.333333333333332</ele><time>2026-04-20T10:59:35.785Z</time></trkpt><trkpt lat="40.018655" lon="8.5354833"><ele>21.5</ele><time>2026-04-20T10:59:36.785Z</time></trkpt><trkpt lat="40.01867" lon="8.5353817"><ele>21.666666666666664</ele><time>2026-04-20T10:59:37.785Z</time></trkpt><trkpt lat="40.0187" lon="8.5352983"><ele>21.833333333333332</ele><time>2026-04-20T10:59:38.785Z</time></trkpt><trkpt lat="40.0187317" lon="8.53521"><ele>22.0</ele><time>2026-04-20T10:59:39.785Z</time></trkpt><trkpt lat="40.0187717" lon="8.53511"><ele>22.0</ele><time>2026-04-20T10:59:40.785Z</time></trkpt><trkpt lat="40.0188217" lon="8.5350083"><ele>22.0</ele><time>2026-04-20T10:59:41.785Z</time></trkpt><trkpt lat="40.0188733" lon="8.5348983"><ele>22.0</ele><time>2026-04-20T10:59:42.785Z</time></trkpt><trkpt lat="40.018925" lon="8.5347717"><ele>22.0</ele><time>2026-04-20T10:59:43.785Z</time></trkpt><trkpt lat="40.0189783" lon="8.5346433"><ele>22.0</ele><time>2026-04-20T10:59:44.785Z</time></trkpt><trkpt lat="40.0190367" lon="8.5345217"><ele>22.0</ele><time>2026-04-20T10:59:45.785Z</time></trkpt><trkpt lat="40.019095" lon="8.53441"><ele>22.0</ele><time>2026-04-20T10:59:46.785Z</time></trkpt><trkpt lat="40.0191517" lon="8.5343133"><ele>22.0</ele><time>2026-04-20T10:59:47.786Z</time></trkpt><trkpt lat="40.0191967" lon="8.5342167"><ele>22.0</ele><time>2026-04-20T10:59:48.785Z</time></trkpt><trkpt lat="40.019235" lon="8.53411"><ele>22.0</ele><time>2026-04-20T10:59:49.785Z</time></trkpt><trkpt lat="40.0192717" lon="8.5339983"><ele>22.5</ele><time>2026-04-20T10:59:50.786Z</time></trkpt><trkpt lat="40.0192967" lon="8.5338683"><ele>23.0</ele><time>2026-04-20T10:59:51.785Z</time></trkpt><trkpt lat="40.01932" lon="8.5337183"><ele>23.5</ele><time>2026-04-20T10:59:52.785Z</time></trkpt><trkpt lat="40.0193483" lon="8.5335667"><ele>24.0</ele><time>2026-04-20T10:59:53.785Z</time></trkpt><trkpt lat="40.0194283" lon="8.533305"><ele>24.0</ele><time>2026-04-20T10:59:55.785Z</time></trkpt><trkpt lat="40.019475" lon="8.5331717"><ele>24.0</ele><time>2026-04-20T10:59:56.785Z</time></trkpt><trkpt lat="40.0195183" lon="8.533045"><ele>24.0</ele><time>2026-04-20T10:59:57.785Z</time></trkpt><trkpt lat="40.0195433" lon="8.5329033"><ele>24.0</ele><time>2026-04-20T10:59:58.785Z</time></trkpt><trkpt lat="40.019565" lon="8.5327517"><ele>24.0</ele><time>2026-04-20T10:59:59.785Z</time></trkpt><trkpt lat="40.019585" lon="8.5325867"><ele>24.0</ele><time>2026-04-20T11:00:00.785Z</time></trkpt><trkpt lat="40.0196117" lon="8.53242"><ele>24.0</ele><time>2026-04-20T11:00:01.785Z</time></trkpt><trkpt lat="40.0196333" lon="8.532275"><ele>24.0</ele><time>2026-04-20T11:00:02.785Z</time></trkpt><trkpt lat="40.0196467" lon="8.53215"><ele>24.0</ele><time>2026-04-20T11:00:03.785Z</time></trkpt><trkpt lat="40.01965" lon="8.5320283"><ele>24.0</ele><time>2026-04-20T11:00:04.785Z</time></trkpt><trkpt lat="40.0196483" lon="8.5319033"><ele>24.0</ele><time>2026-04-20T11:00:05.785Z</time></trkpt><trkpt lat="40.01964" lon="8.5317633"><ele>24.0</ele><time>2026-04-20T11:00:06.785Z</time></trkpt><trkpt lat="40.0196267" lon="8.53162"><ele>24.0</ele><time>2026-04-20T11:00:07.785Z</time></trkpt><trkpt lat="40.0196117" lon="8.5314783"><ele>24.0</ele><time>2026-04-20T11:00:08.786Z</time></trkpt><trkpt lat="40.0196" lon="8.5313333"><ele>24.0</ele><time>2026-04-20T11:00:09.785Z</time></trkpt><trkpt lat="40.0196" lon="8.53118"><ele>23.75</ele><time>2026-04-20T11:00:10.785Z</time></trkpt><trkpt lat="40.019605" lon="8.531035"><ele>23.5</ele><time>2026-04-20T11:00:11.785Z</time></trkpt><trkpt lat="40.0196083" lon="8.5308883"><ele>23.25</ele><time>2026-04-20T11:00:12.785Z</time></trkpt><trkpt lat="40.0196167" lon="8.53073"><ele>23.0</ele><time>2026-04-20T11:00:13.785Z</time></trkpt><trkpt lat="40.0196233" lon="8.5305767"><ele>23.0</ele><time>2026-04-20T11:00:14.786Z</time></trkpt><trkpt lat="40.01964" lon="8.5302667"><ele>23.0</ele><time>2026-04-20T11:00:16.786Z</time></trkpt><trkpt lat="40.0196533" lon="8.53011"><ele>23.0</ele><time>2026-04-20T11:00:17.785Z</time></trkpt><trkpt lat="40.0196783" lon="8.52996"><ele>23.0</ele><time>2026-04-20T11:00:18.786Z</time></trkpt><trkpt lat="40.0197" lon="8.5298133"><ele>23.0</ele><time>2026-04-20T11:00:19.785Z</time></trkpt><trkpt lat="40.0197267" lon="8.5296867"><ele>23.0</ele><time>2026-04-20T11:00:20.785Z</time></trkpt><trkpt lat="40.01975" lon="8.5295833"><ele>23.0</ele><time>2026-04-20T11:00:21.785Z</time></trkpt><trkpt lat="40.019765" lon="8.52949"><ele>23.0</ele><time>2026-04-20T11:00:22.786Z</time></trkpt><trkpt lat="40.01978" lon="8.529365"><ele>22.799999999999997</ele><time>2026-04-20T11:00:24.784Z</time></trkpt><trkpt lat="40.01971" lon="8.5293183"><ele>22.6</ele><time>2026-04-20T11:00:27.785Z</time></trkpt><trkpt lat="40.0196367" lon="8.5293483"><ele>22.4</ele><time>2026-04-20T11:00:28.784Z</time></trkpt><trkpt lat="40.019545" lon="8.529385"><ele>22.200000000000003</ele><time>2026-04-20T11:00:29.784Z</time></trkpt><trkpt lat="40.0194383" lon="8.5294183"><ele>22.0</ele><time>2026-04-20T11:00:30.784Z</time></trkpt><trkpt lat="40.01932" lon="8.5294517"><ele>22.0</ele><time>2026-04-20T11:00:31.784Z</time></trkpt><trkpt lat="40.01921" lon="8.5294883"><ele>22.0</ele><time>2026-04-20T11:00:32.784Z</time></trkpt><trkpt lat="40.0191033" lon="8.5295167"><ele>22.0</ele><time>2026-04-20T11:00:33.784Z</time></trkpt><trkpt lat="40.019005" lon="8.5295433"><ele>22.0</ele><time>2026-04-20T11:00:34.784Z</time></trkpt><trkpt lat="40.0188233" lon="8.5295933"><ele>22.0</ele><time>2026-04-20T11:00:36.784Z</time></trkpt><trkpt lat="40.018735" lon="8.5296117"><ele>22.0</ele><time>2026-04-20T11:00:37.784Z</time></trkpt><trkpt lat="40.018645" lon="8.5296217"><ele>22.0</ele><time>2026-04-20T11:00:38.784Z</time></trkpt><trkpt lat="40.0185433" lon="8.5296283"><ele>22.0</ele><time>2026-04-20T11:00:39.784Z</time></trkpt><trkpt lat="40.0184417" lon="8.5296317"><ele>22.0</ele><time>2026-04-20T11:00:40.784Z</time></trkpt><trkpt lat="40.0183383" lon="8.5296483"><ele>21.6</ele><time>2026-04-20T11:00:41.785Z</time></trkpt><trkpt lat="40.0182367" lon="8.529665"><ele>21.200000000000003</ele><time>2026-04-20T11:00:42.785Z</time></trkpt><trkpt lat="40.01814" lon="8.5296817"><ele>20.8</ele><time>2026-04-20T11:00:43.784Z</time></trkpt><trkpt lat="40.0180483" lon="8.5297017"><ele>20.4</ele><time>2026-04-20T11:00:44.784Z</time></trkpt><trkpt lat="40.01795" lon="8.5297217"><ele>20.0</ele><time>2026-04-20T11:00:45.784Z</time></trkpt><trkpt lat="40.0178517" lon="8.5297467"><ele>20.0</ele><time>2026-04-20T11:00:46.785Z</time></trkpt><trkpt lat="40.0177567" lon="8.52977"><ele>20.0</ele><time>2026-04-20T11:00:47.784Z</time></trkpt><trkpt lat="40.0176617" lon="8.5297933"><ele>20.0</ele><time>2026-04-20T11:00:48.784Z</time></trkpt><trkpt lat="40.017565" lon="8.5298167"><ele>20.0</ele><time>2026-04-20T11:00:49.784Z</time></trkpt><trkpt lat="40.0174717" lon="8.5298467"><ele>20.0</ele><time>2026-04-20T11:00:50.784Z</time></trkpt><trkpt lat="40.01738" lon="8.52988"><ele>19.6</ele><time>2026-04-20T11:00:51.784Z</time></trkpt><trkpt lat="40.0172817" lon="8.5299183"><ele>19.2</ele><time>2026-04-20T11:00:52.784Z</time></trkpt><trkpt lat="40.0171933" lon="8.5299633"><ele>18.8</ele><time>2026-04-20T11:00:53.784Z</time></trkpt><trkpt lat="40.0171017" lon="8.5300133"><ele>18.4</ele><time>2026-04-20T11:00:54.784Z</time></trkpt><trkpt lat="40.0170117" lon="8.5300683"><ele>18.0</ele><time>2026-04-20T11:00:55.784Z</time></trkpt><trkpt lat="40.01682" lon="8.5302067"><ele>18.0</ele><time>2026-04-20T11:00:57.785Z</time></trkpt><trkpt lat="40.0167217" lon="8.5302817"><ele>18.0</ele><time>2026-04-20T11:00:58.784Z</time></trkpt><trkpt lat="40.0166267" lon="8.5303567"><ele>18.0</ele><time>2026-04-20T11:00:59.784Z</time></trkpt><trkpt lat="40.0165417" lon="8.5304467"><ele>18.0</ele><time>2026-04-20T11:01:00.784Z</time></trkpt><trkpt lat="40.016455" lon="8.5305233"><ele>18.0</ele><time>2026-04-20T11:01:01.784Z</time></trkpt><trkpt lat="40.0163717" lon="8.5306067"><ele>18.2</ele><time>2026-04-20T11:01:02.784Z</time></trkpt><trkpt lat="40.0162933" lon="8.530685"><ele>18.4</ele><time>2026-04-20T11:01:03.784Z</time></trkpt><trkpt lat="40.0162117" lon="8.5307567"><ele>18.599999999999998</ele><time>2026-04-20T11:01:04.784Z</time></trkpt><trkpt lat="40.0161283" lon="8.530825"><ele>18.8</ele><time>2026-04-20T11:01:05.784Z</time></trkpt><trkpt lat="40.0160417" lon="8.5308817"><ele>19.0</ele><time>2026-04-20T11:01:06.785Z</time></trkpt><trkpt lat="40.015965" lon="8.5309317"><ele>19.0</ele><time>2026-04-20T11:01:07.784Z</time></trkpt><trkpt lat="40.0158933" lon="8.5309717"><ele>19.0</ele><time>2026-04-20T11:01:08.785Z</time></trkpt><trkpt lat="40.0158167" lon="8.531015"><ele>19.0</ele><time>2026-04-20T11:01:09.784Z</time></trkpt><trkpt lat="40.015735" lon="8.5310517"><ele>19.0</ele><time>2026-04-20T11:01:10.784Z</time></trkpt><trkpt lat="40.0156433" lon="8.5310817"><ele>19.0</ele><time>2026-04-20T11:01:11.785Z</time></trkpt><trkpt lat="40.0155567" lon="8.5311017"><ele>19.0</ele><time>2026-04-20T11:01:12.784Z</time></trkpt><trkpt lat="40.0154733" lon="8.5311217"><ele>18.75</ele><time>2026-04-20T11:01:13.784Z</time></trkpt><trkpt lat="40.0153883" lon="8.53113"><ele>18.5</ele><time>2026-04-20T11:01:14.784Z</time></trkpt><trkpt lat="40.015295" lon="8.531135"><ele>18.25</ele><time>2026-04-20T11:01:15.784Z</time></trkpt><trkpt lat="40.0151967" lon="8.5311317"><ele>18.0</ele><time>2026-04-20T11:01:16.784Z</time></trkpt><trkpt lat="40.0149917" lon="8.5311233"><ele>17.6</ele><time>2026-04-20T11:01:18.784Z</time></trkpt><trkpt lat="40.014895" lon="8.5311117"><ele>17.200000000000003</ele><time>2026-04-20T11:01:19.784Z</time></trkpt><trkpt lat="40.014795" lon="8.531085"><ele>16.8</ele><time>2026-04-20T11:01:20.784Z</time></trkpt><trkpt lat="40.014695" lon="8.5310533"><ele>16.400000000000002</ele><time>2026-04-20T11:01:21.784Z</time></trkpt><trkpt lat="40.0145933" lon="8.53102"><ele>16.0</ele><time>2026-04-20T11:01:22.784Z</time></trkpt><trkpt lat="40.0144917" lon="8.5309883"><ele>16.0</ele><time>2026-04-20T11:01:23.784Z</time></trkpt><trkpt lat="40.0143883" lon="8.5309583"><ele>16.0</ele><time>2026-04-20T11:01:24.784Z</time></trkpt><trkpt lat="40.01428" lon="8.5309283"><ele>16.0</ele><time>2026-04-20T11:01:25.784Z</time></trkpt><trkpt lat="40.0141667" lon="8.5309033"><ele>16.0</ele><time>2026-04-20T11:01:26.784Z</time></trkpt><trkpt lat="40.0140483" lon="8.530885"><ele>15.75</ele><time>2026-04-20T11:01:27.784Z</time></trkpt><trkpt lat="40.013925" lon="8.5308767"><ele>15.5</ele><time>2026-04-20T11:01:28.785Z</time></trkpt><trkpt lat="40.0138033" lon="8.53087"><ele>15.25</ele><time>2026-04-20T11:01:29.784Z</time></trkpt><trkpt lat="40.013675" lon="8.5308567"><ele>15.0</ele><time>2026-04-20T11:01:30.785Z</time></trkpt><trkpt lat="40.0135467" lon="8.5308517"><ele>15.0</ele><time>2026-04-20T11:01:31.784Z</time></trkpt><trkpt lat="40.013405" lon="8.5308383"><ele>15.0</ele><time>2026-04-20T11:01:32.784Z</time></trkpt><trkpt lat="40.0132633" lon="8.53084"><ele>15.0</ele><time>2026-04-20T11:01:33.784Z</time></trkpt><trkpt lat="40.01312" lon="8.530855"><ele>15.0</ele><time>2026-04-20T11:01:34.784Z</time></trkpt><trkpt lat="40.01298" lon="8.53088"><ele>14.666666666666668</ele><time>2026-04-20T11:01:35.784Z</time></trkpt><trkpt lat="40.0128533" lon="8.5309083"><ele>14.333333333333334</ele><time>2026-04-20T11:01:36.784Z</time></trkpt><trkpt lat="40.012735" lon="8.5309467"><ele>14.0</ele><time>2026-04-20T11:01:37.785Z</time></trkpt><trkpt lat="40.012505" lon="8.5310167"><ele>13.399999999999999</ele><time>2026-04-20T11:01:39.784Z</time></trkpt><trkpt lat="40.0124017" lon="8.5310417"><ele>12.799999999999999</ele><time>2026-04-20T11:01:40.784Z</time></trkpt><trkpt lat="40.0123033" lon="8.5310517"><ele>12.2</ele><time>2026-04-20T11:01:41.784Z</time></trkpt><trkpt lat="40.0122067" lon="8.5310667"><ele>11.600000000000001</ele><time>2026-04-20T11:01:42.784Z</time></trkpt><trkpt lat="40.0121233" lon="8.5310817"><ele>11.0</ele><time>2026-04-20T11:01:43.784Z</time></trkpt><trkpt lat="40.0120433" lon="8.5311067"><ele>11.0</ele><time>2026-04-20T11:01:44.784Z</time></trkpt><trkpt lat="40.0119733" lon="8.53113"><ele>11.0</ele><time>2026-04-20T11:01:45.784Z</time></trkpt><trkpt lat="40.011885" lon="8.5311783"><ele>11.0</ele><time>2026-04-20T11:01:47.784Z</time></trkpt><trkpt lat="40.01184" lon="8.5312367"><ele>11.0</ele><time>2026-04-20T11:01:49.784Z</time></trkpt><trkpt lat="40.0117833" lon="8.531295"><ele>11.0</ele><time>2026-04-20T11:01:51.784Z</time></trkpt><trkpt lat="40.0116917" lon="8.5313233"><ele>11.0</ele><time>2026-04-20T11:01:53.784Z</time></trkpt><trkpt lat="40.0115717" lon="8.5313217"><ele>11.200000000000001</ele><time>2026-04-20T11:01:55.784Z</time></trkpt><trkpt lat="40.0114983" lon="8.5313283"><ele>11.4</ele><time>2026-04-20T11:01:56.784Z</time></trkpt><trkpt lat="40.0114133" lon="8.5313317"><ele>11.6</ele><time>2026-04-20T11:01:57.784Z</time></trkpt><trkpt lat="40.0113267" lon="8.5313367"><ele>11.8</ele><time>2026-04-20T11:01:58.784Z</time></trkpt><trkpt lat="40.0111383" lon="8.531345"><ele>12.0</ele><time>2026-04-20T11:02:00.784Z</time></trkpt><trkpt lat="40.0110467" lon="8.5313483"><ele>12.0</ele><time>2026-04-20T11:02:01.784Z</time></trkpt><trkpt lat="40.01095" lon="8.5313533"><ele>12.0</ele><time>2026-04-20T11:02:02.784Z</time></trkpt><trkpt lat="40.010845" lon="8.53136"><ele>12.0</ele><time>2026-04-20T11:02:03.784Z</time></trkpt><trkpt lat="40.010745" lon="8.5313633"><ele>12.0</ele><time>2026-04-20T11:02:04.785Z</time></trkpt><trkpt lat="40.01064" lon="8.5313633"><ele>12.0</ele><time>2026-04-20T11:02:05.785Z</time></trkpt><trkpt lat="40.0105283" lon="8.5313683"><ele>11.75</ele><time>2026-04-20T11:02:06.785Z</time></trkpt><trkpt lat="40.01042" lon="8.531365"><ele>11.5</ele><time>2026-04-20T11:02:07.784Z</time></trkpt><trkpt lat="40.01031" lon="8.5313667"><ele>11.25</ele><time>2026-04-20T11:02:08.784Z</time></trkpt><trkpt lat="40.0101917" lon="8.5313733"><ele>11.0</ele><time>2026-04-20T11:02:09.784Z</time></trkpt><trkpt lat="40.01007" lon="8.5313717"><ele>11.0</ele><time>2026-04-20T11:02:10.784Z</time></trkpt><trkpt lat="40.0099517" lon="8.5313667"><ele>11.0</ele><time>2026-04-20T11:02:11.784Z</time></trkpt><trkpt lat="40.0098383" lon="8.5313467"><ele>11.0</ele><time>2026-04-20T11:02:12.784Z</time></trkpt><trkpt lat="40.00973" lon="8.5313283"><ele>11.0</ele><time>2026-04-20T11:02:13.784Z</time></trkpt><trkpt lat="40.0096183" lon="8.5313167"><ele>11.0</ele><time>2026-04-20T11:02:14.785Z</time></trkpt><trkpt lat="40.009505" lon="8.5313233"><ele>11.0</ele><time>2026-04-20T11:02:15.784Z</time></trkpt><trkpt lat="40.00939" lon="8.5313333"><ele>11.0</ele><time>2026-04-20T11:02:16.784Z</time></trkpt><trkpt lat="40.0092767" lon="8.5313517"><ele>11.0</ele><time>2026-04-20T11:02:17.785Z</time></trkpt><trkpt lat="40.0091567" lon="8.5313767"><ele>11.0</ele><time>2026-04-20T11:02:18.784Z</time></trkpt><trkpt lat="40.0090367" lon="8.531405"><ele>11.0</ele><time>2026-04-20T11:02:19.785Z</time></trkpt><trkpt lat="40.0088067" lon="8.5314733"><ele>11.0</ele><time>2026-04-20T11:02:21.784Z</time></trkpt><trkpt lat="40.0086983" lon="8.5315"><ele>11.0</ele><time>2026-04-20T11:02:22.784Z</time></trkpt><trkpt lat="40.0086017" lon="8.5315183"><ele>11.0</ele><time>2026-04-20T11:02:23.784Z</time></trkpt><trkpt lat="40.0085117" lon="8.531545"><ele>11.0</ele><time>2026-04-20T11:02:24.784Z</time></trkpt><trkpt lat="40.008425" lon="8.5315567"><ele>11.0</ele><time>2026-04-20T11:02:25.785Z</time></trkpt><trkpt lat="40.0083467" lon="8.53154"><ele>11.0</ele><time>2026-04-20T11:02:26.784Z</time></trkpt><trkpt lat="40.008275" lon="8.5315017"><ele>11.0</ele><time>2026-04-20T11:02:27.784Z</time></trkpt><trkpt lat="40.0082033" lon="8.5314317"><ele>10.666666666666666</ele><time>2026-04-20T11:02:28.785Z</time></trkpt><trkpt lat="40.0081283" lon="8.5313567"><ele>10.333333333333332</ele><time>2026-04-20T11:02:29.784Z</time></trkpt><trkpt lat="40.00805" lon="8.5312833"><ele>10.0</ele><time>2026-04-20T11:02:30.784Z</time></trkpt><trkpt lat="40.0079767" lon="8.5312167"><ele>9.666666666666666</ele><time>2026-04-20T11:02:31.784Z</time></trkpt><trkpt lat="40.0079117" lon="8.5311533"><ele>9.333333333333334</ele><time>2026-04-20T11:02:32.784Z</time></trkpt><trkpt lat="40.0078533" lon="8.5310967"><ele>9.0</ele><time>2026-04-20T11:02:33.784Z</time></trkpt><trkpt lat="40.007765" lon="8.5309983"><ele>9.0</ele><time>2026-04-20T11:02:35.784Z</time></trkpt><trkpt lat="40.0076883" lon="8.5309433"><ele>9.0</ele><time>2026-04-20T11:02:37.784Z</time></trkpt><trkpt lat="40.0076117" lon="8.5308867"><ele>9.0</ele><time>2026-04-20T11:02:41.784Z</time></trkpt><trkpt lat="40.0074333" lon="8.530985"><ele>9.0</ele><time>2026-04-20T11:02:44.784Z</time></trkpt><trkpt lat="40.007375" lon="8.5310233"><ele>9.0</ele><time>2026-04-20T11:02:45.785Z</time></trkpt><trkpt lat="40.0072933" lon="8.5310583"><ele>9.0</ele><time>2026-04-20T11:02:47.784Z</time></trkpt><trkpt lat="40.0072467" lon="8.5309967"><ele>9.0</ele><time>2026-04-20T11:02:49.784Z</time></trkpt><trkpt lat="40.0072083" lon="8.5308533"><ele>9.0</ele><time>2026-04-20T11:02:51.785Z</time></trkpt><trkpt lat="40.00717" lon="8.5307067"><ele>9.0</ele><time>2026-04-20T11:02:53.784Z</time></trkpt><trkpt lat="40.0071417" lon="8.5306317"><ele>9.0</ele><time>2026-04-20T11:02:54.784Z</time></trkpt><trkpt lat="40.0071083" lon="8.5305567"><ele>9.0</ele><time>2026-04-20T11:02:55.785Z</time></trkpt><trkpt lat="40.007055" lon="8.53043"><ele>8.8</ele><time>2026-04-20T11:02:57.784Z</time></trkpt><trkpt lat="40.00701" lon="8.53028"><ele>8.600000000000001</ele><time>2026-04-20T11:02:59.784Z</time></trkpt><trkpt lat="40.00698" lon="8.53018"><ele>8.4</ele><time>2026-04-20T11:03:00.785Z</time></trkpt><trkpt lat="40.00696" lon="8.530065"><ele>8.200000000000001</ele><time>2026-04-20T11:03:01.784Z</time></trkpt><trkpt lat="40.0069417" lon="8.52994"><ele>8.0</ele><time>2026-04-20T11:03:02.784Z</time></trkpt><trkpt lat="40.006935" lon="8.5296883"><ele>8.0</ele><time>2026-04-20T11:03:04.785Z</time></trkpt><trkpt lat="40.0069467" lon="8.5295583"><ele>8.0</ele><time>2026-04-20T11:03:05.784Z</time></trkpt><trkpt lat="40.0069633" lon="8.5294217"><ele>8.0</ele><time>2026-04-20T11:03:06.784Z</time></trkpt><trkpt lat="40.0069883" lon="8.5292883"><ele>8.0</ele><time>2026-04-20T11:03:07.784Z</time></trkpt><trkpt lat="40.007015" lon="8.5291483"><ele>8.0</ele><time>2026-04-20T11:03:08.785Z</time></trkpt><trkpt lat="40.007045" lon="8.5290083"><ele>8.0</ele><time>2026-04-20T11:03:09.785Z</time></trkpt><trkpt lat="40.00707" lon="8.52887"><ele>8.0</ele><time>2026-04-20T11:03:10.784Z</time></trkpt><trkpt lat="40.0070967" lon="8.52873"><ele>8.0</ele><time>2026-04-20T11:03:11.785Z</time></trkpt><trkpt lat="40.007125" lon="8.5285883"><ele>8.0</ele><time>2026-04-20T11:03:12.785Z</time></trkpt><trkpt lat="40.00715" lon="8.5284517"><ele>8.0</ele><time>2026-04-20T11:03:13.784Z</time></trkpt><trkpt lat="40.0071833" lon="8.528315"><ele>7.800000000000001</ele><time>2026-04-20T11:03:14.784Z</time></trkpt><trkpt lat="40.0072083" lon="8.5281867"><ele>7.6000000000000005</ele><time>2026-04-20T11:03:15.784Z</time></trkpt><trkpt lat="40.0072333" lon="8.5280617"><ele>7.3999999999999995</ele><time>2026-04-20T11:03:16.784Z</time></trkpt><trkpt lat="40.0072567" lon="8.527945"><ele>7.199999999999999</ele><time>2026-04-20T11:03:17.784Z</time></trkpt><trkpt lat="40.007275" lon="8.527825"><ele>7.0</ele><time>2026-04-20T11:03:18.784Z</time></trkpt><trkpt lat="40.0072967" lon="8.5276983"><ele>7.0</ele><time>2026-04-20T11:03:19.784Z</time></trkpt><trkpt lat="40.0073233" lon="8.5275683"><ele>6.999999999999999</ele><time>2026-04-20T11:03:20.785Z</time></trkpt><trkpt lat="40.0073467" lon="8.5274333"><ele>6.999999999999999</ele><time>2026-04-20T11:03:21.785Z</time></trkpt><trkpt lat="40.0073633" lon="8.5273017"><ele>7.0</ele><time>2026-04-20T11:03:22.784Z</time></trkpt><trkpt lat="40.007385" lon="8.5271717"><ele>7.0</ele><time>2026-04-20T11:03:23.784Z</time></trkpt><trkpt lat="40.0074283" lon="8.526905"><ele>7.6</ele><time>2026-04-20T11:03:25.784Z</time></trkpt><trkpt lat="40.0074517" lon="8.5267717"><ele>8.2</ele><time>2026-04-20T11:03:26.784Z</time></trkpt><trkpt lat="40.007475" lon="8.5266333"><ele>8.8</ele><time>2026-04-20T11:03:27.784Z</time></trkpt><trkpt lat="40.00749" lon="8.52649"><ele>9.4</ele><time>2026-04-20T11:03:28.784Z</time></trkpt><trkpt lat="40.0075083" lon="8.5263367"><ele>10.0</ele><time>2026-04-20T11:03:29.784Z</time></trkpt><trkpt lat="40.0075417" lon="8.5261717"><ele>10.0</ele><time>2026-04-20T11:03:30.784Z</time></trkpt><trkpt lat="40.00757" lon="8.525995"><ele>10.0</ele><time>2026-04-20T11:03:31.784Z</time></trkpt><trkpt lat="40.0075983" lon="8.525815"><ele>10.0</ele><time>2026-04-20T11:03:32.784Z</time></trkpt><trkpt lat="40.0076367" lon="8.5256233"><ele>10.0</ele><time>2026-04-20T11:03:33.784Z</time></trkpt><trkpt lat="40.0076733" lon="8.525425"><ele>9.75</ele><time>2026-04-20T11:03:34.784Z</time></trkpt><trkpt lat="40.00771" lon="8.5252417"><ele>9.5</ele><time>2026-04-20T11:03:35.784Z</time></trkpt><trkpt lat="40.007735" lon="8.5250667"><ele>9.25</ele><time>2026-04-20T11:03:36.784Z</time></trkpt><trkpt lat="40.00776" lon="8.5249"><ele>9.0</ele><time>2026-04-20T11:03:37.784Z</time></trkpt><trkpt lat="40.0077967" lon="8.5247467"><ele>9.0</ele><time>2026-04-20T11:03:38.784Z</time></trkpt><trkpt lat="40.0078317" lon="8.5246017"><ele>9.0</ele><time>2026-04-20T11:03:39.784Z</time></trkpt><trkpt lat="40.0078617" lon="8.5244517"><ele>9.0</ele><time>2026-04-20T11:03:40.785Z</time></trkpt><trkpt lat="40.00789" lon="8.524305"><ele>9.0</ele><time>2026-04-20T11:03:41.784Z</time></trkpt><trkpt lat="40.0079183" lon="8.5241733"><ele>9.0</ele><time>2026-04-20T11:03:42.784Z</time></trkpt><trkpt lat="40.0079517" lon="8.5240417"><ele>9.0</ele><time>2026-04-20T11:03:43.784Z</time></trkpt><trkpt lat="40.0079767" lon="8.5239133"><ele>9.0</ele><time>2026-04-20T11:03:44.784Z</time></trkpt><trkpt lat="40.0080233" lon="8.523685"><ele>9.0</ele><time>2026-04-20T11:03:46.784Z</time></trkpt><trkpt lat="40.0080433" lon="8.52359"><ele>8.833333333333334</ele><time>2026-04-20T11:03:47.784Z</time></trkpt><trkpt lat="40.008065" lon="8.5234933"><ele>8.666666666666666</ele><time>2026-04-20T11:03:48.784Z</time></trkpt><trkpt lat="40.0080833" lon="8.5233883"><ele>8.5</ele><time>2026-04-20T11:03:49.784Z</time></trkpt><trkpt lat="40.0081033" lon="8.5232817"><ele>8.333333333333332</ele><time>2026-04-20T11:03:50.784Z</time></trkpt><trkpt lat="40.00812" lon="8.523155"><ele>8.166666666666666</ele><time>2026-04-20T11:03:51.784Z</time></trkpt><trkpt lat="40.0081433" lon="8.5230217"><ele>8.0</ele><time>2026-04-20T11:03:52.784Z</time></trkpt><trkpt lat="40.00817" lon="8.522875"><ele>7.75</ele><time>2026-04-20T11:03:53.784Z</time></trkpt><trkpt lat="40.008205" lon="8.5227117"><ele>7.5</ele><time>2026-04-20T11:03:54.784Z</time></trkpt><trkpt lat="40.0082467" lon="8.52254"><ele>7.25</ele><time>2026-04-20T11:03:55.784Z</time></trkpt><trkpt lat="40.008285" lon="8.5223433"><ele>7.0</ele><time>2026-04-20T11:03:56.784Z</time></trkpt><trkpt lat="40.0083183" lon="8.522135"><ele>7.666666666666667</ele><time>2026-04-20T11:03:57.785Z</time></trkpt><trkpt lat="40.0083533" lon="8.5219183"><ele>8.333333333333334</ele><time>2026-04-20T11:03:58.784Z</time></trkpt><trkpt lat="40.008395" lon="8.521715"><ele>9.0</ele><time>2026-04-20T11:03:59.784Z</time></trkpt><trkpt lat="40.0084317" lon="8.5215183"><ele>9.0</ele><time>2026-04-20T11:04:00.784Z</time></trkpt><trkpt lat="40.0084683" lon="8.5213183"><ele>9.0</ele><time>2026-04-20T11:04:01.784Z</time></trkpt><trkpt lat="40.0085067" lon="8.5210967"><ele>9.0</ele><time>2026-04-20T11:04:02.784Z</time></trkpt><trkpt lat="40.0085567" lon="8.52086"><ele>8.333333333333334</ele><time>2026-04-20T11:04:03.784Z</time></trkpt><trkpt lat="40.008605" lon="8.52062"><ele>7.666666666666667</ele><time>2026-04-20T11:04:04.784Z</time></trkpt><trkpt lat="40.0086533" lon="8.5203867"><ele>7.0</ele><time>2026-04-20T11:04:05.784Z</time></trkpt><trkpt lat="40.0087383" lon="8.5199383"><ele>7.0</ele><time>2026-04-20T11:04:07.785Z</time></trkpt><trkpt lat="40.00878" lon="8.5197233"><ele>7.0</ele><time>2026-04-20T11:04:08.784Z</time></trkpt><trkpt lat="40.00882" lon="8.5195117"><ele>7.0</ele><time>2026-04-20T11:04:09.784Z</time></trkpt><trkpt lat="40.0088583" lon="8.5192883"><ele>7.0</ele><time>2026-04-20T11:04:10.784Z</time></trkpt><trkpt lat="40.0089" lon="8.5190667"><ele>7.0</ele><time>2026-04-20T11:04:11.784Z</time></trkpt><trkpt lat="40.0089367" lon="8.518835"><ele>7.0</ele><time>2026-04-20T11:04:12.784Z</time></trkpt><trkpt lat="40.008975" lon="8.5185983"><ele>7.0</ele><time>2026-04-20T11:04:13.784Z</time></trkpt><trkpt lat="40.0090183" lon="8.5183883"><ele>7.0</ele><time>2026-04-20T11:04:14.784Z</time></trkpt><trkpt lat="40.0090517" lon="8.518195"><ele>7.0</ele><time>2026-04-20T11:04:15.784Z</time></trkpt><trkpt lat="40.0090833" lon="8.5180217"><ele>7.25</ele><time>2026-04-20T11:04:16.785Z</time></trkpt><trkpt lat="40.009115" lon="8.5178633"><ele>7.5</ele><time>2026-04-20T11:04:17.784Z</time></trkpt><trkpt lat="40.0091433" lon="8.5177167"><ele>7.75</ele><time>2026-04-20T11:04:18.784Z</time></trkpt><trkpt lat="40.0091783" lon="8.5175667"><ele>8.0</ele><time>2026-04-20T11:04:19.784Z</time></trkpt><trkpt lat="40.00921" lon="8.5174"><ele>8.333333333333332</ele><time>2026-04-20T11:04:20.784Z</time></trkpt><trkpt lat="40.0092467" lon="8.5172183"><ele>8.666666666666666</ele><time>2026-04-20T11:04:21.785Z</time></trkpt><trkpt lat="40.009285" lon="8.51702"><ele>9.0</ele><time>2026-04-20T11:04:22.784Z</time></trkpt><trkpt lat="40.00932" lon="8.51683"><ele>9.0</ele><time>2026-04-20T11:04:23.784Z</time></trkpt><trkpt lat="40.009355" lon="8.5166417"><ele>9.0</ele><time>2026-04-20T11:04:24.785Z</time></trkpt><trkpt lat="40.009395" lon="8.5164333"><ele>9.0</ele><time>2026-04-20T11:04:25.784Z</time></trkpt><trkpt lat="40.0094383" lon="8.5162133"><ele>8.5</ele><time>2026-04-20T11:04:26.784Z</time></trkpt><trkpt lat="40.009525" lon="8.515765"><ele>8.0</ele><time>2026-04-20T11:04:28.785Z</time></trkpt><trkpt lat="40.0095667" lon="8.5155217"><ele>7.666666666666666</ele><time>2026-04-20T11:04:29.784Z</time></trkpt><trkpt lat="40.0096167" lon="8.5152817"><ele>7.333333333333334</ele><time>2026-04-20T11:04:30.784Z</time></trkpt><trkpt lat="40.0096583" lon="8.5150533"><ele>7.0</ele><time>2026-04-20T11:04:31.784Z</time></trkpt><trkpt lat="40.0097" lon="8.51483"><ele>7.0</ele><time>2026-04-20T11:04:32.785Z</time></trkpt><trkpt lat="40.0097383" lon="8.5146217"><ele>7.0</ele><time>2026-04-20T11:04:33.784Z</time></trkpt><trkpt lat="40.0097567" lon="8.51442"><ele>7.0</ele><time>2026-04-20T11:04:34.784Z</time></trkpt><trkpt lat="40.0097667" lon="8.5142067"><ele>6.666666666666667</ele><time>2026-04-20T11:04:35.784Z</time></trkpt><trkpt lat="40.0097733" lon="8.5139867"><ele>6.333333333333334</ele><time>2026-04-20T11:04:36.784Z</time></trkpt><trkpt lat="40.0097767" lon="8.5137617"><ele>6.0</ele><time>2026-04-20T11:04:37.784Z</time></trkpt><trkpt lat="40.00977" lon="8.51355"><ele>6.5</ele><time>2026-04-20T11:04:38.784Z</time></trkpt><trkpt lat="40.0097633" lon="8.5133583"><ele>7.0</ele><time>2026-04-20T11:04:39.784Z</time></trkpt><trkpt lat="40.0097567" lon="8.5131767"><ele>7.5</ele><time>2026-04-20T11:04:40.785Z</time></trkpt><trkpt lat="40.0097567" lon="8.512985"><ele>8.0</ele><time>2026-04-20T11:04:41.784Z</time></trkpt><trkpt lat="40.009755" lon="8.5127783"><ele>8.333333333333332</ele><time>2026-04-20T11:04:42.784Z</time></trkpt><trkpt lat="40.0097467" lon="8.512555"><ele>8.666666666666666</ele><time>2026-04-20T11:04:43.784Z</time></trkpt><trkpt lat="40.009735" lon="8.51232"><ele>9.0</ele><time>2026-04-20T11:04:44.784Z</time></trkpt><trkpt lat="40.0097367" lon="8.5120833"><ele>9.0</ele><time>2026-04-20T11:04:45.784Z</time></trkpt><trkpt lat="40.0097333" lon="8.5118417"><ele>9.0</ele><time>2026-04-20T11:04:46.784Z</time></trkpt><trkpt lat="40.0097333" lon="8.51162"><ele>9.0</ele><time>2026-04-20T11:04:47.784Z</time></trkpt><trkpt lat="40.0097333" lon="8.5112283"><ele>9.0</ele><time>2026-04-20T11:04:49.784Z</time></trkpt><trkpt lat="40.0097383" lon="8.5110533"><ele>9.0</ele><time>2026-04-20T11:04:50.784Z</time></trkpt><trkpt lat="40.009735" lon="8.5108817"><ele>9.0</ele><time>2026-04-20T11:04:51.784Z</time></trkpt><trkpt lat="40.00973" lon="8.5107083"><ele>9.0</ele><time>2026-04-20T11:04:52.784Z</time></trkpt><trkpt lat="40.0097283" lon="8.5105367"><ele>8.75</ele><time>2026-04-20T11:04:53.784Z</time></trkpt><trkpt lat="40.0097267" lon="8.510365"><ele>8.5</ele><time>2026-04-20T11:04:54.784Z</time></trkpt><trkpt lat="40.0097283" lon="8.51019"><ele>8.25</ele><time>2026-04-20T11:04:55.784Z</time></trkpt><trkpt lat="40.0097317" lon="8.5100433"><ele>8.0</ele><time>2026-04-20T11:04:56.784Z</time></trkpt><trkpt lat="40.0097333" lon="8.509895"><ele>8.0</ele><time>2026-04-20T11:04:57.784Z</time></trkpt><trkpt lat="40.0097317" lon="8.50973"><ele>8.0</ele><time>2026-04-20T11:04:58.784Z</time></trkpt><trkpt lat="40.0097267" lon="8.5095633"><ele>8.0</ele><time>2026-04-20T11:04:59.784Z</time></trkpt><trkpt lat="40.0097233" lon="8.509385"><ele>8.0</ele><time>2026-04-20T11:05:00.785Z</time></trkpt><trkpt lat="40.0097317" lon="8.5091967"><ele>7.5</ele><time>2026-04-20T11:05:01.784Z</time></trkpt><trkpt lat="40.00973" lon="8.5089983"><ele>7.0</ele><time>2026-04-20T11:05:02.784Z</time></trkpt><trkpt lat="40.00973" lon="8.5088"><ele>6.5</ele><time>2026-04-20T11:05:03.784Z</time></trkpt><trkpt lat="40.0097233" lon="8.5086183"><ele>6.0</ele><time>2026-04-20T11:05:04.784Z</time></trkpt><trkpt lat="40.00972" lon="8.5084367"><ele>6.0</ele><time>2026-04-20T11:05:05.784Z</time></trkpt><trkpt lat="40.0097267" lon="8.5082583"><ele>6.0</ele><time>2026-04-20T11:05:06.784Z</time></trkpt><trkpt lat="40.009725" lon="8.50809"><ele>6.0</ele><time>2026-04-20T11:05:07.785Z</time></trkpt><trkpt lat="40.0097217" lon="8.5079083"><ele>6.0</ele><time>2026-04-20T11:05:08.785Z</time></trkpt><trkpt lat="40.00971" lon="8.507535"><ele>6.0</ele><time>2026-04-20T11:05:10.784Z</time></trkpt><trkpt lat="40.0097" lon="8.50734"><ele>6.0</ele><time>2026-04-20T11:05:11.784Z</time></trkpt><trkpt lat="40.0096983" lon="8.507165"><ele>6.0</ele><time>2026-04-20T11:05:12.784Z</time></trkpt><trkpt lat="40.009695" lon="8.5069933"><ele>6.0</ele><time>2026-04-20T11:05:13.784Z</time></trkpt><trkpt lat="40.009695" lon="8.5068283"><ele>6.0</ele><time>2026-04-20T11:05:14.784Z</time></trkpt><trkpt lat="40.009695" lon="8.5066667"><ele>6.0</ele><time>2026-04-20T11:05:15.784Z</time></trkpt><trkpt lat="40.0096933" lon="8.5065067"><ele>6.0</ele><time>2026-04-20T11:05:16.784Z</time></trkpt><trkpt lat="40.0096883" lon="8.506345"><ele>6.0</ele><time>2026-04-20T11:05:17.784Z</time></trkpt><trkpt lat="40.0096933" lon="8.5061783"><ele>6.25</ele><time>2026-04-20T11:05:18.784Z</time></trkpt><trkpt lat="40.0096917" lon="8.5059983"><ele>6.5</ele><time>2026-04-20T11:05:19.784Z</time></trkpt><trkpt lat="40.0096867" lon="8.505825"><ele>6.75</ele><time>2026-04-20T11:05:20.784Z</time></trkpt><trkpt lat="40.0096783" lon="8.5056667"><ele>7.0</ele><time>2026-04-20T11:05:21.784Z</time></trkpt><trkpt lat="40.0096817" lon="8.5055417"><ele>7.0</ele><time>2026-04-20T11:05:22.784Z</time></trkpt><trkpt lat="40.0096767" lon="8.5054333"><ele>6.999999999999999</ele><time>2026-04-20T11:05:23.784Z</time></trkpt><trkpt lat="40.0096933" lon="8.5053083"><ele>6.999999999999999</ele><time>2026-04-20T11:05:25.784Z</time></trkpt><trkpt lat="40.0097767" lon="8.5052167"><ele>7.0</ele><time>2026-04-20T11:05:27.784Z</time></trkpt><trkpt lat="40.00985" lon="8.5050867"><ele>7.0</ele><time>2026-04-20T11:05:29.785Z</time></trkpt><trkpt lat="40.0098783" lon="8.5048517"><ele>7.166666666666667</ele><time>2026-04-20T11:05:32.784Z</time></trkpt><trkpt lat="40.0098933" lon="8.5047017"><ele>7.333333333333334</ele><time>2026-04-20T11:05:34.784Z</time></trkpt><trkpt lat="40.009905" lon="8.504615"><ele>7.5</ele><time>2026-04-20T11:05:35.784Z</time></trkpt><trkpt lat="40.00991" lon="8.5045167"><ele>7.666666666666666</ele><time>2026-04-20T11:05:36.784Z</time></trkpt><trkpt lat="40.0099083" lon="8.5044133"><ele>7.833333333333333</ele><time>2026-04-20T11:05:37.784Z</time></trkpt><trkpt lat="40.0099067" lon="8.50431"><ele>8.0</ele><time>2026-04-20T11:05:38.784Z</time></trkpt><trkpt lat="40.00991" lon="8.5042033"><ele>7.6000000000000005</ele><time>2026-04-20T11:05:39.785Z</time></trkpt><trkpt lat="40.0099167" lon="8.50409"><ele>7.200000000000001</ele><time>2026-04-20T11:05:40.784Z</time></trkpt><trkpt lat="40.009925" lon="8.50398"><ele>6.8</ele><time>2026-04-20T11:05:41.784Z</time></trkpt><trkpt lat="40.0099367" lon="8.503855"><ele>6.4</ele><time>2026-04-20T11:05:42.784Z</time></trkpt><trkpt lat="40.00995" lon="8.5037183"><ele>6.0</ele><time>2026-04-20T11:05:43.784Z</time></trkpt><trkpt lat="40.0099683" lon="8.5035717"><ele>6.0</ele><time>2026-04-20T11:05:44.784Z</time></trkpt><trkpt lat="40.00998" lon="8.5034167"><ele>6.0</ele><time>2026-04-20T11:05:45.784Z</time></trkpt><trkpt lat="40.0099983" lon="8.5032567"><ele>6.0</ele><time>2026-04-20T11:05:46.784Z</time></trkpt><trkpt lat="40.010005" lon="8.503095"><ele>6.0</ele><time>2026-04-20T11:05:47.784Z</time></trkpt><trkpt lat="40.0100183" lon="8.5029333"><ele>6.0</ele><time>2026-04-20T11:05:48.784Z</time></trkpt><trkpt lat="40.0100233" lon="8.50277"><ele>6.0</ele><time>2026-04-20T11:05:49.784Z</time></trkpt><trkpt lat="40.010025" lon="8.5026167"><ele>6.0</ele><time>2026-04-20T11:05:50.784Z</time></trkpt><trkpt lat="40.0100167" lon="8.502335"><ele>6.0</ele><time>2026-04-20T11:05:52.784Z</time></trkpt><trkpt lat="40.0100033" lon="8.5021883"><ele>6.0</ele><time>2026-04-20T11:05:53.784Z</time></trkpt><trkpt lat="40.0099933" lon="8.50203"><ele>6.0</ele><time>2026-04-20T11:05:54.784Z</time></trkpt><trkpt lat="40.0099867" lon="8.50187"><ele>6.0</ele><time>2026-04-20T11:05:55.785Z</time></trkpt><trkpt lat="40.0099733" lon="8.5017033"><ele>6.0</ele><time>2026-04-20T11:05:56.784Z</time></trkpt><trkpt lat="40.0099633" lon="8.501535"><ele>6.0</ele><time>2026-04-20T11:05:57.785Z</time></trkpt><trkpt lat="40.0099583" lon="8.501365"><ele>6.0</ele><time>2026-04-20T11:05:58.784Z</time></trkpt><trkpt lat="40.00995" lon="8.5011983"><ele>6.0</ele><time>2026-04-20T11:05:59.784Z</time></trkpt><trkpt lat="40.0099383" lon="8.5010367"><ele>6.0</ele><time>2026-04-20T11:06:00.784Z</time></trkpt><trkpt lat="40.0099217" lon="8.5008733"><ele>6.0</ele><time>2026-04-20T11:06:01.784Z</time></trkpt><trkpt lat="40.0099083" lon="8.50071"><ele>6.0</ele><time>2026-04-20T11:06:02.784Z</time></trkpt><trkpt lat="40.0099" lon="8.500545"><ele>6.0</ele><time>2026-04-20T11:06:03.784Z</time></trkpt><trkpt lat="40.0098917" lon="8.500385"><ele>6.0</ele><time>2026-04-20T11:06:04.784Z</time></trkpt><trkpt lat="40.0098883" lon="8.50023"><ele>6.0</ele><time>2026-04-20T11:06:05.784Z</time></trkpt><trkpt lat="40.0098767" lon="8.5000817"><ele>6.0</ele><time>2026-04-20T11:06:06.784Z</time></trkpt><trkpt lat="40.0098617" lon="8.4999183"><ele>6.0</ele><time>2026-04-20T11:06:07.784Z</time></trkpt><trkpt lat="40.0098433" lon="8.4997467"><ele>6.0</ele><time>2026-04-20T11:06:08.784Z</time></trkpt><trkpt lat="40.0098267" lon="8.49956"><ele>6.0</ele><time>2026-04-20T11:06:09.784Z</time></trkpt><trkpt lat="40.0098117" lon="8.4993517"><ele>6.0</ele><time>2026-04-20T11:06:10.784Z</time></trkpt><trkpt lat="40.0098117" lon="8.499145"><ele>6.0</ele><time>2026-04-20T11:06:11.785Z</time></trkpt><trkpt lat="40.0098067" lon="8.4987683"><ele>6.0</ele><time>2026-04-20T11:06:13.785Z</time></trkpt><trkpt lat="40.00982" lon="8.49859"><ele>6.0</ele><time>2026-04-20T11:06:14.784Z</time></trkpt><trkpt lat="40.0098517" lon="8.4984183"><ele>6.0</ele><time>2026-04-20T11:06:15.784Z</time></trkpt><trkpt lat="40.0098917" lon="8.4982283"><ele>6.0</ele><time>2026-04-20T11:06:16.785Z</time></trkpt><trkpt lat="40.0099317" lon="8.4980467"><ele>6.0</ele><time>2026-04-20T11:06:17.784Z</time></trkpt><trkpt lat="40.0099633" lon="8.4978767"><ele>6.0</ele><time>2026-04-20T11:06:18.784Z</time></trkpt><trkpt lat="40.0099733" lon="8.4977133"><ele>6.0</ele><time>2026-04-20T11:06:19.783Z</time></trkpt><trkpt lat="40.0099667" lon="8.4975583"><ele>6.0</ele><time>2026-04-20T11:06:20.785Z</time></trkpt><trkpt lat="40.0099333" lon="8.4974117"><ele>6.0</ele><time>2026-04-20T11:06:21.784Z</time></trkpt><trkpt lat="40.0098783" lon="8.4972767"><ele>6.0</ele><time>2026-04-20T11:06:22.784Z</time></trkpt><trkpt lat="40.0098233" lon="8.4971367"><ele>6.25</ele><time>2026-04-20T11:06:23.784Z</time></trkpt><trkpt lat="40.0097983" lon="8.4969767"><ele>6.5</ele><time>2026-04-20T11:06:24.784Z</time></trkpt><trkpt lat="40.0098033" lon="8.4968067"><ele>6.75</ele><time>2026-04-20T11:06:25.784Z</time></trkpt><trkpt lat="40.0098267" lon="8.4966267"><ele>7.0</ele><time>2026-04-20T11:06:26.784Z</time></trkpt><trkpt lat="40.0098533" lon="8.4964417"><ele>7.0</ele><time>2026-04-20T11:06:27.784Z</time></trkpt><trkpt lat="40.0098733" lon="8.496265"><ele>7.0</ele><time>2026-04-20T11:06:28.785Z</time></trkpt><trkpt lat="40.0098933" lon="8.4961"><ele>7.0</ele><time>2026-04-20T11:06:29.784Z</time></trkpt><trkpt lat="40.009915" lon="8.4959383"><ele>7.0</ele><time>2026-04-20T11:06:30.784Z</time></trkpt><trkpt lat="40.0099383" lon="8.4957717"><ele>7.0</ele><time>2026-04-20T11:06:31.784Z</time></trkpt><trkpt lat="40.0099667" lon="8.49559"><ele>7.0</ele><time>2026-04-20T11:06:32.784Z</time></trkpt><trkpt lat="40.01002" lon="8.4952183"><ele>7.0</ele><time>2026-04-20T11:06:34.784Z</time></trkpt><trkpt lat="40.01004" lon="8.4950517"><ele>7.199999999999999</ele><time>2026-04-20T11:06:35.784Z</time></trkpt><trkpt lat="40.0100633" lon="8.4949"><ele>7.3999999999999995</ele><time>2026-04-20T11:06:36.784Z</time></trkpt><trkpt lat="40.010085" lon="8.4947567"><ele>7.6000000000000005</ele><time>2026-04-20T11:06:37.784Z</time></trkpt><trkpt lat="40.0100983" lon="8.4946317"><ele>7.800000000000001</ele><time>2026-04-20T11:06:38.784Z</time></trkpt><trkpt lat="40.0101083" lon="8.494495"><ele>8.0</ele><time>2026-04-20T11:06:39.784Z</time></trkpt><trkpt lat="40.0101183" lon="8.49435"><ele>8.0</ele><time>2026-04-20T11:06:40.784Z</time></trkpt><trkpt lat="40.010125" lon="8.4941917"><ele>8.0</ele><time>2026-04-20T11:06:41.784Z</time></trkpt><trkpt lat="40.01014" lon="8.4940233"><ele>8.0</ele><time>2026-04-20T11:06:42.784Z</time></trkpt><trkpt lat="40.0101467" lon="8.4938467"><ele>8.0</ele><time>2026-04-20T11:06:43.784Z</time></trkpt><trkpt lat="40.01015" lon="8.4936533"><ele>8.333333333333332</ele><time>2026-04-20T11:06:44.784Z</time></trkpt><trkpt lat="40.0101417" lon="8.4934533"><ele>8.666666666666666</ele><time>2026-04-20T11:06:45.784Z</time></trkpt><trkpt lat="40.0101233" lon="8.4932517"><ele>9.0</ele><time>2026-04-20T11:06:46.784Z</time></trkpt><trkpt lat="40.010105" lon="8.4930533"><ele>8.666666666666666</ele><time>2026-04-20T11:06:47.784Z</time></trkpt><trkpt lat="40.010095" lon="8.492845"><ele>8.333333333333332</ele><time>2026-04-20T11:06:48.784Z</time></trkpt><trkpt lat="40.0100767" lon="8.492625"><ele>8.0</ele><time>2026-04-20T11:06:49.784Z</time></trkpt><trkpt lat="40.0100633" lon="8.4924"><ele>8.0</ele><time>2026-04-20T11:06:50.784Z</time></trkpt><trkpt lat="40.0100467" lon="8.49219"><ele>8.0</ele><time>2026-04-20T11:06:51.784Z</time></trkpt><trkpt lat="40.010035" lon="8.49198"><ele>8.0</ele><time>2026-04-20T11:06:52.784Z</time></trkpt><trkpt lat="40.0100167" lon="8.4916133"><ele>7.75</ele><time>2026-04-20T11:06:54.784Z</time></trkpt><trkpt lat="40.01002" lon="8.491435"><ele>7.5</ele><time>2026-04-20T11:06:55.784Z</time></trkpt><trkpt lat="40.0100433" lon="8.4912633"><ele>7.25</ele><time>2026-04-20T11:06:56.784Z</time></trkpt><trkpt lat="40.01008" lon="8.49109"><ele>7.0</ele><time>2026-04-20T11:06:57.783Z</time></trkpt><trkpt lat="40.0101367" lon="8.4909167"><ele>7.0</ele><time>2026-04-20T11:06:58.783Z</time></trkpt><trkpt lat="40.010205" lon="8.4907533"><ele>7.0</ele><time>2026-04-20T11:06:59.783Z</time></trkpt><trkpt lat="40.0102717" lon="8.4906"><ele>7.0</ele><time>2026-04-20T11:07:00.783Z</time></trkpt><trkpt lat="40.0103417" lon="8.4904533"><ele>7.0</ele><time>2026-04-20T11:07:01.784Z</time></trkpt><trkpt lat="40.0104183" lon="8.4903117"><ele>6.75</ele><time>2026-04-20T11:07:02.783Z</time></trkpt><trkpt lat="40.0104967" lon="8.4901817"><ele>6.5</ele><time>2026-04-20T11:07:03.783Z</time></trkpt><trkpt lat="40.0105733" lon="8.4900567"><ele>6.25</ele><time>2026-04-20T11:07:04.784Z</time></trkpt><trkpt lat="40.0106517" lon="8.4899367"><ele>6.0</ele><time>2026-04-20T11:07:05.783Z</time></trkpt><trkpt lat="40.0107333" lon="8.4898167"><ele>6.0</ele><time>2026-04-20T11:07:06.783Z</time></trkpt><trkpt lat="40.010815" lon="8.4897067"><ele>6.0</ele><time>2026-04-20T11:07:07.783Z</time></trkpt><trkpt lat="40.0109083" lon="8.4895917"><ele>6.0</ele><time>2026-04-20T11:07:08.783Z</time></trkpt><trkpt lat="40.01101" lon="8.4894833"><ele>6.0</ele><time>2026-04-20T11:07:09.783Z</time></trkpt><trkpt lat="40.011115" lon="8.48937"><ele>6.25</ele><time>2026-04-20T11:07:10.783Z</time></trkpt><trkpt lat="40.0112167" lon="8.4892583"><ele>6.5</ele><time>2026-04-20T11:07:11.783Z</time></trkpt><trkpt lat="40.0113117" lon="8.489155"><ele>6.75</ele><time>2026-04-20T11:07:12.783Z</time></trkpt><trkpt lat="40.0114033" lon="8.4890583"><ele>7.0</ele><time>2026-04-20T11:07:13.783Z</time></trkpt><trkpt lat="40.0116067" lon="8.4888517"><ele>7.0</ele><time>2026-04-20T11:07:15.783Z</time></trkpt><trkpt lat="40.0117117" lon="8.4887567"><ele>7.0</ele><time>2026-04-20T11:07:16.783Z</time></trkpt><trkpt lat="40.01182" lon="8.4886567"><ele>7.0</ele><time>2026-04-20T11:07:17.783Z</time></trkpt><trkpt lat="40.0119283" lon="8.4885583"><ele>7.0</ele><time>2026-04-20T11:07:18.783Z</time></trkpt><trkpt lat="40.0120367" lon="8.4884683"><ele>7.0</ele><time>2026-04-20T11:07:19.784Z</time></trkpt><trkpt lat="40.0121483" lon="8.4883667"><ele>7.0</ele><time>2026-04-20T11:07:20.783Z</time></trkpt><trkpt lat="40.0122617" lon="8.4882767"><ele>7.0</ele><time>2026-04-20T11:07:21.783Z</time></trkpt><trkpt lat="40.01237" lon="8.4881933"><ele>7.0</ele><time>2026-04-20T11:07:22.783Z</time></trkpt><trkpt lat="40.012475" lon="8.4880983"><ele>7.0</ele><time>2026-04-20T11:07:23.783Z</time></trkpt><trkpt lat="40.0125667" lon="8.4879983"><ele>7.0</ele><time>2026-04-20T11:07:24.783Z</time></trkpt><trkpt lat="40.012655" lon="8.4879017"><ele>7.0</ele><time>2026-04-20T11:07:25.783Z</time></trkpt><trkpt lat="40.0127383" lon="8.487795"><ele>7.0</ele><time>2026-04-20T11:07:26.783Z</time></trkpt><trkpt lat="40.0128117" lon="8.48768"><ele>7.0</ele><time>2026-04-20T11:07:27.783Z</time></trkpt><trkpt lat="40.012885" lon="8.4875567"><ele>7.0</ele><time>2026-04-20T11:07:28.784Z</time></trkpt><trkpt lat="40.0129533" lon="8.4874317"><ele>7.0</ele><time>2026-04-20T11:07:29.783Z</time></trkpt><trkpt lat="40.0130233" lon="8.4873017"><ele>7.0</ele><time>2026-04-20T11:07:30.783Z</time></trkpt><trkpt lat="40.013085" lon="8.48717"><ele>7.25</ele><time>2026-04-20T11:07:31.783Z</time></trkpt><trkpt lat="40.0131533" lon="8.48704"><ele>7.5</ele><time>2026-04-20T11:07:32.783Z</time></trkpt><trkpt lat="40.0132267" lon="8.4869117"><ele>7.75</ele><time>2026-04-20T11:07:33.783Z</time></trkpt><trkpt lat="40.0132983" lon="8.4867717"><ele>8.0</ele><time>2026-04-20T11:07:34.783Z</time></trkpt><trkpt lat="40.013425" lon="8.486485"><ele>7.75</ele><time>2026-04-20T11:07:36.783Z</time></trkpt><trkpt lat="40.0134817" lon="8.486335"><ele>7.5</ele><time>2026-04-20T11:07:37.783Z</time></trkpt><trkpt lat="40.0135333" lon="8.4861817"><ele>7.25</ele><time>2026-04-20T11:07:38.783Z</time></trkpt><trkpt lat="40.0135667" lon="8.4860217"><ele>7.0</ele><time>2026-04-20T11:07:39.784Z</time></trkpt><trkpt lat="40.0136" lon="8.48586"><ele>7.0</ele><time>2026-04-20T11:07:40.783Z</time></trkpt><trkpt lat="40.0136233" lon="8.4856967"><ele>7.0</ele><time>2026-04-20T11:07:41.783Z</time></trkpt><trkpt lat="40.01364" lon="8.4855317"><ele>7.0</ele><time>2026-04-20T11:07:42.783Z</time></trkpt><trkpt lat="40.0136417" lon="8.4853683"><ele>7.0</ele><time>2026-04-20T11:07:43.783Z</time></trkpt><trkpt lat="40.0136367" lon="8.485215"><ele>7.0</ele><time>2026-04-20T11:07:44.783Z</time></trkpt><trkpt lat="40.013635" lon="8.485075"><ele>6.999999999999999</ele><time>2026-04-20T11:07:45.783Z</time></trkpt><trkpt lat="40.0136283" lon="8.4849467"><ele>6.999999999999999</ele><time>2026-04-20T11:07:46.783Z</time></trkpt><trkpt lat="40.01362" lon="8.4848217"><ele>7.0</ele><time>2026-04-20T11:07:47.783Z</time></trkpt><trkpt lat="40.0136017" lon="8.4847017"><ele>7.0</ele><time>2026-04-20T11:07:48.783Z</time></trkpt><trkpt lat="40.013585" lon="8.484575"><ele>7.0</ele><time>2026-04-20T11:07:49.783Z</time></trkpt><trkpt lat="40.0135717" lon="8.48443"><ele>6.999999999999999</ele><time>2026-04-20T11:07:50.783Z</time></trkpt><trkpt lat="40.0135617" lon="8.48429"><ele>6.999999999999999</ele><time>2026-04-20T11:07:51.783Z</time></trkpt><trkpt lat="40.013555" lon="8.4841667"><ele>7.0</ele><time>2026-04-20T11:07:52.783Z</time></trkpt><trkpt lat="40.01355" lon="8.4840617"><ele>7.0</ele><time>2026-04-20T11:07:53.783Z</time></trkpt><trkpt lat="40.0135467" lon="8.4839533"><ele>7.0</ele><time>2026-04-20T11:07:54.783Z</time></trkpt><trkpt lat="40.013545" lon="8.4838583"><ele>6.999999999999999</ele><time>2026-04-20T11:07:55.783Z</time></trkpt><trkpt lat="40.0135383" lon="8.4836817"><ele>6.999999999999999</ele><time>2026-04-20T11:07:57.783Z</time></trkpt><trkpt lat="40.0135417" lon="8.4835233"><ele>7.0</ele><time>2026-04-20T11:07:59.783Z</time></trkpt><trkpt lat="40.0135417" lon="8.4833733"><ele>7.0</ele><time>2026-04-20T11:08:01.783Z</time></trkpt><trkpt lat="40.0135383" lon="8.48328"><ele>7.199999999999999</ele><time>2026-04-20T11:08:02.783Z</time></trkpt><trkpt lat="40.01353" lon="8.48317"><ele>7.3999999999999995</ele><time>2026-04-20T11:08:03.783Z</time></trkpt><trkpt lat="40.013525" lon="8.48305"><ele>7.6000000000000005</ele><time>2026-04-20T11:08:04.783Z</time></trkpt><trkpt lat="40.0135183" lon="8.482915"><ele>7.800000000000001</ele><time>2026-04-20T11:08:05.783Z</time></trkpt><trkpt lat="40.013505" lon="8.4827717"><ele>8.0</ele><time>2026-04-20T11:08:06.783Z</time></trkpt><trkpt lat="40.0134867" lon="8.4826317"><ele>8.25</ele><time>2026-04-20T11:08:07.784Z</time></trkpt><trkpt lat="40.013475" lon="8.4824917"><ele>8.5</ele><time>2026-04-20T11:08:08.783Z</time></trkpt><trkpt lat="40.0134717" lon="8.4823433"><ele>8.75</ele><time>2026-04-20T11:08:09.784Z</time></trkpt><trkpt lat="40.013475" lon="8.482185"><ele>9.0</ele><time>2026-04-20T11:08:10.783Z</time></trkpt><trkpt lat="40.0134733" lon="8.4820133"><ele>9.0</ele><time>2026-04-20T11:08:11.783Z</time></trkpt><trkpt lat="40.0134533" lon="8.4818367"><ele>9.0</ele><time>2026-04-20T11:08:12.783Z</time></trkpt><trkpt lat="40.0134433" lon="8.4816717"><ele>9.0</ele><time>2026-04-20T11:08:13.783Z</time></trkpt><trkpt lat="40.013435" lon="8.481525"><ele>9.0</ele><time>2026-04-20T11:08:14.784Z</time></trkpt><trkpt lat="40.013425" lon="8.481385"><ele>8.666666666666666</ele><time>2026-04-20T11:08:15.783Z</time></trkpt><trkpt lat="40.013415" lon="8.481245"><ele>8.333333333333332</ele><time>2026-04-20T11:08:16.783Z</time></trkpt><trkpt lat="40.0133933" lon="8.4809533"><ele>8.0</ele><time>2026-04-20T11:08:18.784Z</time></trkpt><trkpt lat="40.0133933" lon="8.4807967"><ele>8.0</ele><time>2026-04-20T11:08:19.783Z</time></trkpt><trkpt lat="40.013385" lon="8.480635"><ele>8.0</ele><time>2026-04-20T11:08:20.783Z</time></trkpt><trkpt lat="40.0133783" lon="8.4804683"><ele>8.0</ele><time>2026-04-20T11:08:21.783Z</time></trkpt><trkpt lat="40.0133717" lon="8.4803"><ele>8.0</ele><time>2026-04-20T11:08:22.783Z</time></trkpt><trkpt lat="40.013365" lon="8.480135"><ele>8.0</ele><time>2026-04-20T11:08:23.783Z</time></trkpt><trkpt lat="40.013355" lon="8.4799667"><ele>8.0</ele><time>2026-04-20T11:08:24.783Z</time></trkpt><trkpt lat="40.0133467" lon="8.479795"><ele>8.0</ele><time>2026-04-20T11:08:25.784Z</time></trkpt><trkpt lat="40.0133317" lon="8.479625"><ele>8.0</ele><time>2026-04-20T11:08:26.783Z</time></trkpt><trkpt lat="40.01333" lon="8.4794583"><ele>8.0</ele><time>2026-04-20T11:08:27.783Z</time></trkpt><trkpt lat="40.01333" lon="8.4792833"><ele>8.0</ele><time>2026-04-20T11:08:28.783Z</time></trkpt><trkpt lat="40.0133233" lon="8.4790967"><ele>8.0</ele><time>2026-04-20T11:08:29.783Z</time></trkpt><trkpt lat="40.0133183" lon="8.4788983"><ele>8.0</ele><time>2026-04-20T11:08:30.783Z</time></trkpt><trkpt lat="40.01331" lon="8.4786933"><ele>8.333333333333332</ele><time>2026-04-20T11:08:31.783Z</time></trkpt><trkpt lat="40.0132967" lon="8.4784917"><ele>8.666666666666666</ele><time>2026-04-20T11:08:32.783Z</time></trkpt><trkpt lat="40.0132933" lon="8.478285"><ele>9.0</ele><time>2026-04-20T11:08:33.783Z</time></trkpt><trkpt lat="40.0132817" lon="8.478075"><ele>9.333333333333334</ele><time>2026-04-20T11:08:34.783Z</time></trkpt><trkpt lat="40.0132733" lon="8.4778733"><ele>9.666666666666668</ele><time>2026-04-20T11:08:35.783Z</time></trkpt><trkpt lat="40.01326" lon="8.4776717"><ele>10.0</ele><time>2026-04-20T11:08:36.783Z</time></trkpt><trkpt lat="40.0132583" lon="8.4774733"><ele>10.0</ele><time>2026-04-20T11:08:37.784Z</time></trkpt><trkpt lat="40.0132383" lon="8.4770767"><ele>10.0</ele><time>2026-04-20T11:08:39.783Z</time></trkpt><trkpt lat="40.0132233" lon="8.4768783"><ele>10.0</ele><time>2026-04-20T11:08:40.783Z</time></trkpt><trkpt lat="40.0132067" lon="8.47667"><ele>10.0</ele><time>2026-04-20T11:08:41.783Z</time></trkpt><trkpt lat="40.0131967" lon="8.4764667"><ele>10.0</ele><time>2026-04-20T11:08:42.784Z</time></trkpt><trkpt lat="40.0131883" lon="8.47626"><ele>10.0</ele><time>2026-04-20T11:08:43.783Z</time></trkpt><trkpt lat="40.01318" lon="8.47606"><ele>10.0</ele><time>2026-04-20T11:08:44.783Z</time></trkpt><trkpt lat="40.01317" lon="8.4758583"><ele>10.0</ele><time>2026-04-20T11:08:45.783Z</time></trkpt><trkpt lat="40.01316" lon="8.4756767"><ele>10.0</ele><time>2026-04-20T11:08:46.784Z</time></trkpt><trkpt lat="40.013155" lon="8.475515"><ele>10.166666666666668</ele><time>2026-04-20T11:08:47.784Z</time></trkpt><trkpt lat="40.0131467" lon="8.4753833"><ele>10.333333333333334</ele><time>2026-04-20T11:08:48.783Z</time></trkpt><trkpt lat="40.0131517" lon="8.4752767"><ele>10.5</ele><time>2026-04-20T11:08:49.783Z</time></trkpt><trkpt lat="40.0131717" lon="8.47519"><ele>10.666666666666666</ele><time>2026-04-20T11:08:50.783Z</time></trkpt><trkpt lat="40.0132533" lon="8.4750867"><ele>10.833333333333332</ele><time>2026-04-20T11:08:52.784Z</time></trkpt><trkpt lat="40.0133217" lon="8.4750733"><ele>11.0</ele><time>2026-04-20T11:08:53.783Z</time></trkpt><trkpt lat="40.0133967" lon="8.4750433"><ele>10.600000000000001</ele><time>2026-04-20T11:08:54.783Z</time></trkpt><trkpt lat="40.01345" lon="8.474975"><ele>10.200000000000001</ele><time>2026-04-20T11:08:55.783Z</time></trkpt><trkpt lat="40.0134717" lon="8.474885"><ele>9.8</ele><time>2026-04-20T11:08:56.783Z</time></trkpt><trkpt lat="40.0134767" lon="8.47479"><ele>9.4</ele><time>2026-04-20T11:08:57.783Z</time></trkpt><trkpt lat="40.0134617" lon="8.4746933"><ele>9.0</ele><time>2026-04-20T11:08:58.784Z</time></trkpt><trkpt lat="40.0134367" lon="8.4744567"><ele>9.0</ele><time>2026-04-20T11:09:00.783Z</time></trkpt><trkpt lat="40.0134233" lon="8.4743133"><ele>9.0</ele><time>2026-04-20T11:09:01.783Z</time></trkpt><trkpt lat="40.01342" lon="8.4741733"><ele>9.0</ele><time>2026-04-20T11:09:02.784Z</time></trkpt><trkpt lat="40.0134117" lon="8.4740333"><ele>9.0</ele><time>2026-04-20T11:09:03.784Z</time></trkpt><trkpt lat="40.0134067" lon="8.4738983"><ele>9.0</ele><time>2026-04-20T11:09:04.783Z</time></trkpt><trkpt lat="40.0133983" lon="8.4737633"><ele>8.6</ele><time>2026-04-20T11:09:05.783Z</time></trkpt><trkpt lat="40.0134017" lon="8.4736383"><ele>8.2</ele><time>2026-04-20T11:09:06.783Z</time></trkpt><trkpt lat="40.0134183" lon="8.4735283"><ele>7.799999999999999</ele><time>2026-04-20T11:09:07.783Z</time></trkpt><trkpt lat="40.0134517" lon="8.47342"><ele>7.3999999999999995</ele><time>2026-04-20T11:09:08.783Z</time></trkpt><trkpt lat="40.01351" lon="8.4733083"><ele>7.0</ele><time>2026-04-20T11:09:09.783Z</time></trkpt><trkpt lat="40.0135767" lon="8.4731817"><ele>7.0</ele><time>2026-04-20T11:09:10.783Z</time></trkpt><trkpt lat="40.0136433" lon="8.47304"><ele>7.0</ele><time>2026-04-20T11:09:11.783Z</time></trkpt><trkpt lat="40.0137167" lon="8.472895"><ele>7.0</ele><time>2026-04-20T11:09:12.783Z</time></trkpt><trkpt lat="40.0137933" lon="8.4727567"><ele>7.0</ele><time>2026-04-20T11:09:13.783Z</time></trkpt><trkpt lat="40.01387" lon="8.4726317"><ele>7.3999999999999995</ele><time>2026-04-20T11:09:14.783Z</time></trkpt><trkpt lat="40.0139533" lon="8.47253"><ele>7.799999999999999</ele><time>2026-04-20T11:09:15.784Z</time></trkpt><trkpt lat="40.01403" lon="8.4724483"><ele>8.2</ele><time>2026-04-20T11:09:16.783Z</time></trkpt><trkpt lat="40.0141" lon="8.472395"><ele>8.6</ele><time>2026-04-20T11:09:17.784Z</time></trkpt><trkpt lat="40.014175" lon="8.4723233"><ele>9.0</ele><time>2026-04-20T11:09:19.783Z</time></trkpt><trkpt lat="40.0140867" lon="8.47217"><ele>9.0</ele><time>2026-04-20T11:09:23.783Z</time></trkpt><trkpt lat="40.014015" lon="8.4721183"><ele>9.0</ele><time>2026-04-20T11:09:25.783Z</time></trkpt><trkpt lat="40.0139567" lon="8.472075"><ele>9.0</ele><time>2026-04-20T11:09:37.783Z</time></trkpt><trkpt lat="40.0138667" lon="8.47197"><ele>9.0</ele><time>2026-04-20T11:09:39.783Z</time></trkpt><trkpt lat="40.01382" lon="8.4719133"><ele>9.0</ele><time>2026-04-20T11:09:40.783Z</time></trkpt><trkpt lat="40.01366" lon="8.47174"><ele>9.0</ele><time>2026-04-20T11:09:44.783Z</time></trkpt><trkpt lat="40.0135883" lon="8.4716667"><ele>9.0</ele><time>2026-04-20T11:09:46.783Z</time></trkpt><trkpt lat="40.01349" lon="8.4715917"><ele>9.0</ele><time>2026-04-20T11:09:48.783Z</time></trkpt><trkpt lat="40.0134217" lon="8.4715467"><ele>9.0</ele><time>2026-04-20T11:09:49.783Z</time></trkpt><trkpt lat="40.013345" lon="8.4714933"><ele>9.0</ele><time>2026-04-20T11:09:50.783Z</time></trkpt><trkpt lat="40.013265" lon="8.4714333"><ele>9.0</ele><time>2026-04-20T11:09:51.783Z</time></trkpt><trkpt lat="40.013185" lon="8.4713583"><ele>9.0</ele><time>2026-04-20T11:09:52.783Z</time></trkpt><trkpt lat="40.013095" lon="8.4712867"><ele>9.0</ele><time>2026-04-20T11:09:53.783Z</time></trkpt><trkpt lat="40.0129983" lon="8.4712233"><ele>9.0</ele><time>2026-04-20T11:09:54.783Z</time></trkpt><trkpt lat="40.0129" lon="8.4711633"><ele>9.0</ele><time>2026-04-20T11:09:55.783Z</time></trkpt><trkpt lat="40.0127967" lon="8.4710983"><ele>9.0</ele><time>2026-04-20T11:09:56.783Z</time></trkpt><trkpt lat="40.012705" lon="8.4710367"><ele>9.0</ele><time>2026-04-20T11:09:57.783Z</time></trkpt><trkpt lat="40.012615" lon="8.4709917"><ele>9.0</ele><time>2026-04-20T11:09:58.783Z</time></trkpt><trkpt lat="40.0125317" lon="8.470945"><ele>9.0</ele><time>2026-04-20T11:09:59.783Z</time></trkpt><trkpt lat="40.012455" lon="8.47089"><ele>9.0</ele><time>2026-04-20T11:10:00.783Z</time></trkpt><trkpt lat="40.012385" lon="8.4708383"><ele>9.2</ele><time>2026-04-20T11:10:01.783Z</time></trkpt><trkpt lat="40.0122917" lon="8.4707083"><ele>9.4</ele><time>2026-04-20T11:10:03.784Z</time></trkpt><trkpt lat="40.0122717" lon="8.4706133"><ele>9.6</ele><time>2026-04-20T11:10:04.783Z</time></trkpt><trkpt lat="40.0122567" lon="8.4704983"><ele>9.8</ele><time>2026-04-20T11:10:05.783Z</time></trkpt><trkpt lat="40.0122483" lon="8.4703717"><ele>10.0</ele><time>2026-04-20T11:10:06.783Z</time></trkpt><trkpt lat="40.0122517" lon="8.4702383"><ele>10.25</ele><time>2026-04-20T11:10:07.784Z</time></trkpt><trkpt lat="40.0122617" lon="8.470095"><ele>10.5</ele><time>2026-04-20T11:10:08.783Z</time></trkpt><trkpt lat="40.0122783" lon="8.46994"><ele>10.75</ele><time>2026-04-20T11:10:09.783Z</time></trkpt><trkpt lat="40.0122933" lon="8.469765"><ele>11.0</ele><time>2026-04-20T11:10:10.783Z</time></trkpt><trkpt lat="40.012305" lon="8.469605"><ele>11.0</ele><time>2026-04-20T11:10:11.783Z</time></trkpt><trkpt lat="40.012315" lon="8.46946"><ele>11.0</ele><time>2026-04-20T11:10:12.783Z</time></trkpt><trkpt lat="40.0123233" lon="8.4693233"><ele>11.0</ele><time>2026-04-20T11:10:13.783Z</time></trkpt><trkpt lat="40.0123417" lon="8.4691967"><ele>11.0</ele><time>2026-04-20T11:10:14.783Z</time></trkpt><trkpt lat="40.0123667" lon="8.4690633"><ele>11.0</ele><time>2026-04-20T11:10:15.783Z</time></trkpt><trkpt lat="40.0123933" lon="8.468935"><ele>11.0</ele><time>2026-04-20T11:10:16.783Z</time></trkpt><trkpt lat="40.0124217" lon="8.4688117"><ele>11.0</ele><time>2026-04-20T11:10:17.783Z</time></trkpt><trkpt lat="40.0124483" lon="8.4686933"><ele>11.0</ele><time>2026-04-20T11:10:18.783Z</time></trkpt><trkpt lat="40.0124667" lon="8.4685867"><ele>11.0</ele><time>2026-04-20T11:10:19.784Z</time></trkpt><trkpt lat="40.0124583" lon="8.468485"><ele>11.0</ele><time>2026-04-20T11:10:20.783Z</time></trkpt><trkpt lat="40.01243" lon="8.46838"><ele>11.0</ele><time>2026-04-20T11:10:21.783Z</time></trkpt><trkpt lat="40.0123967" lon="8.4682683"><ele>11.0</ele><time>2026-04-20T11:10:22.783Z</time></trkpt><trkpt lat="40.0123367" lon="8.4680217"><ele>11.0</ele><time>2026-04-20T11:10:24.784Z</time></trkpt><trkpt lat="40.01232" lon="8.467905"><ele>11.0</ele><time>2026-04-20T11:10:25.783Z</time></trkpt><trkpt lat="40.01231" lon="8.4677833"><ele>11.0</ele><time>2026-04-20T11:10:26.783Z</time></trkpt><trkpt lat="40.01231" lon="8.4676517"><ele>10.833333333333332</ele><time>2026-04-20T11:10:27.784Z</time></trkpt><trkpt lat="40.012305" lon="8.46752"><ele>10.666666666666666</ele><time>2026-04-20T11:10:28.783Z</time></trkpt><trkpt lat="40.012295" lon="8.4674033"><ele>10.5</ele><time>2026-04-20T11:10:29.783Z</time></trkpt><trkpt lat="40.0122833" lon="8.4673017"><ele>10.333333333333334</ele><time>2026-04-20T11:10:30.783Z</time></trkpt><trkpt lat="40.0122733" lon="8.467205"><ele>10.166666666666668</ele><time>2026-04-20T11:10:31.783Z</time></trkpt><trkpt lat="40.0122583" lon="8.4670983"><ele>10.0</ele><time>2026-04-20T11:10:32.783Z</time></trkpt><trkpt lat="40.0122333" lon="8.4669667"><ele>10.0</ele><time>2026-04-20T11:10:33.783Z</time></trkpt><trkpt lat="40.01221" lon="8.4668283"><ele>10.0</ele><time>2026-04-20T11:10:34.783Z</time></trkpt><trkpt lat="40.0121883" lon="8.4666883"><ele>10.0</ele><time>2026-04-20T11:10:35.783Z</time></trkpt><trkpt lat="40.01216" lon="8.46655"><ele>10.0</ele><time>2026-04-20T11:10:36.784Z</time></trkpt><trkpt lat="40.0121267" lon="8.4664083"><ele>10.0</ele><time>2026-04-20T11:10:37.783Z</time></trkpt><trkpt lat="40.012095" lon="8.4662633"><ele>10.0</ele><time>2026-04-20T11:10:38.783Z</time></trkpt><trkpt lat="40.012065" lon="8.4661383"><ele>10.0</ele><time>2026-04-20T11:10:39.783Z</time></trkpt><trkpt lat="40.01204" lon="8.465995"><ele>10.0</ele><time>2026-04-20T11:10:40.783Z</time></trkpt><trkpt lat="40.012025" lon="8.4658533"><ele>10.0</ele><time>2026-04-20T11:10:41.784Z</time></trkpt><trkpt lat="40.0120117" lon="8.4657217"><ele>10.0</ele><time>2026-04-20T11:10:42.783Z</time></trkpt><trkpt lat="40.0120017" lon="8.4656017"><ele>10.25</ele><time>2026-04-20T11:10:43.783Z</time></trkpt><trkpt lat="40.0119933" lon="8.4653817"><ele>10.5</ele><time>2026-04-20T11:10:45.783Z</time></trkpt><trkpt lat="40.0119833" lon="8.4652583"><ele>10.75</ele><time>2026-04-20T11:10:46.783Z</time></trkpt><trkpt lat="40.0119767" lon="8.4651267"><ele>11.0</ele><time>2026-04-20T11:10:47.784Z</time></trkpt><trkpt lat="40.0119817" lon="8.4649717"><ele>11.0</ele><time>2026-04-20T11:10:48.783Z</time></trkpt><trkpt lat="40.01199" lon="8.4648033"><ele>11.0</ele><time>2026-04-20T11:10:49.783Z</time></trkpt><trkpt lat="40.0120067" lon="8.4646417"><ele>11.0</ele><time>2026-04-20T11:10:50.783Z</time></trkpt><trkpt lat="40.0120083" lon="8.4644883"><ele>11.0</ele><time>2026-04-20T11:10:51.783Z</time></trkpt><trkpt lat="40.0120067" lon="8.46435"><ele>10.833333333333332</ele><time>2026-04-20T11:10:52.784Z</time></trkpt><trkpt lat="40.0120033" lon="8.4642167"><ele>10.666666666666666</ele><time>2026-04-20T11:10:53.783Z</time></trkpt><trkpt lat="40.0120033" lon="8.4640933"><ele>10.5</ele><time>2026-04-20T11:10:54.784Z</time></trkpt><trkpt lat="40.0120117" lon="8.4639833"><ele>10.333333333333334</ele><time>2026-04-20T11:10:55.783Z</time></trkpt><trkpt lat="40.0120167" lon="8.4638833"><ele>10.166666666666668</ele><time>2026-04-20T11:10:56.783Z</time></trkpt><trkpt lat="40.0120083" lon="8.4637833"><ele>10.0</ele><time>2026-04-20T11:10:57.783Z</time></trkpt><trkpt lat="40.011985" lon="8.4636767"><ele>10.0</ele><time>2026-04-20T11:10:58.784Z</time></trkpt><trkpt lat="40.01195" lon="8.463575"><ele>10.0</ele><time>2026-04-20T11:10:59.783Z</time></trkpt><trkpt lat="40.0118983" lon="8.463465"><ele>10.0</ele><time>2026-04-20T11:11:00.784Z</time></trkpt><trkpt lat="40.0118567" lon="8.46335"><ele>10.0</ele><time>2026-04-20T11:11:01.783Z</time></trkpt><trkpt lat="40.01182" lon="8.4632183"><ele>10.0</ele><time>2026-04-20T11:11:02.783Z</time></trkpt><trkpt lat="40.0117767" lon="8.4631033"><ele>10.0</ele><time>2026-04-20T11:11:03.784Z</time></trkpt><trkpt lat="40.01174" lon="8.4629967"><ele>10.0</ele><time>2026-04-20T11:11:04.783Z</time></trkpt><trkpt lat="40.0116833" lon="8.4628033"><ele>10.0</ele><time>2026-04-20T11:11:06.784Z</time></trkpt><trkpt lat="40.0116817" lon="8.4627033"><ele>10.0</ele><time>2026-04-20T11:11:07.783Z</time></trkpt><trkpt lat="40.0117" lon="8.4626033"><ele>10.0</ele><time>2026-04-20T11:11:08.783Z</time></trkpt><trkpt lat="40.0117333" lon="8.4624883"><ele>9.4</ele><time>2026-04-20T11:11:09.784Z</time></trkpt><trkpt lat="40.01178" lon="8.4623767"><ele>8.8</ele><time>2026-04-20T11:11:10.784Z</time></trkpt><trkpt lat="40.0118267" lon="8.4622583"><ele>8.2</ele><time>2026-04-20T11:11:11.784Z</time></trkpt><trkpt lat="40.0118633" lon="8.4621383"><ele>7.6</ele><time>2026-04-20T11:11:12.783Z</time></trkpt><trkpt lat="40.0118917" lon="8.4620217"><ele>7.0</ele><time>2026-04-20T11:11:13.784Z</time></trkpt><trkpt lat="40.01191" lon="8.4619133"><ele>7.000000000000001</ele><time>2026-04-20T11:11:14.784Z</time></trkpt><trkpt lat="40.011905" lon="8.4618167"><ele>7.0</ele><time>2026-04-20T11:11:15.783Z</time></trkpt><trkpt lat="40.0119" lon="8.4617133"><ele>7.0</ele><time>2026-04-20T11:11:16.783Z</time></trkpt><trkpt lat="40.01189" lon="8.4616033"><ele>7.0</ele><time>2026-04-20T11:11:17.783Z</time></trkpt><trkpt lat="40.0118883" lon="8.4614933"><ele>7.000000000000001</ele><time>2026-04-20T11:11:18.783Z</time></trkpt><trkpt lat="40.01189" lon="8.4613833"><ele>7.0</ele><time>2026-04-20T11:11:19.783Z</time></trkpt><trkpt lat="40.0118833" lon="8.4612867"><ele>7.166666666666667</ele><time>2026-04-20T11:11:20.783Z</time></trkpt><trkpt lat="40.0118733" lon="8.461195"><ele>7.333333333333334</ele><time>2026-04-20T11:11:21.783Z</time></trkpt><trkpt lat="40.0118567" lon="8.461105"><ele>7.5</ele><time>2026-04-20T11:11:22.783Z</time></trkpt><trkpt lat="40.011835" lon="8.4610033"><ele>7.666666666666666</ele><time>2026-04-20T11:11:23.784Z</time></trkpt><trkpt lat="40.0118183" lon="8.460885"><ele>7.833333333333333</ele><time>2026-04-20T11:11:24.784Z</time></trkpt><trkpt lat="40.011805" lon="8.4607533"><ele>8.0</ele><time>2026-04-20T11:11:25.783Z</time></trkpt><trkpt lat="40.011755" lon="8.46052"><ele>8.0</ele><time>2026-04-20T11:11:27.783Z</time></trkpt><trkpt lat="40.01173" lon="8.460405"><ele>8.0</ele><time>2026-04-20T11:11:28.783Z</time></trkpt><trkpt lat="40.0117067" lon="8.4602967"><ele>8.0</ele><time>2026-04-20T11:11:29.783Z</time></trkpt><trkpt lat="40.0116667" lon="8.4601817"><ele>8.0</ele><time>2026-04-20T11:11:30.783Z</time></trkpt><trkpt lat="40.011615" lon="8.4600633"><ele>8.0</ele><time>2026-04-20T11:11:31.783Z</time></trkpt><trkpt lat="40.0115617" lon="8.4599417"><ele>8.4</ele><time>2026-04-20T11:11:32.783Z</time></trkpt><trkpt lat="40.01151" lon="8.459825"><ele>8.8</ele><time>2026-04-20T11:11:33.783Z</time></trkpt><trkpt lat="40.0114717" lon="8.4597133"><ele>9.2</ele><time>2026-04-20T11:11:34.783Z</time></trkpt><trkpt lat="40.0114333" lon="8.45959"><ele>9.6</ele><time>2026-04-20T11:11:35.784Z</time></trkpt><trkpt lat="40.0114017" lon="8.45946"><ele>10.0</ele><time>2026-04-20T11:11:36.783Z</time></trkpt><trkpt lat="40.0113767" lon="8.4593217"><ele>10.0</ele><time>2026-04-20T11:11:37.783Z</time></trkpt><trkpt lat="40.0113717" lon="8.4591983"><ele>10.0</ele><time>2026-04-20T11:11:38.784Z</time></trkpt><trkpt lat="40.0113733" lon="8.4591"><ele>10.0</ele><time>2026-04-20T11:11:39.783Z</time></trkpt><trkpt lat="40.0113517" lon="8.4589933"><ele>10.0</ele><time>2026-04-20T11:11:41.783Z</time></trkpt><trkpt lat="40.0112967" lon="8.4588567"><ele>10.0</ele><time>2026-04-20T11:11:56.783Z</time></trkpt><trkpt lat="40.0112167" lon="8.45869"><ele>10.0</ele><time>2026-04-20T11:11:58.783Z</time></trkpt><trkpt lat="40.0111683" lon="8.4585917"><ele>10.0</ele><time>2026-04-20T11:11:59.784Z</time></trkpt><trkpt lat="40.011125" lon="8.4584683"><ele>10.0</ele><time>2026-04-20T11:12:00.783Z</time></trkpt><trkpt lat="40.0110883" lon="8.4583367"><ele>10.0</ele><time>2026-04-20T11:12:01.784Z</time></trkpt><trkpt lat="40.0110433" lon="8.458185"><ele>10.0</ele><time>2026-04-20T11:12:02.783Z</time></trkpt><trkpt lat="40.0110133" lon="8.4580267"><ele>10.0</ele><time>2026-04-20T11:12:03.783Z</time></trkpt><trkpt lat="40.0109867" lon="8.4578817"><ele>10.0</ele><time>2026-04-20T11:12:04.783Z</time></trkpt><trkpt lat="40.0109633" lon="8.4577433"><ele>10.0</ele><time>2026-04-20T11:12:05.783Z</time></trkpt><trkpt lat="40.0109317" lon="8.4576117"><ele>10.0</ele><time>2026-04-20T11:12:06.783Z</time></trkpt><trkpt lat="40.0108817" lon="8.4574783"><ele>10.0</ele><time>2026-04-20T11:12:07.783Z</time></trkpt><trkpt lat="40.010815" lon="8.45736"><ele>9.8</ele><time>2026-04-20T11:12:08.783Z</time></trkpt><trkpt lat="40.0107483" lon="8.4572383"><ele>9.6</ele><time>2026-04-20T11:12:09.783Z</time></trkpt><trkpt lat="40.010675" lon="8.4571233"><ele>9.4</ele><time>2026-04-20T11:12:10.783Z</time></trkpt><trkpt lat="40.0106083" lon="8.457015"><ele>9.2</ele><time>2026-04-20T11:12:11.783Z</time></trkpt><trkpt lat="40.0105533" lon="8.4569083"><ele>9.0</ele><time>2026-04-20T11:12:12.784Z</time></trkpt><trkpt lat="40.0104983" lon="8.4568133"><ele>9.0</ele><time>2026-04-20T11:12:13.783Z</time></trkpt><trkpt lat="40.0104483" lon="8.4567317"><ele>9.0</ele><time>2026-04-20T11:12:14.783Z</time></trkpt><trkpt lat="40.0103967" lon="8.4566633"><ele>9.0</ele><time>2026-04-20T11:12:15.783Z</time></trkpt><trkpt lat="40.0103367" lon="8.456595"><ele>9.0</ele><time>2026-04-20T11:12:16.783Z</time></trkpt><trkpt lat="40.010275" lon="8.4565183"><ele>9.0</ele><time>2026-04-20T11:12:17.783Z</time></trkpt><trkpt lat="40.0101367" lon="8.4563383"><ele>9.0</ele><time>2026-04-20T11:12:19.783Z</time></trkpt><trkpt lat="40.0100633" lon="8.4562483"><ele>9.0</ele><time>2026-04-20T11:12:20.783Z</time></trkpt><trkpt lat="40.0100017" lon="8.4561733"><ele>9.0</ele><time>2026-04-20T11:12:21.784Z</time></trkpt><trkpt lat="40.0099517" lon="8.4560983"><ele>9.0</ele><time>2026-04-20T11:12:22.783Z</time></trkpt><trkpt lat="40.0099167" lon="8.456015"><ele>9.0</ele><time>2026-04-20T11:12:23.783Z</time></trkpt><trkpt lat="40.0098683" lon="8.4559217"><ele>9.0</ele><time>2026-04-20T11:12:24.783Z</time></trkpt><trkpt lat="40.00982" lon="8.4558317"><ele>8.833333333333334</ele><time>2026-04-20T11:12:25.783Z</time></trkpt><trkpt lat="40.0097867" lon="8.4557533"><ele>8.666666666666666</ele><time>2026-04-20T11:12:26.784Z</time></trkpt><trkpt lat="40.0097583" lon="8.4556783"><ele>8.5</ele><time>2026-04-20T11:12:27.783Z</time></trkpt><trkpt lat="40.0097417" lon="8.45559"><ele>8.333333333333332</ele><time>2026-04-20T11:12:28.783Z</time></trkpt><trkpt lat="40.0097267" lon="8.4554933"><ele>8.166666666666666</ele><time>2026-04-20T11:12:29.784Z</time></trkpt><trkpt lat="40.0097117" lon="8.4553867"><ele>8.0</ele><time>2026-04-20T11:12:30.783Z</time></trkpt><trkpt lat="40.009685" lon="8.455275"><ele>8.0</ele><time>2026-04-20T11:12:31.783Z</time></trkpt><trkpt lat="40.00965" lon="8.4551567"><ele>8.0</ele><time>2026-04-20T11:12:32.783Z</time></trkpt><trkpt lat="40.0096117" lon="8.455025"><ele>8.0</ele><time>2026-04-20T11:12:33.783Z</time></trkpt><trkpt lat="40.009565" lon="8.4548933"><ele>8.0</ele><time>2026-04-20T11:12:34.783Z</time></trkpt><trkpt lat="40.0095167" lon="8.454755"><ele>8.0</ele><time>2026-04-20T11:12:35.783Z</time></trkpt><trkpt lat="40.0094667" lon="8.4546167"><ele>8.0</ele><time>2026-04-20T11:12:36.783Z</time></trkpt><trkpt lat="40.00941" lon="8.45449"><ele>8.0</ele><time>2026-04-20T11:12:37.783Z</time></trkpt><trkpt lat="40.0093633" lon="8.4543767"><ele>8.0</ele><time>2026-04-20T11:12:38.783Z</time></trkpt><trkpt lat="40.00929" lon="8.45417"><ele>8.0</ele><time>2026-04-20T11:12:40.783Z</time></trkpt><trkpt lat="40.0092617" lon="8.4540683"><ele>7.999999999999999</ele><time>2026-04-20T11:12:41.783Z</time></trkpt><trkpt lat="40.0092383" lon="8.4539633"><ele>8.0</ele><time>2026-04-20T11:12:42.783Z</time></trkpt><trkpt lat="40.0092167" lon="8.4538467"><ele>8.0</ele><time>2026-04-20T11:12:43.783Z</time></trkpt><trkpt lat="40.0092083" lon="8.4537333"><ele>8.0</ele><time>2026-04-20T11:12:44.783Z</time></trkpt><trkpt lat="40.0091967" lon="8.4536267"><ele>7.999999999999999</ele><time>2026-04-20T11:12:45.783Z</time></trkpt><trkpt lat="40.009185" lon="8.453535"><ele>8.0</ele><time>2026-04-20T11:12:46.783Z</time></trkpt><trkpt lat="40.009165" lon="8.453445"><ele>7.833333333333333</ele><time>2026-04-20T11:12:47.784Z</time></trkpt><trkpt lat="40.0091333" lon="8.453355"><ele>7.666666666666666</ele><time>2026-04-20T11:12:48.783Z</time></trkpt><trkpt lat="40.009095" lon="8.4532683"><ele>7.5</ele><time>2026-04-20T11:12:49.783Z</time></trkpt><trkpt lat="40.0090583" lon="8.4531817"><ele>7.333333333333334</ele><time>2026-04-20T11:12:50.783Z</time></trkpt><trkpt lat="40.0090133" lon="8.453095"><ele>7.166666666666667</ele><time>2026-04-20T11:12:51.783Z</time></trkpt><trkpt lat="40.0089717" lon="8.45301"><ele>7.0</ele><time>2026-04-20T11:12:52.783Z</time></trkpt><trkpt lat="40.0089283" lon="8.45293"><ele>6.714285714285714</ele><time>2026-04-20T11:12:53.783Z</time></trkpt><trkpt lat="40.008885" lon="8.4528533"><ele>6.428571428571429</ele><time>2026-04-20T11:12:54.783Z</time></trkpt><trkpt lat="40.0088333" lon="8.45278"><ele>6.142857142857142</ele><time>2026-04-20T11:12:55.783Z</time></trkpt><trkpt lat="40.00877" lon="8.452725"><ele>5.857142857142858</ele><time>2026-04-20T11:12:56.784Z</time></trkpt><trkpt lat="40.0087017" lon="8.4526783"><ele>5.571428571428571</ele><time>2026-04-20T11:12:57.783Z</time></trkpt><trkpt lat="40.008635" lon="8.45263"><ele>5.285714285714286</ele><time>2026-04-20T11:12:58.783Z</time></trkpt><trkpt lat="40.008575" lon="8.4525933"><ele>5.0</ele><time>2026-04-20T11:12:59.783Z</time></trkpt><trkpt lat="40.00839" lon="8.4524733"><ele>5.333333333333334</ele><time>2026-04-20T11:13:03.783Z</time></trkpt><trkpt lat="40.008325" lon="8.4524417"><ele>5.666666666666667</ele><time>2026-04-20T11:13:05.783Z</time></trkpt><trkpt lat="40.0082583" lon="8.4524117"><ele>6.0</ele><time>2026-04-20T11:13:08.783Z</time></trkpt><trkpt lat="40.0081717" lon="8.4523683"><ele>6.333333333333334</ele><time>2026-04-20T11:13:35.784Z</time></trkpt><trkpt lat="40.00805" lon="8.4523"><ele>6.666666666666667</ele><time>2026-04-20T11:13:37.784Z</time></trkpt><trkpt lat="40.007975" lon="8.4522517"><ele>7.0</ele><time>2026-04-20T11:13:38.784Z</time></trkpt><trkpt lat="40.0079033" lon="8.45219"><ele>7.0</ele><time>2026-04-20T11:13:39.783Z</time></trkpt><trkpt lat="40.0078233" lon="8.452125"><ele>6.999999999999999</ele><time>2026-04-20T11:13:40.783Z</time></trkpt><trkpt lat="40.0077383" lon="8.4520517"><ele>6.999999999999999</ele><time>2026-04-20T11:13:41.783Z</time></trkpt><trkpt lat="40.0076483" lon="8.4519733"><ele>7.0</ele><time>2026-04-20T11:13:42.783Z</time></trkpt><trkpt lat="40.0075667" lon="8.4519017"><ele>7.0</ele><time>2026-04-20T11:13:43.783Z</time></trkpt><trkpt lat="40.0074883" lon="8.451835"><ele>7.166666666666667</ele><time>2026-04-20T11:13:44.783Z</time></trkpt><trkpt lat="40.0074167" lon="8.4517717"><ele>7.333333333333334</ele><time>2026-04-20T11:13:45.783Z</time></trkpt><trkpt lat="40.007355" lon="8.451715"><ele>7.5</ele><time>2026-04-20T11:13:46.783Z</time></trkpt><trkpt lat="40.0072967" lon="8.4516683"><ele>7.666666666666666</ele><time>2026-04-20T11:13:47.783Z</time></trkpt><trkpt lat="40.0072167" lon="8.4515783"><ele>7.833333333333333</ele><time>2026-04-20T11:13:49.783Z</time></trkpt><trkpt lat="40.007145" lon="8.4514667"><ele>8.0</ele><time>2026-04-20T11:13:51.783Z</time></trkpt><trkpt lat="40.0070983" lon="8.451395"><ele>8.0</ele><time>2026-04-20T11:13:52.784Z</time></trkpt><trkpt lat="40.0070417" lon="8.4513133"><ele>8.0</ele><time>2026-04-20T11:13:53.784Z</time></trkpt><trkpt lat="40.0069833" lon="8.451225"><ele>8.0</ele><time>2026-04-20T11:13:54.783Z</time></trkpt><trkpt lat="40.0069167" lon="8.4511267"><ele>8.0</ele><time>2026-04-20T11:13:55.783Z</time></trkpt><trkpt lat="40.0068467" lon="8.4510283"><ele>8.0</ele><time>2026-04-20T11:13:56.783Z</time></trkpt><trkpt lat="40.0067033" lon="8.4508367"><ele>7.800000000000001</ele><time>2026-04-20T11:13:58.783Z</time></trkpt><trkpt lat="40.0066183" lon="8.4507467"><ele>7.6000000000000005</ele><time>2026-04-20T11:13:59.783Z</time></trkpt><trkpt lat="40.0065233" lon="8.4506617"><ele>7.3999999999999995</ele><time>2026-04-20T11:14:00.783Z</time></trkpt><trkpt lat="40.0064333" lon="8.4505767"><ele>7.199999999999999</ele><time>2026-04-20T11:14:01.784Z</time></trkpt><trkpt lat="40.00635" lon="8.4505017"><ele>7.0</ele><time>2026-04-20T11:14:02.784Z</time></trkpt><trkpt lat="40.00627" lon="8.4504317"><ele>6.666666666666667</ele><time>2026-04-20T11:14:03.783Z</time></trkpt><trkpt lat="40.006205" lon="8.4503633"><ele>6.333333333333334</ele><time>2026-04-20T11:14:04.784Z</time></trkpt><trkpt lat="40.0061417" lon="8.4502983"><ele>6.0</ele><time>2026-04-20T11:14:05.783Z</time></trkpt><trkpt lat="40.0060733" lon="8.4502367"><ele>5.666666666666667</ele><time>2026-04-20T11:14:06.783Z</time></trkpt><trkpt lat="40.006005" lon="8.45017"><ele>5.333333333333334</ele><time>2026-04-20T11:14:07.783Z</time></trkpt><trkpt lat="40.0059367" lon="8.4500883"><ele>5.0</ele><time>2026-04-20T11:14:08.783Z</time></trkpt><trkpt lat="40.0058617" lon="8.450005"><ele>5.0</ele><time>2026-04-20T11:14:09.784Z</time></trkpt><trkpt lat="40.0057833" lon="8.4499167"><ele>5.0</ele><time>2026-04-20T11:14:10.783Z</time></trkpt><trkpt lat="40.0056933" lon="8.4498283"><ele>5.0</ele><time>2026-04-20T11:14:11.784Z</time></trkpt><trkpt lat="40.005605" lon="8.4497317"><ele>5.0</ele><time>2026-04-20T11:14:12.783Z</time></trkpt><trkpt lat="40.005515" lon="8.44964"><ele>5.0</ele><time>2026-04-20T11:14:13.783Z</time></trkpt><trkpt lat="40.00544" lon="8.4495567"><ele>5.0</ele><time>2026-04-20T11:14:14.783Z</time></trkpt><trkpt lat="40.005365" lon="8.449475"><ele>5.0</ele><time>2026-04-20T11:14:15.784Z</time></trkpt><trkpt lat="40.0053067" lon="8.4494133"><ele>5.0</ele><time>2026-04-20T11:14:16.783Z</time></trkpt><trkpt lat="40.0051867" lon="8.4493033"><ele>5.0</ele><time>2026-04-20T11:14:18.783Z</time></trkpt><trkpt lat="40.0051217" lon="8.449245"><ele>5.0</ele><time>2026-04-20T11:14:19.783Z</time></trkpt><trkpt lat="40.00505" lon="8.4491767"><ele>5.4</ele><time>2026-04-20T11:14:20.783Z</time></trkpt><trkpt lat="40.0049733" lon="8.4491"><ele>5.8</ele><time>2026-04-20T11:14:21.783Z</time></trkpt><trkpt lat="40.0048867" lon="8.44902"><ele>6.199999999999999</ele><time>2026-04-20T11:14:22.783Z</time></trkpt><trkpt lat="40.0048017" lon="8.4489367"><ele>6.6</ele><time>2026-04-20T11:14:23.783Z</time></trkpt><trkpt lat="40.004715" lon="8.4488533"><ele>7.0</ele><time>2026-04-20T11:14:24.783Z</time></trkpt><trkpt lat="40.0046267" lon="8.4487733"><ele>7.0</ele><time>2026-04-20T11:14:25.783Z</time></trkpt><trkpt lat="40.0045417" lon="8.4487"><ele>6.999999999999999</ele><time>2026-04-20T11:14:26.783Z</time></trkpt><trkpt lat="40.0044567" lon="8.4486367"><ele>6.999999999999999</ele><time>2026-04-20T11:14:27.783Z</time></trkpt><trkpt lat="40.0043683" lon="8.4485883"><ele>7.0</ele><time>2026-04-20T11:14:28.784Z</time></trkpt><trkpt lat="40.0042833" lon="8.44855"><ele>7.0</ele><time>2026-04-20T11:14:29.783Z</time></trkpt><trkpt lat="40.0041883" lon="8.4485183"><ele>6.833333333333334</ele><time>2026-04-20T11:14:30.784Z</time></trkpt><trkpt lat="40.0040983" lon="8.4484933"><ele>6.666666666666667</ele><time>2026-04-20T11:14:31.783Z</time></trkpt><trkpt lat="40.0040117" lon="8.448465"><ele>6.5</ele><time>2026-04-20T11:14:32.783Z</time></trkpt><trkpt lat="40.003925" lon="8.4484333"><ele>6.333333333333334</ele><time>2026-04-20T11:14:33.783Z</time></trkpt><trkpt lat="40.00385" lon="8.4483883"><ele>6.166666666666667</ele><time>2026-04-20T11:14:34.783Z</time></trkpt><trkpt lat="40.0037733" lon="8.4483417"><ele>6.0</ele><time>2026-04-20T11:14:35.784Z</time></trkpt><trkpt lat="40.0037" lon="8.4482917"><ele>6.0</ele><time>2026-04-20T11:14:36.783Z</time></trkpt><trkpt lat="40.0036317" lon="8.4482383"><ele>6.0</ele><time>2026-04-20T11:14:37.783Z</time></trkpt><trkpt lat="40.0035083" lon="8.4481317"><ele>6.0</ele><time>2026-04-20T11:14:39.784Z</time></trkpt><trkpt lat="40.003415" lon="8.4480767"><ele>6.0</ele><time>2026-04-20T11:14:41.784Z</time></trkpt><trkpt lat="40.0033383" lon="8.4480617"><ele>6.0</ele><time>2026-04-20T11:30:41.781Z</time></trkpt><trkpt lat="40.0031683" lon="8.4479733"><ele>6.0</ele><time>2026-04-20T11:30:45.78Z</time></trkpt><trkpt lat="40.0031017" lon="8.4479467"><ele>6.0</ele><time>2026-04-20T11:30:46.78Z</time></trkpt><trkpt lat="40.0030283" lon="8.44792"><ele>6.0</ele><time>2026-04-20T11:30:47.78Z</time></trkpt><trkpt lat="40.0029467" lon="8.4478917"><ele>6.0</ele><time>2026-04-20T11:30:48.78Z</time></trkpt><trkpt lat="40.002865" lon="8.447865"><ele>6.0</ele><time>2026-04-20T11:30:49.78Z</time></trkpt><trkpt lat="40.00278" lon="8.44784"><ele>6.0</ele><time>2026-04-20T11:30:50.78Z</time></trkpt><trkpt lat="40.0026983" lon="8.4478167"><ele>6.0</ele><time>2026-04-20T11:30:51.781Z</time></trkpt><trkpt lat="40.0026183" lon="8.447795"><ele>6.0</ele><time>2026-04-20T11:30:52.78Z</time></trkpt><trkpt lat="40.0025333" lon="8.4477633"><ele>6.0</ele><time>2026-04-20T11:30:53.78Z</time></trkpt><trkpt lat="40.00245" lon="8.4477283"><ele>6.0</ele><time>2026-04-20T11:30:54.78Z</time></trkpt><trkpt lat="40.00236" lon="8.4476867"><ele>6.0</ele><time>2026-04-20T11:30:55.78Z</time></trkpt><trkpt lat="40.002265" lon="8.4476517"><ele>6.199999999999999</ele><time>2026-04-20T11:30:56.78Z</time></trkpt><trkpt lat="40.0021767" lon="8.44761"><ele>6.3999999999999995</ele><time>2026-04-20T11:30:57.78Z</time></trkpt><trkpt lat="40.002085" lon="8.44757"><ele>6.6</ele><time>2026-04-20T11:30:58.78Z</time></trkpt><trkpt lat="40.0019917" lon="8.447525"><ele>6.8</ele><time>2026-04-20T11:30:59.78Z</time></trkpt><trkpt lat="40.0018933" lon="8.447475"><ele>7.0</ele><time>2026-04-20T11:31:00.78Z</time></trkpt><trkpt lat="40.0017933" lon="8.44742"><ele>7.0</ele><time>2026-04-20T11:31:01.781Z</time></trkpt><trkpt lat="40.0016967" lon="8.447365"><ele>7.0</ele><time>2026-04-20T11:31:02.78Z</time></trkpt><trkpt lat="40.0014983" lon="8.44725"><ele>7.0</ele><time>2026-04-20T11:31:04.78Z</time></trkpt><trkpt lat="40.0013933" lon="8.4471917"><ele>7.0</ele><time>2026-04-20T11:31:05.78Z</time></trkpt><trkpt lat="40.0012933" lon="8.447135"><ele>7.0</ele><time>2026-04-20T11:31:06.78Z</time></trkpt><trkpt lat="40.0011917" lon="8.4470817"><ele>6.999999999999999</ele><time>2026-04-20T11:31:07.78Z</time></trkpt><trkpt lat="40.0011017" lon="8.4470317"><ele>6.999999999999999</ele><time>2026-04-20T11:31:08.781Z</time></trkpt><trkpt lat="40.001005" lon="8.4469883"><ele>7.0</ele><time>2026-04-20T11:31:09.78Z</time></trkpt><trkpt lat="40.00091" lon="8.4469483"><ele>7.0</ele><time>2026-04-20T11:31:10.78Z</time></trkpt><trkpt lat="40.0008267" lon="8.4469133"><ele>6.8</ele><time>2026-04-20T11:31:11.78Z</time></trkpt><trkpt lat="40.0007333" lon="8.4468867"><ele>6.6</ele><time>2026-04-20T11:31:12.78Z</time></trkpt><trkpt lat="40.00063" lon="8.4468733"><ele>6.3999999999999995</ele><time>2026-04-20T11:31:13.78Z</time></trkpt><trkpt lat="40.000525" lon="8.4468483"><ele>6.199999999999999</ele><time>2026-04-20T11:31:14.78Z</time></trkpt><trkpt lat="40.00042" lon="8.4468467"><ele>6.0</ele><time>2026-04-20T11:31:15.78Z</time></trkpt><trkpt lat="40.0003167" lon="8.446845"><ele>6.0</ele><time>2026-04-20T11:31:16.781Z</time></trkpt><trkpt lat="40.0002217" lon="8.4468417"><ele>6.0</ele><time>2026-04-20T11:31:17.781Z</time></trkpt><trkpt lat="40.0001217" lon="8.4468233"><ele>6.0</ele><time>2026-04-20T11:31:18.78Z</time></trkpt><trkpt lat="40.0000183" lon="8.4467917"><ele>6.0</ele><time>2026-04-20T11:31:19.78Z</time></trkpt><trkpt lat="39.99991" lon="8.4467567"><ele>6.0</ele><time>2026-04-20T11:31:20.78Z</time></trkpt><trkpt lat="39.99981" lon="8.446715"><ele>6.0</ele><time>2026-04-20T11:31:21.78Z</time></trkpt><trkpt lat="39.9997133" lon="8.4466717"><ele>6.0</ele><time>2026-04-20T11:31:22.78Z</time></trkpt><trkpt lat="39.9996217" lon="8.44662"><ele>6.0</ele><time>2026-04-20T11:31:23.78Z</time></trkpt><trkpt lat="39.99943" lon="8.4464883"><ele>6.0</ele><time>2026-04-20T11:31:25.78Z</time></trkpt><trkpt lat="39.9993317" lon="8.4464133"><ele>6.0</ele><time>2026-04-20T11:31:26.781Z</time></trkpt><trkpt lat="39.9992267" lon="8.44633"><ele>6.0</ele><time>2026-04-20T11:31:27.78Z</time></trkpt><trkpt lat="39.99913" lon="8.4462633"><ele>6.0</ele><time>2026-04-20T11:31:28.78Z</time></trkpt><trkpt lat="39.999035" lon="8.4461983"><ele>6.0</ele><time>2026-04-20T11:31:29.78Z</time></trkpt><trkpt lat="39.9989317" lon="8.4461433"><ele>5.75</ele><time>2026-04-20T11:31:30.78Z</time></trkpt><trkpt lat="39.99883" lon="8.4460767"><ele>5.5</ele><time>2026-04-20T11:31:31.78Z</time></trkpt><trkpt lat="39.998725" lon="8.446005"><ele>5.25</ele><time>2026-04-20T11:31:32.78Z</time></trkpt><trkpt lat="39.9986217" lon="8.445935"><ele>5.0</ele><time>2026-04-20T11:31:33.78Z</time></trkpt><trkpt lat="39.99852" lon="8.44586"><ele>5.0</ele><time>2026-04-20T11:31:34.78Z</time></trkpt><trkpt lat="39.9984217" lon="8.44578"><ele>5.0</ele><time>2026-04-20T11:31:35.781Z</time></trkpt><trkpt lat="39.9983383" lon="8.44571"><ele>5.0</ele><time>2026-04-20T11:31:36.781Z</time></trkpt><trkpt lat="39.9982633" lon="8.44565"><ele>5.0</ele><time>2026-04-20T11:31:37.78Z</time></trkpt><trkpt lat="39.9981817" lon="8.4455917"><ele>5.0</ele><time>2026-04-20T11:31:38.781Z</time></trkpt><trkpt lat="39.99809" lon="8.4455483"><ele>5.0</ele><time>2026-04-20T11:31:39.78Z</time></trkpt><trkpt lat="39.9980017" lon="8.4455233"><ele>5.0</ele><time>2026-04-20T11:31:40.78Z</time></trkpt><trkpt lat="39.997925" lon="8.4454983"><ele>5.0</ele><time>2026-04-20T11:31:41.78Z</time></trkpt><trkpt lat="39.9978383" lon="8.44548"><ele>5.0</ele><time>2026-04-20T11:31:42.781Z</time></trkpt><trkpt lat="39.9977417" lon="8.4454583"><ele>5.0</ele><time>2026-04-20T11:31:43.78Z</time></trkpt><trkpt lat="39.99763" lon="8.4454367"><ele>4.5</ele><time>2026-04-20T11:31:44.781Z</time></trkpt><trkpt lat="39.9974133" lon="8.4454117"><ele>4.0</ele><time>2026-04-20T11:31:46.78Z</time></trkpt><trkpt lat="39.997305" lon="8.445405"><ele>3.5</ele><time>2026-04-20T11:31:47.781Z</time></trkpt><trkpt lat="39.9972" lon="8.4453983"><ele>3.0</ele><time>2026-04-20T11:31:48.781Z</time></trkpt><trkpt lat="39.997095" lon="8.44539"><ele>3.0</ele><time>2026-04-20T11:31:49.78Z</time></trkpt><trkpt lat="39.996985" lon="8.4453817"><ele>3.0</ele><time>2026-04-20T11:31:50.78Z</time></trkpt><trkpt lat="39.9968733" lon="8.4453667"><ele>3.0</ele><time>2026-04-20T11:31:51.781Z</time></trkpt><trkpt lat="39.9967633" lon="8.4453567"><ele>3.0</ele><time>2026-04-20T11:31:52.78Z</time></trkpt><trkpt lat="39.99666" lon="8.44535"><ele>3.0</ele><time>2026-04-20T11:31:53.78Z</time></trkpt><trkpt lat="39.9965583" lon="8.4453417"><ele>3.1666666666666665</ele><time>2026-04-20T11:31:54.781Z</time></trkpt><trkpt lat="39.9964667" lon="8.4453367"><ele>3.333333333333333</ele><time>2026-04-20T11:31:55.78Z</time></trkpt><trkpt lat="39.9963733" lon="8.445335"><ele>3.5</ele><time>2026-04-20T11:31:56.781Z</time></trkpt><trkpt lat="39.9962867" lon="8.4453367"><ele>3.6666666666666665</ele><time>2026-04-20T11:31:57.781Z</time></trkpt><trkpt lat="39.9962067" lon="8.4453517"><ele>3.833333333333333</ele><time>2026-04-20T11:31:58.78Z</time></trkpt><trkpt lat="39.9961183" lon="8.4453733"><ele>4.0</ele><time>2026-04-20T11:31:59.78Z</time></trkpt><trkpt lat="39.9960183" lon="8.44539"><ele>4.0</ele><time>2026-04-20T11:32:00.781Z</time></trkpt><trkpt lat="39.9959133" lon="8.445395"><ele>4.0</ele><time>2026-04-20T11:32:01.78Z</time></trkpt><trkpt lat="39.99582" lon="8.4453933"><ele>4.0</ele><time>2026-04-20T11:32:02.78Z</time></trkpt><trkpt lat="39.9957283" lon="8.44538"><ele>4.0</ele><time>2026-04-20T11:32:03.78Z</time></trkpt><trkpt lat="39.9956467" lon="8.4453467"><ele>4.0</ele><time>2026-04-20T11:32:04.78Z</time></trkpt><trkpt lat="39.9955667" lon="8.4453117"><ele>4.0</ele><time>2026-04-20T11:32:05.78Z</time></trkpt><trkpt lat="39.9954133" lon="8.445245"><ele>4.0</ele><time>2026-04-20T11:32:07.78Z</time></trkpt><trkpt lat="39.9953417" lon="8.4452083"><ele>4.0</ele><time>2026-04-20T11:32:08.78Z</time></trkpt><trkpt lat="39.9952683" lon="8.4451667"><ele>4.0</ele><time>2026-04-20T11:32:09.78Z</time></trkpt><trkpt lat="39.9951583" lon="8.44512"><ele>4.0</ele><time>2026-04-20T11:32:11.78Z</time></trkpt><trkpt lat="39.9950517" lon="8.4451"><ele>4.333333333333333</ele><time>2026-04-20T11:32:13.78Z</time></trkpt><trkpt lat="39.9949633" lon="8.4450567"><ele>4.666666666666666</ele><time>2026-04-20T11:32:15.78Z</time></trkpt><trkpt lat="39.9948833" lon="8.4450217"><ele>5.0</ele><time>2026-04-20T11:32:17.781Z</time></trkpt><trkpt lat="39.9948217" lon="8.445"><ele>5.333333333333333</ele><time>2026-04-20T11:32:18.78Z</time></trkpt><trkpt lat="39.9947417" lon="8.4449833"><ele>5.666666666666667</ele><time>2026-04-20T11:32:19.78Z</time></trkpt><trkpt lat="39.9946567" lon="8.4449567"><ele>6.0</ele><time>2026-04-20T11:32:20.781Z</time></trkpt><trkpt lat="39.9945567" lon="8.4449283"><ele>6.0</ele><time>2026-04-20T11:32:21.78Z</time></trkpt><trkpt lat="39.9944583" lon="8.4449033"><ele>6.0</ele><time>2026-04-20T11:32:22.78Z</time></trkpt><trkpt lat="39.9943583" lon="8.4448667"><ele>6.0</ele><time>2026-04-20T11:32:23.78Z</time></trkpt><trkpt lat="39.99426" lon="8.444835"><ele>6.0</ele><time>2026-04-20T11:32:24.781Z</time></trkpt><trkpt lat="39.9941583" lon="8.444805"><ele>6.0</ele><time>2026-04-20T11:32:25.78Z</time></trkpt><trkpt lat="39.994055" lon="8.4447767"><ele>5.333333333333333</ele><time>2026-04-20T11:32:26.78Z</time></trkpt><trkpt lat="39.99383" lon="8.4447317"><ele>4.666666666666666</ele><time>2026-04-20T11:32:28.781Z</time></trkpt><trkpt lat="39.9937183" lon="8.4447217"><ele>4.0</ele><time>2026-04-20T11:32:29.78Z</time></trkpt><trkpt lat="39.9936033" lon="8.4447133"><ele>4.0</ele><time>2026-04-20T11:32:30.78Z</time></trkpt><trkpt lat="39.9934883" lon="8.444705"><ele>4.0</ele><time>2026-04-20T11:32:31.78Z</time></trkpt><trkpt lat="39.9933683" lon="8.44471"><ele>4.0</ele><time>2026-04-20T11:32:32.78Z</time></trkpt><trkpt lat="39.993255" lon="8.444725"><ele>4.0</ele><time>2026-04-20T11:32:33.78Z</time></trkpt><trkpt lat="39.9931433" lon="8.44474"><ele>4.0</ele><time>2026-04-20T11:32:34.78Z</time></trkpt><trkpt lat="39.993045" lon="8.444755"><ele>4.0</ele><time>2026-04-20T11:32:35.78Z</time></trkpt><trkpt lat="39.99295" lon="8.4447733"><ele>4.0</ele><time>2026-04-20T11:32:36.78Z</time></trkpt><trkpt lat="39.9928483" lon="8.4447733"><ele>4.0</ele><time>2026-04-20T11:32:37.781Z</time></trkpt><trkpt lat="39.992745" lon="8.4447467"><ele>4.0</ele><time>2026-04-20T11:32:38.78Z</time></trkpt><trkpt lat="39.9926333" lon="8.4447117"><ele>4.0</ele><time>2026-04-20T11:32:39.78Z</time></trkpt><trkpt lat="39.9925283" lon="8.4446683"><ele>4.0</ele><time>2026-04-20T11:32:40.78Z</time></trkpt><trkpt lat="39.992415" lon="8.4446117"><ele>4.0</ele><time>2026-04-20T11:32:41.78Z</time></trkpt><trkpt lat="39.9923083" lon="8.4445517"><ele>4.0</ele><time>2026-04-20T11:32:42.78Z</time></trkpt><trkpt lat="39.9922067" lon="8.44449"><ele>4.0</ele><time>2026-04-20T11:32:43.78Z</time></trkpt><trkpt lat="39.99211" lon="8.4444317"><ele>4.0</ele><time>2026-04-20T11:32:44.78Z</time></trkpt><trkpt lat="39.9920283" lon="8.4443817"><ele>4.0</ele><time>2026-04-20T11:32:45.78Z</time></trkpt><trkpt lat="39.99195" lon="8.4443417"><ele>4.0</ele><time>2026-04-20T11:32:46.78Z</time></trkpt><trkpt lat="39.991885" lon="8.44432"><ele>4.0</ele><time>2026-04-20T11:32:47.781Z</time></trkpt><trkpt lat="39.9917283" lon="8.444435"><ele>4.2</ele><time>2026-04-20T11:32:50.78Z</time></trkpt><trkpt lat="39.9916717" lon="8.4445283"><ele>4.4</ele><time>2026-04-20T11:32:51.78Z</time></trkpt><trkpt lat="39.9916167" lon="8.444625"><ele>4.6</ele><time>2026-04-20T11:32:52.78Z</time></trkpt><trkpt lat="39.9915483" lon="8.4447367"><ele>4.8</ele><time>2026-04-20T11:32:53.78Z</time></trkpt><trkpt lat="39.9914733" lon="8.444845"><ele>5.0</ele><time>2026-04-20T11:32:54.78Z</time></trkpt><trkpt lat="39.991405" lon="8.44494"><ele>5.0</ele><time>2026-04-20T11:32:55.78Z</time></trkpt><trkpt lat="39.9913333" lon="8.4450283"><ele>5.0</ele><time>2026-04-20T11:32:56.78Z</time></trkpt><trkpt lat="39.9912717" lon="8.4451067"><ele>5.0</ele><time>2026-04-20T11:32:57.78Z</time></trkpt><trkpt lat="39.9912167" lon="8.4451867"><ele>5.0</ele><time>2026-04-20T11:32:58.78Z</time></trkpt><trkpt lat="39.991165" lon="8.44526"><ele>5.0</ele><time>2026-04-20T11:32:59.78Z</time></trkpt><trkpt lat="39.9911083" lon="8.4453217"><ele>5.0</ele><time>2026-04-20T11:33:00.78Z</time></trkpt><trkpt lat="39.99099" lon="8.4453433"><ele>5.0</ele><time>2026-04-20T11:33:02.78Z</time></trkpt><trkpt lat="39.9909233" lon="8.4452933"><ele>5.0</ele><time>2026-04-20T11:33:03.78Z</time></trkpt><trkpt lat="39.9908517" lon="8.4452117"><ele>5.0</ele><time>2026-04-20T11:33:04.781Z</time></trkpt><trkpt lat="39.9907783" lon="8.4451283"><ele>5.0</ele><time>2026-04-20T11:33:05.78Z</time></trkpt><trkpt lat="39.9907133" lon="8.4450517"><ele>5.0</ele><time>2026-04-20T11:33:06.78Z</time></trkpt><trkpt lat="39.9906567" lon="8.4449883"><ele>5.0</ele><time>2026-04-20T11:33:07.78Z</time></trkpt><trkpt lat="39.99051" lon="8.4448233"><ele>4.8</ele><time>2026-04-20T11:33:10.78Z</time></trkpt><trkpt lat="39.9904567" lon="8.44477"><ele>4.6</ele><time>2026-04-20T11:33:11.78Z</time></trkpt><trkpt lat="39.9903517" lon="8.4446767"><ele>4.4</ele><time>2026-04-20T11:33:13.78Z</time></trkpt><trkpt lat="39.99025" lon="8.4446583"><ele>4.2</ele><time>2026-04-20T11:33:15.781Z</time></trkpt><trkpt lat="39.99015" lon="8.44474"><ele>4.0</ele><time>2026-04-20T11:33:17.78Z</time></trkpt><trkpt lat="39.9901033" lon="8.444815"><ele>4.0</ele><time>2026-04-20T11:33:18.78Z</time></trkpt><trkpt lat="39.9900483" lon="8.44491"><ele>4.0</ele><time>2026-04-20T11:33:19.78Z</time></trkpt><trkpt lat="39.9899867" lon="8.4450083"><ele>4.0</ele><time>2026-04-20T11:33:20.781Z</time></trkpt><trkpt lat="39.9899283" lon="8.4451083"><ele>4.0</ele><time>2026-04-20T11:33:21.78Z</time></trkpt><trkpt lat="39.9898667" lon="8.4452033"><ele>4.0</ele><time>2026-04-20T11:33:22.78Z</time></trkpt><trkpt lat="39.9898033" lon="8.4452917"><ele>4.2</ele><time>2026-04-20T11:33:23.78Z</time></trkpt><trkpt lat="39.9897283" lon="8.44538"><ele>4.4</ele><time>2026-04-20T11:33:24.78Z</time></trkpt><trkpt lat="39.98965" lon="8.445465"><ele>4.6</ele><time>2026-04-20T11:33:25.78Z</time></trkpt><trkpt lat="39.98957" lon="8.4455483"><ele>4.8</ele><time>2026-04-20T11:33:26.781Z</time></trkpt><trkpt lat="39.9894867" lon="8.44564"><ele>5.0</ele><time>2026-04-20T11:33:27.78Z</time></trkpt><trkpt lat="39.9894067" lon="8.4457267"><ele>4.6</ele><time>2026-04-20T11:33:28.78Z</time></trkpt><trkpt lat="39.9892533" lon="8.445875"><ele>4.2</ele><time>2026-04-20T11:33:30.78Z</time></trkpt><trkpt lat="39.9891883" lon="8.44594"><ele>3.8</ele><time>2026-04-20T11:33:31.78Z</time></trkpt><trkpt lat="39.98912" lon="8.4460017"><ele>3.4</ele><time>2026-04-20T11:33:32.78Z</time></trkpt><trkpt lat="39.9890517" lon="8.4460617"><ele>3.0</ele><time>2026-04-20T11:33:33.78Z</time></trkpt><trkpt lat="39.9889833" lon="8.44612"><ele>2.8333333333333335</ele><time>2026-04-20T11:33:34.78Z</time></trkpt><trkpt lat="39.9889183" lon="8.44619"><ele>2.6666666666666665</ele><time>2026-04-20T11:33:35.78Z</time></trkpt><trkpt lat="39.9888483" lon="8.4462517"><ele>2.5</ele><time>2026-04-20T11:33:36.781Z</time></trkpt><trkpt lat="39.988775" lon="8.4463"><ele>2.333333333333333</ele><time>2026-04-20T11:33:37.78Z</time></trkpt><trkpt lat="39.9886983" lon="8.4463383"><ele>2.1666666666666665</ele><time>2026-04-20T11:33:38.78Z</time></trkpt><trkpt lat="39.9886283" lon="8.44638"><ele>2.0</ele><time>2026-04-20T11:33:39.78Z</time></trkpt><trkpt lat="39.98856" lon="8.4464317"><ele>2.333333333333333</ele><time>2026-04-20T11:33:40.78Z</time></trkpt><trkpt lat="39.988495" lon="8.4464917"><ele>2.6666666666666665</ele><time>2026-04-20T11:33:41.78Z</time></trkpt><trkpt lat="39.9884267" lon="8.44656"><ele>3.0</ele><time>2026-04-20T11:33:42.78Z</time></trkpt><trkpt lat="39.98836" lon="8.446645"><ele>3.333333333333333</ele><time>2026-04-20T11:33:43.78Z</time></trkpt><trkpt lat="39.988295" lon="8.4467283"><ele>3.6666666666666665</ele><time>2026-04-20T11:33:44.78Z</time></trkpt><trkpt lat="39.98823" lon="8.44681"><ele>4.0</ele><time>2026-04-20T11:33:45.78Z</time></trkpt><trkpt lat="39.9881567" lon="8.44689"><ele>4.0</ele><time>2026-04-20T11:33:46.78Z</time></trkpt><trkpt lat="39.9880833" lon="8.4469717"><ele>4.0</ele><time>2026-04-20T11:33:47.78Z</time></trkpt><trkpt lat="39.98801" lon="8.4470567"><ele>4.0</ele><time>2026-04-20T11:33:48.78Z</time></trkpt><trkpt lat="39.9879367" lon="8.4471467"><ele>4.0</ele><time>2026-04-20T11:33:49.781Z</time></trkpt><trkpt lat="39.9877833" lon="8.4473233"><ele>4.2</ele><time>2026-04-20T11:33:51.78Z</time></trkpt><trkpt lat="39.9877017" lon="8.4473967"><ele>4.4</ele><time>2026-04-20T11:33:52.78Z</time></trkpt><trkpt lat="39.987625" lon="8.4474733"><ele>4.6</ele><time>2026-04-20T11:33:53.78Z</time></trkpt><trkpt lat="39.9875467" lon="8.4475567"><ele>4.8</ele><time>2026-04-20T11:33:54.781Z</time></trkpt><trkpt lat="39.9874683" lon="8.4476367"><ele>5.0</ele><time>2026-04-20T11:33:55.78Z</time></trkpt><trkpt lat="39.9873933" lon="8.4477083"><ele>5.0</ele><time>2026-04-20T11:33:56.78Z</time></trkpt><trkpt lat="39.9873217" lon="8.4477883"><ele>5.0</ele><time>2026-04-20T11:33:57.78Z</time></trkpt><trkpt lat="39.9872417" lon="8.4478683"><ele>5.0</ele><time>2026-04-20T11:33:58.78Z</time></trkpt><trkpt lat="39.987155" lon="8.4479533"><ele>5.0</ele><time>2026-04-20T11:33:59.78Z</time></trkpt><trkpt lat="39.98706" lon="8.448035"><ele>5.0</ele><time>2026-04-20T11:34:00.78Z</time></trkpt><trkpt lat="39.986965" lon="8.448115"><ele>5.0</ele><time>2026-04-20T11:34:01.78Z</time></trkpt><trkpt lat="39.9868767" lon="8.4481917"><ele>5.0</ele><time>2026-04-20T11:34:02.78Z</time></trkpt><trkpt lat="39.9867983" lon="8.44826"><ele>5.0</ele><time>2026-04-20T11:34:03.78Z</time></trkpt><trkpt lat="39.986725" lon="8.448325"><ele>5.0</ele><time>2026-04-20T11:34:04.78Z</time></trkpt><trkpt lat="39.9866467" lon="8.44839"><ele>5.0</ele><time>2026-04-20T11:34:05.78Z</time></trkpt><trkpt lat="39.9865717" lon="8.448455"><ele>5.2</ele><time>2026-04-20T11:34:06.78Z</time></trkpt><trkpt lat="39.986505" lon="8.448525"><ele>5.4</ele><time>2026-04-20T11:34:07.781Z</time></trkpt><trkpt lat="39.9864467" lon="8.4485917"><ele>5.6</ele><time>2026-04-20T11:34:08.78Z</time></trkpt><trkpt lat="39.9863967" lon="8.4486483"><ele>5.8</ele><time>2026-04-20T11:34:09.78Z</time></trkpt><trkpt lat="39.9863167" lon="8.4487217"><ele>6.0</ele><time>2026-04-20T11:34:11.78Z</time></trkpt><trkpt lat="39.9861783" lon="8.44864"><ele>6.0</ele><time>2026-04-20T11:34:16.78Z</time></trkpt><trkpt lat="39.9862083" lon="8.44848"><ele>6.0</ele><time>2026-04-20T11:34:18.781Z</time></trkpt><trkpt lat="39.9862433" lon="8.4483567"><ele>6.0</ele><time>2026-04-20T11:34:19.78Z</time></trkpt><trkpt lat="39.9862733" lon="8.448205"><ele>6.0</ele><time>2026-04-20T11:34:20.78Z</time></trkpt><trkpt lat="39.9863067" lon="8.4480283"><ele>6.333333333333334</ele><time>2026-04-20T11:34:21.781Z</time></trkpt><trkpt lat="39.98633" lon="8.447835"><ele>6.666666666666667</ele><time>2026-04-20T11:34:22.781Z</time></trkpt><trkpt lat="39.9863383" lon="8.4476333"><ele>7.0</ele><time>2026-04-20T11:34:23.781Z</time></trkpt><trkpt lat="39.9863317" lon="8.4474333"><ele>7.0</ele><time>2026-04-20T11:34:24.78Z</time></trkpt><trkpt lat="39.9863117" lon="8.4472333"><ele>7.0</ele><time>2026-04-20T11:34:25.78Z</time></trkpt><trkpt lat="39.9862983" lon="8.44704"><ele>7.0</ele><time>2026-04-20T11:34:26.78Z</time></trkpt><trkpt lat="39.986275" lon="8.446855"><ele>7.0</ele><time>2026-04-20T11:34:27.78Z</time></trkpt><trkpt lat="39.986245" lon="8.4466683"><ele>6.75</ele><time>2026-04-20T11:34:28.781Z</time></trkpt><trkpt lat="39.9862067" lon="8.44648"><ele>6.5</ele><time>2026-04-20T11:34:29.78Z</time></trkpt><trkpt lat="39.9861817" lon="8.4462883"><ele>6.25</ele><time>2026-04-20T11:34:30.78Z</time></trkpt><trkpt lat="39.9861533" lon="8.4461017"><ele>6.0</ele><time>2026-04-20T11:34:31.78Z</time></trkpt><trkpt lat="39.986125" lon="8.4459117"><ele>6.0</ele><time>2026-04-20T11:34:32.78Z</time></trkpt><trkpt lat="39.9860883" lon="8.4455183"><ele>6.0</ele><time>2026-04-20T11:34:34.781Z</time></trkpt><trkpt lat="39.986075" lon="8.44532"><ele>5.666666666666667</ele><time>2026-04-20T11:34:35.781Z</time></trkpt><trkpt lat="39.9860667" lon="8.445115"><ele>5.333333333333334</ele><time>2026-04-20T11:34:36.78Z</time></trkpt><trkpt lat="39.9860717" lon="8.4449167"><ele>5.0</ele><time>2026-04-20T11:34:37.781Z</time></trkpt><trkpt lat="39.9860833" lon="8.44471"><ele>5.0</ele><time>2026-04-20T11:34:38.78Z</time></trkpt><trkpt lat="39.9861033" lon="8.4445"><ele>5.0</ele><time>2026-04-20T11:34:39.78Z</time></trkpt><trkpt lat="39.986135" lon="8.4442883"><ele>5.0</ele><time>2026-04-20T11:34:40.78Z</time></trkpt><trkpt lat="39.986165" lon="8.4440667"><ele>5.0</ele><time>2026-04-20T11:34:41.78Z</time></trkpt><trkpt lat="39.9862083" lon="8.4438483"><ele>5.0</ele><time>2026-04-20T11:34:42.78Z</time></trkpt><trkpt lat="39.9862517" lon="8.443625"><ele>5.0</ele><time>2026-04-20T11:34:43.78Z</time></trkpt><trkpt lat="39.98629" lon="8.4433967"><ele>5.0</ele><time>2026-04-20T11:34:44.781Z</time></trkpt><trkpt lat="39.9863317" lon="8.4431617"><ele>5.0</ele><time>2026-04-20T11:34:45.781Z</time></trkpt><trkpt lat="39.9863767" lon="8.4429233"><ele>5.0</ele><time>2026-04-20T11:34:46.78Z</time></trkpt><trkpt lat="39.986425" lon="8.442675"><ele>5.0</ele><time>2026-04-20T11:34:47.78Z</time></trkpt><trkpt lat="39.9864717" lon="8.4424233"><ele>5.0</ele><time>2026-04-20T11:34:48.78Z</time></trkpt><trkpt lat="39.986515" lon="8.4421717"><ele>5.0</ele><time>2026-04-20T11:34:49.78Z</time></trkpt><trkpt lat="39.98656" lon="8.4419283"><ele>5.0</ele><time>2026-04-20T11:34:50.78Z</time></trkpt><trkpt lat="39.9866033" lon="8.441685"><ele>5.0</ele><time>2026-04-20T11:34:51.78Z</time></trkpt><trkpt lat="39.9866467" lon="8.44145"><ele>5.0</ele><time>2026-04-20T11:34:52.78Z</time></trkpt><trkpt lat="39.986685" lon="8.441225"><ele>5.5</ele><time>2026-04-20T11:34:53.781Z</time></trkpt><trkpt lat="39.98676" lon="8.4407883"><ele>6.0</ele><time>2026-04-20T11:34:55.78Z</time></trkpt><trkpt lat="39.9868033" lon="8.4405633"><ele>5.666666666666667</ele><time>2026-04-20T11:34:56.78Z</time></trkpt><trkpt lat="39.9868433" lon="8.4403433"><ele>5.333333333333334</ele><time>2026-04-20T11:34:57.78Z</time></trkpt><trkpt lat="39.9868883" lon="8.4401267"><ele>5.0</ele><time>2026-04-20T11:34:58.78Z</time></trkpt><trkpt lat="39.98694" lon="8.4399083"><ele>5.0</ele><time>2026-04-20T11:34:59.781Z</time></trkpt><trkpt lat="39.9869983" lon="8.4396983"><ele>5.0</ele><time>2026-04-20T11:35:00.781Z</time></trkpt><trkpt lat="39.987055" lon="8.4394933"><ele>5.0</ele><time>2026-04-20T11:35:01.78Z</time></trkpt><trkpt lat="39.987115" lon="8.43929"><ele>4.666666666666667</ele><time>2026-04-20T11:35:02.78Z</time></trkpt><trkpt lat="39.9871833" lon="8.439085"><ele>4.333333333333333</ele><time>2026-04-20T11:35:03.78Z</time></trkpt><trkpt lat="39.9872433" lon="8.4388867"><ele>4.0</ele><time>2026-04-20T11:35:04.78Z</time></trkpt><trkpt lat="39.9873083" lon="8.4386767"><ele>4.0</ele><time>2026-04-20T11:35:05.78Z</time></trkpt><trkpt lat="39.987375" lon="8.438465"><ele>4.0</ele><time>2026-04-20T11:35:06.78Z</time></trkpt><trkpt lat="39.9874417" lon="8.4382583"><ele>4.0</ele><time>2026-04-20T11:35:07.781Z</time></trkpt><trkpt lat="39.9875083" lon="8.4380633"><ele>4.0</ele><time>2026-04-20T11:35:08.78Z</time></trkpt><trkpt lat="39.9875667" lon="8.4378783"><ele>4.0</ele><time>2026-04-20T11:35:09.78Z</time></trkpt><trkpt lat="39.9876317" lon="8.4376967"><ele>4.0</ele><time>2026-04-20T11:35:10.78Z</time></trkpt><trkpt lat="39.987685" lon="8.4375333"><ele>4.0</ele><time>2026-04-20T11:35:11.78Z</time></trkpt><trkpt lat="39.9877317" lon="8.4373767"><ele>4.0</ele><time>2026-04-20T11:35:12.781Z</time></trkpt><trkpt lat="39.98777" lon="8.43722"><ele>4.0</ele><time>2026-04-20T11:35:13.78Z</time></trkpt><trkpt lat="39.9878167" lon="8.4370683"><ele>4.0</ele><time>2026-04-20T11:35:14.78Z</time></trkpt><trkpt lat="39.9878917" lon="8.436735"><ele>3.333333333333333</ele><time>2026-04-20T11:35:16.78Z</time></trkpt><trkpt lat="39.98793" lon="8.43654"><ele>2.6666666666666665</ele><time>2026-04-20T11:35:17.781Z</time></trkpt><trkpt lat="39.987965" lon="8.4363267"><ele>2.0</ele><time>2026-04-20T11:35:18.781Z</time></trkpt><trkpt lat="39.9879983" lon="8.4361067"><ele>2.0</ele><time>2026-04-20T11:35:19.78Z</time></trkpt><trkpt lat="39.9880317" lon="8.4358833"><ele>2.0</ele><time>2026-04-20T11:35:20.781Z</time></trkpt><trkpt lat="39.9880633" lon="8.4356567"><ele>2.0</ele><time>2026-04-20T11:35:21.78Z</time></trkpt><trkpt lat="39.98809" lon="8.4354167"><ele>2.6666666666666665</ele><time>2026-04-20T11:35:22.78Z</time></trkpt><trkpt lat="39.9881333" lon="8.4351733"><ele>3.333333333333333</ele><time>2026-04-20T11:35:23.78Z</time></trkpt><trkpt lat="39.98819" lon="8.4349133"><ele>4.0</ele><time>2026-04-20T11:35:24.78Z</time></trkpt><trkpt lat="39.988245" lon="8.4346483"><ele>4.0</ele><time>2026-04-20T11:35:25.78Z</time></trkpt><trkpt lat="39.9882883" lon="8.43439"><ele>4.0</ele><time>2026-04-20T11:35:26.78Z</time></trkpt><trkpt lat="39.9883383" lon="8.43413"><ele>4.0</ele><time>2026-04-20T11:35:27.78Z</time></trkpt><trkpt lat="39.9883867" lon="8.4338583"><ele>4.0</ele><time>2026-04-20T11:35:28.78Z</time></trkpt><trkpt lat="39.9884267" lon="8.43359"><ele>4.0</ele><time>2026-04-20T11:35:29.781Z</time></trkpt><trkpt lat="39.988465" lon="8.4333233"><ele>4.0</ele><time>2026-04-20T11:35:30.78Z</time></trkpt><trkpt lat="39.9885" lon="8.4330583"><ele>3.6666666666666665</ele><time>2026-04-20T11:35:31.781Z</time></trkpt><trkpt lat="39.98853" lon="8.4328017"><ele>3.333333333333333</ele><time>2026-04-20T11:35:32.78Z</time></trkpt><trkpt lat="39.98856" lon="8.4325517"><ele>3.0</ele><time>2026-04-20T11:35:33.78Z</time></trkpt><trkpt lat="39.9885883" lon="8.4323267"><ele>3.0</ele><time>2026-04-20T11:35:34.78Z</time></trkpt><trkpt lat="39.9886117" lon="8.4321117"><ele>3.0</ele><time>2026-04-20T11:35:35.78Z</time></trkpt><trkpt lat="39.9886467" lon="8.4316867"><ele>3.0</ele><time>2026-04-20T11:35:37.78Z</time></trkpt><trkpt lat="39.9886667" lon="8.43148"><ele>3.0</ele><time>2026-04-20T11:35:38.78Z</time></trkpt><trkpt lat="39.988685" lon="8.4312717"><ele>3.0</ele><time>2026-04-20T11:35:39.78Z</time></trkpt><trkpt lat="39.9887" lon="8.4310683"><ele>3.333333333333333</ele><time>2026-04-20T11:35:40.78Z</time></trkpt><trkpt lat="39.9887183" lon="8.4308617"><ele>3.6666666666666665</ele><time>2026-04-20T11:35:41.78Z</time></trkpt><trkpt lat="39.988735" lon="8.4306467"><ele>4.0</ele><time>2026-04-20T11:35:42.78Z</time></trkpt><trkpt lat="39.98876" lon="8.4304283"><ele>4.333333333333333</ele><time>2026-04-20T11:35:43.78Z</time></trkpt><trkpt lat="39.9887917" lon="8.430205"><ele>4.666666666666667</ele><time>2026-04-20T11:35:44.78Z</time></trkpt><trkpt lat="39.98883" lon="8.4299867"><ele>5.0</ele><time>2026-04-20T11:35:45.781Z</time></trkpt><trkpt lat="39.9888783" lon="8.4297733"><ele>5.0</ele><time>2026-04-20T11:35:46.78Z</time></trkpt><trkpt lat="39.988945" lon="8.4295717"><ele>5.0</ele><time>2026-04-20T11:35:47.78Z</time></trkpt><trkpt lat="39.989025" lon="8.4293767"><ele>5.0</ele><time>2026-04-20T11:35:48.781Z</time></trkpt><trkpt lat="39.9891167" lon="8.429185"><ele>5.0</ele><time>2026-04-20T11:35:49.78Z</time></trkpt><trkpt lat="39.9892133" lon="8.4289967"><ele>5.0</ele><time>2026-04-20T11:35:50.78Z</time></trkpt><trkpt lat="39.9893217" lon="8.428815"><ele>5.0</ele><time>2026-04-20T11:35:51.78Z</time></trkpt><trkpt lat="39.9894317" lon="8.42864"><ele>5.0</ele><time>2026-04-20T11:35:52.78Z</time></trkpt><trkpt lat="39.9895433" lon="8.428465"><ele>5.0</ele><time>2026-04-20T11:35:53.781Z</time></trkpt><trkpt lat="39.9896433" lon="8.4282833"><ele>5.0</ele><time>2026-04-20T11:35:54.78Z</time></trkpt><trkpt lat="39.9897533" lon="8.4281083"><ele>4.5</ele><time>2026-04-20T11:35:55.78Z</time></trkpt><trkpt lat="39.9898667" lon="8.4279333"><ele>4.0</ele><time>2026-04-20T11:35:56.78Z</time></trkpt><trkpt lat="39.99008" lon="8.4275717"><ele>4.0</ele><time>2026-04-20T11:35:58.78Z</time></trkpt><trkpt lat="39.990195" lon="8.4273817"><ele>4.0</ele><time>2026-04-20T11:35:59.781Z</time></trkpt><trkpt lat="39.9903117" lon="8.4271833"><ele>4.0</ele><time>2026-04-20T11:36:00.78Z</time></trkpt><trkpt lat="39.9904283" lon="8.4269817"><ele>4.333333333333333</ele><time>2026-04-20T11:36:01.781Z</time></trkpt><trkpt lat="39.99055" lon="8.4267683"><ele>4.666666666666667</ele><time>2026-04-20T11:36:02.78Z</time></trkpt><trkpt lat="39.99067" lon="8.4265417"><ele>5.0</ele><time>2026-04-20T11:36:03.781Z</time></trkpt><trkpt lat="39.99079" lon="8.4263117"><ele>4.666666666666667</ele><time>2026-04-20T11:36:04.78Z</time></trkpt><trkpt lat="39.9909083" lon="8.426085"><ele>4.333333333333333</ele><time>2026-04-20T11:36:05.78Z</time></trkpt><trkpt lat="39.9910317" lon="8.4258633"><ele>4.0</ele><time>2026-04-20T11:36:06.78Z</time></trkpt><trkpt lat="39.9911517" lon="8.42564"><ele>3.6666666666666665</ele><time>2026-04-20T11:36:07.781Z</time></trkpt><trkpt lat="39.9912733" lon="8.42541"><ele>3.333333333333333</ele><time>2026-04-20T11:36:08.78Z</time></trkpt><trkpt lat="39.9914067" lon="8.4251767"><ele>3.0</ele><time>2026-04-20T11:36:09.781Z</time></trkpt><trkpt lat="39.9915383" lon="8.4249683"><ele>3.0</ele><time>2026-04-20T11:36:10.78Z</time></trkpt><trkpt lat="39.9916483" lon="8.4247683"><ele>3.0</ele><time>2026-04-20T11:36:11.78Z</time></trkpt><trkpt lat="39.99175" lon="8.4245833"><ele>3.0</ele><time>2026-04-20T11:36:12.781Z</time></trkpt><trkpt lat="39.9918683" lon="8.4244"><ele>3.333333333333333</ele><time>2026-04-20T11:36:13.781Z</time></trkpt><trkpt lat="39.9920017" lon="8.4242333"><ele>3.6666666666666665</ele><time>2026-04-20T11:36:14.781Z</time></trkpt><trkpt lat="39.9921383" lon="8.4240917"><ele>4.0</ele><time>2026-04-20T11:36:15.78Z</time></trkpt><trkpt lat="39.9922917" lon="8.4239633"><ele>4.0</ele><time>2026-04-20T11:36:16.78Z</time></trkpt><trkpt lat="39.9924633" lon="8.4238417"><ele>4.0</ele><time>2026-04-20T11:36:17.78Z</time></trkpt><trkpt lat="39.99283" lon="8.423605"><ele>4.0</ele><time>2026-04-20T11:36:19.78Z</time></trkpt><trkpt lat="39.9930133" lon="8.4234917"><ele>4.0</ele><time>2026-04-20T11:36:20.78Z</time></trkpt><trkpt lat="39.9931933" lon="8.4233867"><ele>4.0</ele><time>2026-04-20T11:36:21.781Z</time></trkpt><trkpt lat="39.993375" lon="8.4232767"><ele>4.0</ele><time>2026-04-20T11:36:22.78Z</time></trkpt><trkpt lat="39.9935633" lon="8.4231567"><ele>4.0</ele><time>2026-04-20T11:36:23.78Z</time></trkpt><trkpt lat="39.9937533" lon="8.4230333"><ele>4.0</ele><time>2026-04-20T11:36:24.78Z</time></trkpt><trkpt lat="39.9939467" lon="8.4229067"><ele>4.333333333333333</ele><time>2026-04-20T11:36:25.78Z</time></trkpt><trkpt lat="39.9941517" lon="8.4227767"><ele>4.666666666666667</ele><time>2026-04-20T11:36:26.78Z</time></trkpt><trkpt lat="39.9943467" lon="8.4226483"><ele>5.0</ele><time>2026-04-20T11:36:27.78Z</time></trkpt><trkpt lat="39.9945417" lon="8.4225267"><ele>5.0</ele><time>2026-04-20T11:36:28.78Z</time></trkpt><trkpt lat="39.9947267" lon="8.4224133"><ele>5.0</ele><time>2026-04-20T11:36:29.78Z</time></trkpt><trkpt lat="39.994905" lon="8.4222983"><ele>5.0</ele><time>2026-04-20T11:36:30.78Z</time></trkpt><trkpt lat="39.9950833" lon="8.4221833"><ele>5.333333333333334</ele><time>2026-04-20T11:36:31.78Z</time></trkpt><trkpt lat="39.9952667" lon="8.4220633"><ele>5.666666666666667</ele><time>2026-04-20T11:36:32.78Z</time></trkpt><trkpt lat="39.99545" lon="8.4219433"><ele>6.0</ele><time>2026-04-20T11:36:33.78Z</time></trkpt><trkpt lat="39.9956383" lon="8.4218233"><ele>6.0</ele><time>2026-04-20T11:36:34.78Z</time></trkpt><trkpt lat="39.9958283" lon="8.4217083"><ele>6.0</ele><time>2026-04-20T11:36:35.78Z</time></trkpt><trkpt lat="39.9960133" lon="8.4215883"><ele>6.0</ele><time>2026-04-20T11:36:36.78Z</time></trkpt><trkpt lat="39.99619" lon="8.421465"><ele>6.0</ele><time>2026-04-20T11:36:37.781Z</time></trkpt><trkpt lat="39.99636" lon="8.4213283"><ele>6.0</ele><time>2026-04-20T11:36:38.78Z</time></trkpt><trkpt lat="39.9966633" lon="8.421035"><ele>6.333333333333334</ele><time>2026-04-20T11:36:40.78Z</time></trkpt><trkpt lat="39.9968" lon="8.420875"><ele>6.666666666666667</ele><time>2026-04-20T11:36:41.78Z</time></trkpt><trkpt lat="39.9969317" lon="8.420705"><ele>7.0</ele><time>2026-04-20T11:36:42.78Z</time></trkpt><trkpt lat="39.9970617" lon="8.4205317"><ele>7.666666666666667</ele><time>2026-04-20T11:36:43.779Z</time></trkpt><trkpt lat="39.9971883" lon="8.420355"><ele>8.333333333333334</ele><time>2026-04-20T11:36:44.779Z</time></trkpt><trkpt lat="39.997325" lon="8.4201767"><ele>9.0</ele><time>2026-04-20T11:36:45.779Z</time></trkpt><trkpt lat="39.997455" lon="8.42"><ele>9.0</ele><time>2026-04-20T11:36:46.779Z</time></trkpt><trkpt lat="39.9975833" lon="8.4198217"><ele>9.0</ele><time>2026-04-20T11:36:47.779Z</time></trkpt><trkpt lat="39.9977117" lon="8.419645"><ele>9.0</ele><time>2026-04-20T11:36:48.779Z</time></trkpt><trkpt lat="39.9978433" lon="8.41947"><ele>9.333333333333334</ele><time>2026-04-20T11:36:49.779Z</time></trkpt><trkpt lat="39.9979783" lon="8.41928"><ele>9.666666666666668</ele><time>2026-04-20T11:36:50.779Z</time></trkpt><trkpt lat="39.9981133" lon="8.419095"><ele>10.0</ele><time>2026-04-20T11:36:51.779Z</time></trkpt><trkpt lat="39.9982467" lon="8.4189167"><ele>10.0</ele><time>2026-04-20T11:36:52.779Z</time></trkpt><trkpt lat="39.998375" lon="8.4187467"><ele>10.0</ele><time>2026-04-20T11:36:53.78Z</time></trkpt><trkpt lat="39.9985067" lon="8.41858"><ele>10.0</ele><time>2026-04-20T11:36:54.779Z</time></trkpt><trkpt lat="39.9986317" lon="8.4184117"><ele>10.0</ele><time>2026-04-20T11:36:55.779Z</time></trkpt><trkpt lat="39.998755" lon="8.41825"><ele>10.0</ele><time>2026-04-20T11:36:56.779Z</time></trkpt><trkpt lat="39.9988817" lon="8.418105"><ele>10.0</ele><time>2026-04-20T11:36:57.779Z</time></trkpt><trkpt lat="39.9990117" lon="8.4179567"><ele>10.5</ele><time>2026-04-20T11:36:58.779Z</time></trkpt><trkpt lat="39.9991383" lon="8.4178133"><ele>11.0</ele><time>2026-04-20T11:36:59.779Z</time></trkpt><trkpt lat="39.9994167" lon="8.4175367"><ele>11.0</ele><time>2026-04-20T11:37:01.779Z</time></trkpt><trkpt lat="39.9995617" lon="8.4173917"><ele>11.0</ele><time>2026-04-20T11:37:02.779Z</time></trkpt><trkpt lat="39.9997067" lon="8.417245"><ele>11.0</ele><time>2026-04-20T11:37:03.779Z</time></trkpt><trkpt lat="39.9998583" lon="8.4171017"><ele>11.666666666666666</ele><time>2026-04-20T11:37:04.779Z</time></trkpt><trkpt lat="40.0000033" lon="8.4169583"><ele>12.333333333333332</ele><time>2026-04-20T11:37:05.779Z</time></trkpt><trkpt lat="40.0001517" lon="8.4168133"><ele>13.0</ele><time>2026-04-20T11:37:06.779Z</time></trkpt><trkpt lat="40.0003017" lon="8.41666"><ele>13.0</ele><time>2026-04-20T11:37:07.779Z</time></trkpt><trkpt lat="40.000445" lon="8.41652"><ele>13.0</ele><time>2026-04-20T11:37:08.779Z</time></trkpt><trkpt lat="40.0005833" lon="8.4163833"><ele>13.0</ele><time>2026-04-20T11:37:09.779Z</time></trkpt><trkpt lat="40.0007083" lon="8.416265"><ele>13.4</ele><time>2026-04-20T11:37:10.779Z</time></trkpt><trkpt lat="40.0008217" lon="8.4161667"><ele>13.8</ele><time>2026-04-20T11:37:11.779Z</time></trkpt><trkpt lat="40.0009133" lon="8.41609"><ele>14.2</ele><time>2026-04-20T11:37:12.78Z</time></trkpt><trkpt lat="40.0009967" lon="8.4160333"><ele>14.6</ele><time>2026-04-20T11:37:13.779Z</time></trkpt><trkpt lat="40.0010567" lon="8.4159883"><ele>15.0</ele><time>2026-04-20T11:37:14.78Z</time></trkpt><trkpt lat="40.001105" lon="8.4158917"><ele>15.0</ele><time>2026-04-20T11:37:16.779Z</time></trkpt><trkpt lat="40.0011467" lon="8.415805"><ele>15.0</ele><time>2026-04-20T11:37:18.779Z</time></trkpt><trkpt lat="40.00122" lon="8.4157367"><ele>15.0</ele><time>2026-04-20T11:37:20.779Z</time></trkpt><trkpt lat="40.0014467" lon="8.4156633"><ele>15.0</ele><time>2026-04-20T11:37:24.779Z</time></trkpt><trkpt lat="40.001515" lon="8.4156533"><ele>15.0</ele><time>2026-04-20T11:37:25.779Z</time></trkpt><trkpt lat="40.00158" lon="8.415665"><ele>15.0</ele><time>2026-04-20T11:37:26.779Z</time></trkpt><trkpt lat="40.0016883" lon="8.4156833"><ele>15.0</ele><time>2026-04-20T11:37:28.779Z</time></trkpt><trkpt lat="40.0017533" lon="8.4156233"><ele>15.0</ele><time>2026-04-20T11:37:30.779Z</time></trkpt><trkpt lat="40.001745" lon="8.415495"><ele>15.0</ele><time>2026-04-20T11:37:32.779Z</time></trkpt><trkpt lat="40.0016567" lon="8.4153817"><ele>15.4</ele><time>2026-04-20T11:37:34.779Z</time></trkpt><trkpt lat="40.001565" lon="8.4153017"><ele>15.8</ele><time>2026-04-20T11:37:36.779Z</time></trkpt><trkpt lat="40.0014833" lon="8.4152017"><ele>16.2</ele><time>2026-04-20T11:37:38.779Z</time></trkpt><trkpt lat="40.0014317" lon="8.4151233"><ele>16.6</ele><time>2026-04-20T11:37:39.779Z</time></trkpt><trkpt lat="40.0013717" lon="8.4150267"><ele>17.0</ele><time>2026-04-20T11:37:40.779Z</time></trkpt><trkpt lat="40.001245" lon="8.41482"><ele>17.0</ele><time>2026-04-20T11:37:42.779Z</time></trkpt><trkpt lat="40.0011917" lon="8.414725"><ele>17.0</ele><time>2026-04-20T11:37:43.779Z</time></trkpt><trkpt lat="40.0011367" lon="8.4146267"><ele>17.0</ele><time>2026-04-20T11:37:44.78Z</time></trkpt><trkpt lat="40.0010683" lon="8.41454"><ele>17.0</ele><time>2026-04-20T11:37:45.779Z</time></trkpt><trkpt lat="40.0009883" lon="8.4144583"><ele>17.0</ele><time>2026-04-20T11:37:46.779Z</time></trkpt><trkpt lat="40.0009083" lon="8.414395"><ele>17.0</ele><time>2026-04-20T11:37:47.779Z</time></trkpt><trkpt lat="40.0008333" lon="8.4143167"><ele>17.0</ele><time>2026-04-20T11:37:48.779Z</time></trkpt><trkpt lat="40.0007633" lon="8.4142333"><ele>17.0</ele><time>2026-04-20T11:37:49.779Z</time></trkpt><trkpt lat="40.0007033" lon="8.4141617"><ele>17.0</ele><time>2026-04-20T11:37:50.779Z</time></trkpt><trkpt lat="40.0006017" lon="8.414075"><ele>17.0</ele><time>2026-04-20T11:37:52.779Z</time></trkpt><trkpt lat="40.0004833" lon="8.414065"><ele>17.285714285714285</ele><time>2026-04-20T11:37:54.78Z</time></trkpt><trkpt lat="40.0004267" lon="8.414105"><ele>17.57142857142857</ele><time>2026-04-20T11:37:55.78Z</time></trkpt><trkpt lat="40.00038" lon="8.4141667"><ele>17.857142857142854</ele><time>2026-04-20T11:37:56.779Z</time></trkpt><trkpt lat="40.0003317" lon="8.4142417"><ele>18.142857142857142</ele><time>2026-04-20T11:37:57.779Z</time></trkpt><trkpt lat="40.00027" lon="8.414305"><ele>18.42857142857143</ele><time>2026-04-20T11:37:58.779Z</time></trkpt><trkpt lat="40.000205" lon="8.4143417"><ele>18.71428571428571</ele><time>2026-04-20T11:37:59.779Z</time></trkpt><trkpt lat="40.0001283" lon="8.414355"><ele>19.0</ele><time>2026-04-20T11:38:00.78Z</time></trkpt><trkpt lat="40.0000433" lon="8.41435"><ele>19.0</ele><time>2026-04-20T11:38:01.779Z</time></trkpt><trkpt lat="39.9998583" lon="8.4143133"><ele>19.0</ele><time>2026-04-20T11:38:03.779Z</time></trkpt><trkpt lat="39.9997667" lon="8.4142783"><ele>19.0</ele><time>2026-04-20T11:38:04.779Z</time></trkpt><trkpt lat="39.999675" lon="8.4142433"><ele>19.0</ele><time>2026-04-20T11:38:05.78Z</time></trkpt><trkpt lat="39.9995883" lon="8.41421"><ele>19.0</ele><time>2026-04-20T11:38:06.779Z</time></trkpt><trkpt lat="39.9995083" lon="8.414185"><ele>19.0</ele><time>2026-04-20T11:38:07.779Z</time></trkpt><trkpt lat="39.9994333" lon="8.4141567"><ele>19.0</ele><time>2026-04-20T11:38:08.779Z</time></trkpt><trkpt lat="39.99936" lon="8.414135"><ele>19.0</ele><time>2026-04-20T11:38:09.779Z</time></trkpt><trkpt lat="39.9992817" lon="8.4141183"><ele>19.0</ele><time>2026-04-20T11:38:10.779Z</time></trkpt><trkpt lat="39.9991983" lon="8.4141033"><ele>19.0</ele><time>2026-04-20T11:38:11.779Z</time></trkpt><trkpt lat="39.999125" lon="8.4140917"><ele>19.0</ele><time>2026-04-20T11:38:12.78Z</time></trkpt><trkpt lat="39.9990217" lon="8.4140867"><ele>19.0</ele><time>2026-04-20T11:38:14.78Z</time></trkpt><trkpt lat="39.9989417" lon="8.4141567"><ele>19.0</ele><time>2026-04-20T11:38:16.779Z</time></trkpt><trkpt lat="39.998855" lon="8.4142783"><ele>19.0</ele><time>2026-04-20T11:38:18.78Z</time></trkpt><trkpt lat="39.9987967" lon="8.41433"><ele>19.0</ele><time>2026-04-20T11:38:19.78Z</time></trkpt><trkpt lat="39.9987367" lon="8.4143717"><ele>19.0</ele><time>2026-04-20T11:38:20.779Z</time></trkpt><trkpt lat="39.99868" lon="8.4144083"><ele>19.0</ele><time>2026-04-20T11:38:21.779Z</time></trkpt><trkpt lat="39.998625" lon="8.4144517"><ele>19.0</ele><time>2026-04-20T11:38:22.779Z</time></trkpt><trkpt lat="39.9984633" lon="8.4146183"><ele>19.0</ele><time>2026-04-20T11:38:26.78Z</time></trkpt><trkpt lat="39.99836" lon="8.41464"><ele>19.0</ele><time>2026-04-20T11:38:28.78Z</time></trkpt><trkpt lat="39.99824" lon="8.41465"><ele>18.666666666666664</ele><time>2026-04-20T11:38:30.779Z</time></trkpt><trkpt lat="39.9981767" lon="8.4146667"><ele>18.333333333333332</ele><time>2026-04-20T11:38:31.78Z</time></trkpt><trkpt lat="39.9981117" lon="8.414675"><ele>18.0</ele><time>2026-04-20T11:38:32.779Z</time></trkpt><trkpt lat="39.9980467" lon="8.414665"><ele>17.666666666666668</ele><time>2026-04-20T11:38:33.779Z</time></trkpt><trkpt lat="39.9979217" lon="8.41466"><ele>17.333333333333336</ele><time>2026-04-20T11:38:35.779Z</time></trkpt><trkpt lat="39.9978067" lon="8.4146817"><ele>17.0</ele><time>2026-04-20T11:38:37.779Z</time></trkpt><trkpt lat="39.9977017" lon="8.4146367"><ele>17.0</ele><time>2026-04-20T11:38:39.779Z</time></trkpt><trkpt lat="39.9976433" lon="8.4145833"><ele>17.0</ele><time>2026-04-20T11:38:40.779Z</time></trkpt><trkpt lat="39.997575" lon="8.41451"><ele>17.0</ele><time>2026-04-20T11:38:41.779Z</time></trkpt><trkpt lat="39.997505" lon="8.4144117"><ele>17.0</ele><time>2026-04-20T11:38:42.779Z</time></trkpt><trkpt lat="39.9974433" lon="8.41432"><ele>17.0</ele><time>2026-04-20T11:38:43.78Z</time></trkpt><trkpt lat="39.9973517" lon="8.414155"><ele>16.4</ele><time>2026-04-20T11:38:45.779Z</time></trkpt><trkpt lat="39.9973217" lon="8.4140583"><ele>15.799999999999999</ele><time>2026-04-20T11:38:46.779Z</time></trkpt><trkpt lat="39.9973017" lon="8.4139633"><ele>15.2</ele><time>2026-04-20T11:38:47.779Z</time></trkpt><trkpt lat="39.9972933" lon="8.4138067"><ele>14.6</ele><time>2026-04-20T11:38:49.78Z</time></trkpt><trkpt lat="39.9973517" lon="8.4136733"><ele>14.0</ele><time>2026-04-20T11:38:51.779Z</time></trkpt><trkpt lat="39.997405" lon="8.4136083"><ele>14.000000000000002</ele><time>2026-04-20T11:38:52.779Z</time></trkpt><trkpt lat="39.997465" lon="8.4135467"><ele>14.0</ele><time>2026-04-20T11:38:53.779Z</time></trkpt><trkpt lat="39.99753" lon="8.413475"><ele>14.0</ele><time>2026-04-20T11:38:54.78Z</time></trkpt><trkpt lat="39.9975917" lon="8.413395"><ele>14.0</ele><time>2026-04-20T11:38:55.779Z</time></trkpt><trkpt lat="39.9976417" lon="8.4133133"><ele>14.000000000000002</ele><time>2026-04-20T11:38:56.779Z</time></trkpt><trkpt lat="39.9976833" lon="8.413235"><ele>14.0</ele><time>2026-04-20T11:38:57.78Z</time></trkpt><trkpt lat="39.9977467" lon="8.413115"><ele>14.6</ele><time>2026-04-20T11:38:59.779Z</time></trkpt><trkpt lat="39.99784" lon="8.4130117"><ele>15.2</ele><time>2026-04-20T11:39:01.779Z</time></trkpt><trkpt lat="39.9978933" lon="8.4129433"><ele>15.799999999999999</ele><time>2026-04-20T11:39:02.779Z</time></trkpt><trkpt lat="39.9979333" lon="8.4128783"><ele>16.4</ele><time>2026-04-20T11:39:03.779Z</time></trkpt><trkpt lat="39.9980367" lon="8.4127767"><ele>17.0</ele><time>2026-04-20T11:39:05.779Z</time></trkpt><trkpt lat="39.998165" lon="8.4126917"><ele>17.0</ele><time>2026-04-20T11:39:07.779Z</time></trkpt><trkpt lat="39.9982467" lon="8.4126067"><ele>17.0</ele><time>2026-04-20T11:39:09.779Z</time></trkpt><trkpt lat="39.998305" lon="8.4124883"><ele>17.0</ele><time>2026-04-20T11:39:11.779Z</time></trkpt><trkpt lat="39.9983583" lon="8.4123533"><ele>17.0</ele><time>2026-04-20T11:39:13.78Z</time></trkpt><trkpt lat="39.9984067" lon="8.412235"><ele>17.0</ele><time>2026-04-20T11:39:15.78Z</time></trkpt><trkpt lat="39.9984483" lon="8.4121317"><ele>16.333333333333336</ele><time>2026-04-20T11:39:17.779Z</time></trkpt><trkpt lat="39.9984933" lon="8.4120233"><ele>15.666666666666668</ele><time>2026-04-20T11:39:19.78Z</time></trkpt><trkpt lat="39.99855" lon="8.4119183"><ele>15.0</ele><time>2026-04-20T11:39:21.779Z</time></trkpt><trkpt lat="39.99865" lon="8.4118217"><ele>14.333333333333332</ele><time>2026-04-20T11:39:23.779Z</time></trkpt><trkpt lat="39.9987083" lon="8.411775"><ele>13.666666666666666</ele><time>2026-04-20T11:39:24.779Z</time></trkpt><trkpt lat="39.9987583" lon="8.4117233"><ele>13.0</ele><time>2026-04-20T11:39:25.779Z</time></trkpt><trkpt lat="39.99885" lon="8.4116167"><ele>13.0</ele><time>2026-04-20T11:39:27.779Z</time></trkpt><trkpt lat="39.9989917" lon="8.4114167"><ele>13.0</ele><time>2026-04-20T11:39:31.779Z</time></trkpt><trkpt lat="39.9990917" lon="8.411365"><ele>13.0</ele><time>2026-04-20T11:39:33.779Z</time></trkpt><trkpt lat="39.9991817" lon="8.4113233"><ele>13.0</ele><time>2026-04-20T11:39:35.78Z</time></trkpt><trkpt lat="39.99924" lon="8.41127"><ele>12.75</ele><time>2026-04-20T11:39:37.779Z</time></trkpt><trkpt lat="39.9993167" lon="8.4112467"><ele>12.5</ele><time>2026-04-20T11:39:40.779Z</time></trkpt><trkpt lat="39.9993717" lon="8.4112983"><ele>12.25</ele><time>2026-04-20T11:39:52.779Z</time></trkpt><trkpt lat="39.999345" lon="8.4113117"><ele>12.0</ele><time>2026-04-20T11:40:07.779Z</time></trkpt><trkpt lat="39.9992617" lon="8.4112683"><ele>11.75</ele><time>2026-04-20T11:40:42.779Z</time></trkpt><trkpt lat="39.999265" lon="8.411285"><ele>11.5</ele><time>2026-04-20T11:40:50.779Z</time></trkpt><trkpt lat="39.9993317" lon="8.41129"><ele>11.25</ele><time>2026-04-20T11:40:54.779Z</time></trkpt><trkpt lat="39.9993917" lon="8.41133"><ele>11.0</ele><time>2026-04-20T11:40:56.779Z</time></trkpt><trkpt lat="39.9994783" lon="8.41138"><ele>11.0</ele><time>2026-04-20T11:40:58.779Z</time></trkpt><trkpt lat="39.9995417" lon="8.41141"><ele>11.0</ele><time>2026-04-20T11:40:59.779Z</time></trkpt><trkpt lat="39.9996117" lon="8.41144"><ele>11.0</ele><time>2026-04-20T11:41:00.779Z</time></trkpt><trkpt lat="39.9996983" lon="8.4114617"><ele>11.0</ele><time>2026-04-20T11:41:01.779Z</time></trkpt><trkpt lat="39.9997867" lon="8.41147"><ele>11.0</ele><time>2026-04-20T11:41:02.779Z</time></trkpt><trkpt lat="39.99988" lon="8.4114767"><ele>11.0</ele><time>2026-04-20T11:41:03.779Z</time></trkpt><trkpt lat="40.0000383" lon="8.4114983"><ele>11.0</ele><time>2026-04-20T11:41:05.779Z</time></trkpt><trkpt lat="40.0001133" lon="8.4115"><ele>11.0</ele><time>2026-04-20T11:41:06.779Z</time></trkpt><trkpt lat="40.0001817" lon="8.411505"><ele>11.0</ele><time>2026-04-20T11:41:07.779Z</time></trkpt><trkpt lat="40.0002933" lon="8.4115467"><ele>11.0</ele><time>2026-04-20T11:41:09.779Z</time></trkpt><trkpt lat="40.0003867" lon="8.411625"><ele>11.0</ele><time>2026-04-20T11:41:11.779Z</time></trkpt><trkpt lat="40.0005067" lon="8.4116917"><ele>11.0</ele><time>2026-04-20T11:41:13.779Z</time></trkpt><trkpt lat="40.0005733" lon="8.411725"><ele>11.0</ele><time>2026-04-20T11:41:14.779Z</time></trkpt><trkpt lat="40.000635" lon="8.4117567"><ele>11.0</ele><time>2026-04-20T11:41:15.779Z</time></trkpt><trkpt lat="40.0007417" lon="8.4117683"><ele>11.0</ele><time>2026-04-20T11:41:17.779Z</time></trkpt><trkpt lat="40.0008383" lon="8.4117733"><ele>11.0</ele><time>2026-04-20T11:41:19.779Z</time></trkpt><trkpt lat="40.0009383" lon="8.4118017"><ele>11.0</ele><time>2026-04-20T11:41:21.779Z</time></trkpt><trkpt lat="40.0010367" lon="8.4117567"><ele>11.200000000000001</ele><time>2026-04-20T11:41:23.779Z</time></trkpt><trkpt lat="40.0011533" lon="8.411715"><ele>11.4</ele><time>2026-04-20T11:41:25.779Z</time></trkpt><trkpt lat="40.0012983" lon="8.4117133"><ele>11.6</ele><time>2026-04-20T11:41:30.779Z</time></trkpt><trkpt lat="40.0013733" lon="8.4117117"><ele>11.8</ele><time>2026-04-20T11:41:33.779Z</time></trkpt><trkpt lat="40.0014633" lon="8.4117117"><ele>12.0</ele><time>2026-04-20T11:41:35.779Z</time></trkpt><trkpt lat="40.00155" lon="8.4116833"><ele>12.0</ele><time>2026-04-20T11:41:37.779Z</time></trkpt><trkpt lat="40.00161" lon="8.4116217"><ele>12.0</ele><time>2026-04-20T11:41:39.779Z</time></trkpt><trkpt lat="40.00167" lon="8.411535"><ele>12.0</ele><time>2026-04-20T11:41:41.779Z</time></trkpt><trkpt lat="40.001715" lon="8.41146"><ele>12.0</ele><time>2026-04-20T11:41:43.779Z</time></trkpt><trkpt lat="40.001765" lon="8.4113617"><ele>12.0</ele><time>2026-04-20T11:41:46.779Z</time></trkpt><trkpt lat="40.00189" lon="8.41127"><ele>10.4</ele><time>2026-04-20T11:41:50.78Z</time></trkpt><trkpt lat="40.0019467" lon="8.411205"><ele>8.799999999999999</ele><time>2026-04-20T11:41:54.779Z</time></trkpt><trkpt lat="40.001885" lon="8.411175"><ele>7.2</ele><time>2026-04-20T11:42:29.779Z</time></trkpt><trkpt lat="40.0017" lon="8.411235"><ele>5.6</ele><time>2026-04-20T11:42:33.779Z</time></trkpt><trkpt lat="40.00163" lon="8.41125"><ele>4.0</ele><time>2026-04-20T11:42:35.779Z</time></trkpt><trkpt lat="40.001555" lon="8.4112617"><ele>3.8000000000000003</ele><time>2026-04-20T11:42:37.779Z</time></trkpt><trkpt lat="40.001495" lon="8.411295"><ele>3.6000000000000005</ele><time>2026-04-20T11:42:39.779Z</time></trkpt><trkpt lat="40.0014233" lon="8.4113333"><ele>3.4</ele><time>2026-04-20T11:42:42.779Z</time></trkpt><trkpt lat="40.001335" lon="8.41128"><ele>3.2</ele><time>2026-04-20T11:42:55.78Z</time></trkpt><trkpt lat="40.0011983" lon="8.4112417"><ele>3.0</ele><time>2026-04-20T11:57:08.778Z</time></trkpt><trkpt lat="40.0010483" lon="8.4113467"><ele>4.333333333333333</ele><time>2026-04-20T11:57:14.778Z</time></trkpt><trkpt lat="40.00096" lon="8.41136"><ele>5.666666666666666</ele><time>2026-04-20T11:57:18.778Z</time></trkpt><trkpt lat="40.0008967" lon="8.41135"><ele>7.0</ele><time>2026-04-20T11:57:20.778Z</time></trkpt><trkpt lat="40.0008217" lon="8.4113767"><ele>8.333333333333332</ele><time>2026-04-20T11:57:23.778Z</time></trkpt><trkpt lat="40.0007567" lon="8.411425"><ele>9.666666666666666</ele><time>2026-04-20T11:57:26.778Z</time></trkpt><trkpt lat="40.000675" lon="8.4114617"><ele>11.0</ele><time>2026-04-20T11:57:29.778Z</time></trkpt><trkpt lat="40.0005283" lon="8.41146"><ele>11.0</ele><time>2026-04-20T11:57:43.779Z</time></trkpt><trkpt lat="40.0004633" lon="8.4114617"><ele>11.0</ele><time>2026-04-20T11:57:45.778Z</time></trkpt><trkpt lat="40.000395" lon="8.411455"><ele>11.0</ele><time>2026-04-20T11:57:48.779Z</time></trkpt><trkpt lat="40.0003317" lon="8.4114733"><ele>11.0</ele><time>2026-04-20T11:57:53.778Z</time></trkpt><trkpt lat="40.0001633" lon="8.4114667"><ele>11.0</ele><time>2026-04-20T11:57:58.778Z</time></trkpt><trkpt lat="40.0000483" lon="8.41148"><ele>11.0</ele><time>2026-04-20T11:58:00.778Z</time></trkpt><trkpt lat="39.9999833" lon="8.4114783"><ele>11.0</ele><time>2026-04-20T11:58:01.778Z</time></trkpt><trkpt lat="39.999905" lon="8.41147"><ele>11.0</ele><time>2026-04-20T11:58:02.778Z</time></trkpt><trkpt lat="39.999815" lon="8.4114633"><ele>11.0</ele><time>2026-04-20T11:58:03.778Z</time></trkpt><trkpt lat="39.9997217" lon="8.41145"><ele>11.0</ele><time>2026-04-20T11:58:04.779Z</time></trkpt><trkpt lat="39.9996367" lon="8.411435"><ele>11.0</ele><time>2026-04-20T11:58:05.778Z</time></trkpt><trkpt lat="39.9995667" lon="8.4114183"><ele>11.0</ele><time>2026-04-20T11:58:06.778Z</time></trkpt><trkpt lat="39.999505" lon="8.4113933"><ele>11.0</ele><time>2026-04-20T11:58:07.778Z</time></trkpt><trkpt lat="39.999395" lon="8.4113283"><ele>11.0</ele><time>2026-04-20T11:58:09.778Z</time></trkpt><trkpt lat="39.9992867" lon="8.4112883"><ele>11.0</ele><time>2026-04-20T11:58:11.778Z</time></trkpt><trkpt lat="39.99919" lon="8.4112517"><ele>11.0</ele><time>2026-04-20T11:58:13.778Z</time></trkpt><trkpt lat="39.9991283" lon="8.4111983"><ele>10.0</ele><time>2026-04-20T11:58:15.778Z</time></trkpt><trkpt lat="39.9989967" lon="8.4108867"><ele>9.0</ele><time>2026-04-20T11:59:48.777Z</time></trkpt><trkpt lat="39.998965" lon="8.4108"><ele>8.0</ele><time>2026-04-20T11:59:49.778Z</time></trkpt><trkpt lat="39.9989267" lon="8.4106983"><ele>7.0</ele><time>2026-04-20T11:59:50.777Z</time></trkpt><trkpt lat="39.9988883" lon="8.4105983"><ele>7.000000000000001</ele><time>2026-04-20T11:59:51.778Z</time></trkpt><trkpt lat="39.9988483" lon="8.410505"><ele>7.0</ele><time>2026-04-20T11:59:52.777Z</time></trkpt><trkpt lat="39.9988083" lon="8.4104117"><ele>7.0</ele><time>2026-04-20T11:59:53.777Z</time></trkpt><trkpt lat="39.9987683" lon="8.410335"><ele>7.0</ele><time>2026-04-20T11:59:54.777Z</time></trkpt><trkpt lat="39.99872" lon="8.4102783"><ele>7.000000000000001</ele><time>2026-04-20T11:59:55.777Z</time></trkpt><trkpt lat="39.9986083" lon="8.4102267"><ele>7.0</ele><time>2026-04-20T11:59:57.777Z</time></trkpt><trkpt lat="39.9985433" lon="8.41021"><ele>7.500000000000001</ele><time>2026-04-20T11:59:58.777Z</time></trkpt><trkpt lat="39.998475" lon="8.4101817"><ele>8.0</ele><time>2026-04-20T11:59:59.777Z</time></trkpt><trkpt lat="39.9984217" lon="8.4101317"><ele>8.5</ele><time>2026-04-20T12:00:00.777Z</time></trkpt><trkpt lat="39.9983683" lon="8.4100733"><ele>9.0</ele><time>2026-04-20T12:00:01.777Z</time></trkpt><trkpt lat="39.9982867" lon="8.40999"><ele>9.5</ele><time>2026-04-20T12:00:03.777Z</time></trkpt><trkpt lat="39.998205" lon="8.4099317"><ele>10.0</ele><time>2026-04-20T12:00:05.777Z</time></trkpt><trkpt lat="39.998135" lon="8.4098683"><ele>10.0</ele><time>2026-04-20T12:00:07.777Z</time></trkpt><trkpt lat="39.99799" lon="8.4097767"><ele>10.0</ele><time>2026-04-20T12:00:11.777Z</time></trkpt><trkpt lat="39.9979083" lon="8.4097717"><ele>10.0</ele><time>2026-04-20T12:00:13.777Z</time></trkpt><trkpt lat="39.997825" lon="8.40975"><ele>10.0</ele><time>2026-04-20T12:00:15.777Z</time></trkpt><trkpt lat="39.9977433" lon="8.4097233"><ele>10.0</ele><time>2026-04-20T12:00:17.777Z</time></trkpt><trkpt lat="39.9976667" lon="8.4096867"><ele>10.0</ele><time>2026-04-20T12:00:19.777Z</time></trkpt><trkpt lat="39.9976017" lon="8.40968"><ele>10.0</ele><time>2026-04-20T12:00:21.777Z</time></trkpt><trkpt lat="39.9975283" lon="8.4096567"><ele>10.0</ele><time>2026-04-20T12:00:23.778Z</time></trkpt><trkpt lat="39.997425" lon="8.4096433"><ele>10.0</ele><time>2026-04-20T12:00:25.777Z</time></trkpt><trkpt lat="39.997315" lon="8.40965"><ele>10.0</ele><time>2026-04-20T12:00:27.777Z</time></trkpt><trkpt lat="39.9972083" lon="8.409655"><ele>9.0</ele><time>2026-04-20T12:00:29.777Z</time></trkpt><trkpt lat="39.99701" lon="8.4096"><ele>8.0</ele><time>2026-04-20T12:00:33.777Z</time></trkpt><trkpt lat="39.9969483" lon="8.40955"><ele>7.0</ele><time>2026-04-20T12:00:35.777Z</time></trkpt><trkpt lat="39.9968833" lon="8.409515"><ele>6.0</ele><time>2026-04-20T12:00:37.777Z</time></trkpt><trkpt lat="39.9968" lon="8.409515"><ele>5.0</ele><time>2026-04-20T12:00:39.778Z</time></trkpt><trkpt lat="39.9967067" lon="8.4095233"><ele>5.5</ele><time>2026-04-20T12:00:41.777Z</time></trkpt><trkpt lat="39.9966317" lon="8.4095083"><ele>6.0</ele><time>2026-04-20T12:00:44.777Z</time></trkpt><trkpt lat="39.99657" lon="8.409465"><ele>6.5</ele><time>2026-04-20T12:00:58.777Z</time></trkpt><trkpt lat="39.9964367" lon="8.409405"><ele>7.0</ele><time>2026-04-20T12:01:02.777Z</time></trkpt><trkpt lat="39.99637" lon="8.4093983"><ele>7.499999999999999</ele><time>2026-04-20T12:01:04.777Z</time></trkpt><trkpt lat="39.99631" lon="8.409435"><ele>8.0</ele><time>2026-04-20T12:01:08.777Z</time></trkpt><trkpt lat="39.99638" lon="8.4094467"><ele>8.0</ele><time>2026-04-20T12:01:15.777Z</time></trkpt><trkpt lat="39.9964467" lon="8.409415"><ele>8.0</ele><time>2026-04-20T12:01:18.777Z</time></trkpt><trkpt lat="39.996545" lon="8.40944"><ele>8.0</ele><time>2026-04-20T12:01:20.777Z</time></trkpt><trkpt lat="39.99674" lon="8.4095333"><ele>8.0</ele><time>2026-04-20T12:01:24.777Z</time></trkpt><trkpt lat="39.9968383" lon="8.4095317"><ele>7.4</ele><time>2026-04-20T12:01:26.777Z</time></trkpt><trkpt lat="39.9969017" lon="8.4095433"><ele>6.800000000000001</ele><time>2026-04-20T12:01:27.777Z</time></trkpt><trkpt lat="39.996965" lon="8.4095733"><ele>6.2</ele><time>2026-04-20T12:01:28.777Z</time></trkpt><trkpt lat="39.9970717" lon="8.4096183"><ele>5.6</ele><time>2026-04-20T12:01:30.777Z</time></trkpt><trkpt lat="39.9971717" lon="8.409655"><ele>5.0</ele><time>2026-04-20T12:01:32.777Z</time></trkpt><trkpt lat="39.9972967" lon="8.4096617"><ele>5.0</ele><time>2026-04-20T12:01:34.777Z</time></trkpt><trkpt lat="39.9973983" lon="8.4096417"><ele>5.0</ele><time>2026-04-20T12:01:36.777Z</time></trkpt><trkpt lat="39.997515" lon="8.4096583"><ele>5.0</ele><time>2026-04-20T12:01:38.778Z</time></trkpt><trkpt lat="39.9976167" lon="8.4096917"><ele>5.0</ele><time>2026-04-20T12:01:40.778Z</time></trkpt><trkpt lat="39.9976983" lon="8.40973"><ele>5.0</ele><time>2026-04-20T12:01:42.778Z</time></trkpt><trkpt lat="39.9978167" lon="8.4097567"><ele>5.833333333333334</ele><time>2026-04-20T12:01:48.777Z</time></trkpt><trkpt lat="39.9977883" lon="8.4096833"><ele>6.666666666666667</ele><time>2026-04-20T12:01:52.777Z</time></trkpt><trkpt lat="39.997725" lon="8.4097233"><ele>7.5</ele><time>2026-04-20T12:01:56.777Z</time></trkpt><trkpt lat="39.9977017" lon="8.4098267"><ele>8.333333333333334</ele><time>2026-04-20T12:01:59.778Z</time></trkpt><trkpt lat="39.99775" lon="8.40988"><ele>9.166666666666668</ele><time>2026-04-20T12:02:01.777Z</time></trkpt><trkpt lat="39.997835" lon="8.4098633"><ele>10.0</ele><time>2026-04-20T12:02:03.777Z</time></trkpt><trkpt lat="39.9980433" lon="8.4098117"><ele>10.0</ele><time>2026-04-20T12:02:07.777Z</time></trkpt><trkpt lat="39.9981483" lon="8.409845"><ele>10.0</ele><time>2026-04-20T12:02:09.777Z</time></trkpt><trkpt lat="39.9982367" lon="8.40991"><ele>10.0</ele><time>2026-04-20T12:02:11.777Z</time></trkpt><trkpt lat="39.998325" lon="8.410005"><ele>10.0</ele><time>2026-04-20T12:02:13.777Z</time></trkpt><trkpt lat="39.99841" lon="8.4100917"><ele>10.0</ele><time>2026-04-20T12:02:15.777Z</time></trkpt><trkpt lat="39.9985017" lon="8.410175"><ele>9.4</ele><time>2026-04-20T12:02:17.777Z</time></trkpt><trkpt lat="39.9986117" lon="8.410235"><ele>8.8</ele><time>2026-04-20T12:02:19.777Z</time></trkpt><trkpt lat="39.9986733" lon="8.4102667"><ele>8.2</ele><time>2026-04-20T12:02:20.777Z</time></trkpt><trkpt lat="39.9987667" lon="8.4103333"><ele>7.6</ele><time>2026-04-20T12:02:22.777Z</time></trkpt><trkpt lat="39.99883" lon="8.4104367"><ele>7.0</ele><time>2026-04-20T12:02:24.777Z</time></trkpt><trkpt lat="39.9989133" lon="8.4106567"><ele>7.0</ele><time>2026-04-20T12:02:27.777Z</time></trkpt><trkpt lat="39.998945" lon="8.410735"><ele>6.999999999999999</ele><time>2026-04-20T12:02:28.778Z</time></trkpt><trkpt lat="39.99899" lon="8.4108767"><ele>6.999999999999999</ele><time>2026-04-20T12:02:30.777Z</time></trkpt><trkpt lat="39.9990317" lon="8.410995"><ele>7.0</ele><time>2026-04-20T12:02:32.778Z</time></trkpt><trkpt lat="39.9991" lon="8.4111283"><ele>7.0</ele><time>2026-04-20T12:02:34.777Z</time></trkpt><trkpt lat="39.99918" lon="8.41123"><ele>7.666666666666667</ele><time>2026-04-20T12:02:36.777Z</time></trkpt><trkpt lat="39.999295" lon="8.4113017"><ele>8.333333333333334</ele><time>2026-04-20T12:02:38.777Z</time></trkpt><trkpt lat="39.9993667" lon="8.41133"><ele>9.0</ele><time>2026-04-20T12:02:39.777Z</time></trkpt><trkpt lat="39.9994317" lon="8.4113583"><ele>9.666666666666666</ele><time>2026-04-20T12:02:40.778Z</time></trkpt><trkpt lat="39.999495" lon="8.41139"><ele>10.333333333333332</ele><time>2026-04-20T12:02:41.777Z</time></trkpt><trkpt lat="39.999585" lon="8.4114183"><ele>11.0</ele><time>2026-04-20T12:02:43.778Z</time></trkpt><trkpt lat="39.9996483" lon="8.4114367"><ele>11.0</ele><time>2026-04-20T12:03:00.777Z</time></trkpt><trkpt lat="39.99988" lon="8.4114617"><ele>11.0</ele><time>2026-04-20T12:03:04.777Z</time></trkpt><trkpt lat="39.9999917" lon="8.4114733"><ele>11.0</ele><time>2026-04-20T12:03:06.778Z</time></trkpt><trkpt lat="40.00009" lon="8.41148"><ele>11.0</ele><time>2026-04-20T12:03:08.777Z</time></trkpt><trkpt lat="40.0001783" lon="8.4115233"><ele>11.0</ele><time>2026-04-20T12:03:10.777Z</time></trkpt><trkpt lat="40.0002517" lon="8.4115667"><ele>11.0</ele><time>2026-04-20T12:03:12.777Z</time></trkpt><trkpt lat="40.0003317" lon="8.411615"><ele>11.0</ele><time>2026-04-20T12:03:14.777Z</time></trkpt><trkpt lat="40.0004017" lon="8.41166"><ele>11.0</ele><time>2026-04-20T12:03:16.777Z</time></trkpt><trkpt lat="40.00047" lon="8.41171"><ele>11.0</ele><time>2026-04-20T12:03:18.778Z</time></trkpt><trkpt lat="40.000545" lon="8.41175"><ele>11.0</ele><time>2026-04-20T12:03:21.778Z</time></trkpt><trkpt lat="40.000425" lon="8.4119517"><ele>11.0</ele><time>2026-04-20T12:03:28.777Z</time></trkpt><trkpt lat="40.0003467" lon="8.4120683"><ele>11.0</ele><time>2026-04-20T12:03:30.777Z</time></trkpt><trkpt lat="40.00029" lon="8.4121833"><ele>11.0</ele><time>2026-04-20T12:03:32.777Z</time></trkpt><trkpt lat="40.0002633" lon="8.4123067"><ele>11.0</ele><time>2026-04-20T12:03:34.777Z</time></trkpt><trkpt lat="40.0002867" lon="8.4124217"><ele>11.0</ele><time>2026-04-20T12:03:36.777Z</time></trkpt><trkpt lat="40.0003233" lon="8.4125333"><ele>13.0</ele><time>2026-04-20T12:03:38.777Z</time></trkpt><trkpt lat="40.0002983" lon="8.41267"><ele>15.0</ele><time>2026-04-20T12:03:40.777Z</time></trkpt><trkpt lat="40.0002467" lon="8.4128267"><ele>17.0</ele><time>2026-04-20T12:03:42.777Z</time></trkpt><trkpt lat="40.0001767" lon="8.413055"><ele>19.0</ele><time>2026-04-20T12:03:45.777Z</time></trkpt><trkpt lat="40.00015" lon="8.4131983"><ele>19.166666666666664</ele><time>2026-04-20T12:03:47.777Z</time></trkpt><trkpt lat="40.0001417" lon="8.41328"><ele>19.333333333333332</ele><time>2026-04-20T12:03:48.777Z</time></trkpt><trkpt lat="40.0001317" lon="8.4133733"><ele>19.5</ele><time>2026-04-20T12:03:49.778Z</time></trkpt><trkpt lat="40.0001167" lon="8.41347"><ele>19.666666666666668</ele><time>2026-04-20T12:03:50.777Z</time></trkpt><trkpt lat="40.0000983" lon="8.41355"><ele>19.833333333333336</ele><time>2026-04-20T12:03:51.777Z</time></trkpt><trkpt lat="40.0000567" lon="8.4136883"><ele>20.0</ele><time>2026-04-20T12:03:53.777Z</time></trkpt><trkpt lat="40.0000183" lon="8.4137917"><ele>19.833333333333336</ele><time>2026-04-20T12:03:55.778Z</time></trkpt><trkpt lat="39.9999567" lon="8.4139133"><ele>19.666666666666668</ele><time>2026-04-20T12:03:57.778Z</time></trkpt><trkpt lat="39.9999067" lon="8.4139833"><ele>19.5</ele><time>2026-04-20T12:03:58.778Z</time></trkpt><trkpt lat="39.9998583" lon="8.4140533"><ele>19.333333333333332</ele><time>2026-04-20T12:03:59.777Z</time></trkpt><trkpt lat="39.9998167" lon="8.414115"><ele>19.166666666666664</ele><time>2026-04-20T12:04:00.777Z</time></trkpt><trkpt lat="39.9997733" lon="8.4142033"><ele>19.0</ele><time>2026-04-20T12:04:02.777Z</time></trkpt><trkpt lat="39.999835" lon="8.4143067"><ele>19.0</ele><time>2026-04-20T12:04:05.777Z</time></trkpt><trkpt lat="40.0000117" lon="8.41435"><ele>19.0</ele><time>2026-04-20T12:04:08.777Z</time></trkpt><trkpt lat="40.0000867" lon="8.4143567"><ele>19.0</ele><time>2026-04-20T12:04:09.777Z</time></trkpt><trkpt lat="40.00016" lon="8.4143583"><ele>19.0</ele><time>2026-04-20T12:04:10.777Z</time></trkpt><trkpt lat="40.000275" lon="8.4143267"><ele>19.0</ele><time>2026-04-20T12:04:12.777Z</time></trkpt><trkpt lat="40.0003783" lon="8.414225"><ele>19.0</ele><time>2026-04-20T12:04:14.777Z</time></trkpt><trkpt lat="40.0004233" lon="8.4141667"><ele>19.0</ele><time>2026-04-20T12:04:15.777Z</time></trkpt><trkpt lat="40.0005033" lon="8.4140767"><ele>19.0</ele><time>2026-04-20T12:04:17.777Z</time></trkpt><trkpt lat="40.0005867" lon="8.4140517"><ele>19.0</ele><time>2026-04-20T12:04:19.777Z</time></trkpt><trkpt lat="40.0006717" lon="8.4140833"><ele>19.0</ele><time>2026-04-20T12:04:21.777Z</time></trkpt><trkpt lat="40.0007617" lon="8.4141733"><ele>19.0</ele><time>2026-04-20T12:04:23.778Z</time></trkpt><trkpt lat="40.0008033" lon="8.414235"><ele>19.0</ele><time>2026-04-20T12:04:24.777Z</time></trkpt><trkpt lat="40.0008517" lon="8.4142967"><ele>19.0</ele><time>2026-04-20T12:04:25.777Z</time></trkpt><trkpt lat="40.0009033" lon="8.4143583"><ele>19.0</ele><time>2026-04-20T12:04:26.777Z</time></trkpt><trkpt lat="40.0010517" lon="8.4144833"><ele>19.0</ele><time>2026-04-20T12:04:29.777Z</time></trkpt><trkpt lat="40.0011383" lon="8.4145867"><ele>18.599999999999998</ele><time>2026-04-20T12:04:31.777Z</time></trkpt><trkpt lat="40.0012067" lon="8.4146983"><ele>18.2</ele><time>2026-04-20T12:04:33.777Z</time></trkpt><trkpt lat="40.0012667" lon="8.4148283"><ele>17.799999999999997</ele><time>2026-04-20T12:04:35.777Z</time></trkpt><trkpt lat="40.0013083" lon="8.4149017"><ele>17.4</ele><time>2026-04-20T12:04:36.777Z</time></trkpt><trkpt lat="40.00136" lon="8.4149883"><ele>17.0</ele><time>2026-04-20T12:04:37.777Z</time></trkpt><trkpt lat="40.0014183" lon="8.4150817"><ele>17.0</ele><time>2026-04-20T12:04:38.777Z</time></trkpt><trkpt lat="40.0014783" lon="8.4151733"><ele>17.0</ele><time>2026-04-20T12:04:39.777Z</time></trkpt><trkpt lat="40.00154" lon="8.415255"><ele>17.0</ele><time>2026-04-20T12:04:40.777Z</time></trkpt><trkpt lat="40.0015883" lon="8.4153317"><ele>17.0</ele><time>2026-04-20T12:04:41.777Z</time></trkpt><trkpt lat="40.001635" lon="8.4153883"><ele>17.0</ele><time>2026-04-20T12:04:42.777Z</time></trkpt><trkpt lat="40.0017217" lon="8.415485"><ele>17.0</ele><time>2026-04-20T12:04:44.777Z</time></trkpt><trkpt lat="40.00175" lon="8.4155933"><ele>17.25</ele><time>2026-04-20T12:04:46.777Z</time></trkpt><trkpt lat="40.0016883" lon="8.4156817"><ele>17.5</ele><time>2026-04-20T12:04:48.777Z</time></trkpt><trkpt lat="40.00151" lon="8.415655"><ele>17.75</ele><time>2026-04-20T12:04:51.777Z</time></trkpt><trkpt lat="40.0013967" lon="8.4156467"><ele>18.0</ele><time>2026-04-20T12:04:53.777Z</time></trkpt><trkpt lat="40.0012833" lon="8.4156833"><ele>17.571428571428573</ele><time>2026-04-20T12:04:55.778Z</time></trkpt><trkpt lat="40.001205" lon="8.4157217"><ele>17.142857142857142</ele><time>2026-04-20T12:04:57.777Z</time></trkpt><trkpt lat="40.00114" lon="8.415775"><ele>16.714285714285715</ele><time>2026-04-20T12:04:59.777Z</time></trkpt><trkpt lat="40.0010983" lon="8.4158417"><ele>16.285714285714285</ele><time>2026-04-20T12:05:01.777Z</time></trkpt><trkpt lat="40.0010717" lon="8.4159267"><ele>15.857142857142858</ele><time>2026-04-20T12:05:04.777Z</time></trkpt><trkpt lat="40.0010133" lon="8.415995"><ele>15.428571428571429</ele><time>2026-04-20T12:05:06.778Z</time></trkpt><trkpt lat="40.0009517" lon="8.4160317"><ele>15.0</ele><time>2026-04-20T12:05:07.777Z</time></trkpt><trkpt lat="40.00088" lon="8.4160733"><ele>15.25</ele><time>2026-04-20T12:05:08.777Z</time></trkpt><trkpt lat="40.0008017" lon="8.41613"><ele>15.5</ele><time>2026-04-20T12:05:09.778Z</time></trkpt><trkpt lat="40.0006367" lon="8.4162833"><ele>15.75</ele><time>2026-04-20T12:05:11.777Z</time></trkpt><trkpt lat="40.000555" lon="8.4163617"><ele>16.0</ele><time>2026-04-20T12:05:12.777Z</time></trkpt><trkpt lat="40.0004767" lon="8.4164417"><ele>15.4</ele><time>2026-04-20T12:05:13.777Z</time></trkpt><trkpt lat="40.0003967" lon="8.41652"><ele>14.8</ele><time>2026-04-20T12:05:14.777Z</time></trkpt><trkpt lat="40.0003183" lon="8.4166033"><ele>14.200000000000001</ele><time>2026-04-20T12:05:15.777Z</time></trkpt><trkpt lat="40.0002333" lon="8.416685"><ele>13.600000000000001</ele><time>2026-04-20T12:05:16.777Z</time></trkpt><trkpt lat="40.0001517" lon="8.4167583"><ele>13.0</ele><time>2026-04-20T12:05:17.777Z</time></trkpt><trkpt lat="40.0000767" lon="8.41683"><ele>12.999999999999998</ele><time>2026-04-20T12:05:18.777Z</time></trkpt><trkpt lat="40.0000017" lon="8.416895"><ele>13.0</ele><time>2026-04-20T12:05:19.778Z</time></trkpt><trkpt lat="39.999935" lon="8.416955"><ele>13.0</ele><time>2026-04-20T12:05:20.777Z</time></trkpt><trkpt lat="39.999865" lon="8.41702"><ele>13.0</ele><time>2026-04-20T12:05:21.777Z</time></trkpt><trkpt lat="39.9998017" lon="8.4170833"><ele>12.999999999999998</ele><time>2026-04-20T12:05:22.777Z</time></trkpt><trkpt lat="39.9997417" lon="8.4171367"><ele>13.0</ele><time>2026-04-20T12:05:23.777Z</time></trkpt><trkpt lat="39.9996867" lon="8.4171933"><ele>12.600000000000001</ele><time>2026-04-20T12:05:24.777Z</time></trkpt><trkpt lat="39.999635" lon="8.4172533"><ele>12.200000000000001</ele><time>2026-04-20T12:05:25.777Z</time></trkpt><trkpt lat="39.9995517" lon="8.417345"><ele>11.8</ele><time>2026-04-20T12:05:27.778Z</time></trkpt><trkpt lat="39.9994533" lon="8.4174333"><ele>11.4</ele><time>2026-04-20T12:05:29.777Z</time></trkpt><trkpt lat="39.99939" lon="8.4174917"><ele>11.0</ele><time>2026-04-20T12:05:30.778Z</time></trkpt><trkpt lat="39.9992383" lon="8.417635"><ele>11.200000000000001</ele><time>2026-04-20T12:05:32.777Z</time></trkpt><trkpt lat="39.9991517" lon="8.4177217"><ele>11.4</ele><time>2026-04-20T12:05:33.778Z</time></trkpt><trkpt lat="39.9990717" lon="8.4178067"><ele>11.6</ele><time>2026-04-20T12:05:34.778Z</time></trkpt><trkpt lat="39.9989983" lon="8.4178933"><ele>11.8</ele><time>2026-04-20T12:05:35.777Z</time></trkpt><trkpt lat="39.9989233" lon="8.41798"><ele>12.0</ele><time>2026-04-20T12:05:36.777Z</time></trkpt><trkpt lat="39.9988483" lon="8.4180717"><ele>11.6</ele><time>2026-04-20T12:05:37.777Z</time></trkpt><trkpt lat="39.99878" lon="8.4181633"><ele>11.2</ele><time>2026-04-20T12:05:38.777Z</time></trkpt><trkpt lat="39.9987133" lon="8.418245"><ele>10.8</ele><time>2026-04-20T12:05:39.777Z</time></trkpt><trkpt lat="39.9986483" lon="8.4183217"><ele>10.4</ele><time>2026-04-20T12:05:40.777Z</time></trkpt><trkpt lat="39.9985817" lon="8.4184017"><ele>10.0</ele><time>2026-04-20T12:05:41.777Z</time></trkpt><trkpt lat="39.9985117" lon="8.41848"><ele>10.0</ele><time>2026-04-20T12:05:42.777Z</time></trkpt><trkpt lat="39.9984517" lon="8.4185567"><ele>10.0</ele><time>2026-04-20T12:05:43.777Z</time></trkpt><trkpt lat="39.9983933" lon="8.4186333"><ele>10.0</ele><time>2026-04-20T12:05:44.777Z</time></trkpt><trkpt lat="39.9983283" lon="8.418725"><ele>10.0</ele><time>2026-04-20T12:05:45.777Z</time></trkpt><trkpt lat="39.9982633" lon="8.41882"><ele>10.0</ele><time>2026-04-20T12:05:46.777Z</time></trkpt><trkpt lat="39.9981917" lon="8.4189217"><ele>10.0</ele><time>2026-04-20T12:05:47.778Z</time></trkpt><trkpt lat="39.9981183" lon="8.4190267"><ele>10.0</ele><time>2026-04-20T12:05:48.777Z</time></trkpt><trkpt lat="39.99804" lon="8.4191333"><ele>10.0</ele><time>2026-04-20T12:05:49.777Z</time></trkpt><trkpt lat="39.997965" lon="8.41923"><ele>10.0</ele><time>2026-04-20T12:05:50.777Z</time></trkpt><trkpt lat="39.9978983" lon="8.4193267"><ele>10.0</ele><time>2026-04-20T12:05:51.777Z</time></trkpt><trkpt lat="39.997775" lon="8.4195033"><ele>10.0</ele><time>2026-04-20T12:05:53.777Z</time></trkpt><trkpt lat="39.9977033" lon="8.4195983"><ele>10.0</ele><time>2026-04-20T12:05:54.777Z</time></trkpt><trkpt lat="39.9976367" lon="8.4196833"><ele>10.0</ele><time>2026-04-20T12:05:55.777Z</time></trkpt><trkpt lat="39.9975883" lon="8.419755"><ele>10.0</ele><time>2026-04-20T12:05:56.777Z</time></trkpt><trkpt lat="39.997525" lon="8.4198417"><ele>10.0</ele><time>2026-04-20T12:05:58.777Z</time></trkpt><trkpt lat="39.9975733" lon="8.4199283"><ele>10.0</ele><time>2026-04-20T12:06:11.778Z</time></trkpt><trkpt lat="39.9976183" lon="8.4200033"><ele>9.75</ele><time>2026-04-20T12:06:14.777Z</time></trkpt><trkpt lat="39.9977383" lon="8.420165"><ele>9.5</ele><time>2026-04-20T12:06:19.777Z</time></trkpt><trkpt lat="39.99781" lon="8.4202483"><ele>9.25</ele><time>2026-04-20T12:06:21.777Z</time></trkpt><trkpt lat="39.997885" lon="8.4203367"><ele>9.0</ele><time>2026-04-20T12:06:23.777Z</time></trkpt><trkpt lat="39.9979517" lon="8.4204233"><ele>8.4</ele><time>2026-04-20T12:06:25.777Z</time></trkpt><trkpt lat="39.9980117" lon="8.4205017"><ele>7.800000000000001</ele><time>2026-04-20T12:06:27.777Z</time></trkpt><trkpt lat="39.9980783" lon="8.4205833"><ele>7.199999999999999</ele><time>2026-04-20T12:06:29.778Z</time></trkpt><trkpt lat="39.99815" lon="8.420675"><ele>6.6</ele><time>2026-04-20T12:06:31.777Z</time></trkpt><trkpt lat="39.9982267" lon="8.4207783"><ele>6.0</ele><time>2026-04-20T12:06:33.778Z</time></trkpt><trkpt lat="39.99831" lon="8.4208883"><ele>6.25</ele><time>2026-04-20T12:06:35.777Z</time></trkpt><trkpt lat="39.99844" lon="8.4210417"><ele>6.5</ele><time>2026-04-20T12:06:38.777Z</time></trkpt><trkpt lat="39.9985233" lon="8.4211433"><ele>6.75</ele><time>2026-04-20T12:06:40.777Z</time></trkpt><trkpt lat="39.9986133" lon="8.4212483"><ele>7.0</ele><time>2026-04-20T12:06:42.777Z</time></trkpt><trkpt lat="39.9986767" lon="8.42133"><ele>6.500000000000001</ele><time>2026-04-20T12:06:44.778Z</time></trkpt><trkpt lat="39.9987267" lon="8.4214017"><ele>6.0</ele><time>2026-04-20T12:06:46.778Z</time></trkpt><trkpt lat="39.9987767" lon="8.4214783"><ele>5.5</ele><time>2026-04-20T12:06:48.777Z</time></trkpt><trkpt lat="39.99882" lon="8.421575"><ele>5.0</ele><time>2026-04-20T12:06:51.777Z</time></trkpt><trkpt lat="39.9988517" lon="8.4216717"><ele>4.5</ele><time>2026-04-20T12:06:53.777Z</time></trkpt><trkpt lat="39.998875" lon="8.4217617"><ele>4.0</ele><time>2026-04-20T12:06:55.777Z</time></trkpt><trkpt lat="39.99891" lon="8.42184"><ele>4.0</ele><time>2026-04-20T12:06:57.777Z</time></trkpt><trkpt lat="39.9989783" lon="8.421985"><ele>4.0</ele><time>2026-04-20T12:07:01.777Z</time></trkpt><trkpt lat="39.9990117" lon="8.4220567"><ele>4.0</ele><time>2026-04-20T12:07:03.777Z</time></trkpt><trkpt lat="39.999045" lon="8.4221317"><ele>4.0</ele><time>2026-04-20T12:07:05.777Z</time></trkpt><trkpt lat="39.9990917" lon="8.4222233"><ele>4.0</ele><time>2026-04-20T12:07:07.778Z</time></trkpt><trkpt lat="39.9991533" lon="8.4223333"><ele>3.6</ele><time>2026-04-20T12:07:09.777Z</time></trkpt><trkpt lat="39.9992117" lon="8.4224517"><ele>3.2</ele><time>2026-04-20T12:07:11.777Z</time></trkpt><trkpt lat="39.9992667" lon="8.4225733"><ele>2.8000000000000003</ele><time>2026-04-20T12:07:13.778Z</time></trkpt><trkpt lat="39.99931" lon="8.4226767"><ele>2.4000000000000004</ele><time>2026-04-20T12:07:15.777Z</time></trkpt><trkpt lat="39.9993533" lon="8.422795"><ele>2.0</ele><time>2026-04-20T12:07:17.777Z</time></trkpt><trkpt lat="39.99938" lon="8.4228767"><ele>2.0</ele><time>2026-04-20T12:07:19.777Z</time></trkpt><trkpt lat="39.9993367" lon="8.4230317"><ele>2.0</ele><time>2026-04-20T12:12:37.776Z</time></trkpt><trkpt lat="39.99932" lon="8.422685"><ele>2.0</ele><time>2026-04-20T12:17:03.776Z</time></trkpt><trkpt lat="39.99928" lon="8.4225833"><ele>2.0</ele><time>2026-04-20T12:17:05.776Z</time></trkpt><trkpt lat="39.9992367" lon="8.4224983"><ele>2.0</ele><time>2026-04-20T12:17:07.776Z</time></trkpt><trkpt lat="39.9991917" lon="8.4224033"><ele>2.0</ele><time>2026-04-20T12:17:09.776Z</time></trkpt><trkpt lat="39.9991483" lon="8.4223117"><ele>2.0</ele><time>2026-04-20T12:17:11.776Z</time></trkpt><trkpt lat="39.9991033" lon="8.4222083"><ele>2.0</ele><time>2026-04-20T12:17:13.776Z</time></trkpt><trkpt lat="39.9990167" lon="8.4220333"><ele>2.333333333333333</ele><time>2026-04-20T12:17:17.776Z</time></trkpt><trkpt lat="39.9989817" lon="8.4219533"><ele>2.6666666666666665</ele><time>2026-04-20T12:17:19.776Z</time></trkpt><trkpt lat="39.9989433" lon="8.42186"><ele>3.0</ele><time>2026-04-20T12:17:21.776Z</time></trkpt><trkpt lat="39.9989033" lon="8.421765"><ele>3.333333333333333</ele><time>2026-04-20T12:17:23.776Z</time></trkpt><trkpt lat="39.9988767" lon="8.421645"><ele>3.6666666666666665</ele><time>2026-04-20T12:17:25.776Z</time></trkpt><trkpt lat="39.9988417" lon="8.4215483"><ele>4.0</ele><time>2026-04-20T12:17:27.776Z</time></trkpt><trkpt lat="39.998805" lon="8.4214617"><ele>4.0</ele><time>2026-04-20T12:17:29.776Z</time></trkpt><trkpt lat="39.9987567" lon="8.42139"><ele>4.0</ele><time>2026-04-20T12:17:31.776Z</time></trkpt><trkpt lat="39.9986817" lon="8.4213017"><ele>4.0</ele><time>2026-04-20T12:17:33.776Z</time></trkpt><trkpt lat="39.9985967" lon="8.421215"><ele>4.0</ele><time>2026-04-20T12:17:35.776Z</time></trkpt><trkpt lat="39.9984333" lon="8.4210017"><ele>4.5</ele><time>2026-04-20T12:17:39.777Z</time></trkpt><trkpt lat="39.998345" lon="8.4208933"><ele>5.0</ele><time>2026-04-20T12:17:41.776Z</time></trkpt><trkpt lat="39.99826" lon="8.42078"><ele>5.5</ele><time>2026-04-20T12:17:43.776Z</time></trkpt><trkpt lat="39.9981717" lon="8.420675"><ele>6.0</ele><time>2026-04-20T12:17:45.776Z</time></trkpt><trkpt lat="39.9980867" lon="8.4205683"><ele>6.6</ele><time>2026-04-20T12:17:47.775Z</time></trkpt><trkpt lat="39.9980017" lon="8.4204567"><ele>7.199999999999999</ele><time>2026-04-20T12:17:49.775Z</time></trkpt><trkpt lat="39.9979283" lon="8.4203633"><ele>7.800000000000001</ele><time>2026-04-20T12:17:51.776Z</time></trkpt><trkpt lat="39.9978567" lon="8.4202717"><ele>8.4</ele><time>2026-04-20T12:17:53.775Z</time></trkpt><trkpt lat="39.9977817" lon="8.4201783"><ele>9.0</ele><time>2026-04-20T12:17:55.776Z</time></trkpt><trkpt lat="39.9977067" lon="8.420085"><ele>9.0</ele><time>2026-04-20T12:17:57.776Z</time></trkpt><trkpt lat="39.997615" lon="8.4199417"><ele>9.0</ele><time>2026-04-20T12:18:01.775Z</time></trkpt><trkpt lat="39.9975517" lon="8.4198767"><ele>9.0</ele><time>2026-04-20T12:18:27.775Z</time></trkpt><trkpt lat="39.997385" lon="8.42006"><ele>9.0</ele><time>2026-04-20T12:18:31.775Z</time></trkpt><trkpt lat="39.997325" lon="8.420135"><ele>9.0</ele><time>2026-04-20T12:18:32.775Z</time></trkpt><trkpt lat="39.99726" lon="8.4202183"><ele>9.0</ele><time>2026-04-20T12:18:33.775Z</time></trkpt><trkpt lat="39.9971917" lon="8.4203117"><ele>9.0</ele><time>2026-04-20T12:18:34.775Z</time></trkpt><trkpt lat="39.99712" lon="8.4204167"><ele>9.0</ele><time>2026-04-20T12:18:35.776Z</time></trkpt><trkpt lat="39.997045" lon="8.4205283"><ele>9.0</ele><time>2026-04-20T12:18:36.775Z</time></trkpt><trkpt lat="39.996965" lon="8.42064"><ele>8.5</ele><time>2026-04-20T12:18:37.775Z</time></trkpt><trkpt lat="39.9968767" lon="8.4207533"><ele>8.0</ele><time>2026-04-20T12:18:38.775Z</time></trkpt><trkpt lat="39.9967817" lon="8.4208683"><ele>7.5</ele><time>2026-04-20T12:18:39.775Z</time></trkpt><trkpt lat="39.99668" lon="8.42099"><ele>7.0</ele><time>2026-04-20T12:18:40.776Z</time></trkpt><trkpt lat="39.9965683" lon="8.4211083"><ele>7.0</ele><time>2026-04-20T12:18:41.775Z</time></trkpt><trkpt lat="39.9964533" lon="8.4212317"><ele>7.0</ele><time>2026-04-20T12:18:42.775Z</time></trkpt><trkpt lat="39.996325" lon="8.4213383"><ele>7.0</ele><time>2026-04-20T12:18:43.775Z</time></trkpt><trkpt lat="39.99619" lon="8.4214383"><ele>6.666666666666667</ele><time>2026-04-20T12:18:44.775Z</time></trkpt><trkpt lat="39.996045" lon="8.42154"><ele>6.333333333333334</ele><time>2026-04-20T12:18:45.775Z</time></trkpt><trkpt lat="39.99589" lon="8.4216367"><ele>6.0</ele><time>2026-04-20T12:18:46.776Z</time></trkpt><trkpt lat="39.99573" lon="8.42174"><ele>6.0</ele><time>2026-04-20T12:18:47.776Z</time></trkpt><trkpt lat="39.9955633" lon="8.4218433"><ele>6.0</ele><time>2026-04-20T12:18:48.775Z</time></trkpt><trkpt lat="39.9952333" lon="8.42205"><ele>5.666666666666667</ele><time>2026-04-20T12:18:50.775Z</time></trkpt><trkpt lat="39.9950717" lon="8.4221517"><ele>5.333333333333334</ele><time>2026-04-20T12:18:51.775Z</time></trkpt><trkpt lat="39.9949217" lon="8.42225"><ele>5.0</ele><time>2026-04-20T12:18:52.775Z</time></trkpt><trkpt lat="39.9947683" lon="8.4223517"><ele>5.0</ele><time>2026-04-20T12:18:53.775Z</time></trkpt><trkpt lat="39.9946167" lon="8.422445"><ele>5.0</ele><time>2026-04-20T12:18:54.775Z</time></trkpt><trkpt lat="39.994465" lon="8.4225383"><ele>5.0</ele><time>2026-04-20T12:18:55.775Z</time></trkpt><trkpt lat="39.9943117" lon="8.422635"><ele>5.0</ele><time>2026-04-20T12:18:56.775Z</time></trkpt><trkpt lat="39.9941533" lon="8.42274"><ele>5.0</ele><time>2026-04-20T12:18:57.775Z</time></trkpt><trkpt lat="39.9939983" lon="8.4228383"><ele>5.0</ele><time>2026-04-20T12:18:58.775Z</time></trkpt><trkpt lat="39.993845" lon="8.4229383"><ele>4.666666666666667</ele><time>2026-04-20T12:18:59.775Z</time></trkpt><trkpt lat="39.9936817" lon="8.4230367"><ele>4.333333333333333</ele><time>2026-04-20T12:19:00.775Z</time></trkpt><trkpt lat="39.99352" lon="8.4231267"><ele>4.0</ele><time>2026-04-20T12:19:01.775Z</time></trkpt><trkpt lat="39.9933567" lon="8.4232383"><ele>4.0</ele><time>2026-04-20T12:19:02.775Z</time></trkpt><trkpt lat="39.99319" lon="8.4233467"><ele>4.0</ele><time>2026-04-20T12:19:03.775Z</time></trkpt><trkpt lat="39.9930183" lon="8.4234533"><ele>4.0</ele><time>2026-04-20T12:19:04.775Z</time></trkpt><trkpt lat="39.9928417" lon="8.4235667"><ele>4.0</ele><time>2026-04-20T12:19:05.775Z</time></trkpt><trkpt lat="39.992665" lon="8.42368"><ele>4.0</ele><time>2026-04-20T12:19:06.776Z</time></trkpt><trkpt lat="39.9924867" lon="8.4237983"><ele>4.0</ele><time>2026-04-20T12:19:07.776Z</time></trkpt><trkpt lat="39.99231" lon="8.4239217"><ele>4.0</ele><time>2026-04-20T12:19:08.775Z</time></trkpt><trkpt lat="39.9921433" lon="8.4240467"><ele>4.0</ele><time>2026-04-20T12:19:09.775Z</time></trkpt><trkpt lat="39.99186" lon="8.4243467"><ele>4.0</ele><time>2026-04-20T12:19:11.775Z</time></trkpt><trkpt lat="39.991745" lon="8.4245183"><ele>4.0</ele><time>2026-04-20T12:19:12.775Z</time></trkpt><trkpt lat="39.9916317" lon="8.4246967"><ele>4.0</ele><time>2026-04-20T12:19:13.775Z</time></trkpt><trkpt lat="39.9915233" lon="8.4248783"><ele>4.0</ele><time>2026-04-20T12:19:14.775Z</time></trkpt><trkpt lat="39.9914233" lon="8.425075"><ele>4.0</ele><time>2026-04-20T12:19:15.776Z</time></trkpt><trkpt lat="39.99132" lon="8.4252783"><ele>4.0</ele><time>2026-04-20T12:19:16.775Z</time></trkpt><trkpt lat="39.9912117" lon="8.4254917"><ele>4.0</ele><time>2026-04-20T12:19:17.775Z</time></trkpt><trkpt lat="39.9910983" lon="8.4256983"><ele>4.0</ele><time>2026-04-20T12:19:18.775Z</time></trkpt><trkpt lat="39.9909817" lon="8.4259083"><ele>4.0</ele><time>2026-04-20T12:19:19.775Z</time></trkpt><trkpt lat="39.9908667" lon="8.4261233"><ele>4.333333333333333</ele><time>2026-04-20T12:19:20.776Z</time></trkpt><trkpt lat="39.9907483" lon="8.42634"><ele>4.666666666666667</ele><time>2026-04-20T12:19:21.776Z</time></trkpt><trkpt lat="39.9906333" lon="8.42656"><ele>5.0</ele><time>2026-04-20T12:19:22.775Z</time></trkpt><trkpt lat="39.99052" lon="8.4267767"><ele>5.0</ele><time>2026-04-20T12:19:23.775Z</time></trkpt><trkpt lat="39.9904017" lon="8.4269883"><ele>5.0</ele><time>2026-04-20T12:19:24.775Z</time></trkpt><trkpt lat="39.99028" lon="8.4272"><ele>5.0</ele><time>2026-04-20T12:19:25.775Z</time></trkpt><trkpt lat="39.9901567" lon="8.427415"><ele>5.0</ele><time>2026-04-20T12:19:26.775Z</time></trkpt><trkpt lat="39.99003" lon="8.427625"><ele>5.0</ele><time>2026-04-20T12:19:27.776Z</time></trkpt><trkpt lat="39.9898983" lon="8.4278417"><ele>5.0</ele><time>2026-04-20T12:19:28.775Z</time></trkpt><trkpt lat="39.989775" lon="8.42805"><ele>5.0</ele><time>2026-04-20T12:19:29.775Z</time></trkpt><trkpt lat="39.9896483" lon="8.4282683"><ele>5.0</ele><time>2026-04-20T12:19:30.775Z</time></trkpt><trkpt lat="39.98938" lon="8.42869"><ele>5.0</ele><time>2026-04-20T12:19:32.776Z</time></trkpt><trkpt lat="39.9892483" lon="8.4289"><ele>5.0</ele><time>2026-04-20T12:19:33.775Z</time></trkpt><trkpt lat="39.9891233" lon="8.4291083"><ele>5.0</ele><time>2026-04-20T12:19:34.776Z</time></trkpt><trkpt lat="39.9890117" lon="8.4293233"><ele>5.0</ele><time>2026-04-20T12:19:35.775Z</time></trkpt><trkpt lat="39.988915" lon="8.429555"><ele>5.0</ele><time>2026-04-20T12:19:36.775Z</time></trkpt><trkpt lat="39.9888433" lon="8.4298017"><ele>5.0</ele><time>2026-04-20T12:19:37.775Z</time></trkpt><trkpt lat="39.98879" lon="8.43006"><ele>5.0</ele><time>2026-04-20T12:19:38.775Z</time></trkpt><trkpt lat="39.9887567" lon="8.4303233"><ele>5.0</ele><time>2026-04-20T12:19:39.775Z</time></trkpt><trkpt lat="39.9887317" lon="8.430575"><ele>5.0</ele><time>2026-04-20T12:19:40.775Z</time></trkpt><trkpt lat="39.98872" lon="8.43082"><ele>4.666666666666667</ele><time>2026-04-20T12:19:41.775Z</time></trkpt><trkpt lat="39.9886933" lon="8.431055"><ele>4.333333333333333</ele><time>2026-04-20T12:19:42.775Z</time></trkpt><trkpt lat="39.9886683" lon="8.4313017"><ele>4.0</ele><time>2026-04-20T12:19:43.775Z</time></trkpt><trkpt lat="39.988645" lon="8.4315483"><ele>3.6666666666666665</ele><time>2026-04-20T12:19:44.775Z</time></trkpt><trkpt lat="39.988625" lon="8.4317883"><ele>3.333333333333333</ele><time>2026-04-20T12:19:45.775Z</time></trkpt><trkpt lat="39.9886067" lon="8.432035"><ele>3.0</ele><time>2026-04-20T12:19:46.775Z</time></trkpt><trkpt lat="39.988585" lon="8.43228"><ele>3.0</ele><time>2026-04-20T12:19:47.775Z</time></trkpt><trkpt lat="39.9885533" lon="8.4325283"><ele>3.0</ele><time>2026-04-20T12:19:48.776Z</time></trkpt><trkpt lat="39.988525" lon="8.4327817"><ele>3.0</ele><time>2026-04-20T12:19:49.775Z</time></trkpt><trkpt lat="39.9884983" lon="8.4330317"><ele>3.0</ele><time>2026-04-20T12:19:50.775Z</time></trkpt><trkpt lat="39.9884233" lon="8.4335467"><ele>3.0</ele><time>2026-04-20T12:19:52.775Z</time></trkpt><trkpt lat="39.98838" lon="8.4338083"><ele>3.333333333333333</ele><time>2026-04-20T12:19:53.775Z</time></trkpt><trkpt lat="39.9883383" lon="8.434055"><ele>3.6666666666666665</ele><time>2026-04-20T12:19:54.775Z</time></trkpt><trkpt lat="39.988295" lon="8.4343033"><ele>4.0</ele><time>2026-04-20T12:19:55.775Z</time></trkpt><trkpt lat="39.98826" lon="8.4345483"><ele>4.0</ele><time>2026-04-20T12:19:56.775Z</time></trkpt><trkpt lat="39.98822" lon="8.4347983"><ele>4.0</ele><time>2026-04-20T12:19:57.775Z</time></trkpt><trkpt lat="39.988175" lon="8.4350483"><ele>4.0</ele><time>2026-04-20T12:19:58.775Z</time></trkpt><trkpt lat="39.9881333" lon="8.435305"><ele>3.333333333333333</ele><time>2026-04-20T12:19:59.775Z</time></trkpt><trkpt lat="39.988095" lon="8.4355617"><ele>2.6666666666666665</ele><time>2026-04-20T12:20:00.775Z</time></trkpt><trkpt lat="39.98805" lon="8.43582"><ele>2.0</ele><time>2026-04-20T12:20:01.776Z</time></trkpt><trkpt lat="39.9880033" lon="8.4360883"><ele>2.0</ele><time>2026-04-20T12:20:02.775Z</time></trkpt><trkpt lat="39.98795" lon="8.4363483"><ele>2.0</ele><time>2026-04-20T12:20:03.775Z</time></trkpt><trkpt lat="39.9879" lon="8.436615"><ele>2.0</ele><time>2026-04-20T12:20:04.775Z</time></trkpt><trkpt lat="39.9878383" lon="8.43688"><ele>2.6666666666666665</ele><time>2026-04-20T12:20:05.775Z</time></trkpt><trkpt lat="39.9877633" lon="8.4371383"><ele>3.333333333333333</ele><time>2026-04-20T12:20:06.775Z</time></trkpt><trkpt lat="39.987685" lon="8.4374"><ele>4.0</ele><time>2026-04-20T12:20:07.775Z</time></trkpt><trkpt lat="39.9876083" lon="8.4376617"><ele>4.0</ele><time>2026-04-20T12:20:08.775Z</time></trkpt><trkpt lat="39.98753" lon="8.4379217"><ele>4.0</ele><time>2026-04-20T12:20:09.775Z</time></trkpt><trkpt lat="39.9874467" lon="8.4381783"><ele>4.0</ele><time>2026-04-20T12:20:10.775Z</time></trkpt><trkpt lat="39.9873683" lon="8.438435"><ele>4.0</ele><time>2026-04-20T12:20:11.775Z</time></trkpt><trkpt lat="39.987205" lon="8.438955"><ele>4.0</ele><time>2026-04-20T12:20:13.775Z</time></trkpt><trkpt lat="39.9871167" lon="8.4392167"><ele>4.0</ele><time>2026-04-20T12:20:14.775Z</time></trkpt><trkpt lat="39.9870367" lon="8.4394933"><ele>4.0</ele><time>2026-04-20T12:20:15.775Z</time></trkpt><trkpt lat="39.9869683" lon="8.4397667"><ele>4.0</ele><time>2026-04-20T12:20:16.775Z</time></trkpt><trkpt lat="39.986905" lon="8.4400367"><ele>4.333333333333333</ele><time>2026-04-20T12:20:17.775Z</time></trkpt><trkpt lat="39.9868483" lon="8.4402917"><ele>4.666666666666667</ele><time>2026-04-20T12:20:18.776Z</time></trkpt><trkpt lat="39.986795" lon="8.4405433"><ele>5.0</ele><time>2026-04-20T12:20:19.775Z</time></trkpt><trkpt lat="39.9867467" lon="8.4407933"><ele>5.0</ele><time>2026-04-20T12:20:20.775Z</time></trkpt><trkpt lat="39.9867033" lon="8.44105"><ele>5.0</ele><time>2026-04-20T12:20:21.775Z</time></trkpt><trkpt lat="39.98666" lon="8.4413017"><ele>5.0</ele><time>2026-04-20T12:20:22.775Z</time></trkpt><trkpt lat="39.98662" lon="8.4415517"><ele>5.0</ele><time>2026-04-20T12:20:23.775Z</time></trkpt><trkpt lat="39.98658" lon="8.4418"><ele>5.0</ele><time>2026-04-20T12:20:24.775Z</time></trkpt><trkpt lat="39.9865433" lon="8.442045"><ele>5.0</ele><time>2026-04-20T12:20:25.775Z</time></trkpt><trkpt lat="39.9865017" lon="8.4422917"><ele>5.0</ele><time>2026-04-20T12:20:26.775Z</time></trkpt><trkpt lat="39.9864533" lon="8.4425383"><ele>5.0</ele><time>2026-04-20T12:20:27.775Z</time></trkpt><trkpt lat="39.9864083" lon="8.44279"><ele>5.0</ele><time>2026-04-20T12:20:28.775Z</time></trkpt><trkpt lat="39.9863633" lon="8.4430467"><ele>5.0</ele><time>2026-04-20T12:20:29.775Z</time></trkpt><trkpt lat="39.986315" lon="8.4432983"><ele>5.0</ele><time>2026-04-20T12:20:30.775Z</time></trkpt><trkpt lat="39.986275" lon="8.4435517"><ele>5.0</ele><time>2026-04-20T12:20:31.776Z</time></trkpt><trkpt lat="39.9862317" lon="8.4438017"><ele>5.0</ele><time>2026-04-20T12:20:32.775Z</time></trkpt><trkpt lat="39.9861383" lon="8.4443183"><ele>5.0</ele><time>2026-04-20T12:20:34.775Z</time></trkpt><trkpt lat="39.9861033" lon="8.4445983"><ele>5.0</ele><time>2026-04-20T12:20:35.775Z</time></trkpt><trkpt lat="39.986085" lon="8.4448783"><ele>5.0</ele><time>2026-04-20T12:20:36.775Z</time></trkpt><trkpt lat="39.986075" lon="8.4451383"><ele>5.0</ele><time>2026-04-20T12:20:37.775Z</time></trkpt><trkpt lat="39.9860783" lon="8.4454017"><ele>5.333333333333334</ele><time>2026-04-20T12:20:38.775Z</time></trkpt><trkpt lat="39.986095" lon="8.4456683"><ele>5.666666666666667</ele><time>2026-04-20T12:20:39.775Z</time></trkpt><trkpt lat="39.98612" lon="8.4459233"><ele>6.0</ele><time>2026-04-20T12:20:40.776Z</time></trkpt><trkpt lat="39.986155" lon="8.446175"><ele>6.0</ele><time>2026-04-20T12:20:41.775Z</time></trkpt><trkpt lat="39.9861867" lon="8.4464233"><ele>6.0</ele><time>2026-04-20T12:20:42.775Z</time></trkpt><trkpt lat="39.9862267" lon="8.4466683"><ele>6.0</ele><time>2026-04-20T12:20:43.776Z</time></trkpt><trkpt lat="39.9862633" lon="8.446905"><ele>6.333333333333334</ele><time>2026-04-20T12:20:44.775Z</time></trkpt><trkpt lat="39.9862917" lon="8.4471317"><ele>6.666666666666667</ele><time>2026-04-20T12:20:45.775Z</time></trkpt><trkpt lat="39.9863133" lon="8.4473517"><ele>7.0</ele><time>2026-04-20T12:20:46.775Z</time></trkpt><trkpt lat="39.9863283" lon="8.4475617"><ele>7.0</ele><time>2026-04-20T12:20:47.776Z</time></trkpt><trkpt lat="39.986325" lon="8.4477733"><ele>7.0</ele><time>2026-04-20T12:20:48.775Z</time></trkpt><trkpt lat="39.9863117" lon="8.44798"><ele>7.0</ele><time>2026-04-20T12:20:49.775Z</time></trkpt><trkpt lat="39.9862817" lon="8.448185"><ele>6.666666666666667</ele><time>2026-04-20T12:20:50.775Z</time></trkpt><trkpt lat="39.9862367" lon="8.4483933"><ele>6.333333333333334</ele><time>2026-04-20T12:20:51.775Z</time></trkpt><trkpt lat="39.9861783" lon="8.4486017"><ele>6.0</ele><time>2026-04-20T12:20:52.775Z</time></trkpt><trkpt lat="39.9861033" lon="8.4488"><ele>7.0</ele><time>2026-04-20T12:20:53.775Z</time></trkpt><trkpt lat="39.985915" lon="8.449185"><ele>8.0</ele><time>2026-04-20T12:20:55.775Z</time></trkpt><trkpt lat="39.985795" lon="8.4493633"><ele>8.0</ele><time>2026-04-20T12:20:56.775Z</time></trkpt><trkpt lat="39.9856767" lon="8.449545"><ele>8.0</ele><time>2026-04-20T12:20:57.775Z</time></trkpt><trkpt lat="39.98556" lon="8.44973"><ele>8.0</ele><time>2026-04-20T12:20:58.775Z</time></trkpt><trkpt lat="39.9854417" lon="8.4499117"><ele>8.333333333333332</ele><time>2026-04-20T12:20:59.775Z</time></trkpt><trkpt lat="39.9853317" lon="8.4500783"><ele>8.666666666666666</ele><time>2026-04-20T12:21:00.775Z</time></trkpt><trkpt lat="39.985235" lon="8.45024"><ele>9.0</ele><time>2026-04-20T12:21:01.775Z</time></trkpt><trkpt lat="39.9851483" lon="8.4503917"><ele>9.666666666666666</ele><time>2026-04-20T12:21:02.775Z</time></trkpt><trkpt lat="39.9850533" lon="8.4505417"><ele>10.333333333333332</ele><time>2026-04-20T12:21:03.775Z</time></trkpt><trkpt lat="39.9849483" lon="8.4506983"><ele>11.0</ele><time>2026-04-20T12:21:04.776Z</time></trkpt><trkpt lat="39.9848483" lon="8.45087"><ele>11.0</ele><time>2026-04-20T12:21:05.775Z</time></trkpt><trkpt lat="39.9847667" lon="8.4510517"><ele>11.0</ele><time>2026-04-20T12:21:06.775Z</time></trkpt><trkpt lat="39.9847033" lon="8.4512283"><ele>11.0</ele><time>2026-04-20T12:21:07.775Z</time></trkpt><trkpt lat="39.9846483" lon="8.4514217"><ele>11.666666666666666</ele><time>2026-04-20T12:21:08.776Z</time></trkpt><trkpt lat="39.9846117" lon="8.4516217"><ele>12.333333333333332</ele><time>2026-04-20T12:21:09.775Z</time></trkpt><trkpt lat="39.9845883" lon="8.4518233"><ele>13.0</ele><time>2026-04-20T12:21:10.775Z</time></trkpt><trkpt lat="39.9845767" lon="8.4520117"><ele>13.0</ele><time>2026-04-20T12:21:11.775Z</time></trkpt><trkpt lat="39.98458" lon="8.4521933"><ele>13.0</ele><time>2026-04-20T12:21:12.775Z</time></trkpt><trkpt lat="39.98459" lon="8.4523833"><ele>13.0</ele><time>2026-04-20T12:21:13.776Z</time></trkpt><trkpt lat="39.984615" lon="8.4525783"><ele>13.0</ele><time>2026-04-20T12:21:14.775Z</time></trkpt><trkpt lat="39.9846967" lon="8.45297"><ele>12.0</ele><time>2026-04-20T12:21:16.775Z</time></trkpt><trkpt lat="39.98474" lon="8.45317"><ele>11.0</ele><time>2026-04-20T12:21:17.775Z</time></trkpt><trkpt lat="39.9847833" lon="8.4533583"><ele>10.0</ele><time>2026-04-20T12:21:18.775Z</time></trkpt><trkpt lat="39.98482" lon="8.45354"><ele>10.0</ele><time>2026-04-20T12:21:19.775Z</time></trkpt><trkpt lat="39.9848617" lon="8.45373"><ele>10.0</ele><time>2026-04-20T12:21:20.775Z</time></trkpt><trkpt lat="39.9849" lon="8.45392"><ele>10.0</ele><time>2026-04-20T12:21:21.775Z</time></trkpt><trkpt lat="39.9849367" lon="8.4541133"><ele>9.333333333333334</ele><time>2026-04-20T12:21:22.775Z</time></trkpt><trkpt lat="39.9849733" lon="8.4543133"><ele>8.666666666666666</ele><time>2026-04-20T12:21:23.776Z</time></trkpt><trkpt lat="39.9850117" lon="8.4545167"><ele>8.0</ele><time>2026-04-20T12:21:24.775Z</time></trkpt><trkpt lat="39.9850567" lon="8.4547233"><ele>7.666666666666666</ele><time>2026-04-20T12:21:25.776Z</time></trkpt><trkpt lat="39.9851033" lon="8.4549317"><ele>7.333333333333334</ele><time>2026-04-20T12:21:26.776Z</time></trkpt><trkpt lat="39.9851467" lon="8.4551517"><ele>7.0</ele><time>2026-04-20T12:21:27.776Z</time></trkpt><trkpt lat="39.9851867" lon="8.4553733"><ele>6.666666666666667</ele><time>2026-04-20T12:21:28.775Z</time></trkpt><trkpt lat="39.9852333" lon="8.4555967"><ele>6.333333333333334</ele><time>2026-04-20T12:21:29.775Z</time></trkpt><trkpt lat="39.98528" lon="8.4558217"><ele>6.0</ele><time>2026-04-20T12:21:30.775Z</time></trkpt><trkpt lat="39.985335" lon="8.4560417"><ele>6.0</ele><time>2026-04-20T12:21:31.776Z</time></trkpt><trkpt lat="39.9853867" lon="8.4562583"><ele>6.0</ele><time>2026-04-20T12:21:32.776Z</time></trkpt><trkpt lat="39.9854417" lon="8.45647"><ele>6.0</ele><time>2026-04-20T12:21:33.776Z</time></trkpt><trkpt lat="39.9855017" lon="8.4566717"><ele>5.5</ele><time>2026-04-20T12:21:34.775Z</time></trkpt><trkpt lat="39.9855783" lon="8.4568633"><ele>5.0</ele><time>2026-04-20T12:21:35.775Z</time></trkpt><trkpt lat="39.985765" lon="8.4572233"><ele>5.666666666666667</ele><time>2026-04-20T12:21:37.775Z</time></trkpt><trkpt lat="39.9858767" lon="8.45739"><ele>6.333333333333334</ele><time>2026-04-20T12:21:38.776Z</time></trkpt><trkpt lat="39.986" lon="8.4575467"><ele>7.0</ele><time>2026-04-20T12:21:39.776Z</time></trkpt><trkpt lat="39.98613" lon="8.4576833"><ele>7.0</ele><time>2026-04-20T12:21:40.776Z</time></trkpt><trkpt lat="39.98626" lon="8.457815"><ele>7.0</ele><time>2026-04-20T12:21:41.775Z</time></trkpt><trkpt lat="39.9863833" lon="8.4579533"><ele>7.0</ele><time>2026-04-20T12:21:42.775Z</time></trkpt><trkpt lat="39.9865083" lon="8.4580883"><ele>7.0</ele><time>2026-04-20T12:21:43.775Z</time></trkpt><trkpt lat="39.98664" lon="8.4582283"><ele>7.0</ele><time>2026-04-20T12:21:44.775Z</time></trkpt><trkpt lat="39.986765" lon="8.4583633"><ele>7.0</ele><time>2026-04-20T12:21:45.775Z</time></trkpt><trkpt lat="39.9868867" lon="8.4585"><ele>7.0</ele><time>2026-04-20T12:21:46.776Z</time></trkpt><trkpt lat="39.98701" lon="8.45863"><ele>7.0</ele><time>2026-04-20T12:21:47.775Z</time></trkpt><trkpt lat="39.9871333" lon="8.4587583"><ele>7.0</ele><time>2026-04-20T12:21:48.775Z</time></trkpt><trkpt lat="39.987265" lon="8.45886"><ele>7.0</ele><time>2026-04-20T12:21:49.775Z</time></trkpt><trkpt lat="39.9874033" lon="8.4589467"><ele>7.0</ele><time>2026-04-20T12:21:50.775Z</time></trkpt><trkpt lat="39.98755" lon="8.4590167"><ele>7.0</ele><time>2026-04-20T12:21:51.776Z</time></trkpt><trkpt lat="39.9877" lon="8.4590783"><ele>7.333333333333334</ele><time>2026-04-20T12:21:52.776Z</time></trkpt><trkpt lat="39.987855" lon="8.4591383"><ele>7.666666666666666</ele><time>2026-04-20T12:21:53.775Z</time></trkpt><trkpt lat="39.9880067" lon="8.459205"><ele>8.0</ele><time>2026-04-20T12:21:54.775Z</time></trkpt><trkpt lat="39.9881533" lon="8.4592817"><ele>8.0</ele><time>2026-04-20T12:21:55.775Z</time></trkpt><trkpt lat="39.988295" lon="8.4593717"><ele>8.0</ele><time>2026-04-20T12:21:56.775Z</time></trkpt><trkpt lat="39.98856" lon="8.4595817"><ele>8.0</ele><time>2026-04-20T12:21:58.775Z</time></trkpt><trkpt lat="39.9886933" lon="8.45969"><ele>8.0</ele><time>2026-04-20T12:21:59.775Z</time></trkpt><trkpt lat="39.9888267" lon="8.4598017"><ele>8.0</ele><time>2026-04-20T12:22:00.775Z</time></trkpt><trkpt lat="39.988965" lon="8.4599083"><ele>8.0</ele><time>2026-04-20T12:22:01.776Z</time></trkpt><trkpt lat="39.9891083" lon="8.460025"><ele>8.0</ele><time>2026-04-20T12:22:02.775Z</time></trkpt><trkpt lat="39.9892533" lon="8.4601417"><ele>8.0</ele><time>2026-04-20T12:22:03.775Z</time></trkpt><trkpt lat="39.9894" lon="8.4602617"><ele>8.0</ele><time>2026-04-20T12:22:04.775Z</time></trkpt><trkpt lat="39.9895567" lon="8.460385"><ele>8.0</ele><time>2026-04-20T12:22:05.775Z</time></trkpt><trkpt lat="39.9897083" lon="8.460515"><ele>8.0</ele><time>2026-04-20T12:22:06.775Z</time></trkpt><trkpt lat="39.9898517" lon="8.4606533"><ele>8.0</ele><time>2026-04-20T12:22:07.775Z</time></trkpt><trkpt lat="39.989995" lon="8.460795"><ele>8.0</ele><time>2026-04-20T12:22:08.775Z</time></trkpt><trkpt lat="39.9901283" lon="8.4609467"><ele>8.0</ele><time>2026-04-20T12:22:09.775Z</time></trkpt><trkpt lat="39.9902583" lon="8.4611017"><ele>8.333333333333332</ele><time>2026-04-20T12:22:10.775Z</time></trkpt><trkpt lat="39.990385" lon="8.4612683"><ele>8.666666666666666</ele><time>2026-04-20T12:22:11.775Z</time></trkpt><trkpt lat="39.9905017" lon="8.461435"><ele>9.0</ele><time>2026-04-20T12:22:12.775Z</time></trkpt><trkpt lat="39.9906167" lon="8.4616067"><ele>9.0</ele><time>2026-04-20T12:22:13.775Z</time></trkpt><trkpt lat="39.990735" lon="8.4617833"><ele>9.0</ele><time>2026-04-20T12:22:14.775Z</time></trkpt><trkpt lat="39.9908483" lon="8.4619817"><ele>9.0</ele><time>2026-04-20T12:22:15.775Z</time></trkpt><trkpt lat="39.9909583" lon="8.4621817"><ele>10.5</ele><time>2026-04-20T12:22:16.776Z</time></trkpt><trkpt lat="39.9911833" lon="8.4626017"><ele>12.0</ele><time>2026-04-20T12:22:18.775Z</time></trkpt><trkpt lat="39.9912933" lon="8.462815"><ele>11.666666666666666</ele><time>2026-04-20T12:22:19.776Z</time></trkpt><trkpt lat="39.991405" lon="8.4630217"><ele>11.333333333333332</ele><time>2026-04-20T12:22:20.775Z</time></trkpt><trkpt lat="39.9915233" lon="8.4632317"><ele>11.0</ele><time>2026-04-20T12:22:21.775Z</time></trkpt><trkpt lat="39.9916383" lon="8.4634383"><ele>10.333333333333332</ele><time>2026-04-20T12:22:22.775Z</time></trkpt><trkpt lat="39.9917567" lon="8.463645"><ele>9.666666666666666</ele><time>2026-04-20T12:22:23.775Z</time></trkpt><trkpt lat="39.9918717" lon="8.4638567"><ele>9.0</ele><time>2026-04-20T12:22:24.775Z</time></trkpt><trkpt lat="39.99198" lon="8.46407"><ele>9.0</ele><time>2026-04-20T12:22:25.775Z</time></trkpt><trkpt lat="39.9920783" lon="8.4642717"><ele>9.0</ele><time>2026-04-20T12:22:26.775Z</time></trkpt><trkpt lat="39.9921667" lon="8.4644883"><ele>9.0</ele><time>2026-04-20T12:22:27.776Z</time></trkpt><trkpt lat="39.992245" lon="8.4647033"><ele>9.333333333333334</ele><time>2026-04-20T12:22:28.775Z</time></trkpt><trkpt lat="39.992305" lon="8.464925"><ele>9.666666666666668</ele><time>2026-04-20T12:22:29.775Z</time></trkpt><trkpt lat="39.99236" lon="8.4651567"><ele>10.0</ele><time>2026-04-20T12:22:30.775Z</time></trkpt><trkpt lat="39.99241" lon="8.4653833"><ele>10.0</ele><time>2026-04-20T12:22:31.776Z</time></trkpt><trkpt lat="39.9924617" lon="8.465605"><ele>10.0</ele><time>2026-04-20T12:22:32.776Z</time></trkpt><trkpt lat="39.99252" lon="8.46583"><ele>10.0</ele><time>2026-04-20T12:22:33.775Z</time></trkpt><trkpt lat="39.9925833" lon="8.4660583"><ele>10.0</ele><time>2026-04-20T12:22:34.775Z</time></trkpt><trkpt lat="39.9926467" lon="8.4662917"><ele>10.0</ele><time>2026-04-20T12:22:35.775Z</time></trkpt><trkpt lat="39.9927067" lon="8.46653"><ele>10.0</ele><time>2026-04-20T12:22:36.775Z</time></trkpt><trkpt lat="39.9927683" lon="8.4667633"><ele>10.0</ele><time>2026-04-20T12:22:37.776Z</time></trkpt><trkpt lat="39.9928867" lon="8.4672317"><ele>10.0</ele><time>2026-04-20T12:22:39.775Z</time></trkpt><trkpt lat="39.9929517" lon="8.4674533"><ele>10.0</ele><time>2026-04-20T12:22:40.776Z</time></trkpt><trkpt lat="39.99301" lon="8.4676733"><ele>10.0</ele><time>2026-04-20T12:22:41.775Z</time></trkpt><trkpt lat="39.9930733" lon="8.4678833"><ele>10.0</ele><time>2026-04-20T12:22:42.775Z</time></trkpt><trkpt lat="39.99314" lon="8.4680983"><ele>10.0</ele><time>2026-04-20T12:22:43.775Z</time></trkpt><trkpt lat="39.993205" lon="8.4683183"><ele>10.0</ele><time>2026-04-20T12:22:44.775Z</time></trkpt><trkpt lat="39.9932767" lon="8.4685383"><ele>10.0</ele><time>2026-04-20T12:22:45.775Z</time></trkpt><trkpt lat="39.9933433" lon="8.46876"><ele>10.333333333333334</ele><time>2026-04-20T12:22:46.775Z</time></trkpt><trkpt lat="39.9934067" lon="8.4689883"><ele>10.666666666666666</ele><time>2026-04-20T12:22:47.775Z</time></trkpt><trkpt lat="39.9934833" lon="8.469215"><ele>11.0</ele><time>2026-04-20T12:22:48.775Z</time></trkpt><trkpt lat="39.9935533" lon="8.4694417"><ele>10.333333333333332</ele><time>2026-04-20T12:22:49.775Z</time></trkpt><trkpt lat="39.993615" lon="8.4696767"><ele>9.666666666666666</ele><time>2026-04-20T12:22:50.775Z</time></trkpt><trkpt lat="39.99368" lon="8.4699133"><ele>9.0</ele><time>2026-04-20T12:22:51.776Z</time></trkpt><trkpt lat="39.993745" lon="8.470145"><ele>9.0</ele><time>2026-04-20T12:22:52.775Z</time></trkpt><trkpt lat="39.9938133" lon="8.47037"><ele>9.0</ele><time>2026-04-20T12:22:53.775Z</time></trkpt><trkpt lat="39.99388" lon="8.47059"><ele>9.0</ele><time>2026-04-20T12:22:54.775Z</time></trkpt><trkpt lat="39.9939517" lon="8.4708167"><ele>8.333333333333334</ele><time>2026-04-20T12:22:55.775Z</time></trkpt><trkpt lat="39.9940217" lon="8.471035"><ele>7.666666666666667</ele><time>2026-04-20T12:22:56.775Z</time></trkpt><trkpt lat="39.9940883" lon="8.4712567"><ele>7.0</ele><time>2026-04-20T12:22:57.775Z</time></trkpt><trkpt lat="39.9941533" lon="8.47148"><ele>8.0</ele><time>2026-04-20T12:22:58.775Z</time></trkpt><trkpt lat="39.9942717" lon="8.4719367"><ele>9.0</ele><time>2026-04-20T12:23:00.775Z</time></trkpt><trkpt lat="39.9943183" lon="8.4721683"><ele>9.333333333333334</ele><time>2026-04-20T12:23:01.775Z</time></trkpt><trkpt lat="39.9943583" lon="8.472395"><ele>9.666666666666668</ele><time>2026-04-20T12:23:02.775Z</time></trkpt><trkpt lat="39.9943983" lon="8.4726217"><ele>10.0</ele><time>2026-04-20T12:23:03.775Z</time></trkpt><trkpt lat="39.99444" lon="8.4728533"><ele>10.0</ele><time>2026-04-20T12:23:04.776Z</time></trkpt><trkpt lat="39.9944833" lon="8.4730917"><ele>10.0</ele><time>2026-04-20T12:23:05.775Z</time></trkpt><trkpt lat="39.9945333" lon="8.4733267"><ele>10.0</ele><time>2026-04-20T12:23:06.776Z</time></trkpt><trkpt lat="39.9945917" lon="8.4735583"><ele>9.333333333333334</ele><time>2026-04-20T12:23:07.775Z</time></trkpt><trkpt lat="39.9946717" lon="8.47379"><ele>8.666666666666666</ele><time>2026-04-20T12:23:08.776Z</time></trkpt><trkpt lat="39.9947583" lon="8.47402"><ele>8.0</ele><time>2026-04-20T12:23:09.775Z</time></trkpt><trkpt lat="39.99485" lon="8.4742467"><ele>8.0</ele><time>2026-04-20T12:23:10.775Z</time></trkpt><trkpt lat="39.99494" lon="8.4744767"><ele>8.0</ele><time>2026-04-20T12:23:11.776Z</time></trkpt><trkpt lat="39.9950333" lon="8.4747"><ele>8.0</ele><time>2026-04-20T12:23:12.775Z</time></trkpt><trkpt lat="39.9951283" lon="8.4749283"><ele>8.666666666666666</ele><time>2026-04-20T12:23:13.775Z</time></trkpt><trkpt lat="39.995225" lon="8.4751567"><ele>9.333333333333334</ele><time>2026-04-20T12:23:14.775Z</time></trkpt><trkpt lat="39.9953233" lon="8.4753883"><ele>10.0</ele><time>2026-04-20T12:23:15.775Z</time></trkpt><trkpt lat="39.9954083" lon="8.47562"><ele>10.0</ele><time>2026-04-20T12:23:16.775Z</time></trkpt><trkpt lat="39.9954917" lon="8.47586"><ele>10.0</ele><time>2026-04-20T12:23:17.776Z</time></trkpt><trkpt lat="39.9955683" lon="8.4761017"><ele>10.0</ele><time>2026-04-20T12:23:18.775Z</time></trkpt><trkpt lat="39.9956367" lon="8.4763483"><ele>10.0</ele><time>2026-04-20T12:23:19.775Z</time></trkpt><trkpt lat="39.9957733" lon="8.4768633"><ele>10.0</ele><time>2026-04-20T12:23:21.775Z</time></trkpt><trkpt lat="39.9958417" lon="8.477115"><ele>10.0</ele><time>2026-04-20T12:23:22.775Z</time></trkpt><trkpt lat="39.99592" lon="8.4773733"><ele>10.0</ele><time>2026-04-20T12:23:23.775Z</time></trkpt><trkpt lat="39.995995" lon="8.4776333"><ele>10.0</ele><time>2026-04-20T12:23:24.775Z</time></trkpt><trkpt lat="39.9960683" lon="8.47789"><ele>9.666666666666668</ele><time>2026-04-20T12:23:25.775Z</time></trkpt><trkpt lat="39.99614" lon="8.4781433"><ele>9.333333333333334</ele><time>2026-04-20T12:23:26.775Z</time></trkpt><trkpt lat="39.9962083" lon="8.4784"><ele>9.0</ele><time>2026-04-20T12:23:27.775Z</time></trkpt><trkpt lat="39.99628" lon="8.47865"><ele>9.0</ele><time>2026-04-20T12:23:28.775Z</time></trkpt><trkpt lat="39.9963567" lon="8.4789067"><ele>9.0</ele><time>2026-04-20T12:23:29.775Z</time></trkpt><trkpt lat="39.9964317" lon="8.4791683"><ele>9.0</ele><time>2026-04-20T12:23:30.775Z</time></trkpt><trkpt lat="39.9965033" lon="8.47942"><ele>9.0</ele><time>2026-04-20T12:23:31.775Z</time></trkpt><trkpt lat="39.9965767" lon="8.47967"><ele>9.0</ele><time>2026-04-20T12:23:32.775Z</time></trkpt><trkpt lat="39.9966483" lon="8.4799233"><ele>9.0</ele><time>2026-04-20T12:23:33.775Z</time></trkpt><trkpt lat="39.9967217" lon="8.4801817"><ele>8.333333333333334</ele><time>2026-04-20T12:23:34.775Z</time></trkpt><trkpt lat="39.9967883" lon="8.480435"><ele>7.666666666666667</ele><time>2026-04-20T12:23:35.776Z</time></trkpt><trkpt lat="39.9968567" lon="8.48069"><ele>7.0</ele><time>2026-04-20T12:23:36.775Z</time></trkpt><trkpt lat="39.9969267" lon="8.4809533"><ele>7.0</ele><time>2026-04-20T12:23:37.776Z</time></trkpt><trkpt lat="39.9969983" lon="8.4812183"><ele>7.0</ele><time>2026-04-20T12:23:38.775Z</time></trkpt><trkpt lat="39.997065" lon="8.481485"><ele>7.0</ele><time>2026-04-20T12:23:39.775Z</time></trkpt><trkpt lat="39.9971333" lon="8.48176"><ele>7.5</ele><time>2026-04-20T12:23:40.775Z</time></trkpt><trkpt lat="39.99724" lon="8.4823067"><ele>8.0</ele><time>2026-04-20T12:23:42.775Z</time></trkpt><trkpt lat="39.9972817" lon="8.4825917"><ele>8.0</ele><time>2026-04-20T12:23:43.775Z</time></trkpt><trkpt lat="39.9973233" lon="8.4828767"><ele>8.0</ele><time>2026-04-20T12:23:44.775Z</time></trkpt><trkpt lat="39.99736" lon="8.4831617"><ele>8.0</ele><time>2026-04-20T12:23:45.775Z</time></trkpt><trkpt lat="39.9974" lon="8.48345"><ele>8.333333333333332</ele><time>2026-04-20T12:23:46.776Z</time></trkpt><trkpt lat="39.99744" lon="8.48373"><ele>8.666666666666666</ele><time>2026-04-20T12:23:47.776Z</time></trkpt><trkpt lat="39.9974817" lon="8.484005"><ele>9.0</ele><time>2026-04-20T12:23:48.775Z</time></trkpt><trkpt lat="39.99752" lon="8.484285"><ele>9.0</ele><time>2026-04-20T12:23:49.775Z</time></trkpt><trkpt lat="39.997565" lon="8.4845683"><ele>9.0</ele><time>2026-04-20T12:23:50.775Z</time></trkpt><trkpt lat="39.9976083" lon="8.4848483"><ele>9.0</ele><time>2026-04-20T12:23:51.775Z</time></trkpt><trkpt lat="39.9976533" lon="8.4851267"><ele>9.333333333333334</ele><time>2026-04-20T12:23:52.775Z</time></trkpt><trkpt lat="39.9976967" lon="8.4854017"><ele>9.666666666666668</ele><time>2026-04-20T12:23:53.775Z</time></trkpt><trkpt lat="39.997735" lon="8.4856717"><ele>10.0</ele><time>2026-04-20T12:23:54.775Z</time></trkpt><trkpt lat="39.9977767" lon="8.485945"><ele>10.0</ele><time>2026-04-20T12:23:55.775Z</time></trkpt><trkpt lat="39.99783" lon="8.4862183"><ele>10.0</ele><time>2026-04-20T12:23:56.775Z</time></trkpt><trkpt lat="39.9978717" lon="8.4864967"><ele>10.0</ele><time>2026-04-20T12:23:57.776Z</time></trkpt><trkpt lat="39.9979083" lon="8.486775"><ele>10.0</ele><time>2026-04-20T12:23:58.775Z</time></trkpt><trkpt lat="39.9979533" lon="8.4870583"><ele>10.0</ele><time>2026-04-20T12:23:59.775Z</time></trkpt><trkpt lat="39.9979967" lon="8.487335"><ele>10.0</ele><time>2026-04-20T12:24:00.775Z</time></trkpt><trkpt lat="39.9980383" lon="8.4876067"><ele>10.5</ele><time>2026-04-20T12:24:01.775Z</time></trkpt><trkpt lat="39.9981183" lon="8.4881433"><ele>11.0</ele><time>2026-04-20T12:24:03.775Z</time></trkpt><trkpt lat="39.9981583" lon="8.4884133"><ele>11.0</ele><time>2026-04-20T12:24:04.775Z</time></trkpt><trkpt lat="39.9981917" lon="8.4886817"><ele>11.0</ele><time>2026-04-20T12:24:05.775Z</time></trkpt><trkpt lat="39.9982283" lon="8.4889483"><ele>11.0</ele><time>2026-04-20T12:24:06.775Z</time></trkpt><trkpt lat="39.9982583" lon="8.4892183"><ele>11.0</ele><time>2026-04-20T12:24:07.775Z</time></trkpt><trkpt lat="39.9982733" lon="8.4894883"><ele>11.0</ele><time>2026-04-20T12:24:08.776Z</time></trkpt><trkpt lat="39.9982833" lon="8.4897583"><ele>11.0</ele><time>2026-04-20T12:24:09.776Z</time></trkpt><trkpt lat="39.9982833" lon="8.490035"><ele>11.0</ele><time>2026-04-20T12:24:10.775Z</time></trkpt><trkpt lat="39.9982717" lon="8.490315"><ele>11.0</ele><time>2026-04-20T12:24:11.775Z</time></trkpt><trkpt lat="39.9982583" lon="8.4906"><ele>11.0</ele><time>2026-04-20T12:24:12.775Z</time></trkpt><trkpt lat="39.9982433" lon="8.4908867"><ele>10.333333333333332</ele><time>2026-04-20T12:24:13.775Z</time></trkpt><trkpt lat="39.9982267" lon="8.491165"><ele>9.666666666666666</ele><time>2026-04-20T12:24:14.775Z</time></trkpt><trkpt lat="39.998205" lon="8.491445"><ele>9.0</ele><time>2026-04-20T12:24:15.775Z</time></trkpt><trkpt lat="39.998185" lon="8.49172"><ele>9.0</ele><time>2026-04-20T12:24:16.775Z</time></trkpt><trkpt lat="39.9981717" lon="8.4919983"><ele>9.0</ele><time>2026-04-20T12:24:17.776Z</time></trkpt><trkpt lat="39.9981583" lon="8.49227"><ele>9.0</ele><time>2026-04-20T12:24:18.775Z</time></trkpt><trkpt lat="39.9981383" lon="8.492535"><ele>8.333333333333334</ele><time>2026-04-20T12:24:19.775Z</time></trkpt><trkpt lat="39.9981217" lon="8.492795"><ele>7.666666666666667</ele><time>2026-04-20T12:24:20.775Z</time></trkpt><trkpt lat="39.9981133" lon="8.4930517"><ele>7.0</ele><time>2026-04-20T12:24:21.775Z</time></trkpt><trkpt lat="39.998115" lon="8.4933133"><ele>7.0</ele><time>2026-04-20T12:24:22.775Z</time></trkpt><trkpt lat="39.9981417" lon="8.4938433"><ele>7.0</ele><time>2026-04-20T12:24:24.775Z</time></trkpt><trkpt lat="39.9981667" lon="8.4941083"><ele>7.0</ele><time>2026-04-20T12:24:25.775Z</time></trkpt><trkpt lat="39.9981933" lon="8.49437"><ele>7.0</ele><time>2026-04-20T12:24:26.775Z</time></trkpt><trkpt lat="39.9982167" lon="8.494635"><ele>7.0</ele><time>2026-04-20T12:24:27.775Z</time></trkpt><trkpt lat="39.9982433" lon="8.4948967"><ele>6.666666666666667</ele><time>2026-04-20T12:24:28.775Z</time></trkpt><trkpt lat="39.9982683" lon="8.4951517"><ele>6.333333333333334</ele><time>2026-04-20T12:24:29.775Z</time></trkpt><trkpt lat="39.9982917" lon="8.495415"><ele>6.0</ele><time>2026-04-20T12:24:30.775Z</time></trkpt><trkpt lat="39.9983133" lon="8.4956767"><ele>6.0</ele><time>2026-04-20T12:24:31.775Z</time></trkpt><trkpt lat="39.9983317" lon="8.4959383"><ele>6.0</ele><time>2026-04-20T12:24:32.776Z</time></trkpt><trkpt lat="39.9983517" lon="8.4961967"><ele>6.0</ele><time>2026-04-20T12:24:33.775Z</time></trkpt><trkpt lat="39.99838" lon="8.4964517"><ele>5.666666666666667</ele><time>2026-04-20T12:24:34.775Z</time></trkpt><trkpt lat="39.998405" lon="8.496715"><ele>5.333333333333334</ele><time>2026-04-20T12:24:35.775Z</time></trkpt><trkpt lat="39.998435" lon="8.4969783"><ele>5.0</ele><time>2026-04-20T12:24:36.775Z</time></trkpt><trkpt lat="39.9984567" lon="8.497245"><ele>5.0</ele><time>2026-04-20T12:24:37.775Z</time></trkpt><trkpt lat="39.998485" lon="8.4975133"><ele>5.0</ele><time>2026-04-20T12:24:38.775Z</time></trkpt><trkpt lat="39.9985133" lon="8.4977833"><ele>5.0</ele><time>2026-04-20T12:24:39.775Z</time></trkpt><trkpt lat="39.9985417" lon="8.498045"><ele>4.666666666666667</ele><time>2026-04-20T12:24:40.775Z</time></trkpt><trkpt lat="39.9985667" lon="8.4983017"><ele>4.333333333333333</ele><time>2026-04-20T12:24:41.775Z</time></trkpt><trkpt lat="39.9985967" lon="8.4985667"><ele>4.0</ele><time>2026-04-20T12:24:42.775Z</time></trkpt><trkpt lat="39.9986217" lon="8.4988267"><ele>4.0</ele><time>2026-04-20T12:24:43.775Z</time></trkpt><trkpt lat="39.99869" lon="8.4993317"><ele>4.0</ele><time>2026-04-20T12:24:45.775Z</time></trkpt><trkpt lat="39.9987467" lon="8.49957"><ele>4.0</ele><time>2026-04-20T12:24:46.775Z</time></trkpt><trkpt lat="39.99881" lon="8.4998033"><ele>4.0</ele><time>2026-04-20T12:24:47.775Z</time></trkpt><trkpt lat="39.9988817" lon="8.500035"><ele>4.0</ele><time>2026-04-20T12:24:48.775Z</time></trkpt><trkpt lat="39.9989617" lon="8.5002667"><ele>4.0</ele><time>2026-04-20T12:24:49.775Z</time></trkpt><trkpt lat="39.99904" lon="8.5005067"><ele>4.0</ele><time>2026-04-20T12:24:50.775Z</time></trkpt><trkpt lat="39.99912" lon="8.50075"><ele>4.0</ele><time>2026-04-20T12:24:51.775Z</time></trkpt><trkpt lat="39.9991967" lon="8.5009883"><ele>4.0</ele><time>2026-04-20T12:24:52.775Z</time></trkpt><trkpt lat="39.99927" lon="8.50123"><ele>4.0</ele><time>2026-04-20T12:24:53.775Z</time></trkpt><trkpt lat="39.99934" lon="8.5014617"><ele>4.0</ele><time>2026-04-20T12:24:54.775Z</time></trkpt><trkpt lat="39.9994117" lon="8.501685"><ele>3.333333333333333</ele><time>2026-04-20T12:24:55.775Z</time></trkpt><trkpt lat="39.9994817" lon="8.5019067"><ele>2.6666666666666665</ele><time>2026-04-20T12:24:56.775Z</time></trkpt><trkpt lat="39.999565" lon="8.502135"><ele>2.0</ele><time>2026-04-20T12:24:57.775Z</time></trkpt><trkpt lat="39.9996533" lon="8.5023517"><ele>2.0</ele><time>2026-04-20T12:24:58.775Z</time></trkpt><trkpt lat="39.9997483" lon="8.5025633"><ele>2.0</ele><time>2026-04-20T12:24:59.776Z</time></trkpt><trkpt lat="39.9998433" lon="8.5027567"><ele>2.0</ele><time>2026-04-20T12:25:00.775Z</time></trkpt><trkpt lat="39.9999483" lon="8.502945"><ele>1.6666666666666665</ele><time>2026-04-20T12:25:01.775Z</time></trkpt><trkpt lat="40.0000567" lon="8.50313"><ele>1.3333333333333333</ele><time>2026-04-20T12:25:02.775Z</time></trkpt><trkpt lat="40.00017" lon="8.5033133"><ele>1.0</ele><time>2026-04-20T12:25:03.775Z</time></trkpt><trkpt lat="40.0002783" lon="8.5034933"><ele>1.5</ele><time>2026-04-20T12:25:04.775Z</time></trkpt><trkpt lat="40.0004417" lon="8.5038833"><ele>2.0</ele><time>2026-04-20T12:25:06.775Z</time></trkpt><trkpt lat="40.0004883" lon="8.504075"><ele>2.0</ele><time>2026-04-20T12:25:07.775Z</time></trkpt><trkpt lat="40.0005217" lon="8.5042733"><ele>2.0</ele><time>2026-04-20T12:25:08.775Z</time></trkpt><trkpt lat="40.00052" lon="8.5044833"><ele>2.0</ele><time>2026-04-20T12:25:09.775Z</time></trkpt><trkpt lat="40.000515" lon="8.5047017"><ele>2.333333333333333</ele><time>2026-04-20T12:25:10.775Z</time></trkpt><trkpt lat="40.0005017" lon="8.50493"><ele>2.6666666666666665</ele><time>2026-04-20T12:25:11.775Z</time></trkpt><trkpt lat="40.00049" lon="8.5051583"><ele>3.0</ele><time>2026-04-20T12:25:12.775Z</time></trkpt><trkpt lat="40.00048" lon="8.50539"><ele>2.6666666666666665</ele><time>2026-04-20T12:25:13.775Z</time></trkpt><trkpt lat="40.000465" lon="8.5056333"><ele>2.333333333333333</ele><time>2026-04-20T12:25:14.775Z</time></trkpt><trkpt lat="40.0004517" lon="8.5058817"><ele>2.0</ele><time>2026-04-20T12:25:15.775Z</time></trkpt><trkpt lat="40.0004367" lon="8.5061383"><ele>1.6666666666666665</ele><time>2026-04-20T12:25:16.775Z</time></trkpt><trkpt lat="40.0004267" lon="8.5064017"><ele>1.3333333333333333</ele><time>2026-04-20T12:25:17.776Z</time></trkpt><trkpt lat="40.000405" lon="8.506665"><ele>1.0</ele><time>2026-04-20T12:25:18.775Z</time></trkpt><trkpt lat="40.00039" lon="8.506925"><ele>1.0</ele><time>2026-04-20T12:25:19.775Z</time></trkpt><trkpt lat="40.0003833" lon="8.5071933"><ele>1.0</ele><time>2026-04-20T12:25:20.775Z</time></trkpt><trkpt lat="40.0003783" lon="8.507465"><ele>1.0</ele><time>2026-04-20T12:25:21.775Z</time></trkpt><trkpt lat="40.00038" lon="8.507735"><ele>2.0</ele><time>2026-04-20T12:25:22.775Z</time></trkpt><trkpt lat="40.0003883" lon="8.5080083"><ele>3.0</ele><time>2026-04-20T12:25:23.775Z</time></trkpt><trkpt lat="40.000405" lon="8.5082683"><ele>4.0</ele><time>2026-04-20T12:25:24.775Z</time></trkpt><trkpt lat="40.000415" lon="8.5085283"><ele>4.5</ele><time>2026-04-20T12:25:25.775Z</time></trkpt><trkpt lat="40.0004283" lon="8.5090567"><ele>5.0</ele><time>2026-04-20T12:25:27.775Z</time></trkpt><trkpt lat="40.0004417" lon="8.5093133"><ele>5.0</ele><time>2026-04-20T12:25:28.775Z</time></trkpt><trkpt lat="40.00046" lon="8.5095667"><ele>5.0</ele><time>2026-04-20T12:25:29.775Z</time></trkpt><trkpt lat="40.0004733" lon="8.5098383"><ele>5.0</ele><time>2026-04-20T12:25:30.776Z</time></trkpt><trkpt lat="40.00049" lon="8.5100933"><ele>4.0</ele><time>2026-04-20T12:25:31.776Z</time></trkpt><trkpt lat="40.0005067" lon="8.5103483"><ele>3.0</ele><time>2026-04-20T12:25:32.775Z</time></trkpt><trkpt lat="40.0005217" lon="8.510615"><ele>2.0</ele><time>2026-04-20T12:25:33.775Z</time></trkpt><trkpt lat="40.0005417" lon="8.5108767"><ele>2.0</ele><time>2026-04-20T12:25:34.775Z</time></trkpt><trkpt lat="40.0005667" lon="8.5111367"><ele>2.0</ele><time>2026-04-20T12:25:35.775Z</time></trkpt><trkpt lat="40.0005917" lon="8.5114017"><ele>2.0</ele><time>2026-04-20T12:25:36.775Z</time></trkpt><trkpt lat="40.00062" lon="8.51166"><ele>2.0</ele><time>2026-04-20T12:25:37.775Z</time></trkpt><trkpt lat="40.0006533" lon="8.5119167"><ele>2.0</ele><time>2026-04-20T12:25:38.775Z</time></trkpt><trkpt lat="40.000685" lon="8.5121683"><ele>2.0</ele><time>2026-04-20T12:25:39.775Z</time></trkpt><trkpt lat="40.000715" lon="8.512425"><ele>2.333333333333333</ele><time>2026-04-20T12:25:40.775Z</time></trkpt><trkpt lat="40.0007533" lon="8.512675"><ele>2.6666666666666665</ele><time>2026-04-20T12:25:41.775Z</time></trkpt><trkpt lat="40.00079" lon="8.512925"><ele>3.0</ele><time>2026-04-20T12:25:42.775Z</time></trkpt><trkpt lat="40.0008183" lon="8.5131767"><ele>3.333333333333333</ele><time>2026-04-20T12:25:43.775Z</time></trkpt><trkpt lat="40.000845" lon="8.5134267"><ele>3.6666666666666665</ele><time>2026-04-20T12:25:44.775Z</time></trkpt><trkpt lat="40.0008767" lon="8.5136783"><ele>4.0</ele><time>2026-04-20T12:25:45.775Z</time></trkpt><trkpt lat="40.0009083" lon="8.51393"><ele>3.0</ele><time>2026-04-20T12:25:46.776Z</time></trkpt><trkpt lat="40.0009617" lon="8.5143817"><ele>2.0</ele><time>2026-04-20T12:25:48.775Z</time></trkpt><trkpt lat="40.0009883" lon="8.514585"><ele>2.0</ele><time>2026-04-20T12:25:49.775Z</time></trkpt><trkpt lat="40.0010083" lon="8.514785"><ele>2.0</ele><time>2026-04-20T12:25:50.775Z</time></trkpt><trkpt lat="40.0010267" lon="8.5149833"><ele>2.0</ele><time>2026-04-20T12:25:51.776Z</time></trkpt><trkpt lat="40.0010283" lon="8.51518"><ele>2.0</ele><time>2026-04-20T12:25:52.775Z</time></trkpt><trkpt lat="40.001025" lon="8.5153833"><ele>2.0</ele><time>2026-04-20T12:25:53.775Z</time></trkpt><trkpt lat="40.0010133" lon="8.515585"><ele>2.0</ele><time>2026-04-20T12:25:54.776Z</time></trkpt><trkpt lat="40.00101" lon="8.51577"><ele>2.0</ele><time>2026-04-20T12:25:55.775Z</time></trkpt><trkpt lat="40.001005" lon="8.5159467"><ele>2.0</ele><time>2026-04-20T12:25:56.775Z</time></trkpt><trkpt lat="40.0009967" lon="8.5161283"><ele>2.0</ele><time>2026-04-20T12:25:57.775Z</time></trkpt><trkpt lat="40.0009917" lon="8.5163167"><ele>2.0</ele><time>2026-04-20T12:25:58.775Z</time></trkpt><trkpt lat="40.0009883" lon="8.516495"><ele>2.0</ele><time>2026-04-20T12:25:59.776Z</time></trkpt><trkpt lat="40.0009883" lon="8.5166733"><ele>2.0</ele><time>2026-04-20T12:26:00.775Z</time></trkpt><trkpt lat="40.000985" lon="8.516855"><ele>2.0</ele><time>2026-04-20T12:26:01.775Z</time></trkpt><trkpt lat="40.0009817" lon="8.5170383"><ele>2.0</ele><time>2026-04-20T12:26:02.775Z</time></trkpt><trkpt lat="40.0009717" lon="8.5172233"><ele>2.0</ele><time>2026-04-20T12:26:03.775Z</time></trkpt><trkpt lat="40.0009583" lon="8.5174133"><ele>2.0</ele><time>2026-04-20T12:26:04.775Z</time></trkpt><trkpt lat="40.0009283" lon="8.51761"><ele>2.0</ele><time>2026-04-20T12:26:05.775Z</time></trkpt><trkpt lat="40.0008983" lon="8.5178117"><ele>2.0</ele><time>2026-04-20T12:26:06.775Z</time></trkpt><trkpt lat="40.0008633" lon="8.51802"><ele>2.0</ele><time>2026-04-20T12:26:07.775Z</time></trkpt><trkpt lat="40.0007633" lon="8.5184617"><ele>2.333333333333333</ele><time>2026-04-20T12:26:09.776Z</time></trkpt><trkpt lat="40.0007117" lon="8.5186967"><ele>2.6666666666666665</ele><time>2026-04-20T12:26:10.776Z</time></trkpt><trkpt lat="40.0006667" lon="8.51893"><ele>3.0</ele><time>2026-04-20T12:26:11.775Z</time></trkpt><trkpt lat="40.0006317" lon="8.519165"><ele>3.333333333333333</ele><time>2026-04-20T12:26:12.775Z</time></trkpt><trkpt lat="40.00061" lon="8.51939"><ele>3.6666666666666665</ele><time>2026-04-20T12:26:13.775Z</time></trkpt><trkpt lat="40.000615" lon="8.5196383"><ele>4.0</ele><time>2026-04-20T12:26:14.775Z</time></trkpt><trkpt lat="40.0006433" lon="8.5198917"><ele>4.0</ele><time>2026-04-20T12:26:15.775Z</time></trkpt><trkpt lat="40.000665" lon="8.5201533"><ele>4.0</ele><time>2026-04-20T12:26:16.775Z</time></trkpt><trkpt lat="40.0006867" lon="8.52042"><ele>4.0</ele><time>2026-04-20T12:26:17.775Z</time></trkpt><trkpt lat="40.000715" lon="8.5206967"><ele>4.0</ele><time>2026-04-20T12:26:18.776Z</time></trkpt><trkpt lat="40.0007333" lon="8.52097"><ele>4.0</ele><time>2026-04-20T12:26:19.775Z</time></trkpt><trkpt lat="40.0007533" lon="8.5212467"><ele>4.0</ele><time>2026-04-20T12:26:20.775Z</time></trkpt><trkpt lat="40.0007683" lon="8.5215417"><ele>4.0</ele><time>2026-04-20T12:26:21.775Z</time></trkpt><trkpt lat="40.0007767" lon="8.5218317"><ele>4.0</ele><time>2026-04-20T12:26:22.775Z</time></trkpt><trkpt lat="40.0007917" lon="8.5220883"><ele>4.0</ele><time>2026-04-20T12:26:23.775Z</time></trkpt><trkpt lat="40.00081" lon="8.5223183"><ele>4.0</ele><time>2026-04-20T12:26:24.775Z</time></trkpt><trkpt lat="40.0008283" lon="8.52253"><ele>4.0</ele><time>2026-04-20T12:26:25.776Z</time></trkpt><trkpt lat="40.00085" lon="8.522725"><ele>4.0</ele><time>2026-04-20T12:26:26.775Z</time></trkpt><trkpt lat="40.00086" lon="8.5229017"><ele>4.0</ele><time>2026-04-20T12:26:27.775Z</time></trkpt><trkpt lat="40.00087" lon="8.5230667"><ele>4.0</ele><time>2026-04-20T12:26:28.775Z</time></trkpt><trkpt lat="40.0008967" lon="8.5233483"><ele>4.0</ele><time>2026-04-20T12:26:30.775Z</time></trkpt><trkpt lat="40.0009" lon="8.5234683"><ele>4.0</ele><time>2026-04-20T12:26:31.775Z</time></trkpt><trkpt lat="40.0009017" lon="8.52357"><ele>4.0</ele><time>2026-04-20T12:26:32.775Z</time></trkpt><trkpt lat="40.0009117" lon="8.52372"><ele>4.0</ele><time>2026-04-20T12:26:34.775Z</time></trkpt><trkpt lat="40.0009367" lon="8.5237983"><ele>4.0</ele><time>2026-04-20T12:27:36.775Z</time></trkpt><trkpt lat="40.000965" lon="8.52406"><ele>4.0</ele><time>2026-04-20T12:46:43.773Z</time></trkpt><trkpt lat="40.0009617" lon="8.5241517"><ele>3.9999999999999996</ele><time>2026-04-20T12:46:44.773Z</time></trkpt><trkpt lat="40.00097" lon="8.5242483"><ele>4.0</ele><time>2026-04-20T12:46:45.773Z</time></trkpt><trkpt lat="40.0009783" lon="8.5243483"><ele>4.0</ele><time>2026-04-20T12:46:46.773Z</time></trkpt><trkpt lat="40.0009917" lon="8.524455"><ele>4.0</ele><time>2026-04-20T12:46:47.773Z</time></trkpt><trkpt lat="40.0010033" lon="8.52456"><ele>3.9999999999999996</ele><time>2026-04-20T12:46:48.773Z</time></trkpt><trkpt lat="40.001015" lon="8.5246717"><ele>4.0</ele><time>2026-04-20T12:46:49.773Z</time></trkpt><trkpt lat="40.001025" lon="8.5247917"><ele>4.0</ele><time>2026-04-20T12:46:50.773Z</time></trkpt><trkpt lat="40.0010317" lon="8.524915"><ele>4.0</ele><time>2026-04-20T12:46:51.773Z</time></trkpt><trkpt lat="40.0010367" lon="8.5250383"><ele>4.0</ele><time>2026-04-20T12:46:52.773Z</time></trkpt><trkpt lat="40.0010467" lon="8.5251583"><ele>4.0</ele><time>2026-04-20T12:46:53.774Z</time></trkpt><trkpt lat="40.0010567" lon="8.525275"><ele>4.0</ele><time>2026-04-20T12:46:54.773Z</time></trkpt><trkpt lat="40.00106" lon="8.525395"><ele>3.8000000000000003</ele><time>2026-04-20T12:46:55.773Z</time></trkpt><trkpt lat="40.0010667" lon="8.525515"><ele>3.6000000000000005</ele><time>2026-04-20T12:46:56.773Z</time></trkpt><trkpt lat="40.0010733" lon="8.525635"><ele>3.4</ele><time>2026-04-20T12:46:57.774Z</time></trkpt><trkpt lat="40.00108" lon="8.5257583"><ele>3.2</ele><time>2026-04-20T12:46:58.774Z</time></trkpt><trkpt lat="40.0010883" lon="8.5258933"><ele>3.0</ele><time>2026-04-20T12:46:59.773Z</time></trkpt><trkpt lat="40.0010967" lon="8.5260217"><ele>3.0</ele><time>2026-04-20T12:47:00.773Z</time></trkpt><trkpt lat="40.0011083" lon="8.5261583"><ele>3.0</ele><time>2026-04-20T12:47:01.774Z</time></trkpt><trkpt lat="40.0011367" lon="8.5264233"><ele>3.0</ele><time>2026-04-20T12:47:03.773Z</time></trkpt><trkpt lat="40.001155" lon="8.526555"><ele>3.0</ele><time>2026-04-20T12:47:04.773Z</time></trkpt><trkpt lat="40.00118" lon="8.5266933"><ele>3.0</ele><time>2026-04-20T12:47:05.773Z</time></trkpt><trkpt lat="40.0012" lon="8.5268283"><ele>3.0</ele><time>2026-04-20T12:47:06.773Z</time></trkpt><trkpt lat="40.0012217" lon="8.52696"><ele>3.0</ele><time>2026-04-20T12:47:07.773Z</time></trkpt><trkpt lat="40.001245" lon="8.5270983"><ele>3.0</ele><time>2026-04-20T12:47:08.773Z</time></trkpt><trkpt lat="40.001265" lon="8.527235"><ele>3.0</ele><time>2026-04-20T12:47:09.773Z</time></trkpt><trkpt lat="40.001285" lon="8.52737"><ele>3.2</ele><time>2026-04-20T12:47:10.773Z</time></trkpt><trkpt lat="40.0013067" lon="8.527505"><ele>3.4</ele><time>2026-04-20T12:47:11.773Z</time></trkpt><trkpt lat="40.0013317" lon="8.5276417"><ele>3.6000000000000005</ele><time>2026-04-20T12:47:12.773Z</time></trkpt><trkpt lat="40.0013533" lon="8.5277767"><ele>3.8000000000000003</ele><time>2026-04-20T12:47:13.773Z</time></trkpt><trkpt lat="40.0013767" lon="8.52792"><ele>4.0</ele><time>2026-04-20T12:47:14.773Z</time></trkpt><trkpt lat="40.0014033" lon="8.5280617"><ele>4.0</ele><time>2026-04-20T12:47:15.773Z</time></trkpt><trkpt lat="40.0014333" lon="8.5282"><ele>4.0</ele><time>2026-04-20T12:47:16.774Z</time></trkpt><trkpt lat="40.0014617" lon="8.52834"><ele>4.0</ele><time>2026-04-20T12:47:17.773Z</time></trkpt><trkpt lat="40.0014917" lon="8.528485"><ele>4.0</ele><time>2026-04-20T12:47:18.774Z</time></trkpt><trkpt lat="40.0015233" lon="8.52863"><ele>4.0</ele><time>2026-04-20T12:47:19.773Z</time></trkpt><trkpt lat="40.001555" lon="8.52877"><ele>4.0</ele><time>2026-04-20T12:47:20.773Z</time></trkpt><trkpt lat="40.0015933" lon="8.528915"><ele>4.0</ele><time>2026-04-20T12:47:21.773Z</time></trkpt><trkpt lat="40.0016317" lon="8.5290517"><ele>4.0</ele><time>2026-04-20T12:47:22.773Z</time></trkpt><trkpt lat="40.0017117" lon="8.5293233"><ele>4.25</ele><time>2026-04-20T12:47:24.773Z</time></trkpt><trkpt lat="40.0017583" lon="8.529465"><ele>4.5</ele><time>2026-04-20T12:47:25.773Z</time></trkpt><trkpt lat="40.00181" lon="8.5295983"><ele>4.75</ele><time>2026-04-20T12:47:26.773Z</time></trkpt><trkpt lat="40.0018567" lon="8.529735"><ele>5.0</ele><time>2026-04-20T12:47:27.773Z</time></trkpt><trkpt lat="40.0019117" lon="8.5298717"><ele>5.0</ele><time>2026-04-20T12:47:28.773Z</time></trkpt><trkpt lat="40.0019683" lon="8.53001"><ele>5.0</ele><time>2026-04-20T12:47:29.773Z</time></trkpt><trkpt lat="40.0020233" lon="8.5301517"><ele>5.0</ele><time>2026-04-20T12:47:30.773Z</time></trkpt><trkpt lat="40.0020817" lon="8.530295"><ele>5.0</ele><time>2026-04-20T12:47:31.773Z</time></trkpt><trkpt lat="40.0021383" lon="8.5304417"><ele>5.0</ele><time>2026-04-20T12:47:32.773Z</time></trkpt><trkpt lat="40.002195" lon="8.5305883"><ele>5.0</ele><time>2026-04-20T12:47:33.773Z</time></trkpt><trkpt lat="40.0022517" lon="8.530735"><ele>5.0</ele><time>2026-04-20T12:47:34.773Z</time></trkpt><trkpt lat="40.0023083" lon="8.5308783"><ele>5.0</ele><time>2026-04-20T12:47:35.773Z</time></trkpt><trkpt lat="40.00236" lon="8.5310133"><ele>5.0</ele><time>2026-04-20T12:47:36.773Z</time></trkpt><trkpt lat="40.0023967" lon="8.5311517"><ele>5.0</ele><time>2026-04-20T12:47:37.773Z</time></trkpt><trkpt lat="40.002435" lon="8.531295"><ele>5.0</ele><time>2026-04-20T12:47:38.773Z</time></trkpt><trkpt lat="40.0024583" lon="8.5314367"><ele>5.0</ele><time>2026-04-20T12:47:39.774Z</time></trkpt><trkpt lat="40.002475" lon="8.5315917"><ele>4.5</ele><time>2026-04-20T12:47:40.773Z</time></trkpt><trkpt lat="40.0024917" lon="8.5317417"><ele>4.0</ele><time>2026-04-20T12:47:41.773Z</time></trkpt><trkpt lat="40.00251" lon="8.531895"><ele>3.5</ele><time>2026-04-20T12:47:42.773Z</time></trkpt><trkpt lat="40.0025283" lon="8.5320483"><ele>3.0</ele><time>2026-04-20T12:47:43.773Z</time></trkpt><trkpt lat="40.00256" lon="8.5323667"><ele>3.0</ele><time>2026-04-20T12:47:45.773Z</time></trkpt><trkpt lat="40.002575" lon="8.5325267"><ele>3.0</ele><time>2026-04-20T12:47:46.773Z</time></trkpt><trkpt lat="40.0025933" lon="8.53269"><ele>3.0</ele><time>2026-04-20T12:47:47.773Z</time></trkpt><trkpt lat="40.002615" lon="8.5328533"><ele>3.0</ele><time>2026-04-20T12:47:48.773Z</time></trkpt><trkpt lat="40.0026367" lon="8.5330133"><ele>3.0</ele><time>2026-04-20T12:47:49.772Z</time></trkpt><trkpt lat="40.0026517" lon="8.5331667"><ele>3.0</ele><time>2026-04-20T12:47:50.772Z</time></trkpt><trkpt lat="40.0026633" lon="8.533315"><ele>3.0</ele><time>2026-04-20T12:47:51.772Z</time></trkpt><trkpt lat="40.002675" lon="8.5334517"><ele>3.0</ele><time>2026-04-20T12:47:52.772Z</time></trkpt><trkpt lat="40.002685" lon="8.53358"><ele>3.0</ele><time>2026-04-20T12:47:53.773Z</time></trkpt><trkpt lat="40.00269" lon="8.533695"><ele>3.1666666666666665</ele><time>2026-04-20T12:47:54.772Z</time></trkpt><trkpt lat="40.0026917" lon="8.5337933"><ele>3.333333333333333</ele><time>2026-04-20T12:47:55.772Z</time></trkpt><trkpt lat="40.0026767" lon="8.5338817"><ele>3.5</ele><time>2026-04-20T12:47:56.772Z</time></trkpt><trkpt lat="40.0026483" lon="8.53397"><ele>3.6666666666666665</ele><time>2026-04-20T12:47:57.773Z</time></trkpt><trkpt lat="40.0026033" lon="8.5340583"><ele>3.833333333333333</ele><time>2026-04-20T12:47:58.772Z</time></trkpt><trkpt lat="40.0025483" lon="8.53415"><ele>4.0</ele><time>2026-04-20T12:47:59.772Z</time></trkpt><trkpt lat="40.0024883" lon="8.534225"><ele>3.6</ele><time>2026-04-20T12:48:00.772Z</time></trkpt><trkpt lat="40.0024167" lon="8.53429"><ele>3.2</ele><time>2026-04-20T12:48:01.772Z</time></trkpt><trkpt lat="40.00233" lon="8.534345"><ele>2.8000000000000003</ele><time>2026-04-20T12:48:02.772Z</time></trkpt><trkpt lat="40.002245" lon="8.5344"><ele>2.4000000000000004</ele><time>2026-04-20T12:48:03.773Z</time></trkpt><trkpt lat="40.0021533" lon="8.5344617"><ele>2.0</ele><time>2026-04-20T12:48:04.773Z</time></trkpt><trkpt lat="40.00196" lon="8.5345867"><ele>2.0</ele><time>2026-04-20T12:48:06.772Z</time></trkpt><trkpt lat="40.0018667" lon="8.5346517"><ele>2.0</ele><time>2026-04-20T12:48:07.772Z</time></trkpt><trkpt lat="40.0017717" lon="8.5347133"><ele>2.0</ele><time>2026-04-20T12:48:08.772Z</time></trkpt><trkpt lat="40.0016717" lon="8.53477"><ele>2.0</ele><time>2026-04-20T12:48:09.773Z</time></trkpt><trkpt lat="40.0015767" lon="8.5348283"><ele>2.0</ele><time>2026-04-20T12:48:10.772Z</time></trkpt><trkpt lat="40.0014733" lon="8.5348883"><ele>1.6</ele><time>2026-04-20T12:48:11.773Z</time></trkpt><trkpt lat="40.0013733" lon="8.53495"><ele>1.2000000000000002</ele><time>2026-04-20T12:48:12.772Z</time></trkpt><trkpt lat="40.0012717" lon="8.535005"><ele>0.8</ele><time>2026-04-20T12:48:13.773Z</time></trkpt><trkpt lat="40.0011733" lon="8.5350617"><ele>0.4</ele><time>2026-04-20T12:48:14.772Z</time></trkpt><trkpt lat="40.0010717" lon="8.5351233"><ele>0.0</ele><time>2026-04-20T12:48:15.772Z</time></trkpt><trkpt lat="40.0009717" lon="8.535195"><ele>0.0</ele><time>2026-04-20T12:48:16.772Z</time></trkpt><trkpt lat="40.0008667" lon="8.5352583"><ele>0.0</ele><time>2026-04-20T12:48:17.772Z</time></trkpt><trkpt lat="40.0007633" lon="8.5353217"><ele>0.0</ele><time>2026-04-20T12:48:18.772Z</time></trkpt><trkpt lat="40.0006617" lon="8.535385"><ele>0.0</ele><time>2026-04-20T12:48:19.772Z</time></trkpt><trkpt lat="40.000555" lon="8.5354433"><ele>0.0</ele><time>2026-04-20T12:48:20.772Z</time></trkpt><trkpt lat="40.0004467" lon="8.5355033"><ele>0.0</ele><time>2026-04-20T12:48:21.773Z</time></trkpt><trkpt lat="40.000335" lon="8.5355683"><ele>0.0</ele><time>2026-04-20T12:48:22.772Z</time></trkpt><trkpt lat="40.000225" lon="8.5356383"><ele>0.0</ele><time>2026-04-20T12:48:23.773Z</time></trkpt><trkpt lat="40.00012" lon="8.535715"><ele>0.0</ele><time>2026-04-20T12:48:24.772Z</time></trkpt><trkpt lat="40.0000167" lon="8.5357983"><ele>0.0</ele><time>2026-04-20T12:48:25.773Z</time></trkpt><trkpt lat="39.999825" lon="8.5359883"><ele>0.0</ele><time>2026-04-20T12:48:27.772Z</time></trkpt><trkpt lat="39.999735" lon="8.5360867"><ele>0.0</ele><time>2026-04-20T12:48:28.773Z</time></trkpt><trkpt lat="39.9996417" lon="8.5361983"><ele>0.0</ele><time>2026-04-20T12:48:29.772Z</time></trkpt><trkpt lat="39.999545" lon="8.5363"><ele>0.0</ele><time>2026-04-20T12:48:30.772Z</time></trkpt><trkpt lat="39.9994533" lon="8.5364083"><ele>0.0</ele><time>2026-04-20T12:48:31.772Z</time></trkpt><trkpt lat="39.99936" lon="8.5365083"><ele>0.0</ele><time>2026-04-20T12:48:32.772Z</time></trkpt><trkpt lat="39.9992667" lon="8.5366033"><ele>0.0</ele><time>2026-04-20T12:48:33.773Z</time></trkpt><trkpt lat="39.9991717" lon="8.5366967"><ele>0.0</ele><time>2026-04-20T12:48:34.772Z</time></trkpt><trkpt lat="39.99908" lon="8.5367917"><ele>0.0</ele><time>2026-04-20T12:48:35.772Z</time></trkpt><trkpt lat="39.9989917" lon="8.536895"><ele>0.0</ele><time>2026-04-20T12:48:36.772Z</time></trkpt><trkpt lat="39.998905" lon="8.5369883"><ele>0.0</ele><time>2026-04-20T12:48:37.772Z</time></trkpt><trkpt lat="39.9988217" lon="8.5370867"><ele>0.0</ele><time>2026-04-20T12:48:38.772Z</time></trkpt><trkpt lat="39.9987367" lon="8.537185"><ele>0.0</ele><time>2026-04-20T12:48:39.772Z</time></trkpt><trkpt lat="39.998645" lon="8.5372817"><ele>0.5</ele><time>2026-04-20T12:48:40.772Z</time></trkpt><trkpt lat="39.9985567" lon="8.5373817"><ele>1.0</ele><time>2026-04-20T12:48:41.772Z</time></trkpt><trkpt lat="39.9984633" lon="8.5374783"><ele>1.5</ele><time>2026-04-20T12:48:42.772Z</time></trkpt><trkpt lat="39.99837" lon="8.5375717"><ele>2.0</ele><time>2026-04-20T12:48:43.772Z</time></trkpt><trkpt lat="39.9982817" lon="8.5376783"><ele>2.0</ele><time>2026-04-20T12:48:44.772Z</time></trkpt><trkpt lat="39.9981933" lon="8.5377783"><ele>2.0</ele><time>2026-04-20T12:48:45.772Z</time></trkpt><trkpt lat="39.9981117" lon="8.5378833"><ele>2.0</ele><time>2026-04-20T12:48:46.772Z</time></trkpt><trkpt lat="39.9979283" lon="8.5380633"><ele>2.0</ele><time>2026-04-20T12:48:48.772Z</time></trkpt><trkpt lat="39.9978317" lon="8.538145"><ele>2.0</ele><time>2026-04-20T12:48:49.772Z</time></trkpt><trkpt lat="39.99773" lon="8.5382167"><ele>2.0</ele><time>2026-04-20T12:48:50.772Z</time></trkpt><trkpt lat="39.9976283" lon="8.53828"><ele>2.0</ele><time>2026-04-20T12:48:51.772Z</time></trkpt><trkpt lat="39.997525" lon="8.5383367"><ele>2.2</ele><time>2026-04-20T12:48:52.772Z</time></trkpt><trkpt lat="39.9974233" lon="8.5383917"><ele>2.4000000000000004</ele><time>2026-04-20T12:48:53.773Z</time></trkpt><trkpt lat="39.9973283" lon="8.5384483"><ele>2.5999999999999996</ele><time>2026-04-20T12:48:54.773Z</time></trkpt><trkpt lat="39.9972267" lon="8.5384933"><ele>2.8</ele><time>2026-04-20T12:48:55.772Z</time></trkpt><trkpt lat="39.9971267" lon="8.5385333"><ele>3.0</ele><time>2026-04-20T12:48:56.773Z</time></trkpt><trkpt lat="39.997025" lon="8.538575"><ele>3.0</ele><time>2026-04-20T12:48:57.772Z</time></trkpt><trkpt lat="39.99692" lon="8.538615"><ele>3.0</ele><time>2026-04-20T12:48:58.772Z</time></trkpt><trkpt lat="39.9968133" lon="8.538665"><ele>3.0</ele><time>2026-04-20T12:48:59.772Z</time></trkpt><trkpt lat="39.996715" lon="8.538715"><ele>3.0</ele><time>2026-04-20T12:49:00.772Z</time></trkpt><trkpt lat="39.9966083" lon="8.5387683"><ele>3.0</ele><time>2026-04-20T12:49:01.773Z</time></trkpt><trkpt lat="39.9965033" lon="8.5388267"><ele>3.4</ele><time>2026-04-20T12:49:02.772Z</time></trkpt><trkpt lat="39.996405" lon="8.538875"><ele>3.8</ele><time>2026-04-20T12:49:03.772Z</time></trkpt><trkpt lat="39.9963033" lon="8.5389333"><ele>4.2</ele><time>2026-04-20T12:49:04.773Z</time></trkpt><trkpt lat="39.9962067" lon="8.5389883"><ele>4.6</ele><time>2026-04-20T12:49:05.772Z</time></trkpt><trkpt lat="39.9961067" lon="8.5390483"><ele>5.0</ele><time>2026-04-20T12:49:06.772Z</time></trkpt><trkpt lat="39.9960033" lon="8.5391"><ele>5.75</ele><time>2026-04-20T12:49:07.772Z</time></trkpt><trkpt lat="39.9958067" lon="8.539185"><ele>6.5</ele><time>2026-04-20T12:49:09.772Z</time></trkpt><trkpt lat="39.9957133" lon="8.5392233"><ele>7.25</ele><time>2026-04-20T12:49:10.772Z</time></trkpt><trkpt lat="39.9956183" lon="8.5392667"><ele>8.0</ele><time>2026-04-20T12:49:11.772Z</time></trkpt><trkpt lat="39.995525" lon="8.5392967"><ele>8.0</ele><time>2026-04-20T12:49:12.772Z</time></trkpt><trkpt lat="39.99544" lon="8.5393433"><ele>8.0</ele><time>2026-04-20T12:49:13.772Z</time></trkpt><trkpt lat="39.9953583" lon="8.5394083"><ele>8.0</ele><time>2026-04-20T12:49:14.772Z</time></trkpt><trkpt lat="39.995275" lon="8.539475"><ele>8.0</ele><time>2026-04-20T12:49:15.772Z</time></trkpt><trkpt lat="39.9952117" lon="8.539575"><ele>8.0</ele><time>2026-04-20T12:49:16.772Z</time></trkpt><trkpt lat="39.9951383" lon="8.5396567"><ele>8.200000000000001</ele><time>2026-04-20T12:49:17.772Z</time></trkpt><trkpt lat="39.9950717" lon="8.53975"><ele>8.4</ele><time>2026-04-20T12:49:18.772Z</time></trkpt><trkpt lat="39.9950017" lon="8.5398383"><ele>8.600000000000001</ele><time>2026-04-20T12:49:19.772Z</time></trkpt><trkpt lat="39.9949283" lon="8.5399233"><ele>8.8</ele><time>2026-04-20T12:49:20.772Z</time></trkpt><trkpt lat="39.9948517" lon="8.5400133"><ele>9.0</ele><time>2026-04-20T12:49:21.772Z</time></trkpt><trkpt lat="39.99477" lon="8.5400817"><ele>9.0</ele><time>2026-04-20T12:49:22.772Z</time></trkpt><trkpt lat="39.99469" lon="8.5401817"><ele>9.0</ele><time>2026-04-20T12:49:23.772Z</time></trkpt><trkpt lat="39.9946167" lon="8.5402833"><ele>9.0</ele><time>2026-04-20T12:49:24.772Z</time></trkpt><trkpt lat="39.9945433" lon="8.5403733"><ele>9.0</ele><time>2026-04-20T12:49:25.772Z</time></trkpt><trkpt lat="39.9944683" lon="8.5404583"><ele>9.0</ele><time>2026-04-20T12:49:26.772Z</time></trkpt><trkpt lat="39.9943883" lon="8.5405383"><ele>8.75</ele><time>2026-04-20T12:49:27.772Z</time></trkpt><trkpt lat="39.9943133" lon="8.5406233"><ele>8.5</ele><time>2026-04-20T12:49:28.772Z</time></trkpt><trkpt lat="39.99418" lon="8.5408"><ele>8.25</ele><time>2026-04-20T12:49:30.772Z</time></trkpt><trkpt lat="39.9941167" lon="8.5408767"><ele>8.0</ele><time>2026-04-20T12:49:31.772Z</time></trkpt><trkpt lat="39.99406" lon="8.540955"><ele>7.833333333333333</ele><time>2026-04-20T12:49:32.773Z</time></trkpt><trkpt lat="39.99399" lon="8.541025"><ele>7.666666666666666</ele><time>2026-04-20T12:49:33.773Z</time></trkpt><trkpt lat="39.9939117" lon="8.5410867"><ele>7.5</ele><time>2026-04-20T12:49:34.772Z</time></trkpt><trkpt lat="39.9938317" lon="8.54113"><ele>7.333333333333334</ele><time>2026-04-20T12:49:35.772Z</time></trkpt><trkpt lat="39.99375" lon="8.5411583"><ele>7.166666666666667</ele><time>2026-04-20T12:49:36.772Z</time></trkpt><trkpt lat="39.9936667" lon="8.5411867"><ele>7.0</ele><time>2026-04-20T12:49:37.772Z</time></trkpt><trkpt lat="39.9935683" lon="8.5412083"><ele>7.0</ele><time>2026-04-20T12:49:38.772Z</time></trkpt><trkpt lat="39.9934717" lon="8.5412283"><ele>6.999999999999999</ele><time>2026-04-20T12:49:39.772Z</time></trkpt><trkpt lat="39.9933767" lon="8.541255"><ele>6.999999999999999</ele><time>2026-04-20T12:49:40.772Z</time></trkpt><trkpt lat="39.9932783" lon="8.54129"><ele>7.0</ele><time>2026-04-20T12:49:41.772Z</time></trkpt><trkpt lat="39.9931833" lon="8.5413233"><ele>7.0</ele><time>2026-04-20T12:49:42.772Z</time></trkpt><trkpt lat="39.9930767" lon="8.54136"><ele>7.0</ele><time>2026-04-20T12:49:43.772Z</time></trkpt><trkpt lat="39.9929683" lon="8.5413983"><ele>6.999999999999999</ele><time>2026-04-20T12:49:44.773Z</time></trkpt><trkpt lat="39.9928583" lon="8.5414383"><ele>6.999999999999999</ele><time>2026-04-20T12:49:45.772Z</time></trkpt><trkpt lat="39.9927483" lon="8.5414767"><ele>7.0</ele><time>2026-04-20T12:49:46.772Z</time></trkpt><trkpt lat="39.9926433" lon="8.5415117"><ele>7.0</ele><time>2026-04-20T12:49:47.772Z</time></trkpt><trkpt lat="39.992545" lon="8.5415267"><ele>7.25</ele><time>2026-04-20T12:49:48.772Z</time></trkpt><trkpt lat="39.9923367" lon="8.5415467"><ele>7.5</ele><time>2026-04-20T12:49:50.772Z</time></trkpt><trkpt lat="39.99223" lon="8.5415583"><ele>7.75</ele><time>2026-04-20T12:49:51.772Z</time></trkpt><trkpt lat="39.9921267" lon="8.5415667"><ele>8.0</ele><time>2026-04-20T12:49:52.772Z</time></trkpt><trkpt lat="39.9920183" lon="8.5415767"><ele>8.0</ele><time>2026-04-20T12:49:53.772Z</time></trkpt><trkpt lat="39.9919133" lon="8.5415883"><ele>8.0</ele><time>2026-04-20T12:49:54.772Z</time></trkpt><trkpt lat="39.99181" lon="8.5415983"><ele>8.0</ele><time>2026-04-20T12:49:55.773Z</time></trkpt><trkpt lat="39.9917067" lon="8.541605"><ele>8.0</ele><time>2026-04-20T12:49:56.773Z</time></trkpt><trkpt lat="39.9916083" lon="8.541615"><ele>8.0</ele><time>2026-04-20T12:49:57.772Z</time></trkpt><trkpt lat="39.9915067" lon="8.5416333"><ele>8.200000000000001</ele><time>2026-04-20T12:49:58.772Z</time></trkpt><trkpt lat="39.9914033" lon="8.5416483"><ele>8.4</ele><time>2026-04-20T12:49:59.773Z</time></trkpt><trkpt lat="39.99131" lon="8.5416533"><ele>8.600000000000001</ele><time>2026-04-20T12:50:00.772Z</time></trkpt><trkpt lat="39.991215" lon="8.54166"><ele>8.8</ele><time>2026-04-20T12:50:01.773Z</time></trkpt><trkpt lat="39.99112" lon="8.541675"><ele>9.0</ele><time>2026-04-20T12:50:02.773Z</time></trkpt><trkpt lat="39.9910367" lon="8.5416883"><ele>9.000000000000002</ele><time>2026-04-20T12:50:03.772Z</time></trkpt><trkpt lat="39.9909617" lon="8.541695"><ele>9.0</ele><time>2026-04-20T12:50:04.773Z</time></trkpt><trkpt lat="39.9908867" lon="8.5416967"><ele>9.0</ele><time>2026-04-20T12:50:05.773Z</time></trkpt><trkpt lat="39.9908117" lon="8.5416983"><ele>9.0</ele><time>2026-04-20T12:50:06.772Z</time></trkpt><trkpt lat="39.990735" lon="8.5416933"><ele>9.0</ele><time>2026-04-20T12:50:07.772Z</time></trkpt><trkpt lat="39.99067" lon="8.5416933"><ele>9.000000000000002</ele><time>2026-04-20T12:50:08.772Z</time></trkpt><trkpt lat="39.9905967" lon="8.5416933"><ele>9.0</ele><time>2026-04-20T12:50:09.772Z</time></trkpt><trkpt lat="39.9904533" lon="8.541685"><ele>8.857142857142858</ele><time>2026-04-20T12:50:11.772Z</time></trkpt><trkpt lat="39.9903833" lon="8.54168"><ele>8.714285714285715</ele><time>2026-04-20T12:50:12.772Z</time></trkpt><trkpt lat="39.9903167" lon="8.54167"><ele>8.571428571428571</ele><time>2026-04-20T12:50:13.772Z</time></trkpt><trkpt lat="39.9902533" lon="8.541655"><ele>8.428571428571429</ele><time>2026-04-20T12:50:14.773Z</time></trkpt><trkpt lat="39.9901917" lon="8.5416333"><ele>8.285714285714285</ele><time>2026-04-20T12:50:15.772Z</time></trkpt><trkpt lat="39.9901317" lon="8.541605"><ele>8.142857142857142</ele><time>2026-04-20T12:50:16.772Z</time></trkpt><trkpt lat="39.99004" lon="8.5415667"><ele>8.0</ele><time>2026-04-20T12:50:18.772Z</time></trkpt><trkpt lat="39.989975" lon="8.5415383"><ele>7.999999999999999</ele><time>2026-04-20T12:50:20.772Z</time></trkpt><trkpt lat="39.9899317" lon="8.541475"><ele>8.0</ele><time>2026-04-20T12:50:24.772Z</time></trkpt><trkpt lat="39.9899683" lon="8.541365"><ele>8.0</ele><time>2026-04-20T12:50:27.773Z</time></trkpt><trkpt lat="39.990005" lon="8.541285"><ele>8.0</ele><time>2026-04-20T12:50:29.772Z</time></trkpt><trkpt lat="39.9900267" lon="8.5412017"><ele>7.999999999999999</ele><time>2026-04-20T12:50:32.772Z</time></trkpt><trkpt lat="39.9900767" lon="8.5410217"><ele>8.0</ele><time>2026-04-20T12:50:40.772Z</time></trkpt><trkpt lat="39.99012" lon="8.540955"><ele>7.800000000000001</ele><time>2026-04-20T12:50:46.772Z</time></trkpt><trkpt lat="39.9901267" lon="8.5408417"><ele>7.6000000000000005</ele><time>2026-04-20T13:11:05.767Z</time></trkpt><trkpt lat="39.99019" lon="8.5406933"><ele>7.3999999999999995</ele><time>2026-04-20T13:11:16.767Z</time></trkpt><trkpt lat="39.9902083" lon="8.5406083"><ele>7.199999999999999</ele><time>2026-04-20T13:12:40.766Z</time></trkpt><trkpt lat="39.9902567" lon="8.5404283"><ele>7.0</ele><time>2026-04-20T13:12:44.766Z</time></trkpt><trkpt lat="39.9902933" lon="8.540355"><ele>7.000000000000001</ele><time>2026-04-20T13:12:46.766Z</time></trkpt><trkpt lat="39.99036" lon="8.54033"><ele>7.0</ele><time>2026-04-20T13:12:48.766Z</time></trkpt><trkpt lat="39.9904483" lon="8.5403633"><ele>7.0</ele><time>2026-04-20T13:12:50.766Z</time></trkpt><trkpt lat="39.9905433" lon="8.5404117"><ele>7.0</ele><time>2026-04-20T13:12:52.767Z</time></trkpt><trkpt lat="39.9906267" lon="8.54046"><ele>7.000000000000001</ele><time>2026-04-20T13:12:54.767Z</time></trkpt><trkpt lat="39.9906883" lon="8.5404967"><ele>7.0</ele><time>2026-04-20T13:12:56.766Z</time></trkpt><trkpt lat="39.9907533" lon="8.540425"><ele>7.0</ele><time>2026-04-20T13:12:59.766Z</time></trkpt><trkpt lat="39.99079" lon="8.5402983"><ele>6.999999999999999</ele><time>2026-04-20T13:13:01.767Z</time></trkpt><trkpt lat="39.9909333" lon="8.540235"><ele>6.999999999999999</ele><time>2026-04-20T13:13:05.766Z</time></trkpt><trkpt lat="39.991025" lon="8.54031"><ele>7.0</ele><time>2026-04-20T13:13:07.766Z</time></trkpt><trkpt lat="39.991085" lon="8.5403633"><ele>7.0</ele><time>2026-04-20T13:13:08.766Z</time></trkpt><trkpt lat="39.9911483" lon="8.5404183"><ele>7.000000000000001</ele><time>2026-04-20T13:13:09.766Z</time></trkpt><trkpt lat="39.9912083" lon="8.540475"><ele>7.0</ele><time>2026-04-20T13:13:10.766Z</time></trkpt><trkpt lat="39.99128" lon="8.5405233"><ele>7.0</ele><time>2026-04-20T13:13:11.767Z</time></trkpt><trkpt lat="39.9913483" lon="8.5405767"><ele>7.0</ele><time>2026-04-20T13:13:12.767Z</time></trkpt><trkpt lat="39.9914083" lon="8.5406267"><ele>7.000000000000001</ele><time>2026-04-20T13:13:13.766Z</time></trkpt><trkpt lat="39.991465" lon="8.5406633"><ele>7.0</ele><time>2026-04-20T13:13:14.766Z</time></trkpt><trkpt lat="39.99156" lon="8.5407433"><ele>7.0</ele><time>2026-04-20T13:13:16.766Z</time></trkpt><trkpt lat="39.9916367" lon="8.5408083"><ele>7.0</ele><time>2026-04-20T13:13:18.766Z</time></trkpt><trkpt lat="39.9917217" lon="8.54085"><ele>7.0</ele><time>2026-04-20T13:13:20.766Z</time></trkpt><trkpt lat="39.991795" lon="8.5408283"><ele>7.0</ele><time>2026-04-20T13:13:22.766Z</time></trkpt><trkpt lat="39.9919" lon="8.5406083"><ele>7.199999999999999</ele><time>2026-04-20T13:13:26.766Z</time></trkpt><trkpt lat="39.9919683" lon="8.5404917"><ele>7.3999999999999995</ele><time>2026-04-20T13:13:28.766Z</time></trkpt><trkpt lat="39.9920433" lon="8.5403917"><ele>7.6000000000000005</ele><time>2026-04-20T13:13:30.766Z</time></trkpt><trkpt lat="39.992105" lon="8.5402817"><ele>7.800000000000001</ele><time>2026-04-20T13:13:32.766Z</time></trkpt><trkpt lat="39.9921633" lon="8.54016"><ele>8.0</ele><time>2026-04-20T13:13:34.767Z</time></trkpt><trkpt lat="39.99222" lon="8.5400317"><ele>7.999999999999999</ele><time>2026-04-20T13:13:36.767Z</time></trkpt><trkpt lat="39.99228" lon="8.539895"><ele>8.0</ele><time>2026-04-20T13:13:38.766Z</time></trkpt><trkpt lat="39.99233" lon="8.53984"><ele>8.0</ele><time>2026-04-20T13:13:39.767Z</time></trkpt><trkpt lat="39.992435" lon="8.5397567"><ele>8.0</ele><time>2026-04-20T13:13:41.766Z</time></trkpt><trkpt lat="39.9924967" lon="8.5397233"><ele>7.999999999999999</ele><time>2026-04-20T13:13:42.766Z</time></trkpt><trkpt lat="39.9925567" lon="8.5396717"><ele>8.0</ele><time>2026-04-20T13:13:43.767Z</time></trkpt><trkpt lat="39.9926517" lon="8.5395467"><ele>7.6000000000000005</ele><time>2026-04-20T13:13:45.766Z</time></trkpt><trkpt lat="39.9927133" lon="8.539455"><ele>7.200000000000001</ele><time>2026-04-20T13:13:47.766Z</time></trkpt><trkpt lat="39.9927933" lon="8.53945"><ele>6.8</ele><time>2026-04-20T13:13:49.766Z</time></trkpt><trkpt lat="39.99285" lon="8.5395333"><ele>6.4</ele><time>2026-04-20T13:13:51.766Z</time></trkpt><trkpt lat="39.992885" lon="8.539665"><ele>6.0</ele><time>2026-04-20T13:13:53.767Z</time></trkpt><trkpt lat="39.992945" lon="8.5397917"><ele>6.0</ele><time>2026-04-20T13:13:55.766Z</time></trkpt><trkpt lat="39.9930183" lon="8.5398817"><ele>6.0</ele><time>2026-04-20T13:13:57.766Z</time></trkpt><trkpt lat="39.9930833" lon="8.5398733"><ele>6.0</ele><time>2026-04-20T13:13:59.766Z</time></trkpt><trkpt lat="39.993145" lon="8.5397833"><ele>6.0</ele><time>2026-04-20T13:14:01.766Z</time></trkpt><trkpt lat="39.9932117" lon="8.5396383"><ele>6.0</ele><time>2026-04-20T13:14:03.767Z</time></trkpt><trkpt lat="39.9932483" lon="8.53956"><ele>6.0</ele><time>2026-04-20T13:14:04.767Z</time></trkpt><trkpt lat="39.9933267" lon="8.5393933"><ele>6.0</ele><time>2026-04-20T13:14:06.766Z</time></trkpt><trkpt lat="39.99336" lon="8.5393233"><ele>6.0</ele><time>2026-04-20T13:14:07.766Z</time></trkpt><trkpt lat="39.9934" lon="8.5392467"><ele>6.0</ele><time>2026-04-20T13:14:08.766Z</time></trkpt><trkpt lat="39.9934383" lon="8.5391617"><ele>6.0</ele><time>2026-04-20T13:14:09.766Z</time></trkpt><trkpt lat="39.9934783" lon="8.53908"><ele>6.0</ele><time>2026-04-20T13:14:10.766Z</time></trkpt><trkpt lat="39.9935183" lon="8.5389983"><ele>5.999999999999999</ele><time>2026-04-20T13:14:11.767Z</time></trkpt><trkpt lat="39.9935583" lon="8.53892"><ele>6.0</ele><time>2026-04-20T13:14:12.766Z</time></trkpt><trkpt lat="39.9935917" lon="8.5388333"><ele>6.0</ele><time>2026-04-20T13:14:13.766Z</time></trkpt><trkpt lat="39.99363" lon="8.5387517"><ele>6.0</ele><time>2026-04-20T13:14:14.766Z</time></trkpt><trkpt lat="39.993665" lon="8.538665"><ele>6.0</ele><time>2026-04-20T13:14:15.766Z</time></trkpt><trkpt lat="39.993705" lon="8.53858"><ele>5.999999999999999</ele><time>2026-04-20T13:14:16.766Z</time></trkpt><trkpt lat="39.9937367" lon="8.5384983"><ele>6.0</ele><time>2026-04-20T13:14:17.767Z</time></trkpt><trkpt lat="39.9937683" lon="8.5384233"><ele>5.8</ele><time>2026-04-20T13:14:18.766Z</time></trkpt><trkpt lat="39.9938267" lon="8.5382883"><ele>5.6</ele><time>2026-04-20T13:14:20.766Z</time></trkpt><trkpt lat="39.993875" lon="8.53816"><ele>5.4</ele><time>2026-04-20T13:14:22.766Z</time></trkpt><trkpt lat="39.9939167" lon="8.5380783"><ele>5.2</ele><time>2026-04-20T13:14:24.766Z</time></trkpt><trkpt lat="39.9939367" lon="8.5379783"><ele>5.0</ele><time>2026-04-20T13:14:28.767Z</time></trkpt><trkpt lat="39.993825" lon="8.5377783"><ele>4.6</ele><time>2026-04-20T13:14:33.766Z</time></trkpt><trkpt lat="39.9937467" lon="8.537685"><ele>4.2</ele><time>2026-04-20T13:14:35.766Z</time></trkpt><trkpt lat="39.9936783" lon="8.5375933"><ele>3.8</ele><time>2026-04-20T13:14:37.766Z</time></trkpt><trkpt lat="39.993615" lon="8.5375017"><ele>3.4</ele><time>2026-04-20T13:14:39.766Z</time></trkpt><trkpt lat="39.9935617" lon="8.5374233"><ele>3.0</ele><time>2026-04-20T13:14:41.766Z</time></trkpt><trkpt lat="39.9935133" lon="8.5373033"><ele>3.0</ele><time>2026-04-20T13:14:43.766Z</time></trkpt><trkpt lat="39.9934567" lon="8.5371617"><ele>3.0</ele><time>2026-04-20T13:14:45.767Z</time></trkpt><trkpt lat="39.9934183" lon="8.5370867"><ele>3.0</ele><time>2026-04-20T13:14:46.766Z</time></trkpt><trkpt lat="39.9933683" lon="8.5370083"><ele>3.0</ele><time>2026-04-20T13:14:47.766Z</time></trkpt><trkpt lat="39.9933267" lon="8.5369233"><ele>3.0</ele><time>2026-04-20T13:14:48.766Z</time></trkpt><trkpt lat="39.99328" lon="8.5368283"><ele>3.0</ele><time>2026-04-20T13:14:49.766Z</time></trkpt><trkpt lat="39.9931767" lon="8.5366517"><ele>3.3333333333333335</ele><time>2026-04-20T13:14:51.766Z</time></trkpt><trkpt lat="39.9931233" lon="8.5365633"><ele>3.666666666666667</ele><time>2026-04-20T13:14:52.766Z</time></trkpt><trkpt lat="39.9930567" lon="8.5364867"><ele>4.0</ele><time>2026-04-20T13:14:53.767Z</time></trkpt><trkpt lat="39.9929933" lon="8.536415"><ele>4.333333333333334</ele><time>2026-04-20T13:14:54.766Z</time></trkpt><trkpt lat="39.9929267" lon="8.5363533"><ele>4.666666666666667</ele><time>2026-04-20T13:14:55.766Z</time></trkpt><trkpt lat="39.9928633" lon="8.5362917"><ele>5.0</ele><time>2026-04-20T13:14:56.767Z</time></trkpt><trkpt lat="39.9928017" lon="8.5362233"><ele>4.833333333333334</ele><time>2026-04-20T13:14:57.766Z</time></trkpt><trkpt lat="39.99274" lon="8.5361567"><ele>4.666666666666667</ele><time>2026-04-20T13:14:58.766Z</time></trkpt><trkpt lat="39.9926733" lon="8.5361017"><ele>4.5</ele><time>2026-04-20T13:14:59.767Z</time></trkpt><trkpt lat="39.9926067" lon="8.5360417"><ele>4.333333333333333</ele><time>2026-04-20T13:15:00.766Z</time></trkpt><trkpt lat="39.9925367" lon="8.5359817"><ele>4.166666666666666</ele><time>2026-04-20T13:15:01.766Z</time></trkpt><trkpt lat="39.9924667" lon="8.535925"><ele>4.0</ele><time>2026-04-20T13:15:02.766Z</time></trkpt><trkpt lat="39.9924017" lon="8.53587"><ele>3.9999999999999996</ele><time>2026-04-20T13:15:03.766Z</time></trkpt><trkpt lat="39.99233" lon="8.5358167"><ele>4.0</ele><time>2026-04-20T13:15:04.766Z</time></trkpt><trkpt lat="39.9922533" lon="8.5357533"><ele>4.0</ele><time>2026-04-20T13:15:05.766Z</time></trkpt><trkpt lat="39.992175" lon="8.535695"><ele>4.0</ele><time>2026-04-20T13:15:06.766Z</time></trkpt><trkpt lat="39.9921067" lon="8.535635"><ele>3.9999999999999996</ele><time>2026-04-20T13:15:07.766Z</time></trkpt><trkpt lat="39.992035" lon="8.5355767"><ele>4.0</ele><time>2026-04-20T13:15:08.767Z</time></trkpt><trkpt lat="39.9919633" lon="8.5355167"><ele>4.0</ele><time>2026-04-20T13:15:09.766Z</time></trkpt><trkpt lat="39.9918917" lon="8.5354533"><ele>4.0</ele><time>2026-04-20T13:15:10.766Z</time></trkpt><trkpt lat="39.99176" lon="8.535305"><ele>4.0</ele><time>2026-04-20T13:15:12.766Z</time></trkpt><trkpt lat="39.9917033" lon="8.535225"><ele>4.0</ele><time>2026-04-20T13:15:13.766Z</time></trkpt><trkpt lat="39.9916467" lon="8.5351367"><ele>4.0</ele><time>2026-04-20T13:15:14.766Z</time></trkpt><trkpt lat="39.9915867" lon="8.5350433"><ele>4.0</ele><time>2026-04-20T13:15:15.766Z</time></trkpt><trkpt lat="39.9915267" lon="8.53494"><ele>4.0</ele><time>2026-04-20T13:15:16.766Z</time></trkpt><trkpt lat="39.991465" lon="8.5348467"><ele>4.0</ele><time>2026-04-20T13:15:17.766Z</time></trkpt><trkpt lat="39.991405" lon="8.53474"><ele>4.0</ele><time>2026-04-20T13:15:18.766Z</time></trkpt><trkpt lat="39.9913433" lon="8.5346367"><ele>4.0</ele><time>2026-04-20T13:15:19.766Z</time></trkpt><trkpt lat="39.9912883" lon="8.5345317"><ele>4.0</ele><time>2026-04-20T13:15:20.766Z</time></trkpt><trkpt lat="39.991235" lon="8.5344267"><ele>4.0</ele><time>2026-04-20T13:15:21.766Z</time></trkpt><trkpt lat="39.9911833" lon="8.534325"><ele>4.0</ele><time>2026-04-20T13:15:22.767Z</time></trkpt><trkpt lat="39.9911333" lon="8.53422"><ele>4.0</ele><time>2026-04-20T13:15:23.767Z</time></trkpt><trkpt lat="39.9910817" lon="8.5341033"><ele>4.0</ele><time>2026-04-20T13:15:24.767Z</time></trkpt><trkpt lat="39.991025" lon="8.533995"><ele>4.0</ele><time>2026-04-20T13:15:25.766Z</time></trkpt><trkpt lat="39.9909667" lon="8.5338867"><ele>4.0</ele><time>2026-04-20T13:15:26.767Z</time></trkpt><trkpt lat="39.9909067" lon="8.5337817"><ele>4.0</ele><time>2026-04-20T13:15:27.766Z</time></trkpt><trkpt lat="39.9908467" lon="8.5336767"><ele>4.0</ele><time>2026-04-20T13:15:28.766Z</time></trkpt><trkpt lat="39.9907933" lon="8.533575"><ele>4.0</ele><time>2026-04-20T13:15:29.766Z</time></trkpt><trkpt lat="39.99074" lon="8.5334683"><ele>3.75</ele><time>2026-04-20T13:15:30.766Z</time></trkpt><trkpt lat="39.9906833" lon="8.5333667"><ele>3.5</ele><time>2026-04-20T13:15:31.767Z</time></trkpt><trkpt lat="39.9905567" lon="8.53318"><ele>3.25</ele><time>2026-04-20T13:15:33.766Z</time></trkpt><trkpt lat="39.9904933" lon="8.5330867"><ele>3.0</ele><time>2026-04-20T13:15:34.766Z</time></trkpt><trkpt lat="39.9904267" lon="8.5330017"><ele>3.0</ele><time>2026-04-20T13:15:35.766Z</time></trkpt><trkpt lat="39.9903567" lon="8.532915"><ele>3.0</ele><time>2026-04-20T13:15:36.766Z</time></trkpt><trkpt lat="39.9902833" lon="8.5328367"><ele>3.0</ele><time>2026-04-20T13:15:37.766Z</time></trkpt><trkpt lat="39.99021" lon="8.5327617"><ele>3.0</ele><time>2026-04-20T13:15:38.766Z</time></trkpt><trkpt lat="39.9901267" lon="8.5327"><ele>3.0</ele><time>2026-04-20T13:15:39.766Z</time></trkpt><trkpt lat="39.9900433" lon="8.5326367"><ele>3.1666666666666665</ele><time>2026-04-20T13:15:40.766Z</time></trkpt><trkpt lat="39.989965" lon="8.532575"><ele>3.333333333333333</ele><time>2026-04-20T13:15:41.766Z</time></trkpt><trkpt lat="39.989885" lon="8.53252"><ele>3.5</ele><time>2026-04-20T13:15:42.766Z</time></trkpt><trkpt lat="39.989805" lon="8.532465"><ele>3.6666666666666665</ele><time>2026-04-20T13:15:43.766Z</time></trkpt><trkpt lat="39.9897267" lon="8.5324117"><ele>3.833333333333333</ele><time>2026-04-20T13:15:44.766Z</time></trkpt><trkpt lat="39.989655" lon="8.53236"><ele>4.0</ele><time>2026-04-20T13:15:45.766Z</time></trkpt><trkpt lat="39.98958" lon="8.5323"><ele>3.9999999999999996</ele><time>2026-04-20T13:15:46.767Z</time></trkpt><trkpt lat="39.9895017" lon="8.532245"><ele>4.0</ele><time>2026-04-20T13:15:47.766Z</time></trkpt><trkpt lat="39.989425" lon="8.5321967"><ele>4.0</ele><time>2026-04-20T13:15:48.766Z</time></trkpt><trkpt lat="39.98935" lon="8.5321533"><ele>4.0</ele><time>2026-04-20T13:15:49.766Z</time></trkpt><trkpt lat="39.9892767" lon="8.5321033"><ele>3.9999999999999996</ele><time>2026-04-20T13:15:50.766Z</time></trkpt><trkpt lat="39.9891983" lon="8.53205"><ele>4.0</ele><time>2026-04-20T13:15:51.766Z</time></trkpt><trkpt lat="39.9891167" lon="8.5320017"><ele>4.0</ele><time>2026-04-20T13:15:52.766Z</time></trkpt><trkpt lat="39.988955" lon="8.5319083"><ele>4.0</ele><time>2026-04-20T13:15:54.766Z</time></trkpt><trkpt lat="39.98887" lon="8.53186"><ele>4.0</ele><time>2026-04-20T13:15:55.767Z</time></trkpt><trkpt lat="39.9887867" lon="8.5318083"><ele>4.0</ele><time>2026-04-20T13:15:56.767Z</time></trkpt><trkpt lat="39.988695" lon="8.531765"><ele>4.0</ele><time>2026-04-20T13:15:57.766Z</time></trkpt><trkpt lat="39.9886067" lon="8.5317217"><ele>4.0</ele><time>2026-04-20T13:15:58.766Z</time></trkpt><trkpt lat="39.988515" lon="8.5316783"><ele>4.0</ele><time>2026-04-20T13:15:59.766Z</time></trkpt><trkpt lat="39.9884217" lon="8.5316367"><ele>4.0</ele><time>2026-04-20T13:16:00.765Z</time></trkpt><trkpt lat="39.9883383" lon="8.5315967"><ele>4.0</ele><time>2026-04-20T13:16:01.765Z</time></trkpt><trkpt lat="39.9882567" lon="8.531555"><ele>4.166666666666666</ele><time>2026-04-20T13:16:02.765Z</time></trkpt><trkpt lat="39.9881833" lon="8.5315167"><ele>4.333333333333333</ele><time>2026-04-20T13:16:03.765Z</time></trkpt><trkpt lat="39.9881083" lon="8.5314783"><ele>4.5</ele><time>2026-04-20T13:16:04.765Z</time></trkpt><trkpt lat="39.988025" lon="8.53144"><ele>4.666666666666667</ele><time>2026-04-20T13:16:05.766Z</time></trkpt><trkpt lat="39.9879433" lon="8.531395"><ele>4.833333333333334</ele><time>2026-04-20T13:16:06.765Z</time></trkpt><trkpt lat="39.987865" lon="8.5313467"><ele>5.0</ele><time>2026-04-20T13:16:07.765Z</time></trkpt><trkpt lat="39.9877917" lon="8.5312833"><ele>4.8</ele><time>2026-04-20T13:16:08.765Z</time></trkpt><trkpt lat="39.9877167" lon="8.5312083"><ele>4.6</ele><time>2026-04-20T13:16:09.766Z</time></trkpt><trkpt lat="39.9876467" lon="8.5311267"><ele>4.4</ele><time>2026-04-20T13:16:10.765Z</time></trkpt><trkpt lat="39.9875817" lon="8.53103"><ele>4.2</ele><time>2026-04-20T13:16:11.765Z</time></trkpt><trkpt lat="39.9875167" lon="8.5309367"><ele>4.0</ele><time>2026-04-20T13:16:12.765Z</time></trkpt><trkpt lat="39.987465" lon="8.5308433"><ele>4.0</ele><time>2026-04-20T13:16:13.765Z</time></trkpt><trkpt lat="39.9873567" lon="8.5306483"><ele>4.0</ele><time>2026-04-20T13:16:15.765Z</time></trkpt><trkpt lat="39.9872983" lon="8.5305483"><ele>4.0</ele><time>2026-04-20T13:16:16.765Z</time></trkpt><trkpt lat="39.9872317" lon="8.5304483"><ele>4.0</ele><time>2026-04-20T13:16:17.766Z</time></trkpt><trkpt lat="39.987165" lon="8.530355"><ele>4.0</ele><time>2026-04-20T13:16:18.765Z</time></trkpt><trkpt lat="39.9870983" lon="8.5302633"><ele>4.0</ele><time>2026-04-20T13:16:19.765Z</time></trkpt><trkpt lat="39.9870217" lon="8.5301867"><ele>4.0</ele><time>2026-04-20T13:16:20.765Z</time></trkpt><trkpt lat="39.9869467" lon="8.5301033"><ele>4.0</ele><time>2026-04-20T13:16:21.765Z</time></trkpt><trkpt lat="39.9868617" lon="8.5300217"><ele>4.0</ele><time>2026-04-20T13:16:22.765Z</time></trkpt><trkpt lat="39.9867783" lon="8.52995"><ele>4.0</ele><time>2026-04-20T13:16:23.765Z</time></trkpt><trkpt lat="39.9866917" lon="8.529875"><ele>4.0</ele><time>2026-04-20T13:16:24.765Z</time></trkpt><trkpt lat="39.9866017" lon="8.529805"><ele>4.0</ele><time>2026-04-20T13:16:25.765Z</time></trkpt><trkpt lat="39.9865117" lon="8.529735"><ele>4.0</ele><time>2026-04-20T13:16:26.765Z</time></trkpt><trkpt lat="39.9864267" lon="8.52966"><ele>4.0</ele><time>2026-04-20T13:16:27.765Z</time></trkpt><trkpt lat="39.9863517" lon="8.5295767"><ele>3.8000000000000003</ele><time>2026-04-20T13:16:28.765Z</time></trkpt><trkpt lat="39.9862817" lon="8.529485"><ele>3.6000000000000005</ele><time>2026-04-20T13:16:29.765Z</time></trkpt><trkpt lat="39.9862183" lon="8.5293933"><ele>3.4</ele><time>2026-04-20T13:16:30.765Z</time></trkpt><trkpt lat="39.9861583" lon="8.5293033"><ele>3.2</ele><time>2026-04-20T13:16:31.765Z</time></trkpt><trkpt lat="39.9861017" lon="8.5292117"><ele>3.0</ele><time>2026-04-20T13:16:32.765Z</time></trkpt><trkpt lat="39.9860467" lon="8.5291117"><ele>3.0</ele><time>2026-04-20T13:16:33.765Z</time></trkpt><trkpt lat="39.9859883" lon="8.5290117"><ele>3.0</ele><time>2026-04-20T13:16:34.765Z</time></trkpt><trkpt lat="39.985875" lon="8.5288"><ele>3.0</ele><time>2026-04-20T13:16:36.765Z</time></trkpt><trkpt lat="39.9858167" lon="8.5286883"><ele>3.0</ele><time>2026-04-20T13:16:37.765Z</time></trkpt><trkpt lat="39.98576" lon="8.5285833"><ele>3.0</ele><time>2026-04-20T13:16:38.765Z</time></trkpt><trkpt lat="39.985705" lon="8.5284767"><ele>3.0</ele><time>2026-04-20T13:16:39.765Z</time></trkpt><trkpt lat="39.9856483" lon="8.528365"><ele>3.0</ele><time>2026-04-20T13:16:40.765Z</time></trkpt><trkpt lat="39.9855917" lon="8.5282617"><ele>3.0</ele><time>2026-04-20T13:16:41.765Z</time></trkpt><trkpt lat="39.9855267" lon="8.5281633"><ele>3.0</ele><time>2026-04-20T13:16:42.765Z</time></trkpt><trkpt lat="39.9854583" lon="8.5280633"><ele>3.0</ele><time>2026-04-20T13:16:43.765Z</time></trkpt><trkpt lat="39.9853933" lon="8.5279733"><ele>3.0</ele><time>2026-04-20T13:16:44.765Z</time></trkpt><trkpt lat="39.9853267" lon="8.527875"><ele>3.0</ele><time>2026-04-20T13:16:45.765Z</time></trkpt><trkpt lat="39.9852517" lon="8.5277833"><ele>3.0</ele><time>2026-04-20T13:16:46.765Z</time></trkpt><trkpt lat="39.985175" lon="8.527695"><ele>3.0</ele><time>2026-04-20T13:16:47.765Z</time></trkpt><trkpt lat="39.9850983" lon="8.52761"><ele>3.0</ele><time>2026-04-20T13:16:48.765Z</time></trkpt><trkpt lat="39.985015" lon="8.527525"><ele>3.0</ele><time>2026-04-20T13:16:49.765Z</time></trkpt><trkpt lat="39.9849283" lon="8.527455"><ele>3.0</ele><time>2026-04-20T13:16:50.765Z</time></trkpt><trkpt lat="39.98484" lon="8.527385"><ele>3.0</ele><time>2026-04-20T13:16:51.765Z</time></trkpt><trkpt lat="39.9847533" lon="8.527315"><ele>3.0</ele><time>2026-04-20T13:16:52.765Z</time></trkpt><trkpt lat="39.984665" lon="8.5272483"><ele>3.0</ele><time>2026-04-20T13:16:53.765Z</time></trkpt><trkpt lat="39.9845733" lon="8.5271817"><ele>3.0</ele><time>2026-04-20T13:16:54.765Z</time></trkpt><trkpt lat="39.9844883" lon="8.527115"><ele>3.0</ele><time>2026-04-20T13:16:55.765Z</time></trkpt><trkpt lat="39.9843433" lon="8.5269817"><ele>3.0</ele><time>2026-04-20T13:16:57.765Z</time></trkpt><trkpt lat="39.9842633" lon="8.526915"><ele>3.0</ele><time>2026-04-20T13:16:58.765Z</time></trkpt><trkpt lat="39.9841833" lon="8.5268517"><ele>3.0</ele><time>2026-04-20T13:16:59.765Z</time></trkpt><trkpt lat="39.9841" lon="8.5267883"><ele>3.0</ele><time>2026-04-20T13:17:00.765Z</time></trkpt><trkpt lat="39.984025" lon="8.526725"><ele>3.0</ele><time>2026-04-20T13:17:01.765Z</time></trkpt><trkpt lat="39.9839533" lon="8.52666"><ele>3.0</ele><time>2026-04-20T13:17:02.765Z</time></trkpt><trkpt lat="39.983875" lon="8.5265967"><ele>2.6</ele><time>2026-04-20T13:17:03.765Z</time></trkpt><trkpt lat="39.9837917" lon="8.5265317"><ele>2.1999999999999997</ele><time>2026-04-20T13:17:04.765Z</time></trkpt><trkpt lat="39.9837083" lon="8.5264617"><ele>1.8</ele><time>2026-04-20T13:17:05.765Z</time></trkpt><trkpt lat="39.98362" lon="8.5263933"><ele>1.4</ele><time>2026-04-20T13:17:06.765Z</time></trkpt><trkpt lat="39.983535" lon="8.5263233"><ele>1.0</ele><time>2026-04-20T13:17:07.765Z</time></trkpt><trkpt lat="39.983445" lon="8.5262483"><ele>0.8</ele><time>2026-04-20T13:17:08.765Z</time></trkpt><trkpt lat="39.9833583" lon="8.5261717"><ele>0.6000000000000001</ele><time>2026-04-20T13:17:09.765Z</time></trkpt><trkpt lat="39.9832683" lon="8.5260933"><ele>0.4</ele><time>2026-04-20T13:17:10.766Z</time></trkpt><trkpt lat="39.983175" lon="8.526015"><ele>0.2</ele><time>2026-04-20T13:17:11.765Z</time></trkpt><trkpt lat="39.9830767" lon="8.525935"><ele>0.0</ele><time>2026-04-20T13:17:12.765Z</time></trkpt><trkpt lat="39.9829817" lon="8.5258583"><ele>0.5</ele><time>2026-04-20T13:17:13.765Z</time></trkpt><trkpt lat="39.9828883" lon="8.52578"><ele>1.0</ele><time>2026-04-20T13:17:14.765Z</time></trkpt><trkpt lat="39.9827933" lon="8.5257"><ele>1.5</ele><time>2026-04-20T13:17:15.765Z</time></trkpt><trkpt lat="39.9827017" lon="8.5256117"><ele>2.0</ele><time>2026-04-20T13:17:16.766Z</time></trkpt><trkpt lat="39.9825233" lon="8.5254383"><ele>1.6</ele><time>2026-04-20T13:17:18.765Z</time></trkpt><trkpt lat="39.9824383" lon="8.52535"><ele>1.2000000000000002</ele><time>2026-04-20T13:17:19.765Z</time></trkpt><trkpt lat="39.9823567" lon="8.525255"><ele>0.8</ele><time>2026-04-20T13:17:20.765Z</time></trkpt><trkpt lat="39.982275" lon="8.5251617"><ele>0.4</ele><time>2026-04-20T13:17:21.765Z</time></trkpt><trkpt lat="39.982195" lon="8.52507"><ele>0.0</ele><time>2026-04-20T13:17:22.766Z</time></trkpt><trkpt lat="39.982115" lon="8.5249917"><ele>0.0</ele><time>2026-04-20T13:17:23.765Z</time></trkpt><trkpt lat="39.982035" lon="8.5249033"><ele>0.0</ele><time>2026-04-20T13:17:24.765Z</time></trkpt><trkpt lat="39.9819533" lon="8.5248133"><ele>0.0</ele><time>2026-04-20T13:17:25.765Z</time></trkpt><trkpt lat="39.9818733" lon="8.524725"><ele>0.0</ele><time>2026-04-20T13:17:26.765Z</time></trkpt><trkpt lat="39.9817967" lon="8.5246367"><ele>0.0</ele><time>2026-04-20T13:17:27.766Z</time></trkpt><trkpt lat="39.98172" lon="8.5245517"><ele>0.8</ele><time>2026-04-20T13:17:28.766Z</time></trkpt><trkpt lat="39.981645" lon="8.5244633"><ele>1.6</ele><time>2026-04-20T13:17:29.765Z</time></trkpt><trkpt lat="39.9815667" lon="8.5243733"><ele>2.4000000000000004</ele><time>2026-04-20T13:17:30.765Z</time></trkpt><trkpt lat="39.9814833" lon="8.524285"><ele>3.2</ele><time>2026-04-20T13:17:31.765Z</time></trkpt><trkpt lat="39.9814033" lon="8.5241967"><ele>4.0</ele><time>2026-04-20T13:17:32.765Z</time></trkpt><trkpt lat="39.9813217" lon="8.5241067"><ele>4.0</ele><time>2026-04-20T13:17:33.765Z</time></trkpt><trkpt lat="39.9812383" lon="8.5240233"><ele>4.0</ele><time>2026-04-20T13:17:34.766Z</time></trkpt><trkpt lat="39.9811567" lon="8.523945"><ele>4.0</ele><time>2026-04-20T13:17:35.765Z</time></trkpt><trkpt lat="39.981075" lon="8.52386"><ele>4.0</ele><time>2026-04-20T13:17:36.765Z</time></trkpt><trkpt lat="39.980995" lon="8.52378"><ele>4.0</ele><time>2026-04-20T13:17:37.766Z</time></trkpt><trkpt lat="39.9808367" lon="8.5236183"><ele>4.0</ele><time>2026-04-20T13:17:39.765Z</time></trkpt><trkpt lat="39.9807517" lon="8.5235367"><ele>4.0</ele><time>2026-04-20T13:17:40.765Z</time></trkpt><trkpt lat="39.9806633" lon="8.5234533"><ele>4.0</ele><time>2026-04-20T13:17:41.766Z</time></trkpt><trkpt lat="39.9805783" lon="8.5233767"><ele>4.0</ele><time>2026-04-20T13:17:42.766Z</time></trkpt><trkpt lat="39.9804917" lon="8.5232917"><ele>4.0</ele><time>2026-04-20T13:17:43.765Z</time></trkpt><trkpt lat="39.98041" lon="8.5232133"><ele>4.0</ele><time>2026-04-20T13:17:44.766Z</time></trkpt><trkpt lat="39.9803167" lon="8.5231383"><ele>4.0</ele><time>2026-04-20T13:17:45.765Z</time></trkpt><trkpt lat="39.98023" lon="8.523065"><ele>4.0</ele><time>2026-04-20T13:17:46.765Z</time></trkpt><trkpt lat="39.9801417" lon="8.5229917"><ele>4.0</ele><time>2026-04-20T13:17:47.765Z</time></trkpt><trkpt lat="39.9800617" lon="8.5229217"><ele>4.0</ele><time>2026-04-20T13:17:48.765Z</time></trkpt><trkpt lat="39.979975" lon="8.522855"><ele>4.0</ele><time>2026-04-20T13:17:49.765Z</time></trkpt><trkpt lat="39.9798883" lon="8.5227883"><ele>4.0</ele><time>2026-04-20T13:17:50.765Z</time></trkpt><trkpt lat="39.9797983" lon="8.5227167"><ele>4.0</ele><time>2026-04-20T13:17:51.765Z</time></trkpt><trkpt lat="39.9797133" lon="8.522645"><ele>4.0</ele><time>2026-04-20T13:17:52.765Z</time></trkpt><trkpt lat="39.9796233" lon="8.5225767"><ele>4.0</ele><time>2026-04-20T13:17:53.766Z</time></trkpt><trkpt lat="39.9795383" lon="8.5225117"><ele>4.0</ele><time>2026-04-20T13:17:54.765Z</time></trkpt><trkpt lat="39.9794483" lon="8.52244"><ele>4.0</ele><time>2026-04-20T13:17:55.765Z</time></trkpt><trkpt lat="39.97935" lon="8.5223767"><ele>4.0</ele><time>2026-04-20T13:17:56.766Z</time></trkpt><trkpt lat="39.9792567" lon="8.5223117"><ele>4.0</ele><time>2026-04-20T13:17:57.765Z</time></trkpt><trkpt lat="39.9791617" lon="8.5222433"><ele>4.0</ele><time>2026-04-20T13:17:58.765Z</time></trkpt><trkpt lat="39.978985" lon="8.52212"><ele>3.6</ele><time>2026-04-20T13:18:00.765Z</time></trkpt><trkpt lat="39.9789" lon="8.5220467"><ele>3.2</ele><time>2026-04-20T13:18:01.765Z</time></trkpt><trkpt lat="39.9788233" lon="8.52196"><ele>2.8000000000000003</ele><time>2026-04-20T13:18:02.765Z</time></trkpt><trkpt lat="39.9787417" lon="8.5218783"><ele>2.4000000000000004</ele><time>2026-04-20T13:18:03.765Z</time></trkpt><trkpt lat="39.978655" lon="8.521795"><ele>2.0</ele><time>2026-04-20T13:18:04.765Z</time></trkpt><trkpt lat="39.9785767" lon="8.5217"><ele>2.0</ele><time>2026-04-20T13:18:05.766Z</time></trkpt><trkpt lat="39.9784967" lon="8.5216117"><ele>2.0</ele><time>2026-04-20T13:18:06.765Z</time></trkpt><trkpt lat="39.978415" lon="8.5215217"><ele>2.0</ele><time>2026-04-20T13:18:07.765Z</time></trkpt><trkpt lat="39.9783333" lon="8.52143"><ele>2.0</ele><time>2026-04-20T13:18:08.765Z</time></trkpt><trkpt lat="39.9782533" lon="8.5213383"><ele>2.0</ele><time>2026-04-20T13:18:09.765Z</time></trkpt><trkpt lat="39.9781783" lon="8.5212517"><ele>1.8</ele><time>2026-04-20T13:18:10.766Z</time></trkpt><trkpt lat="39.9780983" lon="8.5211733"><ele>1.6</ele><time>2026-04-20T13:18:11.765Z</time></trkpt><trkpt lat="39.9780233" lon="8.5210867"><ele>1.4000000000000001</ele><time>2026-04-20T13:18:12.766Z</time></trkpt><trkpt lat="39.977955" lon="8.5210083"><ele>1.2000000000000002</ele><time>2026-04-20T13:18:13.765Z</time></trkpt><trkpt lat="39.9778783" lon="8.5209233"><ele>1.0</ele><time>2026-04-20T13:18:14.765Z</time></trkpt><trkpt lat="39.9778017" lon="8.5208433"><ele>1.0</ele><time>2026-04-20T13:18:15.765Z</time></trkpt><trkpt lat="39.9777233" lon="8.5207633"><ele>1.0</ele><time>2026-04-20T13:18:16.765Z</time></trkpt><trkpt lat="39.97765" lon="8.520675"><ele>1.0</ele><time>2026-04-20T13:18:17.765Z</time></trkpt><trkpt lat="39.9775733" lon="8.5205983"><ele>1.0</ele><time>2026-04-20T13:18:18.765Z</time></trkpt><trkpt lat="39.9774933" lon="8.5205133"><ele>1.0</ele><time>2026-04-20T13:18:19.765Z</time></trkpt><trkpt lat="39.97734" lon="8.5203417"><ele>1.2000000000000002</ele><time>2026-04-20T13:18:21.765Z</time></trkpt><trkpt lat="39.9772633" lon="8.5202567"><ele>1.4000000000000001</ele><time>2026-04-20T13:18:22.765Z</time></trkpt><trkpt lat="39.9771917" lon="8.52017"><ele>1.6</ele><time>2026-04-20T13:18:23.765Z</time></trkpt><trkpt lat="39.9771433" lon="8.5200633"><ele>1.8</ele><time>2026-04-20T13:18:24.765Z</time></trkpt><trkpt lat="39.97711" lon="8.51995"><ele>2.0</ele><time>2026-04-20T13:18:25.765Z</time></trkpt><trkpt lat="39.9770667" lon="8.51984"><ele>2.0</ele><time>2026-04-20T13:18:26.765Z</time></trkpt><trkpt lat="39.9770067" lon="8.5197383"><ele>2.0</ele><time>2026-04-20T13:18:27.765Z</time></trkpt><trkpt lat="39.9769233" lon="8.51966"><ele>2.0</ele><time>2026-04-20T13:18:28.765Z</time></trkpt><trkpt lat="39.9768333" lon="8.5195983"><ele>2.0</ele><time>2026-04-20T13:18:29.765Z</time></trkpt><trkpt lat="39.9767367" lon="8.5195367"><ele>2.0</ele><time>2026-04-20T13:18:30.766Z</time></trkpt><trkpt lat="39.9766383" lon="8.5194733"><ele>2.2</ele><time>2026-04-20T13:18:31.765Z</time></trkpt><trkpt lat="39.97653" lon="8.519415"><ele>2.4000000000000004</ele><time>2026-04-20T13:18:32.765Z</time></trkpt><trkpt lat="39.97643" lon="8.5193617"><ele>2.5999999999999996</ele><time>2026-04-20T13:18:33.765Z</time></trkpt><trkpt lat="39.9763283" lon="8.5193"><ele>2.8</ele><time>2026-04-20T13:18:34.765Z</time></trkpt><trkpt lat="39.9762283" lon="8.519235"><ele>3.0</ele><time>2026-04-20T13:18:35.765Z</time></trkpt><trkpt lat="39.9761217" lon="8.5191617"><ele>3.0</ele><time>2026-04-20T13:18:36.766Z</time></trkpt><trkpt lat="39.9760267" lon="8.5190833"><ele>3.0</ele><time>2026-04-20T13:18:37.766Z</time></trkpt><trkpt lat="39.9759333" lon="8.5189983"><ele>3.0</ele><time>2026-04-20T13:18:38.765Z</time></trkpt><trkpt lat="39.9758433" lon="8.5189033"><ele>3.0</ele><time>2026-04-20T13:18:39.765Z</time></trkpt><trkpt lat="39.9757617" lon="8.518795"><ele>2.5</ele><time>2026-04-20T13:18:40.765Z</time></trkpt><trkpt lat="39.975625" lon="8.5185683"><ele>2.0</ele><time>2026-04-20T13:18:42.765Z</time></trkpt><trkpt lat="39.9755717" lon="8.518445"><ele>1.5</ele><time>2026-04-20T13:18:43.765Z</time></trkpt><trkpt lat="39.97552" lon="8.5183167"><ele>1.0</ele><time>2026-04-20T13:18:44.765Z</time></trkpt><trkpt lat="39.97547" lon="8.5181883"><ele>1.0</ele><time>2026-04-20T13:18:45.765Z</time></trkpt><trkpt lat="39.9754183" lon="8.5180683"><ele>1.0</ele><time>2026-04-20T13:18:46.765Z</time></trkpt><trkpt lat="39.9753667" lon="8.5179467"><ele>1.0</ele><time>2026-04-20T13:18:47.765Z</time></trkpt><trkpt lat="39.9753183" lon="8.5178233"><ele>1.0</ele><time>2026-04-20T13:18:48.765Z</time></trkpt><trkpt lat="39.97527" lon="8.5176983"><ele>1.0</ele><time>2026-04-20T13:18:49.765Z</time></trkpt><trkpt lat="39.9752183" lon="8.5175767"><ele>0.8</ele><time>2026-04-20T13:18:50.766Z</time></trkpt><trkpt lat="39.9751667" lon="8.51746"><ele>0.6000000000000001</ele><time>2026-04-20T13:18:51.766Z</time></trkpt><trkpt lat="39.9751083" lon="8.5173417"><ele>0.4</ele><time>2026-04-20T13:18:52.765Z</time></trkpt><trkpt lat="39.9750383" lon="8.51723"><ele>0.2</ele><time>2026-04-20T13:18:53.766Z</time></trkpt><trkpt lat="39.9749717" lon="8.51712"><ele>0.0</ele><time>2026-04-20T13:18:54.765Z</time></trkpt><trkpt lat="39.9748917" lon="8.5170083"><ele>0.0</ele><time>2026-04-20T13:18:55.766Z</time></trkpt><trkpt lat="39.9748117" lon="8.516905"><ele>0.0</ele><time>2026-04-20T13:18:56.765Z</time></trkpt><trkpt lat="39.974735" lon="8.5168133"><ele>0.0</ele><time>2026-04-20T13:18:57.765Z</time></trkpt><trkpt lat="39.9746483" lon="8.516725"><ele>0.0</ele><time>2026-04-20T13:18:58.765Z</time></trkpt><trkpt lat="39.9745567" lon="8.51664"><ele>0.0</ele><time>2026-04-20T13:18:59.765Z</time></trkpt><trkpt lat="39.9744667" lon="8.5165633"><ele>0.0</ele><time>2026-04-20T13:19:00.766Z</time></trkpt><trkpt lat="39.9743733" lon="8.5164967"><ele>0.0</ele><time>2026-04-20T13:19:01.765Z</time></trkpt><trkpt lat="39.9741867" lon="8.5163517"><ele>0.0</ele><time>2026-04-20T13:19:03.766Z</time></trkpt><trkpt lat="39.974095" lon="8.5162717"><ele>0.0</ele><time>2026-04-20T13:19:04.765Z</time></trkpt><trkpt lat="39.974005" lon="8.5162067"><ele>0.0</ele><time>2026-04-20T13:19:05.765Z</time></trkpt><trkpt lat="39.9739133" lon="8.5161333"><ele>0.0</ele><time>2026-04-20T13:19:06.765Z</time></trkpt><trkpt lat="39.9738217" lon="8.5160633"><ele>0.0</ele><time>2026-04-20T13:19:07.765Z</time></trkpt><trkpt lat="39.9737283" lon="8.5159867"><ele>0.0</ele><time>2026-04-20T13:19:08.765Z</time></trkpt><trkpt lat="39.9736367" lon="8.5159133"><ele>0.0</ele><time>2026-04-20T13:19:09.765Z</time></trkpt><trkpt lat="39.9735433" lon="8.515835"><ele>0.0</ele><time>2026-04-20T13:19:10.765Z</time></trkpt><trkpt lat="39.9734483" lon="8.5157617"><ele>0.0</ele><time>2026-04-20T13:19:11.766Z</time></trkpt><trkpt lat="39.973355" lon="8.515685"><ele>0.0</ele><time>2026-04-20T13:19:12.765Z</time></trkpt><trkpt lat="39.9732583" lon="8.5156167"><ele>0.0</ele><time>2026-04-20T13:19:13.765Z</time></trkpt><trkpt lat="39.9731567" lon="8.51555"><ele>0.0</ele><time>2026-04-20T13:19:14.766Z</time></trkpt><trkpt lat="39.97306" lon="8.515495"><ele>0.2</ele><time>2026-04-20T13:19:15.765Z</time></trkpt><trkpt lat="39.9729617" lon="8.5154467"><ele>0.4</ele><time>2026-04-20T13:19:16.765Z</time></trkpt><trkpt lat="39.9728617" lon="8.5153983"><ele>0.6000000000000001</ele><time>2026-04-20T13:19:17.766Z</time></trkpt><trkpt lat="39.9727617" lon="8.51536"><ele>0.8</ele><time>2026-04-20T13:19:18.766Z</time></trkpt><trkpt lat="39.9726567" lon="8.5153317"><ele>1.0</ele><time>2026-04-20T13:19:19.765Z</time></trkpt><trkpt lat="39.9725533" lon="8.515305"><ele>1.25</ele><time>2026-04-20T13:19:20.765Z</time></trkpt><trkpt lat="39.9724533" lon="8.51528"><ele>1.5</ele><time>2026-04-20T13:19:21.765Z</time></trkpt><trkpt lat="39.9723467" lon="8.515255"><ele>1.75</ele><time>2026-04-20T13:19:22.765Z</time></trkpt><trkpt lat="39.9721367" lon="8.515195"><ele>2.0</ele><time>2026-04-20T13:19:24.765Z</time></trkpt><trkpt lat="39.97203" lon="8.5151617"><ele>2.0</ele><time>2026-04-20T13:19:25.765Z</time></trkpt><trkpt lat="39.9719267" lon="8.5151233"><ele>2.0</ele><time>2026-04-20T13:19:26.765Z</time></trkpt><trkpt lat="39.9718267" lon="8.51508"><ele>2.0</ele><time>2026-04-20T13:19:27.765Z</time></trkpt><trkpt lat="39.97173" lon="8.5150333"><ele>2.0</ele><time>2026-04-20T13:19:28.766Z</time></trkpt><trkpt lat="39.9716317" lon="8.51499"><ele>2.0</ele><time>2026-04-20T13:19:29.765Z</time></trkpt><trkpt lat="39.9715333" lon="8.5149417"><ele>1.8</ele><time>2026-04-20T13:19:30.765Z</time></trkpt><trkpt lat="39.971435" lon="8.5149033"><ele>1.6</ele><time>2026-04-20T13:19:31.765Z</time></trkpt><trkpt lat="39.9713383" lon="8.5148617"><ele>1.4000000000000001</ele><time>2026-04-20T13:19:32.765Z</time></trkpt><trkpt lat="39.97124" lon="8.5148183"><ele>1.2000000000000002</ele><time>2026-04-20T13:19:33.765Z</time></trkpt><trkpt lat="39.9711383" lon="8.51477"><ele>1.0</ele><time>2026-04-20T13:19:34.765Z</time></trkpt><trkpt lat="39.9710333" lon="8.5147183"><ele>1.0</ele><time>2026-04-20T13:19:35.765Z</time></trkpt><trkpt lat="39.97093" lon="8.51467"><ele>1.0</ele><time>2026-04-20T13:19:36.765Z</time></trkpt><trkpt lat="39.970825" lon="8.514625"><ele>1.0</ele><time>2026-04-20T13:19:37.765Z</time></trkpt><trkpt lat="39.97073" lon="8.5145733"><ele>1.0</ele><time>2026-04-20T13:19:38.765Z</time></trkpt><trkpt lat="39.970635" lon="8.514525"><ele>1.0</ele><time>2026-04-20T13:19:39.765Z</time></trkpt><trkpt lat="39.9705383" lon="8.514475"><ele>1.0</ele><time>2026-04-20T13:19:40.765Z</time></trkpt><trkpt lat="39.9704367" lon="8.5144283"><ele>1.0</ele><time>2026-04-20T13:19:41.765Z</time></trkpt><trkpt lat="39.97034" lon="8.514385"><ele>1.0</ele><time>2026-04-20T13:19:42.765Z</time></trkpt><trkpt lat="39.970235" lon="8.5143383"><ele>1.0</ele><time>2026-04-20T13:19:43.765Z</time></trkpt><trkpt lat="39.9700367" lon="8.51424"><ele>1.0</ele><time>2026-04-20T13:19:45.765Z</time></trkpt><trkpt lat="39.9699317" lon="8.5141917"><ele>1.0</ele><time>2026-04-20T13:19:46.765Z</time></trkpt><trkpt lat="39.9698317" lon="8.5141417"><ele>1.0</ele><time>2026-04-20T13:19:47.765Z</time></trkpt><trkpt lat="39.96973" lon="8.5140933"><ele>1.0</ele><time>2026-04-20T13:19:48.765Z</time></trkpt><trkpt lat="39.96963" lon="8.514045"><ele>1.0</ele><time>2026-04-20T13:19:49.766Z</time></trkpt><trkpt lat="39.9695333" lon="8.5139983"><ele>1.0</ele><time>2026-04-20T13:19:50.765Z</time></trkpt><trkpt lat="39.9694317" lon="8.51395"><ele>1.0</ele><time>2026-04-20T13:19:51.765Z</time></trkpt><trkpt lat="39.9693283" lon="8.5139033"><ele>1.0</ele><time>2026-04-20T13:19:52.766Z</time></trkpt><trkpt lat="39.96923" lon="8.513855"><ele>1.0</ele><time>2026-04-20T13:19:53.765Z</time></trkpt><trkpt lat="39.969125" lon="8.5138083"><ele>1.0</ele><time>2026-04-20T13:19:54.765Z</time></trkpt><trkpt lat="39.9690183" lon="8.51376"><ele>1.0</ele><time>2026-04-20T13:19:55.765Z</time></trkpt><trkpt lat="39.9689167" lon="8.5137083"><ele>1.0</ele><time>2026-04-20T13:19:56.765Z</time></trkpt><trkpt lat="39.9688183" lon="8.513665"><ele>1.0</ele><time>2026-04-20T13:19:57.765Z</time></trkpt><trkpt lat="39.968715" lon="8.5136167"><ele>1.0</ele><time>2026-04-20T13:19:58.765Z</time></trkpt><trkpt lat="39.9686133" lon="8.5135717"><ele>1.0</ele><time>2026-04-20T13:19:59.765Z</time></trkpt><trkpt lat="39.9685117" lon="8.5135183"><ele>1.0</ele><time>2026-04-20T13:20:00.765Z</time></trkpt><trkpt lat="39.9684133" lon="8.5134667"><ele>1.0</ele><time>2026-04-20T13:20:01.765Z</time></trkpt><trkpt lat="39.96831" lon="8.5134133"><ele>1.0</ele><time>2026-04-20T13:20:02.765Z</time></trkpt><trkpt lat="39.96821" lon="8.51337"><ele>1.0</ele><time>2026-04-20T13:20:03.765Z</time></trkpt><trkpt lat="39.9681133" lon="8.5133267"><ele>1.0</ele><time>2026-04-20T13:20:04.765Z</time></trkpt><trkpt lat="39.9679183" lon="8.5132283"><ele>1.0</ele><time>2026-04-20T13:20:06.765Z</time></trkpt><trkpt lat="39.96782" lon="8.5131783"><ele>1.0</ele><time>2026-04-20T13:20:07.765Z</time></trkpt><trkpt lat="39.96772" lon="8.5131333"><ele>1.0</ele><time>2026-04-20T13:20:08.765Z</time></trkpt><trkpt lat="39.9676217" lon="8.5130967"><ele>1.0</ele><time>2026-04-20T13:20:09.765Z</time></trkpt><trkpt lat="39.96751" lon="8.5130667"><ele>1.0</ele><time>2026-04-20T13:20:10.765Z</time></trkpt><trkpt lat="39.9674" lon="8.5130517"><ele>1.0</ele><time>2026-04-20T13:20:11.766Z</time></trkpt><trkpt lat="39.967295" lon="8.51305"><ele>1.0</ele><time>2026-04-20T13:20:12.765Z</time></trkpt><trkpt lat="39.9671867" lon="8.51306"><ele>1.0</ele><time>2026-04-20T13:20:13.765Z</time></trkpt><trkpt lat="39.9670767" lon="8.51307"><ele>1.0</ele><time>2026-04-20T13:20:14.765Z</time></trkpt><trkpt lat="39.9669783" lon="8.51309"><ele>1.0</ele><time>2026-04-20T13:20:15.765Z</time></trkpt><trkpt lat="39.9668767" lon="8.5131083"><ele>1.0</ele><time>2026-04-20T13:20:16.765Z</time></trkpt><trkpt lat="39.966775" lon="8.513135"><ele>1.0</ele><time>2026-04-20T13:20:17.766Z</time></trkpt><trkpt lat="39.9666783" lon="8.51319"><ele>1.0</ele><time>2026-04-20T13:20:18.765Z</time></trkpt><trkpt lat="39.9665917" lon="8.5132583"><ele>1.0</ele><time>2026-04-20T13:20:19.765Z</time></trkpt><trkpt lat="39.9665117" lon="8.5133417"><ele>1.0</ele><time>2026-04-20T13:20:20.765Z</time></trkpt><trkpt lat="39.9664283" lon="8.5134117"><ele>1.0</ele><time>2026-04-20T13:20:21.765Z</time></trkpt><trkpt lat="39.96635" lon="8.513485"><ele>1.0</ele><time>2026-04-20T13:20:22.765Z</time></trkpt><trkpt lat="39.9662633" lon="8.513565"><ele>1.0</ele><time>2026-04-20T13:20:23.765Z</time></trkpt><trkpt lat="39.9661783" lon="8.5136483"><ele>1.0</ele><time>2026-04-20T13:20:24.765Z</time></trkpt><trkpt lat="39.9660967" lon="8.5137367"><ele>1.0</ele><time>2026-04-20T13:20:25.765Z</time></trkpt><trkpt lat="39.9659317" lon="8.5139117"><ele>1.0</ele><time>2026-04-20T13:20:27.765Z</time></trkpt><trkpt lat="39.9658467" lon="8.5140067"><ele>1.0</ele><time>2026-04-20T13:20:28.765Z</time></trkpt><trkpt lat="39.965765" lon="8.5141067"><ele>1.0</ele><time>2026-04-20T13:20:29.766Z</time></trkpt><trkpt lat="39.9656817" lon="8.5142067"><ele>1.0</ele><time>2026-04-20T13:20:30.765Z</time></trkpt><trkpt lat="39.9656033" lon="8.5143083"><ele>1.0</ele><time>2026-04-20T13:20:31.765Z</time></trkpt><trkpt lat="39.9655167" lon="8.514405"><ele>1.0</ele><time>2026-04-20T13:20:32.765Z</time></trkpt><trkpt lat="39.965435" lon="8.5145117"><ele>1.0</ele><time>2026-04-20T13:20:33.765Z</time></trkpt><trkpt lat="39.96535" lon="8.51461"><ele>1.0</ele><time>2026-04-20T13:20:34.765Z</time></trkpt><trkpt lat="39.9652717" lon="8.5147183"><ele>1.0</ele><time>2026-04-20T13:20:35.765Z</time></trkpt><trkpt lat="39.9651867" lon="8.5148233"><ele>1.0</ele><time>2026-04-20T13:20:36.766Z</time></trkpt><trkpt lat="39.9651" lon="8.5149267"><ele>1.0</ele><time>2026-04-20T13:20:37.765Z</time></trkpt><trkpt lat="39.9650133" lon="8.5150333"><ele>1.0</ele><time>2026-04-20T13:20:38.765Z</time></trkpt><trkpt lat="39.9649317" lon="8.5151417"><ele>1.0</ele><time>2026-04-20T13:20:39.765Z</time></trkpt><trkpt lat="39.9648533" lon="8.5152433"><ele>1.0</ele><time>2026-04-20T13:20:40.765Z</time></trkpt><trkpt lat="39.9647733" lon="8.5153517"><ele>1.0</ele><time>2026-04-20T13:20:41.765Z</time></trkpt><trkpt lat="39.964695" lon="8.515455"><ele>1.0</ele><time>2026-04-20T13:20:42.765Z</time></trkpt><trkpt lat="39.964615" lon="8.515555"><ele>1.0</ele><time>2026-04-20T13:20:43.765Z</time></trkpt><trkpt lat="39.9645333" lon="8.5156583"><ele>1.0</ele><time>2026-04-20T13:20:44.765Z</time></trkpt><trkpt lat="39.964455" lon="8.515755"><ele>1.0</ele><time>2026-04-20T13:20:45.765Z</time></trkpt><trkpt lat="39.96438" lon="8.51586"><ele>1.0</ele><time>2026-04-20T13:20:46.766Z</time></trkpt><trkpt lat="39.9642183" lon="8.5160567"><ele>1.0</ele><time>2026-04-20T13:20:48.765Z</time></trkpt><trkpt lat="39.964145" lon="8.5161583"><ele>1.4</ele><time>2026-04-20T13:20:49.765Z</time></trkpt><trkpt lat="39.9640717" lon="8.51626"><ele>1.8</ele><time>2026-04-20T13:20:50.766Z</time></trkpt><trkpt lat="39.963995" lon="8.516355"><ele>2.1999999999999997</ele><time>2026-04-20T13:20:51.765Z</time></trkpt><trkpt lat="39.9639167" lon="8.5164533"><ele>2.6</ele><time>2026-04-20T13:20:52.765Z</time></trkpt><trkpt lat="39.963835" lon="8.5165367"><ele>3.0</ele><time>2026-04-20T13:20:53.765Z</time></trkpt><trkpt lat="39.9637433" lon="8.5166117"><ele>3.0</ele><time>2026-04-20T13:20:54.765Z</time></trkpt><trkpt lat="39.96365" lon="8.5166733"><ele>3.0</ele><time>2026-04-20T13:20:55.765Z</time></trkpt><trkpt lat="39.9635517" lon="8.516715"><ele>3.0</ele><time>2026-04-20T13:20:56.765Z</time></trkpt><trkpt lat="39.9634567" lon="8.5167367"><ele>3.0</ele><time>2026-04-20T13:20:57.765Z</time></trkpt><trkpt lat="39.96336" lon="8.516745"><ele>3.0</ele><time>2026-04-20T13:20:58.765Z</time></trkpt><trkpt lat="39.9632633" lon="8.5167433"><ele>3.0</ele><time>2026-04-20T13:20:59.765Z</time></trkpt><trkpt lat="39.96316" lon="8.516725"><ele>3.0</ele><time>2026-04-20T13:21:00.765Z</time></trkpt><trkpt lat="39.963055" lon="8.5167"><ele>3.0</ele><time>2026-04-20T13:21:01.765Z</time></trkpt><trkpt lat="39.9629533" lon="8.516675"><ele>3.0</ele><time>2026-04-20T13:21:02.765Z</time></trkpt><trkpt lat="39.962855" lon="8.516655"><ele>3.0</ele><time>2026-04-20T13:21:03.765Z</time></trkpt><trkpt lat="39.9627533" lon="8.516645"><ele>3.0</ele><time>2026-04-20T13:21:04.765Z</time></trkpt><trkpt lat="39.9626517" lon="8.5166483"><ele>3.0</ele><time>2026-04-20T13:21:05.765Z</time></trkpt><trkpt lat="39.9625567" lon="8.516665"><ele>3.0</ele><time>2026-04-20T13:21:06.765Z</time></trkpt><trkpt lat="39.9624583" lon="8.5166933"><ele>3.0</ele><time>2026-04-20T13:21:07.765Z</time></trkpt><trkpt lat="39.9622617" lon="8.51678"><ele>3.0</ele><time>2026-04-20T13:21:09.765Z</time></trkpt><trkpt lat="39.9621667" lon="8.516825"><ele>3.0</ele><time>2026-04-20T13:21:10.765Z</time></trkpt><trkpt lat="39.9620667" lon="8.5168767"><ele>3.0</ele><time>2026-04-20T13:21:11.765Z</time></trkpt><trkpt lat="39.9619683" lon="8.51693"><ele>3.0</ele><time>2026-04-20T13:21:12.765Z</time></trkpt><trkpt lat="39.9618667" lon="8.5169667"><ele>3.0</ele><time>2026-04-20T13:21:13.766Z</time></trkpt><trkpt lat="39.9617733" lon="8.5170067"><ele>2.6</ele><time>2026-04-20T13:21:14.765Z</time></trkpt><trkpt lat="39.961675" lon="8.517035"><ele>2.1999999999999997</ele><time>2026-04-20T13:21:15.766Z</time></trkpt><trkpt lat="39.9615783" lon="8.51705"><ele>1.8</ele><time>2026-04-20T13:21:16.765Z</time></trkpt><trkpt lat="39.961485" lon="8.5170617"><ele>1.4</ele><time>2026-04-20T13:21:17.765Z</time></trkpt><trkpt lat="39.96139" lon="8.517065"><ele>1.0</ele><time>2026-04-20T13:21:18.766Z</time></trkpt><trkpt lat="39.9612917" lon="8.517075"><ele>1.0</ele><time>2026-04-20T13:21:19.765Z</time></trkpt><trkpt lat="39.961195" lon="8.5170833"><ele>1.0</ele><time>2026-04-20T13:21:20.764Z</time></trkpt><trkpt lat="39.961095" lon="8.5170933"><ele>1.0</ele><time>2026-04-20T13:21:21.764Z</time></trkpt><trkpt lat="39.9609883" lon="8.517105"><ele>1.0</ele><time>2026-04-20T13:21:22.764Z</time></trkpt><trkpt lat="39.96089" lon="8.5171167"><ele>1.0</ele><time>2026-04-20T13:21:23.764Z</time></trkpt><trkpt lat="39.9607917" lon="8.5171333"><ele>1.4</ele><time>2026-04-20T13:21:24.765Z</time></trkpt><trkpt lat="39.9606933" lon="8.5171483"><ele>1.8</ele><time>2026-04-20T13:21:25.765Z</time></trkpt><trkpt lat="39.96059" lon="8.5171717"><ele>2.1999999999999997</ele><time>2026-04-20T13:21:26.764Z</time></trkpt><trkpt lat="39.960495" lon="8.5171983"><ele>2.6</ele><time>2026-04-20T13:21:27.764Z</time></trkpt><trkpt lat="39.9604067" lon="8.51724"><ele>3.0</ele><time>2026-04-20T13:21:28.764Z</time></trkpt><trkpt lat="39.960245" lon="8.51736"><ele>3.0</ele><time>2026-04-20T13:21:30.764Z</time></trkpt><trkpt lat="39.9601717" lon="8.5174217"><ele>3.0</ele><time>2026-04-20T13:21:31.764Z</time></trkpt><trkpt lat="39.9600983" lon="8.5174983"><ele>3.0</ele><time>2026-04-20T13:21:32.764Z</time></trkpt><trkpt lat="39.9600233" lon="8.5175783"><ele>3.0</ele><time>2026-04-20T13:21:33.765Z</time></trkpt><trkpt lat="39.9599517" lon="8.517655"><ele>3.0</ele><time>2026-04-20T13:21:34.764Z</time></trkpt><trkpt lat="39.959885" lon="8.5177267"><ele>3.0</ele><time>2026-04-20T13:21:35.764Z</time></trkpt><trkpt lat="39.9598117" lon="8.5177883"><ele>3.0</ele><time>2026-04-20T13:21:36.764Z</time></trkpt><trkpt lat="39.9597367" lon="8.517845"><ele>3.0</ele><time>2026-04-20T13:21:37.764Z</time></trkpt><trkpt lat="39.9596617" lon="8.5178967"><ele>3.0</ele><time>2026-04-20T13:21:38.765Z</time></trkpt><trkpt lat="39.95959" lon="8.5179483"><ele>3.0</ele><time>2026-04-20T13:21:39.764Z</time></trkpt><trkpt lat="39.9595167" lon="8.5179967"><ele>3.0</ele><time>2026-04-20T13:21:40.764Z</time></trkpt><trkpt lat="39.9594367" lon="8.51805"><ele>3.0</ele><time>2026-04-20T13:21:41.764Z</time></trkpt><trkpt lat="39.959355" lon="8.5181067"><ele>3.0</ele><time>2026-04-20T13:21:42.764Z</time></trkpt><trkpt lat="39.95927" lon="8.5181633"><ele>3.0</ele><time>2026-04-20T13:21:43.764Z</time></trkpt><trkpt lat="39.95918" lon="8.5182183"><ele>3.0</ele><time>2026-04-20T13:21:44.764Z</time></trkpt><trkpt lat="39.9590933" lon="8.5182817"><ele>3.0</ele><time>2026-04-20T13:21:45.765Z</time></trkpt><trkpt lat="39.9590083" lon="8.5183483"><ele>2.5</ele><time>2026-04-20T13:21:46.764Z</time></trkpt><trkpt lat="39.9589217" lon="8.5184167"><ele>2.0</ele><time>2026-04-20T13:21:47.764Z</time></trkpt><trkpt lat="39.958845" lon="8.5184883"><ele>1.5</ele><time>2026-04-20T13:21:48.764Z</time></trkpt><trkpt lat="39.9587633" lon="8.51857"><ele>1.0</ele><time>2026-04-20T13:21:49.764Z</time></trkpt><trkpt lat="39.9586017" lon="8.5187083"><ele>1.2000000000000002</ele><time>2026-04-20T13:21:51.764Z</time></trkpt><trkpt lat="39.95852" lon="8.5187783"><ele>1.4000000000000001</ele><time>2026-04-20T13:21:52.764Z</time></trkpt><trkpt lat="39.9584433" lon="8.5188533"><ele>1.6</ele><time>2026-04-20T13:21:53.764Z</time></trkpt><trkpt lat="39.9583617" lon="8.518925"><ele>1.8</ele><time>2026-04-20T13:21:54.764Z</time></trkpt><trkpt lat="39.9582783" lon="8.5190017"><ele>2.0</ele><time>2026-04-20T13:21:55.764Z</time></trkpt><trkpt lat="39.9581983" lon="8.5190733"><ele>2.0</ele><time>2026-04-20T13:21:56.764Z</time></trkpt><trkpt lat="39.958115" lon="8.519145"><ele>2.0</ele><time>2026-04-20T13:21:57.764Z</time></trkpt><trkpt lat="39.9580383" lon="8.519225"><ele>2.0</ele><time>2026-04-20T13:21:58.765Z</time></trkpt><trkpt lat="39.957955" lon="8.5193"><ele>2.0</ele><time>2026-04-20T13:21:59.765Z</time></trkpt><trkpt lat="39.9578717" lon="8.5193667"><ele>2.0</ele><time>2026-04-20T13:22:00.764Z</time></trkpt><trkpt lat="39.9577867" lon="8.5194283"><ele>2.0</ele><time>2026-04-20T13:22:01.764Z</time></trkpt><trkpt lat="39.957695" lon="8.51947"><ele>2.0</ele><time>2026-04-20T13:22:02.764Z</time></trkpt><trkpt lat="39.957605" lon="8.5195"><ele>2.0</ele><time>2026-04-20T13:22:03.764Z</time></trkpt><trkpt lat="39.957505" lon="8.51951"><ele>2.0</ele><time>2026-04-20T13:22:04.764Z</time></trkpt><trkpt lat="39.9574033" lon="8.5195183"><ele>2.0</ele><time>2026-04-20T13:22:05.765Z</time></trkpt><trkpt lat="39.9573" lon="8.5195333"><ele>1.8</ele><time>2026-04-20T13:22:06.764Z</time></trkpt><trkpt lat="39.9571983" lon="8.51954"><ele>1.6</ele><time>2026-04-20T13:22:07.764Z</time></trkpt><trkpt lat="39.9570933" lon="8.5195433"><ele>1.4000000000000001</ele><time>2026-04-20T13:22:08.764Z</time></trkpt><trkpt lat="39.9569867" lon="8.5195467"><ele>1.2000000000000002</ele><time>2026-04-20T13:22:09.764Z</time></trkpt><trkpt lat="39.9568767" lon="8.5195517"><ele>1.0</ele><time>2026-04-20T13:22:10.764Z</time></trkpt><trkpt lat="39.9566583" lon="8.519565"><ele>0.8</ele><time>2026-04-20T13:22:12.764Z</time></trkpt><trkpt lat="39.9565467" lon="8.51957"><ele>0.6000000000000001</ele><time>2026-04-20T13:22:13.765Z</time></trkpt><trkpt lat="39.9564367" lon="8.519575"><ele>0.4</ele><time>2026-04-20T13:22:14.764Z</time></trkpt><trkpt lat="39.9563267" lon="8.5195833"><ele>0.2</ele><time>2026-04-20T13:22:15.764Z</time></trkpt><trkpt lat="39.95621" lon="8.5195883"><ele>0.0</ele><time>2026-04-20T13:22:16.764Z</time></trkpt><trkpt lat="39.9560967" lon="8.519595"><ele>0.0</ele><time>2026-04-20T13:22:17.765Z</time></trkpt><trkpt lat="39.955985" lon="8.5195983"><ele>0.0</ele><time>2026-04-20T13:22:18.764Z</time></trkpt><trkpt lat="39.9558717" lon="8.5196033"><ele>0.0</ele><time>2026-04-20T13:22:19.764Z</time></trkpt><trkpt lat="39.9557633" lon="8.5196083"><ele>0.0</ele><time>2026-04-20T13:22:20.764Z</time></trkpt><trkpt lat="39.9556583" lon="8.519615"><ele>0.0</ele><time>2026-04-20T13:22:21.764Z</time></trkpt><trkpt lat="39.9555633" lon="8.51962"><ele>0.2</ele><time>2026-04-20T13:22:22.764Z</time></trkpt><trkpt lat="39.95547" lon="8.5196233"><ele>0.4</ele><time>2026-04-20T13:22:23.764Z</time></trkpt><trkpt lat="39.9553767" lon="8.519625"><ele>0.6000000000000001</ele><time>2026-04-20T13:22:24.764Z</time></trkpt><trkpt lat="39.955285" lon="8.51963"><ele>0.8</ele><time>2026-04-20T13:22:25.764Z</time></trkpt><trkpt lat="39.9551933" lon="8.51963"><ele>1.0</ele><time>2026-04-20T13:22:26.764Z</time></trkpt><trkpt lat="39.9551017" lon="8.519635"><ele>1.0</ele><time>2026-04-20T13:22:27.764Z</time></trkpt><trkpt lat="39.9550083" lon="8.5196367"><ele>1.0</ele><time>2026-04-20T13:22:28.764Z</time></trkpt><trkpt lat="39.9549083" lon="8.5196417"><ele>1.0</ele><time>2026-04-20T13:22:29.764Z</time></trkpt><trkpt lat="39.954805" lon="8.51965"><ele>1.0</ele><time>2026-04-20T13:22:30.764Z</time></trkpt><trkpt lat="39.9547067" lon="8.5196633"><ele>1.0</ele><time>2026-04-20T13:22:31.765Z</time></trkpt><trkpt lat="39.9545083" lon="8.519665"><ele>1.0</ele><time>2026-04-20T13:22:33.764Z</time></trkpt><trkpt lat="39.954405" lon="8.51967"><ele>1.0</ele><time>2026-04-20T13:22:34.764Z</time></trkpt><trkpt lat="39.9542967" lon="8.5196783"><ele>1.0</ele><time>2026-04-20T13:22:35.764Z</time></trkpt><trkpt lat="39.9541917" lon="8.5196817"><ele>1.0</ele><time>2026-04-20T13:22:36.764Z</time></trkpt><trkpt lat="39.9540883" lon="8.519685"><ele>1.0</ele><time>2026-04-20T13:22:37.764Z</time></trkpt><trkpt lat="39.9539817" lon="8.5196983"><ele>1.2000000000000002</ele><time>2026-04-20T13:22:38.764Z</time></trkpt><trkpt lat="39.9538767" lon="8.5197117"><ele>1.4000000000000001</ele><time>2026-04-20T13:22:39.765Z</time></trkpt><trkpt lat="39.9537667" lon="8.5197283"><ele>1.6</ele><time>2026-04-20T13:22:40.764Z</time></trkpt><trkpt lat="39.9536683" lon="8.519755"><ele>1.8</ele><time>2026-04-20T13:22:41.765Z</time></trkpt><trkpt lat="39.953585" lon="8.51979"><ele>2.0</ele><time>2026-04-20T13:22:42.764Z</time></trkpt><trkpt lat="39.9535017" lon="8.5198367"><ele>2.0</ele><time>2026-04-20T13:22:43.764Z</time></trkpt><trkpt lat="39.9534217" lon="8.5198933"><ele>2.0</ele><time>2026-04-20T13:22:44.764Z</time></trkpt><trkpt lat="39.95335" lon="8.519965"><ele>2.0</ele><time>2026-04-20T13:22:45.764Z</time></trkpt><trkpt lat="39.9532817" lon="8.5200433"><ele>2.0</ele><time>2026-04-20T13:22:46.764Z</time></trkpt><trkpt lat="39.9532167" lon="8.5201317"><ele>2.0</ele><time>2026-04-20T13:22:47.764Z</time></trkpt><trkpt lat="39.95315" lon="8.5202217"><ele>2.0</ele><time>2026-04-20T13:22:48.764Z</time></trkpt><trkpt lat="39.9530783" lon="8.5203133"><ele>2.0</ele><time>2026-04-20T13:22:49.764Z</time></trkpt><trkpt lat="39.953005" lon="8.5204033"><ele>2.0</ele><time>2026-04-20T13:22:50.764Z</time></trkpt><trkpt lat="39.95293" lon="8.5204917"><ele>2.0</ele><time>2026-04-20T13:22:51.764Z</time></trkpt><trkpt lat="39.9528617" lon="8.52059"><ele>2.0</ele><time>2026-04-20T13:22:52.764Z</time></trkpt><trkpt lat="39.9527167" lon="8.52077"><ele>2.0</ele><time>2026-04-20T13:22:54.764Z</time></trkpt><trkpt lat="39.9526433" lon="8.5208617"><ele>2.0</ele><time>2026-04-20T13:22:55.764Z</time></trkpt><trkpt lat="39.9525717" lon="8.5209567"><ele>2.0</ele><time>2026-04-20T13:22:56.764Z</time></trkpt><trkpt lat="39.9524933" lon="8.52105"><ele>2.0</ele><time>2026-04-20T13:22:57.764Z</time></trkpt><trkpt lat="39.9524033" lon="8.5211317"><ele>2.0</ele><time>2026-04-20T13:22:58.764Z</time></trkpt><trkpt lat="39.9523117" lon="8.5212067"><ele>2.2</ele><time>2026-04-20T13:22:59.764Z</time></trkpt><trkpt lat="39.95222" lon="8.5212717"><ele>2.4000000000000004</ele><time>2026-04-20T13:23:00.764Z</time></trkpt><trkpt lat="39.9521267" lon="8.521335"><ele>2.5999999999999996</ele><time>2026-04-20T13:23:01.764Z</time></trkpt><trkpt lat="39.95203" lon="8.521395"><ele>2.8</ele><time>2026-04-20T13:23:02.764Z</time></trkpt><trkpt lat="39.9519317" lon="8.5214483"><ele>3.0</ele><time>2026-04-20T13:23:03.765Z</time></trkpt><trkpt lat="39.9518333" lon="8.5215083"><ele>3.0</ele><time>2026-04-20T13:23:04.764Z</time></trkpt><trkpt lat="39.9517317" lon="8.5215667"><ele>3.0</ele><time>2026-04-20T13:23:05.765Z</time></trkpt><trkpt lat="39.951635" lon="8.52163"><ele>3.0</ele><time>2026-04-20T13:23:06.764Z</time></trkpt><trkpt lat="39.9515317" lon="8.5216967"><ele>3.0</ele><time>2026-04-20T13:23:07.764Z</time></trkpt><trkpt lat="39.951435" lon="8.5217567"><ele>3.0</ele><time>2026-04-20T13:23:08.764Z</time></trkpt><trkpt lat="39.9513367" lon="8.5218167"><ele>3.0</ele><time>2026-04-20T13:23:09.764Z</time></trkpt><trkpt lat="39.951235" lon="8.5218783"><ele>3.0</ele><time>2026-04-20T13:23:10.765Z</time></trkpt><trkpt lat="39.9511317" lon="8.5219383"><ele>3.0</ele><time>2026-04-20T13:23:11.764Z</time></trkpt><trkpt lat="39.951035" lon="8.5219933"><ele>3.0</ele><time>2026-04-20T13:23:12.764Z</time></trkpt><trkpt lat="39.9509383" lon="8.5220533"><ele>3.0</ele><time>2026-04-20T13:23:13.764Z</time></trkpt><trkpt lat="39.950745" lon="8.5221633"><ele>3.0</ele><time>2026-04-20T13:23:15.764Z</time></trkpt><trkpt lat="39.950645" lon="8.522205"><ele>3.0</ele><time>2026-04-20T13:23:16.765Z</time></trkpt><trkpt lat="39.9505467" lon="8.5222483"><ele>3.0</ele><time>2026-04-20T13:23:17.764Z</time></trkpt><trkpt lat="39.9504483" lon="8.5222833"><ele>3.0</ele><time>2026-04-20T13:23:18.764Z</time></trkpt><trkpt lat="39.9503517" lon="8.5223267"><ele>3.0</ele><time>2026-04-20T13:23:19.764Z</time></trkpt><trkpt lat="39.950255" lon="8.5223683"><ele>3.0</ele><time>2026-04-20T13:23:20.764Z</time></trkpt><trkpt lat="39.9501533" lon="8.5224083"><ele>3.0</ele><time>2026-04-20T13:23:21.764Z</time></trkpt><trkpt lat="39.950055" lon="8.52244"><ele>3.0</ele><time>2026-04-20T13:23:22.764Z</time></trkpt><trkpt lat="39.94995" lon="8.5224733"><ele>3.0</ele><time>2026-04-20T13:23:23.764Z</time></trkpt><trkpt lat="39.9498467" lon="8.5225067"><ele>3.0</ele><time>2026-04-20T13:23:24.765Z</time></trkpt><trkpt lat="39.949745" lon="8.522535"><ele>2.8</ele><time>2026-04-20T13:23:25.765Z</time></trkpt><trkpt lat="39.94964" lon="8.5225633"><ele>2.5999999999999996</ele><time>2026-04-20T13:23:26.764Z</time></trkpt><trkpt lat="39.9495383" lon="8.522595"><ele>2.4000000000000004</ele><time>2026-04-20T13:23:27.765Z</time></trkpt><trkpt lat="39.94944" lon="8.5226083"><ele>2.2</ele><time>2026-04-20T13:23:28.764Z</time></trkpt><trkpt lat="39.9493333" lon="8.522615"><ele>2.0</ele><time>2026-04-20T13:23:29.764Z</time></trkpt><trkpt lat="39.949225" lon="8.5226183"><ele>2.4000000000000004</ele><time>2026-04-20T13:23:30.765Z</time></trkpt><trkpt lat="39.9491183" lon="8.5226083"><ele>2.8000000000000003</ele><time>2026-04-20T13:23:31.764Z</time></trkpt><trkpt lat="39.9490117" lon="8.5225967"><ele>3.2</ele><time>2026-04-20T13:23:32.764Z</time></trkpt><trkpt lat="39.948905" lon="8.5225867"><ele>3.6</ele><time>2026-04-20T13:23:33.765Z</time></trkpt><trkpt lat="39.9487933" lon="8.52258"><ele>4.0</ele><time>2026-04-20T13:23:34.764Z</time></trkpt><trkpt lat="39.9485717" lon="8.52256"><ele>4.0</ele><time>2026-04-20T13:23:36.764Z</time></trkpt><trkpt lat="39.9484533" lon="8.5225567"><ele>4.0</ele><time>2026-04-20T13:23:37.764Z</time></trkpt><trkpt lat="39.94834" lon="8.522555"><ele>4.0</ele><time>2026-04-20T13:23:38.764Z</time></trkpt><trkpt lat="39.9482217" lon="8.52256"><ele>4.0</ele><time>2026-04-20T13:23:39.764Z</time></trkpt><trkpt lat="39.94811" lon="8.52257"><ele>4.2</ele><time>2026-04-20T13:23:40.764Z</time></trkpt><trkpt lat="39.9479967" lon="8.5225983"><ele>4.4</ele><time>2026-04-20T13:23:41.764Z</time></trkpt><trkpt lat="39.94789" lon="8.5226283"><ele>4.6</ele><time>2026-04-20T13:23:42.764Z</time></trkpt><trkpt lat="39.9477817" lon="8.5226583"><ele>4.8</ele><time>2026-04-20T13:23:43.765Z</time></trkpt><trkpt lat="39.94767" lon="8.52268"><ele>5.0</ele><time>2026-04-20T13:23:44.764Z</time></trkpt><trkpt lat="39.9475583" lon="8.5227067"><ele>5.2</ele><time>2026-04-20T13:23:45.764Z</time></trkpt><trkpt lat="39.94745" lon="8.5227383"><ele>5.4</ele><time>2026-04-20T13:23:46.764Z</time></trkpt><trkpt lat="39.9473467" lon="8.5227667"><ele>5.6</ele><time>2026-04-20T13:23:47.764Z</time></trkpt><trkpt lat="39.94724" lon="8.5228"><ele>5.8</ele><time>2026-04-20T13:23:48.764Z</time></trkpt><trkpt lat="39.947135" lon="8.5228317"><ele>6.0</ele><time>2026-04-20T13:23:49.764Z</time></trkpt><trkpt lat="39.9470367" lon="8.5228633"><ele>6.0</ele><time>2026-04-20T13:23:50.765Z</time></trkpt><trkpt lat="39.9469367" lon="8.52289"><ele>6.0</ele><time>2026-04-20T13:23:51.765Z</time></trkpt><trkpt lat="39.9468317" lon="8.5229117"><ele>6.0</ele><time>2026-04-20T13:23:52.765Z</time></trkpt><trkpt lat="39.946725" lon="8.522935"><ele>6.0</ele><time>2026-04-20T13:23:53.764Z</time></trkpt><trkpt lat="39.9466217" lon="8.5229517"><ele>6.0</ele><time>2026-04-20T13:23:54.764Z</time></trkpt><trkpt lat="39.9465117" lon="8.5229583"><ele>6.25</ele><time>2026-04-20T13:23:55.765Z</time></trkpt><trkpt lat="39.9462933" lon="8.522985"><ele>6.5</ele><time>2026-04-20T13:23:57.764Z</time></trkpt><trkpt lat="39.9461867" lon="8.5229933"><ele>6.75</ele><time>2026-04-20T13:23:58.765Z</time></trkpt><trkpt lat="39.9460783" lon="8.5229833"><ele>7.0</ele><time>2026-04-20T13:23:59.764Z</time></trkpt><trkpt lat="39.9459733" lon="8.5229783"><ele>7.0</ele><time>2026-04-20T13:24:00.764Z</time></trkpt><trkpt lat="39.94586" lon="8.5229667"><ele>7.0</ele><time>2026-04-20T13:24:01.764Z</time></trkpt><trkpt lat="39.9457483" lon="8.52296"><ele>7.0</ele><time>2026-04-20T13:24:02.764Z</time></trkpt><trkpt lat="39.94563" lon="8.52295"><ele>7.0</ele><time>2026-04-20T13:24:03.764Z</time></trkpt><trkpt lat="39.9455183" lon="8.5229467"><ele>7.0</ele><time>2026-04-20T13:24:04.764Z</time></trkpt><trkpt lat="39.945405" lon="8.5229383"><ele>6.999999999999999</ele><time>2026-04-20T13:24:05.764Z</time></trkpt><trkpt lat="39.9452983" lon="8.5229333"><ele>6.999999999999999</ele><time>2026-04-20T13:24:06.764Z</time></trkpt><trkpt lat="39.9451917" lon="8.522935"><ele>7.0</ele><time>2026-04-20T13:24:07.765Z</time></trkpt><trkpt lat="39.9450883" lon="8.52294"><ele>7.0</ele><time>2026-04-20T13:24:08.764Z</time></trkpt><trkpt lat="39.9449883" lon="8.522945"><ele>6.199999999999999</ele><time>2026-04-20T13:24:09.764Z</time></trkpt><trkpt lat="39.944895" lon="8.5229567"><ele>5.3999999999999995</ele><time>2026-04-20T13:24:10.764Z</time></trkpt><trkpt lat="39.9448033" lon="8.5229733"><ele>4.6</ele><time>2026-04-20T13:24:11.764Z</time></trkpt><trkpt lat="39.944715" lon="8.522995"><ele>3.8</ele><time>2026-04-20T13:24:12.764Z</time></trkpt><trkpt lat="39.9446217" lon="8.5230183"><ele>3.0</ele><time>2026-04-20T13:24:13.764Z</time></trkpt><trkpt lat="39.944525" lon="8.5230483"><ele>3.0</ele><time>2026-04-20T13:24:14.764Z</time></trkpt><trkpt lat="39.9444283" lon="8.5230783"><ele>3.0</ele><time>2026-04-20T13:24:15.764Z</time></trkpt><trkpt lat="39.94433" lon="8.5231117"><ele>3.0</ele><time>2026-04-20T13:24:16.764Z</time></trkpt><trkpt lat="39.9441333" lon="8.5231917"><ele>3.0</ele><time>2026-04-20T13:24:18.764Z</time></trkpt><trkpt lat="39.9440417" lon="8.523225"><ele>3.2</ele><time>2026-04-20T13:24:19.764Z</time></trkpt><trkpt lat="39.94395" lon="8.5232683"><ele>3.4</ele><time>2026-04-20T13:24:20.764Z</time></trkpt><trkpt lat="39.9438583" lon="8.5233233"><ele>3.6000000000000005</ele><time>2026-04-20T13:24:21.764Z</time></trkpt><trkpt lat="39.94377" lon="8.523385"><ele>3.8000000000000003</ele><time>2026-04-20T13:24:22.764Z</time></trkpt><trkpt lat="39.9436833" lon="8.5234533"><ele>4.0</ele><time>2026-04-20T13:24:23.765Z</time></trkpt><trkpt lat="39.9435983" lon="8.5235133"><ele>4.0</ele><time>2026-04-20T13:24:24.764Z</time></trkpt><trkpt lat="39.9435083" lon="8.5235783"><ele>4.0</ele><time>2026-04-20T13:24:25.764Z</time></trkpt><trkpt lat="39.9434217" lon="8.5236483"><ele>4.0</ele><time>2026-04-20T13:24:26.764Z</time></trkpt><trkpt lat="39.9433417" lon="8.52372"><ele>4.0</ele><time>2026-04-20T13:24:27.765Z</time></trkpt><trkpt lat="39.9432567" lon="8.5237817"><ele>4.0</ele><time>2026-04-20T13:24:28.764Z</time></trkpt><trkpt lat="39.9431717" lon="8.523845"><ele>4.0</ele><time>2026-04-20T13:24:29.764Z</time></trkpt><trkpt lat="39.9430833" lon="8.523905"><ele>4.0</ele><time>2026-04-20T13:24:30.764Z</time></trkpt><trkpt lat="39.9429933" lon="8.5239633"><ele>4.0</ele><time>2026-04-20T13:24:31.764Z</time></trkpt><trkpt lat="39.9429" lon="8.524015"><ele>4.0</ele><time>2026-04-20T13:24:32.764Z</time></trkpt><trkpt lat="39.9428017" lon="8.5240633"><ele>4.0</ele><time>2026-04-20T13:24:33.764Z</time></trkpt><trkpt lat="39.9426983" lon="8.5241083"><ele>4.0</ele><time>2026-04-20T13:24:34.764Z</time></trkpt><trkpt lat="39.942595" lon="8.5241567"><ele>4.0</ele><time>2026-04-20T13:24:35.764Z</time></trkpt><trkpt lat="39.9424983" lon="8.5242067"><ele>4.0</ele><time>2026-04-20T13:24:36.765Z</time></trkpt><trkpt lat="39.9424033" lon="8.524255"><ele>4.0</ele><time>2026-04-20T13:24:37.764Z</time></trkpt><trkpt lat="39.9422067" lon="8.52436"><ele>4.0</ele><time>2026-04-20T13:24:39.764Z</time></trkpt><trkpt lat="39.9421117" lon="8.5244183"><ele>4.0</ele><time>2026-04-20T13:24:40.764Z</time></trkpt><trkpt lat="39.94202" lon="8.524475"><ele>4.0</ele><time>2026-04-20T13:24:41.765Z</time></trkpt><trkpt lat="39.941935" lon="8.5245317"><ele>4.0</ele><time>2026-04-20T13:24:42.764Z</time></trkpt><trkpt lat="39.9418517" lon="8.524605"><ele>4.0</ele><time>2026-04-20T13:24:43.764Z</time></trkpt><trkpt lat="39.9417683" lon="8.52468"><ele>3.4000000000000004</ele><time>2026-04-20T13:24:44.764Z</time></trkpt><trkpt lat="39.9416917" lon="8.52476"><ele>2.8000000000000003</ele><time>2026-04-20T13:24:45.764Z</time></trkpt><trkpt lat="39.9416233" lon="8.52485"><ele>2.2</ele><time>2026-04-20T13:24:46.764Z</time></trkpt><trkpt lat="39.9415633" lon="8.5249433"><ele>1.6</ele><time>2026-04-20T13:24:47.764Z</time></trkpt><trkpt lat="39.9414983" lon="8.5250417"><ele>1.0</ele><time>2026-04-20T13:24:48.764Z</time></trkpt><trkpt lat="39.9414317" lon="8.5251317"><ele>1.0</ele><time>2026-04-20T13:24:49.764Z</time></trkpt><trkpt lat="39.9413717" lon="8.5252183"><ele>1.0</ele><time>2026-04-20T13:24:50.764Z</time></trkpt><trkpt lat="39.9413117" lon="8.5253117"><ele>1.0</ele><time>2026-04-20T13:24:51.764Z</time></trkpt><trkpt lat="39.94125" lon="8.5254067"><ele>1.0</ele><time>2026-04-20T13:24:52.764Z</time></trkpt><trkpt lat="39.941185" lon="8.5255067"><ele>1.0</ele><time>2026-04-20T13:24:53.764Z</time></trkpt><trkpt lat="39.9411217" lon="8.525605"><ele>1.2000000000000002</ele><time>2026-04-20T13:24:54.764Z</time></trkpt><trkpt lat="39.94106" lon="8.5257033"><ele>1.4000000000000001</ele><time>2026-04-20T13:24:55.764Z</time></trkpt><trkpt lat="39.9410017" lon="8.525805"><ele>1.6</ele><time>2026-04-20T13:24:56.764Z</time></trkpt><trkpt lat="39.9409483" lon="8.52591"><ele>1.8</ele><time>2026-04-20T13:24:57.764Z</time></trkpt><trkpt lat="39.9409" lon="8.526015"><ele>2.0</ele><time>2026-04-20T13:24:58.764Z</time></trkpt><trkpt lat="39.940815" lon="8.5262367"><ele>2.2</ele><time>2026-04-20T13:25:00.764Z</time></trkpt><trkpt lat="39.9407717" lon="8.5263467"><ele>2.4000000000000004</ele><time>2026-04-20T13:25:01.764Z</time></trkpt><trkpt lat="39.9407317" lon="8.5264583"><ele>2.5999999999999996</ele><time>2026-04-20T13:25:02.764Z</time></trkpt><trkpt lat="39.94069" lon="8.5265717"><ele>2.8</ele><time>2026-04-20T13:25:03.764Z</time></trkpt><trkpt lat="39.9406433" lon="8.5266917"><ele>3.0</ele><time>2026-04-20T13:25:04.765Z</time></trkpt><trkpt lat="39.9406" lon="8.5267917"><ele>3.0</ele><time>2026-04-20T13:25:05.764Z</time></trkpt><trkpt lat="39.94055" lon="8.5268917"><ele>3.0</ele><time>2026-04-20T13:25:06.765Z</time></trkpt><trkpt lat="39.9405017" lon="8.5269883"><ele>3.0</ele><time>2026-04-20T13:25:07.765Z</time></trkpt><trkpt lat="39.9404467" lon="8.527085"><ele>3.0</ele><time>2026-04-20T13:25:08.764Z</time></trkpt><trkpt lat="39.9403917" lon="8.52718"><ele>3.0</ele><time>2026-04-20T13:25:09.764Z</time></trkpt><trkpt lat="39.9403317" lon="8.5272717"><ele>3.0</ele><time>2026-04-20T13:25:10.764Z</time></trkpt><trkpt lat="39.9402717" lon="8.5273683"><ele>3.0</ele><time>2026-04-20T13:25:11.764Z</time></trkpt><trkpt lat="39.9402067" lon="8.5274683"><ele>3.0</ele><time>2026-04-20T13:25:12.764Z</time></trkpt><trkpt lat="39.940145" lon="8.5275633"><ele>3.0</ele><time>2026-04-20T13:25:13.764Z</time></trkpt><trkpt lat="39.94008" lon="8.5276617"><ele>3.0</ele><time>2026-04-20T13:25:14.765Z</time></trkpt><trkpt lat="39.940015" lon="8.5277617"><ele>3.0</ele><time>2026-04-20T13:25:15.764Z</time></trkpt><trkpt lat="39.93995" lon="8.5278633"><ele>3.0</ele><time>2026-04-20T13:25:16.764Z</time></trkpt><trkpt lat="39.9398833" lon="8.5279633"><ele>3.0</ele><time>2026-04-20T13:25:17.764Z</time></trkpt><trkpt lat="39.9398183" lon="8.5280583"><ele>3.0</ele><time>2026-04-20T13:25:18.764Z</time></trkpt><trkpt lat="39.93976" lon="8.528155"><ele>3.0</ele><time>2026-04-20T13:25:19.764Z</time></trkpt><trkpt lat="39.939655" lon="8.52834"><ele>3.0</ele><time>2026-04-20T13:25:21.764Z</time></trkpt><trkpt lat="39.9396017" lon="8.5284317"><ele>3.0</ele><time>2026-04-20T13:25:22.764Z</time></trkpt><trkpt lat="39.939545" lon="8.5285267"><ele>3.0</ele><time>2026-04-20T13:25:23.765Z</time></trkpt><trkpt lat="39.93949" lon="8.5286217"><ele>3.0</ele><time>2026-04-20T13:25:24.764Z</time></trkpt><trkpt lat="39.9394433" lon="8.5287217"><ele>3.0</ele><time>2026-04-20T13:25:25.764Z</time></trkpt><trkpt lat="39.9393967" lon="8.528815"><ele>3.0</ele><time>2026-04-20T13:25:26.764Z</time></trkpt><trkpt lat="39.9393467" lon="8.5289083"><ele>3.0</ele><time>2026-04-20T13:25:27.764Z</time></trkpt><trkpt lat="39.9392933" lon="8.5290083"><ele>3.0</ele><time>2026-04-20T13:25:28.764Z</time></trkpt><trkpt lat="39.9392417" lon="8.529115"><ele>3.0</ele><time>2026-04-20T13:25:29.764Z</time></trkpt><trkpt lat="39.9391867" lon="8.5292233"><ele>3.0</ele><time>2026-04-20T13:25:30.764Z</time></trkpt><trkpt lat="39.93913" lon="8.529335"><ele>3.0</ele><time>2026-04-20T13:25:31.764Z</time></trkpt><trkpt lat="39.9390717" lon="8.5294433"><ele>3.0</ele><time>2026-04-20T13:25:32.764Z</time></trkpt><trkpt lat="39.9390133" lon="8.5295517"><ele>3.0</ele><time>2026-04-20T13:25:33.764Z</time></trkpt><trkpt lat="39.93895" lon="8.5296633"><ele>3.0</ele><time>2026-04-20T13:25:34.765Z</time></trkpt><trkpt lat="39.9388817" lon="8.5297733"><ele>3.0</ele><time>2026-04-20T13:25:35.764Z</time></trkpt><trkpt lat="39.938815" lon="8.529885"><ele>3.0</ele><time>2026-04-20T13:25:36.764Z</time></trkpt><trkpt lat="39.9387483" lon="8.5299933"><ele>3.25</ele><time>2026-04-20T13:25:37.764Z</time></trkpt><trkpt lat="39.938675" lon="8.5301"><ele>3.5</ele><time>2026-04-20T13:25:38.764Z</time></trkpt><trkpt lat="39.9386" lon="8.5301983"><ele>3.75</ele><time>2026-04-20T13:25:39.764Z</time></trkpt><trkpt lat="39.9385267" lon="8.5302967"><ele>4.0</ele><time>2026-04-20T13:25:40.764Z</time></trkpt><trkpt lat="39.938375" lon="8.5304817"><ele>4.4</ele><time>2026-04-20T13:25:42.765Z</time></trkpt><trkpt lat="39.938305" lon="8.5305683"><ele>4.800000000000001</ele><time>2026-04-20T13:25:43.764Z</time></trkpt><trkpt lat="39.9382317" lon="8.53066"><ele>5.199999999999999</ele><time>2026-04-20T13:25:44.764Z</time></trkpt><trkpt lat="39.9381583" lon="8.5307383"><ele>5.6</ele><time>2026-04-20T13:25:45.765Z</time></trkpt><trkpt lat="39.938075" lon="8.5308033"><ele>6.0</ele><time>2026-04-20T13:25:46.764Z</time></trkpt><trkpt lat="39.9379917" lon="8.53087"><ele>6.0</ele><time>2026-04-20T13:25:47.764Z</time></trkpt><trkpt lat="39.93791" lon="8.530935"><ele>6.0</ele><time>2026-04-20T13:25:48.764Z</time></trkpt><trkpt lat="39.9378233" lon="8.5309933"><ele>6.0</ele><time>2026-04-20T13:25:49.764Z</time></trkpt><trkpt lat="39.9377367" lon="8.531055"><ele>6.0</ele><time>2026-04-20T13:25:50.764Z</time></trkpt><trkpt lat="39.93765" lon="8.531105"><ele>6.0</ele><time>2026-04-20T13:25:51.765Z</time></trkpt><trkpt lat="39.9375717" lon="8.5311517"><ele>6.0</ele><time>2026-04-20T13:25:52.764Z</time></trkpt><trkpt lat="39.9374967" lon="8.5311983"><ele>6.0</ele><time>2026-04-20T13:25:53.764Z</time></trkpt><trkpt lat="39.9374317" lon="8.5312367"><ele>6.0</ele><time>2026-04-20T13:25:54.764Z</time></trkpt><trkpt lat="39.9373733" lon="8.53127"><ele>6.0</ele><time>2026-04-20T13:25:55.764Z</time></trkpt><trkpt lat="39.9372733" lon="8.5313083"><ele>6.0</ele><time>2026-04-20T13:25:57.764Z</time></trkpt><trkpt lat="39.9371617" lon="8.5313033"><ele>6.0</ele><time>2026-04-20T13:25:59.764Z</time></trkpt><trkpt lat="39.9370617" lon="8.5313567"><ele>6.0</ele><time>2026-04-20T13:26:01.764Z</time></trkpt><trkpt lat="39.936965" lon="8.5315683"><ele>6.0</ele><time>2026-04-20T13:26:04.764Z</time></trkpt><trkpt lat="39.9369217" lon="8.5316567"><ele>6.0</ele><time>2026-04-20T13:26:05.764Z</time></trkpt><trkpt lat="39.936875" lon="8.53175"><ele>6.0</ele><time>2026-04-20T13:26:06.764Z</time></trkpt><trkpt lat="39.9368183" lon="8.531835"><ele>6.0</ele><time>2026-04-20T13:26:07.764Z</time></trkpt><trkpt lat="39.936765" lon="8.5319283"><ele>6.0</ele><time>2026-04-20T13:26:08.764Z</time></trkpt><trkpt lat="39.936705" lon="8.5320233"><ele>6.0</ele><time>2026-04-20T13:26:09.764Z</time></trkpt><trkpt lat="39.9366483" lon="8.5321217"><ele>6.0</ele><time>2026-04-20T13:26:10.764Z</time></trkpt><trkpt lat="39.9365917" lon="8.5322183"><ele>6.0</ele><time>2026-04-20T13:26:11.764Z</time></trkpt><trkpt lat="39.936535" lon="8.53231"><ele>6.0</ele><time>2026-04-20T13:26:12.764Z</time></trkpt><trkpt lat="39.9364817" lon="8.532405"><ele>6.0</ele><time>2026-04-20T13:26:13.764Z</time></trkpt><trkpt lat="39.9364283" lon="8.532495"><ele>6.0</ele><time>2026-04-20T13:26:14.764Z</time></trkpt><trkpt lat="39.9363733" lon="8.5325833"><ele>6.0</ele><time>2026-04-20T13:26:15.764Z</time></trkpt><trkpt lat="39.9363183" lon="8.532665"><ele>6.0</ele><time>2026-04-20T13:26:16.764Z</time></trkpt><trkpt lat="39.9362667" lon="8.5327483"><ele>6.0</ele><time>2026-04-20T13:26:17.765Z</time></trkpt><trkpt lat="39.9362117" lon="8.5328317"><ele>6.0</ele><time>2026-04-20T13:26:18.764Z</time></trkpt><trkpt lat="39.9361583" lon="8.532915"><ele>6.0</ele><time>2026-04-20T13:26:19.765Z</time></trkpt><trkpt lat="39.9361017" lon="8.5329917"><ele>6.0</ele><time>2026-04-20T13:26:20.764Z</time></trkpt><trkpt lat="39.9360467" lon="8.5330733"><ele>6.0</ele><time>2026-04-20T13:26:21.764Z</time></trkpt><trkpt lat="39.93594" lon="8.5332183"><ele>6.0</ele><time>2026-04-20T13:26:23.764Z</time></trkpt><trkpt lat="39.9358867" lon="8.5332967"><ele>6.0</ele><time>2026-04-20T13:26:24.764Z</time></trkpt><trkpt lat="39.9358283" lon="8.5333683"><ele>6.0</ele><time>2026-04-20T13:26:25.764Z</time></trkpt><trkpt lat="39.93577" lon="8.5334333"><ele>6.0</ele><time>2026-04-20T13:26:26.764Z</time></trkpt><trkpt lat="39.9357117" lon="8.5335067"><ele>6.0</ele><time>2026-04-20T13:26:27.764Z</time></trkpt><trkpt lat="39.9356433" lon="8.533575"><ele>6.0</ele><time>2026-04-20T13:26:28.764Z</time></trkpt><trkpt lat="39.9355833" lon="8.5336467"><ele>6.0</ele><time>2026-04-20T13:26:29.764Z</time></trkpt><trkpt lat="39.9355267" lon="8.5337083"><ele>6.0</ele><time>2026-04-20T13:26:30.764Z</time></trkpt><trkpt lat="39.935475" lon="8.5337717"><ele>6.0</ele><time>2026-04-20T13:26:31.764Z</time></trkpt><trkpt lat="39.93542" lon="8.5338383"><ele>6.0</ele><time>2026-04-20T13:26:32.764Z</time></trkpt><trkpt lat="39.9353583" lon="8.5339067"><ele>6.0</ele><time>2026-04-20T13:26:33.764Z</time></trkpt><trkpt lat="39.9352983" lon="8.53397"><ele>6.0</ele><time>2026-04-20T13:26:34.764Z</time></trkpt><trkpt lat="39.93524" lon="8.53404"><ele>6.0</ele><time>2026-04-20T13:26:35.764Z</time></trkpt><trkpt lat="39.9351817" lon="8.5341067"><ele>6.0</ele><time>2026-04-20T13:26:36.764Z</time></trkpt><trkpt lat="39.93512" lon="8.5341717"><ele>6.0</ele><time>2026-04-20T13:26:37.764Z</time></trkpt><trkpt lat="39.935055" lon="8.534235"><ele>6.0</ele><time>2026-04-20T13:26:38.764Z</time></trkpt><trkpt lat="39.9349833" lon="8.534295"><ele>6.0</ele><time>2026-04-20T13:26:39.764Z</time></trkpt><trkpt lat="39.9349117" lon="8.5343633"><ele>6.0</ele><time>2026-04-20T13:26:40.764Z</time></trkpt><trkpt lat="39.9348367" lon="8.5344517"><ele>6.0</ele><time>2026-04-20T13:26:41.764Z</time></trkpt><trkpt lat="39.9347633" lon="8.5345383"><ele>6.0</ele><time>2026-04-20T13:26:42.764Z</time></trkpt><trkpt lat="39.9346183" lon="8.5347217"><ele>6.0</ele><time>2026-04-20T13:26:44.764Z</time></trkpt><trkpt lat="39.9345517" lon="8.5348133"><ele>6.0</ele><time>2026-04-20T13:26:45.764Z</time></trkpt><trkpt lat="39.9344833" lon="8.5348967"><ele>6.0</ele><time>2026-04-20T13:26:46.764Z</time></trkpt><trkpt lat="39.9344267" lon="8.534975"><ele>6.0</ele><time>2026-04-20T13:26:47.764Z</time></trkpt><trkpt lat="39.9343667" lon="8.53505"><ele>6.0</ele><time>2026-04-20T13:26:48.764Z</time></trkpt><trkpt lat="39.934315" lon="8.5351183"><ele>6.0</ele><time>2026-04-20T13:26:49.764Z</time></trkpt><trkpt lat="39.9342667" lon="8.5351833"><ele>6.0</ele><time>2026-04-20T13:26:50.764Z</time></trkpt><trkpt lat="39.9341783" lon="8.5352833"><ele>6.0</ele><time>2026-04-20T13:26:52.764Z</time></trkpt><trkpt lat="39.9341083" lon="8.535375"><ele>6.0</ele><time>2026-04-20T13:26:54.765Z</time></trkpt><trkpt lat="39.9340267" lon="8.5354117"><ele>6.199999999999999</ele><time>2026-04-20T13:26:57.764Z</time></trkpt><trkpt lat="39.93393" lon="8.535325"><ele>6.3999999999999995</ele><time>2026-04-20T13:26:59.764Z</time></trkpt><trkpt lat="39.9338683" lon="8.53526"><ele>6.6</ele><time>2026-04-20T13:27:00.765Z</time></trkpt><trkpt lat="39.9338033" lon="8.5351783"><ele>6.8</ele><time>2026-04-20T13:27:01.764Z</time></trkpt><trkpt lat="39.9337467" lon="8.53511"><ele>7.0</ele><time>2026-04-20T13:27:02.764Z</time></trkpt><trkpt lat="39.93368" lon="8.535035"><ele>7.0</ele><time>2026-04-20T13:27:03.764Z</time></trkpt><trkpt lat="39.9335517" lon="8.5348917"><ele>6.999999999999999</ele><time>2026-04-20T13:27:05.764Z</time></trkpt><trkpt lat="39.9334833" lon="8.5348233"><ele>6.999999999999999</ele><time>2026-04-20T13:27:06.764Z</time></trkpt><trkpt lat="39.9334167" lon="8.5347617"><ele>7.0</ele><time>2026-04-20T13:27:07.764Z</time></trkpt><trkpt lat="39.933345" lon="8.534705"><ele>7.0</ele><time>2026-04-20T13:27:08.765Z</time></trkpt><trkpt lat="39.9332833" lon="8.53464"><ele>7.000000000000001</ele><time>2026-04-20T13:27:09.764Z</time></trkpt><trkpt lat="39.93322" lon="8.534585"><ele>7.0</ele><time>2026-04-20T13:27:10.764Z</time></trkpt><trkpt lat="39.93316" lon="8.5345233"><ele>7.0</ele><time>2026-04-20T13:27:11.764Z</time></trkpt><trkpt lat="39.9330917" lon="8.5344433"><ele>7.0</ele><time>2026-04-20T13:27:12.764Z</time></trkpt><trkpt lat="39.9330217" lon="8.5343833"><ele>7.000000000000001</ele><time>2026-04-20T13:27:13.764Z</time></trkpt><trkpt lat="39.9329567" lon="8.5343183"><ele>7.0</ele><time>2026-04-20T13:27:14.764Z</time></trkpt><trkpt lat="39.9328933" lon="8.5342583"><ele>7.000000000000001</ele><time>2026-04-20T13:27:15.764Z</time></trkpt><trkpt lat="39.93283" lon="8.5341867"><ele>7.0</ele><time>2026-04-20T13:27:16.764Z</time></trkpt><trkpt lat="39.9327633" lon="8.5341233"><ele>7.0</ele><time>2026-04-20T13:27:17.764Z</time></trkpt><trkpt lat="39.9327" lon="8.534045"><ele>7.0</ele><time>2026-04-20T13:27:18.764Z</time></trkpt><trkpt lat="39.9326283" lon="8.5339817"><ele>7.000000000000001</ele><time>2026-04-20T13:27:19.764Z</time></trkpt><trkpt lat="39.9325617" lon="8.5339267"><ele>7.0</ele><time>2026-04-20T13:27:20.764Z</time></trkpt><trkpt lat="39.9324967" lon="8.5338617"><ele>7.000000000000001</ele><time>2026-04-20T13:27:21.764Z</time></trkpt><trkpt lat="39.9324267" lon="8.5338"><ele>7.0</ele><time>2026-04-20T13:27:22.764Z</time></trkpt><trkpt lat="39.9323667" lon="8.5337283"><ele>7.0</ele><time>2026-04-20T13:27:23.764Z</time></trkpt><trkpt lat="39.9323133" lon="8.5336567"><ele>7.0</ele><time>2026-04-20T13:27:24.764Z</time></trkpt><trkpt lat="39.9322033" lon="8.5335483"><ele>7.000000000000001</ele><time>2026-04-20T13:27:26.764Z</time></trkpt><trkpt lat="39.9321533" lon="8.5334917"><ele>7.0</ele><time>2026-04-20T13:27:27.764Z</time></trkpt><trkpt lat="39.9320983" lon="8.5334383"><ele>7.000000000000001</ele><time>2026-04-20T13:27:28.764Z</time></trkpt><trkpt lat="39.932045" lon="8.533375"><ele>7.0</ele><time>2026-04-20T13:27:29.764Z</time></trkpt><trkpt lat="39.931985" lon="8.5333283"><ele>7.0</ele><time>2026-04-20T13:27:30.764Z</time></trkpt><trkpt lat="39.93188" lon="8.5332633"><ele>7.0</ele><time>2026-04-20T13:27:32.764Z</time></trkpt><trkpt lat="39.9318183" lon="8.5332317"><ele>7.000000000000001</ele><time>2026-04-20T13:27:33.764Z</time></trkpt><trkpt lat="39.93176" lon="8.5331767"><ele>7.0</ele><time>2026-04-20T13:27:34.765Z</time></trkpt><trkpt lat="39.9316983" lon="8.5331217"><ele>7.000000000000001</ele><time>2026-04-20T13:27:35.764Z</time></trkpt><trkpt lat="39.9316317" lon="8.53306"><ele>7.0</ele><time>2026-04-20T13:27:36.764Z</time></trkpt><trkpt lat="39.9315617" lon="8.53299"><ele>7.0</ele><time>2026-04-20T13:27:37.764Z</time></trkpt><trkpt lat="39.931485" lon="8.5329267"><ele>7.0</ele><time>2026-04-20T13:27:38.764Z</time></trkpt><trkpt lat="39.9314267" lon="8.532855"><ele>7.000000000000001</ele><time>2026-04-20T13:27:39.764Z</time></trkpt><trkpt lat="39.9313633" lon="8.5327917"><ele>7.0</ele><time>2026-04-20T13:27:40.765Z</time></trkpt><trkpt lat="39.9312933" lon="8.5327283"><ele>7.199999999999999</ele><time>2026-04-20T13:27:41.765Z</time></trkpt><trkpt lat="39.93122" lon="8.5326383"><ele>7.3999999999999995</ele><time>2026-04-20T13:27:42.764Z</time></trkpt><trkpt lat="39.931145" lon="8.5325767"><ele>7.6000000000000005</ele><time>2026-04-20T13:27:43.765Z</time></trkpt><trkpt lat="39.9310883" lon="8.5325367"><ele>7.800000000000001</ele><time>2026-04-20T13:27:44.765Z</time></trkpt><trkpt lat="39.9310367" lon="8.5324767"><ele>8.0</ele><time>2026-04-20T13:27:45.764Z</time></trkpt><trkpt lat="39.9309133" lon="8.532355"><ele>7.999999999999999</ele><time>2026-04-20T13:27:47.764Z</time></trkpt><trkpt lat="39.9308567" lon="8.5322883"><ele>8.0</ele><time>2026-04-20T13:27:48.765Z</time></trkpt><trkpt lat="39.9308067" lon="8.5322067"><ele>8.0</ele><time>2026-04-20T13:27:49.765Z</time></trkpt><trkpt lat="39.9307583" lon="8.5321233"><ele>8.0</ele><time>2026-04-20T13:27:50.764Z</time></trkpt><trkpt lat="39.9307083" lon="8.5320483"><ele>7.999999999999999</ele><time>2026-04-20T13:27:51.764Z</time></trkpt><trkpt lat="39.9306633" lon="8.5319667"><ele>8.0</ele><time>2026-04-20T13:27:52.764Z</time></trkpt><trkpt lat="39.9306233" lon="8.531885"><ele>7.999999999999999</ele><time>2026-04-20T13:27:53.765Z</time></trkpt><trkpt lat="39.930585" lon="8.53178"><ele>8.0</ele><time>2026-04-20T13:27:54.764Z</time></trkpt><trkpt lat="39.9305517" lon="8.53168"><ele>8.0</ele><time>2026-04-20T13:27:55.764Z</time></trkpt><trkpt lat="39.930505" lon="8.5316"><ele>8.0</ele><time>2026-04-20T13:27:56.764Z</time></trkpt><trkpt lat="39.9304517" lon="8.5315317"><ele>7.999999999999999</ele><time>2026-04-20T13:27:57.764Z</time></trkpt><trkpt lat="39.9303967" lon="8.5314617"><ele>8.0</ele><time>2026-04-20T13:27:58.765Z</time></trkpt><trkpt lat="39.930345" lon="8.5313967"><ele>7.999999999999999</ele><time>2026-04-20T13:27:59.765Z</time></trkpt><trkpt lat="39.9302917" lon="8.531335"><ele>8.0</ele><time>2026-04-20T13:28:00.764Z</time></trkpt><trkpt lat="39.9302417" lon="8.531275"><ele>8.0</ele><time>2026-04-20T13:28:01.765Z</time></trkpt><trkpt lat="39.93019" lon="8.531225"><ele>8.0</ele><time>2026-04-20T13:28:02.764Z</time></trkpt><trkpt lat="39.93011" lon="8.5311633"><ele>7.999999999999999</ele><time>2026-04-20T13:28:04.764Z</time></trkpt><trkpt lat="39.9300083" lon="8.53115"><ele>8.0</ele><time>2026-04-20T13:28:06.764Z</time></trkpt><trkpt lat="39.9298467" lon="8.53105"><ele>8.0</ele><time>2026-04-20T13:28:09.765Z</time></trkpt><trkpt lat="39.9297883" lon="8.5310117"><ele>7.999999999999999</ele><time>2026-04-20T13:28:10.764Z</time></trkpt><trkpt lat="39.9297233" lon="8.530965"><ele>8.0</ele><time>2026-04-20T13:28:11.764Z</time></trkpt><trkpt lat="39.9296533" lon="8.5309317"><ele>8.0</ele><time>2026-04-20T13:28:12.764Z</time></trkpt><trkpt lat="39.929585" lon="8.5308867"><ele>7.999999999999999</ele><time>2026-04-20T13:28:13.765Z</time></trkpt><trkpt lat="39.9295117" lon="8.5308467"><ele>8.0</ele><time>2026-04-20T13:28:14.764Z</time></trkpt><trkpt lat="39.929445" lon="8.5308"><ele>8.0</ele><time>2026-04-20T13:28:15.764Z</time></trkpt><trkpt lat="39.9293733" lon="8.5307517"><ele>7.999999999999999</ele><time>2026-04-20T13:28:16.764Z</time></trkpt><trkpt lat="39.9293033" lon="8.5307033"><ele>8.0</ele><time>2026-04-20T13:28:17.764Z</time></trkpt><trkpt lat="39.9292317" lon="8.530665"><ele>8.0</ele><time>2026-04-20T13:28:18.764Z</time></trkpt><trkpt lat="39.9291633" lon="8.5306283"><ele>8.0</ele><time>2026-04-20T13:28:19.764Z</time></trkpt><trkpt lat="39.9290983" lon="8.5305783"><ele>7.999999999999999</ele><time>2026-04-20T13:28:20.764Z</time></trkpt><trkpt lat="39.9290317" lon="8.5305267"><ele>8.0</ele><time>2026-04-20T13:28:21.765Z</time></trkpt><trkpt lat="39.9289633" lon="8.53048"><ele>8.166666666666666</ele><time>2026-04-20T13:28:22.764Z</time></trkpt><trkpt lat="39.9288933" lon="8.5304333"><ele>8.333333333333332</ele><time>2026-04-20T13:28:23.764Z</time></trkpt><trkpt lat="39.9288267" lon="8.530385"><ele>8.5</ele><time>2026-04-20T13:28:24.764Z</time></trkpt><trkpt lat="39.9287633" lon="8.530335"><ele>8.666666666666666</ele><time>2026-04-20T13:28:25.764Z</time></trkpt><trkpt lat="39.928705" lon="8.5302767"><ele>8.833333333333334</ele><time>2026-04-20T13:28:26.764Z</time></trkpt><trkpt lat="39.9286467" lon="8.53023"><ele>9.0</ele><time>2026-04-20T13:28:27.764Z</time></trkpt><trkpt lat="39.9284983" lon="8.5300983"><ele>8.666666666666666</ele><time>2026-04-20T13:28:31.764Z</time></trkpt><trkpt lat="39.9284117" lon="8.53011"><ele>8.333333333333334</ele><time>2026-04-20T13:28:34.765Z</time></trkpt><trkpt lat="39.9283483" lon="8.5301733"><ele>8.0</ele><time>2026-04-20T13:28:36.765Z</time></trkpt><trkpt lat="39.92827" lon="8.5302583"><ele>7.666666666666667</ele><time>2026-04-20T13:28:38.765Z</time></trkpt><trkpt lat="39.9281717" lon="8.530335"><ele>7.333333333333334</ele><time>2026-04-20T13:28:40.765Z</time></trkpt><trkpt lat="39.9281167" lon="8.5303783"><ele>7.0</ele><time>2026-04-20T13:28:41.765Z</time></trkpt><trkpt lat="39.9280617" lon="8.53043"><ele>7.0</ele><time>2026-04-20T13:28:42.764Z</time></trkpt><trkpt lat="39.928005" lon="8.5304767"><ele>7.0</ele><time>2026-04-20T13:28:43.764Z</time></trkpt><trkpt lat="39.92795" lon="8.530525"><ele>7.0</ele><time>2026-04-20T13:28:44.765Z</time></trkpt><trkpt lat="39.9278967" lon="8.53058"><ele>7.0</ele><time>2026-04-20T13:28:45.765Z</time></trkpt><trkpt lat="39.9278417" lon="8.53063"><ele>7.0</ele><time>2026-04-20T13:28:46.764Z</time></trkpt><trkpt lat="39.9277917" lon="8.5306883"><ele>7.0</ele><time>2026-04-20T13:28:47.765Z</time></trkpt><trkpt lat="39.9277383" lon="8.5307483"><ele>7.0</ele><time>2026-04-20T13:28:48.764Z</time></trkpt><trkpt lat="39.9276183" lon="8.5308367"><ele>7.0</ele><time>2026-04-20T13:28:50.765Z</time></trkpt><trkpt lat="39.927555" lon="8.5308733"><ele>7.0</ele><time>2026-04-20T13:28:51.764Z</time></trkpt><trkpt lat="39.9274883" lon="8.5309167"><ele>7.0</ele><time>2026-04-20T13:28:52.764Z</time></trkpt><trkpt lat="39.9274267" lon="8.53096"><ele>7.0</ele><time>2026-04-20T13:28:53.764Z</time></trkpt><trkpt lat="39.9273617" lon="8.5309917"><ele>7.0</ele><time>2026-04-20T13:28:54.765Z</time></trkpt><trkpt lat="39.9272933" lon="8.53102"><ele>7.0</ele><time>2026-04-20T13:28:55.764Z</time></trkpt><trkpt lat="39.9272217" lon="8.531055"><ele>7.0</ele><time>2026-04-20T13:28:56.764Z</time></trkpt><trkpt lat="39.92715" lon="8.5310833"><ele>7.000000000000001</ele><time>2026-04-20T13:28:57.764Z</time></trkpt><trkpt lat="39.9270817" lon="8.5311167"><ele>7.0</ele><time>2026-04-20T13:28:58.764Z</time></trkpt><trkpt lat="39.9270117" lon="8.531145"><ele>7.0</ele><time>2026-04-20T13:28:59.764Z</time></trkpt><trkpt lat="39.9269383" lon="8.531165"><ele>7.0</ele><time>2026-04-20T13:29:00.764Z</time></trkpt><trkpt lat="39.9268683" lon="8.53117"><ele>7.000000000000001</ele><time>2026-04-20T13:29:01.764Z</time></trkpt><trkpt lat="39.9267917" lon="8.5311733"><ele>7.0</ele><time>2026-04-20T13:29:02.764Z</time></trkpt><trkpt lat="39.9267083" lon="8.531185"><ele>6.833333333333334</ele><time>2026-04-20T13:29:03.764Z</time></trkpt><trkpt lat="39.9266317" lon="8.5312117"><ele>6.666666666666667</ele><time>2026-04-20T13:29:04.764Z</time></trkpt><trkpt lat="39.92656" lon="8.5312417"><ele>6.5</ele><time>2026-04-20T13:29:05.764Z</time></trkpt><trkpt lat="39.926495" lon="8.53128"><ele>6.333333333333334</ele><time>2026-04-20T13:29:06.764Z</time></trkpt><trkpt lat="39.9263917" lon="8.5313617"><ele>6.166666666666667</ele><time>2026-04-20T13:29:08.764Z</time></trkpt><trkpt lat="39.9263367" lon="8.53141"><ele>6.0</ele><time>2026-04-20T13:29:09.764Z</time></trkpt><trkpt lat="39.926215" lon="8.5315117"><ele>6.0</ele><time>2026-04-20T13:29:11.764Z</time></trkpt><trkpt lat="39.926155" lon="8.5315733"><ele>6.0</ele><time>2026-04-20T13:29:12.764Z</time></trkpt><trkpt lat="39.9260867" lon="8.531635"><ele>6.0</ele><time>2026-04-20T13:29:13.765Z</time></trkpt><trkpt lat="39.9260183" lon="8.531705"><ele>6.0</ele><time>2026-04-20T13:29:14.764Z</time></trkpt><trkpt lat="39.9259467" lon="8.531775"><ele>6.0</ele><time>2026-04-20T13:29:15.764Z</time></trkpt><trkpt lat="39.9258767" lon="8.5318367"><ele>6.0</ele><time>2026-04-20T13:29:16.764Z</time></trkpt><trkpt lat="39.9258033" lon="8.53189"><ele>5.833333333333333</ele><time>2026-04-20T13:29:17.764Z</time></trkpt><trkpt lat="39.9257317" lon="8.531955"><ele>5.666666666666667</ele><time>2026-04-20T13:29:18.764Z</time></trkpt><trkpt lat="39.9256583" lon="8.53202"><ele>5.5</ele><time>2026-04-20T13:29:19.765Z</time></trkpt><trkpt lat="39.92559" lon="8.5320817"><ele>5.333333333333334</ele><time>2026-04-20T13:29:20.764Z</time></trkpt><trkpt lat="39.9255217" lon="8.5321483"><ele>5.166666666666667</ele><time>2026-04-20T13:29:21.764Z</time></trkpt><trkpt lat="39.9254483" lon="8.5322067"><ele>5.0</ele><time>2026-04-20T13:29:22.764Z</time></trkpt><trkpt lat="39.9253767" lon="8.5322683"><ele>5.0</ele><time>2026-04-20T13:29:23.764Z</time></trkpt><trkpt lat="39.9253067" lon="8.5323283"><ele>5.0</ele><time>2026-04-20T13:29:24.764Z</time></trkpt><trkpt lat="39.9252417" lon="8.5323967"><ele>5.0</ele><time>2026-04-20T13:29:25.764Z</time></trkpt><trkpt lat="39.92517" lon="8.53246"><ele>5.0</ele><time>2026-04-20T13:29:26.765Z</time></trkpt><trkpt lat="39.9250983" lon="8.5325267"><ele>5.0</ele><time>2026-04-20T13:29:27.764Z</time></trkpt><trkpt lat="39.9250233" lon="8.5325933"><ele>5.0</ele><time>2026-04-20T13:29:28.764Z</time></trkpt><trkpt lat="39.9249517" lon="8.532655"><ele>5.0</ele><time>2026-04-20T13:29:29.764Z</time></trkpt><trkpt lat="39.924885" lon="8.5327033"><ele>5.0</ele><time>2026-04-20T13:29:30.764Z</time></trkpt><trkpt lat="39.9247567" lon="8.532815"><ele>5.0</ele><time>2026-04-20T13:29:32.764Z</time></trkpt><trkpt lat="39.9246917" lon="8.53287"><ele>5.0</ele><time>2026-04-20T13:29:33.764Z</time></trkpt><trkpt lat="39.9246217" lon="8.532925"><ele>5.0</ele><time>2026-04-20T13:29:34.764Z</time></trkpt><trkpt lat="39.9245433" lon="8.53298"><ele>5.0</ele><time>2026-04-20T13:29:35.764Z</time></trkpt><trkpt lat="39.924475" lon="8.5330333"><ele>5.0</ele><time>2026-04-20T13:29:36.765Z</time></trkpt><trkpt lat="39.9244083" lon="8.5330883"><ele>5.0</ele><time>2026-04-20T13:29:37.765Z</time></trkpt><trkpt lat="39.9243483" lon="8.5331417"><ele>5.0</ele><time>2026-04-20T13:29:38.764Z</time></trkpt><trkpt lat="39.9242883" lon="8.5331883"><ele>5.0</ele><time>2026-04-20T13:29:39.765Z</time></trkpt><trkpt lat="39.924185" lon="8.5332817"><ele>5.0</ele><time>2026-04-20T13:29:41.764Z</time></trkpt><trkpt lat="39.92413" lon="8.5333233"><ele>5.0</ele><time>2026-04-20T13:29:42.764Z</time></trkpt><trkpt lat="39.924025" lon="8.5334067"><ele>5.0</ele><time>2026-04-20T13:29:44.764Z</time></trkpt><trkpt lat="39.9239333" lon="8.5335017"><ele>5.0</ele><time>2026-04-20T13:29:46.765Z</time></trkpt><trkpt lat="39.9238333" lon="8.5335883"><ele>5.0</ele><time>2026-04-20T13:29:48.764Z</time></trkpt><trkpt lat="39.9237733" lon="8.533635"><ele>5.0</ele><time>2026-04-20T13:29:49.764Z</time></trkpt><trkpt lat="39.9237133" lon="8.5336817"><ele>5.166666666666667</ele><time>2026-04-20T13:29:50.764Z</time></trkpt><trkpt lat="39.9235917" lon="8.5337833"><ele>5.333333333333334</ele><time>2026-04-20T13:29:52.764Z</time></trkpt><trkpt lat="39.9235333" lon="8.5338383"><ele>5.5</ele><time>2026-04-20T13:29:53.765Z</time></trkpt><trkpt lat="39.9234733" lon="8.5338917"><ele>5.666666666666667</ele><time>2026-04-20T13:29:54.764Z</time></trkpt><trkpt lat="39.9234117" lon="8.5339483"><ele>5.833333333333333</ele><time>2026-04-20T13:29:55.764Z</time></trkpt><trkpt lat="39.92335" lon="8.5340083"><ele>6.0</ele><time>2026-04-20T13:29:56.764Z</time></trkpt><trkpt lat="39.9232783" lon="8.5340567"><ele>6.0</ele><time>2026-04-20T13:29:57.764Z</time></trkpt><trkpt lat="39.9232133" lon="8.5341167"><ele>6.0</ele><time>2026-04-20T13:29:58.765Z</time></trkpt><trkpt lat="39.9231517" lon="8.5341583"><ele>6.0</ele><time>2026-04-20T13:29:59.764Z</time></trkpt><trkpt lat="39.9230867" lon="8.5341967"><ele>6.0</ele><time>2026-04-20T13:30:00.764Z</time></trkpt><trkpt lat="39.923025" lon="8.5342333"><ele>6.0</ele><time>2026-04-20T13:30:01.764Z</time></trkpt><trkpt lat="39.9229283" lon="8.5343233"><ele>6.0</ele><time>2026-04-20T13:30:03.764Z</time></trkpt><trkpt lat="39.922845" lon="8.5343967"><ele>6.0</ele><time>2026-04-20T13:30:05.764Z</time></trkpt><trkpt lat="39.9227683" lon="8.534475"><ele>6.0</ele><time>2026-04-20T13:30:07.764Z</time></trkpt><trkpt lat="39.922665" lon="8.534575"><ele>6.0</ele><time>2026-04-20T13:30:09.764Z</time></trkpt><trkpt lat="39.9226067" lon="8.5346267"><ele>6.0</ele><time>2026-04-20T13:30:10.765Z</time></trkpt><trkpt lat="39.9225417" lon="8.5346833"><ele>6.0</ele><time>2026-04-20T13:30:11.764Z</time></trkpt><trkpt lat="39.9224017" lon="8.5348017"><ele>5.833333333333333</ele><time>2026-04-20T13:30:13.764Z</time></trkpt><trkpt lat="39.9223417" lon="8.5348533"><ele>5.666666666666667</ele><time>2026-04-20T13:30:14.764Z</time></trkpt><trkpt lat="39.9222833" lon="8.5349067"><ele>5.5</ele><time>2026-04-20T13:30:15.765Z</time></trkpt><trkpt lat="39.92222" lon="8.5349583"><ele>5.333333333333334</ele><time>2026-04-20T13:30:16.764Z</time></trkpt><trkpt lat="39.9221533" lon="8.535015"><ele>5.166666666666667</ele><time>2026-04-20T13:30:17.764Z</time></trkpt><trkpt lat="39.9220883" lon="8.5350767"><ele>5.0</ele><time>2026-04-20T13:30:18.764Z</time></trkpt><trkpt lat="39.9220183" lon="8.53513"><ele>5.0</ele><time>2026-04-20T13:30:19.764Z</time></trkpt><trkpt lat="39.9219517" lon="8.5351883"><ele>5.0</ele><time>2026-04-20T13:30:20.765Z</time></trkpt><trkpt lat="39.9218833" lon="8.5352483"><ele>5.0</ele><time>2026-04-20T13:30:21.764Z</time></trkpt><trkpt lat="39.9218133" lon="8.5353033"><ele>5.0</ele><time>2026-04-20T13:30:22.764Z</time></trkpt><trkpt lat="39.921735" lon="8.5353667"><ele>5.0</ele><time>2026-04-20T13:30:23.765Z</time></trkpt><trkpt lat="39.9216617" lon="8.5354233"><ele>5.0</ele><time>2026-04-20T13:30:24.765Z</time></trkpt><trkpt lat="39.9215867" lon="8.535485"><ele>5.0</ele><time>2026-04-20T13:30:25.763Z</time></trkpt><trkpt lat="39.92151" lon="8.53555"><ele>5.0</ele><time>2026-04-20T13:30:26.763Z</time></trkpt><trkpt lat="39.9214367" lon="8.5356233"><ele>5.0</ele><time>2026-04-20T13:30:27.763Z</time></trkpt><trkpt lat="39.92136" lon="8.535695"><ele>5.0</ele><time>2026-04-20T13:30:28.763Z</time></trkpt><trkpt lat="39.9212817" lon="8.5357767"><ele>5.0</ele><time>2026-04-20T13:30:29.763Z</time></trkpt><trkpt lat="39.9212083" lon="8.535865"><ele>5.0</ele><time>2026-04-20T13:30:30.763Z</time></trkpt><trkpt lat="39.921135" lon="8.5359533"><ele>5.0</ele><time>2026-04-20T13:30:31.763Z</time></trkpt><trkpt lat="39.9210117" lon="8.5361567"><ele>5.0</ele><time>2026-04-20T13:30:33.764Z</time></trkpt><trkpt lat="39.920955" lon="8.536265"><ele>5.0</ele><time>2026-04-20T13:30:34.763Z</time></trkpt><trkpt lat="39.9208967" lon="8.53637"><ele>4.6</ele><time>2026-04-20T13:30:35.764Z</time></trkpt><trkpt lat="39.9208383" lon="8.536475"><ele>4.2</ele><time>2026-04-20T13:30:36.763Z</time></trkpt><trkpt lat="39.9207783" lon="8.5365717"><ele>3.8</ele><time>2026-04-20T13:30:37.763Z</time></trkpt><trkpt lat="39.9207133" lon="8.5366683"><ele>3.4</ele><time>2026-04-20T13:30:38.763Z</time></trkpt><trkpt lat="39.920645" lon="8.5367567"><ele>3.0</ele><time>2026-04-20T13:30:39.763Z</time></trkpt><trkpt lat="39.92056" lon="8.536835"><ele>3.0</ele><time>2026-04-20T13:30:40.764Z</time></trkpt><trkpt lat="39.920475" lon="8.5369"><ele>3.0</ele><time>2026-04-20T13:30:41.763Z</time></trkpt><trkpt lat="39.9203933" lon="8.5369567"><ele>3.0</ele><time>2026-04-20T13:30:42.763Z</time></trkpt><trkpt lat="39.920305" lon="8.537"><ele>3.0</ele><time>2026-04-20T13:30:43.763Z</time></trkpt><trkpt lat="39.920215" lon="8.5370483"><ele>3.0</ele><time>2026-04-20T13:30:44.763Z</time></trkpt><trkpt lat="39.920125" lon="8.5370967"><ele>2.6666666666666665</ele><time>2026-04-20T13:30:45.763Z</time></trkpt><trkpt lat="39.920035" lon="8.5371433"><ele>2.3333333333333335</ele><time>2026-04-20T13:30:46.763Z</time></trkpt><trkpt lat="39.9199483" lon="8.53719"><ele>2.0</ele><time>2026-04-20T13:30:47.763Z</time></trkpt><trkpt lat="39.91987" lon="8.5372333"><ele>1.6666666666666665</ele><time>2026-04-20T13:30:48.763Z</time></trkpt><trkpt lat="39.9197917" lon="8.5372683"><ele>1.3333333333333333</ele><time>2026-04-20T13:30:49.763Z</time></trkpt><trkpt lat="39.9197133" lon="8.5372917"><ele>1.0</ele><time>2026-04-20T13:30:50.763Z</time></trkpt><trkpt lat="39.9196383" lon="8.5373017"><ele>0.9999999999999999</ele><time>2026-04-20T13:30:51.763Z</time></trkpt><trkpt lat="39.9195683" lon="8.537295"><ele>1.0</ele><time>2026-04-20T13:30:52.763Z</time></trkpt><trkpt lat="39.91943" lon="8.5372333"><ele>1.0</ele><time>2026-04-20T13:30:54.763Z</time></trkpt><trkpt lat="39.9193583" lon="8.5372017"><ele>1.0</ele><time>2026-04-20T13:30:55.763Z</time></trkpt><trkpt lat="39.9192817" lon="8.537185"><ele>0.9999999999999999</ele><time>2026-04-20T13:30:56.763Z</time></trkpt><trkpt lat="39.919205" lon="8.53718"><ele>1.0</ele><time>2026-04-20T13:30:57.763Z</time></trkpt><trkpt lat="39.9191267" lon="8.5371883"><ele>1.3333333333333333</ele><time>2026-04-20T13:30:58.763Z</time></trkpt><trkpt lat="39.91905" lon="8.5372167"><ele>1.6666666666666665</ele><time>2026-04-20T13:30:59.763Z</time></trkpt><trkpt lat="39.918965" lon="8.5372367"><ele>2.0</ele><time>2026-04-20T13:31:00.763Z</time></trkpt><trkpt lat="39.9188833" lon="8.53725"><ele>2.3333333333333335</ele><time>2026-04-20T13:31:01.763Z</time></trkpt><trkpt lat="39.9188" lon="8.5372383"><ele>2.6666666666666665</ele><time>2026-04-20T13:31:02.763Z</time></trkpt><trkpt lat="39.91872" lon="8.5372217"><ele>3.0</ele><time>2026-04-20T13:31:03.763Z</time></trkpt><trkpt lat="39.91864" lon="8.5372083"><ele>3.0</ele><time>2026-04-20T13:31:04.764Z</time></trkpt><trkpt lat="39.9185683" lon="8.5372183"><ele>3.0</ele><time>2026-04-20T13:31:05.763Z</time></trkpt><trkpt lat="39.9184967" lon="8.5372433"><ele>3.0</ele><time>2026-04-20T13:31:06.763Z</time></trkpt><trkpt lat="39.9184383" lon="8.537285"><ele>3.0</ele><time>2026-04-20T13:31:07.763Z</time></trkpt><trkpt lat="39.91836" lon="8.5374"><ele>3.0</ele><time>2026-04-20T13:31:09.764Z</time></trkpt><trkpt lat="39.9183367" lon="8.5374933"><ele>3.0</ele><time>2026-04-20T13:31:11.763Z</time></trkpt><trkpt lat="39.91837" lon="8.5375983"><ele>3.0</ele><time>2026-04-20T13:31:13.763Z</time></trkpt><trkpt lat="39.9184683" lon="8.5378183"><ele>3.0</ele><time>2026-04-20T13:31:16.763Z</time></trkpt><trkpt lat="39.9184783" lon="8.5379067"><ele>3.0</ele><time>2026-04-20T13:31:17.763Z</time></trkpt><trkpt lat="39.918455" lon="8.538055"><ele>3.0</ele><time>2026-04-20T13:31:19.763Z</time></trkpt><trkpt lat="39.9184017" lon="8.5381267"><ele>2.6666666666666665</ele><time>2026-04-20T13:31:20.763Z</time></trkpt><trkpt lat="39.9183333" lon="8.53819"><ele>2.3333333333333335</ele><time>2026-04-20T13:31:21.763Z</time></trkpt><trkpt lat="39.9182667" lon="8.5382617"><ele>2.0</ele><time>2026-04-20T13:31:22.763Z</time></trkpt><trkpt lat="39.9182017" lon="8.5383317"><ele>1.6666666666666665</ele><time>2026-04-20T13:31:23.763Z</time></trkpt><trkpt lat="39.9181317" lon="8.5384067"><ele>1.3333333333333333</ele><time>2026-04-20T13:31:24.763Z</time></trkpt><trkpt lat="39.9180517" lon="8.5384867"><ele>1.0</ele><time>2026-04-20T13:31:25.763Z</time></trkpt><trkpt lat="39.9179733" lon="8.5385683"><ele>1.0</ele><time>2026-04-20T13:31:26.763Z</time></trkpt><trkpt lat="39.917895" lon="8.5386483"><ele>1.0</ele><time>2026-04-20T13:31:27.763Z</time></trkpt><trkpt lat="39.91782" lon="8.5387317"><ele>1.0</ele><time>2026-04-20T13:31:28.763Z</time></trkpt><trkpt lat="39.9177517" lon="8.5388167"><ele>1.0</ele><time>2026-04-20T13:31:29.763Z</time></trkpt><trkpt lat="39.91768" lon="8.5388933"><ele>1.0</ele><time>2026-04-20T13:31:30.763Z</time></trkpt><trkpt lat="39.9176117" lon="8.538975"><ele>1.5</ele><time>2026-04-20T13:31:31.763Z</time></trkpt><trkpt lat="39.9175383" lon="8.539045"><ele>2.0</ele><time>2026-04-20T13:31:32.763Z</time></trkpt><trkpt lat="39.917475" lon="8.53911"><ele>2.5</ele><time>2026-04-20T13:31:33.763Z</time></trkpt><trkpt lat="39.9173917" lon="8.539195"><ele>3.0</ele><time>2026-04-20T13:31:35.764Z</time></trkpt><trkpt lat="39.9171917" lon="8.5393883"><ele>3.0</ele><time>2026-04-20T13:33:15.763Z</time></trkpt><trkpt lat="39.9171417" lon="8.53944"><ele>3.0</ele><time>2026-04-20T13:33:21.764Z</time></trkpt><trkpt lat="39.9170883" lon="8.539495"><ele>3.0</ele><time>2026-04-20T13:33:28.764Z</time></trkpt><trkpt lat="39.916995" lon="8.5396133"><ele>3.0</ele><time>2026-04-20T13:33:40.763Z</time></trkpt><trkpt lat="39.91688" lon="8.5396783"><ele>3.0</ele><time>2026-04-20T13:43:45.762Z</time></trkpt><trkpt lat="39.9167875" lon="8.5398026"><ele>3.1666666666666665</ele><time>2026-04-20T13:43:57.763Z</time></trkpt><trkpt lat="39.9167274" lon="8.5398626"><ele>3.333333333333333</ele><time>2026-04-20T13:44:04.763Z</time></trkpt><trkpt lat="39.9166662" lon="8.539907"><ele>3.5</ele><time>2026-04-20T13:44:16.762Z</time></trkpt><trkpt lat="39.9165453" lon="8.5399915"><ele>3.6666666666666665</ele><time>2026-04-20T13:44:24.762Z</time></trkpt><trkpt lat="39.9164795" lon="8.5400281"><ele>3.833333333333333</ele><time>2026-04-20T13:44:30.762Z</time></trkpt><trkpt lat="39.9164259" lon="8.5400729"><ele>4.0</ele><time>2026-04-20T13:44:35.762Z</time></trkpt><trkpt lat="39.9163567" lon="8.5401032"><ele>4.0</ele><time>2026-04-20T13:44:41.762Z</time></trkpt><trkpt lat="39.9162243" lon="8.5401823"><ele>4.0</ele><time>2026-04-20T13:44:54.762Z</time></trkpt><trkpt lat="39.9161522" lon="8.5402169"><ele>4.0</ele><time>2026-04-20T13:44:59.762Z</time></trkpt><trkpt lat="39.9160951" lon="8.5402515"><ele>4.0</ele><time>2026-04-20T13:45:04.763Z</time></trkpt><trkpt lat="39.9159641" lon="8.5403139"><ele>4.0</ele><time>2026-04-20T13:45:16.763Z</time></trkpt><trkpt lat="39.9158973" lon="8.5403527"><ele>4.0</ele><time>2026-04-20T13:45:21.763Z</time></trkpt><trkpt lat="39.915827" lon="8.5403903"><ele>4.0</ele><time>2026-04-20T13:45:27.763Z</time></trkpt><trkpt lat="39.915711" lon="8.5404599"><ele>4.0</ele><time>2026-04-20T13:45:37.762Z</time></trkpt><trkpt lat="39.9156488" lon="8.5404851"><ele>4.0</ele><time>2026-04-20T13:45:43.762Z</time></trkpt><trkpt lat="39.9155876" lon="8.5405198"><ele>4.0</ele><time>2026-04-20T13:45:49.762Z</time></trkpt><trkpt lat="39.9154578" lon="8.5405837"><ele>4.0</ele><time>2026-04-20T13:46:00.762Z</time></trkpt><trkpt lat="39.915398" lon="8.5406346"><ele>4.0</ele><time>2026-04-20T13:46:08.762Z</time></trkpt><trkpt lat="39.9153284" lon="8.5406667"><ele>4.0</ele><time>2026-04-20T13:46:15.762Z</time></trkpt><trkpt lat="39.9152003" lon="8.5407305"><ele>4.0</ele><time>2026-04-20T13:46:28.762Z</time></trkpt><trkpt lat="39.9151188" lon="8.540708"><ele>4.0</ele><time>2026-04-20T13:46:59.762Z</time></trkpt><trkpt lat="39.9150095" lon="8.5405862"><ele>4.2</ele><time>2026-04-20T13:47:08.762Z</time></trkpt><trkpt lat="39.9149834" lon="8.5404909"><ele>4.4</ele><time>2026-04-20T13:47:19.762Z</time></trkpt><trkpt lat="39.914959" lon="8.5404101"><ele>4.6</ele><time>2026-04-20T13:47:23.762Z</time></trkpt><trkpt lat="39.9148934" lon="8.5402204"><ele>4.8</ele><time>2026-04-20T13:47:43.761Z</time></trkpt><trkpt lat="39.9148523" lon="8.5400683"><ele>5.0</ele><time>2026-04-20T13:47:59.761Z</time></trkpt><trkpt lat="39.9147604" lon="8.5396806"><ele>4.8</ele><time>2026-04-20T13:50:51.761Z</time></trkpt><trkpt lat="39.914697" lon="8.5395234"><ele>4.6</ele><time>2026-04-20T13:51:00.761Z</time></trkpt><trkpt lat="39.9146654" lon="8.5394397"><ele>4.4</ele><time>2026-04-20T13:51:05.761Z</time></trkpt><trkpt lat="39.9146302" lon="8.5393522"><ele>4.2</ele><time>2026-04-20T13:51:11.762Z</time></trkpt><trkpt lat="39.914603" lon="8.5392687"><ele>4.0</ele><time>2026-04-20T13:51:16.761Z</time></trkpt><trkpt lat="39.9144912" lon="8.5391544"><ele>4.0</ele><time>2026-04-20T13:51:34.761Z</time></trkpt><trkpt lat="39.9144327" lon="8.5391852"><ele>4.0</ele><time>2026-04-20T13:51:37.761Z</time></trkpt><trkpt lat="39.9142981" lon="8.5392438"><ele>4.0</ele><time>2026-04-20T13:51:47.761Z</time></trkpt><trkpt lat="39.9142412" lon="8.5392845"><ele>4.0</ele><time>2026-04-20T13:51:53.761Z</time></trkpt><trkpt lat="39.9141806" lon="8.5393142"><ele>4.0</ele><time>2026-04-20T13:51:59.761Z</time></trkpt><trkpt lat="39.913994" lon="8.5393809"><ele>4.0</ele><time>2026-04-20T13:52:45.762Z</time></trkpt><trkpt lat="39.91429" lon="8.53925"><ele>4.0</ele><time>2026-04-20T14:41:40.751Z</time></trkpt><trkpt lat="39.9143767" lon="8.5391967"><ele>4.0</ele><time>2026-04-20T14:41:42.751Z</time></trkpt><trkpt lat="39.9144533" lon="8.5391533"><ele>3.9999999999999996</ele><time>2026-04-20T14:41:44.751Z</time></trkpt><trkpt lat="39.914525" lon="8.5391567"><ele>4.0</ele><time>2026-04-20T14:41:47.751Z</time></trkpt><trkpt lat="39.9145617" lon="8.5392333"><ele>4.0</ele><time>2026-04-20T14:41:49.751Z</time></trkpt><trkpt lat="39.9145933" lon="8.5393767"><ele>4.0</ele><time>2026-04-20T14:41:51.751Z</time></trkpt><trkpt lat="39.9146133" lon="8.539455"><ele>3.9999999999999996</ele><time>2026-04-20T14:41:52.751Z</time></trkpt><trkpt lat="39.91465" lon="8.539595"><ele>4.0</ele><time>2026-04-20T14:41:54.751Z</time></trkpt><trkpt lat="39.914685" lon="8.539735"><ele>4.2</ele><time>2026-04-20T14:41:56.751Z</time></trkpt><trkpt lat="39.9147133" lon="8.539845"><ele>4.4</ele><time>2026-04-20T14:41:58.751Z</time></trkpt><trkpt lat="39.91477" lon="8.5400233"><ele>4.6</ele><time>2026-04-20T14:42:38.751Z</time></trkpt><trkpt lat="39.9148233" lon="8.5401933"><ele>4.8</ele><time>2026-04-20T14:42:40.752Z</time></trkpt><trkpt lat="39.9148483" lon="8.540275"><ele>5.0</ele><time>2026-04-20T14:42:41.751Z</time></trkpt><trkpt lat="39.914875" lon="8.54039"><ele>5.0</ele><time>2026-04-20T14:42:43.751Z</time></trkpt><trkpt lat="39.9148583" lon="8.5404867"><ele>5.0</ele><time>2026-04-20T14:42:45.752Z</time></trkpt><trkpt lat="39.91478" lon="8.5405333"><ele>5.0</ele><time>2026-04-20T14:42:47.751Z</time></trkpt><trkpt lat="39.9147083" lon="8.54057"><ele>5.0</ele><time>2026-04-20T14:42:49.751Z</time></trkpt><trkpt lat="39.9146517" lon="8.5406233"><ele>5.0</ele><time>2026-04-20T15:43:48.738Z</time></trkpt><trkpt lat="39.91479" lon="8.5405433"><ele>5.0</ele><time>2026-04-20T15:44:06.737Z</time></trkpt><trkpt lat="39.9148517" lon="8.5405167"><ele>5.0</ele><time>2026-04-20T15:44:08.737Z</time></trkpt><trkpt lat="39.9149417" lon="8.5405517"><ele>5.0</ele><time>2026-04-20T15:44:11.737Z</time></trkpt><trkpt lat="39.9149817" lon="8.5407517"><ele>5.0</ele><time>2026-04-20T15:44:15.737Z</time></trkpt><trkpt lat="39.9149783" lon="8.5408483"><ele>5.0</ele><time>2026-04-20T15:44:17.737Z</time></trkpt><trkpt lat="39.914935" lon="8.540935"><ele>5.0</ele><time>2026-04-20T15:44:19.737Z</time></trkpt><trkpt lat="39.914835" lon="8.5410333"><ele>5.0</ele><time>2026-04-20T15:44:21.737Z</time></trkpt><trkpt lat="39.9147717" lon="8.5410867"><ele>5.0</ele><time>2026-04-20T15:44:22.737Z</time></trkpt><trkpt lat="39.9147033" lon="8.54115"><ele>5.0</ele><time>2026-04-20T15:44:23.738Z</time></trkpt><trkpt lat="39.9146417" lon="8.5412317"><ele>5.0</ele><time>2026-04-20T15:44:24.737Z</time></trkpt><trkpt lat="39.914585" lon="8.5413233"><ele>5.166666666666667</ele><time>2026-04-20T15:44:25.737Z</time></trkpt><trkpt lat="39.91453" lon="8.5414167"><ele>5.333333333333334</ele><time>2026-04-20T15:44:26.738Z</time></trkpt><trkpt lat="39.9144883" lon="8.541505"><ele>5.5</ele><time>2026-04-20T15:44:27.737Z</time></trkpt><trkpt lat="39.914455" lon="8.5415933"><ele>5.666666666666667</ele><time>2026-04-20T15:44:28.737Z</time></trkpt><trkpt lat="39.91441" lon="8.5417183"><ele>5.833333333333333</ele><time>2026-04-20T15:44:30.737Z</time></trkpt><trkpt lat="39.914355" lon="8.54176"><ele>6.0</ele><time>2026-04-20T15:44:32.737Z</time></trkpt><trkpt lat="39.91415" lon="8.5418183"><ele>5.6</ele><time>2026-04-20T15:44:35.738Z</time></trkpt><trkpt lat="39.91407" lon="8.5418717"><ele>5.199999999999999</ele><time>2026-04-20T15:44:36.737Z</time></trkpt><trkpt lat="39.9140017" lon="8.5419483"><ele>4.800000000000001</ele><time>2026-04-20T15:44:37.737Z</time></trkpt><trkpt lat="39.913945" lon="8.5420483"><ele>4.4</ele><time>2026-04-20T15:44:38.737Z</time></trkpt><trkpt lat="39.9139017" lon="8.5421683"><ele>4.0</ele><time>2026-04-20T15:44:39.737Z</time></trkpt><trkpt lat="39.9138617" lon="8.5422967"><ele>4.0</ele><time>2026-04-20T15:44:40.738Z</time></trkpt><trkpt lat="39.9138067" lon="8.542445"><ele>4.0</ele><time>2026-04-20T15:44:41.738Z</time></trkpt><trkpt lat="39.91373" lon="8.5426017"><ele>4.0</ele><time>2026-04-20T15:44:42.737Z</time></trkpt><trkpt lat="39.91363" lon="8.542765"><ele>4.0</ele><time>2026-04-20T15:44:43.738Z</time></trkpt><trkpt lat="39.9135117" lon="8.5429317"><ele>3.0</ele><time>2026-04-20T15:44:44.737Z</time></trkpt><trkpt lat="39.913385" lon="8.5431083"><ele>2.0</ele><time>2026-04-20T15:44:45.737Z</time></trkpt><trkpt lat="39.9132533" lon="8.54328"><ele>1.0</ele><time>2026-04-20T15:44:46.737Z</time></trkpt><trkpt lat="39.91313" lon="8.5434483"><ele>1.0</ele><time>2026-04-20T15:44:47.737Z</time></trkpt><trkpt lat="39.9130133" lon="8.5436017"><ele>1.0</ele><time>2026-04-20T15:44:48.737Z</time></trkpt><trkpt lat="39.9129" lon="8.5437533"><ele>1.0</ele><time>2026-04-20T15:44:49.737Z</time></trkpt><trkpt lat="39.9127917" lon="8.5439"><ele>1.3333333333333333</ele><time>2026-04-20T15:44:50.738Z</time></trkpt><trkpt lat="39.9126967" lon="8.5440567"><ele>1.6666666666666665</ele><time>2026-04-20T15:44:51.737Z</time></trkpt><trkpt lat="39.9125967" lon="8.544225"><ele>2.0</ele><time>2026-04-20T15:44:52.737Z</time></trkpt><trkpt lat="39.9125" lon="8.5444017"><ele>2.0</ele><time>2026-04-20T15:44:53.737Z</time></trkpt><trkpt lat="39.9123283" lon="8.5447867"><ele>2.0</ele><time>2026-04-20T15:44:55.737Z</time></trkpt><trkpt lat="39.9122533" lon="8.5449767"><ele>2.0</ele><time>2026-04-20T15:44:56.737Z</time></trkpt><trkpt lat="39.912185" lon="8.54517"><ele>2.0</ele><time>2026-04-20T15:44:57.737Z</time></trkpt><trkpt lat="39.9121217" lon="8.5453667"><ele>2.0</ele><time>2026-04-20T15:44:58.737Z</time></trkpt><trkpt lat="39.91207" lon="8.54557"><ele>2.0</ele><time>2026-04-20T15:44:59.737Z</time></trkpt><trkpt lat="39.912035" lon="8.5457717"><ele>2.0</ele><time>2026-04-20T15:45:00.737Z</time></trkpt><trkpt lat="39.9120067" lon="8.54598"><ele>2.0</ele><time>2026-04-20T15:45:01.737Z</time></trkpt><trkpt lat="39.9119783" lon="8.5461867"><ele>2.333333333333333</ele><time>2026-04-20T15:45:02.737Z</time></trkpt><trkpt lat="39.911955" lon="8.5463983"><ele>2.6666666666666665</ele><time>2026-04-20T15:45:03.737Z</time></trkpt><trkpt lat="39.9119283" lon="8.5466183"><ele>3.0</ele><time>2026-04-20T15:45:04.737Z</time></trkpt><trkpt lat="39.9119083" lon="8.5468433"><ele>3.0</ele><time>2026-04-20T15:45:05.737Z</time></trkpt><trkpt lat="39.9118833" lon="8.5470767"><ele>3.0</ele><time>2026-04-20T15:45:06.737Z</time></trkpt><trkpt lat="39.9118567" lon="8.5473183"><ele>3.0</ele><time>2026-04-20T15:45:07.737Z</time></trkpt><trkpt lat="39.9118333" lon="8.5475533"><ele>3.0</ele><time>2026-04-20T15:45:08.737Z</time></trkpt><trkpt lat="39.9118083" lon="8.54779"><ele>3.0</ele><time>2026-04-20T15:45:09.738Z</time></trkpt><trkpt lat="39.9117917" lon="8.548035"><ele>3.0</ele><time>2026-04-20T15:45:10.737Z</time></trkpt><trkpt lat="39.9117733" lon="8.5482867"><ele>3.0</ele><time>2026-04-20T15:45:11.737Z</time></trkpt><trkpt lat="39.91175" lon="8.54854"><ele>3.0</ele><time>2026-04-20T15:45:12.737Z</time></trkpt><trkpt lat="39.911725" lon="8.5487933"><ele>3.0</ele><time>2026-04-20T15:45:13.738Z</time></trkpt><trkpt lat="39.911705" lon="8.549045"><ele>3.0</ele><time>2026-04-20T15:45:14.737Z</time></trkpt><trkpt lat="39.9116517" lon="8.549535"><ele>3.0</ele><time>2026-04-20T15:45:16.737Z</time></trkpt><trkpt lat="39.911625" lon="8.5497833"><ele>3.0</ele><time>2026-04-20T15:45:17.737Z</time></trkpt><trkpt lat="39.911605" lon="8.5500333"><ele>3.0</ele><time>2026-04-20T15:45:18.738Z</time></trkpt><trkpt lat="39.9115833" lon="8.5502817"><ele>3.0</ele><time>2026-04-20T15:45:19.737Z</time></trkpt><trkpt lat="39.91156" lon="8.5505283"><ele>3.0</ele><time>2026-04-20T15:45:20.737Z</time></trkpt><trkpt lat="39.9115367" lon="8.55078"><ele>3.0</ele><time>2026-04-20T15:45:21.737Z</time></trkpt><trkpt lat="39.9115083" lon="8.5510367"><ele>3.0</ele><time>2026-04-20T15:45:22.737Z</time></trkpt><trkpt lat="39.9114833" lon="8.5512767"><ele>3.0</ele><time>2026-04-20T15:45:23.738Z</time></trkpt><trkpt lat="39.9114567" lon="8.5515183"><ele>3.0</ele><time>2026-04-20T15:45:24.737Z</time></trkpt><trkpt lat="39.9114333" lon="8.5517667"><ele>3.0</ele><time>2026-04-20T15:45:25.737Z</time></trkpt><trkpt lat="39.9114117" lon="8.5520183"><ele>3.0</ele><time>2026-04-20T15:45:26.737Z</time></trkpt><trkpt lat="39.911385" lon="8.5522633"><ele>3.0</ele><time>2026-04-20T15:45:27.737Z</time></trkpt><trkpt lat="39.9113633" lon="8.55251"><ele>3.0</ele><time>2026-04-20T15:45:28.737Z</time></trkpt><trkpt lat="39.91134" lon="8.55276"><ele>2.6666666666666665</ele><time>2026-04-20T15:45:29.737Z</time></trkpt><trkpt lat="39.9113133" lon="8.553015"><ele>2.333333333333333</ele><time>2026-04-20T15:45:30.737Z</time></trkpt><trkpt lat="39.9112933" lon="8.5532633"><ele>2.0</ele><time>2026-04-20T15:45:31.737Z</time></trkpt><trkpt lat="39.91127" lon="8.5535083"><ele>2.0</ele><time>2026-04-20T15:45:32.737Z</time></trkpt><trkpt lat="39.9112483" lon="8.5537583"><ele>2.0</ele><time>2026-04-20T15:45:33.737Z</time></trkpt><trkpt lat="39.911225" lon="8.5540017"><ele>2.0</ele><time>2026-04-20T15:45:34.737Z</time></trkpt><trkpt lat="39.9112017" lon="8.554235"><ele>2.5</ele><time>2026-04-20T15:45:35.737Z</time></trkpt><trkpt lat="39.91116" lon="8.5546983"><ele>3.0</ele><time>2026-04-20T15:45:37.737Z</time></trkpt><trkpt lat="39.9111383" lon="8.554925"><ele>3.0</ele><time>2026-04-20T15:45:38.737Z</time></trkpt><trkpt lat="39.9111167" lon="8.5551517"><ele>3.0</ele><time>2026-04-20T15:45:39.738Z</time></trkpt><trkpt lat="39.9110967" lon="8.5553733"><ele>3.0</ele><time>2026-04-20T15:45:40.737Z</time></trkpt><trkpt lat="39.9110767" lon="8.55559"><ele>2.75</ele><time>2026-04-20T15:45:41.737Z</time></trkpt><trkpt lat="39.9110533" lon="8.5557917"><ele>2.5</ele><time>2026-04-20T15:45:42.737Z</time></trkpt><trkpt lat="39.9110317" lon="8.55599"><ele>2.25</ele><time>2026-04-20T15:45:43.738Z</time></trkpt><trkpt lat="39.9110133" lon="8.5561683"><ele>2.0</ele><time>2026-04-20T15:45:44.737Z</time></trkpt><trkpt lat="39.9109933" lon="8.5563483"><ele>2.0</ele><time>2026-04-20T15:45:45.737Z</time></trkpt><trkpt lat="39.9109783" lon="8.5565283"><ele>2.0</ele><time>2026-04-20T15:45:46.738Z</time></trkpt><trkpt lat="39.910965" lon="8.5567033"><ele>2.0</ele><time>2026-04-20T15:45:47.737Z</time></trkpt><trkpt lat="39.9109517" lon="8.55687"><ele>2.0</ele><time>2026-04-20T15:45:48.737Z</time></trkpt><trkpt lat="39.9109333" lon="8.5570367"><ele>2.2</ele><time>2026-04-20T15:45:49.737Z</time></trkpt><trkpt lat="39.9109183" lon="8.5571883"><ele>2.4000000000000004</ele><time>2026-04-20T15:45:50.737Z</time></trkpt><trkpt lat="39.9109067" lon="8.5573267"><ele>2.5999999999999996</ele><time>2026-04-20T15:45:51.737Z</time></trkpt><trkpt lat="39.9108967" lon="8.5574467"><ele>2.8</ele><time>2026-04-20T15:45:52.737Z</time></trkpt><trkpt lat="39.9108783" lon="8.557555"><ele>3.0</ele><time>2026-04-20T15:45:53.737Z</time></trkpt><trkpt lat="39.9108517" lon="8.5576517"><ele>3.2</ele><time>2026-04-20T15:45:54.737Z</time></trkpt><trkpt lat="39.91081" lon="8.5577283"><ele>3.4</ele><time>2026-04-20T15:45:55.737Z</time></trkpt><trkpt lat="39.9107483" lon="8.5578017"><ele>3.6000000000000005</ele><time>2026-04-20T15:45:56.737Z</time></trkpt><trkpt lat="39.91062" lon="8.5579667"><ele>3.8000000000000003</ele><time>2026-04-20T15:45:58.737Z</time></trkpt><trkpt lat="39.910575" lon="8.55807"><ele>4.0</ele><time>2026-04-20T15:45:59.737Z</time></trkpt><trkpt lat="39.9105567" lon="8.5581833"><ele>3.8000000000000003</ele><time>2026-04-20T15:46:00.737Z</time></trkpt><trkpt lat="39.9105617" lon="8.558305"><ele>3.6000000000000005</ele><time>2026-04-20T15:46:01.738Z</time></trkpt><trkpt lat="39.910585" lon="8.5584183"><ele>3.4</ele><time>2026-04-20T15:46:02.737Z</time></trkpt><trkpt lat="39.9106233" lon="8.5585333"><ele>3.2</ele><time>2026-04-20T15:46:03.737Z</time></trkpt><trkpt lat="39.9106667" lon="8.5586467"><ele>3.0</ele><time>2026-04-20T15:46:04.737Z</time></trkpt><trkpt lat="39.9106967" lon="8.5587683"><ele>3.0</ele><time>2026-04-20T15:46:05.738Z</time></trkpt><trkpt lat="39.9107017" lon="8.5589017"><ele>3.0</ele><time>2026-04-20T15:46:06.737Z</time></trkpt><trkpt lat="39.9106833" lon="8.559045"><ele>3.0</ele><time>2026-04-20T15:46:07.737Z</time></trkpt><trkpt lat="39.9106533" lon="8.5591883"><ele>3.0</ele><time>2026-04-20T15:46:08.737Z</time></trkpt><trkpt lat="39.91062" lon="8.5593417"><ele>3.0</ele><time>2026-04-20T15:46:09.737Z</time></trkpt><trkpt lat="39.9105833" lon="8.5594917"><ele>3.0</ele><time>2026-04-20T15:46:10.737Z</time></trkpt><trkpt lat="39.9105433" lon="8.5596417"><ele>3.0</ele><time>2026-04-20T15:46:11.737Z</time></trkpt><trkpt lat="39.9104967" lon="8.5598033"><ele>3.0</ele><time>2026-04-20T15:46:12.737Z</time></trkpt><trkpt lat="39.91045" lon="8.5599717"><ele>3.25</ele><time>2026-04-20T15:46:13.737Z</time></trkpt><trkpt lat="39.910395" lon="8.5601367"><ele>3.5</ele><time>2026-04-20T15:46:14.737Z</time></trkpt><trkpt lat="39.91034" lon="8.5602933"><ele>3.75</ele><time>2026-04-20T15:46:15.737Z</time></trkpt><trkpt lat="39.9102883" lon="8.56045"><ele>4.0</ele><time>2026-04-20T15:46:16.737Z</time></trkpt><trkpt lat="39.91024" lon="8.5605983"><ele>4.0</ele><time>2026-04-20T15:46:17.737Z</time></trkpt><trkpt lat="39.9101433" lon="8.560885"><ele>4.0</ele><time>2026-04-20T15:46:19.737Z</time></trkpt><trkpt lat="39.9100983" lon="8.5610183"><ele>4.0</ele><time>2026-04-20T15:46:20.737Z</time></trkpt><trkpt lat="39.9100533" lon="8.5611567"><ele>3.5</ele><time>2026-04-20T15:46:21.737Z</time></trkpt><trkpt lat="39.910015" lon="8.5612983"><ele>3.0</ele><time>2026-04-20T15:46:22.737Z</time></trkpt><trkpt lat="39.9099733" lon="8.5614333"><ele>2.5</ele><time>2026-04-20T15:46:23.737Z</time></trkpt><trkpt lat="39.9099283" lon="8.5615683"><ele>2.0</ele><time>2026-04-20T15:46:24.738Z</time></trkpt><trkpt lat="39.9098817" lon="8.561705"><ele>2.0</ele><time>2026-04-20T15:46:25.737Z</time></trkpt><trkpt lat="39.9098383" lon="8.5618467"><ele>2.0</ele><time>2026-04-20T15:46:26.738Z</time></trkpt><trkpt lat="39.90979" lon="8.5620017"><ele>2.0</ele><time>2026-04-20T15:46:27.737Z</time></trkpt><trkpt lat="39.9097333" lon="8.5621617"><ele>2.0</ele><time>2026-04-20T15:46:28.737Z</time></trkpt><trkpt lat="39.9096817" lon="8.5623283"><ele>2.75</ele><time>2026-04-20T15:46:29.737Z</time></trkpt><trkpt lat="39.9096283" lon="8.562495"><ele>3.5</ele><time>2026-04-20T15:46:30.738Z</time></trkpt><trkpt lat="39.9095683" lon="8.562665"><ele>4.25</ele><time>2026-04-20T15:46:31.738Z</time></trkpt><trkpt lat="39.9095067" lon="8.5628433"><ele>5.0</ele><time>2026-04-20T15:46:32.738Z</time></trkpt><trkpt lat="39.9094467" lon="8.5630117"><ele>5.0</ele><time>2026-04-20T15:46:33.737Z</time></trkpt><trkpt lat="39.9093933" lon="8.5631767"><ele>5.0</ele><time>2026-04-20T15:46:34.737Z</time></trkpt><trkpt lat="39.9093417" lon="8.5633433"><ele>5.0</ele><time>2026-04-20T15:46:35.737Z</time></trkpt><trkpt lat="39.90929" lon="8.5635067"><ele>5.0</ele><time>2026-04-20T15:46:36.737Z</time></trkpt><trkpt lat="39.9092317" lon="8.5636683"><ele>4.0</ele><time>2026-04-20T15:46:37.737Z</time></trkpt><trkpt lat="39.90917" lon="8.5638417"><ele>3.0</ele><time>2026-04-20T15:46:38.738Z</time></trkpt><trkpt lat="39.90905" lon="8.5642167"><ele>3.0</ele><time>2026-04-20T15:46:40.737Z</time></trkpt><trkpt lat="39.908985" lon="8.5644033"><ele>3.0</ele><time>2026-04-20T15:46:41.738Z</time></trkpt><trkpt lat="39.9089183" lon="8.5645933"><ele>3.0</ele><time>2026-04-20T15:46:42.737Z</time></trkpt><trkpt lat="39.9088517" lon="8.56478"><ele>3.0</ele><time>2026-04-20T15:46:43.737Z</time></trkpt><trkpt lat="39.90879" lon="8.5649733"><ele>3.0</ele><time>2026-04-20T15:46:44.738Z</time></trkpt><trkpt lat="39.90873" lon="8.5651617"><ele>3.0</ele><time>2026-04-20T15:46:45.738Z</time></trkpt><trkpt lat="39.9086683" lon="8.5653367"><ele>3.0</ele><time>2026-04-20T15:46:46.737Z</time></trkpt><trkpt lat="39.9086067" lon="8.565515"><ele>3.0</ele><time>2026-04-20T15:46:47.737Z</time></trkpt><trkpt lat="39.9085467" lon="8.5656917"><ele>3.0</ele><time>2026-04-20T15:46:48.737Z</time></trkpt><trkpt lat="39.9084883" lon="8.5658717"><ele>3.0</ele><time>2026-04-20T15:46:49.737Z</time></trkpt><trkpt lat="39.9084317" lon="8.5660517"><ele>3.5</ele><time>2026-04-20T15:46:50.737Z</time></trkpt><trkpt lat="39.90837" lon="8.56622"><ele>4.0</ele><time>2026-04-20T15:46:51.737Z</time></trkpt><trkpt lat="39.9083183" lon="8.5663833"><ele>4.5</ele><time>2026-04-20T15:46:52.738Z</time></trkpt><trkpt lat="39.9082683" lon="8.5665383"><ele>5.0</ele><time>2026-04-20T15:46:53.737Z</time></trkpt><trkpt lat="39.9082283" lon="8.56669"><ele>5.0</ele><time>2026-04-20T15:46:54.738Z</time></trkpt><trkpt lat="39.9081867" lon="8.5668433"><ele>5.0</ele><time>2026-04-20T15:46:55.738Z</time></trkpt><trkpt lat="39.90814" lon="8.5670133"><ele>5.0</ele><time>2026-04-20T15:46:56.737Z</time></trkpt><trkpt lat="39.908095" lon="8.56719"><ele>5.0</ele><time>2026-04-20T15:46:57.737Z</time></trkpt><trkpt lat="39.9080417" lon="8.567375"><ele>4.5</ele><time>2026-04-20T15:46:58.737Z</time></trkpt><trkpt lat="39.908" lon="8.567565"><ele>4.0</ele><time>2026-04-20T15:46:59.737Z</time></trkpt><trkpt lat="39.9079233" lon="8.5679467"><ele>4.0</ele><time>2026-04-20T15:47:01.737Z</time></trkpt><trkpt lat="39.907885" lon="8.5681367"><ele>4.0</ele><time>2026-04-20T15:47:02.737Z</time></trkpt><trkpt lat="39.9078533" lon="8.5683167"><ele>4.0</ele><time>2026-04-20T15:47:03.738Z</time></trkpt><trkpt lat="39.9078317" lon="8.5684883"><ele>4.0</ele><time>2026-04-20T15:47:04.737Z</time></trkpt><trkpt lat="39.9078083" lon="8.5686517"><ele>4.25</ele><time>2026-04-20T15:47:05.737Z</time></trkpt><trkpt lat="39.9077933" lon="8.5688217"><ele>4.5</ele><time>2026-04-20T15:47:06.738Z</time></trkpt><trkpt lat="39.9077667" lon="8.5689983"><ele>4.75</ele><time>2026-04-20T15:47:07.737Z</time></trkpt><trkpt lat="39.9077367" lon="8.56918"><ele>5.0</ele><time>2026-04-20T15:47:08.737Z</time></trkpt><trkpt lat="39.9077017" lon="8.5693883"><ele>4.666666666666667</ele><time>2026-04-20T15:47:09.737Z</time></trkpt><trkpt lat="39.907675" lon="8.5695933"><ele>4.333333333333333</ele><time>2026-04-20T15:47:10.737Z</time></trkpt><trkpt lat="39.9076433" lon="8.569805"><ele>4.0</ele><time>2026-04-20T15:47:11.737Z</time></trkpt><trkpt lat="39.9076117" lon="8.57001"><ele>4.0</ele><time>2026-04-20T15:47:12.737Z</time></trkpt><trkpt lat="39.90758" lon="8.5702133"><ele>4.0</ele><time>2026-04-20T15:47:13.737Z</time></trkpt><trkpt lat="39.907545" lon="8.5704233"><ele>4.0</ele><time>2026-04-20T15:47:14.737Z</time></trkpt><trkpt lat="39.9075167" lon="8.5706283"><ele>3.6666666666666665</ele><time>2026-04-20T15:47:15.737Z</time></trkpt><trkpt lat="39.907485" lon="8.57084"><ele>3.333333333333333</ele><time>2026-04-20T15:47:16.737Z</time></trkpt><trkpt lat="39.9074533" lon="8.571055"><ele>3.0</ele><time>2026-04-20T15:47:17.738Z</time></trkpt><trkpt lat="39.9074183" lon="8.5712633"><ele>3.0</ele><time>2026-04-20T15:47:18.737Z</time></trkpt><trkpt lat="39.907385" lon="8.5714733"><ele>3.0</ele><time>2026-04-20T15:47:19.737Z</time></trkpt><trkpt lat="39.9073567" lon="8.57168"><ele>3.0</ele><time>2026-04-20T15:47:20.737Z</time></trkpt><trkpt lat="39.9073" lon="8.5720817"><ele>3.0</ele><time>2026-04-20T15:47:22.737Z</time></trkpt><trkpt lat="39.9072667" lon="8.5722783"><ele>3.0</ele><time>2026-04-20T15:47:23.738Z</time></trkpt><trkpt lat="39.9072367" lon="8.572475"><ele>3.0</ele><time>2026-04-20T15:47:24.737Z</time></trkpt><trkpt lat="39.9071983" lon="8.5726683"><ele>3.0</ele><time>2026-04-20T15:47:25.737Z</time></trkpt><trkpt lat="39.9071667" lon="8.57285"><ele>3.0</ele><time>2026-04-20T15:47:26.737Z</time></trkpt><trkpt lat="39.9071317" lon="8.5730333"><ele>3.0</ele><time>2026-04-20T15:47:27.737Z</time></trkpt><trkpt lat="39.9071" lon="8.5732167"><ele>3.0</ele><time>2026-04-20T15:47:28.737Z</time></trkpt><trkpt lat="39.9070667" lon="8.5734"><ele>3.0</ele><time>2026-04-20T15:47:29.737Z</time></trkpt><trkpt lat="39.9070283" lon="8.5735817"><ele>3.0</ele><time>2026-04-20T15:47:30.737Z</time></trkpt><trkpt lat="39.906995" lon="8.573765"><ele>3.0</ele><time>2026-04-20T15:47:31.737Z</time></trkpt><trkpt lat="39.90696" lon="8.5739517"><ele>3.0</ele><time>2026-04-20T15:47:32.737Z</time></trkpt><trkpt lat="39.906925" lon="8.57414"><ele>2.6666666666666665</ele><time>2026-04-20T15:47:33.737Z</time></trkpt><trkpt lat="39.9068867" lon="8.574325"><ele>2.333333333333333</ele><time>2026-04-20T15:47:34.737Z</time></trkpt><trkpt lat="39.906845" lon="8.5745133"><ele>2.0</ele><time>2026-04-20T15:47:35.738Z</time></trkpt><trkpt lat="39.906805" lon="8.574705"><ele>1.75</ele><time>2026-04-20T15:47:36.737Z</time></trkpt><trkpt lat="39.9067633" lon="8.5748783"><ele>1.5</ele><time>2026-04-20T15:47:37.737Z</time></trkpt><trkpt lat="39.906725" lon="8.575045"><ele>1.25</ele><time>2026-04-20T15:47:38.737Z</time></trkpt><trkpt lat="39.9066933" lon="8.57521"><ele>1.0</ele><time>2026-04-20T15:47:39.738Z</time></trkpt><trkpt lat="39.9066617" lon="8.57537"><ele>1.6666666666666665</ele><time>2026-04-20T15:47:40.737Z</time></trkpt><trkpt lat="39.906635" lon="8.57553"><ele>2.3333333333333335</ele><time>2026-04-20T15:47:41.737Z</time></trkpt><trkpt lat="39.9065683" lon="8.5758517"><ele>3.0</ele><time>2026-04-20T15:47:43.737Z</time></trkpt><trkpt lat="39.9065383" lon="8.5760217"><ele>3.25</ele><time>2026-04-20T15:47:44.738Z</time></trkpt><trkpt lat="39.9065133" lon="8.57619"><ele>3.5</ele><time>2026-04-20T15:47:45.738Z</time></trkpt><trkpt lat="39.906485" lon="8.5763583"><ele>3.75</ele><time>2026-04-20T15:47:46.738Z</time></trkpt><trkpt lat="39.906455" lon="8.576525"><ele>4.0</ele><time>2026-04-20T15:47:47.737Z</time></trkpt><trkpt lat="39.9064267" lon="8.5766917"><ele>4.0</ele><time>2026-04-20T15:47:48.738Z</time></trkpt><trkpt lat="39.9064067" lon="8.5768583"><ele>4.0</ele><time>2026-04-20T15:47:49.737Z</time></trkpt><trkpt lat="39.9063833" lon="8.5770183"><ele>4.0</ele><time>2026-04-20T15:47:50.737Z</time></trkpt><trkpt lat="39.9063633" lon="8.57718"><ele>4.0</ele><time>2026-04-20T15:47:51.737Z</time></trkpt><trkpt lat="39.906345" lon="8.5773383"><ele>4.25</ele><time>2026-04-20T15:47:52.738Z</time></trkpt><trkpt lat="39.9063267" lon="8.5774917"><ele>4.5</ele><time>2026-04-20T15:47:53.738Z</time></trkpt><trkpt lat="39.9063117" lon="8.5776467"><ele>4.75</ele><time>2026-04-20T15:47:54.737Z</time></trkpt><trkpt lat="39.906305" lon="8.577805"><ele>5.0</ele><time>2026-04-20T15:47:55.738Z</time></trkpt><trkpt lat="39.9062917" lon="8.57796"><ele>5.0</ele><time>2026-04-20T15:47:56.737Z</time></trkpt><trkpt lat="39.906285" lon="8.5781117"><ele>5.0</ele><time>2026-04-20T15:47:57.737Z</time></trkpt><trkpt lat="39.9062783" lon="8.578265"><ele>5.0</ele><time>2026-04-20T15:47:58.737Z</time></trkpt><trkpt lat="39.9062683" lon="8.5784183"><ele>5.0</ele><time>2026-04-20T15:47:59.737Z</time></trkpt><trkpt lat="39.9062617" lon="8.5785617"><ele>4.666666666666667</ele><time>2026-04-20T15:48:00.737Z</time></trkpt><trkpt lat="39.9062533" lon="8.5787133"><ele>4.333333333333333</ele><time>2026-04-20T15:48:01.737Z</time></trkpt><trkpt lat="39.906245" lon="8.57887"><ele>4.0</ele><time>2026-04-20T15:48:02.737Z</time></trkpt><trkpt lat="39.9062267" lon="8.579155"><ele>4.0</ele><time>2026-04-20T15:48:04.737Z</time></trkpt><trkpt lat="39.906225" lon="8.5792817"><ele>4.0</ele><time>2026-04-20T15:48:05.737Z</time></trkpt><trkpt lat="39.9062167" lon="8.579405"><ele>4.0</ele><time>2026-04-20T15:48:06.738Z</time></trkpt><trkpt lat="39.9062133" lon="8.5795283"><ele>4.0</ele><time>2026-04-20T15:48:07.737Z</time></trkpt><trkpt lat="39.9062017" lon="8.5796617"><ele>4.0</ele><time>2026-04-20T15:48:08.738Z</time></trkpt><trkpt lat="39.9061983" lon="8.5797883"><ele>3.9999999999999996</ele><time>2026-04-20T15:48:09.737Z</time></trkpt><trkpt lat="39.9061917" lon="8.579905"><ele>4.0</ele><time>2026-04-20T15:48:10.737Z</time></trkpt><trkpt lat="39.9061833" lon="8.580015"><ele>4.0</ele><time>2026-04-20T15:48:11.737Z</time></trkpt><trkpt lat="39.90617" lon="8.5801133"><ele>4.0</ele><time>2026-04-20T15:48:12.737Z</time></trkpt><trkpt lat="39.9061567" lon="8.5802083"><ele>3.9999999999999996</ele><time>2026-04-20T15:48:13.737Z</time></trkpt><trkpt lat="39.9061383" lon="8.5803"><ele>4.0</ele><time>2026-04-20T15:48:14.737Z</time></trkpt><trkpt lat="39.90612" lon="8.5803933"><ele>4.2</ele><time>2026-04-20T15:48:15.737Z</time></trkpt><trkpt lat="39.90612" lon="8.58056"><ele>4.4</ele><time>2026-04-20T15:48:17.737Z</time></trkpt><trkpt lat="39.906125" lon="8.5806483"><ele>4.6</ele><time>2026-04-20T15:48:18.737Z</time></trkpt><trkpt lat="39.9061233" lon="8.5807867"><ele>4.8</ele><time>2026-04-20T15:48:20.737Z</time></trkpt><trkpt lat="39.9060717" lon="8.5808633"><ele>5.0</ele><time>2026-04-20T15:48:22.738Z</time></trkpt><trkpt lat="39.9059667" lon="8.5809083"><ele>5.0</ele><time>2026-04-20T15:48:24.737Z</time></trkpt><trkpt lat="39.9058167" lon="8.5809483"><ele>5.0</ele><time>2026-04-20T15:48:26.737Z</time></trkpt><trkpt lat="39.9057367" lon="8.5809833"><ele>5.0</ele><time>2026-04-20T15:48:27.737Z</time></trkpt><trkpt lat="39.9056467" lon="8.5810267"><ele>5.0</ele><time>2026-04-20T15:48:28.737Z</time></trkpt><trkpt lat="39.90556" lon="8.5810733"><ele>5.0</ele><time>2026-04-20T15:48:29.737Z</time></trkpt><trkpt lat="39.905465" lon="8.5811083"><ele>5.0</ele><time>2026-04-20T15:48:30.737Z</time></trkpt><trkpt lat="39.9053783" lon="8.5811517"><ele>5.0</ele><time>2026-04-20T15:48:31.737Z</time></trkpt><trkpt lat="39.905285" lon="8.581195"><ele>5.0</ele><time>2026-04-20T15:48:32.738Z</time></trkpt><trkpt lat="39.90519" lon="8.5812383"><ele>5.0</ele><time>2026-04-20T15:48:33.737Z</time></trkpt><trkpt lat="39.9050983" lon="8.5812833"><ele>5.0</ele><time>2026-04-20T15:48:34.738Z</time></trkpt><trkpt lat="39.9050133" lon="8.5813317"><ele>5.0</ele><time>2026-04-20T15:48:35.737Z</time></trkpt><trkpt lat="39.9049267" lon="8.581385"><ele>5.0</ele><time>2026-04-20T15:48:36.737Z</time></trkpt><trkpt lat="39.9048367" lon="8.5814367"><ele>5.0</ele><time>2026-04-20T15:48:37.737Z</time></trkpt><trkpt lat="39.904745" lon="8.58147"><ele>5.0</ele><time>2026-04-20T15:48:38.737Z</time></trkpt><trkpt lat="39.9046567" lon="8.58152"><ele>5.0</ele><time>2026-04-20T15:48:39.737Z</time></trkpt><trkpt lat="39.9045667" lon="8.5815533"><ele>5.0</ele><time>2026-04-20T15:48:40.737Z</time></trkpt><trkpt lat="39.904485" lon="8.5815967"><ele>5.0</ele><time>2026-04-20T15:48:41.737Z</time></trkpt><trkpt lat="39.9044017" lon="8.5816483"><ele>5.0</ele><time>2026-04-20T15:48:42.737Z</time></trkpt><trkpt lat="39.9043117" lon="8.5817033"><ele>5.0</ele><time>2026-04-20T15:48:43.738Z</time></trkpt><trkpt lat="39.90422" lon="8.5817667"><ele>5.0</ele><time>2026-04-20T15:48:44.737Z</time></trkpt><trkpt lat="39.904125" lon="8.5818283"><ele>5.0</ele><time>2026-04-20T15:48:45.737Z</time></trkpt><trkpt lat="39.90393" lon="8.58193"><ele>5.0</ele><time>2026-04-20T15:48:47.737Z</time></trkpt><trkpt lat="39.9038317" lon="8.5819767"><ele>5.0</ele><time>2026-04-20T15:48:48.737Z</time></trkpt><trkpt lat="39.903735" lon="8.582025"><ele>5.0</ele><time>2026-04-20T15:48:49.737Z</time></trkpt><trkpt lat="39.9036383" lon="8.5820717"><ele>5.0</ele><time>2026-04-20T15:48:50.738Z</time></trkpt><trkpt lat="39.9035433" lon="8.58212"><ele>5.0</ele><time>2026-04-20T15:48:51.737Z</time></trkpt><trkpt lat="39.903455" lon="8.5821633"><ele>5.0</ele><time>2026-04-20T15:48:52.738Z</time></trkpt><trkpt lat="39.9033717" lon="8.5822017"><ele>5.0</ele><time>2026-04-20T15:48:53.737Z</time></trkpt><trkpt lat="39.903295" lon="8.5822417"><ele>5.0</ele><time>2026-04-20T15:48:54.738Z</time></trkpt><trkpt lat="39.9032217" lon="8.5822833"><ele>5.0</ele><time>2026-04-20T15:48:55.737Z</time></trkpt><trkpt lat="39.9031483" lon="8.5823233"><ele>5.166666666666667</ele><time>2026-04-20T15:48:56.737Z</time></trkpt><trkpt lat="39.903065" lon="8.5823717"><ele>5.333333333333334</ele><time>2026-04-20T15:48:57.737Z</time></trkpt><trkpt lat="39.9029833" lon="8.582425"><ele>5.5</ele><time>2026-04-20T15:48:58.737Z</time></trkpt><trkpt lat="39.9029" lon="8.582485"><ele>5.666666666666667</ele><time>2026-04-20T15:48:59.737Z</time></trkpt><trkpt lat="39.902835" lon="8.582555"><ele>5.833333333333333</ele><time>2026-04-20T15:49:00.737Z</time></trkpt><trkpt lat="39.9027717" lon="8.5826017"><ele>6.0</ele><time>2026-04-20T15:49:01.738Z</time></trkpt><trkpt lat="39.9027083" lon="8.5826533"><ele>6.0</ele><time>2026-04-20T15:49:02.737Z</time></trkpt><trkpt lat="39.9026433" lon="8.5827167"><ele>6.0</ele><time>2026-04-20T15:49:03.737Z</time></trkpt><trkpt lat="39.9025667" lon="8.5827667"><ele>6.0</ele><time>2026-04-20T15:49:04.738Z</time></trkpt><trkpt lat="39.9024967" lon="8.582835"><ele>6.0</ele><time>2026-04-20T15:49:05.737Z</time></trkpt><trkpt lat="39.9024283" lon="8.5828933"><ele>6.0</ele><time>2026-04-20T15:49:06.738Z</time></trkpt><trkpt lat="39.9023117" lon="8.5829833"><ele>6.333333333333333</ele><time>2026-04-20T15:49:08.737Z</time></trkpt><trkpt lat="39.902255" lon="8.5830267"><ele>6.666666666666666</ele><time>2026-04-20T15:49:09.737Z</time></trkpt><trkpt lat="39.90216" lon="8.583115"><ele>7.0</ele><time>2026-04-20T15:49:11.737Z</time></trkpt><trkpt lat="39.902085" lon="8.5831933"><ele>7.333333333333333</ele><time>2026-04-20T15:49:13.737Z</time></trkpt><trkpt lat="39.9020217" lon="8.583255"><ele>7.666666666666666</ele><time>2026-04-20T15:49:15.737Z</time></trkpt><trkpt lat="39.9019533" lon="8.5832767"><ele>8.0</ele><time>2026-04-20T15:49:17.737Z</time></trkpt><trkpt lat="39.9018683" lon="8.5832567"><ele>8.0</ele><time>2026-04-20T15:49:20.737Z</time></trkpt><trkpt lat="39.9017833" lon="8.5832233"><ele>8.0</ele><time>2026-04-20T15:49:23.737Z</time></trkpt><trkpt lat="39.9017" lon="8.5832467"><ele>8.0</ele><time>2026-04-20T15:49:25.737Z</time></trkpt><trkpt lat="39.9016517" lon="8.5833"><ele>8.0</ele><time>2026-04-20T15:49:26.738Z</time></trkpt><trkpt lat="39.901595" lon="8.5833583"><ele>8.0</ele><time>2026-04-20T15:49:27.737Z</time></trkpt><trkpt lat="39.90146" lon="8.5834817"><ele>8.0</ele><time>2026-04-20T15:49:29.737Z</time></trkpt><trkpt lat="39.9013983" lon="8.5835533"><ele>8.0</ele><time>2026-04-20T15:49:30.738Z</time></trkpt><trkpt lat="39.9013383" lon="8.5836267"><ele>8.0</ele><time>2026-04-20T15:49:31.737Z</time></trkpt><trkpt lat="39.9012833" lon="8.583685"><ele>8.0</ele><time>2026-04-20T15:49:32.737Z</time></trkpt><trkpt lat="39.901195" lon="8.5837833"><ele>8.0</ele><time>2026-04-20T15:49:34.737Z</time></trkpt><trkpt lat="39.901105" lon="8.5838767"><ele>7.999999999999999</ele><time>2026-04-20T15:49:36.738Z</time></trkpt><trkpt lat="39.9010617" lon="8.5839367"><ele>8.0</ele><time>2026-04-20T15:49:37.737Z</time></trkpt><trkpt lat="39.901015" lon="8.583995"><ele>8.0</ele><time>2026-04-20T15:49:38.737Z</time></trkpt><trkpt lat="39.9009683" lon="8.5840583"><ele>8.0</ele><time>2026-04-20T15:49:39.738Z</time></trkpt><trkpt lat="39.900915" lon="8.58412"><ele>7.999999999999999</ele><time>2026-04-20T15:49:40.737Z</time></trkpt><trkpt lat="39.90086" lon="8.5841817"><ele>8.0</ele><time>2026-04-20T15:49:41.737Z</time></trkpt><trkpt lat="39.9007733" lon="8.5842967"><ele>8.0</ele><time>2026-04-20T15:49:43.737Z</time></trkpt><trkpt lat="39.900725" lon="8.584365"><ele>8.0</ele><time>2026-04-20T15:49:44.738Z</time></trkpt><trkpt lat="39.9006967" lon="8.5844817"><ele>8.0</ele><time>2026-04-20T15:49:45.737Z</time></trkpt><trkpt lat="39.90065" lon="8.5846033"><ele>8.0</ele><time>2026-04-20T15:49:46.737Z</time></trkpt><trkpt lat="39.90059" lon="8.584735"><ele>8.0</ele><time>2026-04-20T15:49:47.737Z</time></trkpt><trkpt lat="39.9005283" lon="8.5848733"><ele>8.0</ele><time>2026-04-20T15:49:48.737Z</time></trkpt><trkpt lat="39.9003117" lon="8.585165"><ele>8.0</ele><time>2026-04-20T15:49:50.737Z</time></trkpt><trkpt lat="39.9001933" lon="8.5853133"><ele>7.5</ele><time>2026-04-20T15:49:51.737Z</time></trkpt><trkpt lat="39.9000983" lon="8.5854633"><ele>7.0</ele><time>2026-04-20T15:49:52.737Z</time></trkpt><trkpt lat="39.9000233" lon="8.5856167"><ele>6.5</ele><time>2026-04-20T15:49:53.737Z</time></trkpt><trkpt lat="39.8999433" lon="8.58576"><ele>6.0</ele><time>2026-04-20T15:49:54.737Z</time></trkpt><trkpt lat="39.899845" lon="8.5858917"><ele>6.0</ele><time>2026-04-20T15:49:55.737Z</time></trkpt><trkpt lat="39.8997533" lon="8.586025"><ele>6.0</ele><time>2026-04-20T15:49:56.737Z</time></trkpt><trkpt lat="39.8996633" lon="8.5861383"><ele>6.0</ele><time>2026-04-20T15:49:57.737Z</time></trkpt><trkpt lat="39.8995833" lon="8.58625"><ele>6.0</ele><time>2026-04-20T15:49:58.737Z</time></trkpt><trkpt lat="39.8995133" lon="8.5863583"><ele>6.0</ele><time>2026-04-20T15:49:59.737Z</time></trkpt><trkpt lat="39.8994483" lon="8.5864383"><ele>6.0</ele><time>2026-04-20T15:50:00.737Z</time></trkpt><trkpt lat="39.8993867" lon="8.5865217"><ele>6.0</ele><time>2026-04-20T15:50:01.737Z</time></trkpt><trkpt lat="39.899335" lon="8.5866"><ele>6.0</ele><time>2026-04-20T15:50:02.737Z</time></trkpt><trkpt lat="39.8992567" lon="8.5867167"><ele>6.0</ele><time>2026-04-20T15:50:04.737Z</time></trkpt><trkpt lat="39.8991967" lon="8.5867917"><ele>6.6</ele><time>2026-04-20T15:50:06.737Z</time></trkpt><trkpt lat="39.89914" lon="8.586845"><ele>7.199999999999999</ele><time>2026-04-20T15:50:08.737Z</time></trkpt><trkpt lat="39.899065" lon="8.58695"><ele>7.800000000000001</ele><time>2026-04-20T15:50:10.737Z</time></trkpt><trkpt lat="39.8989583" lon="8.58712"><ele>8.4</ele><time>2026-04-20T15:50:14.738Z</time></trkpt><trkpt lat="39.8989017" lon="8.5871583"><ele>9.0</ele><time>2026-04-20T15:50:16.737Z</time></trkpt><trkpt lat="39.8988283" lon="8.58719"><ele>9.166666666666666</ele><time>2026-04-20T15:50:18.737Z</time></trkpt><trkpt lat="39.8987433" lon="8.5872017"><ele>9.333333333333334</ele><time>2026-04-20T15:50:20.737Z</time></trkpt><trkpt lat="39.8986667" lon="8.5872133"><ele>9.5</ele><time>2026-04-20T15:50:23.737Z</time></trkpt><trkpt lat="39.898585" lon="8.5872033"><ele>9.666666666666668</ele><time>2026-04-20T15:50:25.737Z</time></trkpt><trkpt lat="39.8985183" lon="8.5871817"><ele>9.833333333333334</ele><time>2026-04-20T15:50:26.737Z</time></trkpt><trkpt lat="39.898445" lon="8.58717"><ele>10.0</ele><time>2026-04-20T15:50:27.737Z</time></trkpt><trkpt lat="39.898375" lon="8.5871683"><ele>10.2</ele><time>2026-04-20T15:50:28.737Z</time></trkpt><trkpt lat="39.89831" lon="8.5871867"><ele>10.4</ele><time>2026-04-20T15:50:29.737Z</time></trkpt><trkpt lat="39.8982167" lon="8.5872917"><ele>10.600000000000001</ele><time>2026-04-20T15:50:31.737Z</time></trkpt><trkpt lat="39.898125" lon="8.5874283"><ele>10.8</ele><time>2026-04-20T15:50:33.737Z</time></trkpt><trkpt lat="39.898085" lon="8.5875"><ele>11.0</ele><time>2026-04-20T15:50:34.738Z</time></trkpt><trkpt lat="39.8980417" lon="8.5875617"><ele>11.0</ele><time>2026-04-20T15:50:35.737Z</time></trkpt><trkpt lat="39.8979983" lon="8.5876317"><ele>11.0</ele><time>2026-04-20T15:50:36.737Z</time></trkpt><trkpt lat="39.8979383" lon="8.5877233"><ele>11.0</ele><time>2026-04-20T15:50:37.737Z</time></trkpt><trkpt lat="39.8978817" lon="8.58782"><ele>11.0</ele><time>2026-04-20T15:50:38.737Z</time></trkpt><trkpt lat="39.8978183" lon="8.58792"><ele>11.0</ele><time>2026-04-20T15:50:39.737Z</time></trkpt><trkpt lat="39.897755" lon="8.588025"><ele>11.200000000000001</ele><time>2026-04-20T15:50:40.737Z</time></trkpt><trkpt lat="39.8976917" lon="8.5881283"><ele>11.4</ele><time>2026-04-20T15:50:41.737Z</time></trkpt><trkpt lat="39.897635" lon="8.5882233"><ele>11.6</ele><time>2026-04-20T15:50:42.737Z</time></trkpt><trkpt lat="39.8975817" lon="8.58831"><ele>11.8</ele><time>2026-04-20T15:50:43.737Z</time></trkpt><trkpt lat="39.897525" lon="8.5883983"><ele>12.0</ele><time>2026-04-20T15:50:44.737Z</time></trkpt><trkpt lat="39.897475" lon="8.5884867"><ele>11.5</ele><time>2026-04-20T15:50:45.737Z</time></trkpt><trkpt lat="39.8974233" lon="8.588565"><ele>11.0</ele><time>2026-04-20T15:50:46.737Z</time></trkpt><trkpt lat="39.89737" lon="8.58864"><ele>10.5</ele><time>2026-04-20T15:50:47.737Z</time></trkpt><trkpt lat="39.8973167" lon="8.5887233"><ele>10.0</ele><time>2026-04-20T15:50:48.737Z</time></trkpt><trkpt lat="39.8972517" lon="8.5888133"><ele>9.5</ele><time>2026-04-20T15:50:49.737Z</time></trkpt><trkpt lat="39.8971817" lon="8.5889117"><ele>9.0</ele><time>2026-04-20T15:50:50.736Z</time></trkpt><trkpt lat="39.89712" lon="8.5890117"><ele>8.75</ele><time>2026-04-20T15:50:51.736Z</time></trkpt><trkpt lat="39.8970567" lon="8.589105"><ele>8.5</ele><time>2026-04-20T15:50:52.737Z</time></trkpt><trkpt lat="39.8969367" lon="8.5893017"><ele>8.25</ele><time>2026-04-20T15:50:54.736Z</time></trkpt><trkpt lat="39.8968717" lon="8.5893983"><ele>8.0</ele><time>2026-04-20T15:50:55.736Z</time></trkpt><trkpt lat="39.89681" lon="8.5895"><ele>8.0</ele><time>2026-04-20T15:50:56.736Z</time></trkpt><trkpt lat="39.8967467" lon="8.5896067"><ele>8.0</ele><time>2026-04-20T15:50:57.736Z</time></trkpt><trkpt lat="39.896685" lon="8.589715"><ele>8.0</ele><time>2026-04-20T15:50:58.736Z</time></trkpt><trkpt lat="39.896625" lon="8.5898233"><ele>8.0</ele><time>2026-04-20T15:50:59.737Z</time></trkpt><trkpt lat="39.89656" lon="8.5899417"><ele>8.0</ele><time>2026-04-20T15:51:00.736Z</time></trkpt><trkpt lat="39.8964983" lon="8.59006"><ele>7.999999999999999</ele><time>2026-04-20T15:51:01.736Z</time></trkpt><trkpt lat="39.8964517" lon="8.5901617"><ele>8.0</ele><time>2026-04-20T15:51:02.736Z</time></trkpt><trkpt lat="39.8964033" lon="8.5902567"><ele>8.0</ele><time>2026-04-20T15:51:03.736Z</time></trkpt><trkpt lat="39.89635" lon="8.590345"><ele>8.0</ele><time>2026-04-20T15:51:04.736Z</time></trkpt><trkpt lat="39.8963083" lon="8.59042"><ele>7.999999999999999</ele><time>2026-04-20T15:51:05.737Z</time></trkpt><trkpt lat="39.8962633" lon="8.590485"><ele>8.0</ele><time>2026-04-20T15:51:06.736Z</time></trkpt><trkpt lat="39.896205" lon="8.5905367"><ele>7.999999999999999</ele><time>2026-04-20T15:51:07.737Z</time></trkpt><trkpt lat="39.8961417" lon="8.5905667"><ele>8.0</ele><time>2026-04-20T15:51:08.736Z</time></trkpt><trkpt lat="39.8960583" lon="8.5905733"><ele>8.0</ele><time>2026-04-20T15:51:09.736Z</time></trkpt><trkpt lat="39.8959683" lon="8.5905583"><ele>8.0</ele><time>2026-04-20T15:51:10.737Z</time></trkpt><trkpt lat="39.8958833" lon="8.5905417"><ele>7.999999999999999</ele><time>2026-04-20T15:51:11.737Z</time></trkpt><trkpt lat="39.895795" lon="8.590515"><ele>8.0</ele><time>2026-04-20T15:51:12.736Z</time></trkpt><trkpt lat="39.895705" lon="8.5904983"><ele>8.0</ele><time>2026-04-20T15:51:13.736Z</time></trkpt><trkpt lat="39.8955083" lon="8.590475"><ele>8.0</ele><time>2026-04-20T15:51:15.736Z</time></trkpt><trkpt lat="39.89542" lon="8.5904717"><ele>8.0</ele><time>2026-04-20T15:51:16.737Z</time></trkpt><trkpt lat="39.8953233" lon="8.59045"><ele>8.0</ele><time>2026-04-20T15:51:17.736Z</time></trkpt><trkpt lat="39.8952167" lon="8.590435"><ele>8.0</ele><time>2026-04-20T15:51:18.736Z</time></trkpt><trkpt lat="39.895115" lon="8.5903967"><ele>8.0</ele><time>2026-04-20T15:51:19.736Z</time></trkpt><trkpt lat="39.89501" lon="8.59037"><ele>8.0</ele><time>2026-04-20T15:51:20.736Z</time></trkpt><trkpt lat="39.8949033" lon="8.59034"><ele>8.0</ele><time>2026-04-20T15:51:21.736Z</time></trkpt><trkpt lat="39.8947933" lon="8.590325"><ele>8.0</ele><time>2026-04-20T15:51:22.737Z</time></trkpt><trkpt lat="39.8946833" lon="8.59031"><ele>9.0</ele><time>2026-04-20T15:51:23.736Z</time></trkpt><trkpt lat="39.8945767" lon="8.5902933"><ele>10.0</ele><time>2026-04-20T15:51:24.736Z</time></trkpt><trkpt lat="39.8944767" lon="8.5902833"><ele>11.0</ele><time>2026-04-20T15:51:25.736Z</time></trkpt><trkpt lat="39.8943783" lon="8.5902767"><ele>12.0</ele><time>2026-04-20T15:51:26.736Z</time></trkpt><trkpt lat="39.8942783" lon="8.590275"><ele>13.0</ele><time>2026-04-20T15:51:27.736Z</time></trkpt><trkpt lat="39.894185" lon="8.5902383"><ele>13.166666666666666</ele><time>2026-04-20T15:51:28.737Z</time></trkpt><trkpt lat="39.8940967" lon="8.5901967"><ele>13.333333333333332</ele><time>2026-04-20T15:51:29.736Z</time></trkpt><trkpt lat="39.8940217" lon="8.5901683"><ele>13.5</ele><time>2026-04-20T15:51:30.736Z</time></trkpt><trkpt lat="39.8939383" lon="8.5901733"><ele>13.666666666666668</ele><time>2026-04-20T15:51:31.736Z</time></trkpt><trkpt lat="39.89385" lon="8.5902083"><ele>13.833333333333334</ele><time>2026-04-20T15:51:32.737Z</time></trkpt><trkpt lat="39.8937583" lon="8.5902467"><ele>14.0</ele><time>2026-04-20T15:51:33.736Z</time></trkpt><trkpt lat="39.8936667" lon="8.5902733"><ele>14.0</ele><time>2026-04-20T15:51:34.736Z</time></trkpt><trkpt lat="39.8934617" lon="8.59025"><ele>14.0</ele><time>2026-04-20T15:51:36.736Z</time></trkpt><trkpt lat="39.893355" lon="8.5902267"><ele>14.0</ele><time>2026-04-20T15:51:37.736Z</time></trkpt><trkpt lat="39.8932367" lon="8.5902033"><ele>14.0</ele><time>2026-04-20T15:51:38.737Z</time></trkpt><trkpt lat="39.8931083" lon="8.590195"><ele>13.25</ele><time>2026-04-20T15:51:39.736Z</time></trkpt><trkpt lat="39.8929617" lon="8.59019"><ele>12.5</ele><time>2026-04-20T15:51:40.737Z</time></trkpt><trkpt lat="39.8928167" lon="8.5901767"><ele>11.75</ele><time>2026-04-20T15:51:41.736Z</time></trkpt><trkpt lat="39.8926817" lon="8.5901617"><ele>11.0</ele><time>2026-04-20T15:51:42.736Z</time></trkpt><trkpt lat="39.8925583" lon="8.5901417"><ele>11.0</ele><time>2026-04-20T15:51:43.736Z</time></trkpt><trkpt lat="39.8924367" lon="8.5901067"><ele>11.0</ele><time>2026-04-20T15:51:44.736Z</time></trkpt><trkpt lat="39.89233" lon="8.5900433"><ele>11.0</ele><time>2026-04-20T15:51:45.736Z</time></trkpt><trkpt lat="39.89223" lon="8.5899583"><ele>11.0</ele><time>2026-04-20T15:51:46.736Z</time></trkpt><trkpt lat="39.8921317" lon="8.589865"><ele>11.0</ele><time>2026-04-20T15:51:47.736Z</time></trkpt><trkpt lat="39.8920267" lon="8.5897583"><ele>11.0</ele><time>2026-04-20T15:51:48.736Z</time></trkpt><trkpt lat="39.8919133" lon="8.5896467"><ele>11.0</ele><time>2026-04-20T15:51:49.736Z</time></trkpt><trkpt lat="39.8917883" lon="8.5895383"><ele>11.0</ele><time>2026-04-20T15:51:50.736Z</time></trkpt><trkpt lat="39.8916633" lon="8.5894283"><ele>10.0</ele><time>2026-04-20T15:51:51.736Z</time></trkpt><trkpt lat="39.89153" lon="8.5893183"><ele>9.0</ele><time>2026-04-20T15:51:52.736Z</time></trkpt><trkpt lat="39.8914017" lon="8.589205"><ele>8.0</ele><time>2026-04-20T15:51:53.736Z</time></trkpt><trkpt lat="39.8912783" lon="8.5890783"><ele>8.0</ele><time>2026-04-20T15:51:54.736Z</time></trkpt><trkpt lat="39.8911533" lon="8.588955"><ele>8.0</ele><time>2026-04-20T15:51:55.736Z</time></trkpt><trkpt lat="39.890905" lon="8.58872"><ele>8.333333333333332</ele><time>2026-04-20T15:51:57.736Z</time></trkpt><trkpt lat="39.8907883" lon="8.5886017"><ele>8.666666666666666</ele><time>2026-04-20T15:51:58.736Z</time></trkpt><trkpt lat="39.8906667" lon="8.58848"><ele>9.0</ele><time>2026-04-20T15:51:59.737Z</time></trkpt><trkpt lat="39.8905367" lon="8.5883533"><ele>9.0</ele><time>2026-04-20T15:52:00.736Z</time></trkpt><trkpt lat="39.8904117" lon="8.58823"><ele>9.0</ele><time>2026-04-20T15:52:01.736Z</time></trkpt><trkpt lat="39.890285" lon="8.5881133"><ele>9.0</ele><time>2026-04-20T15:52:02.736Z</time></trkpt><trkpt lat="39.89016" lon="8.5879983"><ele>9.0</ele><time>2026-04-20T15:52:03.736Z</time></trkpt><trkpt lat="39.8900467" lon="8.5878783"><ele>9.0</ele><time>2026-04-20T15:52:04.736Z</time></trkpt><trkpt lat="39.88993" lon="8.5877667"><ele>9.0</ele><time>2026-04-20T15:52:05.736Z</time></trkpt><trkpt lat="39.8898183" lon="8.5876617"><ele>9.0</ele><time>2026-04-20T15:52:06.736Z</time></trkpt><trkpt lat="39.889715" lon="8.5875583"><ele>8.6</ele><time>2026-04-20T15:52:07.737Z</time></trkpt><trkpt lat="39.8896183" lon="8.587455"><ele>8.2</ele><time>2026-04-20T15:52:08.736Z</time></trkpt><trkpt lat="39.8895367" lon="8.58736"><ele>7.799999999999999</ele><time>2026-04-20T15:52:09.737Z</time></trkpt><trkpt lat="39.8894683" lon="8.5872717"><ele>7.3999999999999995</ele><time>2026-04-20T15:52:10.736Z</time></trkpt><trkpt lat="39.88941" lon="8.5871883"><ele>7.0</ele><time>2026-04-20T15:52:11.736Z</time></trkpt><trkpt lat="39.8893667" lon="8.58711"><ele>7.0</ele><time>2026-04-20T15:52:12.736Z</time></trkpt><trkpt lat="39.8893317" lon="8.5870117"><ele>6.999999999999999</ele><time>2026-04-20T15:52:13.736Z</time></trkpt><trkpt lat="39.889305" lon="8.5868967"><ele>6.999999999999999</ele><time>2026-04-20T15:52:14.736Z</time></trkpt><trkpt lat="39.889285" lon="8.5867717"><ele>7.0</ele><time>2026-04-20T15:52:15.736Z</time></trkpt><trkpt lat="39.8892617" lon="8.58664"><ele>7.0</ele><time>2026-04-20T15:52:16.736Z</time></trkpt><trkpt lat="39.8892117" lon="8.5863467"><ele>7.0</ele><time>2026-04-20T15:52:18.737Z</time></trkpt><trkpt lat="39.88919" lon="8.5861867"><ele>7.0</ele><time>2026-04-20T15:52:19.736Z</time></trkpt><trkpt lat="39.8891617" lon="8.586035"><ele>7.0</ele><time>2026-04-20T15:52:20.736Z</time></trkpt><trkpt lat="39.8891367" lon="8.5858767"><ele>7.0</ele><time>2026-04-20T15:52:21.736Z</time></trkpt><trkpt lat="39.88911" lon="8.58571"><ele>7.0</ele><time>2026-04-20T15:52:22.736Z</time></trkpt><trkpt lat="39.8890883" lon="8.5855383"><ele>7.0</ele><time>2026-04-20T15:52:23.736Z</time></trkpt><trkpt lat="39.8890667" lon="8.5853667"><ele>7.0</ele><time>2026-04-20T15:52:24.736Z</time></trkpt><trkpt lat="39.8890467" lon="8.5852067"><ele>7.0</ele><time>2026-04-20T15:52:25.736Z</time></trkpt><trkpt lat="39.8890283" lon="8.5850567"><ele>5.8</ele><time>2026-04-20T15:52:26.736Z</time></trkpt><trkpt lat="39.88901" lon="8.58492"><ele>4.6</ele><time>2026-04-20T15:52:27.736Z</time></trkpt><trkpt lat="39.889" lon="8.584795"><ele>3.4</ele><time>2026-04-20T15:52:28.736Z</time></trkpt><trkpt lat="39.8889933" lon="8.5846733"><ele>2.2</ele><time>2026-04-20T15:52:29.736Z</time></trkpt><trkpt lat="39.8890033" lon="8.584555"><ele>1.0</ele><time>2026-04-20T15:52:30.736Z</time></trkpt><trkpt lat="39.889015" lon="8.584435"><ele>1.0</ele><time>2026-04-20T15:52:31.736Z</time></trkpt><trkpt lat="39.88901" lon="8.5843133"><ele>1.0</ele><time>2026-04-20T15:52:32.736Z</time></trkpt><trkpt lat="39.88898" lon="8.5841933"><ele>1.0</ele><time>2026-04-20T15:52:33.737Z</time></trkpt><trkpt lat="39.8889383" lon="8.58406"><ele>1.0</ele><time>2026-04-20T15:52:34.737Z</time></trkpt><trkpt lat="39.8888917" lon="8.58391"><ele>1.0</ele><time>2026-04-20T15:52:35.737Z</time></trkpt><trkpt lat="39.88885" lon="8.5837533"><ele>1.3333333333333333</ele><time>2026-04-20T15:52:36.736Z</time></trkpt><trkpt lat="39.888815" lon="8.5835783"><ele>1.6666666666666665</ele><time>2026-04-20T15:52:37.737Z</time></trkpt><trkpt lat="39.8887583" lon="8.5832017"><ele>2.0</ele><time>2026-04-20T15:52:39.736Z</time></trkpt><trkpt lat="39.88873" lon="8.5829983"><ele>1.6666666666666665</ele><time>2026-04-20T15:52:40.737Z</time></trkpt><trkpt lat="39.8887017" lon="8.58278"><ele>1.3333333333333333</ele><time>2026-04-20T15:52:41.736Z</time></trkpt><trkpt lat="39.8886717" lon="8.5825683"><ele>1.0</ele><time>2026-04-20T15:52:42.736Z</time></trkpt><trkpt lat="39.888645" lon="8.5823467"><ele>1.0</ele><time>2026-04-20T15:52:43.736Z</time></trkpt><trkpt lat="39.8886167" lon="8.5821233"><ele>1.0</ele><time>2026-04-20T15:52:44.736Z</time></trkpt><trkpt lat="39.8885833" lon="8.5818967"><ele>1.0</ele><time>2026-04-20T15:52:45.736Z</time></trkpt><trkpt lat="39.8885517" lon="8.581685"><ele>1.0</ele><time>2026-04-20T15:52:46.736Z</time></trkpt><trkpt lat="39.88852" lon="8.5814917"><ele>1.0</ele><time>2026-04-20T15:52:47.736Z</time></trkpt><trkpt lat="39.8884933" lon="8.5813217"><ele>1.0</ele><time>2026-04-20T15:52:48.736Z</time></trkpt><trkpt lat="39.8884733" lon="8.581155"><ele>1.0</ele><time>2026-04-20T15:52:49.737Z</time></trkpt><trkpt lat="39.8884317" lon="8.581015"><ele>0.5</ele><time>2026-04-20T15:52:50.737Z</time></trkpt><trkpt lat="39.8883667" lon="8.5809067"><ele>0.0</ele><time>2026-04-20T15:52:51.736Z</time></trkpt><trkpt lat="39.8882767" lon="8.5808383"><ele>-0.5</ele><time>2026-04-20T15:52:52.736Z</time></trkpt><trkpt lat="39.8881633" lon="8.5808033"><ele>-1.0</ele><time>2026-04-20T15:52:53.736Z</time></trkpt><trkpt lat="39.8880317" lon="8.5807933"><ele>-1.0</ele><time>2026-04-20T15:52:54.736Z</time></trkpt><trkpt lat="39.88789" lon="8.5807717"><ele>-1.0</ele><time>2026-04-20T15:52:55.736Z</time></trkpt><trkpt lat="39.8877433" lon="8.5807467"><ele>-1.0</ele><time>2026-04-20T15:52:56.736Z</time></trkpt><trkpt lat="39.8875967" lon="8.5807267"><ele>-1.0</ele><time>2026-04-20T15:52:57.736Z</time></trkpt><trkpt lat="39.8874483" lon="8.58071"><ele>0.5</ele><time>2026-04-20T15:52:58.736Z</time></trkpt><trkpt lat="39.88714" lon="8.5806667"><ele>2.0</ele><time>2026-04-20T15:53:00.736Z</time></trkpt><trkpt lat="39.8869833" lon="8.5806233"><ele>2.0</ele><time>2026-04-20T15:53:01.736Z</time></trkpt><trkpt lat="39.88682" lon="8.58057"><ele>2.0</ele><time>2026-04-20T15:53:02.736Z</time></trkpt><trkpt lat="39.88665" lon="8.5805117"><ele>2.0</ele><time>2026-04-20T15:53:03.736Z</time></trkpt><trkpt lat="39.8864817" lon="8.58046"><ele>1.6666666666666665</ele><time>2026-04-20T15:53:04.736Z</time></trkpt><trkpt lat="39.886315" lon="8.5804017"><ele>1.3333333333333333</ele><time>2026-04-20T15:53:05.736Z</time></trkpt><trkpt lat="39.886145" lon="8.580345"><ele>1.0</ele><time>2026-04-20T15:53:06.736Z</time></trkpt><trkpt lat="39.8859733" lon="8.58029"><ele>1.0</ele><time>2026-04-20T15:53:07.736Z</time></trkpt><trkpt lat="39.8858033" lon="8.5802317"><ele>1.0</ele><time>2026-04-20T15:53:08.736Z</time></trkpt><trkpt lat="39.885635" lon="8.5801717"><ele>1.0</ele><time>2026-04-20T15:53:09.736Z</time></trkpt><trkpt lat="39.885465" lon="8.58012"><ele>1.0</ele><time>2026-04-20T15:53:10.736Z</time></trkpt><trkpt lat="39.8852917" lon="8.5800633"><ele>1.0</ele><time>2026-04-20T15:53:11.737Z</time></trkpt><trkpt lat="39.8851167" lon="8.5800033"><ele>1.0</ele><time>2026-04-20T15:53:12.736Z</time></trkpt><trkpt lat="39.884945" lon="8.5799467"><ele>1.0</ele><time>2026-04-20T15:53:13.736Z</time></trkpt><trkpt lat="39.8847683" lon="8.579885"><ele>1.0</ele><time>2026-04-20T15:53:14.736Z</time></trkpt><trkpt lat="39.8845933" lon="8.57982"><ele>1.0</ele><time>2026-04-20T15:53:15.736Z</time></trkpt><trkpt lat="39.884425" lon="8.5797417"><ele>1.3333333333333333</ele><time>2026-04-20T15:53:16.736Z</time></trkpt><trkpt lat="39.8842583" lon="8.579655"><ele>1.6666666666666665</ele><time>2026-04-20T15:53:17.736Z</time></trkpt><trkpt lat="39.88409" lon="8.5795583"><ele>2.0</ele><time>2026-04-20T15:53:18.736Z</time></trkpt><trkpt lat="39.8839267" lon="8.5794617"><ele>2.0</ele><time>2026-04-20T15:53:19.736Z</time></trkpt><trkpt lat="39.88359" lon="8.579275"><ele>2.0</ele><time>2026-04-20T15:53:21.736Z</time></trkpt><trkpt lat="39.88342" lon="8.57918"><ele>2.0</ele><time>2026-04-20T15:53:22.736Z</time></trkpt><trkpt lat="39.8832417" lon="8.5790883"><ele>2.0</ele><time>2026-04-20T15:53:23.736Z</time></trkpt><trkpt lat="39.8830717" lon="8.5789817"><ele>2.0</ele><time>2026-04-20T15:53:24.736Z</time></trkpt><trkpt lat="39.8828917" lon="8.5788833"><ele>2.0</ele><time>2026-04-20T15:53:25.737Z</time></trkpt><trkpt lat="39.8827067" lon="8.5787783"><ele>2.0</ele><time>2026-04-20T15:53:26.736Z</time></trkpt><trkpt lat="39.8825267" lon="8.5786683"><ele>2.0</ele><time>2026-04-20T15:53:27.736Z</time></trkpt><trkpt lat="39.882345" lon="8.5785583"><ele>2.0</ele><time>2026-04-20T15:53:28.736Z</time></trkpt><trkpt lat="39.8821567" lon="8.578455"><ele>2.0</ele><time>2026-04-20T15:53:29.736Z</time></trkpt><trkpt lat="39.8819717" lon="8.57835"><ele>2.0</ele><time>2026-04-20T15:53:30.737Z</time></trkpt><trkpt lat="39.8817867" lon="8.57824"><ele>1.6666666666666665</ele><time>2026-04-20T15:53:31.736Z</time></trkpt><trkpt lat="39.8816017" lon="8.57814"><ele>1.3333333333333333</ele><time>2026-04-20T15:53:32.736Z</time></trkpt><trkpt lat="39.8814267" lon="8.57804"><ele>1.0</ele><time>2026-04-20T15:53:33.736Z</time></trkpt><trkpt lat="39.88124" lon="8.5779367"><ele>0.6666666666666666</ele><time>2026-04-20T15:53:34.736Z</time></trkpt><trkpt lat="39.8810517" lon="8.57783"><ele>0.3333333333333333</ele><time>2026-04-20T15:53:35.736Z</time></trkpt><trkpt lat="39.8808683" lon="8.5777283"><ele>0.0</ele><time>2026-04-20T15:53:36.736Z</time></trkpt><trkpt lat="39.8806833" lon="8.5776233"><ele>0.0</ele><time>2026-04-20T15:53:37.737Z</time></trkpt><trkpt lat="39.8805017" lon="8.57751"><ele>0.0</ele><time>2026-04-20T15:53:38.736Z</time></trkpt><trkpt lat="39.8803183" lon="8.5774033"><ele>0.0</ele><time>2026-04-20T15:53:39.736Z</time></trkpt><trkpt lat="39.8801367" lon="8.5772967"><ele>0.0</ele><time>2026-04-20T15:53:40.736Z</time></trkpt><trkpt lat="39.8797767" lon="8.5770833"><ele>0.0</ele><time>2026-04-20T15:53:42.736Z</time></trkpt><trkpt lat="39.8795933" lon="8.576985"><ele>0.3333333333333333</ele><time>2026-04-20T15:53:43.736Z</time></trkpt><trkpt lat="39.8794117" lon="8.5768767"><ele>0.6666666666666666</ele><time>2026-04-20T15:53:44.736Z</time></trkpt><trkpt lat="39.8792367" lon="8.57677"><ele>1.0</ele><time>2026-04-20T15:53:45.736Z</time></trkpt><trkpt lat="39.8790517" lon="8.576675"><ele>1.0</ele><time>2026-04-20T15:53:46.736Z</time></trkpt><trkpt lat="39.87887" lon="8.57657"><ele>1.0</ele><time>2026-04-20T15:53:47.736Z</time></trkpt><trkpt lat="39.878685" lon="8.576475"><ele>1.0</ele><time>2026-04-20T15:53:48.736Z</time></trkpt><trkpt lat="39.8785067" lon="8.57636"><ele>1.0</ele><time>2026-04-20T15:53:49.737Z</time></trkpt><trkpt lat="39.87833" lon="8.57626"><ele>1.0</ele><time>2026-04-20T15:53:50.736Z</time></trkpt><trkpt lat="39.8781483" lon="8.57616"><ele>1.0</ele><time>2026-04-20T15:53:51.736Z</time></trkpt><trkpt lat="39.877965" lon="8.5760567"><ele>1.0</ele><time>2026-04-20T15:53:52.736Z</time></trkpt><trkpt lat="39.8777817" lon="8.5759583"><ele>1.0</ele><time>2026-04-20T15:53:53.736Z</time></trkpt><trkpt lat="39.877595" lon="8.5758517"><ele>1.0</ele><time>2026-04-20T15:53:54.736Z</time></trkpt><trkpt lat="39.87741" lon="8.5757417"><ele>1.3333333333333333</ele><time>2026-04-20T15:53:55.736Z</time></trkpt><trkpt lat="39.8772333" lon="8.57563"><ele>1.6666666666666665</ele><time>2026-04-20T15:53:56.736Z</time></trkpt><trkpt lat="39.8770617" lon="8.575525"><ele>2.0</ele><time>2026-04-20T15:53:57.736Z</time></trkpt><trkpt lat="39.8768817" lon="8.57542"><ele>1.6666666666666665</ele><time>2026-04-20T15:53:58.736Z</time></trkpt><trkpt lat="39.87671" lon="8.5752883"><ele>1.3333333333333333</ele><time>2026-04-20T15:53:59.736Z</time></trkpt><trkpt lat="39.8765467" lon="8.5751383"><ele>1.0</ele><time>2026-04-20T15:54:00.736Z</time></trkpt><trkpt lat="39.8763983" lon="8.57497"><ele>1.0</ele><time>2026-04-20T15:54:01.736Z</time></trkpt><trkpt lat="39.87614" lon="8.5745983"><ele>1.0</ele><time>2026-04-20T15:54:03.736Z</time></trkpt><trkpt lat="39.876005" lon="8.5744017"><ele>1.6666666666666665</ele><time>2026-04-20T15:54:04.736Z</time></trkpt><trkpt lat="39.8758767" lon="8.5742017"><ele>2.3333333333333335</ele><time>2026-04-20T15:54:05.736Z</time></trkpt><trkpt lat="39.875745" lon="8.5740017"><ele>3.0</ele><time>2026-04-20T15:54:06.736Z</time></trkpt><trkpt lat="39.8756117" lon="8.5737967"><ele>3.0</ele><time>2026-04-20T15:54:07.736Z</time></trkpt><trkpt lat="39.8754767" lon="8.5735883"><ele>3.0</ele><time>2026-04-20T15:54:08.736Z</time></trkpt><trkpt lat="39.8753367" lon="8.5733867"><ele>3.0</ele><time>2026-04-20T15:54:09.736Z</time></trkpt><trkpt lat="39.8752" lon="8.573185"><ele>3.333333333333333</ele><time>2026-04-20T15:54:10.736Z</time></trkpt><trkpt lat="39.8750633" lon="8.57298"><ele>3.6666666666666665</ele><time>2026-04-20T15:54:11.736Z</time></trkpt><trkpt lat="39.8749267" lon="8.5727867"><ele>4.0</ele><time>2026-04-20T15:54:12.736Z</time></trkpt><trkpt lat="39.8747933" lon="8.5725883"><ele>4.0</ele><time>2026-04-20T15:54:13.736Z</time></trkpt><trkpt lat="39.874665" lon="8.572385"><ele>4.0</ele><time>2026-04-20T15:54:14.736Z</time></trkpt><trkpt lat="39.8745283" lon="8.5721767"><ele>4.0</ele><time>2026-04-20T15:54:15.736Z</time></trkpt><trkpt lat="39.874395" lon="8.571975"><ele>3.333333333333333</ele><time>2026-04-20T15:54:16.737Z</time></trkpt><trkpt lat="39.87426" lon="8.571775"><ele>2.6666666666666665</ele><time>2026-04-20T15:54:17.736Z</time></trkpt><trkpt lat="39.8741233" lon="8.5715717"><ele>2.0</ele><time>2026-04-20T15:54:18.736Z</time></trkpt><trkpt lat="39.8739883" lon="8.5713717"><ele>2.0</ele><time>2026-04-20T15:54:19.736Z</time></trkpt><trkpt lat="39.8738517" lon="8.5711633"><ele>2.0</ele><time>2026-04-20T15:54:20.736Z</time></trkpt><trkpt lat="39.8737133" lon="8.5709617"><ele>2.0</ele><time>2026-04-20T15:54:21.736Z</time></trkpt><trkpt lat="39.87358" lon="8.5707667"><ele>2.5</ele><time>2026-04-20T15:54:22.736Z</time></trkpt><trkpt lat="39.87331" lon="8.570355"><ele>3.0</ele><time>2026-04-20T15:54:24.736Z</time></trkpt><trkpt lat="39.873175" lon="8.5701517"><ele>3.0</ele><time>2026-04-20T15:54:25.737Z</time></trkpt><trkpt lat="39.8730317" lon="8.5699483"><ele>3.0</ele><time>2026-04-20T15:54:26.736Z</time></trkpt><trkpt lat="39.8728917" lon="8.56975"><ele>3.0</ele><time>2026-04-20T15:54:27.736Z</time></trkpt><trkpt lat="39.8727583" lon="8.56956"><ele>2.6666666666666665</ele><time>2026-04-20T15:54:28.736Z</time></trkpt><trkpt lat="39.87263" lon="8.569385"><ele>2.333333333333333</ele><time>2026-04-20T15:54:29.736Z</time></trkpt><trkpt lat="39.8725033" lon="8.5692217"><ele>2.0</ele><time>2026-04-20T15:54:30.736Z</time></trkpt><trkpt lat="39.8723717" lon="8.5690683"><ele>2.6666666666666665</ele><time>2026-04-20T15:54:31.736Z</time></trkpt><trkpt lat="39.8722317" lon="8.56894"><ele>3.333333333333333</ele><time>2026-04-20T15:54:32.736Z</time></trkpt><trkpt lat="39.8720783" lon="8.56885"><ele>4.0</ele><time>2026-04-20T15:54:33.736Z</time></trkpt><trkpt lat="39.87191" lon="8.568805"><ele>3.333333333333333</ele><time>2026-04-20T15:54:34.736Z</time></trkpt><trkpt lat="39.871735" lon="8.5687883"><ele>2.6666666666666665</ele><time>2026-04-20T15:54:35.737Z</time></trkpt><trkpt lat="39.8715633" lon="8.568785"><ele>2.0</ele><time>2026-04-20T15:54:36.736Z</time></trkpt><trkpt lat="39.8713817" lon="8.5687917"><ele>2.0</ele><time>2026-04-20T15:54:37.736Z</time></trkpt><trkpt lat="39.8712" lon="8.56881"><ele>2.0</ele><time>2026-04-20T15:54:38.736Z</time></trkpt><trkpt lat="39.871015" lon="8.5688317"><ele>2.0</ele><time>2026-04-20T15:54:39.736Z</time></trkpt><trkpt lat="39.8708433" lon="8.5688533"><ele>2.333333333333333</ele><time>2026-04-20T15:54:40.736Z</time></trkpt><trkpt lat="39.8706867" lon="8.5688667"><ele>2.6666666666666665</ele><time>2026-04-20T15:54:41.736Z</time></trkpt><trkpt lat="39.870535" lon="8.5688817"><ele>3.0</ele><time>2026-04-20T15:54:42.737Z</time></trkpt><trkpt lat="39.87039" lon="8.5688983"><ele>2.3333333333333335</ele><time>2026-04-20T15:54:43.737Z</time></trkpt><trkpt lat="39.8700983" lon="8.5689283"><ele>1.6666666666666665</ele><time>2026-04-20T15:54:45.736Z</time></trkpt><trkpt lat="39.8699467" lon="8.5689433"><ele>1.0</ele><time>2026-04-20T15:54:46.736Z</time></trkpt><trkpt lat="39.8697883" lon="8.5689683"><ele>1.0</ele><time>2026-04-20T15:54:47.736Z</time></trkpt><trkpt lat="39.8696433" lon="8.56898"><ele>1.0</ele><time>2026-04-20T15:54:48.736Z</time></trkpt><trkpt lat="39.8694917" lon="8.5689983"><ele>1.0</ele><time>2026-04-20T15:54:49.736Z</time></trkpt><trkpt lat="39.8693383" lon="8.5690017"><ele>1.0</ele><time>2026-04-20T15:54:50.736Z</time></trkpt><trkpt lat="39.8691783" lon="8.5690067"><ele>1.0</ele><time>2026-04-20T15:54:51.736Z</time></trkpt><trkpt lat="39.8690133" lon="8.569015"><ele>1.0</ele><time>2026-04-20T15:54:52.736Z</time></trkpt><trkpt lat="39.86884" lon="8.5690283"><ele>1.0</ele><time>2026-04-20T15:54:53.736Z</time></trkpt><trkpt lat="39.8686617" lon="8.5690483"><ele>1.0</ele><time>2026-04-20T15:54:54.736Z</time></trkpt><trkpt lat="39.8684767" lon="8.56908"><ele>1.0</ele><time>2026-04-20T15:54:55.736Z</time></trkpt><trkpt lat="39.86829" lon="8.56912"><ele>2.0</ele><time>2026-04-20T15:54:56.736Z</time></trkpt><trkpt lat="39.8681083" lon="8.56919"><ele>3.0</ele><time>2026-04-20T15:54:57.736Z</time></trkpt><trkpt lat="39.8679283" lon="8.5692917"><ele>4.0</ele><time>2026-04-20T15:54:58.736Z</time></trkpt><trkpt lat="39.8677467" lon="8.5694167"><ele>4.333333333333333</ele><time>2026-04-20T15:54:59.736Z</time></trkpt><trkpt lat="39.8675733" lon="8.5695633"><ele>4.666666666666667</ele><time>2026-04-20T15:55:00.736Z</time></trkpt><trkpt lat="39.8674183" lon="8.5697233"><ele>5.0</ele><time>2026-04-20T15:55:01.736Z</time></trkpt><trkpt lat="39.8672767" lon="8.5699033"><ele>5.0</ele><time>2026-04-20T15:55:02.736Z</time></trkpt><trkpt lat="39.86714" lon="8.5700933"><ele>5.0</ele><time>2026-04-20T15:55:03.736Z</time></trkpt><trkpt lat="39.8670017" lon="8.57028"><ele>5.0</ele><time>2026-04-20T15:55:04.736Z</time></trkpt><trkpt lat="39.8667233" lon="8.5706767"><ele>4.666666666666667</ele><time>2026-04-20T15:55:06.736Z</time></trkpt><trkpt lat="39.8665833" lon="8.5708717"><ele>4.333333333333333</ele><time>2026-04-20T15:55:07.736Z</time></trkpt><trkpt lat="39.8664433" lon="8.57106"><ele>4.0</ele><time>2026-04-20T15:55:08.736Z</time></trkpt><trkpt lat="39.8663067" lon="8.5712467"><ele>4.0</ele><time>2026-04-20T15:55:09.736Z</time></trkpt><trkpt lat="39.866165" lon="8.5714333"><ele>4.0</ele><time>2026-04-20T15:55:10.736Z</time></trkpt><trkpt lat="39.8660217" lon="8.5716167"><ele>4.0</ele><time>2026-04-20T15:55:11.736Z</time></trkpt><trkpt lat="39.865885" lon="8.5718067"><ele>4.0</ele><time>2026-04-20T15:55:12.736Z</time></trkpt><trkpt lat="39.8657467" lon="8.5719817"><ele>4.0</ele><time>2026-04-20T15:55:13.736Z</time></trkpt><trkpt lat="39.8656017" lon="8.5721467"><ele>4.0</ele><time>2026-04-20T15:55:14.736Z</time></trkpt><trkpt lat="39.86545" lon="8.5722917"><ele>4.0</ele><time>2026-04-20T15:55:15.736Z</time></trkpt><trkpt lat="39.86529" lon="8.5724117"><ele>4.0</ele><time>2026-04-20T15:55:16.736Z</time></trkpt><trkpt lat="39.8651217" lon="8.5725183"><ele>4.0</ele><time>2026-04-20T15:55:17.736Z</time></trkpt><trkpt lat="39.8649433" lon="8.57261"><ele>4.0</ele><time>2026-04-20T15:55:18.736Z</time></trkpt><trkpt lat="39.8647633" lon="8.57268"><ele>4.0</ele><time>2026-04-20T15:55:19.736Z</time></trkpt><trkpt lat="39.86458" lon="8.572725"><ele>4.0</ele><time>2026-04-20T15:55:20.736Z</time></trkpt><trkpt lat="39.8643867" lon="8.5727567"><ele>3.6666666666666665</ele><time>2026-04-20T15:55:21.737Z</time></trkpt><trkpt lat="39.8641917" lon="8.572785"><ele>3.333333333333333</ele><time>2026-04-20T15:55:22.737Z</time></trkpt><trkpt lat="39.8639883" lon="8.5728017"><ele>3.0</ele><time>2026-04-20T15:55:23.737Z</time></trkpt><trkpt lat="39.8637867" lon="8.5728233"><ele>3.0</ele><time>2026-04-20T15:55:24.736Z</time></trkpt><trkpt lat="39.8635833" lon="8.5728467"><ele>3.0</ele><time>2026-04-20T15:55:25.736Z</time></trkpt><trkpt lat="39.8631717" lon="8.5729"><ele>3.666666666666667</ele><time>2026-04-20T15:55:27.736Z</time></trkpt><trkpt lat="39.8629683" lon="8.5729317"><ele>4.333333333333334</ele><time>2026-04-20T15:55:28.736Z</time></trkpt><trkpt lat="39.8627717" lon="8.572965"><ele>5.0</ele><time>2026-04-20T15:55:29.736Z</time></trkpt><trkpt lat="39.8625783" lon="8.572995"><ele>5.0</ele><time>2026-04-20T15:55:30.736Z</time></trkpt><trkpt lat="39.862385" lon="8.57302"><ele>5.0</ele><time>2026-04-20T15:55:31.736Z</time></trkpt><trkpt lat="39.8621883" lon="8.573045"><ele>5.0</ele><time>2026-04-20T15:55:32.736Z</time></trkpt><trkpt lat="39.86199" lon="8.5730683"><ele>5.0</ele><time>2026-04-20T15:55:33.737Z</time></trkpt><trkpt lat="39.8617933" lon="8.5730967"><ele>5.0</ele><time>2026-04-20T15:55:34.736Z</time></trkpt><trkpt lat="39.8615883" lon="8.573125"><ele>5.0</ele><time>2026-04-20T15:55:35.736Z</time></trkpt><trkpt lat="39.8613883" lon="8.57315"><ele>4.666666666666667</ele><time>2026-04-20T15:55:36.736Z</time></trkpt><trkpt lat="39.8611883" lon="8.5731733"><ele>4.333333333333333</ele><time>2026-04-20T15:55:37.736Z</time></trkpt><trkpt lat="39.86099" lon="8.5732017"><ele>4.0</ele><time>2026-04-20T15:55:38.736Z</time></trkpt><trkpt lat="39.860785" lon="8.57323"><ele>4.0</ele><time>2026-04-20T15:55:39.736Z</time></trkpt><trkpt lat="39.860585" lon="8.5732583"><ele>4.0</ele><time>2026-04-20T15:55:40.736Z</time></trkpt><trkpt lat="39.860385" lon="8.5732833"><ele>4.0</ele><time>2026-04-20T15:55:41.736Z</time></trkpt><trkpt lat="39.8601867" lon="8.5733083"><ele>4.0</ele><time>2026-04-20T15:55:42.736Z</time></trkpt><trkpt lat="39.85999" lon="8.57334"><ele>4.0</ele><time>2026-04-20T15:55:43.736Z</time></trkpt><trkpt lat="39.8597917" lon="8.5733667"><ele>4.0</ele><time>2026-04-20T15:55:44.737Z</time></trkpt><trkpt lat="39.8595917" lon="8.573395"><ele>4.0</ele><time>2026-04-20T15:55:45.736Z</time></trkpt><trkpt lat="39.8593967" lon="8.5734183"><ele>4.0</ele><time>2026-04-20T15:55:46.737Z</time></trkpt><trkpt lat="39.8589967" lon="8.5734733"><ele>3.6666666666666665</ele><time>2026-04-20T15:55:48.736Z</time></trkpt><trkpt lat="39.8588017" lon="8.5735"><ele>3.333333333333333</ele><time>2026-04-20T15:55:49.736Z</time></trkpt><trkpt lat="39.8586083" lon="8.5735317"><ele>3.0</ele><time>2026-04-20T15:55:50.736Z</time></trkpt><trkpt lat="39.8584167" lon="8.5735567"><ele>3.0</ele><time>2026-04-20T15:55:51.736Z</time></trkpt><trkpt lat="39.858215" lon="8.57358"><ele>3.0</ele><time>2026-04-20T15:55:52.736Z</time></trkpt><trkpt lat="39.8580117" lon="8.57361"><ele>3.0</ele><time>2026-04-20T15:55:53.736Z</time></trkpt><trkpt lat="39.8578083" lon="8.573655"><ele>3.666666666666667</ele><time>2026-04-20T15:55:54.736Z</time></trkpt><trkpt lat="39.857605" lon="8.5737083"><ele>4.333333333333334</ele><time>2026-04-20T15:55:55.736Z</time></trkpt><trkpt lat="39.857405" lon="8.573775"><ele>5.0</ele><time>2026-04-20T15:55:56.736Z</time></trkpt><trkpt lat="39.85721" lon="8.573865"><ele>5.0</ele><time>2026-04-20T15:55:57.737Z</time></trkpt><trkpt lat="39.8570233" lon="8.5739767"><ele>5.0</ele><time>2026-04-20T15:55:58.736Z</time></trkpt><trkpt lat="39.856835" lon="8.5741083"><ele>5.0</ele><time>2026-04-20T15:55:59.736Z</time></trkpt><trkpt lat="39.85665" lon="8.5742633"><ele>4.333333333333334</ele><time>2026-04-20T15:56:00.736Z</time></trkpt><trkpt lat="39.8564717" lon="8.57443"><ele>3.666666666666667</ele><time>2026-04-20T15:56:01.736Z</time></trkpt><trkpt lat="39.856305" lon="8.5746083"><ele>3.0</ele><time>2026-04-20T15:56:02.736Z</time></trkpt><trkpt lat="39.8561483" lon="8.5747833"><ele>3.333333333333333</ele><time>2026-04-20T15:56:03.737Z</time></trkpt><trkpt lat="39.8559967" lon="8.5749667"><ele>3.6666666666666665</ele><time>2026-04-20T15:56:04.736Z</time></trkpt><trkpt lat="39.8558483" lon="8.57515"><ele>4.0</ele><time>2026-04-20T15:56:05.736Z</time></trkpt><trkpt lat="39.85569" lon="8.5753333"><ele>4.5</ele><time>2026-04-20T15:56:06.736Z</time></trkpt><trkpt lat="39.855535" lon="8.5755267"><ele>5.0</ele><time>2026-04-20T15:56:07.736Z</time></trkpt><trkpt lat="39.85523" lon="8.575915"><ele>5.0</ele><time>2026-04-20T15:56:09.736Z</time></trkpt><trkpt lat="39.85509" lon="8.5760983"><ele>5.0</ele><time>2026-04-20T15:56:10.736Z</time></trkpt><trkpt lat="39.8549517" lon="8.5762733"><ele>5.0</ele><time>2026-04-20T15:56:11.736Z</time></trkpt><trkpt lat="39.85482" lon="8.57644"><ele>5.0</ele><time>2026-04-20T15:56:12.736Z</time></trkpt><trkpt lat="39.8546917" lon="8.5765967"><ele>5.0</ele><time>2026-04-20T15:56:13.736Z</time></trkpt><trkpt lat="39.8545717" lon="8.5767483"><ele>5.0</ele><time>2026-04-20T15:56:14.737Z</time></trkpt><trkpt lat="39.8544567" lon="8.5768883"><ele>5.0</ele><time>2026-04-20T15:56:15.736Z</time></trkpt><trkpt lat="39.8543433" lon="8.577015"><ele>5.0</ele><time>2026-04-20T15:56:16.736Z</time></trkpt><trkpt lat="39.8542367" lon="8.5771367"><ele>5.0</ele><time>2026-04-20T15:56:17.736Z</time></trkpt><trkpt lat="39.8541317" lon="8.5772483"><ele>5.0</ele><time>2026-04-20T15:56:18.736Z</time></trkpt><trkpt lat="39.8540383" lon="8.57735"><ele>4.8</ele><time>2026-04-20T15:56:19.736Z</time></trkpt><trkpt lat="39.85395" lon="8.5774533"><ele>4.6</ele><time>2026-04-20T15:56:20.736Z</time></trkpt><trkpt lat="39.85386" lon="8.577535"><ele>4.4</ele><time>2026-04-20T15:56:21.736Z</time></trkpt><trkpt lat="39.8537633" lon="8.5775867"><ele>4.2</ele><time>2026-04-20T15:56:22.736Z</time></trkpt><trkpt lat="39.8536667" lon="8.5776167"><ele>4.0</ele><time>2026-04-20T15:56:23.736Z</time></trkpt><trkpt lat="39.8535867" lon="8.5776717"><ele>4.0</ele><time>2026-04-20T15:56:24.736Z</time></trkpt><trkpt lat="39.8535233" lon="8.577755"><ele>4.0</ele><time>2026-04-20T15:56:25.737Z</time></trkpt><trkpt lat="39.8534833" lon="8.577875"><ele>4.0</ele><time>2026-04-20T15:56:26.736Z</time></trkpt><trkpt lat="39.85344" lon="8.5780183"><ele>4.0</ele><time>2026-04-20T15:56:27.736Z</time></trkpt><trkpt lat="39.8533733" lon="8.578155"><ele>4.0</ele><time>2026-04-20T15:56:28.737Z</time></trkpt><trkpt lat="39.85319" lon="8.578415"><ele>3.6666666666666665</ele><time>2026-04-20T15:56:30.736Z</time></trkpt><trkpt lat="39.85308" lon="8.578555"><ele>3.333333333333333</ele><time>2026-04-20T15:56:31.737Z</time></trkpt><trkpt lat="39.8529667" lon="8.5786883"><ele>3.0</ele><time>2026-04-20T15:56:32.736Z</time></trkpt><trkpt lat="39.8528467" lon="8.5788317"><ele>3.0</ele><time>2026-04-20T15:56:33.736Z</time></trkpt><trkpt lat="39.85272" lon="8.5789883"><ele>3.0</ele><time>2026-04-20T15:56:34.737Z</time></trkpt><trkpt lat="39.8525917" lon="8.57915"><ele>3.0</ele><time>2026-04-20T15:56:35.736Z</time></trkpt><trkpt lat="39.8524633" lon="8.579315"><ele>3.0</ele><time>2026-04-20T15:56:36.736Z</time></trkpt><trkpt lat="39.8523317" lon="8.57948"><ele>3.0</ele><time>2026-04-20T15:56:37.736Z</time></trkpt><trkpt lat="39.8522017" lon="8.5796467"><ele>3.0</ele><time>2026-04-20T15:56:38.736Z</time></trkpt><trkpt lat="39.85207" lon="8.579815"><ele>2.6666666666666665</ele><time>2026-04-20T15:56:39.736Z</time></trkpt><trkpt lat="39.8519417" lon="8.5799783"><ele>2.333333333333333</ele><time>2026-04-20T15:56:40.736Z</time></trkpt><trkpt lat="39.8518083" lon="8.58014"><ele>2.0</ele><time>2026-04-20T15:56:41.736Z</time></trkpt><trkpt lat="39.8516717" lon="8.5803"><ele>2.0</ele><time>2026-04-20T15:56:42.736Z</time></trkpt><trkpt lat="39.8515367" lon="8.5804683"><ele>2.0</ele><time>2026-04-20T15:56:43.736Z</time></trkpt><trkpt lat="39.8513983" lon="8.58064"><ele>2.0</ele><time>2026-04-20T15:56:44.736Z</time></trkpt><trkpt lat="39.8512683" lon="8.5808117"><ele>2.0</ele><time>2026-04-20T15:56:45.736Z</time></trkpt><trkpt lat="39.85114" lon="8.5809933"><ele>2.0</ele><time>2026-04-20T15:56:46.736Z</time></trkpt><trkpt lat="39.8510083" lon="8.58118"><ele>2.0</ele><time>2026-04-20T15:56:47.736Z</time></trkpt><trkpt lat="39.8508833" lon="8.581375"><ele>1.5</ele><time>2026-04-20T15:56:48.736Z</time></trkpt><trkpt lat="39.85076" lon="8.5815767"><ele>1.0</ele><time>2026-04-20T15:56:49.736Z</time></trkpt><trkpt lat="39.8505317" lon="8.5820017"><ele>1.6666666666666665</ele><time>2026-04-20T15:56:51.737Z</time></trkpt><trkpt lat="39.8504167" lon="8.5822183"><ele>2.3333333333333335</ele><time>2026-04-20T15:56:52.737Z</time></trkpt><trkpt lat="39.8503067" lon="8.5824383"><ele>3.0</ele><time>2026-04-20T15:56:53.736Z</time></trkpt><trkpt lat="39.8501967" lon="8.5826633"><ele>3.333333333333333</ele><time>2026-04-20T15:56:54.736Z</time></trkpt><trkpt lat="39.8500883" lon="8.582885"><ele>3.6666666666666665</ele><time>2026-04-20T15:56:55.736Z</time></trkpt><trkpt lat="39.849975" lon="8.5831083"><ele>4.0</ele><time>2026-04-20T15:56:56.736Z</time></trkpt><trkpt lat="39.8498617" lon="8.5833267"><ele>4.0</ele><time>2026-04-20T15:56:57.736Z</time></trkpt><trkpt lat="39.849755" lon="8.5835467"><ele>4.0</ele><time>2026-04-20T15:56:58.736Z</time></trkpt><trkpt lat="39.8496467" lon="8.583765"><ele>4.0</ele><time>2026-04-20T15:56:59.736Z</time></trkpt><trkpt lat="39.8495367" lon="8.58398"><ele>3.6666666666666665</ele><time>2026-04-20T15:57:00.736Z</time></trkpt><trkpt lat="39.8494283" lon="8.5841983"><ele>3.333333333333333</ele><time>2026-04-20T15:57:01.736Z</time></trkpt><trkpt lat="39.849315" lon="8.5844117"><ele>3.0</ele><time>2026-04-20T15:57:02.736Z</time></trkpt><trkpt lat="39.8492" lon="8.584625"><ele>2.6666666666666665</ele><time>2026-04-20T15:57:03.736Z</time></trkpt><trkpt lat="39.8490883" lon="8.584845"><ele>2.333333333333333</ele><time>2026-04-20T15:57:04.736Z</time></trkpt><trkpt lat="39.84898" lon="8.5850683"><ele>2.0</ele><time>2026-04-20T15:57:05.736Z</time></trkpt><trkpt lat="39.8488633" lon="8.58529"><ele>2.333333333333333</ele><time>2026-04-20T15:57:06.737Z</time></trkpt><trkpt lat="39.8487517" lon="8.585515"><ele>2.6666666666666665</ele><time>2026-04-20T15:57:07.736Z</time></trkpt><trkpt lat="39.8486417" lon="8.585745"><ele>3.0</ele><time>2026-04-20T15:57:08.737Z</time></trkpt><trkpt lat="39.8485333" lon="8.5859733"><ele>3.5</ele><time>2026-04-20T15:57:09.737Z</time></trkpt><trkpt lat="39.8484233" lon="8.5861917"><ele>4.0</ele><time>2026-04-20T15:57:10.736Z</time></trkpt><trkpt lat="39.8482067" lon="8.5866167"><ele>4.0</ele><time>2026-04-20T15:57:12.737Z</time></trkpt><trkpt lat="39.848105" lon="8.5868183"><ele>4.0</ele><time>2026-04-20T15:57:13.736Z</time></trkpt><trkpt lat="39.848005" lon="8.5870117"><ele>4.0</ele><time>2026-04-20T15:57:14.736Z</time></trkpt><trkpt lat="39.84791" lon="8.5872033"><ele>4.333333333333333</ele><time>2026-04-20T15:57:15.737Z</time></trkpt><trkpt lat="39.8478167" lon="8.587395"><ele>4.666666666666667</ele><time>2026-04-20T15:57:16.737Z</time></trkpt><trkpt lat="39.84772" lon="8.5875833"><ele>5.0</ele><time>2026-04-20T15:57:17.736Z</time></trkpt><trkpt lat="39.8476233" lon="8.5877683"><ele>5.0</ele><time>2026-04-20T15:57:18.736Z</time></trkpt><trkpt lat="39.847535" lon="8.5879467"><ele>5.0</ele><time>2026-04-20T15:57:19.736Z</time></trkpt><trkpt lat="39.8474517" lon="8.5881167"><ele>5.0</ele><time>2026-04-20T15:57:20.736Z</time></trkpt><trkpt lat="39.8473683" lon="8.5882833"><ele>5.0</ele><time>2026-04-20T15:57:21.736Z</time></trkpt><trkpt lat="39.8472917" lon="8.58844"><ele>5.0</ele><time>2026-04-20T15:57:22.736Z</time></trkpt><trkpt lat="39.847215" lon="8.5885867"><ele>5.0</ele><time>2026-04-20T15:57:23.736Z</time></trkpt><trkpt lat="39.8471483" lon="8.5887267"><ele>5.0</ele><time>2026-04-20T15:57:24.736Z</time></trkpt><trkpt lat="39.8470817" lon="8.58885"><ele>4.5</ele><time>2026-04-20T15:57:25.736Z</time></trkpt><trkpt lat="39.8470117" lon="8.58895"><ele>4.0</ele><time>2026-04-20T15:57:26.736Z</time></trkpt><trkpt lat="39.8469217" lon="8.5890517"><ele>3.5</ele><time>2026-04-20T15:57:27.736Z</time></trkpt><trkpt lat="39.8468233" lon="8.5891383"><ele>3.0</ele><time>2026-04-20T15:57:28.736Z</time></trkpt><trkpt lat="39.8467133" lon="8.5892033"><ele>2.6666666666666665</ele><time>2026-04-20T15:57:29.736Z</time></trkpt><trkpt lat="39.8465933" lon="8.5892483"><ele>2.333333333333333</ele><time>2026-04-20T15:57:30.736Z</time></trkpt><trkpt lat="39.8464783" lon="8.58927"><ele>2.0</ele><time>2026-04-20T15:57:31.736Z</time></trkpt><trkpt lat="39.8462417" lon="8.58925"><ele>2.0</ele><time>2026-04-20T15:57:33.736Z</time></trkpt><trkpt lat="39.8461183" lon="8.5891983"><ele>2.0</ele><time>2026-04-20T15:57:34.737Z</time></trkpt><trkpt lat="39.8459967" lon="8.58912"><ele>2.0</ele><time>2026-04-20T15:57:35.737Z</time></trkpt><trkpt lat="39.845875" lon="8.5890167"><ele>2.0</ele><time>2026-04-20T15:57:36.736Z</time></trkpt><trkpt lat="39.84575" lon="8.588905"><ele>2.0</ele><time>2026-04-20T15:57:37.736Z</time></trkpt><trkpt lat="39.8456183" lon="8.588795"><ele>2.0</ele><time>2026-04-20T15:57:38.736Z</time></trkpt><trkpt lat="39.8454733" lon="8.5886767"><ele>2.0</ele><time>2026-04-20T15:57:39.736Z</time></trkpt><trkpt lat="39.8453233" lon="8.588575"><ele>2.0</ele><time>2026-04-20T15:57:40.736Z</time></trkpt><trkpt lat="39.8451683" lon="8.5884933"><ele>2.0</ele><time>2026-04-20T15:57:41.736Z</time></trkpt><trkpt lat="39.84501" lon="8.5884133"><ele>2.0</ele><time>2026-04-20T15:57:42.736Z</time></trkpt><trkpt lat="39.844845" lon="8.5883517"><ele>2.333333333333333</ele><time>2026-04-20T15:57:43.736Z</time></trkpt><trkpt lat="39.84467" lon="8.5882883"><ele>2.6666666666666665</ele><time>2026-04-20T15:57:44.736Z</time></trkpt><trkpt lat="39.84449" lon="8.5882283"><ele>3.0</ele><time>2026-04-20T15:57:45.736Z</time></trkpt><trkpt lat="39.84431" lon="8.5881433"><ele>3.333333333333333</ele><time>2026-04-20T15:57:46.736Z</time></trkpt><trkpt lat="39.8441317" lon="8.58806"><ele>3.6666666666666665</ele><time>2026-04-20T15:57:47.737Z</time></trkpt><trkpt lat="39.8439583" lon="8.5879717"><ele>4.0</ele><time>2026-04-20T15:57:48.736Z</time></trkpt><trkpt lat="39.84378" lon="8.5878883"><ele>3.333333333333333</ele><time>2026-04-20T15:57:49.736Z</time></trkpt><trkpt lat="39.8436" lon="8.58781"><ele>2.6666666666666665</ele><time>2026-04-20T15:57:50.736Z</time></trkpt><trkpt lat="39.8434183" lon="8.5877283"><ele>2.0</ele><time>2026-04-20T15:57:51.736Z</time></trkpt><trkpt lat="39.8432433" lon="8.5876517"><ele>2.0</ele><time>2026-04-20T15:57:52.737Z</time></trkpt><trkpt lat="39.8428933" lon="8.5874983"><ele>2.0</ele><time>2026-04-20T15:57:54.737Z</time></trkpt><trkpt lat="39.8427183" lon="8.5874167"><ele>3.0</ele><time>2026-04-20T15:57:55.736Z</time></trkpt><trkpt lat="39.8425417" lon="8.5873383"><ele>4.0</ele><time>2026-04-20T15:57:56.736Z</time></trkpt><trkpt lat="39.8423633" lon="8.5872633"><ele>5.0</ele><time>2026-04-20T15:57:57.736Z</time></trkpt><trkpt lat="39.8421917" lon="8.5871867"><ele>5.0</ele><time>2026-04-20T15:57:58.736Z</time></trkpt><trkpt lat="39.8420183" lon="8.5871017"><ele>5.0</ele><time>2026-04-20T15:57:59.737Z</time></trkpt><trkpt lat="39.8418383" lon="8.5870167"><ele>5.0</ele><time>2026-04-20T15:58:00.736Z</time></trkpt><trkpt lat="39.8416617" lon="8.5869267"><ele>5.333333333333334</ele><time>2026-04-20T15:58:01.736Z</time></trkpt><trkpt lat="39.84149" lon="8.58685"><ele>5.666666666666667</ele><time>2026-04-20T15:58:02.736Z</time></trkpt><trkpt lat="39.8413167" lon="8.5867733"><ele>6.0</ele><time>2026-04-20T15:58:03.736Z</time></trkpt><trkpt lat="39.8411517" lon="8.5866933"><ele>6.0</ele><time>2026-04-20T15:58:04.736Z</time></trkpt><trkpt lat="39.8409833" lon="8.586615"><ele>6.0</ele><time>2026-04-20T15:58:05.736Z</time></trkpt><trkpt lat="39.8408117" lon="8.58654"><ele>6.0</ele><time>2026-04-20T15:58:06.737Z</time></trkpt><trkpt lat="39.84064" lon="8.5864617"><ele>6.0</ele><time>2026-04-20T15:58:07.737Z</time></trkpt><trkpt lat="39.8404717" lon="8.5863867"><ele>6.0</ele><time>2026-04-20T15:58:08.736Z</time></trkpt><trkpt lat="39.8402933" lon="8.5863117"><ele>6.0</ele><time>2026-04-20T15:58:09.736Z</time></trkpt><trkpt lat="39.8401167" lon="8.5862383"><ele>5.0</ele><time>2026-04-20T15:58:10.736Z</time></trkpt><trkpt lat="39.8399383" lon="8.5861767"><ele>4.0</ele><time>2026-04-20T15:58:11.736Z</time></trkpt><trkpt lat="39.8397567" lon="8.5860967"><ele>3.0</ele><time>2026-04-20T15:58:12.736Z</time></trkpt><trkpt lat="39.8395733" lon="8.58601"><ele>3.5</ele><time>2026-04-20T15:58:13.736Z</time></trkpt><trkpt lat="39.839215" lon="8.5858333"><ele>4.0</ele><time>2026-04-20T15:58:15.736Z</time></trkpt><trkpt lat="39.8390317" lon="8.5857467"><ele>4.0</ele><time>2026-04-20T15:58:16.736Z</time></trkpt><trkpt lat="39.83885" lon="8.5856667"><ele>4.0</ele><time>2026-04-20T15:58:17.736Z</time></trkpt><trkpt lat="39.83867" lon="8.585585"><ele>4.0</ele><time>2026-04-20T15:58:18.737Z</time></trkpt><trkpt lat="39.83849" lon="8.5855"><ele>3.6666666666666665</ele><time>2026-04-20T15:58:19.736Z</time></trkpt><trkpt lat="39.8383183" lon="8.5854133"><ele>3.333333333333333</ele><time>2026-04-20T15:58:20.736Z</time></trkpt><trkpt lat="39.8381383" lon="8.5853267"><ele>3.0</ele><time>2026-04-20T15:58:21.736Z</time></trkpt><trkpt lat="39.83795" lon="8.5852467"><ele>3.333333333333333</ele><time>2026-04-20T15:58:22.736Z</time></trkpt><trkpt lat="39.8377617" lon="8.5851717"><ele>3.6666666666666665</ele><time>2026-04-20T15:58:23.737Z</time></trkpt><trkpt lat="39.83757" lon="8.5850917"><ele>4.0</ele><time>2026-04-20T15:58:24.736Z</time></trkpt><trkpt lat="39.8373817" lon="8.58501"><ele>4.0</ele><time>2026-04-20T15:58:25.736Z</time></trkpt><trkpt lat="39.8371883" lon="8.5849183"><ele>4.0</ele><time>2026-04-20T15:58:26.736Z</time></trkpt><trkpt lat="39.836995" lon="8.5848283"><ele>4.0</ele><time>2026-04-20T15:58:27.736Z</time></trkpt><trkpt lat="39.8368033" lon="8.5847333"><ele>4.0</ele><time>2026-04-20T15:58:28.736Z</time></trkpt><trkpt lat="39.8366117" lon="8.58464"><ele>4.0</ele><time>2026-04-20T15:58:29.736Z</time></trkpt><trkpt lat="39.83642" lon="8.5845517"><ele>4.0</ele><time>2026-04-20T15:58:30.736Z</time></trkpt><trkpt lat="39.836235" lon="8.58447"><ele>4.0</ele><time>2026-04-20T15:58:31.736Z</time></trkpt><trkpt lat="39.8360533" lon="8.5843733"><ele>4.0</ele><time>2026-04-20T15:58:32.736Z</time></trkpt><trkpt lat="39.8358683" lon="8.5842733"><ele>4.0</ele><time>2026-04-20T15:58:33.736Z</time></trkpt><trkpt lat="39.8356883" lon="8.5841667"><ele>4.5</ele><time>2026-04-20T15:58:34.736Z</time></trkpt><trkpt lat="39.8353167" lon="8.5839617"><ele>5.0</ele><time>2026-04-20T15:58:36.736Z</time></trkpt><trkpt lat="39.835135" lon="8.5838633"><ele>5.0</ele><time>2026-04-20T15:58:37.736Z</time></trkpt><trkpt lat="39.8349583" lon="8.583765"><ele>5.0</ele><time>2026-04-20T15:58:38.736Z</time></trkpt><trkpt lat="39.8347783" lon="8.58367"><ele>5.0</ele><time>2026-04-20T15:58:39.736Z</time></trkpt><trkpt lat="39.8346033" lon="8.5835733"><ele>5.0</ele><time>2026-04-20T15:58:40.736Z</time></trkpt><trkpt lat="39.8344283" lon="8.5834717"><ele>5.0</ele><time>2026-04-20T15:58:41.737Z</time></trkpt><trkpt lat="39.8342567" lon="8.5833767"><ele>5.0</ele><time>2026-04-20T15:58:42.736Z</time></trkpt><trkpt lat="39.8340833" lon="8.5832817"><ele>5.0</ele><time>2026-04-20T15:58:43.736Z</time></trkpt><trkpt lat="39.83391" lon="8.5831917"><ele>5.0</ele><time>2026-04-20T15:58:44.736Z</time></trkpt><trkpt lat="39.8337333" lon="8.5830967"><ele>5.0</ele><time>2026-04-20T15:58:45.737Z</time></trkpt><trkpt lat="39.8335567" lon="8.5829967"><ele>4.666666666666667</ele><time>2026-04-20T15:58:46.737Z</time></trkpt><trkpt lat="39.8333733" lon="8.5828983"><ele>4.333333333333333</ele><time>2026-04-20T15:58:47.736Z</time></trkpt><trkpt lat="39.83319" lon="8.5827933"><ele>4.0</ele><time>2026-04-20T15:58:48.736Z</time></trkpt><trkpt lat="39.8330017" lon="8.5826933"><ele>4.0</ele><time>2026-04-20T15:58:49.736Z</time></trkpt><trkpt lat="39.83281" lon="8.5825817"><ele>4.0</ele><time>2026-04-20T15:58:50.736Z</time></trkpt><trkpt lat="39.83262" lon="8.5824783"><ele>4.0</ele><time>2026-04-20T15:58:51.736Z</time></trkpt><trkpt lat="39.8324283" lon="8.5823667"><ele>4.333333333333333</ele><time>2026-04-20T15:58:52.737Z</time></trkpt><trkpt lat="39.8322283" lon="8.58226"><ele>4.666666666666667</ele><time>2026-04-20T15:58:53.736Z</time></trkpt><trkpt lat="39.83204" lon="8.5821533"><ele>5.0</ele><time>2026-04-20T15:58:54.736Z</time></trkpt><trkpt lat="39.83185" lon="8.5820483"><ele>5.5</ele><time>2026-04-20T15:58:55.737Z</time></trkpt><trkpt lat="39.8314717" lon="8.5818483"><ele>6.0</ele><time>2026-04-20T15:58:57.736Z</time></trkpt><trkpt lat="39.8312817" lon="8.5817467"><ele>6.0</ele><time>2026-04-20T15:58:58.736Z</time></trkpt><trkpt lat="39.831095" lon="8.58164"><ele>6.0</ele><time>2026-04-20T15:58:59.736Z</time></trkpt><trkpt lat="39.8309083" lon="8.5815333"><ele>6.0</ele><time>2026-04-20T15:59:00.736Z</time></trkpt><trkpt lat="39.8307133" lon="8.5814283"><ele>6.0</ele><time>2026-04-20T15:59:01.736Z</time></trkpt><trkpt lat="39.8305283" lon="8.58132"><ele>6.0</ele><time>2026-04-20T15:59:02.737Z</time></trkpt><trkpt lat="39.8303317" lon="8.58122"><ele>6.0</ele><time>2026-04-20T15:59:03.736Z</time></trkpt><trkpt lat="39.8301417" lon="8.5811133"><ele>6.333333333333334</ele><time>2026-04-20T15:59:04.736Z</time></trkpt><trkpt lat="39.8299517" lon="8.58101"><ele>6.666666666666667</ele><time>2026-04-20T15:59:05.736Z</time></trkpt><trkpt lat="39.829755" lon="8.5809083"><ele>7.0</ele><time>2026-04-20T15:59:06.736Z</time></trkpt><trkpt lat="39.8295667" lon="8.5808067"><ele>7.0</ele><time>2026-04-20T15:59:07.736Z</time></trkpt><trkpt lat="39.829375" lon="8.580695"><ele>7.0</ele><time>2026-04-20T15:59:08.736Z</time></trkpt><trkpt lat="39.8291867" lon="8.5805867"><ele>7.0</ele><time>2026-04-20T15:59:09.736Z</time></trkpt><trkpt lat="39.8289967" lon="8.5804867"><ele>7.333333333333334</ele><time>2026-04-20T15:59:10.736Z</time></trkpt><trkpt lat="39.8288083" lon="8.5803833"><ele>7.666666666666666</ele><time>2026-04-20T15:59:11.736Z</time></trkpt><trkpt lat="39.828625" lon="8.5802783"><ele>8.0</ele><time>2026-04-20T15:59:12.736Z</time></trkpt><trkpt lat="39.828435" lon="8.58018"><ele>8.0</ele><time>2026-04-20T15:59:13.736Z</time></trkpt><trkpt lat="39.8282483" lon="8.580075"><ele>8.0</ele><time>2026-04-20T15:59:14.736Z</time></trkpt><trkpt lat="39.8280667" lon="8.579975"><ele>8.0</ele><time>2026-04-20T15:59:15.736Z</time></trkpt><trkpt lat="39.827885" lon="8.579875"><ele>7.5</ele><time>2026-04-20T15:59:16.737Z</time></trkpt><trkpt lat="39.8275217" lon="8.5796683"><ele>7.0</ele><time>2026-04-20T15:59:18.736Z</time></trkpt><trkpt lat="39.8273383" lon="8.5795733"><ele>6.666666666666667</ele><time>2026-04-20T15:59:19.737Z</time></trkpt><trkpt lat="39.8271633" lon="8.5794883"><ele>6.333333333333334</ele><time>2026-04-20T15:59:20.736Z</time></trkpt><trkpt lat="39.8269933" lon="8.5793983"><ele>6.0</ele><time>2026-04-20T15:59:21.736Z</time></trkpt><trkpt lat="39.8268283" lon="8.5793017"><ele>6.666666666666666</ele><time>2026-04-20T15:59:22.737Z</time></trkpt><trkpt lat="39.82666" lon="8.57919"><ele>7.333333333333333</ele><time>2026-04-20T15:59:23.736Z</time></trkpt><trkpt lat="39.8265067" lon="8.579065"><ele>8.0</ele><time>2026-04-20T15:59:24.737Z</time></trkpt><trkpt lat="39.8263617" lon="8.57892"><ele>8.0</ele><time>2026-04-20T15:59:25.736Z</time></trkpt><trkpt lat="39.826215" lon="8.578765"><ele>8.0</ele><time>2026-04-20T15:59:26.736Z</time></trkpt><trkpt lat="39.82606" lon="8.578605"><ele>8.0</ele><time>2026-04-20T15:59:27.736Z</time></trkpt><trkpt lat="39.8259" lon="8.5784467"><ele>7.0</ele><time>2026-04-20T15:59:28.736Z</time></trkpt><trkpt lat="39.825745" lon="8.57828"><ele>6.0</ele><time>2026-04-20T15:59:29.736Z</time></trkpt><trkpt lat="39.8255917" lon="8.5781183"><ele>5.0</ele><time>2026-04-20T15:59:30.736Z</time></trkpt><trkpt lat="39.825455" lon="8.57795"><ele>4.666666666666667</ele><time>2026-04-20T15:59:31.736Z</time></trkpt><trkpt lat="39.825315" lon="8.5777983"><ele>4.333333333333333</ele><time>2026-04-20T15:59:32.736Z</time></trkpt><trkpt lat="39.825175" lon="8.5776533"><ele>4.0</ele><time>2026-04-20T15:59:33.736Z</time></trkpt><trkpt lat="39.825035" lon="8.5775167"><ele>4.0</ele><time>2026-04-20T15:59:34.736Z</time></trkpt><trkpt lat="39.82489" lon="8.577395"><ele>4.0</ele><time>2026-04-20T15:59:35.736Z</time></trkpt><trkpt lat="39.824745" lon="8.5773033"><ele>4.0</ele><time>2026-04-20T15:59:36.737Z</time></trkpt><trkpt lat="39.8246083" lon="8.577235"><ele>4.0</ele><time>2026-04-20T15:59:37.736Z</time></trkpt><trkpt lat="39.8243433" lon="8.5771417"><ele>4.0</ele><time>2026-04-20T15:59:39.736Z</time></trkpt><trkpt lat="39.8242233" lon="8.5770983"><ele>4.0</ele><time>2026-04-20T15:59:40.736Z</time></trkpt><trkpt lat="39.824105" lon="8.5770583"><ele>3.25</ele><time>2026-04-20T15:59:41.736Z</time></trkpt><trkpt lat="39.8239933" lon="8.577015"><ele>2.5</ele><time>2026-04-20T15:59:42.737Z</time></trkpt><trkpt lat="39.8238833" lon="8.5769683"><ele>1.75</ele><time>2026-04-20T15:59:43.736Z</time></trkpt><trkpt lat="39.8237717" lon="8.576925"><ele>1.0</ele><time>2026-04-20T15:59:44.736Z</time></trkpt><trkpt lat="39.8236483" lon="8.5768883"><ele>1.0</ele><time>2026-04-20T15:59:45.736Z</time></trkpt><trkpt lat="39.823525" lon="8.5768617"><ele>1.0</ele><time>2026-04-20T15:59:46.736Z</time></trkpt><trkpt lat="39.8234017" lon="8.5768483"><ele>1.0</ele><time>2026-04-20T15:59:47.736Z</time></trkpt><trkpt lat="39.823275" lon="8.5768567"><ele>1.0</ele><time>2026-04-20T15:59:48.737Z</time></trkpt><trkpt lat="39.8231367" lon="8.57688"><ele>1.0</ele><time>2026-04-20T15:59:49.736Z</time></trkpt><trkpt lat="39.8229983" lon="8.5769083"><ele>1.0</ele><time>2026-04-20T15:59:50.736Z</time></trkpt><trkpt lat="39.8228583" lon="8.5769367"><ele>1.0</ele><time>2026-04-20T15:59:51.736Z</time></trkpt><trkpt lat="39.822715" lon="8.5769583"><ele>1.0</ele><time>2026-04-20T15:59:52.736Z</time></trkpt><trkpt lat="39.82256" lon="8.576985"><ele>1.0</ele><time>2026-04-20T15:59:53.736Z</time></trkpt><trkpt lat="39.8224033" lon="8.5770083"><ele>1.0</ele><time>2026-04-20T15:59:54.736Z</time></trkpt><trkpt lat="39.8222433" lon="8.57703"><ele>1.0</ele><time>2026-04-20T15:59:55.736Z</time></trkpt><trkpt lat="39.8220783" lon="8.57703"><ele>1.0</ele><time>2026-04-20T15:59:56.736Z</time></trkpt><trkpt lat="39.8219183" lon="8.5770067"><ele>1.0</ele><time>2026-04-20T15:59:57.736Z</time></trkpt><trkpt lat="39.8217717" lon="8.5769533"><ele>1.0</ele><time>2026-04-20T15:59:58.736Z</time></trkpt><trkpt lat="39.8215017" lon="8.576775"><ele>0.75</ele><time>2026-04-20T16:00:00.736Z</time></trkpt><trkpt lat="39.8213833" lon="8.5766617"><ele>0.5</ele><time>2026-04-20T16:00:01.737Z</time></trkpt><trkpt lat="39.8212733" lon="8.5765383"><ele>0.25</ele><time>2026-04-20T16:00:02.736Z</time></trkpt><trkpt lat="39.8211567" lon="8.5764017"><ele>0.0</ele><time>2026-04-20T16:00:03.736Z</time></trkpt><trkpt lat="39.8210383" lon="8.576265"><ele>0.0</ele><time>2026-04-20T16:00:04.736Z</time></trkpt><trkpt lat="39.8209233" lon="8.576125"><ele>0.0</ele><time>2026-04-20T16:00:05.736Z</time></trkpt><trkpt lat="39.8208017" lon="8.5759833"><ele>0.0</ele><time>2026-04-20T16:00:06.736Z</time></trkpt><trkpt lat="39.8206783" lon="8.57584"><ele>0.0</ele><time>2026-04-20T16:00:07.737Z</time></trkpt><trkpt lat="39.82055" lon="8.5756967"><ele>0.0</ele><time>2026-04-20T16:00:08.736Z</time></trkpt><trkpt lat="39.8204183" lon="8.5755467"><ele>0.0</ele><time>2026-04-20T16:00:09.736Z</time></trkpt><trkpt lat="39.8202867" lon="8.5753933"><ele>0.0</ele><time>2026-04-20T16:00:10.736Z</time></trkpt><trkpt lat="39.8201517" lon="8.5752433"><ele>0.0</ele><time>2026-04-20T16:00:11.736Z</time></trkpt><trkpt lat="39.8200167" lon="8.5750883"><ele>0.0</ele><time>2026-04-20T16:00:12.736Z</time></trkpt><trkpt lat="39.8198933" lon="8.57494"><ele>-0.3333333333333333</ele><time>2026-04-20T16:00:13.737Z</time></trkpt><trkpt lat="39.8197733" lon="8.574805"><ele>-0.6666666666666666</ele><time>2026-04-20T16:00:14.737Z</time></trkpt><trkpt lat="39.8196517" lon="8.5746733"><ele>-1.0</ele><time>2026-04-20T16:00:15.736Z</time></trkpt><trkpt lat="39.8195333" lon="8.574555"><ele>-0.3333333333333333</ele><time>2026-04-20T16:00:16.736Z</time></trkpt><trkpt lat="39.81941" lon="8.5744483"><ele>0.3333333333333333</ele><time>2026-04-20T16:00:17.737Z</time></trkpt><trkpt lat="39.819265" lon="8.5743733"><ele>1.0</ele><time>2026-04-20T16:00:18.736Z</time></trkpt><trkpt lat="39.8191033" lon="8.57432"><ele>1.0</ele><time>2026-04-20T16:00:19.736Z</time></trkpt><trkpt lat="39.8187633" lon="8.574265"><ele>1.0</ele><time>2026-04-20T16:00:21.736Z</time></trkpt><trkpt lat="39.8185817" lon="8.5742283"><ele>1.0</ele><time>2026-04-20T16:00:22.737Z</time></trkpt><trkpt lat="39.8183983" lon="8.5741867"><ele>1.0</ele><time>2026-04-20T16:00:23.736Z</time></trkpt><trkpt lat="39.8182167" lon="8.574145"><ele>1.0</ele><time>2026-04-20T16:00:24.736Z</time></trkpt><trkpt lat="39.818025" lon="8.5741017"><ele>1.0</ele><time>2026-04-20T16:00:25.736Z</time></trkpt><trkpt lat="39.8178367" lon="8.574035"><ele>1.0</ele><time>2026-04-20T16:00:26.736Z</time></trkpt><trkpt lat="39.8176533" lon="8.5739567"><ele>1.0</ele><time>2026-04-20T16:00:27.736Z</time></trkpt><trkpt lat="39.81747" lon="8.5738617"><ele>1.3333333333333333</ele><time>2026-04-20T16:00:28.736Z</time></trkpt><trkpt lat="39.8172783" lon="8.5737717"><ele>1.6666666666666665</ele><time>2026-04-20T16:00:29.736Z</time></trkpt><trkpt lat="39.817095" lon="8.5736767"><ele>2.0</ele><time>2026-04-20T16:00:30.736Z</time></trkpt><trkpt lat="39.8169167" lon="8.5735917"><ele>2.0</ele><time>2026-04-20T16:00:31.737Z</time></trkpt><trkpt lat="39.8167483" lon="8.5735217"><ele>2.0</ele><time>2026-04-20T16:00:32.736Z</time></trkpt><trkpt lat="39.816585" lon="8.5734767"><ele>2.0</ele><time>2026-04-20T16:00:33.736Z</time></trkpt><trkpt lat="39.816415" lon="8.5734567"><ele>2.0</ele><time>2026-04-20T16:00:34.736Z</time></trkpt><trkpt lat="39.816245" lon="8.573485"><ele>2.0</ele><time>2026-04-20T16:00:35.736Z</time></trkpt><trkpt lat="39.8160783" lon="8.57356"><ele>2.0</ele><time>2026-04-20T16:00:36.736Z</time></trkpt><trkpt lat="39.81593" lon="8.573675"><ele>2.333333333333333</ele><time>2026-04-20T16:00:37.736Z</time></trkpt><trkpt lat="39.8157983" lon="8.5738333"><ele>2.6666666666666665</ele><time>2026-04-20T16:00:38.736Z</time></trkpt><trkpt lat="39.8156883" lon="8.574015"><ele>3.0</ele><time>2026-04-20T16:00:39.736Z</time></trkpt><trkpt lat="39.8155867" lon="8.57422"><ele>2.0</ele><time>2026-04-20T16:00:40.736Z</time></trkpt><trkpt lat="39.8154083" lon="8.5746433"><ele>1.0</ele><time>2026-04-20T16:00:42.736Z</time></trkpt><trkpt lat="39.8153217" lon="8.57486"><ele>1.0</ele><time>2026-04-20T16:00:43.736Z</time></trkpt><trkpt lat="39.8152283" lon="8.5750783"><ele>1.0</ele><time>2026-04-20T16:00:44.737Z</time></trkpt><trkpt lat="39.81514" lon="8.5752883"><ele>1.0</ele><time>2026-04-20T16:00:45.736Z</time></trkpt><trkpt lat="39.8150567" lon="8.5755017"><ele>2.0</ele><time>2026-04-20T16:00:46.737Z</time></trkpt><trkpt lat="39.8149717" lon="8.5756983"><ele>3.0</ele><time>2026-04-20T16:00:47.736Z</time></trkpt><trkpt lat="39.8148767" lon="8.5759017"><ele>4.0</ele><time>2026-04-20T16:00:48.736Z</time></trkpt><trkpt lat="39.8147833" lon="8.5761033"><ele>3.6666666666666665</ele><time>2026-04-20T16:00:49.736Z</time></trkpt><trkpt lat="39.8146817" lon="8.576305"><ele>3.333333333333333</ele><time>2026-04-20T16:00:50.736Z</time></trkpt><trkpt lat="39.81459" lon="8.5765117"><ele>3.0</ele><time>2026-04-20T16:00:51.736Z</time></trkpt><trkpt lat="39.814495" lon="8.576705"><ele>3.0</ele><time>2026-04-20T16:00:52.736Z</time></trkpt><trkpt lat="39.8143983" lon="8.5769117"><ele>3.0</ele><time>2026-04-20T16:00:53.736Z</time></trkpt><trkpt lat="39.8143" lon="8.5771117"><ele>3.0</ele><time>2026-04-20T16:00:54.736Z</time></trkpt><trkpt lat="39.81421" lon="8.5773267"><ele>3.0</ele><time>2026-04-20T16:00:55.736Z</time></trkpt><trkpt lat="39.8141067" lon="8.5775417"><ele>3.0</ele><time>2026-04-20T16:00:56.736Z</time></trkpt><trkpt lat="39.8140117" lon="8.5777483"><ele>3.0</ele><time>2026-04-20T16:00:57.736Z</time></trkpt><trkpt lat="39.813915" lon="8.5779617"><ele>2.3333333333333335</ele><time>2026-04-20T16:00:58.736Z</time></trkpt><trkpt lat="39.8137967" lon="8.57815"><ele>1.6666666666666665</ele><time>2026-04-20T16:00:59.736Z</time></trkpt><trkpt lat="39.8136783" lon="8.578345"><ele>1.0</ele><time>2026-04-20T16:01:00.736Z</time></trkpt><trkpt lat="39.8135467" lon="8.5785217"><ele>1.0</ele><time>2026-04-20T16:01:01.737Z</time></trkpt><trkpt lat="39.8132883" lon="8.5788517"><ele>1.0</ele><time>2026-04-20T16:01:03.736Z</time></trkpt><trkpt lat="39.8131567" lon="8.5790117"><ele>1.0</ele><time>2026-04-20T16:01:04.736Z</time></trkpt><trkpt lat="39.81302" lon="8.579165"><ele>1.0</ele><time>2026-04-20T16:01:05.736Z</time></trkpt><trkpt lat="39.81289" lon="8.579315"><ele>1.0</ele><time>2026-04-20T16:01:06.736Z</time></trkpt><trkpt lat="39.8127633" lon="8.57946"><ele>1.3333333333333333</ele><time>2026-04-20T16:01:07.736Z</time></trkpt><trkpt lat="39.81263" lon="8.5795883"><ele>1.6666666666666665</ele><time>2026-04-20T16:01:08.736Z</time></trkpt><trkpt lat="39.812485" lon="8.579715"><ele>2.0</ele><time>2026-04-20T16:01:09.736Z</time></trkpt><trkpt lat="39.8123417" lon="8.5798367"><ele>2.0</ele><time>2026-04-20T16:01:10.736Z</time></trkpt><trkpt lat="39.8122017" lon="8.579965"><ele>2.0</ele><time>2026-04-20T16:01:11.736Z</time></trkpt><trkpt lat="39.8120617" lon="8.5800867"><ele>2.0</ele><time>2026-04-20T16:01:12.736Z</time></trkpt><trkpt lat="39.8119133" lon="8.5802183"><ele>1.6666666666666665</ele><time>2026-04-20T16:01:13.736Z</time></trkpt><trkpt lat="39.8117567" lon="8.5803517"><ele>1.3333333333333333</ele><time>2026-04-20T16:01:14.736Z</time></trkpt><trkpt lat="39.8115967" lon="8.580485"><ele>1.0</ele><time>2026-04-20T16:01:15.736Z</time></trkpt><trkpt lat="39.8114333" lon="8.5806217"><ele>1.0</ele><time>2026-04-20T16:01:16.736Z</time></trkpt><trkpt lat="39.8112667" lon="8.5807667"><ele>1.0</ele><time>2026-04-20T16:01:17.736Z</time></trkpt><trkpt lat="39.8111083" lon="8.580925"><ele>1.0</ele><time>2026-04-20T16:01:18.736Z</time></trkpt><trkpt lat="39.81095" lon="8.5810683"><ele>2.0</ele><time>2026-04-20T16:01:19.737Z</time></trkpt><trkpt lat="39.8107917" lon="8.5812183"><ele>3.0</ele><time>2026-04-20T16:01:20.736Z</time></trkpt><trkpt lat="39.81065" lon="8.5813567"><ele>4.0</ele><time>2026-04-20T16:01:21.736Z</time></trkpt><trkpt lat="39.81052" lon="8.5814917"><ele>4.0</ele><time>2026-04-20T16:01:22.737Z</time></trkpt><trkpt lat="39.8102933" lon="8.5817333"><ele>4.0</ele><time>2026-04-20T16:01:24.737Z</time></trkpt><trkpt lat="39.8101967" lon="8.58184"><ele>4.0</ele><time>2026-04-20T16:01:25.736Z</time></trkpt><trkpt lat="39.8101" lon="8.5819317"><ele>4.0</ele><time>2026-04-20T16:01:26.737Z</time></trkpt><trkpt lat="39.8099967" lon="8.5820083"><ele>4.0</ele><time>2026-04-20T16:01:27.736Z</time></trkpt><trkpt lat="39.8098783" lon="8.582075"><ele>4.0</ele><time>2026-04-20T16:01:28.736Z</time></trkpt><trkpt lat="39.8097533" lon="8.5821167"><ele>4.0</ele><time>2026-04-20T16:01:29.737Z</time></trkpt><trkpt lat="39.8096083" lon="8.582135"><ele>4.0</ele><time>2026-04-20T16:01:30.736Z</time></trkpt><trkpt lat="39.8094617" lon="8.5821283"><ele>4.0</ele><time>2026-04-20T16:01:31.736Z</time></trkpt><trkpt lat="39.8093" lon="8.582125"><ele>4.0</ele><time>2026-04-20T16:01:32.736Z</time></trkpt><trkpt lat="39.80913" lon="8.5821383"><ele>4.0</ele><time>2026-04-20T16:01:33.736Z</time></trkpt><trkpt lat="39.8089567" lon="8.5821333"><ele>4.0</ele><time>2026-04-20T16:01:34.736Z</time></trkpt><trkpt lat="39.8087767" lon="8.582135"><ele>4.0</ele><time>2026-04-20T16:01:35.736Z</time></trkpt><trkpt lat="39.808595" lon="8.5821417"><ele>4.333333333333333</ele><time>2026-04-20T16:01:36.736Z</time></trkpt><trkpt lat="39.8084067" lon="8.582135"><ele>4.666666666666667</ele><time>2026-04-20T16:01:37.737Z</time></trkpt><trkpt lat="39.808215" lon="8.5821317"><ele>5.0</ele><time>2026-04-20T16:01:38.736Z</time></trkpt><trkpt lat="39.808025" lon="8.582125"><ele>5.0</ele><time>2026-04-20T16:01:39.737Z</time></trkpt><trkpt lat="39.8078433" lon="8.58213"><ele>5.0</ele><time>2026-04-20T16:01:40.737Z</time></trkpt><trkpt lat="39.8076683" lon="8.5821233"><ele>5.0</ele><time>2026-04-20T16:01:41.736Z</time></trkpt><trkpt lat="39.807495" lon="8.5821267"><ele>4.5</ele><time>2026-04-20T16:01:42.736Z</time></trkpt><trkpt lat="39.807325" lon="8.5821267"><ele>4.0</ele><time>2026-04-20T16:01:43.736Z</time></trkpt><trkpt lat="39.806965" lon="8.5821333"><ele>5.0</ele><time>2026-04-20T16:01:45.737Z</time></trkpt><trkpt lat="39.8067867" lon="8.5821383"><ele>6.0</ele><time>2026-04-20T16:01:46.736Z</time></trkpt><trkpt lat="39.8066133" lon="8.582135"><ele>7.0</ele><time>2026-04-20T16:01:47.736Z</time></trkpt><trkpt lat="39.8064383" lon="8.58214"><ele>7.0</ele><time>2026-04-20T16:01:48.736Z</time></trkpt><trkpt lat="39.806265" lon="8.5821417"><ele>7.0</ele><time>2026-04-20T16:01:49.736Z</time></trkpt><trkpt lat="39.8060867" lon="8.5821417"><ele>7.0</ele><time>2026-04-20T16:01:50.736Z</time></trkpt><trkpt lat="39.8059067" lon="8.5821483"><ele>7.0</ele><time>2026-04-20T16:01:51.736Z</time></trkpt><trkpt lat="39.8057317" lon="8.5821417"><ele>7.0</ele><time>2026-04-20T16:01:52.736Z</time></trkpt><trkpt lat="39.805565" lon="8.5821383"><ele>7.0</ele><time>2026-04-20T16:01:53.736Z</time></trkpt><trkpt lat="39.8053983" lon="8.5821317"><ele>7.0</ele><time>2026-04-20T16:01:54.736Z</time></trkpt><trkpt lat="39.8052367" lon="8.5821217"><ele>7.0</ele><time>2026-04-20T16:01:55.736Z</time></trkpt><trkpt lat="39.805085" lon="8.5821217"><ele>7.0</ele><time>2026-04-20T16:01:56.736Z</time></trkpt><trkpt lat="39.8049367" lon="8.582125"><ele>7.0</ele><time>2026-04-20T16:01:57.737Z</time></trkpt><trkpt lat="39.8047883" lon="8.5821283"><ele>7.0</ele><time>2026-04-20T16:01:58.736Z</time></trkpt><trkpt lat="39.80465" lon="8.582135"><ele>7.0</ele><time>2026-04-20T16:01:59.736Z</time></trkpt><trkpt lat="39.8045133" lon="8.5821383"><ele>7.0</ele><time>2026-04-20T16:02:00.736Z</time></trkpt><trkpt lat="39.8043833" lon="8.5821367"><ele>6.25</ele><time>2026-04-20T16:02:01.736Z</time></trkpt><trkpt lat="39.8042583" lon="8.58214"><ele>5.5</ele><time>2026-04-20T16:02:02.737Z</time></trkpt><trkpt lat="39.80414" lon="8.5821417"><ele>4.75</ele><time>2026-04-20T16:02:03.736Z</time></trkpt><trkpt lat="39.8040233" lon="8.5821383"><ele>4.0</ele><time>2026-04-20T16:02:04.736Z</time></trkpt><trkpt lat="39.8037917" lon="8.5821417"><ele>4.0</ele><time>2026-04-20T16:02:06.736Z</time></trkpt><trkpt lat="39.803685" lon="8.5821467"><ele>4.0</ele><time>2026-04-20T16:02:07.736Z</time></trkpt><trkpt lat="39.8035883" lon="8.582145"><ele>4.0</ele><time>2026-04-20T16:02:08.736Z</time></trkpt><trkpt lat="39.8034967" lon="8.5821417"><ele>4.0</ele><time>2026-04-20T16:02:09.736Z</time></trkpt><trkpt lat="39.803405" lon="8.5821433"><ele>4.0</ele><time>2026-04-20T16:02:10.736Z</time></trkpt><trkpt lat="39.80331" lon="8.5821483"><ele>3.9999999999999996</ele><time>2026-04-20T16:02:11.736Z</time></trkpt><trkpt lat="39.8032167" lon="8.5821517"><ele>4.0</ele><time>2026-04-20T16:02:12.736Z</time></trkpt><trkpt lat="39.80313" lon="8.5821467"><ele>4.0</ele><time>2026-04-20T16:02:13.736Z</time></trkpt><trkpt lat="39.80305" lon="8.5821433"><ele>4.0</ele><time>2026-04-20T16:02:14.736Z</time></trkpt><trkpt lat="39.8029667" lon="8.5821417"><ele>3.9999999999999996</ele><time>2026-04-20T16:02:15.736Z</time></trkpt><trkpt lat="39.8028767" lon="8.58214"><ele>4.0</ele><time>2026-04-20T16:02:16.736Z</time></trkpt><trkpt lat="39.8027783" lon="8.58214"><ele>4.0</ele><time>2026-04-20T16:02:17.736Z</time></trkpt><trkpt lat="39.8026783" lon="8.5821417"><ele>4.0</ele><time>2026-04-20T16:02:18.737Z</time></trkpt><trkpt lat="39.8025717" lon="8.5821433"><ele>4.0</ele><time>2026-04-20T16:02:19.736Z</time></trkpt><trkpt lat="39.8024667" lon="8.58214"><ele>4.0</ele><time>2026-04-20T16:02:20.737Z</time></trkpt><trkpt lat="39.802365" lon="8.5821433"><ele>4.0</ele><time>2026-04-20T16:02:21.736Z</time></trkpt><trkpt lat="39.8022683" lon="8.5821333"><ele>4.25</ele><time>2026-04-20T16:02:22.736Z</time></trkpt><trkpt lat="39.802165" lon="8.582125"><ele>4.5</ele><time>2026-04-20T16:02:23.736Z</time></trkpt><trkpt lat="39.80206" lon="8.5821383"><ele>4.75</ele><time>2026-04-20T16:02:24.736Z</time></trkpt><trkpt lat="39.8019417" lon="8.5821467"><ele>5.0</ele><time>2026-04-20T16:02:25.736Z</time></trkpt><trkpt lat="39.80168" lon="8.582155"><ele>5.5</ele><time>2026-04-20T16:02:27.736Z</time></trkpt><trkpt lat="39.8015467" lon="8.582155"><ele>6.0</ele><time>2026-04-20T16:02:28.737Z</time></trkpt><trkpt lat="39.8014083" lon="8.5821467"><ele>6.5</ele><time>2026-04-20T16:02:29.737Z</time></trkpt><trkpt lat="39.8012633" lon="8.5821483"><ele>7.0</ele><time>2026-04-20T16:02:30.736Z</time></trkpt><trkpt lat="39.8011117" lon="8.5821517"><ele>6.333333333333334</ele><time>2026-04-20T16:02:31.736Z</time></trkpt><trkpt lat="39.8009617" lon="8.582155"><ele>5.666666666666667</ele><time>2026-04-20T16:02:32.736Z</time></trkpt><trkpt lat="39.8008083" lon="8.5821567"><ele>5.0</ele><time>2026-04-20T16:02:33.736Z</time></trkpt><trkpt lat="39.800655" lon="8.582155"><ele>5.0</ele><time>2026-04-20T16:02:34.737Z</time></trkpt><trkpt lat="39.800505" lon="8.5821533"><ele>5.0</ele><time>2026-04-20T16:02:35.736Z</time></trkpt><trkpt lat="39.8003617" lon="8.5821483"><ele>5.0</ele><time>2026-04-20T16:02:36.737Z</time></trkpt><trkpt lat="39.80021" lon="8.5821517"><ele>5.0</ele><time>2026-04-20T16:02:37.736Z</time></trkpt><trkpt lat="39.8000617" lon="8.5821483"><ele>5.0</ele><time>2026-04-20T16:02:38.736Z</time></trkpt><trkpt lat="39.799905" lon="8.58215"><ele>5.0</ele><time>2026-04-20T16:02:39.736Z</time></trkpt><trkpt lat="39.79975" lon="8.5821533"><ele>5.0</ele><time>2026-04-20T16:02:40.737Z</time></trkpt><trkpt lat="39.79959" lon="8.5821533"><ele>5.0</ele><time>2026-04-20T16:02:41.736Z</time></trkpt><trkpt lat="39.7994317" lon="8.5821583"><ele>5.0</ele><time>2026-04-20T16:02:42.736Z</time></trkpt><trkpt lat="39.7992833" lon="8.5821483"><ele>5.0</ele><time>2026-04-20T16:02:43.736Z</time></trkpt><trkpt lat="39.7991283" lon="8.5821517"><ele>4.666666666666667</ele><time>2026-04-20T16:02:44.736Z</time></trkpt><trkpt lat="39.798975" lon="8.5821533"><ele>4.333333333333333</ele><time>2026-04-20T16:02:45.736Z</time></trkpt><trkpt lat="39.79882" lon="8.5821667"><ele>4.0</ele><time>2026-04-20T16:02:46.736Z</time></trkpt><trkpt lat="39.7985217" lon="8.5821733"><ele>4.666666666666666</ele><time>2026-04-20T16:02:48.736Z</time></trkpt><trkpt lat="39.7983683" lon="8.5821767"><ele>5.333333333333333</ele><time>2026-04-20T16:02:49.736Z</time></trkpt><trkpt lat="39.7982033" lon="8.5821867"><ele>6.0</ele><time>2026-04-20T16:02:50.737Z</time></trkpt><trkpt lat="39.7980483" lon="8.58218"><ele>6.0</ele><time>2026-04-20T16:02:51.736Z</time></trkpt><trkpt lat="39.7978883" lon="8.5821783"><ele>6.0</ele><time>2026-04-20T16:02:52.736Z</time></trkpt><trkpt lat="39.7977283" lon="8.5821767"><ele>6.0</ele><time>2026-04-20T16:02:53.737Z</time></trkpt><trkpt lat="39.7975717" lon="8.5821817"><ele>7.0</ele><time>2026-04-20T16:02:54.736Z</time></trkpt><trkpt lat="39.7974117" lon="8.5821817"><ele>8.0</ele><time>2026-04-20T16:02:55.736Z</time></trkpt><trkpt lat="39.7972517" lon="8.582185"><ele>9.0</ele><time>2026-04-20T16:02:56.736Z</time></trkpt><trkpt lat="39.7970833" lon="8.5821817"><ele>9.0</ele><time>2026-04-20T16:02:57.736Z</time></trkpt><trkpt lat="39.7969117" lon="8.5821783"><ele>9.0</ele><time>2026-04-20T16:02:58.736Z</time></trkpt><trkpt lat="39.7967333" lon="8.5821783"><ele>9.0</ele><time>2026-04-20T16:02:59.736Z</time></trkpt><trkpt lat="39.79656" lon="8.5821833"><ele>9.333333333333334</ele><time>2026-04-20T16:03:00.736Z</time></trkpt><trkpt lat="39.7963867" lon="8.582195"><ele>9.666666666666668</ele><time>2026-04-20T16:03:01.736Z</time></trkpt><trkpt lat="39.79621" lon="8.582195"><ele>10.0</ele><time>2026-04-20T16:03:02.736Z</time></trkpt><trkpt lat="39.7960317" lon="8.5821917"><ele>11.333333333333334</ele><time>2026-04-20T16:03:03.736Z</time></trkpt><trkpt lat="39.7958717" lon="8.582185"><ele>12.666666666666668</ele><time>2026-04-20T16:03:04.736Z</time></trkpt><trkpt lat="39.7956983" lon="8.5821867"><ele>14.0</ele><time>2026-04-20T16:03:05.736Z</time></trkpt><trkpt lat="39.795525" lon="8.5821967"><ele>14.0</ele><time>2026-04-20T16:03:06.736Z</time></trkpt><trkpt lat="39.7953567" lon="8.5822"><ele>14.0</ele><time>2026-04-20T16:03:07.736Z</time></trkpt><trkpt lat="39.795" lon="8.5821867"><ele>14.0</ele><time>2026-04-20T16:03:09.736Z</time></trkpt><trkpt lat="39.7948183" lon="8.5821933"><ele>14.0</ele><time>2026-04-20T16:03:10.736Z</time></trkpt><trkpt lat="39.7946483" lon="8.582205"><ele>14.0</ele><time>2026-04-20T16:03:11.736Z</time></trkpt><trkpt lat="39.7944767" lon="8.58222"><ele>12.666666666666668</ele><time>2026-04-20T16:03:12.736Z</time></trkpt><trkpt lat="39.7942983" lon="8.58222"><ele>11.333333333333334</ele><time>2026-04-20T16:03:13.736Z</time></trkpt><trkpt lat="39.7941133" lon="8.58222"><ele>10.0</ele><time>2026-04-20T16:03:14.736Z</time></trkpt><trkpt lat="39.7939283" lon="8.5822183"><ele>10.0</ele><time>2026-04-20T16:03:15.736Z</time></trkpt><trkpt lat="39.7937383" lon="8.5822117"><ele>10.0</ele><time>2026-04-20T16:03:16.736Z</time></trkpt><trkpt lat="39.7935583" lon="8.5822017"><ele>10.0</ele><time>2026-04-20T16:03:17.736Z</time></trkpt><trkpt lat="39.7933783" lon="8.5821967"><ele>9.333333333333334</ele><time>2026-04-20T16:03:18.736Z</time></trkpt><trkpt lat="39.7931967" lon="8.5822"><ele>8.666666666666666</ele><time>2026-04-20T16:03:19.736Z</time></trkpt><trkpt lat="39.7930133" lon="8.5822017"><ele>8.0</ele><time>2026-04-20T16:03:20.736Z</time></trkpt><trkpt lat="39.79283" lon="8.5822067"><ele>8.0</ele><time>2026-04-20T16:03:21.736Z</time></trkpt><trkpt lat="39.7926483" lon="8.58221"><ele>8.0</ele><time>2026-04-20T16:03:22.736Z</time></trkpt><trkpt lat="39.792465" lon="8.582225"><ele>8.0</ele><time>2026-04-20T16:03:23.736Z</time></trkpt><trkpt lat="39.7922783" lon="8.5822267"><ele>8.0</ele><time>2026-04-20T16:03:24.737Z</time></trkpt><trkpt lat="39.7920967" lon="8.5822267"><ele>8.0</ele><time>2026-04-20T16:03:25.736Z</time></trkpt><trkpt lat="39.7919133" lon="8.582225"><ele>8.0</ele><time>2026-04-20T16:03:26.737Z</time></trkpt><trkpt lat="39.791735" lon="8.582225"><ele>8.0</ele><time>2026-04-20T16:03:27.736Z</time></trkpt><trkpt lat="39.791555" lon="8.5822283"><ele>8.0</ele><time>2026-04-20T16:03:28.736Z</time></trkpt><trkpt lat="39.791185" lon="8.58222"><ele>8.0</ele><time>2026-04-20T16:03:30.736Z</time></trkpt><trkpt lat="39.79099" lon="8.5822233"><ele>8.0</ele><time>2026-04-20T16:03:31.736Z</time></trkpt><trkpt lat="39.7907883" lon="8.5822333"><ele>8.0</ele><time>2026-04-20T16:03:32.736Z</time></trkpt><trkpt lat="39.7905867" lon="8.5822333"><ele>8.0</ele><time>2026-04-20T16:03:33.736Z</time></trkpt><trkpt lat="39.79039" lon="8.5822333"><ele>8.0</ele><time>2026-04-20T16:03:34.736Z</time></trkpt><trkpt lat="39.790205" lon="8.58223"><ele>8.0</ele><time>2026-04-20T16:03:35.736Z</time></trkpt><trkpt lat="39.79001" lon="8.5822317"><ele>8.0</ele><time>2026-04-20T16:03:36.736Z</time></trkpt><trkpt lat="39.7898267" lon="8.5822367"><ele>8.0</ele><time>2026-04-20T16:03:37.736Z</time></trkpt><trkpt lat="39.78964" lon="8.5822367"><ele>8.0</ele><time>2026-04-20T16:03:38.736Z</time></trkpt><trkpt lat="39.789445" lon="8.58224"><ele>8.333333333333332</ele><time>2026-04-20T16:03:39.736Z</time></trkpt><trkpt lat="39.7892533" lon="8.5822417"><ele>8.666666666666666</ele><time>2026-04-20T16:03:40.736Z</time></trkpt><trkpt lat="39.78906" lon="8.58225"><ele>9.0</ele><time>2026-04-20T16:03:41.736Z</time></trkpt><trkpt lat="39.7888667" lon="8.5822483"><ele>9.0</ele><time>2026-04-20T16:03:42.736Z</time></trkpt><trkpt lat="39.7886817" lon="8.58224"><ele>9.0</ele><time>2026-04-20T16:03:43.736Z</time></trkpt><trkpt lat="39.78849" lon="8.5822433"><ele>9.0</ele><time>2026-04-20T16:03:44.736Z</time></trkpt><trkpt lat="39.78831" lon="8.5822517"><ele>9.0</ele><time>2026-04-20T16:03:45.736Z</time></trkpt><trkpt lat="39.7881433" lon="8.58225"><ele>9.0</ele><time>2026-04-20T16:03:46.736Z</time></trkpt><trkpt lat="39.7879817" lon="8.5822467"><ele>9.0</ele><time>2026-04-20T16:03:47.736Z</time></trkpt><trkpt lat="39.7878133" lon="8.582245"><ele>9.5</ele><time>2026-04-20T16:03:48.736Z</time></trkpt><trkpt lat="39.7876417" lon="8.5822483"><ele>10.0</ele><time>2026-04-20T16:03:49.737Z</time></trkpt><trkpt lat="39.7873" lon="8.5822433"><ele>10.0</ele><time>2026-04-20T16:03:51.736Z</time></trkpt><trkpt lat="39.78711" lon="8.582255"><ele>10.0</ele><time>2026-04-20T16:03:52.736Z</time></trkpt><trkpt lat="39.7869217" lon="8.5822617"><ele>10.0</ele><time>2026-04-20T16:03:53.736Z</time></trkpt><trkpt lat="39.786735" lon="8.5822683"><ele>9.666666666666668</ele><time>2026-04-20T16:03:54.736Z</time></trkpt><trkpt lat="39.78656" lon="8.5822583"><ele>9.333333333333334</ele><time>2026-04-20T16:03:55.736Z</time></trkpt><trkpt lat="39.7863717" lon="8.5822567"><ele>9.0</ele><time>2026-04-20T16:03:56.736Z</time></trkpt><trkpt lat="39.78619" lon="8.582265"><ele>9.0</ele><time>2026-04-20T16:03:57.737Z</time></trkpt><trkpt lat="39.7860183" lon="8.5822583"><ele>9.0</ele><time>2026-04-20T16:03:58.736Z</time></trkpt><trkpt lat="39.78584" lon="8.58226"><ele>9.0</ele><time>2026-04-20T16:03:59.736Z</time></trkpt><trkpt lat="39.7856617" lon="8.5822617"><ele>8.0</ele><time>2026-04-20T16:04:00.736Z</time></trkpt><trkpt lat="39.7854817" lon="8.582275"><ele>7.0</ele><time>2026-04-20T16:04:01.736Z</time></trkpt><trkpt lat="39.7852967" lon="8.5822883"><ele>6.0</ele><time>2026-04-20T16:04:02.736Z</time></trkpt><trkpt lat="39.7851283" lon="8.5822917"><ele>6.0</ele><time>2026-04-20T16:04:03.736Z</time></trkpt><trkpt lat="39.78496" lon="8.58229"><ele>6.0</ele><time>2026-04-20T16:04:04.736Z</time></trkpt><trkpt lat="39.7848" lon="8.5822817"><ele>6.0</ele><time>2026-04-20T16:04:05.736Z</time></trkpt><trkpt lat="39.78464" lon="8.5822783"><ele>6.0</ele><time>2026-04-20T16:04:06.736Z</time></trkpt><trkpt lat="39.78447" lon="8.5822783"><ele>6.0</ele><time>2026-04-20T16:04:07.736Z</time></trkpt><trkpt lat="39.7842983" lon="8.58228"><ele>6.0</ele><time>2026-04-20T16:04:08.736Z</time></trkpt><trkpt lat="39.7841267" lon="8.582285"><ele>6.0</ele><time>2026-04-20T16:04:09.736Z</time></trkpt><trkpt lat="39.7839583" lon="8.5822917"><ele>6.0</ele><time>2026-04-20T16:04:10.737Z</time></trkpt><trkpt lat="39.783615" lon="8.5822933"><ele>6.333333333333334</ele><time>2026-04-20T16:04:12.736Z</time></trkpt><trkpt lat="39.7834433" lon="8.5822833"><ele>6.666666666666667</ele><time>2026-04-20T16:04:13.736Z</time></trkpt><trkpt lat="39.7832717" lon="8.5822817"><ele>7.0</ele><time>2026-04-20T16:04:14.737Z</time></trkpt><trkpt lat="39.7831033" lon="8.5822867"><ele>7.0</ele><time>2026-04-20T16:04:15.736Z</time></trkpt><trkpt lat="39.78294" lon="8.582285"><ele>7.0</ele><time>2026-04-20T16:04:16.736Z</time></trkpt><trkpt lat="39.7827717" lon="8.58228"><ele>7.0</ele><time>2026-04-20T16:04:17.736Z</time></trkpt><trkpt lat="39.78261" lon="8.5822767"><ele>7.0</ele><time>2026-04-20T16:04:18.736Z</time></trkpt><trkpt lat="39.7824483" lon="8.5822783"><ele>7.0</ele><time>2026-04-20T16:04:19.736Z</time></trkpt><trkpt lat="39.7822833" lon="8.5822733"><ele>7.0</ele><time>2026-04-20T16:04:20.736Z</time></trkpt><trkpt lat="39.78212" lon="8.582275"><ele>7.0</ele><time>2026-04-20T16:04:21.736Z</time></trkpt><trkpt lat="39.7819567" lon="8.582275"><ele>7.0</ele><time>2026-04-20T16:04:22.736Z</time></trkpt><trkpt lat="39.7817867" lon="8.582285"><ele>7.0</ele><time>2026-04-20T16:04:23.736Z</time></trkpt><trkpt lat="39.7816233" lon="8.5822917"><ele>7.666666666666667</ele><time>2026-04-20T16:04:24.736Z</time></trkpt><trkpt lat="39.781465" lon="8.5822933"><ele>8.333333333333334</ele><time>2026-04-20T16:04:25.736Z</time></trkpt><trkpt lat="39.78131" lon="8.582295"><ele>9.0</ele><time>2026-04-20T16:04:26.736Z</time></trkpt><trkpt lat="39.781145" lon="8.582305"><ele>8.666666666666666</ele><time>2026-04-20T16:04:27.736Z</time></trkpt><trkpt lat="39.7809967" lon="8.5822983"><ele>8.333333333333332</ele><time>2026-04-20T16:04:28.736Z</time></trkpt><trkpt lat="39.7808433" lon="8.5822967"><ele>8.0</ele><time>2026-04-20T16:04:29.736Z</time></trkpt><trkpt lat="39.78069" lon="8.5823067"><ele>8.0</ele><time>2026-04-20T16:04:30.736Z</time></trkpt><trkpt lat="39.780535" lon="8.5823117"><ele>8.0</ele><time>2026-04-20T16:04:31.736Z</time></trkpt><trkpt lat="39.780225" lon="8.5822967"><ele>8.333333333333332</ele><time>2026-04-20T16:04:33.737Z</time></trkpt><trkpt lat="39.7800717" lon="8.5822983"><ele>8.666666666666666</ele><time>2026-04-20T16:04:34.736Z</time></trkpt><trkpt lat="39.7799133" lon="8.5822933"><ele>9.0</ele><time>2026-04-20T16:04:35.736Z</time></trkpt><trkpt lat="39.7797467" lon="8.5822917"><ele>9.0</ele><time>2026-04-20T16:04:36.736Z</time></trkpt><trkpt lat="39.77958" lon="8.5822967"><ele>9.0</ele><time>2026-04-20T16:04:37.737Z</time></trkpt><trkpt lat="39.7794167" lon="8.5823"><ele>9.0</ele><time>2026-04-20T16:04:38.736Z</time></trkpt><trkpt lat="39.7792533" lon="8.5822983"><ele>9.333333333333334</ele><time>2026-04-20T16:04:39.736Z</time></trkpt><trkpt lat="39.779085" lon="8.582305"><ele>9.666666666666668</ele><time>2026-04-20T16:04:40.736Z</time></trkpt><trkpt lat="39.7789217" lon="8.5823033"><ele>10.0</ele><time>2026-04-20T16:04:41.737Z</time></trkpt><trkpt lat="39.77876" lon="8.5823033"><ele>10.0</ele><time>2026-04-20T16:04:42.736Z</time></trkpt><trkpt lat="39.7785967" lon="8.5823067"><ele>10.0</ele><time>2026-04-20T16:04:43.736Z</time></trkpt><trkpt lat="39.7784417" lon="8.5823033"><ele>10.0</ele><time>2026-04-20T16:04:44.737Z</time></trkpt><trkpt lat="39.7782933" lon="8.582305"><ele>10.5</ele><time>2026-04-20T16:04:45.736Z</time></trkpt><trkpt lat="39.7781433" lon="8.5823033"><ele>11.0</ele><time>2026-04-20T16:04:46.736Z</time></trkpt><trkpt lat="39.778005" lon="8.582305"><ele>11.5</ele><time>2026-04-20T16:04:47.736Z</time></trkpt><trkpt lat="39.7778767" lon="8.5823017"><ele>12.0</ele><time>2026-04-20T16:04:48.736Z</time></trkpt><trkpt lat="39.7777567" lon="8.5823017"><ele>11.6</ele><time>2026-04-20T16:04:49.736Z</time></trkpt><trkpt lat="39.7776517" lon="8.5823"><ele>11.2</ele><time>2026-04-20T16:04:50.737Z</time></trkpt><trkpt lat="39.77756" lon="8.5823"><ele>10.8</ele><time>2026-04-20T16:04:51.736Z</time></trkpt><trkpt lat="39.777475" lon="8.5823"><ele>10.4</ele><time>2026-04-20T16:04:52.736Z</time></trkpt><trkpt lat="39.7773083" lon="8.5823083"><ele>10.0</ele><time>2026-04-20T16:04:54.736Z</time></trkpt><trkpt lat="39.777225" lon="8.5823117"><ele>10.0</ele><time>2026-04-20T16:04:55.736Z</time></trkpt><trkpt lat="39.7771367" lon="8.58231"><ele>10.0</ele><time>2026-04-20T16:04:56.736Z</time></trkpt><trkpt lat="39.7770483" lon="8.58231"><ele>10.0</ele><time>2026-04-20T16:04:57.736Z</time></trkpt><trkpt lat="39.7769617" lon="8.5823117"><ele>10.0</ele><time>2026-04-20T16:04:58.736Z</time></trkpt><trkpt lat="39.7768733" lon="8.5823133"><ele>10.0</ele><time>2026-04-20T16:04:59.736Z</time></trkpt><trkpt lat="39.7767917" lon="8.582315"><ele>10.0</ele><time>2026-04-20T16:05:00.736Z</time></trkpt><trkpt lat="39.77671" lon="8.582315"><ele>10.333333333333334</ele><time>2026-04-20T16:05:01.736Z</time></trkpt><trkpt lat="39.7766383" lon="8.5823183"><ele>10.666666666666668</ele><time>2026-04-20T16:05:02.736Z</time></trkpt><trkpt lat="39.7765667" lon="8.5823233"><ele>11.0</ele><time>2026-04-20T16:05:03.736Z</time></trkpt><trkpt lat="39.7765017" lon="8.5823233"><ele>11.333333333333334</ele><time>2026-04-20T16:05:04.736Z</time></trkpt><trkpt lat="39.7763933" lon="8.582325"><ele>11.666666666666666</ele><time>2026-04-20T16:05:06.736Z</time></trkpt><trkpt lat="39.7763133" lon="8.58232"><ele>12.0</ele><time>2026-04-20T16:05:08.736Z</time></trkpt><trkpt lat="39.7762483" lon="8.58233"><ele>12.0</ele><time>2026-04-20T16:05:10.736Z</time></trkpt><trkpt lat="39.7761633" lon="8.5823217"><ele>12.0</ele><time>2026-04-20T16:05:14.736Z</time></trkpt><trkpt lat="39.77596" lon="8.5823467"><ele>12.0</ele><time>2026-04-20T16:05:18.736Z</time></trkpt><trkpt lat="39.77588" lon="8.5823517"><ele>12.0</ele><time>2026-04-20T16:05:19.736Z</time></trkpt><trkpt lat="39.7757967" lon="8.58235"><ele>11.8</ele><time>2026-04-20T16:05:20.736Z</time></trkpt><trkpt lat="39.7757133" lon="8.5823517"><ele>11.6</ele><time>2026-04-20T16:05:21.736Z</time></trkpt><trkpt lat="39.7756267" lon="8.582355"><ele>11.4</ele><time>2026-04-20T16:05:22.736Z</time></trkpt><trkpt lat="39.77553" lon="8.582355"><ele>11.200000000000001</ele><time>2026-04-20T16:05:23.736Z</time></trkpt><trkpt lat="39.7754333" lon="8.5823433"><ele>11.0</ele><time>2026-04-20T16:05:24.736Z</time></trkpt><trkpt lat="39.7753417" lon="8.5823333"><ele>11.0</ele><time>2026-04-20T16:05:25.736Z</time></trkpt><trkpt lat="39.7752517" lon="8.5823333"><ele>11.0</ele><time>2026-04-20T16:05:26.736Z</time></trkpt><trkpt lat="39.7751717" lon="8.5823367"><ele>11.0</ele><time>2026-04-20T16:05:27.737Z</time></trkpt><trkpt lat="39.7750817" lon="8.5823467"><ele>11.0</ele><time>2026-04-20T16:05:28.736Z</time></trkpt><trkpt lat="39.77499" lon="8.58234"><ele>11.0</ele><time>2026-04-20T16:05:29.736Z</time></trkpt><trkpt lat="39.7748917" lon="8.5823383"><ele>10.833333333333332</ele><time>2026-04-20T16:05:30.736Z</time></trkpt><trkpt lat="39.7747983" lon="8.5823317"><ele>10.666666666666666</ele><time>2026-04-20T16:05:31.736Z</time></trkpt><trkpt lat="39.7747083" lon="8.5823283"><ele>10.5</ele><time>2026-04-20T16:05:32.736Z</time></trkpt><trkpt lat="39.774625" lon="8.582335"><ele>10.333333333333334</ele><time>2026-04-20T16:05:33.736Z</time></trkpt><trkpt lat="39.77454" lon="8.5823333"><ele>10.166666666666668</ele><time>2026-04-20T16:05:34.736Z</time></trkpt><trkpt lat="39.774455" lon="8.5823283"><ele>10.0</ele><time>2026-04-20T16:05:35.736Z</time></trkpt><trkpt lat="39.7742467" lon="8.5823133"><ele>10.5</ele><time>2026-04-20T16:05:37.736Z</time></trkpt><trkpt lat="39.774135" lon="8.5823233"><ele>11.0</ele><time>2026-04-20T16:05:38.736Z</time></trkpt><trkpt lat="39.7740167" lon="8.582335"><ele>11.5</ele><time>2026-04-20T16:05:39.736Z</time></trkpt><trkpt lat="39.7738933" lon="8.5823333"><ele>12.0</ele><time>2026-04-20T16:05:40.736Z</time></trkpt><trkpt lat="39.773755" lon="8.5823433"><ele>12.0</ele><time>2026-04-20T16:05:41.736Z</time></trkpt><trkpt lat="39.77363" lon="8.582345"><ele>12.0</ele><time>2026-04-20T16:05:42.736Z</time></trkpt><trkpt lat="39.7735067" lon="8.5823567"><ele>12.0</ele><time>2026-04-20T16:05:43.736Z</time></trkpt><trkpt lat="39.7733833" lon="8.5823567"><ele>12.0</ele><time>2026-04-20T16:05:44.736Z</time></trkpt><trkpt lat="39.77326" lon="8.5823617"><ele>11.5</ele><time>2026-04-20T16:05:45.736Z</time></trkpt><trkpt lat="39.773145" lon="8.5823633"><ele>11.0</ele><time>2026-04-20T16:05:46.736Z</time></trkpt><trkpt lat="39.7730283" lon="8.58236"><ele>10.5</ele><time>2026-04-20T16:05:47.736Z</time></trkpt><trkpt lat="39.77291" lon="8.582365"><ele>10.0</ele><time>2026-04-20T16:05:48.736Z</time></trkpt><trkpt lat="39.7727933" lon="8.5823617"><ele>9.8</ele><time>2026-04-20T16:05:49.736Z</time></trkpt><trkpt lat="39.7726817" lon="8.5823567"><ele>9.6</ele><time>2026-04-20T16:05:50.736Z</time></trkpt><trkpt lat="39.772575" lon="8.5823617"><ele>9.4</ele><time>2026-04-20T16:05:51.736Z</time></trkpt><trkpt lat="39.7724717" lon="8.582365"><ele>9.2</ele><time>2026-04-20T16:05:52.736Z</time></trkpt><trkpt lat="39.77237" lon="8.582365"><ele>9.0</ele><time>2026-04-20T16:05:53.736Z</time></trkpt><trkpt lat="39.7722617" lon="8.5823617"><ele>9.0</ele><time>2026-04-20T16:05:54.737Z</time></trkpt><trkpt lat="39.7721433" lon="8.582375"><ele>9.0</ele><time>2026-04-20T16:05:55.736Z</time></trkpt><trkpt lat="39.77202" lon="8.5823683"><ele>9.0</ele><time>2026-04-20T16:05:56.736Z</time></trkpt><trkpt lat="39.77176" lon="8.5823767"><ele>9.0</ele><time>2026-04-20T16:05:58.736Z</time></trkpt><trkpt lat="39.7716283" lon="8.5823733"><ele>9.0</ele><time>2026-04-20T16:05:59.736Z</time></trkpt><trkpt lat="39.7714917" lon="8.5823683"><ele>9.0</ele><time>2026-04-20T16:06:00.736Z</time></trkpt><trkpt lat="39.7713517" lon="8.5823717"><ele>9.0</ele><time>2026-04-20T16:06:01.736Z</time></trkpt><trkpt lat="39.77122" lon="8.5823717"><ele>9.0</ele><time>2026-04-20T16:06:02.736Z</time></trkpt><trkpt lat="39.77108" lon="8.5823733"><ele>9.0</ele><time>2026-04-20T16:06:03.736Z</time></trkpt><trkpt lat="39.77094" lon="8.582375"><ele>9.0</ele><time>2026-04-20T16:06:04.736Z</time></trkpt><trkpt lat="39.7708033" lon="8.5823767"><ele>9.0</ele><time>2026-04-20T16:06:05.736Z</time></trkpt><trkpt lat="39.7706667" lon="8.5823817"><ele>9.25</ele><time>2026-04-20T16:06:06.737Z</time></trkpt><trkpt lat="39.7705317" lon="8.582385"><ele>9.5</ele><time>2026-04-20T16:06:07.736Z</time></trkpt><trkpt lat="39.7703917" lon="8.58239"><ele>9.75</ele><time>2026-04-20T16:06:08.737Z</time></trkpt><trkpt lat="39.7702467" lon="8.58239"><ele>10.0</ele><time>2026-04-20T16:06:09.736Z</time></trkpt><trkpt lat="39.77009" lon="8.5823883"><ele>10.333333333333334</ele><time>2026-04-20T16:06:10.736Z</time></trkpt><trkpt lat="39.7699333" lon="8.5823883"><ele>10.666666666666666</ele><time>2026-04-20T16:06:11.736Z</time></trkpt><trkpt lat="39.76978" lon="8.5823917"><ele>11.0</ele><time>2026-04-20T16:06:12.736Z</time></trkpt><trkpt lat="39.7696217" lon="8.582385"><ele>11.0</ele><time>2026-04-20T16:06:13.736Z</time></trkpt><trkpt lat="39.7694633" lon="8.5823833"><ele>11.0</ele><time>2026-04-20T16:06:14.736Z</time></trkpt><trkpt lat="39.769305" lon="8.582385"><ele>11.0</ele><time>2026-04-20T16:06:15.736Z</time></trkpt><trkpt lat="39.7691533" lon="8.5823817"><ele>11.0</ele><time>2026-04-20T16:06:16.736Z</time></trkpt><trkpt lat="39.7689983" lon="8.5823817"><ele>11.0</ele><time>2026-04-20T16:06:17.736Z</time></trkpt><trkpt lat="39.7686883" lon="8.582375"><ele>11.0</ele><time>2026-04-20T16:06:19.736Z</time></trkpt><trkpt lat="39.768535" lon="8.5823817"><ele>11.0</ele><time>2026-04-20T16:06:20.736Z</time></trkpt><trkpt lat="39.7683767" lon="8.582385"><ele>11.0</ele><time>2026-04-20T16:06:21.736Z</time></trkpt><trkpt lat="39.7682117" lon="8.5823833"><ele>11.333333333333332</ele><time>2026-04-20T16:06:22.736Z</time></trkpt><trkpt lat="39.76805" lon="8.5823883"><ele>11.666666666666666</ele><time>2026-04-20T16:06:23.736Z</time></trkpt><trkpt lat="39.7678833" lon="8.5823883"><ele>12.0</ele><time>2026-04-20T16:06:24.736Z</time></trkpt><trkpt lat="39.7677117" lon="8.5823917"><ele>11.666666666666666</ele><time>2026-04-20T16:06:25.736Z</time></trkpt><trkpt lat="39.7675417" lon="8.5823883"><ele>11.333333333333332</ele><time>2026-04-20T16:06:26.736Z</time></trkpt><trkpt lat="39.767365" lon="8.582395"><ele>11.0</ele><time>2026-04-20T16:06:27.737Z</time></trkpt><trkpt lat="39.7671967" lon="8.5824"><ele>11.0</ele><time>2026-04-20T16:06:28.736Z</time></trkpt><trkpt lat="39.7670283" lon="8.5824"><ele>11.0</ele><time>2026-04-20T16:06:29.737Z</time></trkpt><trkpt lat="39.7668617" lon="8.582405"><ele>11.0</ele><time>2026-04-20T16:06:30.736Z</time></trkpt><trkpt lat="39.7667017" lon="8.5824017"><ele>10.666666666666666</ele><time>2026-04-20T16:06:31.736Z</time></trkpt><trkpt lat="39.766545" lon="8.5824017"><ele>10.333333333333334</ele><time>2026-04-20T16:06:32.736Z</time></trkpt><trkpt lat="39.7663883" lon="8.5824017"><ele>10.0</ele><time>2026-04-20T16:06:33.736Z</time></trkpt><trkpt lat="39.76623" lon="8.5824133"><ele>10.0</ele><time>2026-04-20T16:06:34.736Z</time></trkpt><trkpt lat="39.7660733" lon="8.5824167"><ele>10.0</ele><time>2026-04-20T16:06:35.736Z</time></trkpt><trkpt lat="39.7659033" lon="8.5824083"><ele>10.0</ele><time>2026-04-20T16:06:36.736Z</time></trkpt><trkpt lat="39.765745" lon="8.58241"><ele>10.0</ele><time>2026-04-20T16:06:37.736Z</time></trkpt><trkpt lat="39.7655817" lon="8.5824217"><ele>10.0</ele><time>2026-04-20T16:06:38.736Z</time></trkpt><trkpt lat="39.76525" lon="8.582425"><ele>10.666666666666668</ele><time>2026-04-20T16:06:40.736Z</time></trkpt><trkpt lat="39.7650817" lon="8.58242"><ele>11.333333333333334</ele><time>2026-04-20T16:06:41.736Z</time></trkpt><trkpt lat="39.7649133" lon="8.5824217"><ele>12.0</ele><time>2026-04-20T16:06:42.736Z</time></trkpt><trkpt lat="39.7647433" lon="8.5824233"><ele>12.0</ele><time>2026-04-20T16:06:43.737Z</time></trkpt><trkpt lat="39.7645783" lon="8.5824217"><ele>12.0</ele><time>2026-04-20T16:06:44.737Z</time></trkpt><trkpt lat="39.7644017" lon="8.5824283"><ele>12.0</ele><time>2026-04-20T16:06:45.736Z</time></trkpt><trkpt lat="39.7642283" lon="8.5824283"><ele>11.333333333333334</ele><time>2026-04-20T16:06:46.736Z</time></trkpt><trkpt lat="39.7640567" lon="8.582425"><ele>10.666666666666668</ele><time>2026-04-20T16:06:47.736Z</time></trkpt><trkpt lat="39.7638817" lon="8.5824267"><ele>10.0</ele><time>2026-04-20T16:06:48.736Z</time></trkpt><trkpt lat="39.7637083" lon="8.582435"><ele>10.0</ele><time>2026-04-20T16:06:49.736Z</time></trkpt><trkpt lat="39.7635383" lon="8.5824333"><ele>10.0</ele><time>2026-04-20T16:06:50.736Z</time></trkpt><trkpt lat="39.7633617" lon="8.5824333"><ele>10.0</ele><time>2026-04-20T16:06:51.736Z</time></trkpt><trkpt lat="39.7631833" lon="8.5824283"><ele>9.333333333333334</ele><time>2026-04-20T16:06:52.736Z</time></trkpt><trkpt lat="39.7630017" lon="8.5824283"><ele>8.666666666666666</ele><time>2026-04-20T16:06:53.736Z</time></trkpt><trkpt lat="39.7628117" lon="8.5824317"><ele>8.0</ele><time>2026-04-20T16:06:54.736Z</time></trkpt><trkpt lat="39.7626233" lon="8.5824333"><ele>7.666666666666666</ele><time>2026-04-20T16:06:55.736Z</time></trkpt><trkpt lat="39.7624317" lon="8.5824333"><ele>7.333333333333334</ele><time>2026-04-20T16:06:56.736Z</time></trkpt><trkpt lat="39.762235" lon="8.58244"><ele>7.0</ele><time>2026-04-20T16:06:57.736Z</time></trkpt><trkpt lat="39.762045" lon="8.582445"><ele>7.5</ele><time>2026-04-20T16:06:58.736Z</time></trkpt><trkpt lat="39.761855" lon="8.5824483"><ele>8.0</ele><time>2026-04-20T16:06:59.736Z</time></trkpt><trkpt lat="39.7614733" lon="8.5824583"><ele>8.0</ele><time>2026-04-20T16:07:01.736Z</time></trkpt><trkpt lat="39.7612933" lon="8.5824617"><ele>8.0</ele><time>2026-04-20T16:07:02.736Z</time></trkpt><trkpt lat="39.7611083" lon="8.582455"><ele>8.0</ele><time>2026-04-20T16:07:03.736Z</time></trkpt><trkpt lat="39.7609233" lon="8.5824567"><ele>8.0</ele><time>2026-04-20T16:07:04.736Z</time></trkpt><trkpt lat="39.7607317" lon="8.5824533"><ele>8.0</ele><time>2026-04-20T16:07:05.736Z</time></trkpt><trkpt lat="39.7605417" lon="8.58245"><ele>8.0</ele><time>2026-04-20T16:07:06.736Z</time></trkpt><trkpt lat="39.76035" lon="8.5824583"><ele>9.0</ele><time>2026-04-20T16:07:07.736Z</time></trkpt><trkpt lat="39.7601733" lon="8.5824717"><ele>10.0</ele><time>2026-04-20T16:07:08.736Z</time></trkpt><trkpt lat="39.7600017" lon="8.582475"><ele>11.0</ele><time>2026-04-20T16:07:09.736Z</time></trkpt><trkpt lat="39.7598333" lon="8.5824817"><ele>11.0</ele><time>2026-04-20T16:07:10.737Z</time></trkpt><trkpt lat="39.75967" lon="8.5824833"><ele>11.0</ele><time>2026-04-20T16:07:11.736Z</time></trkpt><trkpt lat="39.7595067" lon="8.5824867"><ele>11.0</ele><time>2026-04-20T16:07:12.736Z</time></trkpt><trkpt lat="39.7593483" lon="8.5824783"><ele>10.333333333333332</ele><time>2026-04-20T16:07:13.737Z</time></trkpt><trkpt lat="39.7591783" lon="8.5824833"><ele>9.666666666666666</ele><time>2026-04-20T16:07:14.736Z</time></trkpt><trkpt lat="39.7590117" lon="8.5824817"><ele>9.0</ele><time>2026-04-20T16:07:15.736Z</time></trkpt><trkpt lat="39.75885" lon="8.5824683"><ele>9.0</ele><time>2026-04-20T16:07:16.736Z</time></trkpt><trkpt lat="39.758695" lon="8.5824867"><ele>9.0</ele><time>2026-04-20T16:07:17.736Z</time></trkpt><trkpt lat="39.7585517" lon="8.5824983"><ele>9.0</ele><time>2026-04-20T16:07:18.736Z</time></trkpt><trkpt lat="39.758425" lon="8.58249"><ele>9.0</ele><time>2026-04-20T16:07:19.736Z</time></trkpt><trkpt lat="39.7583117" lon="8.58248"><ele>9.0</ele><time>2026-04-20T16:07:20.737Z</time></trkpt><trkpt lat="39.758075" lon="8.5824833"><ele>9.0</ele><time>2026-04-20T16:07:22.737Z</time></trkpt><trkpt lat="39.7579467" lon="8.5824667"><ele>9.0</ele><time>2026-04-20T16:07:23.736Z</time></trkpt><trkpt lat="39.757825" lon="8.5824433"><ele>9.0</ele><time>2026-04-20T16:07:24.736Z</time></trkpt><trkpt lat="39.7576967" lon="8.5823967"><ele>9.0</ele><time>2026-04-20T16:07:25.736Z</time></trkpt><trkpt lat="39.7575833" lon="8.5823283"><ele>9.0</ele><time>2026-04-20T16:07:26.736Z</time></trkpt><trkpt lat="39.75747" lon="8.5822533"><ele>9.0</ele><time>2026-04-20T16:07:27.736Z</time></trkpt><trkpt lat="39.7573667" lon="8.5822067"><ele>9.0</ele><time>2026-04-20T16:07:28.737Z</time></trkpt><trkpt lat="39.7572617" lon="8.58222"><ele>9.0</ele><time>2026-04-20T16:07:29.737Z</time></trkpt><trkpt lat="39.7571517" lon="8.5822833"><ele>9.0</ele><time>2026-04-20T16:07:30.736Z</time></trkpt><trkpt lat="39.7570567" lon="8.582365"><ele>9.0</ele><time>2026-04-20T16:07:31.736Z</time></trkpt><trkpt lat="39.7569567" lon="8.5824333"><ele>9.0</ele><time>2026-04-20T16:07:32.736Z</time></trkpt><trkpt lat="39.7568333" lon="8.5824717"><ele>9.0</ele><time>2026-04-20T16:07:33.736Z</time></trkpt><trkpt lat="39.7567" lon="8.5824833"><ele>9.0</ele><time>2026-04-20T16:07:34.736Z</time></trkpt><trkpt lat="39.7565517" lon="8.5824867"><ele>9.0</ele><time>2026-04-20T16:07:35.736Z</time></trkpt><trkpt lat="39.7564033" lon="8.5824917"><ele>9.0</ele><time>2026-04-20T16:07:36.736Z</time></trkpt><trkpt lat="39.7562683" lon="8.582485"><ele>9.0</ele><time>2026-04-20T16:07:37.736Z</time></trkpt><trkpt lat="39.7561283" lon="8.58248"><ele>9.0</ele><time>2026-04-20T16:07:38.737Z</time></trkpt><trkpt lat="39.75597" lon="8.5824833"><ele>9.0</ele><time>2026-04-20T16:07:39.736Z</time></trkpt><trkpt lat="39.7558133" lon="8.5824833"><ele>9.0</ele><time>2026-04-20T16:07:40.736Z</time></trkpt><trkpt lat="39.7556567" lon="8.58248"><ele>9.0</ele><time>2026-04-20T16:07:41.736Z</time></trkpt><trkpt lat="39.7553317" lon="8.5824783"><ele>9.0</ele><time>2026-04-20T16:07:43.736Z</time></trkpt><trkpt lat="39.7551767" lon="8.58248"><ele>9.0</ele><time>2026-04-20T16:07:44.736Z</time></trkpt><trkpt lat="39.755015" lon="8.582475"><ele>9.0</ele><time>2026-04-20T16:07:45.736Z</time></trkpt><trkpt lat="39.7548483" lon="8.5824783"><ele>9.0</ele><time>2026-04-20T16:07:46.736Z</time></trkpt><trkpt lat="39.7546783" lon="8.5824767"><ele>9.0</ele><time>2026-04-20T16:07:47.736Z</time></trkpt><trkpt lat="39.75451" lon="8.5824767"><ele>9.0</ele><time>2026-04-20T16:07:48.736Z</time></trkpt><trkpt lat="39.7543417" lon="8.5824783"><ele>9.333333333333334</ele><time>2026-04-20T16:07:49.736Z</time></trkpt><trkpt lat="39.7541667" lon="8.5824783"><ele>9.666666666666668</ele><time>2026-04-20T16:07:50.736Z</time></trkpt><trkpt lat="39.7539867" lon="8.5824733"><ele>10.0</ele><time>2026-04-20T16:07:51.737Z</time></trkpt><trkpt lat="39.753795" lon="8.5824867"><ele>10.0</ele><time>2026-04-20T16:07:52.736Z</time></trkpt><trkpt lat="39.7536083" lon="8.5824883"><ele>10.0</ele><time>2026-04-20T16:07:53.736Z</time></trkpt><trkpt lat="39.7534217" lon="8.5824933"><ele>10.0</ele><time>2026-04-20T16:07:54.736Z</time></trkpt><trkpt lat="39.7532433" lon="8.5824967"><ele>10.0</ele><time>2026-04-20T16:07:55.736Z</time></trkpt><trkpt lat="39.753075" lon="8.5825"><ele>10.0</ele><time>2026-04-20T16:07:56.736Z</time></trkpt><trkpt lat="39.75291" lon="8.5825017"><ele>10.0</ele><time>2026-04-20T16:07:57.736Z</time></trkpt><trkpt lat="39.7527417" lon="8.582505"><ele>10.0</ele><time>2026-04-20T16:07:58.736Z</time></trkpt><trkpt lat="39.752575" lon="8.5825167"><ele>10.0</ele><time>2026-04-20T16:07:59.736Z</time></trkpt><trkpt lat="39.7524017" lon="8.5825217"><ele>10.0</ele><time>2026-04-20T16:08:00.736Z</time></trkpt><trkpt lat="39.75223" lon="8.5825267"><ele>10.0</ele><time>2026-04-20T16:08:01.736Z</time></trkpt><trkpt lat="39.7520583" lon="8.5825417"><ele>10.0</ele><time>2026-04-20T16:08:02.736Z</time></trkpt><trkpt lat="39.7517383" lon="8.5825267"><ele>9.333333333333334</ele><time>2026-04-20T16:08:04.736Z</time></trkpt><trkpt lat="39.75158" lon="8.5825233"><ele>8.666666666666666</ele><time>2026-04-20T16:08:05.736Z</time></trkpt><trkpt lat="39.7514117" lon="8.5825283"><ele>8.0</ele><time>2026-04-20T16:08:06.736Z</time></trkpt><trkpt lat="39.751245" lon="8.5825367"><ele>8.0</ele><time>2026-04-20T16:08:07.736Z</time></trkpt><trkpt lat="39.75109" lon="8.5825417"><ele>8.0</ele><time>2026-04-20T16:08:08.736Z</time></trkpt><trkpt lat="39.7509383" lon="8.5825483"><ele>8.0</ele><time>2026-04-20T16:08:09.736Z</time></trkpt><trkpt lat="39.7507833" lon="8.58256"><ele>8.0</ele><time>2026-04-20T16:08:10.736Z</time></trkpt><trkpt lat="39.7506367" lon="8.5825617"><ele>8.0</ele><time>2026-04-20T16:08:11.736Z</time></trkpt><trkpt lat="39.7505067" lon="8.5825517"><ele>8.0</ele><time>2026-04-20T16:08:12.736Z</time></trkpt><trkpt lat="39.7503833" lon="8.582545"><ele>8.0</ele><time>2026-04-20T16:08:13.736Z</time></trkpt><trkpt lat="39.750275" lon="8.5825467"><ele>7.999999999999999</ele><time>2026-04-20T16:08:14.736Z</time></trkpt><trkpt lat="39.75018" lon="8.5825367"><ele>8.0</ele><time>2026-04-20T16:08:15.737Z</time></trkpt><trkpt lat="39.750095" lon="8.58249"><ele>8.0</ele><time>2026-04-20T16:08:16.736Z</time></trkpt><trkpt lat="39.75001" lon="8.5824533"><ele>8.0</ele><time>2026-04-20T16:08:17.736Z</time></trkpt><trkpt lat="39.7499367" lon="8.5824417"><ele>7.999999999999999</ele><time>2026-04-20T16:08:18.736Z</time></trkpt><trkpt lat="39.7498717" lon="8.5824633"><ele>8.0</ele><time>2026-04-20T16:08:19.736Z</time></trkpt><trkpt lat="39.7498367" lon="8.5826117"><ele>8.0</ele><time>2026-04-20T16:08:21.737Z</time></trkpt><trkpt lat="39.74987" lon="8.5827083"><ele>8.0</ele><time>2026-04-20T16:08:22.736Z</time></trkpt><trkpt lat="39.7499083" lon="8.5828067"><ele>8.0</ele><time>2026-04-20T16:08:23.736Z</time></trkpt><trkpt lat="39.7499667" lon="8.583065"><ele>8.0</ele><time>2026-04-20T16:08:25.736Z</time></trkpt><trkpt lat="39.749965" lon="8.58322"><ele>8.0</ele><time>2026-04-20T16:08:26.736Z</time></trkpt><trkpt lat="39.7499633" lon="8.5833883"><ele>8.0</ele><time>2026-04-20T16:08:27.736Z</time></trkpt><trkpt lat="39.74996" lon="8.583565"><ele>8.0</ele><time>2026-04-20T16:08:28.737Z</time></trkpt><trkpt lat="39.7499517" lon="8.5837467"><ele>8.0</ele><time>2026-04-20T16:08:29.737Z</time></trkpt><trkpt lat="39.7499517" lon="8.583935"><ele>8.0</ele><time>2026-04-20T16:08:30.736Z</time></trkpt><trkpt lat="39.7499567" lon="8.5841283"><ele>8.0</ele><time>2026-04-20T16:08:31.736Z</time></trkpt><trkpt lat="39.7499617" lon="8.5843233"><ele>8.0</ele><time>2026-04-20T16:08:32.736Z</time></trkpt><trkpt lat="39.7499667" lon="8.584525"><ele>8.0</ele><time>2026-04-20T16:08:33.736Z</time></trkpt><trkpt lat="39.7499683" lon="8.584725"><ele>8.0</ele><time>2026-04-20T16:08:34.736Z</time></trkpt><trkpt lat="39.7499683" lon="8.5849317"><ele>8.0</ele><time>2026-04-20T16:08:35.736Z</time></trkpt><trkpt lat="39.7499667" lon="8.5851367"><ele>7.666666666666666</ele><time>2026-04-20T16:08:36.736Z</time></trkpt><trkpt lat="39.74997" lon="8.5853517"><ele>7.333333333333334</ele><time>2026-04-20T16:08:37.737Z</time></trkpt><trkpt lat="39.74997" lon="8.58557"><ele>7.0</ele><time>2026-04-20T16:08:38.736Z</time></trkpt><trkpt lat="39.7499733" lon="8.58579"><ele>7.0</ele><time>2026-04-20T16:08:39.736Z</time></trkpt><trkpt lat="39.749975" lon="8.5860167"><ele>7.0</ele><time>2026-04-20T16:08:40.736Z</time></trkpt><trkpt lat="39.7499733" lon="8.5862333"><ele>7.0</ele><time>2026-04-20T16:08:41.736Z</time></trkpt><trkpt lat="39.749975" lon="8.5864583"><ele>7.0</ele><time>2026-04-20T16:08:42.736Z</time></trkpt><trkpt lat="39.7499783" lon="8.586685"><ele>7.0</ele><time>2026-04-20T16:08:43.736Z</time></trkpt><trkpt lat="39.7499683" lon="8.5869233"><ele>7.0</ele><time>2026-04-20T16:08:44.736Z</time></trkpt><trkpt lat="39.7499133" lon="8.587395"><ele>7.0</ele><time>2026-04-20T16:08:46.736Z</time></trkpt><trkpt lat="39.74985" lon="8.587615"><ele>7.0</ele><time>2026-04-20T16:08:47.736Z</time></trkpt><trkpt lat="39.749765" lon="8.5878367"><ele>7.0</ele><time>2026-04-20T16:08:48.736Z</time></trkpt><trkpt lat="39.7496667" lon="8.5880467"><ele>7.333333333333334</ele><time>2026-04-20T16:08:49.737Z</time></trkpt><trkpt lat="39.7495733" lon="8.58826"><ele>7.666666666666666</ele><time>2026-04-20T16:08:50.736Z</time></trkpt><trkpt lat="39.74947" lon="8.58847"><ele>8.0</ele><time>2026-04-20T16:08:51.736Z</time></trkpt><trkpt lat="39.7493767" lon="8.5886817"><ele>7.666666666666666</ele><time>2026-04-20T16:08:52.736Z</time></trkpt><trkpt lat="39.7492817" lon="8.5889067"><ele>7.333333333333334</ele><time>2026-04-20T16:08:53.736Z</time></trkpt><trkpt lat="39.74919" lon="8.5891233"><ele>7.0</ele><time>2026-04-20T16:08:54.736Z</time></trkpt><trkpt lat="39.749095" lon="8.5893367"><ele>7.333333333333334</ele><time>2026-04-20T16:08:55.736Z</time></trkpt><trkpt lat="39.7489983" lon="8.5895583"><ele>7.666666666666666</ele><time>2026-04-20T16:08:56.736Z</time></trkpt><trkpt lat="39.7489083" lon="8.589775"><ele>8.0</ele><time>2026-04-20T16:08:57.736Z</time></trkpt><trkpt lat="39.748815" lon="8.5900033"><ele>8.0</ele><time>2026-04-20T16:08:58.736Z</time></trkpt><trkpt lat="39.7487233" lon="8.59023"><ele>8.0</ele><time>2026-04-20T16:08:59.737Z</time></trkpt><trkpt lat="39.7486233" lon="8.5904383"><ele>8.0</ele><time>2026-04-20T16:09:00.736Z</time></trkpt><trkpt lat="39.7485333" lon="8.5906517"><ele>7.666666666666666</ele><time>2026-04-20T16:09:01.737Z</time></trkpt><trkpt lat="39.7484383" lon="8.5908617"><ele>7.333333333333334</ele><time>2026-04-20T16:09:02.736Z</time></trkpt><trkpt lat="39.7483467" lon="8.5910833"><ele>7.0</ele><time>2026-04-20T16:09:03.736Z</time></trkpt><trkpt lat="39.7482517" lon="8.5912883"><ele>6.5</ele><time>2026-04-20T16:09:04.736Z</time></trkpt><trkpt lat="39.7481567" lon="8.5915"><ele>6.0</ele><time>2026-04-20T16:09:05.736Z</time></trkpt><trkpt lat="39.7479633" lon="8.5919383"><ele>6.0</ele><time>2026-04-20T16:09:07.736Z</time></trkpt><trkpt lat="39.7478633" lon="8.592165"><ele>6.0</ele><time>2026-04-20T16:09:08.736Z</time></trkpt><trkpt lat="39.7477633" lon="8.592385"><ele>6.0</ele><time>2026-04-20T16:09:09.736Z</time></trkpt><trkpt lat="39.74766" lon="8.5926"><ele>6.333333333333334</ele><time>2026-04-20T16:09:10.736Z</time></trkpt><trkpt lat="39.747565" lon="8.592825"><ele>6.666666666666667</ele><time>2026-04-20T16:09:11.736Z</time></trkpt><trkpt lat="39.74747" lon="8.5930467"><ele>7.0</ele><time>2026-04-20T16:09:12.737Z</time></trkpt><trkpt lat="39.7473767" lon="8.5932717"><ele>7.0</ele><time>2026-04-20T16:09:13.736Z</time></trkpt><trkpt lat="39.747285" lon="8.593495"><ele>7.0</ele><time>2026-04-20T16:09:14.736Z</time></trkpt><trkpt lat="39.7471933" lon="8.593715"><ele>7.0</ele><time>2026-04-20T16:09:15.736Z</time></trkpt><trkpt lat="39.747095" lon="8.5939433"><ele>7.0</ele><time>2026-04-20T16:09:16.736Z</time></trkpt><trkpt lat="39.7470033" lon="8.5941783"><ele>7.0</ele><time>2026-04-20T16:09:17.736Z</time></trkpt><trkpt lat="39.746905" lon="8.5944083"><ele>7.0</ele><time>2026-04-20T16:09:18.736Z</time></trkpt><trkpt lat="39.7468" lon="8.5946317"><ele>7.0</ele><time>2026-04-20T16:09:19.736Z</time></trkpt><trkpt lat="39.7466983" lon="8.5948583"><ele>7.0</ele><time>2026-04-20T16:09:20.736Z</time></trkpt><trkpt lat="39.7465933" lon="8.595095"><ele>7.0</ele><time>2026-04-20T16:09:21.736Z</time></trkpt><trkpt lat="39.7464883" lon="8.5953417"><ele>7.0</ele><time>2026-04-20T16:09:22.736Z</time></trkpt><trkpt lat="39.746385" lon="8.59558"><ele>7.0</ele><time>2026-04-20T16:09:23.736Z</time></trkpt><trkpt lat="39.7462767" lon="8.5958217"><ele>7.0</ele><time>2026-04-20T16:09:24.737Z</time></trkpt><trkpt lat="39.7461717" lon="8.5960583"><ele>7.0</ele><time>2026-04-20T16:09:25.736Z</time></trkpt><trkpt lat="39.7460683" lon="8.5962967"><ele>7.0</ele><time>2026-04-20T16:09:26.736Z</time></trkpt><trkpt lat="39.7458617" lon="8.59677"><ele>7.333333333333334</ele><time>2026-04-20T16:09:28.736Z</time></trkpt><trkpt lat="39.7457567" lon="8.5970067"><ele>7.666666666666666</ele><time>2026-04-20T16:09:29.736Z</time></trkpt><trkpt lat="39.745655" lon="8.5972333"><ele>8.0</ele><time>2026-04-20T16:09:30.736Z</time></trkpt><trkpt lat="39.74555" lon="8.597465"><ele>8.0</ele><time>2026-04-20T16:09:31.736Z</time></trkpt><trkpt lat="39.7454533" lon="8.5976933"><ele>8.0</ele><time>2026-04-20T16:09:32.736Z</time></trkpt><trkpt lat="39.7453467" lon="8.5979317"><ele>8.0</ele><time>2026-04-20T16:09:33.736Z</time></trkpt><trkpt lat="39.7452433" lon="8.5981817"><ele>7.333333333333333</ele><time>2026-04-20T16:09:34.736Z</time></trkpt><trkpt lat="39.745145" lon="8.5984167"><ele>6.666666666666666</ele><time>2026-04-20T16:09:35.736Z</time></trkpt><trkpt lat="39.745045" lon="8.5986517"><ele>6.0</ele><time>2026-04-20T16:09:36.737Z</time></trkpt><trkpt lat="39.74494" lon="8.5988867"><ele>5.666666666666667</ele><time>2026-04-20T16:09:37.736Z</time></trkpt><trkpt lat="39.7448433" lon="8.59912"><ele>5.333333333333334</ele><time>2026-04-20T16:09:38.736Z</time></trkpt><trkpt lat="39.7447467" lon="8.5993617"><ele>5.0</ele><time>2026-04-20T16:09:39.737Z</time></trkpt><trkpt lat="39.7446417" lon="8.5995883"><ele>5.0</ele><time>2026-04-20T16:09:40.736Z</time></trkpt><trkpt lat="39.7445383" lon="8.5998233"><ele>5.0</ele><time>2026-04-20T16:09:41.736Z</time></trkpt><trkpt lat="39.7444333" lon="8.60006"><ele>5.0</ele><time>2026-04-20T16:09:42.736Z</time></trkpt><trkpt lat="39.7443333" lon="8.6002933"><ele>5.0</ele><time>2026-04-20T16:09:43.736Z</time></trkpt><trkpt lat="39.7442233" lon="8.6005317"><ele>5.0</ele><time>2026-04-20T16:09:44.736Z</time></trkpt><trkpt lat="39.74412" lon="8.6007683"><ele>5.0</ele><time>2026-04-20T16:09:45.736Z</time></trkpt><trkpt lat="39.7440167" lon="8.6010033"><ele>4.0</ele><time>2026-04-20T16:09:46.736Z</time></trkpt><trkpt lat="39.7439133" lon="8.60124"><ele>3.0</ele><time>2026-04-20T16:09:47.737Z</time></trkpt><trkpt lat="39.7437017" lon="8.6016967"><ele>3.0</ele><time>2026-04-20T16:09:49.736Z</time></trkpt><trkpt lat="39.7436067" lon="8.6019217"><ele>3.0</ele><time>2026-04-20T16:09:50.736Z</time></trkpt><trkpt lat="39.743505" lon="8.60215"><ele>3.0</ele><time>2026-04-20T16:09:51.736Z</time></trkpt><trkpt lat="39.74341" lon="8.60238"><ele>3.0</ele><time>2026-04-20T16:09:52.737Z</time></trkpt><trkpt lat="39.7433067" lon="8.6026133"><ele>3.0</ele><time>2026-04-20T16:09:53.736Z</time></trkpt><trkpt lat="39.7432067" lon="8.6028517"><ele>3.0</ele><time>2026-04-20T16:09:54.736Z</time></trkpt><trkpt lat="39.7431117" lon="8.6030767"><ele>3.0</ele><time>2026-04-20T16:09:55.736Z</time></trkpt><trkpt lat="39.7430167" lon="8.6033033"><ele>3.0</ele><time>2026-04-20T16:09:56.736Z</time></trkpt><trkpt lat="39.7429183" lon="8.6035183"><ele>3.0</ele><time>2026-04-20T16:09:57.736Z</time></trkpt><trkpt lat="39.7428233" lon="8.6037333"><ele>3.666666666666667</ele><time>2026-04-20T16:09:58.736Z</time></trkpt><trkpt lat="39.7427267" lon="8.6039633"><ele>4.333333333333334</ele><time>2026-04-20T16:09:59.736Z</time></trkpt><trkpt lat="39.7426333" lon="8.60419"><ele>5.0</ele><time>2026-04-20T16:10:00.737Z</time></trkpt><trkpt lat="39.7425367" lon="8.60442"><ele>5.0</ele><time>2026-04-20T16:10:01.736Z</time></trkpt><trkpt lat="39.7424367" lon="8.60465"><ele>5.0</ele><time>2026-04-20T16:10:02.737Z</time></trkpt><trkpt lat="39.7423467" lon="8.6048633"><ele>5.0</ele><time>2026-04-20T16:10:03.736Z</time></trkpt><trkpt lat="39.7422533" lon="8.605075"><ele>5.0</ele><time>2026-04-20T16:10:04.736Z</time></trkpt><trkpt lat="39.742165" lon="8.60528"><ele>5.0</ele><time>2026-04-20T16:10:05.737Z</time></trkpt><trkpt lat="39.742065" lon="8.605485"><ele>5.0</ele><time>2026-04-20T16:10:06.736Z</time></trkpt><trkpt lat="39.7419717" lon="8.6056917"><ele>6.0</ele><time>2026-04-20T16:10:07.736Z</time></trkpt><trkpt lat="39.7418817" lon="8.605895"><ele>7.0</ele><time>2026-04-20T16:10:08.736Z</time></trkpt><trkpt lat="39.7417067" lon="8.6063033"><ele>7.0</ele><time>2026-04-20T16:10:10.736Z</time></trkpt><trkpt lat="39.7416217" lon="8.6065033"><ele>7.0</ele><time>2026-04-20T16:10:11.737Z</time></trkpt><trkpt lat="39.7415367" lon="8.6066983"><ele>7.0</ele><time>2026-04-20T16:10:12.736Z</time></trkpt><trkpt lat="39.74146" lon="8.6068933"><ele>6.5</ele><time>2026-04-20T16:10:13.736Z</time></trkpt><trkpt lat="39.7413817" lon="8.607075"><ele>6.0</ele><time>2026-04-20T16:10:14.736Z</time></trkpt><trkpt lat="39.7413133" lon="8.6072333"><ele>5.5</ele><time>2026-04-20T16:10:15.736Z</time></trkpt><trkpt lat="39.7412667" lon="8.6073417"><ele>5.0</ele><time>2026-04-20T16:10:16.736Z</time></trkpt><trkpt lat="39.7412283" lon="8.607425"><ele>5.0</ele><time>2026-04-20T16:10:17.737Z</time></trkpt><trkpt lat="39.7411783" lon="8.6075383"><ele>5.0</ele><time>2026-04-20T16:12:13.736Z</time></trkpt><trkpt lat="39.7410617" lon="8.607765"><ele>5.0</ele><time>2026-04-20T16:12:15.736Z</time></trkpt><trkpt lat="39.7409917" lon="8.6079067"><ele>5.0</ele><time>2026-04-20T16:12:16.736Z</time></trkpt><trkpt lat="39.7409083" lon="8.60805"><ele>5.0</ele><time>2026-04-20T16:12:17.737Z</time></trkpt><trkpt lat="39.7407967" lon="8.6081883"><ele>5.0</ele><time>2026-04-20T16:12:18.736Z</time></trkpt><trkpt lat="39.7406683" lon="8.6083283"><ele>5.0</ele><time>2026-04-20T16:12:19.736Z</time></trkpt><trkpt lat="39.7405217" lon="8.6084533"><ele>5.0</ele><time>2026-04-20T16:12:20.737Z</time></trkpt><trkpt lat="39.74037" lon="8.6085833"><ele>5.0</ele><time>2026-04-20T16:12:21.736Z</time></trkpt><trkpt lat="39.7402" lon="8.6087133"><ele>5.0</ele><time>2026-04-20T16:12:22.736Z</time></trkpt><trkpt lat="39.7400183" lon="8.6088467"><ele>5.0</ele><time>2026-04-20T16:12:23.736Z</time></trkpt><trkpt lat="39.7398333" lon="8.6089767"><ele>5.0</ele><time>2026-04-20T16:12:24.736Z</time></trkpt><trkpt lat="39.739655" lon="8.6091033"><ele>5.0</ele><time>2026-04-20T16:12:25.736Z</time></trkpt><trkpt lat="39.7394883" lon="8.6092217"><ele>5.0</ele><time>2026-04-20T16:12:26.736Z</time></trkpt><trkpt lat="39.7393317" lon="8.6093283"><ele>5.0</ele><time>2026-04-20T16:12:27.736Z</time></trkpt><trkpt lat="39.73919" lon="8.609435"><ele>5.0</ele><time>2026-04-20T16:12:28.736Z</time></trkpt><trkpt lat="39.739055" lon="8.6095383"><ele>5.333333333333334</ele><time>2026-04-20T16:12:29.737Z</time></trkpt><trkpt lat="39.7389233" lon="8.609635"><ele>5.666666666666667</ele><time>2026-04-20T16:12:30.736Z</time></trkpt><trkpt lat="39.7387933" lon="8.609725"><ele>6.0</ele><time>2026-04-20T16:12:31.736Z</time></trkpt><trkpt lat="39.7386633" lon="8.609825"><ele>5.666666666666667</ele><time>2026-04-20T16:12:32.737Z</time></trkpt><trkpt lat="39.7385167" lon="8.6099233"><ele>5.333333333333334</ele><time>2026-04-20T16:12:33.736Z</time></trkpt><trkpt lat="39.7383767" lon="8.610025"><ele>5.0</ele><time>2026-04-20T16:12:34.736Z</time></trkpt><trkpt lat="39.7381017" lon="8.6102267"><ele>5.0</ele><time>2026-04-20T16:12:36.736Z</time></trkpt><trkpt lat="39.7379683" lon="8.6103217"><ele>5.0</ele><time>2026-04-20T16:12:37.736Z</time></trkpt><trkpt lat="39.7378283" lon="8.6104217"><ele>5.0</ele><time>2026-04-20T16:12:38.736Z</time></trkpt><trkpt lat="39.73769" lon="8.6105267"><ele>5.666666666666667</ele><time>2026-04-20T16:12:39.737Z</time></trkpt><trkpt lat="39.73755" lon="8.6106317"><ele>6.333333333333334</ele><time>2026-04-20T16:12:40.736Z</time></trkpt><trkpt lat="39.7374083" lon="8.6107533"><ele>7.0</ele><time>2026-04-20T16:12:41.736Z</time></trkpt><trkpt lat="39.7372683" lon="8.610895"><ele>7.0</ele><time>2026-04-20T16:12:42.736Z</time></trkpt><trkpt lat="39.7371483" lon="8.6110467"><ele>7.0</ele><time>2026-04-20T16:12:43.736Z</time></trkpt><trkpt lat="39.7370433" lon="8.611205"><ele>7.0</ele><time>2026-04-20T16:12:44.736Z</time></trkpt><trkpt lat="39.7369433" lon="8.6113767"><ele>7.0</ele><time>2026-04-20T16:12:45.736Z</time></trkpt><trkpt lat="39.73686" lon="8.6115633"><ele>7.0</ele><time>2026-04-20T16:12:46.737Z</time></trkpt><trkpt lat="39.7367883" lon="8.6117667"><ele>7.0</ele><time>2026-04-20T16:12:47.736Z</time></trkpt><trkpt lat="39.736715" lon="8.61198"><ele>7.0</ele><time>2026-04-20T16:12:48.736Z</time></trkpt><trkpt lat="39.7366483" lon="8.6122117"><ele>7.0</ele><time>2026-04-20T16:12:49.736Z</time></trkpt><trkpt lat="39.736585" lon="8.6124467"><ele>7.0</ele><time>2026-04-20T16:12:50.736Z</time></trkpt><trkpt lat="39.7365233" lon="8.6126717"><ele>6.666666666666667</ele><time>2026-04-20T16:12:51.736Z</time></trkpt><trkpt lat="39.7364617" lon="8.6128967"><ele>6.333333333333334</ele><time>2026-04-20T16:12:52.736Z</time></trkpt><trkpt lat="39.7364" lon="8.6131183"><ele>6.0</ele><time>2026-04-20T16:12:53.737Z</time></trkpt><trkpt lat="39.7363433" lon="8.6133267"><ele>6.0</ele><time>2026-04-20T16:12:54.737Z</time></trkpt><trkpt lat="39.7362933" lon="8.613525"><ele>6.0</ele><time>2026-04-20T16:12:55.737Z</time></trkpt><trkpt lat="39.736195" lon="8.6138917"><ele>6.333333333333334</ele><time>2026-04-20T16:12:57.736Z</time></trkpt><trkpt lat="39.7361467" lon="8.6140767"><ele>6.666666666666667</ele><time>2026-04-20T16:12:58.736Z</time></trkpt><trkpt lat="39.7360933" lon="8.614265"><ele>7.0</ele><time>2026-04-20T16:12:59.736Z</time></trkpt><trkpt lat="39.7360317" lon="8.6144717"><ele>6.333333333333334</ele><time>2026-04-20T16:13:00.736Z</time></trkpt><trkpt lat="39.735975" lon="8.6146717"><ele>5.666666666666667</ele><time>2026-04-20T16:13:01.736Z</time></trkpt><trkpt lat="39.735925" lon="8.6148783"><ele>5.0</ele><time>2026-04-20T16:13:02.736Z</time></trkpt><trkpt lat="39.735865" lon="8.615085"><ele>5.0</ele><time>2026-04-20T16:13:03.736Z</time></trkpt><trkpt lat="39.735805" lon="8.6153"><ele>5.0</ele><time>2026-04-20T16:13:04.736Z</time></trkpt><trkpt lat="39.735735" lon="8.61551"><ele>5.0</ele><time>2026-04-20T16:13:05.737Z</time></trkpt><trkpt lat="39.7356783" lon="8.6157333"><ele>5.0</ele><time>2026-04-20T16:13:06.736Z</time></trkpt><trkpt lat="39.7356183" lon="8.6159517"><ele>5.0</ele><time>2026-04-20T16:13:07.736Z</time></trkpt><trkpt lat="39.735555" lon="8.6161767"><ele>5.0</ele><time>2026-04-20T16:13:08.736Z</time></trkpt><trkpt lat="39.735495" lon="8.616405"><ele>5.0</ele><time>2026-04-20T16:13:09.736Z</time></trkpt><trkpt lat="39.735435" lon="8.6166217"><ele>5.0</ele><time>2026-04-20T16:13:10.736Z</time></trkpt><trkpt lat="39.73537" lon="8.6168467"><ele>5.0</ele><time>2026-04-20T16:13:11.736Z</time></trkpt><trkpt lat="39.7353017" lon="8.617075"><ele>5.0</ele><time>2026-04-20T16:13:12.736Z</time></trkpt><trkpt lat="39.7352367" lon="8.61731"><ele>5.0</ele><time>2026-04-20T16:13:13.736Z</time></trkpt><trkpt lat="39.7351667" lon="8.6175383"><ele>5.0</ele><time>2026-04-20T16:13:14.736Z</time></trkpt><trkpt lat="39.7350967" lon="8.6177767"><ele>4.5</ele><time>2026-04-20T16:13:15.736Z</time></trkpt><trkpt lat="39.7350317" lon="8.618015"><ele>4.0</ele><time>2026-04-20T16:13:16.736Z</time></trkpt><trkpt lat="39.734895" lon="8.6185117"><ele>4.333333333333333</ele><time>2026-04-20T16:13:18.736Z</time></trkpt><trkpt lat="39.7348317" lon="8.6187517"><ele>4.666666666666667</ele><time>2026-04-20T16:13:19.736Z</time></trkpt><trkpt lat="39.7347717" lon="8.6189883"><ele>5.0</ele><time>2026-04-20T16:13:20.736Z</time></trkpt><trkpt lat="39.734715" lon="8.61922"><ele>5.0</ele><time>2026-04-20T16:13:21.736Z</time></trkpt><trkpt lat="39.73465" lon="8.6194433"><ele>5.0</ele><time>2026-04-20T16:13:22.736Z</time></trkpt><trkpt lat="39.7345817" lon="8.61965"><ele>5.0</ele><time>2026-04-20T16:13:23.736Z</time></trkpt><trkpt lat="39.7344967" lon="8.6198567"><ele>5.0</ele><time>2026-04-20T16:13:24.736Z</time></trkpt><trkpt lat="39.7343983" lon="8.62006"><ele>5.0</ele><time>2026-04-20T16:13:25.736Z</time></trkpt><trkpt lat="39.7342867" lon="8.62025"><ele>5.0</ele><time>2026-04-20T16:13:26.736Z</time></trkpt><trkpt lat="39.7341567" lon="8.6204217"><ele>5.0</ele><time>2026-04-20T16:13:27.736Z</time></trkpt><trkpt lat="39.7340067" lon="8.6205817"><ele>5.0</ele><time>2026-04-20T16:13:28.736Z</time></trkpt><trkpt lat="39.73384" lon="8.6207267"><ele>5.0</ele><time>2026-04-20T16:13:29.736Z</time></trkpt><trkpt lat="39.73367" lon="8.6208683"><ele>5.333333333333334</ele><time>2026-04-20T16:13:30.736Z</time></trkpt><trkpt lat="39.733495" lon="8.62101"><ele>5.666666666666667</ele><time>2026-04-20T16:13:31.736Z</time></trkpt><trkpt lat="39.7333233" lon="8.621155"><ele>6.0</ele><time>2026-04-20T16:13:32.736Z</time></trkpt><trkpt lat="39.7331617" lon="8.6213033"><ele>6.333333333333334</ele><time>2026-04-20T16:13:33.736Z</time></trkpt><trkpt lat="39.7330017" lon="8.6214417"><ele>6.666666666666667</ele><time>2026-04-20T16:13:34.736Z</time></trkpt><trkpt lat="39.73284" lon="8.6215783"><ele>7.0</ele><time>2026-04-20T16:13:35.736Z</time></trkpt><trkpt lat="39.7326767" lon="8.6217167"><ele>7.0</ele><time>2026-04-20T16:13:36.736Z</time></trkpt><trkpt lat="39.732515" lon="8.6218533"><ele>7.0</ele><time>2026-04-20T16:13:37.736Z</time></trkpt><trkpt lat="39.7321967" lon="8.6221267"><ele>7.0</ele><time>2026-04-20T16:13:39.737Z</time></trkpt><trkpt lat="39.7320667" lon="8.62228"><ele>7.0</ele><time>2026-04-20T16:13:40.736Z</time></trkpt><trkpt lat="39.731945" lon="8.622445"><ele>7.0</ele><time>2026-04-20T16:13:41.736Z</time></trkpt><trkpt lat="39.7318467" lon="8.6226283"><ele>7.333333333333334</ele><time>2026-04-20T16:13:42.736Z</time></trkpt><trkpt lat="39.7317617" lon="8.62282"><ele>7.666666666666666</ele><time>2026-04-20T16:13:43.737Z</time></trkpt><trkpt lat="39.7316867" lon="8.6230233"><ele>8.0</ele><time>2026-04-20T16:13:44.736Z</time></trkpt><trkpt lat="39.7316217" lon="8.6232383"><ele>8.0</ele><time>2026-04-20T16:13:45.736Z</time></trkpt><trkpt lat="39.7315533" lon="8.623455"><ele>8.0</ele><time>2026-04-20T16:13:46.736Z</time></trkpt><trkpt lat="39.73148" lon="8.623675"><ele>8.0</ele><time>2026-04-20T16:13:47.736Z</time></trkpt><trkpt lat="39.73141" lon="8.6238883"><ele>7.666666666666666</ele><time>2026-04-20T16:13:48.736Z</time></trkpt><trkpt lat="39.7313317" lon="8.6240867"><ele>7.333333333333334</ele><time>2026-04-20T16:13:49.736Z</time></trkpt><trkpt lat="39.7312617" lon="8.6242817"><ele>7.0</ele><time>2026-04-20T16:13:50.736Z</time></trkpt><trkpt lat="39.7311867" lon="8.6244767"><ele>7.0</ele><time>2026-04-20T16:13:51.736Z</time></trkpt><trkpt lat="39.7311033" lon="8.6246817"><ele>7.0</ele><time>2026-04-20T16:13:52.736Z</time></trkpt><trkpt lat="39.73102" lon="8.6248883"><ele>7.0</ele><time>2026-04-20T16:13:53.736Z</time></trkpt><trkpt lat="39.7309317" lon="8.6250783"><ele>7.0</ele><time>2026-04-20T16:13:54.736Z</time></trkpt><trkpt lat="39.7308467" lon="8.62526"><ele>7.0</ele><time>2026-04-20T16:13:55.736Z</time></trkpt><trkpt lat="39.7307567" lon="8.6254333"><ele>7.0</ele><time>2026-04-20T16:13:56.736Z</time></trkpt><trkpt lat="39.73068" lon="8.62559"><ele>6.666666666666667</ele><time>2026-04-20T16:13:57.736Z</time></trkpt><trkpt lat="39.730605" lon="8.6257433"><ele>6.333333333333334</ele><time>2026-04-20T16:13:58.736Z</time></trkpt><trkpt lat="39.73044" lon="8.6260183"><ele>6.0</ele><time>2026-04-20T16:14:00.736Z</time></trkpt><trkpt lat="39.7303417" lon="8.6261433"><ele>6.0</ele><time>2026-04-20T16:14:01.736Z</time></trkpt><trkpt lat="39.7302383" lon="8.6262667"><ele>6.0</ele><time>2026-04-20T16:14:02.736Z</time></trkpt><trkpt lat="39.73013" lon="8.6263883"><ele>6.0</ele><time>2026-04-20T16:14:03.736Z</time></trkpt><trkpt lat="39.7300233" lon="8.6265017"><ele>6.0</ele><time>2026-04-20T16:14:04.736Z</time></trkpt><trkpt lat="39.72991" lon="8.6266183"><ele>6.25</ele><time>2026-04-20T16:14:05.736Z</time></trkpt><trkpt lat="39.7298017" lon="8.6267317"><ele>6.5</ele><time>2026-04-20T16:14:06.736Z</time></trkpt><trkpt lat="39.729695" lon="8.6268417"><ele>6.75</ele><time>2026-04-20T16:14:07.736Z</time></trkpt><trkpt lat="39.7295867" lon="8.6269567"><ele>7.0</ele><time>2026-04-20T16:14:08.736Z</time></trkpt><trkpt lat="39.7294783" lon="8.6270683"><ele>7.0</ele><time>2026-04-20T16:14:09.736Z</time></trkpt><trkpt lat="39.729365" lon="8.627175"><ele>7.0</ele><time>2026-04-20T16:14:10.737Z</time></trkpt><trkpt lat="39.72926" lon="8.6272883"><ele>7.0</ele><time>2026-04-20T16:14:11.736Z</time></trkpt><trkpt lat="39.72915" lon="8.6273917"><ele>7.0</ele><time>2026-04-20T16:14:12.737Z</time></trkpt><trkpt lat="39.7290483" lon="8.627495"><ele>7.0</ele><time>2026-04-20T16:14:13.736Z</time></trkpt><trkpt lat="39.7289467" lon="8.6275933"><ele>7.0</ele><time>2026-04-20T16:14:14.737Z</time></trkpt><trkpt lat="39.7288483" lon="8.6276983"><ele>7.0</ele><time>2026-04-20T16:14:15.736Z</time></trkpt><trkpt lat="39.7287517" lon="8.6277933"><ele>7.0</ele><time>2026-04-20T16:14:16.736Z</time></trkpt><trkpt lat="39.728655" lon="8.6278967"><ele>7.0</ele><time>2026-04-20T16:14:17.736Z</time></trkpt><trkpt lat="39.72856" lon="8.6279917"><ele>7.0</ele><time>2026-04-20T16:14:18.736Z</time></trkpt><trkpt lat="39.7284667" lon="8.6280983"><ele>7.0</ele><time>2026-04-20T16:14:19.736Z</time></trkpt><trkpt lat="39.7282667" lon="8.6283017"><ele>7.0</ele><time>2026-04-20T16:14:21.736Z</time></trkpt><trkpt lat="39.7281617" lon="8.6283983"><ele>7.0</ele><time>2026-04-20T16:14:22.736Z</time></trkpt><trkpt lat="39.7280533" lon="8.6284967"><ele>7.0</ele><time>2026-04-20T16:14:23.737Z</time></trkpt><trkpt lat="39.7279483" lon="8.6286017"><ele>7.0</ele><time>2026-04-20T16:14:24.736Z</time></trkpt><trkpt lat="39.7278533" lon="8.628685"><ele>7.0</ele><time>2026-04-20T16:14:25.736Z</time></trkpt><trkpt lat="39.727765" lon="8.6287667"><ele>6.999999999999999</ele><time>2026-04-20T16:14:26.736Z</time></trkpt><trkpt lat="39.727675" lon="8.628845"><ele>6.999999999999999</ele><time>2026-04-20T16:14:27.736Z</time></trkpt><trkpt lat="39.7275717" lon="8.62892"><ele>7.0</ele><time>2026-04-20T16:14:28.736Z</time></trkpt><trkpt lat="39.7274817" lon="8.6289967"><ele>7.0</ele><time>2026-04-20T16:14:29.736Z</time></trkpt><trkpt lat="39.7274" lon="8.6290583"><ele>7.000000000000001</ele><time>2026-04-20T16:14:30.736Z</time></trkpt><trkpt lat="39.72732" lon="8.62911"><ele>7.0</ele><time>2026-04-20T16:14:31.736Z</time></trkpt><trkpt lat="39.7272483" lon="8.6291533"><ele>7.0</ele><time>2026-04-20T16:14:32.737Z</time></trkpt><trkpt lat="39.7271883" lon="8.6291867"><ele>7.0</ele><time>2026-04-20T16:14:33.736Z</time></trkpt><trkpt lat="39.7271" lon="8.6292583"><ele>7.000000000000001</ele><time>2026-04-20T16:14:35.736Z</time></trkpt><trkpt lat="39.727025" lon="8.6293167"><ele>7.0</ele><time>2026-04-20T16:14:37.736Z</time></trkpt><trkpt lat="39.7269667" lon="8.6293767"><ele>7.199999999999999</ele><time>2026-04-20T16:14:40.736Z</time></trkpt><trkpt lat="39.7267867" lon="8.6295433"><ele>7.3999999999999995</ele><time>2026-04-20T16:14:58.736Z</time></trkpt><trkpt lat="39.7267233" lon="8.62959"><ele>7.6000000000000005</ele><time>2026-04-20T16:14:59.736Z</time></trkpt><trkpt lat="39.7266583" lon="8.6296333"><ele>7.800000000000001</ele><time>2026-04-20T16:15:00.736Z</time></trkpt><trkpt lat="39.7265933" lon="8.6296833"><ele>8.0</ele><time>2026-04-20T16:15:01.736Z</time></trkpt><trkpt lat="39.7264633" lon="8.6297633"><ele>7.999999999999999</ele><time>2026-04-20T16:15:03.736Z</time></trkpt><trkpt lat="39.7264" lon="8.6298167"><ele>8.0</ele><time>2026-04-20T16:15:04.736Z</time></trkpt><trkpt lat="39.726325" lon="8.6298633"><ele>8.0</ele><time>2026-04-20T16:15:05.736Z</time></trkpt><trkpt lat="39.72626" lon="8.6299117"><ele>8.0</ele><time>2026-04-20T16:15:06.736Z</time></trkpt><trkpt lat="39.7261833" lon="8.62997"><ele>7.999999999999999</ele><time>2026-04-20T16:15:07.737Z</time></trkpt><trkpt lat="39.7261017" lon="8.630025"><ele>8.0</ele><time>2026-04-20T16:15:08.736Z</time></trkpt><trkpt lat="39.7260183" lon="8.6300767"><ele>8.4</ele><time>2026-04-20T16:15:09.736Z</time></trkpt><trkpt lat="39.7259383" lon="8.630135"><ele>8.8</ele><time>2026-04-20T16:15:10.736Z</time></trkpt><trkpt lat="39.725865" lon="8.6302083"><ele>9.2</ele><time>2026-04-20T16:15:11.736Z</time></trkpt><trkpt lat="39.7257883" lon="8.6302783"><ele>9.6</ele><time>2026-04-20T16:15:12.736Z</time></trkpt><trkpt lat="39.7257117" lon="8.6303467"><ele>10.0</ele><time>2026-04-20T16:15:13.736Z</time></trkpt><trkpt lat="39.725655" lon="8.6304283"><ele>10.0</ele><time>2026-04-20T16:15:14.736Z</time></trkpt><trkpt lat="39.7256" lon="8.6305117"><ele>10.0</ele><time>2026-04-20T16:15:15.737Z</time></trkpt><trkpt lat="39.7255467" lon="8.6305967"><ele>10.0</ele><time>2026-04-20T16:15:16.736Z</time></trkpt><trkpt lat="39.7254917" lon="8.630675"><ele>10.0</ele><time>2026-04-20T16:15:17.736Z</time></trkpt><trkpt lat="39.7254267" lon="8.6307467"><ele>10.0</ele><time>2026-04-20T16:15:18.736Z</time></trkpt><trkpt lat="39.725365" lon="8.63081"><ele>10.0</ele><time>2026-04-20T16:15:19.736Z</time></trkpt><trkpt lat="39.7253" lon="8.6308717"><ele>10.0</ele><time>2026-04-20T16:15:20.736Z</time></trkpt><trkpt lat="39.7252333" lon="8.6309333"><ele>10.0</ele><time>2026-04-20T16:15:21.736Z</time></trkpt><trkpt lat="39.7251617" lon="8.6309933"><ele>10.0</ele><time>2026-04-20T16:15:22.736Z</time></trkpt><trkpt lat="39.7250117" lon="8.6311383"><ele>10.0</ele><time>2026-04-20T16:15:24.736Z</time></trkpt><trkpt lat="39.724935" lon="8.631205"><ele>10.0</ele><time>2026-04-20T16:15:25.736Z</time></trkpt><trkpt lat="39.72486" lon="8.6312733"><ele>9.8</ele><time>2026-04-20T16:15:26.736Z</time></trkpt><trkpt lat="39.7247883" lon="8.63134"><ele>9.6</ele><time>2026-04-20T16:15:27.736Z</time></trkpt><trkpt lat="39.72471" lon="8.6314067"><ele>9.4</ele><time>2026-04-20T16:15:28.736Z</time></trkpt><trkpt lat="39.7246317" lon="8.6314767"><ele>9.2</ele><time>2026-04-20T16:15:29.736Z</time></trkpt><trkpt lat="39.7245517" lon="8.6315433"><ele>9.0</ele><time>2026-04-20T16:15:30.736Z</time></trkpt><trkpt lat="39.7244867" lon="8.63162"><ele>9.0</ele><time>2026-04-20T16:15:31.736Z</time></trkpt><trkpt lat="39.7244267" lon="8.6317083"><ele>9.0</ele><time>2026-04-20T16:15:32.736Z</time></trkpt><trkpt lat="39.7243617" lon="8.63179"><ele>9.0</ele><time>2026-04-20T16:15:33.736Z</time></trkpt><trkpt lat="39.7243" lon="8.63188"><ele>9.0</ele><time>2026-04-20T16:15:34.736Z</time></trkpt><trkpt lat="39.72423" lon="8.6319667"><ele>9.0</ele><time>2026-04-20T16:15:35.736Z</time></trkpt><trkpt lat="39.72417" lon="8.6320667"><ele>9.0</ele><time>2026-04-20T16:15:36.736Z</time></trkpt><trkpt lat="39.7241067" lon="8.6321583"><ele>9.0</ele><time>2026-04-20T16:15:37.736Z</time></trkpt><trkpt lat="39.7240433" lon="8.63225"><ele>9.0</ele><time>2026-04-20T16:15:38.736Z</time></trkpt><trkpt lat="39.7239667" lon="8.632325"><ele>9.0</ele><time>2026-04-20T16:15:39.736Z</time></trkpt><trkpt lat="39.723905" lon="8.6324017"><ele>9.0</ele><time>2026-04-20T16:15:40.737Z</time></trkpt><trkpt lat="39.7238467" lon="8.6324817"><ele>9.0</ele><time>2026-04-20T16:15:41.736Z</time></trkpt><trkpt lat="39.7237817" lon="8.63255"><ele>9.0</ele><time>2026-04-20T16:15:42.736Z</time></trkpt><trkpt lat="39.7237117" lon="8.63262"><ele>9.0</ele><time>2026-04-20T16:15:43.737Z</time></trkpt><trkpt lat="39.7235717" lon="8.6327617"><ele>9.0</ele><time>2026-04-20T16:15:45.737Z</time></trkpt><trkpt lat="39.723505" lon="8.63283"><ele>9.0</ele><time>2026-04-20T16:15:46.736Z</time></trkpt><trkpt lat="39.7234333" lon="8.632905"><ele>9.166666666666666</ele><time>2026-04-20T16:15:47.736Z</time></trkpt><trkpt lat="39.723365" lon="8.6329717"><ele>9.333333333333334</ele><time>2026-04-20T16:15:48.736Z</time></trkpt><trkpt lat="39.7232917" lon="8.6330417"><ele>9.5</ele><time>2026-04-20T16:15:49.737Z</time></trkpt><trkpt lat="39.7232283" lon="8.633125"><ele>9.666666666666668</ele><time>2026-04-20T16:15:50.736Z</time></trkpt><trkpt lat="39.7231567" lon="8.633195"><ele>9.833333333333334</ele><time>2026-04-20T16:15:51.737Z</time></trkpt><trkpt lat="39.7230883" lon="8.6332633"><ele>10.0</ele><time>2026-04-20T16:15:52.736Z</time></trkpt><trkpt lat="39.723025" lon="8.63334"><ele>10.0</ele><time>2026-04-20T16:15:53.736Z</time></trkpt><trkpt lat="39.722965" lon="8.6334333"><ele>10.0</ele><time>2026-04-20T16:15:54.736Z</time></trkpt><trkpt lat="39.7229033" lon="8.6335217"><ele>10.0</ele><time>2026-04-20T16:15:55.737Z</time></trkpt><trkpt lat="39.7228417" lon="8.633615"><ele>10.0</ele><time>2026-04-20T16:15:56.736Z</time></trkpt><trkpt lat="39.7227833" lon="8.6337"><ele>10.0</ele><time>2026-04-20T16:15:57.736Z</time></trkpt><trkpt lat="39.722725" lon="8.6337783"><ele>10.166666666666668</ele><time>2026-04-20T16:15:58.736Z</time></trkpt><trkpt lat="39.722665" lon="8.633855"><ele>10.333333333333334</ele><time>2026-04-20T16:15:59.736Z</time></trkpt><trkpt lat="39.7226117" lon="8.6339383"><ele>10.5</ele><time>2026-04-20T16:16:00.736Z</time></trkpt><trkpt lat="39.72256" lon="8.6340117"><ele>10.666666666666666</ele><time>2026-04-20T16:16:01.736Z</time></trkpt><trkpt lat="39.72251" lon="8.6340733"><ele>10.833333333333332</ele><time>2026-04-20T16:16:02.736Z</time></trkpt><trkpt lat="39.7224567" lon="8.63413"><ele>11.0</ele><time>2026-04-20T16:16:03.736Z</time></trkpt><trkpt lat="39.7223917" lon="8.6341833"><ele>11.0</ele><time>2026-04-20T16:16:04.737Z</time></trkpt><trkpt lat="39.7222683" lon="8.6342917"><ele>11.0</ele><time>2026-04-20T16:16:06.737Z</time></trkpt><trkpt lat="39.7222067" lon="8.634345"><ele>11.0</ele><time>2026-04-20T16:16:07.736Z</time></trkpt><trkpt lat="39.72215" lon="8.6343883"><ele>11.0</ele><time>2026-04-20T16:16:08.736Z</time></trkpt><trkpt lat="39.7220533" lon="8.634465"><ele>11.0</ele><time>2026-04-20T16:16:10.736Z</time></trkpt><trkpt lat="39.722" lon="8.6345117"><ele>11.0</ele><time>2026-04-20T16:16:11.736Z</time></trkpt><trkpt lat="39.721905" lon="8.6345917"><ele>11.0</ele><time>2026-04-20T16:16:13.736Z</time></trkpt><trkpt lat="39.7218133" lon="8.6346667"><ele>11.0</ele><time>2026-04-20T16:16:15.736Z</time></trkpt><trkpt lat="39.7217283" lon="8.6347433"><ele>11.0</ele><time>2026-04-20T16:16:17.736Z</time></trkpt><trkpt lat="39.7216267" lon="8.6348267"><ele>11.0</ele><time>2026-04-20T16:16:19.736Z</time></trkpt><trkpt lat="39.7215717" lon="8.6348733"><ele>11.4</ele><time>2026-04-20T16:16:20.736Z</time></trkpt><trkpt lat="39.7215167" lon="8.6349283"><ele>11.8</ele><time>2026-04-20T16:16:21.736Z</time></trkpt><trkpt lat="39.72146" lon="8.6349733"><ele>12.200000000000001</ele><time>2026-04-20T16:16:22.736Z</time></trkpt><trkpt lat="39.7214067" lon="8.6350283"><ele>12.600000000000001</ele><time>2026-04-20T16:16:23.736Z</time></trkpt><trkpt lat="39.7213" lon="8.6351067"><ele>13.0</ele><time>2026-04-20T16:16:25.736Z</time></trkpt><trkpt lat="39.7211383" lon="8.6352133"><ele>13.0</ele><time>2026-04-20T16:16:28.737Z</time></trkpt><trkpt lat="39.7210583" lon="8.635275"><ele>13.0</ele><time>2026-04-20T16:16:30.736Z</time></trkpt><trkpt lat="39.7209683" lon="8.63526"><ele>13.0</ele><time>2026-04-20T16:16:33.736Z</time></trkpt><trkpt lat="39.720875" lon="8.6352383"><ele>13.0</ele><time>2026-04-20T16:16:35.736Z</time></trkpt><trkpt lat="39.7207617" lon="8.6352067"><ele>13.0</ele><time>2026-04-20T16:16:37.736Z</time></trkpt><trkpt lat="39.72065" lon="8.635155"><ele>13.0</ele><time>2026-04-20T16:16:39.736Z</time></trkpt><trkpt lat="39.7205867" lon="8.635115"><ele>13.0</ele><time>2026-04-20T16:16:40.736Z</time></trkpt><trkpt lat="39.7205233" lon="8.635075"><ele>13.0</ele><time>2026-04-20T16:16:41.736Z</time></trkpt><trkpt lat="39.7204083" lon="8.6350017"><ele>13.0</ele><time>2026-04-20T16:16:43.736Z</time></trkpt><trkpt lat="39.720305" lon="8.634915"><ele>13.0</ele><time>2026-04-20T16:16:45.736Z</time></trkpt><trkpt lat="39.7202617" lon="8.6348433"><ele>12.999999999999998</ele><time>2026-04-20T16:16:46.736Z</time></trkpt><trkpt lat="39.7201717" lon="8.6347183"><ele>13.0</ele><time>2026-04-20T16:16:48.736Z</time></trkpt><trkpt lat="39.7201333" lon="8.6346417"><ele>13.0</ele><time>2026-04-20T16:16:49.736Z</time></trkpt><trkpt lat="39.72009" lon="8.6345633"><ele>13.0</ele><time>2026-04-20T16:16:50.736Z</time></trkpt><trkpt lat="39.72005" lon="8.6344817"><ele>12.999999999999998</ele><time>2026-04-20T16:16:51.736Z</time></trkpt><trkpt lat="39.720015" lon="8.634395"><ele>13.0</ele><time>2026-04-20T16:16:52.736Z</time></trkpt><trkpt lat="39.7199417" lon="8.6342817"><ele>12.8</ele><time>2026-04-20T16:16:54.736Z</time></trkpt><trkpt lat="39.719875" lon="8.63418"><ele>12.600000000000001</ele><time>2026-04-20T16:16:56.736Z</time></trkpt><trkpt lat="39.7197933" lon="8.63408"><ele>12.399999999999999</ele><time>2026-04-20T16:16:58.736Z</time></trkpt><trkpt lat="39.7197083" lon="8.63402"><ele>12.2</ele><time>2026-04-20T16:17:00.736Z</time></trkpt><trkpt lat="39.7196483" lon="8.63398"><ele>12.0</ele><time>2026-04-20T16:17:03.736Z</time></trkpt><trkpt lat="39.7195733" lon="8.6339333"><ele>12.0</ele><time>2026-04-20T16:17:07.736Z</time></trkpt><trkpt lat="39.7193567" lon="8.6338067"><ele>12.0</ele><time>2026-04-20T16:17:11.736Z</time></trkpt><trkpt lat="39.7192433" lon="8.633765"><ele>12.0</ele><time>2026-04-20T16:17:13.737Z</time></trkpt><trkpt lat="39.7191167" lon="8.6337433"><ele>12.0</ele><time>2026-04-20T16:17:15.736Z</time></trkpt><trkpt lat="39.7190433" lon="8.6337517"><ele>12.0</ele><time>2026-04-20T16:17:16.736Z</time></trkpt><trkpt lat="39.7189783" lon="8.63377"><ele>12.0</ele><time>2026-04-20T16:17:17.736Z</time></trkpt><trkpt lat="39.7189167" lon="8.6337933"><ele>12.0</ele><time>2026-04-20T16:17:18.737Z</time></trkpt><trkpt lat="39.7188267" lon="8.6338317"><ele>12.0</ele><time>2026-04-20T16:17:20.736Z</time></trkpt><trkpt lat="39.7187583" lon="8.6338467"><ele>12.0</ele><time>2026-04-20T16:17:22.736Z</time></trkpt><trkpt lat="39.7186717" lon="8.6339033"><ele>12.0</ele><time>2026-04-20T16:17:29.736Z</time></trkpt><trkpt lat="39.71873" lon="8.63408"><ele>12.0</ele><time>2026-04-20T16:17:32.736Z</time></trkpt><trkpt lat="39.7187717" lon="8.6341617"><ele>12.0</ele><time>2026-04-20T16:17:33.736Z</time></trkpt><trkpt lat="39.7188233" lon="8.6342517"><ele>12.0</ele><time>2026-04-20T16:17:34.736Z</time></trkpt><trkpt lat="39.7188617" lon="8.6343533"><ele>12.0</ele><time>2026-04-20T16:17:35.736Z</time></trkpt><trkpt lat="39.7189067" lon="8.634455"><ele>12.2</ele><time>2026-04-20T16:17:36.736Z</time></trkpt><trkpt lat="39.7189633" lon="8.6345467"><ele>12.399999999999999</ele><time>2026-04-20T16:17:37.736Z</time></trkpt><trkpt lat="39.7190217" lon="8.63464"><ele>12.600000000000001</ele><time>2026-04-20T16:17:38.736Z</time></trkpt><trkpt lat="39.719075" lon="8.6347333"><ele>12.8</ele><time>2026-04-20T16:17:39.736Z</time></trkpt><trkpt lat="39.7191233" lon="8.6348267"><ele>13.0</ele><time>2026-04-20T16:17:40.736Z</time></trkpt><trkpt lat="39.7191717" lon="8.63493"><ele>12.999999999999998</ele><time>2026-04-20T16:17:41.736Z</time></trkpt><trkpt lat="39.7192183" lon="8.63503"><ele>13.0</ele><time>2026-04-20T16:17:42.736Z</time></trkpt><trkpt lat="39.71926" lon="8.6351233"><ele>13.0</ele><time>2026-04-20T16:17:43.736Z</time></trkpt><trkpt lat="39.7192967" lon="8.6352167"><ele>13.0</ele><time>2026-04-20T16:17:44.737Z</time></trkpt><trkpt lat="39.7193367" lon="8.6352917"><ele>12.999999999999998</ele><time>2026-04-20T16:17:45.736Z</time></trkpt><trkpt lat="39.7193683" lon="8.6353633"><ele>13.0</ele><time>2026-04-20T16:17:46.736Z</time></trkpt><trkpt lat="39.7194167" lon="8.635485"><ele>13.0</ele><time>2026-04-20T16:17:48.736Z</time></trkpt><trkpt lat="39.719505" lon="8.6356017"><ele>13.0</ele><time>2026-04-20T16:17:50.736Z</time></trkpt><trkpt lat="39.719605" lon="8.6357333"><ele>13.0</ele><time>2026-04-20T16:17:52.736Z</time></trkpt><trkpt lat="39.719655" lon="8.6358"><ele>13.0</ele><time>2026-04-20T16:17:53.736Z</time></trkpt><trkpt lat="39.71971" lon="8.635865"><ele>13.0</ele><time>2026-04-20T16:17:54.736Z</time></trkpt><trkpt lat="39.7197617" lon="8.6359317"><ele>12.999999999999998</ele><time>2026-04-20T16:17:55.737Z</time></trkpt><trkpt lat="39.7198117" lon="8.636005"><ele>13.0</ele><time>2026-04-20T16:17:56.736Z</time></trkpt><trkpt lat="39.7198617" lon="8.63608"><ele>13.0</ele><time>2026-04-20T16:17:57.736Z</time></trkpt><trkpt lat="39.719915" lon="8.63614"><ele>13.0</ele><time>2026-04-20T16:17:58.737Z</time></trkpt><trkpt lat="39.7199633" lon="8.6361983"><ele>12.999999999999998</ele><time>2026-04-20T16:17:59.736Z</time></trkpt><trkpt lat="39.7200183" lon="8.6362433"><ele>13.0</ele><time>2026-04-20T16:18:00.736Z</time></trkpt><trkpt lat="39.7200983" lon="8.6363333"><ele>12.8</ele><time>2026-04-20T16:18:02.736Z</time></trkpt><trkpt lat="39.7201567" lon="8.636405"><ele>12.600000000000001</ele><time>2026-04-20T16:18:04.736Z</time></trkpt><trkpt lat="39.7201383" lon="8.6364867"><ele>12.399999999999999</ele><time>2026-04-20T16:18:07.736Z</time></trkpt><trkpt lat="39.72008" lon="8.636525"><ele>12.2</ele><time>2026-04-20T16:18:09.736Z</time></trkpt><trkpt lat="39.7200217" lon="8.6365933"><ele>12.0</ele><time>2026-04-20T16:18:11.736Z</time></trkpt><trkpt lat="39.7199083" lon="8.63675"><ele>12.0</ele><time>2026-04-20T16:18:15.736Z</time></trkpt><trkpt lat="39.7198533" lon="8.6368383"><ele>12.0</ele><time>2026-04-20T16:18:17.736Z</time></trkpt><trkpt lat="39.7197967" lon="8.6369217"><ele>12.0</ele><time>2026-04-20T16:18:19.736Z</time></trkpt><trkpt lat="39.7197567" lon="8.6370383"><ele>12.0</ele><time>2026-04-20T16:18:21.736Z</time></trkpt><trkpt lat="39.719705" lon="8.6371667"><ele>12.0</ele><time>2026-04-20T16:18:23.736Z</time></trkpt><trkpt lat="39.7196517" lon="8.6372883"><ele>12.399999999999999</ele><time>2026-04-20T16:18:25.736Z</time></trkpt><trkpt lat="39.7196217" lon="8.6373633"><ele>12.799999999999999</ele><time>2026-04-20T16:18:27.736Z</time></trkpt><trkpt lat="39.7196167" lon="8.6374517"><ele>13.2</ele><time>2026-04-20T16:18:31.736Z</time></trkpt><trkpt lat="39.719585" lon="8.6375383"><ele>13.6</ele><time>2026-04-20T16:18:37.737Z</time></trkpt><trkpt lat="39.719475" lon="8.6376867"><ele>14.0</ele><time>2026-04-20T16:18:41.736Z</time></trkpt><trkpt lat="39.7194217" lon="8.637775"><ele>14.0</ele><time>2026-04-20T16:18:43.737Z</time></trkpt><trkpt lat="39.7193833" lon="8.6378583"><ele>13.0</ele><time>2026-04-20T16:18:45.736Z</time></trkpt><trkpt lat="39.7193067" lon="8.6379533"><ele>13.0</ele><time>2026-04-20T16:19:19.736Z</time></trkpt></trkseg></trk></gpx>